<?xml version='1.0' encoding='UTF-8'?><gpx version="1.1" creator="JPX - https://github.com/jenetics/jpx" xmlns="http://www.topografix.com/GPX/1/1"><trk><trkseg><trkpt lat="45.5076328" lon="10.4634662"><ele>182.0</ele><time>2026-03-28T08:06:53.038Z</time></trkpt><trkpt lat="45.5077595" lon="10.4636"><ele>182.0</ele><time>2026-03-28T08:12:31.032Z</time></trkpt><trkpt lat="45.5078278" lon="10.4635962"><ele>182.0</ele><time>2026-03-28T08:12:48.033Z</time></trkpt><trkpt lat="45.5078917" lon="10.4635917"><ele>182.0</ele><time>2026-03-28T08:14:06.036Z</time></trkpt><trkpt lat="45.507959" lon="10.4635895"><ele>182.0</ele><time>2026-03-28T08:16:05.039Z</time></trkpt><trkpt lat="45.5080248" lon="10.4636005"><ele>182.0</ele><time>2026-03-28T08:16:48.036Z</time></trkpt><trkpt lat="45.5080953" lon="10.463583"><ele>183.2</ele><time>2026-03-28T08:18:17.036Z</time></trkpt><trkpt lat="45.5081673" lon="10.4635707"><ele>184.39999999999998</ele><time>2026-03-28T08:18:50.036Z</time></trkpt><trkpt lat="45.5082678" lon="10.463564"><ele>185.60000000000002</ele><time>2026-03-28T08:19:21.037Z</time></trkpt><trkpt lat="45.508341" lon="10.4635645"><ele>186.8</ele><time>2026-03-28T08:19:23.037Z</time></trkpt><trkpt lat="45.5083077" lon="10.4636835"><ele>188.0</ele><time>2026-03-28T08:19:37.036Z</time></trkpt><trkpt lat="45.5081728" lon="10.4637248"><ele>188.0</ele><time>2026-03-28T08:19:39.035Z</time></trkpt><trkpt lat="45.5080697" lon="10.463742"><ele>188.0</ele><time>2026-03-28T08:19:40.037Z</time></trkpt><trkpt lat="45.5079662" lon="10.4637563"><ele>188.0</ele><time>2026-03-28T08:19:41.036Z</time></trkpt><trkpt lat="45.5078563" lon="10.4637663"><ele>188.0</ele><time>2026-03-28T08:19:42.035Z</time></trkpt><trkpt lat="45.5077362" lon="10.4637765"><ele>188.0</ele><time>2026-03-28T08:19:43.039Z</time></trkpt><trkpt lat="45.5076083" lon="10.4637887"><ele>187.0</ele><time>2026-03-28T08:19:44.036Z</time></trkpt><trkpt lat="45.5074827" lon="10.4638018"><ele>186.0</ele><time>2026-03-28T08:19:45.036Z</time></trkpt><trkpt lat="45.507357" lon="10.4638137"><ele>185.0</ele><time>2026-03-28T08:19:46.038Z</time></trkpt><trkpt lat="45.5072418" lon="10.4638235"><ele>184.0</ele><time>2026-03-28T08:19:47.036Z</time></trkpt><trkpt lat="45.5071362" lon="10.4638223"><ele>183.66666666666669</ele><time>2026-03-28T08:19:48.036Z</time></trkpt><trkpt lat="45.507042" lon="10.4637962"><ele>183.33333333333334</ele><time>2026-03-28T08:19:49.037Z</time></trkpt><trkpt lat="45.5069657" lon="10.4637388"><ele>183.0</ele><time>2026-03-28T08:19:50.034Z</time></trkpt><trkpt lat="45.5068983" lon="10.4636752"><ele>182.66666666666666</ele><time>2026-03-28T08:19:51.034Z</time></trkpt><trkpt lat="45.5068277" lon="10.4636365"><ele>182.33333333333331</ele><time>2026-03-28T08:19:52.035Z</time></trkpt><trkpt lat="45.5067538" lon="10.4636425"><ele>182.0</ele><time>2026-03-28T08:19:53.034Z</time></trkpt><trkpt lat="45.5066943" lon="10.4636968"><ele>182.0</ele><time>2026-03-28T08:19:54.034Z</time></trkpt><trkpt lat="45.506653" lon="10.4637867"><ele>182.0</ele><time>2026-03-28T08:19:55.038Z</time></trkpt><trkpt lat="45.506641" lon="10.4638972"><ele>182.0</ele><time>2026-03-28T08:19:56.036Z</time></trkpt><trkpt lat="45.5066637" lon="10.46401"><ele>182.0</ele><time>2026-03-28T08:19:57.037Z</time></trkpt><trkpt lat="45.5067065" lon="10.4641268"><ele>182.0</ele><time>2026-03-28T08:19:58.035Z</time></trkpt><trkpt lat="45.5067392" lon="10.4642603"><ele>182.0</ele><time>2026-03-28T08:19:59.036Z</time></trkpt><trkpt lat="45.506748" lon="10.4644168"><ele>182.0</ele><time>2026-03-28T08:20:00.035Z</time></trkpt><trkpt lat="45.5067377" lon="10.4646028"><ele>182.0</ele><time>2026-03-28T08:20:01.035Z</time></trkpt><trkpt lat="45.506721" lon="10.4647933"><ele>182.0</ele><time>2026-03-28T08:20:02.038Z</time></trkpt><trkpt lat="45.5067028" lon="10.4650092"><ele>182.0</ele><time>2026-03-28T08:20:03.036Z</time></trkpt><trkpt lat="45.5066865" lon="10.465233"><ele>182.33333333333331</ele><time>2026-03-28T08:20:04.038Z</time></trkpt><trkpt lat="45.5066707" lon="10.4654527"><ele>182.66666666666666</ele><time>2026-03-28T08:20:05.037Z</time></trkpt><trkpt lat="45.506656" lon="10.4656712"><ele>183.0</ele><time>2026-03-28T08:20:06.035Z</time></trkpt><trkpt lat="45.5066518" lon="10.4658887"><ele>183.0</ele><time>2026-03-28T08:20:07.037Z</time></trkpt><trkpt lat="45.5066628" lon="10.4661055"><ele>183.0</ele><time>2026-03-28T08:20:08.035Z</time></trkpt><trkpt lat="45.5066887" lon="10.466321"><ele>183.0</ele><time>2026-03-28T08:20:09.035Z</time></trkpt><trkpt lat="45.5067227" lon="10.466536"><ele>183.0</ele><time>2026-03-28T08:20:10.036Z</time></trkpt><trkpt lat="45.5067582" lon="10.4667475"><ele>183.0</ele><time>2026-03-28T08:20:11.036Z</time></trkpt><trkpt lat="45.5067905" lon="10.466955"><ele>183.0</ele><time>2026-03-28T08:20:12.035Z</time></trkpt><trkpt lat="45.5068253" lon="10.4671618"><ele>183.0</ele><time>2026-03-28T08:20:13.037Z</time></trkpt><trkpt lat="45.506862" lon="10.467367"><ele>183.0</ele><time>2026-03-28T08:20:14.035Z</time></trkpt><trkpt lat="45.5068967" lon="10.4675723"><ele>183.0</ele><time>2026-03-28T08:20:15.032Z</time></trkpt><trkpt lat="45.5069248" lon="10.467783"><ele>183.0</ele><time>2026-03-28T08:20:16.034Z</time></trkpt><trkpt lat="45.50695" lon="10.467998"><ele>184.0</ele><time>2026-03-28T08:20:17.034Z</time></trkpt><trkpt lat="45.506979" lon="10.4682143"><ele>185.0</ele><time>2026-03-28T08:20:18.034Z</time></trkpt><trkpt lat="45.5070123" lon="10.4684388"><ele>186.0</ele><time>2026-03-28T08:20:19.036Z</time></trkpt><trkpt lat="45.5070478" lon="10.4686678"><ele>187.33333333333334</ele><time>2026-03-28T08:20:20.035Z</time></trkpt><trkpt lat="45.507079" lon="10.468891"><ele>188.66666666666669</ele><time>2026-03-28T08:20:21.037Z</time></trkpt><trkpt lat="45.5071008" lon="10.4691193"><ele>190.0</ele><time>2026-03-28T08:20:22.034Z</time></trkpt><trkpt lat="45.5071072" lon="10.4693515"><ele>190.0</ele><time>2026-03-28T08:20:23.034Z</time></trkpt><trkpt lat="45.507094" lon="10.4695863"><ele>190.0</ele><time>2026-03-28T08:20:24.035Z</time></trkpt><trkpt lat="45.5070668" lon="10.4698195"><ele>190.0</ele><time>2026-03-28T08:20:25.034Z</time></trkpt><trkpt lat="45.5070343" lon="10.4700445"><ele>189.75</ele><time>2026-03-28T08:20:26.034Z</time></trkpt><trkpt lat="45.506996" lon="10.4702547"><ele>189.5</ele><time>2026-03-28T08:20:27.036Z</time></trkpt><trkpt lat="45.506958" lon="10.470453"><ele>189.25</ele><time>2026-03-28T08:20:28.035Z</time></trkpt><trkpt lat="45.5069183" lon="10.4706398"><ele>189.0</ele><time>2026-03-28T08:20:29.036Z</time></trkpt><trkpt lat="45.5068785" lon="10.4708172"><ele>189.5</ele><time>2026-03-28T08:20:30.035Z</time></trkpt><trkpt lat="45.5068338" lon="10.470999"><ele>190.0</ele><time>2026-03-28T08:20:31.035Z</time></trkpt><trkpt lat="45.5067838" lon="10.4711877"><ele>190.5</ele><time>2026-03-28T08:20:32.036Z</time></trkpt><trkpt lat="45.5067333" lon="10.4713845"><ele>191.0</ele><time>2026-03-28T08:20:33.034Z</time></trkpt><trkpt lat="45.5066873" lon="10.4715933"><ele>191.66666666666666</ele><time>2026-03-28T08:20:34.034Z</time></trkpt><trkpt lat="45.506649" lon="10.4718158"><ele>192.33333333333331</ele><time>2026-03-28T08:20:35.035Z</time></trkpt><trkpt lat="45.506619" lon="10.4720478"><ele>193.0</ele><time>2026-03-28T08:20:36.035Z</time></trkpt><trkpt lat="45.5065923" lon="10.472287"><ele>193.66666666666666</ele><time>2026-03-28T08:20:37.038Z</time></trkpt><trkpt lat="45.5065655" lon="10.4725238"><ele>194.33333333333331</ele><time>2026-03-28T08:20:38.034Z</time></trkpt><trkpt lat="45.5065388" lon="10.4727588"><ele>195.0</ele><time>2026-03-28T08:20:39.033Z</time></trkpt><trkpt lat="45.5065135" lon="10.4729898"><ele>195.0</ele><time>2026-03-28T08:20:40.033Z</time></trkpt><trkpt lat="45.5064898" lon="10.4732168"><ele>195.0</ele><time>2026-03-28T08:20:41.031Z</time></trkpt><trkpt lat="45.5064657" lon="10.4734435"><ele>195.0</ele><time>2026-03-28T08:20:42.033Z</time></trkpt><trkpt lat="45.5064397" lon="10.4736705"><ele>194.75</ele><time>2026-03-28T08:20:43.035Z</time></trkpt><trkpt lat="45.5064085" lon="10.4738968"><ele>194.5</ele><time>2026-03-28T08:20:44.038Z</time></trkpt><trkpt lat="45.5063767" lon="10.4740967"><ele>194.25</ele><time>2026-03-28T08:20:45.035Z</time></trkpt><trkpt lat="45.506344" lon="10.4742297"><ele>194.0</ele><time>2026-03-28T08:20:46.034Z</time></trkpt><trkpt lat="45.5062943" lon="10.474334"><ele>194.00000000000003</ele><time>2026-03-28T08:20:47.034Z</time></trkpt><trkpt lat="45.506233" lon="10.4744382"><ele>194.0</ele><time>2026-03-28T08:20:48.033Z</time></trkpt><trkpt lat="45.5061728" lon="10.4745335"><ele>194.0</ele><time>2026-03-28T08:20:49.034Z</time></trkpt><trkpt lat="45.5061098" lon="10.4745987"><ele>194.0</ele><time>2026-03-28T08:20:50.034Z</time></trkpt><trkpt lat="45.5060447" lon="10.4746128"><ele>194.00000000000003</ele><time>2026-03-28T08:20:51.034Z</time></trkpt><trkpt lat="45.5059738" lon="10.4745763"><ele>194.0</ele><time>2026-03-28T08:20:52.037Z</time></trkpt><trkpt lat="45.5059043" lon="10.4744865"><ele>194.0</ele><time>2026-03-28T08:20:53.035Z</time></trkpt><trkpt lat="45.5058438" lon="10.4743413"><ele>194.0</ele><time>2026-03-28T08:20:54.035Z</time></trkpt><trkpt lat="45.505799" lon="10.4741422"><ele>194.0</ele><time>2026-03-28T08:20:55.037Z</time></trkpt><trkpt lat="45.5057683" lon="10.4739052"><ele>194.0</ele><time>2026-03-28T08:20:56.037Z</time></trkpt><trkpt lat="45.5057423" lon="10.4736803"><ele>194.0</ele><time>2026-03-28T08:20:57.038Z</time></trkpt><trkpt lat="45.5057053" lon="10.4734697"><ele>194.0</ele><time>2026-03-28T08:20:58.034Z</time></trkpt><trkpt lat="45.5056543" lon="10.4732878"><ele>194.0</ele><time>2026-03-28T08:20:59.034Z</time></trkpt><trkpt lat="45.5055987" lon="10.4731488"><ele>194.0</ele><time>2026-03-28T08:21:00.034Z</time></trkpt><trkpt lat="45.5055447" lon="10.4730585"><ele>194.0</ele><time>2026-03-28T08:21:01.034Z</time></trkpt><trkpt lat="45.5054525" lon="10.4730415"><ele>194.0</ele><time>2026-03-28T08:21:03.035Z</time></trkpt><trkpt lat="45.505404" lon="10.4731007"><ele>194.0</ele><time>2026-03-28T08:21:04.033Z</time></trkpt><trkpt lat="45.5053368" lon="10.4731988"><ele>194.0</ele><time>2026-03-28T08:21:05.034Z</time></trkpt><trkpt lat="45.5052523" lon="10.4733165"><ele>194.0</ele><time>2026-03-28T08:21:06.031Z</time></trkpt><trkpt lat="45.505176" lon="10.4734245"><ele>194.0</ele><time>2026-03-28T08:21:07.035Z</time></trkpt><trkpt lat="45.5050983" lon="10.4735343"><ele>194.0</ele><time>2026-03-28T08:21:08.034Z</time></trkpt><trkpt lat="45.5050127" lon="10.473638"><ele>194.0</ele><time>2026-03-28T08:21:09.034Z</time></trkpt><trkpt lat="45.5049158" lon="10.4737402"><ele>194.0</ele><time>2026-03-28T08:21:10.033Z</time></trkpt><trkpt lat="45.504803" lon="10.4738533"><ele>194.0</ele><time>2026-03-28T08:21:11.034Z</time></trkpt><trkpt lat="45.5046812" lon="10.4739727"><ele>194.0</ele><time>2026-03-28T08:21:12.037Z</time></trkpt><trkpt lat="45.5045648" lon="10.4740598"><ele>194.0</ele><time>2026-03-28T08:21:13.037Z</time></trkpt><trkpt lat="45.5044475" lon="10.474107"><ele>194.0</ele><time>2026-03-28T08:21:14.036Z</time></trkpt><trkpt lat="45.5043267" lon="10.4741202"><ele>196.75</ele><time>2026-03-28T08:21:15.033Z</time></trkpt><trkpt lat="45.5041985" lon="10.4741002"><ele>199.5</ele><time>2026-03-28T08:21:16.034Z</time></trkpt><trkpt lat="45.5040588" lon="10.4740763"><ele>202.25</ele><time>2026-03-28T08:21:17.04Z</time></trkpt><trkpt lat="45.5039165" lon="10.4740577"><ele>205.0</ele><time>2026-03-28T08:21:18.038Z</time></trkpt><trkpt lat="45.503778" lon="10.4740488"><ele>206.25</ele><time>2026-03-28T08:21:19.034Z</time></trkpt><trkpt lat="45.5036483" lon="10.474049"><ele>207.5</ele><time>2026-03-28T08:21:20.035Z</time></trkpt><trkpt lat="45.5035295" lon="10.4740648"><ele>208.75</ele><time>2026-03-28T08:21:21.034Z</time></trkpt><trkpt lat="45.503419" lon="10.4741083"><ele>210.0</ele><time>2026-03-28T08:21:22.035Z</time></trkpt><trkpt lat="45.5033" lon="10.4741793"><ele>210.0</ele><time>2026-03-28T08:21:23.036Z</time></trkpt><trkpt lat="45.5031698" lon="10.47428"><ele>210.0</ele><time>2026-03-28T08:21:24.034Z</time></trkpt><trkpt lat="45.5030285" lon="10.4743902"><ele>210.0</ele><time>2026-03-28T08:21:25.034Z</time></trkpt><trkpt lat="45.5028935" lon="10.4744935"><ele>209.75</ele><time>2026-03-28T08:21:26.036Z</time></trkpt><trkpt lat="45.5027683" lon="10.4745912"><ele>209.5</ele><time>2026-03-28T08:21:27.034Z</time></trkpt><trkpt lat="45.502649" lon="10.474671"><ele>209.25</ele><time>2026-03-28T08:21:28.035Z</time></trkpt><trkpt lat="45.5025292" lon="10.474704"><ele>209.0</ele><time>2026-03-28T08:21:29.033Z</time></trkpt><trkpt lat="45.5024015" lon="10.47469"><ele>209.0</ele><time>2026-03-28T08:21:30.032Z</time></trkpt><trkpt lat="45.502262" lon="10.4746418"><ele>209.0</ele><time>2026-03-28T08:21:31.034Z</time></trkpt><trkpt lat="45.502113" lon="10.474566"><ele>209.0</ele><time>2026-03-28T08:21:32.033Z</time></trkpt><trkpt lat="45.5019607" lon="10.4744752"><ele>209.25</ele><time>2026-03-28T08:21:33.034Z</time></trkpt><trkpt lat="45.5018173" lon="10.4743807"><ele>209.5</ele><time>2026-03-28T08:21:34.037Z</time></trkpt><trkpt lat="45.5016897" lon="10.4742817"><ele>209.75</ele><time>2026-03-28T08:21:35.035Z</time></trkpt><trkpt lat="45.5015805" lon="10.474188"><ele>210.0</ele><time>2026-03-28T08:21:36.035Z</time></trkpt><trkpt lat="45.5014932" lon="10.4741173"><ele>210.0</ele><time>2026-03-28T08:21:37.037Z</time></trkpt><trkpt lat="45.5014233" lon="10.4740828"><ele>210.0</ele><time>2026-03-28T08:21:38.038Z</time></trkpt><trkpt lat="45.5013183" lon="10.4741337"><ele>210.0</ele><time>2026-03-28T08:21:40.034Z</time></trkpt><trkpt lat="45.5012218" lon="10.4741375"><ele>210.0</ele><time>2026-03-28T08:21:42.036Z</time></trkpt><trkpt lat="45.5011588" lon="10.4740728"><ele>210.0</ele><time>2026-03-28T08:21:43.035Z</time></trkpt><trkpt lat="45.5010895" lon="10.4739677"><ele>209.75</ele><time>2026-03-28T08:21:44.035Z</time></trkpt><trkpt lat="45.5010172" lon="10.4738367"><ele>209.5</ele><time>2026-03-28T08:21:45.038Z</time></trkpt><trkpt lat="45.5009457" lon="10.4736772"><ele>209.25</ele><time>2026-03-28T08:21:46.037Z</time></trkpt><trkpt lat="45.500873" lon="10.4735158"><ele>209.0</ele><time>2026-03-28T08:21:47.036Z</time></trkpt><trkpt lat="45.5008193" lon="10.4733648"><ele>209.00000000000003</ele><time>2026-03-28T08:21:48.036Z</time></trkpt><trkpt lat="45.5007863" lon="10.4732443"><ele>209.0</ele><time>2026-03-28T08:21:49.035Z</time></trkpt><trkpt lat="45.5007538" lon="10.4731623"><ele>209.0</ele><time>2026-03-28T08:21:50.036Z</time></trkpt><trkpt lat="45.5006805" lon="10.4730977"><ele>209.0</ele><time>2026-03-28T08:21:52.034Z</time></trkpt><trkpt lat="45.5006122" lon="10.4730772"><ele>209.00000000000003</ele><time>2026-03-28T08:21:54.034Z</time></trkpt><trkpt lat="45.5005395" lon="10.473049"><ele>209.0</ele><time>2026-03-28T08:21:56.034Z</time></trkpt><trkpt lat="45.500466" lon="10.4730307"><ele>207.6</ele><time>2026-03-28T08:21:58.037Z</time></trkpt><trkpt lat="45.500394" lon="10.4730098"><ele>206.2</ele><time>2026-03-28T08:22:00.036Z</time></trkpt><trkpt lat="45.5003268" lon="10.4729865"><ele>204.79999999999998</ele><time>2026-03-28T08:22:02.037Z</time></trkpt><trkpt lat="45.5002405" lon="10.4729618"><ele>203.39999999999998</ele><time>2026-03-28T08:22:13.038Z</time></trkpt><trkpt lat="45.500115" lon="10.4729373"><ele>202.0</ele><time>2026-03-28T08:22:15.037Z</time></trkpt><trkpt lat="45.5000173" lon="10.4729112"><ele>202.0</ele><time>2026-03-28T08:22:16.036Z</time></trkpt><trkpt lat="45.4998897" lon="10.4728738"><ele>202.0</ele><time>2026-03-28T08:22:17.035Z</time></trkpt><trkpt lat="45.4997478" lon="10.4728293"><ele>202.0</ele><time>2026-03-28T08:22:18.033Z</time></trkpt><trkpt lat="45.4995927" lon="10.4727797"><ele>202.0</ele><time>2026-03-28T08:22:19.033Z</time></trkpt><trkpt lat="45.4994485" lon="10.472733"><ele>201.39999999999998</ele><time>2026-03-28T08:22:20.033Z</time></trkpt><trkpt lat="45.4993235" lon="10.4726898"><ele>200.79999999999998</ele><time>2026-03-28T08:22:21.034Z</time></trkpt><trkpt lat="45.4992242" lon="10.4726553"><ele>200.2</ele><time>2026-03-28T08:22:22.036Z</time></trkpt><trkpt lat="45.4991457" lon="10.4726287"><ele>199.6</ele><time>2026-03-28T08:22:23.04Z</time></trkpt><trkpt lat="45.499061" lon="10.4726165"><ele>199.0</ele><time>2026-03-28T08:22:25.036Z</time></trkpt><trkpt lat="45.4990382" lon="10.4727777"><ele>199.0</ele><time>2026-03-28T08:22:28.038Z</time></trkpt><trkpt lat="45.499039" lon="10.4728865"><ele>199.0</ele><time>2026-03-28T08:22:29.036Z</time></trkpt><trkpt lat="45.4990362" lon="10.4730107"><ele>199.0</ele><time>2026-03-28T08:22:30.036Z</time></trkpt><trkpt lat="45.4990325" lon="10.4731395"><ele>199.0</ele><time>2026-03-28T08:22:31.037Z</time></trkpt><trkpt lat="45.499027" lon="10.4732805"><ele>199.0</ele><time>2026-03-28T08:22:32.037Z</time></trkpt><trkpt lat="45.4990183" lon="10.4734407"><ele>199.33333333333331</ele><time>2026-03-28T08:22:33.037Z</time></trkpt><trkpt lat="45.4990088" lon="10.47363"><ele>199.66666666666669</ele><time>2026-03-28T08:22:34.039Z</time></trkpt><trkpt lat="45.4990015" lon="10.473853"><ele>200.0</ele><time>2026-03-28T08:22:35.039Z</time></trkpt><trkpt lat="45.4989917" lon="10.474106"><ele>200.66666666666669</ele><time>2026-03-28T08:22:36.036Z</time></trkpt><trkpt lat="45.4989808" lon="10.4743478"><ele>201.33333333333331</ele><time>2026-03-28T08:22:37.037Z</time></trkpt><trkpt lat="45.4989678" lon="10.47459"><ele>202.0</ele><time>2026-03-28T08:22:38.038Z</time></trkpt><trkpt lat="45.4989553" lon="10.4748233"><ele>202.39999999999998</ele><time>2026-03-28T08:22:39.037Z</time></trkpt><trkpt lat="45.4989442" lon="10.475034"><ele>202.79999999999998</ele><time>2026-03-28T08:22:40.038Z</time></trkpt><trkpt lat="45.4989347" lon="10.4752023"><ele>203.2</ele><time>2026-03-28T08:22:41.035Z</time></trkpt><trkpt lat="45.4989283" lon="10.475321"><ele>203.6</ele><time>2026-03-28T08:22:42.034Z</time></trkpt><trkpt lat="45.4989075" lon="10.4754273"><ele>204.0</ele><time>2026-03-28T08:22:44.033Z</time></trkpt><trkpt lat="45.4988252" lon="10.4754467"><ele>204.79999999999998</ele><time>2026-03-28T08:22:46.038Z</time></trkpt><trkpt lat="45.4987575" lon="10.4754518"><ele>205.6</ele><time>2026-03-28T08:22:47.038Z</time></trkpt><trkpt lat="45.4986653" lon="10.4754617"><ele>206.4</ele><time>2026-03-28T08:22:48.037Z</time></trkpt><trkpt lat="45.4985515" lon="10.4754725"><ele>207.2</ele><time>2026-03-28T08:22:49.036Z</time></trkpt><trkpt lat="45.4984275" lon="10.4754855"><ele>208.0</ele><time>2026-03-28T08:22:50.035Z</time></trkpt><trkpt lat="45.4983022" lon="10.475499"><ele>208.0</ele><time>2026-03-28T08:22:51.034Z</time></trkpt><trkpt lat="45.4981695" lon="10.4755045"><ele>208.0</ele><time>2026-03-28T08:22:52.035Z</time></trkpt><trkpt lat="45.4980385" lon="10.4755052"><ele>208.0</ele><time>2026-03-28T08:22:53.034Z</time></trkpt><trkpt lat="45.4979042" lon="10.475501"><ele>208.0</ele><time>2026-03-28T08:22:54.033Z</time></trkpt><trkpt lat="45.4977688" lon="10.4754938"><ele>208.25</ele><time>2026-03-28T08:22:55.035Z</time></trkpt><trkpt lat="45.4976268" lon="10.4754705"><ele>208.5</ele><time>2026-03-28T08:22:56.034Z</time></trkpt><trkpt lat="45.4974908" lon="10.4754417"><ele>208.75</ele><time>2026-03-28T08:22:57.034Z</time></trkpt><trkpt lat="45.4973708" lon="10.4754087"><ele>209.0</ele><time>2026-03-28T08:22:58.039Z</time></trkpt><trkpt lat="45.4972498" lon="10.4753763"><ele>208.0</ele><time>2026-03-28T08:22:59.035Z</time></trkpt><trkpt lat="45.4971302" lon="10.4753543"><ele>207.0</ele><time>2026-03-28T08:23:00.035Z</time></trkpt><trkpt lat="45.4970167" lon="10.475329"><ele>206.0</ele><time>2026-03-28T08:23:01.035Z</time></trkpt><trkpt lat="45.4969057" lon="10.475292"><ele>205.0</ele><time>2026-03-28T08:23:02.035Z</time></trkpt><trkpt lat="45.4967962" lon="10.4752568"><ele>205.0</ele><time>2026-03-28T08:23:03.035Z</time></trkpt><trkpt lat="45.4966903" lon="10.47523"><ele>205.0</ele><time>2026-03-28T08:23:04.038Z</time></trkpt><trkpt lat="45.4965805" lon="10.475211"><ele>205.0</ele><time>2026-03-28T08:23:05.037Z</time></trkpt><trkpt lat="45.4964675" lon="10.4751947"><ele>205.0</ele><time>2026-03-28T08:23:06.034Z</time></trkpt><trkpt lat="45.4963568" lon="10.475181"><ele>205.0</ele><time>2026-03-28T08:23:07.035Z</time></trkpt><trkpt lat="45.496243" lon="10.4751695"><ele>205.5</ele><time>2026-03-28T08:23:08.038Z</time></trkpt><trkpt lat="45.4961248" lon="10.4751592"><ele>206.0</ele><time>2026-03-28T08:23:09.032Z</time></trkpt><trkpt lat="45.4960098" lon="10.4751512"><ele>206.5</ele><time>2026-03-28T08:23:10.034Z</time></trkpt><trkpt lat="45.4958925" lon="10.4751362"><ele>207.0</ele><time>2026-03-28T08:23:11.035Z</time></trkpt><trkpt lat="45.4957737" lon="10.4751073"><ele>207.0</ele><time>2026-03-28T08:23:12.034Z</time></trkpt><trkpt lat="45.4956525" lon="10.4750753"><ele>207.0</ele><time>2026-03-28T08:23:13.035Z</time></trkpt><trkpt lat="45.4955317" lon="10.475057"><ele>207.0</ele><time>2026-03-28T08:23:14.038Z</time></trkpt><trkpt lat="45.4954047" lon="10.4750503"><ele>207.0</ele><time>2026-03-28T08:23:15.035Z</time></trkpt><trkpt lat="45.4952783" lon="10.4750462"><ele>207.25</ele><time>2026-03-28T08:23:16.038Z</time></trkpt><trkpt lat="45.495149" lon="10.475035"><ele>207.5</ele><time>2026-03-28T08:23:17.035Z</time></trkpt><trkpt lat="45.4949993" lon="10.4750207"><ele>207.75</ele><time>2026-03-28T08:23:18.034Z</time></trkpt><trkpt lat="45.4948523" lon="10.4750107"><ele>208.0</ele><time>2026-03-28T08:23:19.035Z</time></trkpt><trkpt lat="45.4947148" lon="10.4750028"><ele>208.0</ele><time>2026-03-28T08:23:20.034Z</time></trkpt><trkpt lat="45.4945732" lon="10.474991"><ele>208.0</ele><time>2026-03-28T08:23:21.034Z</time></trkpt><trkpt lat="45.4944358" lon="10.4749755"><ele>208.0</ele><time>2026-03-28T08:23:22.036Z</time></trkpt><trkpt lat="45.4943052" lon="10.4749562"><ele>208.0</ele><time>2026-03-28T08:23:23.036Z</time></trkpt><trkpt lat="45.494179" lon="10.4749387"><ele>208.0</ele><time>2026-03-28T08:23:24.035Z</time></trkpt><trkpt lat="45.4940485" lon="10.4749268"><ele>208.0</ele><time>2026-03-28T08:23:25.036Z</time></trkpt><trkpt lat="45.4939253" lon="10.4749227"><ele>208.0</ele><time>2026-03-28T08:23:26.036Z</time></trkpt><trkpt lat="45.4938052" lon="10.4749303"><ele>208.0</ele><time>2026-03-28T08:23:27.036Z</time></trkpt><trkpt lat="45.4936807" lon="10.4749448"><ele>209.0</ele><time>2026-03-28T08:23:28.035Z</time></trkpt><trkpt lat="45.4935473" lon="10.4749562"><ele>210.0</ele><time>2026-03-28T08:23:29.038Z</time></trkpt><trkpt lat="45.4934043" lon="10.4749607"><ele>211.0</ele><time>2026-03-28T08:23:30.035Z</time></trkpt><trkpt lat="45.493271" lon="10.4749572"><ele>212.0</ele><time>2026-03-28T08:23:31.033Z</time></trkpt><trkpt lat="45.4931522" lon="10.4749547"><ele>212.00000000000003</ele><time>2026-03-28T08:23:32.033Z</time></trkpt><trkpt lat="45.4930488" lon="10.474956"><ele>212.0</ele><time>2026-03-28T08:23:33.033Z</time></trkpt><trkpt lat="45.4929615" lon="10.4749557"><ele>212.0</ele><time>2026-03-28T08:23:34.031Z</time></trkpt><trkpt lat="45.4928973" lon="10.4749395"><ele>212.0</ele><time>2026-03-28T08:23:35.033Z</time></trkpt><trkpt lat="45.492836" lon="10.4748257"><ele>212.00000000000003</ele><time>2026-03-28T08:23:37.036Z</time></trkpt><trkpt lat="45.4928245" lon="10.4746973"><ele>212.0</ele><time>2026-03-28T08:23:38.036Z</time></trkpt><trkpt lat="45.4927995" lon="10.4745357"><ele>212.8</ele><time>2026-03-28T08:23:39.035Z</time></trkpt><trkpt lat="45.4927595" lon="10.4743767"><ele>213.6</ele><time>2026-03-28T08:23:40.035Z</time></trkpt><trkpt lat="45.492724" lon="10.474227"><ele>214.40000000000003</ele><time>2026-03-28T08:23:41.034Z</time></trkpt><trkpt lat="45.492693" lon="10.4740967"><ele>215.20000000000002</ele><time>2026-03-28T08:23:42.036Z</time></trkpt><trkpt lat="45.492661" lon="10.4739852"><ele>216.0</ele><time>2026-03-28T08:23:43.034Z</time></trkpt><trkpt lat="45.4926173" lon="10.4738837"><ele>216.0</ele><time>2026-03-28T08:23:44.034Z</time></trkpt><trkpt lat="45.4925582" lon="10.4737728"><ele>216.0</ele><time>2026-03-28T08:23:45.033Z</time></trkpt><trkpt lat="45.4925037" lon="10.4736763"><ele>216.0</ele><time>2026-03-28T08:23:46.034Z</time></trkpt><trkpt lat="45.4924633" lon="10.473587"><ele>216.0</ele><time>2026-03-28T08:23:47.034Z</time></trkpt><trkpt lat="45.4924043" lon="10.4734307"><ele>216.0</ele><time>2026-03-28T08:23:49.034Z</time></trkpt><trkpt lat="45.4923672" lon="10.4733528"><ele>216.0</ele><time>2026-03-28T08:23:50.034Z</time></trkpt><trkpt lat="45.4923115" lon="10.4732783"><ele>215.0</ele><time>2026-03-28T08:23:51.036Z</time></trkpt><trkpt lat="45.4922443" lon="10.4732067"><ele>214.0</ele><time>2026-03-28T08:23:52.031Z</time></trkpt><trkpt lat="45.4921678" lon="10.4731467"><ele>213.0</ele><time>2026-03-28T08:23:53.032Z</time></trkpt><trkpt lat="45.4920975" lon="10.4731067"><ele>212.0</ele><time>2026-03-28T08:23:54.032Z</time></trkpt><trkpt lat="45.49203" lon="10.4730792"><ele>211.0</ele><time>2026-03-28T08:23:55.031Z</time></trkpt><trkpt lat="45.491958" lon="10.4730488"><ele>210.0</ele><time>2026-03-28T08:23:56.031Z</time></trkpt><trkpt lat="45.4918638" lon="10.47304"><ele>208.75</ele><time>2026-03-28T08:23:57.03Z</time></trkpt><trkpt lat="45.4917418" lon="10.4730685"><ele>207.5</ele><time>2026-03-28T08:23:58.03Z</time></trkpt><trkpt lat="45.491608" lon="10.4730965"><ele>206.25</ele><time>2026-03-28T08:23:59.032Z</time></trkpt><trkpt lat="45.4914675" lon="10.4731238"><ele>205.0</ele><time>2026-03-28T08:24:00.031Z</time></trkpt><trkpt lat="45.491302" lon="10.4731618"><ele>203.66666666666666</ele><time>2026-03-28T08:24:01.033Z</time></trkpt><trkpt lat="45.4911307" lon="10.4731965"><ele>202.33333333333331</ele><time>2026-03-28T08:24:02.035Z</time></trkpt><trkpt lat="45.4909683" lon="10.473221"><ele>201.0</ele><time>2026-03-28T08:24:03.034Z</time></trkpt><trkpt lat="45.4908263" lon="10.473234"><ele>201.0</ele><time>2026-03-28T08:24:04.033Z</time></trkpt><trkpt lat="45.4906998" lon="10.473264"><ele>201.0</ele><time>2026-03-28T08:24:05.037Z</time></trkpt><trkpt lat="45.4905745" lon="10.4733097"><ele>201.0</ele><time>2026-03-28T08:24:06.034Z</time></trkpt><trkpt lat="45.490427" lon="10.4733942"><ele>201.0</ele><time>2026-03-28T08:24:07.034Z</time></trkpt><trkpt lat="45.4902762" lon="10.4734983"><ele>198.5</ele><time>2026-03-28T08:24:08.033Z</time></trkpt><trkpt lat="45.490147" lon="10.473604"><ele>196.0</ele><time>2026-03-28T08:24:09.034Z</time></trkpt><trkpt lat="45.4900198" lon="10.4737133"><ele>193.5</ele><time>2026-03-28T08:24:10.036Z</time></trkpt><trkpt lat="45.4898987" lon="10.473826"><ele>191.0</ele><time>2026-03-28T08:24:11.035Z</time></trkpt><trkpt lat="45.4897863" lon="10.4739328"><ele>191.0</ele><time>2026-03-28T08:24:12.033Z</time></trkpt><trkpt lat="45.4896708" lon="10.4740375"><ele>191.0</ele><time>2026-03-28T08:24:13.036Z</time></trkpt><trkpt lat="45.4895478" lon="10.4741308"><ele>191.0</ele><time>2026-03-28T08:24:14.036Z</time></trkpt><trkpt lat="45.4894165" lon="10.4742175"><ele>191.0</ele><time>2026-03-28T08:24:15.036Z</time></trkpt><trkpt lat="45.4892742" lon="10.4742983"><ele>189.33333333333331</ele><time>2026-03-28T08:24:16.036Z</time></trkpt><trkpt lat="45.4891203" lon="10.4743807"><ele>187.66666666666666</ele><time>2026-03-28T08:24:17.035Z</time></trkpt><trkpt lat="45.4889578" lon="10.4744733"><ele>186.0</ele><time>2026-03-28T08:24:18.034Z</time></trkpt><trkpt lat="45.4888013" lon="10.4745598"><ele>185.33333333333334</ele><time>2026-03-28T08:24:19.036Z</time></trkpt><trkpt lat="45.4886512" lon="10.4746367"><ele>184.66666666666669</ele><time>2026-03-28T08:24:20.036Z</time></trkpt><trkpt lat="45.488503" lon="10.4747127"><ele>184.0</ele><time>2026-03-28T08:24:21.029Z</time></trkpt><trkpt lat="45.4883535" lon="10.4747952"><ele>184.0</ele><time>2026-03-28T08:24:22.032Z</time></trkpt><trkpt lat="45.4881977" lon="10.4748808"><ele>184.0</ele><time>2026-03-28T08:24:23.031Z</time></trkpt><trkpt lat="45.488054" lon="10.474963"><ele>184.0</ele><time>2026-03-28T08:24:24.034Z</time></trkpt><trkpt lat="45.4879232" lon="10.4750425"><ele>184.0</ele><time>2026-03-28T08:24:25.034Z</time></trkpt><trkpt lat="45.4878053" lon="10.475118"><ele>184.0</ele><time>2026-03-28T08:24:26.033Z</time></trkpt><trkpt lat="45.4877022" lon="10.4751973"><ele>184.0</ele><time>2026-03-28T08:24:27.031Z</time></trkpt><trkpt lat="45.4876215" lon="10.475276"><ele>184.0</ele><time>2026-03-28T08:24:28.036Z</time></trkpt><trkpt lat="45.4875682" lon="10.4753648"><ele>184.0</ele><time>2026-03-28T08:24:29.033Z</time></trkpt><trkpt lat="45.4875272" lon="10.475455"><ele>184.0</ele><time>2026-03-28T08:24:30.033Z</time></trkpt><trkpt lat="45.4874703" lon="10.4755352"><ele>184.0</ele><time>2026-03-28T08:24:31.033Z</time></trkpt><trkpt lat="45.487384" lon="10.4756"><ele>184.0</ele><time>2026-03-28T08:24:32.033Z</time></trkpt><trkpt lat="45.4872822" lon="10.4756348"><ele>184.0</ele><time>2026-03-28T08:24:33.032Z</time></trkpt><trkpt lat="45.4871963" lon="10.4756535"><ele>184.0</ele><time>2026-03-28T08:24:34.033Z</time></trkpt><trkpt lat="45.4870965" lon="10.4756102"><ele>184.39999999999998</ele><time>2026-03-28T08:24:36.035Z</time></trkpt><trkpt lat="45.4870548" lon="10.4755085"><ele>184.8</ele><time>2026-03-28T08:24:37.033Z</time></trkpt><trkpt lat="45.487018" lon="10.4753992"><ele>185.2</ele><time>2026-03-28T08:24:38.033Z</time></trkpt><trkpt lat="45.4869727" lon="10.4752755"><ele>185.60000000000002</ele><time>2026-03-28T08:24:39.033Z</time></trkpt><trkpt lat="45.486927" lon="10.4751533"><ele>186.0</ele><time>2026-03-28T08:24:40.033Z</time></trkpt><trkpt lat="45.4868893" lon="10.4750303"><ele>186.0</ele><time>2026-03-28T08:24:41.034Z</time></trkpt><trkpt lat="45.4868522" lon="10.4749018"><ele>186.0</ele><time>2026-03-28T08:24:42.032Z</time></trkpt><trkpt lat="45.4868185" lon="10.4747745"><ele>186.0</ele><time>2026-03-28T08:24:43.033Z</time></trkpt><trkpt lat="45.4867858" lon="10.4746402"><ele>186.0</ele><time>2026-03-28T08:24:44.032Z</time></trkpt><trkpt lat="45.4867572" lon="10.474493"><ele>186.0</ele><time>2026-03-28T08:24:45.03Z</time></trkpt><trkpt lat="45.4867303" lon="10.4743353"><ele>185.83333333333334</ele><time>2026-03-28T08:24:46.03Z</time></trkpt><trkpt lat="45.4867053" lon="10.4741915"><ele>185.66666666666666</ele><time>2026-03-28T08:24:47.032Z</time></trkpt><trkpt lat="45.4866795" lon="10.4740605"><ele>185.5</ele><time>2026-03-28T08:24:48.029Z</time></trkpt><trkpt lat="45.486652" lon="10.4739393"><ele>185.33333333333331</ele><time>2026-03-28T08:24:49.033Z</time></trkpt><trkpt lat="45.4866232" lon="10.4738283"><ele>185.16666666666666</ele><time>2026-03-28T08:24:50.033Z</time></trkpt><trkpt lat="45.4865958" lon="10.473727"><ele>185.0</ele><time>2026-03-28T08:24:51.035Z</time></trkpt><trkpt lat="45.486569" lon="10.473641"><ele>185.0</ele><time>2026-03-28T08:24:52.034Z</time></trkpt><trkpt lat="45.4865238" lon="10.473501"><ele>185.0</ele><time>2026-03-28T08:24:54.033Z</time></trkpt><trkpt lat="45.4864878" lon="10.4734115"><ele>185.0</ele><time>2026-03-28T08:24:56.033Z</time></trkpt><trkpt lat="45.4864603" lon="10.4733307"><ele>185.0</ele><time>2026-03-28T08:25:03.03Z</time></trkpt><trkpt lat="45.4864278" lon="10.473246"><ele>185.0</ele><time>2026-03-28T08:25:05.033Z</time></trkpt><trkpt lat="45.4863733" lon="10.4731155"><ele>185.0</ele><time>2026-03-28T08:25:07.035Z</time></trkpt><trkpt lat="45.4863147" lon="10.4729828"><ele>184.66666666666666</ele><time>2026-03-28T08:25:09.031Z</time></trkpt><trkpt lat="45.4862585" lon="10.4728713"><ele>184.33333333333331</ele><time>2026-03-28T08:25:11.031Z</time></trkpt><trkpt lat="45.4862257" lon="10.4727938"><ele>184.0</ele><time>2026-03-28T08:25:13.033Z</time></trkpt><trkpt lat="45.4861847" lon="10.4727195"><ele>183.66666666666666</ele><time>2026-03-28T08:25:15.033Z</time></trkpt><trkpt lat="45.4861038" lon="10.4726423"><ele>183.33333333333334</ele><time>2026-03-28T08:25:17.033Z</time></trkpt><trkpt lat="45.4860268" lon="10.472573"><ele>183.0</ele><time>2026-03-28T08:25:19.032Z</time></trkpt><trkpt lat="45.4859672" lon="10.4724788"><ele>183.0</ele><time>2026-03-28T08:25:21.033Z</time></trkpt><trkpt lat="45.4859217" lon="10.472386"><ele>183.0</ele><time>2026-03-28T08:25:23.031Z</time></trkpt><trkpt lat="45.485833" lon="10.4723807"><ele>183.0</ele><time>2026-03-28T08:25:26.035Z</time></trkpt><trkpt lat="45.4857722" lon="10.4724108"><ele>183.0</ele><time>2026-03-28T08:25:28.033Z</time></trkpt><trkpt lat="45.4857092" lon="10.4723847"><ele>183.0</ele><time>2026-03-28T08:25:30.031Z</time></trkpt><trkpt lat="45.4856538" lon="10.4721983"><ele>183.0</ele><time>2026-03-28T08:25:32.032Z</time></trkpt><trkpt lat="45.4856312" lon="10.4720587"><ele>182.25</ele><time>2026-03-28T08:25:33.03Z</time></trkpt><trkpt lat="45.4855982" lon="10.4718937"><ele>181.5</ele><time>2026-03-28T08:25:34.03Z</time></trkpt><trkpt lat="45.4855558" lon="10.4717332"><ele>180.75</ele><time>2026-03-28T08:25:35.033Z</time></trkpt><trkpt lat="45.4855113" lon="10.4715873"><ele>180.0</ele><time>2026-03-28T08:25:36.033Z</time></trkpt><trkpt lat="45.4854713" lon="10.4714572"><ele>180.0</ele><time>2026-03-28T08:25:37.038Z</time></trkpt><trkpt lat="45.4854338" lon="10.4713293"><ele>180.0</ele><time>2026-03-28T08:25:38.036Z</time></trkpt><trkpt lat="45.4853998" lon="10.4711995"><ele>180.0</ele><time>2026-03-28T08:25:39.036Z</time></trkpt><trkpt lat="45.4853698" lon="10.4710653"><ele>180.0</ele><time>2026-03-28T08:25:40.039Z</time></trkpt><trkpt lat="45.485343" lon="10.470919"><ele>180.0</ele><time>2026-03-28T08:25:41.039Z</time></trkpt><trkpt lat="45.4853192" lon="10.4707675"><ele>179.0</ele><time>2026-03-28T08:25:42.035Z</time></trkpt><trkpt lat="45.485296" lon="10.4706192"><ele>178.0</ele><time>2026-03-28T08:25:43.038Z</time></trkpt><trkpt lat="45.4852743" lon="10.4704805"><ele>177.0</ele><time>2026-03-28T08:25:44.034Z</time></trkpt><trkpt lat="45.485253" lon="10.4703423"><ele>176.0</ele><time>2026-03-28T08:25:45.035Z</time></trkpt><trkpt lat="45.4852328" lon="10.4702152"><ele>175.0</ele><time>2026-03-28T08:25:46.036Z</time></trkpt><trkpt lat="45.4852152" lon="10.4701038"><ele>174.57142857142858</ele><time>2026-03-28T08:25:47.035Z</time></trkpt><trkpt lat="45.4851992" lon="10.4700038"><ele>174.14285714285714</ele><time>2026-03-28T08:25:48.036Z</time></trkpt><trkpt lat="45.4851852" lon="10.4699125"><ele>173.71428571428572</ele><time>2026-03-28T08:25:49.038Z</time></trkpt><trkpt lat="45.4851712" lon="10.4698247"><ele>173.28571428571428</ele><time>2026-03-28T08:25:50.038Z</time></trkpt><trkpt lat="45.4851572" lon="10.469729"><ele>172.85714285714286</ele><time>2026-03-28T08:25:51.037Z</time></trkpt><trkpt lat="45.4851485" lon="10.4696158"><ele>172.42857142857144</ele><time>2026-03-28T08:25:52.039Z</time></trkpt><trkpt lat="45.4851472" lon="10.4695008"><ele>172.0</ele><time>2026-03-28T08:25:53.037Z</time></trkpt><trkpt lat="45.4851502" lon="10.4693835"><ele>171.8</ele><time>2026-03-28T08:25:54.036Z</time></trkpt><trkpt lat="45.4851537" lon="10.4692482"><ele>171.6</ele><time>2026-03-28T08:25:55.038Z</time></trkpt><trkpt lat="45.4851578" lon="10.4690982"><ele>171.4</ele><time>2026-03-28T08:25:56.036Z</time></trkpt><trkpt lat="45.4851588" lon="10.4689293"><ele>171.20000000000002</ele><time>2026-03-28T08:25:57.034Z</time></trkpt><trkpt lat="45.4851462" lon="10.4687492"><ele>171.0</ele><time>2026-03-28T08:25:58.032Z</time></trkpt><trkpt lat="45.4851235" lon="10.4685502"><ele>170.75</ele><time>2026-03-28T08:25:59.034Z</time></trkpt><trkpt lat="45.485105" lon="10.4683555"><ele>170.5</ele><time>2026-03-28T08:26:00.033Z</time></trkpt><trkpt lat="45.4850927" lon="10.4681698"><ele>170.25</ele><time>2026-03-28T08:26:01.033Z</time></trkpt><trkpt lat="45.4850797" lon="10.4679747"><ele>170.0</ele><time>2026-03-28T08:26:02.037Z</time></trkpt><trkpt lat="45.485063" lon="10.4677533"><ele>169.75</ele><time>2026-03-28T08:26:03.037Z</time></trkpt><trkpt lat="45.4850432" lon="10.467534"><ele>169.5</ele><time>2026-03-28T08:26:04.038Z</time></trkpt><trkpt lat="45.4850213" lon="10.467328"><ele>169.25</ele><time>2026-03-28T08:26:05.037Z</time></trkpt><trkpt lat="45.484996" lon="10.4671212"><ele>169.0</ele><time>2026-03-28T08:26:06.037Z</time></trkpt><trkpt lat="45.484963" lon="10.4669023"><ele>169.0</ele><time>2026-03-28T08:26:07.038Z</time></trkpt><trkpt lat="45.4849267" lon="10.4666778"><ele>169.0</ele><time>2026-03-28T08:26:08.039Z</time></trkpt><trkpt lat="45.4848918" lon="10.466444"><ele>169.0</ele><time>2026-03-28T08:26:09.035Z</time></trkpt><trkpt lat="45.4848645" lon="10.4662122"><ele>168.33333333333334</ele><time>2026-03-28T08:26:10.037Z</time></trkpt><trkpt lat="45.4848373" lon="10.4659662"><ele>167.66666666666666</ele><time>2026-03-28T08:26:11.036Z</time></trkpt><trkpt lat="45.48481" lon="10.4657205"><ele>167.0</ele><time>2026-03-28T08:26:12.034Z</time></trkpt><trkpt lat="45.48478" lon="10.4654742"><ele>166.66666666666666</ele><time>2026-03-28T08:26:13.035Z</time></trkpt><trkpt lat="45.4847542" lon="10.4652415"><ele>166.33333333333334</ele><time>2026-03-28T08:26:14.035Z</time></trkpt><trkpt lat="45.4847273" lon="10.4649973"><ele>166.0</ele><time>2026-03-28T08:26:15.037Z</time></trkpt><trkpt lat="45.484703" lon="10.4647565"><ele>165.66666666666669</ele><time>2026-03-28T08:26:16.038Z</time></trkpt><trkpt lat="45.484681" lon="10.4645295"><ele>165.33333333333334</ele><time>2026-03-28T08:26:17.038Z</time></trkpt><trkpt lat="45.4846597" lon="10.4643092"><ele>165.0</ele><time>2026-03-28T08:26:18.038Z</time></trkpt><trkpt lat="45.4846378" lon="10.4640898"><ele>165.0</ele><time>2026-03-28T08:26:19.038Z</time></trkpt><trkpt lat="45.4846198" lon="10.4638758"><ele>165.0</ele><time>2026-03-28T08:26:20.036Z</time></trkpt><trkpt lat="45.4846075" lon="10.463666"><ele>165.0</ele><time>2026-03-28T08:26:21.037Z</time></trkpt><trkpt lat="45.4846022" lon="10.4634658"><ele>165.0</ele><time>2026-03-28T08:26:22.034Z</time></trkpt><trkpt lat="45.4846038" lon="10.4632775"><ele>165.0</ele><time>2026-03-28T08:26:23.033Z</time></trkpt><trkpt lat="45.4846107" lon="10.463094"><ele>165.0</ele><time>2026-03-28T08:26:24.033Z</time></trkpt><trkpt lat="45.4846195" lon="10.4629155"><ele>165.0</ele><time>2026-03-28T08:26:25.032Z</time></trkpt><trkpt lat="45.4846272" lon="10.4627685"><ele>165.0</ele><time>2026-03-28T08:26:26.035Z</time></trkpt><trkpt lat="45.484628" lon="10.4626552"><ele>165.0</ele><time>2026-03-28T08:26:27.037Z</time></trkpt><trkpt lat="45.4846228" lon="10.4625432"><ele>164.83333333333334</ele><time>2026-03-28T08:26:28.036Z</time></trkpt><trkpt lat="45.4846253" lon="10.4624252"><ele>164.66666666666666</ele><time>2026-03-28T08:26:29.039Z</time></trkpt><trkpt lat="45.4846332" lon="10.4623157"><ele>164.5</ele><time>2026-03-28T08:26:30.037Z</time></trkpt><trkpt lat="45.4846462" lon="10.462168"><ele>164.33333333333331</ele><time>2026-03-28T08:26:32.035Z</time></trkpt><trkpt lat="45.4846543" lon="10.462077"><ele>164.16666666666666</ele><time>2026-03-28T08:26:35.037Z</time></trkpt><trkpt lat="45.4846623" lon="10.462202"><ele>164.0</ele><time>2026-03-28T08:26:44.038Z</time></trkpt><trkpt lat="45.4846495" lon="10.4623315"><ele>164.0</ele><time>2026-03-28T08:26:45.039Z</time></trkpt><trkpt lat="45.4846375" lon="10.4625082"><ele>164.0</ele><time>2026-03-28T08:26:46.036Z</time></trkpt><trkpt lat="45.484627" lon="10.4627058"><ele>164.0</ele><time>2026-03-28T08:26:47.035Z</time></trkpt><trkpt lat="45.4846198" lon="10.462881"><ele>164.0</ele><time>2026-03-28T08:26:48.034Z</time></trkpt><trkpt lat="45.4846153" lon="10.4630187"><ele>164.0</ele><time>2026-03-28T08:26:49.035Z</time></trkpt><trkpt lat="45.484608" lon="10.4631085"><ele>164.0</ele><time>2026-03-28T08:26:50.034Z</time></trkpt><trkpt lat="45.4845197" lon="10.4631185"><ele>164.0</ele><time>2026-03-28T08:26:53.036Z</time></trkpt><trkpt lat="45.4844615" lon="10.4630433"><ele>164.0</ele><time>2026-03-28T08:26:54.035Z</time></trkpt><trkpt lat="45.4844013" lon="10.4629298"><ele>164.0</ele><time>2026-03-28T08:26:55.037Z</time></trkpt><trkpt lat="45.4843503" lon="10.4627902"><ele>164.0</ele><time>2026-03-28T08:26:56.036Z</time></trkpt><trkpt lat="45.4843053" lon="10.462638"><ele>163.75</ele><time>2026-03-28T08:26:57.039Z</time></trkpt><trkpt lat="45.484251" lon="10.4624705"><ele>163.5</ele><time>2026-03-28T08:26:58.036Z</time></trkpt><trkpt lat="45.4841798" lon="10.462298"><ele>163.25</ele><time>2026-03-28T08:26:59.042Z</time></trkpt><trkpt lat="45.4841083" lon="10.4621373"><ele>163.0</ele><time>2026-03-28T08:27:00.036Z</time></trkpt><trkpt lat="45.4840497" lon="10.4620057"><ele>162.83333333333334</ele><time>2026-03-28T08:27:01.036Z</time></trkpt><trkpt lat="45.4840027" lon="10.4619078"><ele>162.66666666666669</ele><time>2026-03-28T08:27:02.037Z</time></trkpt><trkpt lat="45.4839648" lon="10.461831"><ele>162.5</ele><time>2026-03-28T08:27:03.036Z</time></trkpt><trkpt lat="45.4839362" lon="10.4616898"><ele>162.33333333333334</ele><time>2026-03-28T08:27:05.035Z</time></trkpt><trkpt lat="45.4839403" lon="10.4615962"><ele>162.16666666666666</ele><time>2026-03-28T08:27:06.036Z</time></trkpt><trkpt lat="45.4839473" lon="10.461465"><ele>162.0</ele><time>2026-03-28T08:27:07.035Z</time></trkpt><trkpt lat="45.4839502" lon="10.4613053"><ele>162.25</ele><time>2026-03-28T08:27:08.036Z</time></trkpt><trkpt lat="45.4839533" lon="10.4611445"><ele>162.5</ele><time>2026-03-28T08:27:09.038Z</time></trkpt><trkpt lat="45.4839557" lon="10.4609798"><ele>162.75</ele><time>2026-03-28T08:27:10.037Z</time></trkpt><trkpt lat="45.4839543" lon="10.4608162"><ele>163.0</ele><time>2026-03-28T08:27:11.035Z</time></trkpt><trkpt lat="45.4839497" lon="10.4606575"><ele>163.0</ele><time>2026-03-28T08:27:12.034Z</time></trkpt><trkpt lat="45.4839418" lon="10.460497"><ele>163.0</ele><time>2026-03-28T08:27:13.035Z</time></trkpt><trkpt lat="45.4839302" lon="10.4603498"><ele>163.0</ele><time>2026-03-28T08:27:14.035Z</time></trkpt><trkpt lat="45.483915" lon="10.4602133"><ele>163.0</ele><time>2026-03-28T08:27:15.035Z</time></trkpt><trkpt lat="45.4838988" lon="10.4600862"><ele>163.0</ele><time>2026-03-28T08:27:16.039Z</time></trkpt><trkpt lat="45.4838797" lon="10.45995"><ele>162.83333333333334</ele><time>2026-03-28T08:27:17.04Z</time></trkpt><trkpt lat="45.4838598" lon="10.4598172"><ele>162.66666666666669</ele><time>2026-03-28T08:27:18.039Z</time></trkpt><trkpt lat="45.4838388" lon="10.459694"><ele>162.5</ele><time>2026-03-28T08:27:19.04Z</time></trkpt><trkpt lat="45.4838183" lon="10.4595918"><ele>162.33333333333334</ele><time>2026-03-28T08:27:20.036Z</time></trkpt><trkpt lat="45.483803" lon="10.459498"><ele>162.16666666666666</ele><time>2026-03-28T08:27:21.037Z</time></trkpt><trkpt lat="45.483801" lon="10.4593468"><ele>162.0</ele><time>2026-03-28T08:27:23.035Z</time></trkpt><trkpt lat="45.483874" lon="10.4591802"><ele>161.8</ele><time>2026-03-28T08:27:25.035Z</time></trkpt><trkpt lat="45.4839453" lon="10.4590642"><ele>161.6</ele><time>2026-03-28T08:27:26.036Z</time></trkpt><trkpt lat="45.4840115" lon="10.4589617"><ele>161.4</ele><time>2026-03-28T08:27:27.035Z</time></trkpt><trkpt lat="45.4840823" lon="10.4588487"><ele>161.20000000000002</ele><time>2026-03-28T08:27:28.037Z</time></trkpt><trkpt lat="45.484158" lon="10.4587235"><ele>161.0</ele><time>2026-03-28T08:27:29.035Z</time></trkpt><trkpt lat="45.4842403" lon="10.4585885"><ele>160.25</ele><time>2026-03-28T08:27:30.035Z</time></trkpt><trkpt lat="45.4843257" lon="10.4584558"><ele>159.5</ele><time>2026-03-28T08:27:31.038Z</time></trkpt><trkpt lat="45.484404" lon="10.4583367"><ele>158.75</ele><time>2026-03-28T08:27:32.033Z</time></trkpt><trkpt lat="45.4844665" lon="10.458218"><ele>158.0</ele><time>2026-03-28T08:27:33.038Z</time></trkpt><trkpt lat="45.4845153" lon="10.458081"><ele>157.75</ele><time>2026-03-28T08:27:34.036Z</time></trkpt><trkpt lat="45.484544" lon="10.4579405"><ele>157.5</ele><time>2026-03-28T08:27:35.036Z</time></trkpt><trkpt lat="45.4845498" lon="10.4577932"><ele>157.25</ele><time>2026-03-28T08:27:36.034Z</time></trkpt><trkpt lat="45.4845478" lon="10.4576278"><ele>157.0</ele><time>2026-03-28T08:27:37.032Z</time></trkpt><trkpt lat="45.4845507" lon="10.457441"><ele>157.0</ele><time>2026-03-28T08:27:38.035Z</time></trkpt><trkpt lat="45.4845558" lon="10.4572507"><ele>157.0</ele><time>2026-03-28T08:27:39.035Z</time></trkpt><trkpt lat="45.4845575" lon="10.4570515"><ele>157.0</ele><time>2026-03-28T08:27:40.034Z</time></trkpt><trkpt lat="45.4845575" lon="10.4568472"><ele>157.0</ele><time>2026-03-28T08:27:41.035Z</time></trkpt><trkpt lat="45.4845587" lon="10.4566362"><ele>157.0</ele><time>2026-03-28T08:27:42.034Z</time></trkpt><trkpt lat="45.4845588" lon="10.4564193"><ele>157.0</ele><time>2026-03-28T08:27:43.035Z</time></trkpt><trkpt lat="45.484558" lon="10.4562117"><ele>157.0</ele><time>2026-03-28T08:27:44.037Z</time></trkpt><trkpt lat="45.4845558" lon="10.4559918"><ele>157.0</ele><time>2026-03-28T08:27:45.036Z</time></trkpt><trkpt lat="45.4845535" lon="10.4557937"><ele>157.0</ele><time>2026-03-28T08:27:46.04Z</time></trkpt><trkpt lat="45.4845533" lon="10.4556245"><ele>157.0</ele><time>2026-03-28T08:27:47.037Z</time></trkpt><trkpt lat="45.4845572" lon="10.4554493"><ele>157.0</ele><time>2026-03-28T08:27:48.035Z</time></trkpt><trkpt lat="45.484558" lon="10.4552323"><ele>156.66666666666669</ele><time>2026-03-28T08:27:49.036Z</time></trkpt><trkpt lat="45.484559" lon="10.4549843"><ele>156.33333333333334</ele><time>2026-03-28T08:27:50.035Z</time></trkpt><trkpt lat="45.4845627" lon="10.4547568"><ele>156.0</ele><time>2026-03-28T08:27:51.035Z</time></trkpt><trkpt lat="45.4845675" lon="10.4545693"><ele>155.8</ele><time>2026-03-28T08:27:52.034Z</time></trkpt><trkpt lat="45.4845743" lon="10.4543822"><ele>155.6</ele><time>2026-03-28T08:27:53.038Z</time></trkpt><trkpt lat="45.4845803" lon="10.4542293"><ele>155.4</ele><time>2026-03-28T08:27:54.034Z</time></trkpt><trkpt lat="45.4845852" lon="10.454105"><ele>155.2</ele><time>2026-03-28T08:27:55.037Z</time></trkpt><trkpt lat="45.4845612" lon="10.4539782"><ele>155.0</ele><time>2026-03-28T08:27:57.035Z</time></trkpt><trkpt lat="45.484464" lon="10.4539573"><ele>155.0</ele><time>2026-03-28T08:27:59.037Z</time></trkpt><trkpt lat="45.4843673" lon="10.453942"><ele>155.0</ele><time>2026-03-28T08:28:00.036Z</time></trkpt><trkpt lat="45.4842368" lon="10.4539195"><ele>155.0</ele><time>2026-03-28T08:28:01.034Z</time></trkpt><trkpt lat="45.4840683" lon="10.4538882"><ele>155.0</ele><time>2026-03-28T08:28:02.034Z</time></trkpt><trkpt lat="45.4838677" lon="10.453853"><ele>154.66666666666666</ele><time>2026-03-28T08:28:03.035Z</time></trkpt><trkpt lat="45.4836685" lon="10.4538212"><ele>154.33333333333334</ele><time>2026-03-28T08:28:04.039Z</time></trkpt><trkpt lat="45.4834667" lon="10.4537908"><ele>154.0</ele><time>2026-03-28T08:28:05.039Z</time></trkpt><trkpt lat="45.4832662" lon="10.4537602"><ele>153.66666666666669</ele><time>2026-03-28T08:28:06.039Z</time></trkpt><trkpt lat="45.4830833" lon="10.4537342"><ele>153.33333333333334</ele><time>2026-03-28T08:28:07.039Z</time></trkpt><trkpt lat="45.4829103" lon="10.4537107"><ele>153.0</ele><time>2026-03-28T08:28:08.039Z</time></trkpt><trkpt lat="45.4827355" lon="10.4536872"><ele>152.66666666666666</ele><time>2026-03-28T08:28:09.035Z</time></trkpt><trkpt lat="45.4825655" lon="10.4536607"><ele>152.33333333333331</ele><time>2026-03-28T08:28:10.037Z</time></trkpt><trkpt lat="45.4823968" lon="10.4536357"><ele>152.0</ele><time>2026-03-28T08:28:11.036Z</time></trkpt><trkpt lat="45.4822268" lon="10.4536148"><ele>152.0</ele><time>2026-03-28T08:28:12.037Z</time></trkpt><trkpt lat="45.4820615" lon="10.4535955"><ele>152.0</ele><time>2026-03-28T08:28:13.035Z</time></trkpt><trkpt lat="45.4819078" lon="10.453577"><ele>152.0</ele><time>2026-03-28T08:28:14.04Z</time></trkpt><trkpt lat="45.4817652" lon="10.4535568"><ele>152.0</ele><time>2026-03-28T08:28:15.038Z</time></trkpt><trkpt lat="45.4816195" lon="10.4535347"><ele>152.0</ele><time>2026-03-28T08:28:16.038Z</time></trkpt><trkpt lat="45.481466" lon="10.4535123"><ele>152.0</ele><time>2026-03-28T08:28:17.037Z</time></trkpt><trkpt lat="45.4813143" lon="10.4534883"><ele>151.66666666666666</ele><time>2026-03-28T08:28:18.039Z</time></trkpt><trkpt lat="45.4811652" lon="10.4534648"><ele>151.33333333333334</ele><time>2026-03-28T08:28:19.041Z</time></trkpt><trkpt lat="45.4810182" lon="10.4534438"><ele>151.0</ele><time>2026-03-28T08:28:20.04Z</time></trkpt><trkpt lat="45.4808665" lon="10.4534218"><ele>151.0</ele><time>2026-03-28T08:28:21.037Z</time></trkpt><trkpt lat="45.4807138" lon="10.4533983"><ele>151.0</ele><time>2026-03-28T08:28:22.037Z</time></trkpt><trkpt lat="45.4805712" lon="10.4533767"><ele>151.0</ele><time>2026-03-28T08:28:23.038Z</time></trkpt><trkpt lat="45.4804378" lon="10.4533583"><ele>151.0</ele><time>2026-03-28T08:28:24.039Z</time></trkpt><trkpt lat="45.4803135" lon="10.4533437"><ele>151.2</ele><time>2026-03-28T08:28:25.035Z</time></trkpt><trkpt lat="45.4801985" lon="10.4533332"><ele>151.39999999999998</ele><time>2026-03-28T08:28:26.035Z</time></trkpt><trkpt lat="45.4800962" lon="10.453329"><ele>151.6</ele><time>2026-03-28T08:28:27.033Z</time></trkpt><trkpt lat="45.4800012" lon="10.4533353"><ele>151.79999999999998</ele><time>2026-03-28T08:28:28.033Z</time></trkpt><trkpt lat="45.4799107" lon="10.4533632"><ele>152.0</ele><time>2026-03-28T08:28:29.04Z</time></trkpt><trkpt lat="45.4798072" lon="10.4534257"><ele>152.0</ele><time>2026-03-28T08:28:30.039Z</time></trkpt><trkpt lat="45.4796858" lon="10.4535218"><ele>152.0</ele><time>2026-03-28T08:28:31.042Z</time></trkpt><trkpt lat="45.4795693" lon="10.4536248"><ele>152.0</ele><time>2026-03-28T08:28:32.037Z</time></trkpt><trkpt lat="45.4794525" lon="10.4537345"><ele>152.0</ele><time>2026-03-28T08:28:33.037Z</time></trkpt><trkpt lat="45.479329" lon="10.4538575"><ele>151.66666666666666</ele><time>2026-03-28T08:28:34.04Z</time></trkpt><trkpt lat="45.4792002" lon="10.4539943"><ele>151.33333333333334</ele><time>2026-03-28T08:28:35.035Z</time></trkpt><trkpt lat="45.4790798" lon="10.4541358"><ele>151.0</ele><time>2026-03-28T08:28:36.037Z</time></trkpt><trkpt lat="45.478961" lon="10.4542853"><ele>151.0</ele><time>2026-03-28T08:28:37.038Z</time></trkpt><trkpt lat="45.4788442" lon="10.454435"><ele>151.0</ele><time>2026-03-28T08:28:38.037Z</time></trkpt><trkpt lat="45.4787338" lon="10.4545755"><ele>151.0</ele><time>2026-03-28T08:28:39.042Z</time></trkpt><trkpt lat="45.4786282" lon="10.4547108"><ele>151.0</ele><time>2026-03-28T08:28:40.04Z</time></trkpt><trkpt lat="45.4785178" lon="10.4548533"><ele>151.0</ele><time>2026-03-28T08:28:41.037Z</time></trkpt><trkpt lat="45.4784028" lon="10.4549993"><ele>151.0</ele><time>2026-03-28T08:28:42.039Z</time></trkpt><trkpt lat="45.4782827" lon="10.4551497"><ele>151.0</ele><time>2026-03-28T08:28:43.036Z</time></trkpt><trkpt lat="45.478164" lon="10.4552983"><ele>151.0</ele><time>2026-03-28T08:28:44.036Z</time></trkpt><trkpt lat="45.4780423" lon="10.4554455"><ele>151.0</ele><time>2026-03-28T08:28:45.035Z</time></trkpt><trkpt lat="45.4779265" lon="10.4555825"><ele>151.0</ele><time>2026-03-28T08:28:46.036Z</time></trkpt><trkpt lat="45.4778203" lon="10.4557088"><ele>151.0</ele><time>2026-03-28T08:28:47.034Z</time></trkpt><trkpt lat="45.477724" lon="10.4558212"><ele>151.33333333333334</ele><time>2026-03-28T08:28:48.037Z</time></trkpt><trkpt lat="45.4776367" lon="10.4559173"><ele>151.66666666666669</ele><time>2026-03-28T08:28:49.033Z</time></trkpt><trkpt lat="45.47756" lon="10.4559975"><ele>152.0</ele><time>2026-03-28T08:28:50.036Z</time></trkpt><trkpt lat="45.4774997" lon="10.4560638"><ele>152.33333333333334</ele><time>2026-03-28T08:28:51.032Z</time></trkpt><trkpt lat="45.4774543" lon="10.4561268"><ele>152.66666666666666</ele><time>2026-03-28T08:28:52.033Z</time></trkpt><trkpt lat="45.4774067" lon="10.4562123"><ele>153.0</ele><time>2026-03-28T08:28:53.032Z</time></trkpt><trkpt lat="45.4773505" lon="10.4563433"><ele>153.0</ele><time>2026-03-28T08:28:54.035Z</time></trkpt><trkpt lat="45.4772943" lon="10.4565125"><ele>153.0</ele><time>2026-03-28T08:28:55.034Z</time></trkpt><trkpt lat="45.477245" lon="10.4567008"><ele>153.0</ele><time>2026-03-28T08:28:56.034Z</time></trkpt><trkpt lat="45.477201" lon="10.456882"><ele>153.0</ele><time>2026-03-28T08:28:57.034Z</time></trkpt><trkpt lat="45.4771665" lon="10.4570567"><ele>153.0</ele><time>2026-03-28T08:28:58.034Z</time></trkpt><trkpt lat="45.4771352" lon="10.4572245"><ele>153.0</ele><time>2026-03-28T08:28:59.035Z</time></trkpt><trkpt lat="45.4771077" lon="10.4573983"><ele>153.0</ele><time>2026-03-28T08:29:00.033Z</time></trkpt><trkpt lat="45.4770742" lon="10.4575743"><ele>153.0</ele><time>2026-03-28T08:29:01.034Z</time></trkpt><trkpt lat="45.4770413" lon="10.457753"><ele>153.5</ele><time>2026-03-28T08:29:02.035Z</time></trkpt><trkpt lat="45.4770107" lon="10.4579332"><ele>154.0</ele><time>2026-03-28T08:29:03.035Z</time></trkpt><trkpt lat="45.4769757" lon="10.4581115"><ele>154.5</ele><time>2026-03-28T08:29:04.034Z</time></trkpt><trkpt lat="45.4769412" lon="10.4582892"><ele>155.0</ele><time>2026-03-28T08:29:05.036Z</time></trkpt><trkpt lat="45.4769062" lon="10.4584633"><ele>155.0</ele><time>2026-03-28T08:29:06.035Z</time></trkpt><trkpt lat="45.4768712" lon="10.458634"><ele>155.0</ele><time>2026-03-28T08:29:07.034Z</time></trkpt><trkpt lat="45.4768355" lon="10.4587928"><ele>155.0</ele><time>2026-03-28T08:29:08.034Z</time></trkpt><trkpt lat="45.4768" lon="10.4589397"><ele>155.0</ele><time>2026-03-28T08:29:09.032Z</time></trkpt><trkpt lat="45.4767657" lon="10.4590768"><ele>155.0</ele><time>2026-03-28T08:29:10.034Z</time></trkpt><trkpt lat="45.4767273" lon="10.4591993"><ele>155.0</ele><time>2026-03-28T08:29:11.034Z</time></trkpt><trkpt lat="45.4766898" lon="10.4593083"><ele>155.0</ele><time>2026-03-28T08:29:12.034Z</time></trkpt><trkpt lat="45.4766323" lon="10.4593972"><ele>155.0</ele><time>2026-03-28T08:29:13.036Z</time></trkpt><trkpt lat="45.4765443" lon="10.4594688"><ele>155.0</ele><time>2026-03-28T08:29:14.031Z</time></trkpt><trkpt lat="45.4764235" lon="10.4595517"><ele>155.0</ele><time>2026-03-28T08:29:15.031Z</time></trkpt><trkpt lat="45.4762847" lon="10.4596477"><ele>155.0</ele><time>2026-03-28T08:29:16.032Z</time></trkpt><trkpt lat="45.476134" lon="10.4597655"><ele>155.0</ele><time>2026-03-28T08:29:17.032Z</time></trkpt><trkpt lat="45.4759837" lon="10.4598875"><ele>155.0</ele><time>2026-03-28T08:29:18.034Z</time></trkpt><trkpt lat="45.4758338" lon="10.4600113"><ele>155.0</ele><time>2026-03-28T08:29:19.037Z</time></trkpt><trkpt lat="45.4756855" lon="10.460132"><ele>155.0</ele><time>2026-03-28T08:29:20.037Z</time></trkpt><trkpt lat="45.4755363" lon="10.4602518"><ele>154.33333333333331</ele><time>2026-03-28T08:29:21.035Z</time></trkpt><trkpt lat="45.4753782" lon="10.4603673"><ele>153.66666666666666</ele><time>2026-03-28T08:29:22.037Z</time></trkpt><trkpt lat="45.4752082" lon="10.460469"><ele>153.0</ele><time>2026-03-28T08:29:23.035Z</time></trkpt><trkpt lat="45.475037" lon="10.4605588"><ele>152.66666666666666</ele><time>2026-03-28T08:29:24.034Z</time></trkpt><trkpt lat="45.4748685" lon="10.460661"><ele>152.33333333333331</ele><time>2026-03-28T08:29:25.035Z</time></trkpt><trkpt lat="45.4747043" lon="10.4607837"><ele>152.0</ele><time>2026-03-28T08:29:26.035Z</time></trkpt><trkpt lat="45.4745505" lon="10.460908"><ele>152.66666666666666</ele><time>2026-03-28T08:29:27.034Z</time></trkpt><trkpt lat="45.4744035" lon="10.4610335"><ele>153.33333333333334</ele><time>2026-03-28T08:29:28.035Z</time></trkpt><trkpt lat="45.4742548" lon="10.461179"><ele>154.0</ele><time>2026-03-28T08:29:29.037Z</time></trkpt><trkpt lat="45.4741102" lon="10.4613482"><ele>154.0</ele><time>2026-03-28T08:29:30.036Z</time></trkpt><trkpt lat="45.4739713" lon="10.4615312"><ele>154.0</ele><time>2026-03-28T08:29:31.037Z</time></trkpt><trkpt lat="45.4738345" lon="10.4617068"><ele>154.0</ele><time>2026-03-28T08:29:32.036Z</time></trkpt><trkpt lat="45.4736917" lon="10.4618647"><ele>153.66666666666669</ele><time>2026-03-28T08:29:33.034Z</time></trkpt><trkpt lat="45.4735418" lon="10.4620005"><ele>153.33333333333334</ele><time>2026-03-28T08:29:34.037Z</time></trkpt><trkpt lat="45.4733907" lon="10.462122"><ele>153.0</ele><time>2026-03-28T08:29:35.036Z</time></trkpt><trkpt lat="45.4732437" lon="10.4622478"><ele>152.66666666666666</ele><time>2026-03-28T08:29:36.036Z</time></trkpt><trkpt lat="45.4730953" lon="10.4623882"><ele>152.33333333333331</ele><time>2026-03-28T08:29:37.038Z</time></trkpt><trkpt lat="45.4729453" lon="10.4625398"><ele>152.0</ele><time>2026-03-28T08:29:38.034Z</time></trkpt><trkpt lat="45.4727915" lon="10.462695"><ele>152.0</ele><time>2026-03-28T08:29:39.034Z</time></trkpt><trkpt lat="45.4726337" lon="10.4628507"><ele>152.0</ele><time>2026-03-28T08:29:40.033Z</time></trkpt><trkpt lat="45.4724853" lon="10.4629977"><ele>152.0</ele><time>2026-03-28T08:29:41.035Z</time></trkpt><trkpt lat="45.4723448" lon="10.463143"><ele>152.33333333333331</ele><time>2026-03-28T08:29:42.034Z</time></trkpt><trkpt lat="45.4722093" lon="10.463294"><ele>152.66666666666666</ele><time>2026-03-28T08:29:43.036Z</time></trkpt><trkpt lat="45.4720678" lon="10.4634433"><ele>153.0</ele><time>2026-03-28T08:29:44.035Z</time></trkpt><trkpt lat="45.4719115" lon="10.4635785"><ele>153.0</ele><time>2026-03-28T08:29:45.038Z</time></trkpt><trkpt lat="45.4717458" lon="10.4636873"><ele>153.0</ele><time>2026-03-28T08:29:46.038Z</time></trkpt><trkpt lat="45.4715875" lon="10.4637742"><ele>153.0</ele><time>2026-03-28T08:29:47.035Z</time></trkpt><trkpt lat="45.471439" lon="10.4638583"><ele>153.0</ele><time>2026-03-28T08:29:48.035Z</time></trkpt><trkpt lat="45.4712948" lon="10.4639585"><ele>153.0</ele><time>2026-03-28T08:29:49.038Z</time></trkpt><trkpt lat="45.4711557" lon="10.4640972"><ele>153.0</ele><time>2026-03-28T08:29:50.036Z</time></trkpt><trkpt lat="45.4710205" lon="10.4642768"><ele>152.66666666666666</ele><time>2026-03-28T08:29:51.038Z</time></trkpt><trkpt lat="45.4708863" lon="10.4644803"><ele>152.33333333333331</ele><time>2026-03-28T08:29:52.037Z</time></trkpt><trkpt lat="45.4707592" lon="10.4646865"><ele>152.0</ele><time>2026-03-28T08:29:53.034Z</time></trkpt><trkpt lat="45.4706442" lon="10.4648822"><ele>152.0</ele><time>2026-03-28T08:29:54.036Z</time></trkpt><trkpt lat="45.4705363" lon="10.465067"><ele>152.0</ele><time>2026-03-28T08:29:55.035Z</time></trkpt><trkpt lat="45.4704235" lon="10.4652453"><ele>152.0</ele><time>2026-03-28T08:29:56.036Z</time></trkpt><trkpt lat="45.4702987" lon="10.4654105"><ele>152.0</ele><time>2026-03-28T08:29:57.036Z</time></trkpt><trkpt lat="45.4701655" lon="10.4655648"><ele>152.0</ele><time>2026-03-28T08:29:58.037Z</time></trkpt><trkpt lat="45.470036" lon="10.4657107"><ele>152.0</ele><time>2026-03-28T08:29:59.037Z</time></trkpt><trkpt lat="45.46992" lon="10.4658493"><ele>152.0</ele><time>2026-03-28T08:30:00.035Z</time></trkpt><trkpt lat="45.4698247" lon="10.4659858"><ele>152.0</ele><time>2026-03-28T08:30:01.034Z</time></trkpt><trkpt lat="45.469752" lon="10.4661372"><ele>152.0</ele><time>2026-03-28T08:30:02.034Z</time></trkpt><trkpt lat="45.469693" lon="10.466318"><ele>152.0</ele><time>2026-03-28T08:30:03.032Z</time></trkpt><trkpt lat="45.4696363" lon="10.4665173"><ele>152.5</ele><time>2026-03-28T08:30:04.031Z</time></trkpt><trkpt lat="45.469583" lon="10.4667125"><ele>153.0</ele><time>2026-03-28T08:30:05.032Z</time></trkpt><trkpt lat="45.4695365" lon="10.4669085"><ele>153.5</ele><time>2026-03-28T08:30:06.033Z</time></trkpt><trkpt lat="45.4694985" lon="10.4670957"><ele>154.0</ele><time>2026-03-28T08:30:07.036Z</time></trkpt><trkpt lat="45.4694602" lon="10.4672787"><ele>154.0</ele><time>2026-03-28T08:30:08.046Z</time></trkpt><trkpt lat="45.4694085" lon="10.4674627"><ele>154.0</ele><time>2026-03-28T08:30:09.037Z</time></trkpt><trkpt lat="45.4693388" lon="10.4676325"><ele>154.0</ele><time>2026-03-28T08:30:10.035Z</time></trkpt><trkpt lat="45.4692592" lon="10.4677777"><ele>154.0</ele><time>2026-03-28T08:30:11.036Z</time></trkpt><trkpt lat="45.469171" lon="10.4678947"><ele>154.0</ele><time>2026-03-28T08:30:12.035Z</time></trkpt><trkpt lat="45.4690728" lon="10.4679908"><ele>154.0</ele><time>2026-03-28T08:30:13.035Z</time></trkpt><trkpt lat="45.4689605" lon="10.4680745"><ele>154.0</ele><time>2026-03-28T08:30:14.034Z</time></trkpt><trkpt lat="45.468838" lon="10.4681483"><ele>154.0</ele><time>2026-03-28T08:30:15.033Z</time></trkpt><trkpt lat="45.4687143" lon="10.4682122"><ele>154.0</ele><time>2026-03-28T08:30:16.036Z</time></trkpt><trkpt lat="45.4685903" lon="10.4682712"><ele>154.0</ele><time>2026-03-28T08:30:17.034Z</time></trkpt><trkpt lat="45.4684738" lon="10.468318"><ele>154.0</ele><time>2026-03-28T08:30:18.035Z</time></trkpt><trkpt lat="45.4683618" lon="10.4683545"><ele>154.0</ele><time>2026-03-28T08:30:19.035Z</time></trkpt><trkpt lat="45.4682535" lon="10.4683812"><ele>154.0</ele><time>2026-03-28T08:30:20.04Z</time></trkpt><trkpt lat="45.4681503" lon="10.4684008"><ele>154.0</ele><time>2026-03-28T08:30:21.035Z</time></trkpt><trkpt lat="45.4680623" lon="10.4684148"><ele>154.0</ele><time>2026-03-28T08:30:22.036Z</time></trkpt><trkpt lat="45.4679917" lon="10.4684255"><ele>154.0</ele><time>2026-03-28T08:30:23.035Z</time></trkpt><trkpt lat="45.467925" lon="10.4684432"><ele>154.0</ele><time>2026-03-28T08:30:24.034Z</time></trkpt><trkpt lat="45.467872" lon="10.4684995"><ele>154.0</ele><time>2026-03-28T08:30:25.033Z</time></trkpt><trkpt lat="45.4678395" lon="10.4686088"><ele>153.25</ele><time>2026-03-28T08:30:26.035Z</time></trkpt><trkpt lat="45.467822" lon="10.4687767"><ele>152.5</ele><time>2026-03-28T08:30:27.033Z</time></trkpt><trkpt lat="45.46781" lon="10.4689728"><ele>151.75</ele><time>2026-03-28T08:30:28.035Z</time></trkpt><trkpt lat="45.4677883" lon="10.4691963"><ele>151.0</ele><time>2026-03-28T08:30:29.032Z</time></trkpt><trkpt lat="45.4677555" lon="10.4694373"><ele>151.33333333333334</ele><time>2026-03-28T08:30:30.032Z</time></trkpt><trkpt lat="45.4677198" lon="10.4696745"><ele>151.66666666666666</ele><time>2026-03-28T08:30:31.034Z</time></trkpt><trkpt lat="45.467683" lon="10.4699013"><ele>152.0</ele><time>2026-03-28T08:30:32.035Z</time></trkpt><trkpt lat="45.4676397" lon="10.4701268"><ele>152.0</ele><time>2026-03-28T08:30:33.035Z</time></trkpt><trkpt lat="45.467588" lon="10.4703618"><ele>152.0</ele><time>2026-03-28T08:30:34.036Z</time></trkpt><trkpt lat="45.4675337" lon="10.470598"><ele>152.0</ele><time>2026-03-28T08:30:35.035Z</time></trkpt><trkpt lat="45.4674783" lon="10.4708355"><ele>152.33333333333331</ele><time>2026-03-28T08:30:36.039Z</time></trkpt><trkpt lat="45.467426" lon="10.4710753"><ele>152.66666666666666</ele><time>2026-03-28T08:30:37.035Z</time></trkpt><trkpt lat="45.4673848" lon="10.471305"><ele>153.0</ele><time>2026-03-28T08:30:38.037Z</time></trkpt><trkpt lat="45.4673515" lon="10.471521"><ele>153.20000000000002</ele><time>2026-03-28T08:30:39.035Z</time></trkpt><trkpt lat="45.4673208" lon="10.4717158"><ele>153.4</ele><time>2026-03-28T08:30:40.035Z</time></trkpt><trkpt lat="45.4672912" lon="10.4718757"><ele>153.60000000000002</ele><time>2026-03-28T08:30:41.037Z</time></trkpt><trkpt lat="45.4672583" lon="10.471993"><ele>153.8</ele><time>2026-03-28T08:30:42.042Z</time></trkpt><trkpt lat="45.4672178" lon="10.4720632"><ele>154.0</ele><time>2026-03-28T08:30:43.035Z</time></trkpt><trkpt lat="45.4670853" lon="10.4720837"><ele>154.8</ele><time>2026-03-28T08:30:45.034Z</time></trkpt><trkpt lat="45.4669938" lon="10.4720338"><ele>155.60000000000002</ele><time>2026-03-28T08:30:46.034Z</time></trkpt><trkpt lat="45.4668863" lon="10.4719723"><ele>156.4</ele><time>2026-03-28T08:30:47.035Z</time></trkpt><trkpt lat="45.466779" lon="10.471921"><ele>157.20000000000002</ele><time>2026-03-28T08:30:48.036Z</time></trkpt><trkpt lat="45.4666835" lon="10.4718813"><ele>158.0</ele><time>2026-03-28T08:30:49.036Z</time></trkpt><trkpt lat="45.4666022" lon="10.4718473"><ele>158.0</ele><time>2026-03-28T08:30:50.037Z</time></trkpt><trkpt lat="45.4665333" lon="10.4718468"><ele>158.0</ele><time>2026-03-28T08:30:51.035Z</time></trkpt><trkpt lat="45.4664718" lon="10.4718837"><ele>158.0</ele><time>2026-03-28T08:30:52.034Z</time></trkpt><trkpt lat="45.4663987" lon="10.4719567"><ele>158.0</ele><time>2026-03-28T08:30:53.032Z</time></trkpt><trkpt lat="45.4662997" lon="10.4720295"><ele>158.0</ele><time>2026-03-28T08:30:54.032Z</time></trkpt><trkpt lat="45.4661663" lon="10.4720987"><ele>158.0</ele><time>2026-03-28T08:30:55.033Z</time></trkpt><trkpt lat="45.4660285" lon="10.4721663"><ele>158.0</ele><time>2026-03-28T08:30:56.034Z</time></trkpt><trkpt lat="45.4658865" lon="10.4722353"><ele>158.0</ele><time>2026-03-28T08:30:57.035Z</time></trkpt><trkpt lat="45.4657388" lon="10.4723042"><ele>158.0</ele><time>2026-03-28T08:30:58.036Z</time></trkpt><trkpt lat="45.4655932" lon="10.4723703"><ele>158.0</ele><time>2026-03-28T08:30:59.035Z</time></trkpt><trkpt lat="45.4654392" lon="10.472425"><ele>158.0</ele><time>2026-03-28T08:31:00.033Z</time></trkpt><trkpt lat="45.4652802" lon="10.4724707"><ele>158.0</ele><time>2026-03-28T08:31:01.035Z</time></trkpt><trkpt lat="45.4651193" lon="10.472497"><ele>158.0</ele><time>2026-03-28T08:31:02.041Z</time></trkpt><trkpt lat="45.4649542" lon="10.4724997"><ele>158.0</ele><time>2026-03-28T08:31:03.034Z</time></trkpt><trkpt lat="45.4647765" lon="10.4724822"><ele>158.33333333333331</ele><time>2026-03-28T08:31:04.036Z</time></trkpt><trkpt lat="45.4646025" lon="10.4724578"><ele>158.66666666666666</ele><time>2026-03-28T08:31:05.036Z</time></trkpt><trkpt lat="45.4644402" lon="10.4724358"><ele>159.0</ele><time>2026-03-28T08:31:06.035Z</time></trkpt><trkpt lat="45.4642977" lon="10.4724203"><ele>159.0</ele><time>2026-03-28T08:31:07.036Z</time></trkpt><trkpt lat="45.4641837" lon="10.4724103"><ele>159.0</ele><time>2026-03-28T08:31:08.036Z</time></trkpt><trkpt lat="45.4640945" lon="10.4724007"><ele>159.0</ele><time>2026-03-28T08:31:09.034Z</time></trkpt><trkpt lat="45.4639958" lon="10.472392"><ele>159.0</ele><time>2026-03-28T08:31:11.034Z</time></trkpt><trkpt lat="45.4639147" lon="10.4724735"><ele>159.0</ele><time>2026-03-28T08:31:16.034Z</time></trkpt><trkpt lat="45.4638905" lon="10.4725733"><ele>159.0</ele><time>2026-03-28T08:31:17.033Z</time></trkpt><trkpt lat="45.4638662" lon="10.472721"><ele>159.0</ele><time>2026-03-28T08:31:18.032Z</time></trkpt><trkpt lat="45.463843" lon="10.472897"><ele>159.0</ele><time>2026-03-28T08:31:19.032Z</time></trkpt><trkpt lat="45.4638197" lon="10.4731068"><ele>159.0</ele><time>2026-03-28T08:31:20.035Z</time></trkpt><trkpt lat="45.4637997" lon="10.4733382"><ele>159.33333333333334</ele><time>2026-03-28T08:31:21.038Z</time></trkpt><trkpt lat="45.4637813" lon="10.47358"><ele>159.66666666666669</ele><time>2026-03-28T08:31:22.039Z</time></trkpt><trkpt lat="45.4637632" lon="10.4738145"><ele>160.0</ele><time>2026-03-28T08:31:23.04Z</time></trkpt><trkpt lat="45.463745" lon="10.4740315"><ele>160.4</ele><time>2026-03-28T08:31:24.035Z</time></trkpt><trkpt lat="45.4637292" lon="10.4742238"><ele>160.8</ele><time>2026-03-28T08:31:25.035Z</time></trkpt><trkpt lat="45.4637152" lon="10.4743868"><ele>161.2</ele><time>2026-03-28T08:31:26.035Z</time></trkpt><trkpt lat="45.4637027" lon="10.4745173"><ele>161.6</ele><time>2026-03-28T08:31:27.034Z</time></trkpt><trkpt lat="45.4636875" lon="10.4746087"><ele>162.0</ele><time>2026-03-28T08:31:28.034Z</time></trkpt><trkpt lat="45.4636065" lon="10.4746585"><ele>162.0</ele><time>2026-03-28T08:31:30.034Z</time></trkpt><trkpt lat="45.4635413" lon="10.4746187"><ele>162.0</ele><time>2026-03-28T08:31:31.035Z</time></trkpt><trkpt lat="45.4634562" lon="10.4745368"><ele>162.0</ele><time>2026-03-28T08:31:32.035Z</time></trkpt><trkpt lat="45.4633488" lon="10.4744275"><ele>162.0</ele><time>2026-03-28T08:31:33.033Z</time></trkpt><trkpt lat="45.4632422" lon="10.4743267"><ele>162.0</ele><time>2026-03-28T08:31:34.037Z</time></trkpt><trkpt lat="45.4631503" lon="10.4742403"><ele>162.0</ele><time>2026-03-28T08:31:35.032Z</time></trkpt><trkpt lat="45.4630782" lon="10.47417"><ele>162.0</ele><time>2026-03-28T08:31:36.033Z</time></trkpt><trkpt lat="45.4630233" lon="10.4741173"><ele>162.0</ele><time>2026-03-28T08:31:37.041Z</time></trkpt><trkpt lat="45.4629273" lon="10.4740333"><ele>162.0</ele><time>2026-03-28T08:31:39.034Z</time></trkpt><trkpt lat="45.4628662" lon="10.4739777"><ele>162.0</ele><time>2026-03-28T08:31:41.039Z</time></trkpt><trkpt lat="45.4628002" lon="10.4738932"><ele>162.0</ele><time>2026-03-28T08:31:44.034Z</time></trkpt><trkpt lat="45.4627463" lon="10.4738123"><ele>162.0</ele><time>2026-03-28T08:31:46.033Z</time></trkpt><trkpt lat="45.4626655" lon="10.4737662"><ele>162.0</ele><time>2026-03-28T08:31:48.034Z</time></trkpt><trkpt lat="45.462548" lon="10.4738137"><ele>162.0</ele><time>2026-03-28T08:31:50.036Z</time></trkpt><trkpt lat="45.462489" lon="10.4738673"><ele>162.0</ele><time>2026-03-28T08:31:51.034Z</time></trkpt><trkpt lat="45.4624345" lon="10.4739305"><ele>162.0</ele><time>2026-03-28T08:31:52.035Z</time></trkpt><trkpt lat="45.4623883" lon="10.4740108"><ele>162.0</ele><time>2026-03-28T08:31:53.035Z</time></trkpt><trkpt lat="45.4623152" lon="10.474124"><ele>162.0</ele><time>2026-03-28T08:31:54.034Z</time></trkpt><trkpt lat="45.4622163" lon="10.4742628"><ele>162.0</ele><time>2026-03-28T08:31:55.034Z</time></trkpt><trkpt lat="45.4621045" lon="10.4744192"><ele>162.0</ele><time>2026-03-28T08:31:56.035Z</time></trkpt><trkpt lat="45.4619825" lon="10.474589"><ele>161.0</ele><time>2026-03-28T08:31:57.035Z</time></trkpt><trkpt lat="45.4618652" lon="10.474757"><ele>160.0</ele><time>2026-03-28T08:31:58.034Z</time></trkpt><trkpt lat="45.4617623" lon="10.47491"><ele>159.0</ele><time>2026-03-28T08:31:59.033Z</time></trkpt><trkpt lat="45.4616717" lon="10.4750422"><ele>158.0</ele><time>2026-03-28T08:32:00.033Z</time></trkpt><trkpt lat="45.4615972" lon="10.4751517"><ele>158.0</ele><time>2026-03-28T08:32:01.034Z</time></trkpt><trkpt lat="45.4615412" lon="10.4752355"><ele>158.0</ele><time>2026-03-28T08:32:02.035Z</time></trkpt><trkpt lat="45.4614617" lon="10.4753532"><ele>158.0</ele><time>2026-03-28T08:32:04.037Z</time></trkpt><trkpt lat="45.4613925" lon="10.4754162"><ele>158.0</ele><time>2026-03-28T08:32:06.031Z</time></trkpt><trkpt lat="45.4612735" lon="10.4753803"><ele>158.0</ele><time>2026-03-28T08:32:08.035Z</time></trkpt><trkpt lat="45.4611807" lon="10.4753208"><ele>157.75</ele><time>2026-03-28T08:32:09.034Z</time></trkpt><trkpt lat="45.4610667" lon="10.4752408"><ele>157.5</ele><time>2026-03-28T08:32:10.035Z</time></trkpt><trkpt lat="45.4609548" lon="10.4751483"><ele>157.25</ele><time>2026-03-28T08:32:11.034Z</time></trkpt><trkpt lat="45.460854" lon="10.4750562"><ele>157.0</ele><time>2026-03-28T08:32:12.035Z</time></trkpt><trkpt lat="45.4607652" lon="10.4749735"><ele>157.0</ele><time>2026-03-28T08:32:13.036Z</time></trkpt><trkpt lat="45.4606835" lon="10.474906"><ele>157.0</ele><time>2026-03-28T08:32:14.035Z</time></trkpt><trkpt lat="45.4606092" lon="10.4748445"><ele>157.0</ele><time>2026-03-28T08:32:15.034Z</time></trkpt><trkpt lat="45.4605427" lon="10.4747872"><ele>157.0</ele><time>2026-03-28T08:32:16.036Z</time></trkpt><trkpt lat="45.4604823" lon="10.4747343"><ele>157.0</ele><time>2026-03-28T08:32:17.038Z</time></trkpt><trkpt lat="45.4604272" lon="10.4746837"><ele>157.0</ele><time>2026-03-28T08:32:18.035Z</time></trkpt><trkpt lat="45.4603153" lon="10.4746397"><ele>156.66666666666669</ele><time>2026-03-28T08:32:20.036Z</time></trkpt><trkpt lat="45.460216" lon="10.4747402"><ele>156.33333333333334</ele><time>2026-03-28T08:32:22.036Z</time></trkpt><trkpt lat="45.4601803" lon="10.4748245"><ele>156.0</ele><time>2026-03-28T08:32:23.034Z</time></trkpt><trkpt lat="45.4601438" lon="10.4749208"><ele>155.66666666666666</ele><time>2026-03-28T08:32:24.033Z</time></trkpt><trkpt lat="45.4601" lon="10.4750232"><ele>155.33333333333331</ele><time>2026-03-28T08:32:25.033Z</time></trkpt><trkpt lat="45.4600507" lon="10.4751428"><ele>155.0</ele><time>2026-03-28T08:32:26.033Z</time></trkpt><trkpt lat="45.4599912" lon="10.4753022"><ele>155.0</ele><time>2026-03-28T08:32:27.033Z</time></trkpt><trkpt lat="45.4599168" lon="10.4754958"><ele>155.0</ele><time>2026-03-28T08:32:28.035Z</time></trkpt><trkpt lat="45.4598373" lon="10.4756762"><ele>155.0</ele><time>2026-03-28T08:32:29.033Z</time></trkpt><trkpt lat="45.4597625" lon="10.475841"><ele>155.0</ele><time>2026-03-28T08:32:30.031Z</time></trkpt><trkpt lat="45.4596957" lon="10.475998"><ele>155.0</ele><time>2026-03-28T08:32:31.036Z</time></trkpt><trkpt lat="45.4596365" lon="10.4761487"><ele>155.0</ele><time>2026-03-28T08:32:32.033Z</time></trkpt><trkpt lat="45.4595783" lon="10.4762952"><ele>155.0</ele><time>2026-03-28T08:32:33.032Z</time></trkpt><trkpt lat="45.4595187" lon="10.4764408"><ele>155.0</ele><time>2026-03-28T08:32:34.034Z</time></trkpt><trkpt lat="45.4594597" lon="10.4765877"><ele>154.75</ele><time>2026-03-28T08:32:35.035Z</time></trkpt><trkpt lat="45.4594012" lon="10.4767362"><ele>154.5</ele><time>2026-03-28T08:32:36.033Z</time></trkpt><trkpt lat="45.459341" lon="10.4768862"><ele>154.25</ele><time>2026-03-28T08:32:37.036Z</time></trkpt><trkpt lat="45.4592782" lon="10.4770432"><ele>154.0</ele><time>2026-03-28T08:32:38.035Z</time></trkpt><trkpt lat="45.4592143" lon="10.477202"><ele>154.0</ele><time>2026-03-28T08:32:39.034Z</time></trkpt><trkpt lat="45.4591497" lon="10.4773632"><ele>154.0</ele><time>2026-03-28T08:32:40.034Z</time></trkpt><trkpt lat="45.4590837" lon="10.4775262"><ele>154.0</ele><time>2026-03-28T08:32:41.034Z</time></trkpt><trkpt lat="45.4590198" lon="10.4776863"><ele>154.0</ele><time>2026-03-28T08:32:42.034Z</time></trkpt><trkpt lat="45.4589587" lon="10.4778473"><ele>154.25</ele><time>2026-03-28T08:32:43.037Z</time></trkpt><trkpt lat="45.4589013" lon="10.4779957"><ele>154.5</ele><time>2026-03-28T08:32:44.034Z</time></trkpt><trkpt lat="45.4588465" lon="10.4781367"><ele>154.75</ele><time>2026-03-28T08:32:45.037Z</time></trkpt><trkpt lat="45.4587958" lon="10.4782752"><ele>155.0</ele><time>2026-03-28T08:32:46.034Z</time></trkpt><trkpt lat="45.4587473" lon="10.4784133"><ele>155.2</ele><time>2026-03-28T08:32:47.034Z</time></trkpt><trkpt lat="45.4587025" lon="10.4785487"><ele>155.4</ele><time>2026-03-28T08:32:48.035Z</time></trkpt><trkpt lat="45.4586615" lon="10.4786835"><ele>155.6</ele><time>2026-03-28T08:32:49.035Z</time></trkpt><trkpt lat="45.458621" lon="10.478822"><ele>155.8</ele><time>2026-03-28T08:32:50.035Z</time></trkpt><trkpt lat="45.45858" lon="10.4789625"><ele>156.0</ele><time>2026-03-28T08:32:51.034Z</time></trkpt><trkpt lat="45.458539" lon="10.4790985"><ele>156.4</ele><time>2026-03-28T08:32:52.034Z</time></trkpt><trkpt lat="45.4584983" lon="10.4792358"><ele>156.8</ele><time>2026-03-28T08:32:53.035Z</time></trkpt><trkpt lat="45.4584583" lon="10.4793767"><ele>157.20000000000002</ele><time>2026-03-28T08:32:54.033Z</time></trkpt><trkpt lat="45.4584155" lon="10.4795172"><ele>157.6</ele><time>2026-03-28T08:32:55.032Z</time></trkpt><trkpt lat="45.4583632" lon="10.4796513"><ele>158.0</ele><time>2026-03-28T08:32:56.032Z</time></trkpt><trkpt lat="45.4583038" lon="10.4797773"><ele>158.0</ele><time>2026-03-28T08:32:57.034Z</time></trkpt><trkpt lat="45.4582392" lon="10.4799002"><ele>158.0</ele><time>2026-03-28T08:32:58.033Z</time></trkpt><trkpt lat="45.4581698" lon="10.4800135"><ele>158.0</ele><time>2026-03-28T08:32:59.036Z</time></trkpt><trkpt lat="45.4581002" lon="10.4801125"><ele>158.0</ele><time>2026-03-28T08:33:00.034Z</time></trkpt><trkpt lat="45.4580323" lon="10.480197"><ele>158.0</ele><time>2026-03-28T08:33:01.035Z</time></trkpt><trkpt lat="45.4579715" lon="10.4802742"><ele>157.8</ele><time>2026-03-28T08:33:02.039Z</time></trkpt><trkpt lat="45.4579115" lon="10.4803553"><ele>157.60000000000002</ele><time>2026-03-28T08:33:03.033Z</time></trkpt><trkpt lat="45.4578453" lon="10.4804485"><ele>157.39999999999998</ele><time>2026-03-28T08:33:04.034Z</time></trkpt><trkpt lat="45.4577663" lon="10.4805505"><ele>157.2</ele><time>2026-03-28T08:33:05.035Z</time></trkpt><trkpt lat="45.4576865" lon="10.4806437"><ele>157.0</ele><time>2026-03-28T08:33:06.034Z</time></trkpt><trkpt lat="45.457599" lon="10.4807522"><ele>157.0</ele><time>2026-03-28T08:33:07.036Z</time></trkpt><trkpt lat="45.4575172" lon="10.4808587"><ele>157.0</ele><time>2026-03-28T08:33:08.034Z</time></trkpt><trkpt lat="45.4574397" lon="10.4809513"><ele>157.0</ele><time>2026-03-28T08:33:09.034Z</time></trkpt><trkpt lat="45.4573687" lon="10.4810473"><ele>157.0</ele><time>2026-03-28T08:33:10.035Z</time></trkpt><trkpt lat="45.4573048" lon="10.4811612"><ele>157.0</ele><time>2026-03-28T08:33:11.035Z</time></trkpt><trkpt lat="45.4572572" lon="10.4812753"><ele>157.33333333333334</ele><time>2026-03-28T08:33:12.034Z</time></trkpt><trkpt lat="45.4572247" lon="10.4813955"><ele>157.66666666666669</ele><time>2026-03-28T08:33:13.036Z</time></trkpt><trkpt lat="45.4572047" lon="10.4815137"><ele>158.0</ele><time>2026-03-28T08:33:14.035Z</time></trkpt><trkpt lat="45.4571902" lon="10.4816223"><ele>158.33333333333334</ele><time>2026-03-28T08:33:15.035Z</time></trkpt><trkpt lat="45.4571792" lon="10.4817202"><ele>158.66666666666666</ele><time>2026-03-28T08:33:16.034Z</time></trkpt><trkpt lat="45.4571707" lon="10.4818133"><ele>159.0</ele><time>2026-03-28T08:33:17.034Z</time></trkpt><trkpt lat="45.4571647" lon="10.4819095"><ele>159.0</ele><time>2026-03-28T08:33:18.034Z</time></trkpt><trkpt lat="45.4571597" lon="10.4820012"><ele>159.0</ele><time>2026-03-28T08:33:19.033Z</time></trkpt><trkpt lat="45.4571543" lon="10.4820963"><ele>159.0</ele><time>2026-03-28T08:33:20.032Z</time></trkpt><trkpt lat="45.4571483" lon="10.4822062"><ele>159.0</ele><time>2026-03-28T08:33:21.032Z</time></trkpt><trkpt lat="45.4571407" lon="10.4823318"><ele>159.0</ele><time>2026-03-28T08:33:22.032Z</time></trkpt><trkpt lat="45.4571322" lon="10.4824835"><ele>159.0</ele><time>2026-03-28T08:33:23.034Z</time></trkpt><trkpt lat="45.4571223" lon="10.482659"><ele>158.5</ele><time>2026-03-28T08:33:24.035Z</time></trkpt><trkpt lat="45.4571128" lon="10.4828395"><ele>158.0</ele><time>2026-03-28T08:33:25.035Z</time></trkpt><trkpt lat="45.457104" lon="10.483034"><ele>157.5</ele><time>2026-03-28T08:33:26.036Z</time></trkpt><trkpt lat="45.4570963" lon="10.483243"><ele>157.0</ele><time>2026-03-28T08:33:27.038Z</time></trkpt><trkpt lat="45.4570915" lon="10.4834452"><ele>157.0</ele><time>2026-03-28T08:33:28.035Z</time></trkpt><trkpt lat="45.4570895" lon="10.48365"><ele>157.0</ele><time>2026-03-28T08:33:29.036Z</time></trkpt><trkpt lat="45.4570918" lon="10.4838525"><ele>157.0</ele><time>2026-03-28T08:33:30.034Z</time></trkpt><trkpt lat="45.4570977" lon="10.4840527"><ele>157.0</ele><time>2026-03-28T08:33:31.036Z</time></trkpt><trkpt lat="45.457117" lon="10.4842412"><ele>159.5</ele><time>2026-03-28T08:33:32.035Z</time></trkpt><trkpt lat="45.4571615" lon="10.4844238"><ele>162.0</ele><time>2026-03-28T08:33:33.035Z</time></trkpt><trkpt lat="45.457221" lon="10.4846008"><ele>164.5</ele><time>2026-03-28T08:33:34.034Z</time></trkpt><trkpt lat="45.4572777" lon="10.4847688"><ele>167.0</ele><time>2026-03-28T08:33:35.034Z</time></trkpt><trkpt lat="45.457322" lon="10.4849292"><ele>167.0</ele><time>2026-03-28T08:33:36.033Z</time></trkpt><trkpt lat="45.4573433" lon="10.4850937"><ele>167.0</ele><time>2026-03-28T08:33:37.034Z</time></trkpt><trkpt lat="45.4573497" lon="10.485259"><ele>167.0</ele><time>2026-03-28T08:33:38.035Z</time></trkpt><trkpt lat="45.4573527" lon="10.4854257"><ele>167.0</ele><time>2026-03-28T08:33:39.033Z</time></trkpt><trkpt lat="45.457362" lon="10.4855888"><ele>167.0</ele><time>2026-03-28T08:33:40.034Z</time></trkpt><trkpt lat="45.4573892" lon="10.4857453"><ele>167.0</ele><time>2026-03-28T08:33:41.035Z</time></trkpt><trkpt lat="45.4574392" lon="10.4859113"><ele>167.0</ele><time>2026-03-28T08:33:42.035Z</time></trkpt><trkpt lat="45.4575065" lon="10.4860802"><ele>167.0</ele><time>2026-03-28T08:33:43.033Z</time></trkpt><trkpt lat="45.457575" lon="10.4862347"><ele>166.0</ele><time>2026-03-28T08:33:44.033Z</time></trkpt><trkpt lat="45.4576355" lon="10.4863732"><ele>165.0</ele><time>2026-03-28T08:33:45.031Z</time></trkpt><trkpt lat="45.4576833" lon="10.4865023"><ele>164.0</ele><time>2026-03-28T08:33:46.032Z</time></trkpt><trkpt lat="45.4577087" lon="10.4866367"><ele>163.0</ele><time>2026-03-28T08:33:47.032Z</time></trkpt><trkpt lat="45.4577098" lon="10.4867822"><ele>162.0</ele><time>2026-03-28T08:33:48.033Z</time></trkpt><trkpt lat="45.4576927" lon="10.4869362"><ele>160.75</ele><time>2026-03-28T08:33:49.032Z</time></trkpt><trkpt lat="45.4576518" lon="10.4871233"><ele>159.5</ele><time>2026-03-28T08:33:50.033Z</time></trkpt><trkpt lat="45.4576203" lon="10.4873052"><ele>158.25</ele><time>2026-03-28T08:33:51.033Z</time></trkpt><trkpt lat="45.4576153" lon="10.4874902"><ele>157.0</ele><time>2026-03-28T08:33:52.033Z</time></trkpt><trkpt lat="45.4576353" lon="10.4876775"><ele>157.0</ele><time>2026-03-28T08:33:53.034Z</time></trkpt><trkpt lat="45.4576795" lon="10.4878615"><ele>157.0</ele><time>2026-03-28T08:33:54.033Z</time></trkpt><trkpt lat="45.4577333" lon="10.4880322"><ele>157.0</ele><time>2026-03-28T08:33:55.033Z</time></trkpt><trkpt lat="45.4577872" lon="10.4881918"><ele>157.0</ele><time>2026-03-28T08:33:56.033Z</time></trkpt><trkpt lat="45.457837" lon="10.4883405"><ele>157.0</ele><time>2026-03-28T08:33:57.034Z</time></trkpt><trkpt lat="45.4578865" lon="10.4884787"><ele>157.0</ele><time>2026-03-28T08:33:58.035Z</time></trkpt><trkpt lat="45.4579378" lon="10.4886005"><ele>157.0</ele><time>2026-03-28T08:33:59.035Z</time></trkpt><trkpt lat="45.4579848" lon="10.4887223"><ele>157.0</ele><time>2026-03-28T08:34:00.033Z</time></trkpt><trkpt lat="45.4580252" lon="10.4888387"><ele>157.0</ele><time>2026-03-28T08:34:01.034Z</time></trkpt><trkpt lat="45.4580522" lon="10.4889453"><ele>157.66666666666669</ele><time>2026-03-28T08:34:02.035Z</time></trkpt><trkpt lat="45.4580667" lon="10.4890373"><ele>158.33333333333334</ele><time>2026-03-28T08:34:03.033Z</time></trkpt><trkpt lat="45.4580707" lon="10.4891672"><ele>159.0</ele><time>2026-03-28T08:34:05.034Z</time></trkpt><trkpt lat="45.4580637" lon="10.489286"><ele>159.66666666666666</ele><time>2026-03-28T08:34:08.032Z</time></trkpt><trkpt lat="45.458015" lon="10.4893687"><ele>160.33333333333331</ele><time>2026-03-28T08:34:10.032Z</time></trkpt><trkpt lat="45.4579225" lon="10.4894438"><ele>161.0</ele><time>2026-03-28T08:34:12.052Z</time></trkpt><trkpt lat="45.4578523" lon="10.4894977"><ele>161.0</ele><time>2026-03-28T08:34:13.036Z</time></trkpt><trkpt lat="45.4577717" lon="10.4895555"><ele>161.0</ele><time>2026-03-28T08:34:14.037Z</time></trkpt><trkpt lat="45.4576927" lon="10.4896068"><ele>161.0</ele><time>2026-03-28T08:34:15.034Z</time></trkpt><trkpt lat="45.4576172" lon="10.4896522"><ele>161.0</ele><time>2026-03-28T08:34:16.034Z</time></trkpt><trkpt lat="45.457545" lon="10.4896905"><ele>161.0</ele><time>2026-03-28T08:34:17.036Z</time></trkpt><trkpt lat="45.4574753" lon="10.4897162"><ele>161.0</ele><time>2026-03-28T08:34:18.034Z</time></trkpt><trkpt lat="45.4574045" lon="10.489716"><ele>161.0</ele><time>2026-03-28T08:34:19.035Z</time></trkpt><trkpt lat="45.4573382" lon="10.4896657"><ele>161.0</ele><time>2026-03-28T08:34:20.033Z</time></trkpt><trkpt lat="45.4572653" lon="10.4895772"><ele>161.0</ele><time>2026-03-28T08:34:21.034Z</time></trkpt><trkpt lat="45.4572015" lon="10.4894727"><ele>161.0</ele><time>2026-03-28T08:34:22.035Z</time></trkpt><trkpt lat="45.4571358" lon="10.4893813"><ele>161.0</ele><time>2026-03-28T08:34:23.033Z</time></trkpt><trkpt lat="45.4570732" lon="10.4892935"><ele>161.0</ele><time>2026-03-28T08:34:24.033Z</time></trkpt><trkpt lat="45.4570122" lon="10.4892037"><ele>160.83333333333331</ele><time>2026-03-28T08:34:25.033Z</time></trkpt><trkpt lat="45.4569525" lon="10.4891112"><ele>160.66666666666666</ele><time>2026-03-28T08:34:26.033Z</time></trkpt><trkpt lat="45.4569002" lon="10.48902"><ele>160.5</ele><time>2026-03-28T08:34:27.034Z</time></trkpt><trkpt lat="45.4568573" lon="10.4889293"><ele>160.33333333333334</ele><time>2026-03-28T08:34:28.033Z</time></trkpt><trkpt lat="45.4568253" lon="10.4888425"><ele>160.16666666666669</ele><time>2026-03-28T08:34:29.032Z</time></trkpt><trkpt lat="45.456798" lon="10.4887578"><ele>160.0</ele><time>2026-03-28T08:34:30.032Z</time></trkpt><trkpt lat="45.4567685" lon="10.4886662"><ele>159.8</ele><time>2026-03-28T08:34:31.034Z</time></trkpt><trkpt lat="45.4567333" lon="10.4885552"><ele>159.6</ele><time>2026-03-28T08:34:32.033Z</time></trkpt><trkpt lat="45.4566833" lon="10.488415"><ele>159.4</ele><time>2026-03-28T08:34:33.032Z</time></trkpt><trkpt lat="45.4566278" lon="10.4882728"><ele>159.2</ele><time>2026-03-28T08:34:34.03Z</time></trkpt><trkpt lat="45.4565683" lon="10.4881238"><ele>159.0</ele><time>2026-03-28T08:34:35.032Z</time></trkpt><trkpt lat="45.4565058" lon="10.4879652"><ele>158.2</ele><time>2026-03-28T08:34:36.033Z</time></trkpt><trkpt lat="45.4564395" lon="10.4877993"><ele>157.4</ele><time>2026-03-28T08:34:37.033Z</time></trkpt><trkpt lat="45.45638" lon="10.4876525"><ele>156.6</ele><time>2026-03-28T08:34:38.035Z</time></trkpt><trkpt lat="45.4563257" lon="10.4875362"><ele>155.8</ele><time>2026-03-28T08:34:39.036Z</time></trkpt><trkpt lat="45.456286" lon="10.4874533"><ele>155.0</ele><time>2026-03-28T08:34:40.033Z</time></trkpt><trkpt lat="45.4563447" lon="10.4873663"><ele>155.0</ele><time>2026-03-28T08:34:43.035Z</time></trkpt><trkpt lat="45.456472" lon="10.4873587"><ele>155.0</ele><time>2026-03-28T08:34:45.033Z</time></trkpt><trkpt lat="45.4565328" lon="10.4873325"><ele>155.0</ele><time>2026-03-28T08:34:46.034Z</time></trkpt><trkpt lat="45.4566155" lon="10.4873478"><ele>155.0</ele><time>2026-03-28T08:34:48.033Z</time></trkpt><trkpt lat="45.45664" lon="10.4874822"><ele>155.0</ele><time>2026-03-28T08:34:50.034Z</time></trkpt><trkpt lat="45.4566692" lon="10.4875635"><ele>155.0</ele><time>2026-03-28T08:34:51.034Z</time></trkpt><trkpt lat="45.4567368" lon="10.4876047"><ele>155.0</ele><time>2026-03-28T08:34:53.036Z</time></trkpt><trkpt lat="45.4567903" lon="10.487519"><ele>155.0</ele><time>2026-03-28T08:34:55.033Z</time></trkpt><trkpt lat="45.456814" lon="10.4873963"><ele>155.0</ele><time>2026-03-28T08:34:56.034Z</time></trkpt><trkpt lat="45.456825" lon="10.487238"><ele>155.0</ele><time>2026-03-28T08:34:57.032Z</time></trkpt><trkpt lat="45.4568288" lon="10.4870632"><ele>155.0</ele><time>2026-03-28T08:34:58.033Z</time></trkpt><trkpt lat="45.4568333" lon="10.4868815"><ele>155.0</ele><time>2026-03-28T08:34:59.032Z</time></trkpt><trkpt lat="45.4568397" lon="10.4867037"><ele>155.0</ele><time>2026-03-28T08:35:00.032Z</time></trkpt><trkpt lat="45.4568445" lon="10.4865197"><ele>155.0</ele><time>2026-03-28T08:35:01.033Z</time></trkpt><trkpt lat="45.4568517" lon="10.4863262"><ele>155.0</ele><time>2026-03-28T08:35:02.034Z</time></trkpt><trkpt lat="45.45686" lon="10.4861165"><ele>155.0</ele><time>2026-03-28T08:35:03.034Z</time></trkpt><trkpt lat="45.4568645" lon="10.4859077"><ele>155.0</ele><time>2026-03-28T08:35:04.034Z</time></trkpt><trkpt lat="45.4568605" lon="10.485702"><ele>155.0</ele><time>2026-03-28T08:35:05.034Z</time></trkpt><trkpt lat="45.4568473" lon="10.4854928"><ele>155.0</ele><time>2026-03-28T08:35:06.034Z</time></trkpt><trkpt lat="45.4568297" lon="10.4852802"><ele>155.0</ele><time>2026-03-28T08:35:07.035Z</time></trkpt><trkpt lat="45.4568133" lon="10.4850627"><ele>155.0</ele><time>2026-03-28T08:35:08.034Z</time></trkpt><trkpt lat="45.456797" lon="10.4848437"><ele>155.0</ele><time>2026-03-28T08:35:09.034Z</time></trkpt><trkpt lat="45.4567807" lon="10.4846345"><ele>155.25</ele><time>2026-03-28T08:35:10.035Z</time></trkpt><trkpt lat="45.4567623" lon="10.4844503"><ele>155.5</ele><time>2026-03-28T08:35:11.035Z</time></trkpt><trkpt lat="45.4567385" lon="10.4842785"><ele>155.75</ele><time>2026-03-28T08:35:12.035Z</time></trkpt><trkpt lat="45.4567068" lon="10.4841188"><ele>156.0</ele><time>2026-03-28T08:35:13.033Z</time></trkpt><trkpt lat="45.4566697" lon="10.483968"><ele>156.0</ele><time>2026-03-28T08:35:14.034Z</time></trkpt><trkpt lat="45.4566207" lon="10.4838208"><ele>156.0</ele><time>2026-03-28T08:35:15.034Z</time></trkpt><trkpt lat="45.4565602" lon="10.4836775"><ele>156.0</ele><time>2026-03-28T08:35:16.035Z</time></trkpt><trkpt lat="45.4564928" lon="10.4835413"><ele>156.0</ele><time>2026-03-28T08:35:17.032Z</time></trkpt><trkpt lat="45.4564252" lon="10.4834168"><ele>156.2</ele><time>2026-03-28T08:35:18.036Z</time></trkpt><trkpt lat="45.4563607" lon="10.4833012"><ele>156.39999999999998</ele><time>2026-03-28T08:35:19.034Z</time></trkpt><trkpt lat="45.4562983" lon="10.4831947"><ele>156.6</ele><time>2026-03-28T08:35:20.036Z</time></trkpt><trkpt lat="45.4562347" lon="10.4830957"><ele>156.79999999999998</ele><time>2026-03-28T08:35:21.03Z</time></trkpt><trkpt lat="45.4561658" lon="10.4829967"><ele>157.0</ele><time>2026-03-28T08:35:22.031Z</time></trkpt><trkpt lat="45.4560942" lon="10.4828905"><ele>156.0</ele><time>2026-03-28T08:35:23.029Z</time></trkpt><trkpt lat="45.4560185" lon="10.4827767"><ele>155.0</ele><time>2026-03-28T08:35:24.031Z</time></trkpt><trkpt lat="45.4559407" lon="10.4826593"><ele>154.0</ele><time>2026-03-28T08:35:25.031Z</time></trkpt><trkpt lat="45.4558647" lon="10.482541"><ele>153.0</ele><time>2026-03-28T08:35:26.034Z</time></trkpt><trkpt lat="45.4557883" lon="10.4824207"><ele>153.0</ele><time>2026-03-28T08:35:27.032Z</time></trkpt><trkpt lat="45.4557108" lon="10.4823008"><ele>153.0</ele><time>2026-03-28T08:35:28.034Z</time></trkpt><trkpt lat="45.4556307" lon="10.4821793"><ele>153.0</ele><time>2026-03-28T08:35:29.033Z</time></trkpt><trkpt lat="45.4555493" lon="10.4820587"><ele>153.0</ele><time>2026-03-28T08:35:30.034Z</time></trkpt><trkpt lat="45.4554637" lon="10.4819362"><ele>152.5</ele><time>2026-03-28T08:35:31.034Z</time></trkpt><trkpt lat="45.455373" lon="10.4818065"><ele>152.0</ele><time>2026-03-28T08:35:32.034Z</time></trkpt><trkpt lat="45.4552825" lon="10.4816783"><ele>151.5</ele><time>2026-03-28T08:35:33.032Z</time></trkpt><trkpt lat="45.4551942" lon="10.4815582"><ele>151.0</ele><time>2026-03-28T08:35:34.032Z</time></trkpt><trkpt lat="45.4551105" lon="10.4814427"><ele>151.0</ele><time>2026-03-28T08:35:35.032Z</time></trkpt><trkpt lat="45.4550235" lon="10.4813257"><ele>151.0</ele><time>2026-03-28T08:35:36.033Z</time></trkpt><trkpt lat="45.4549295" lon="10.4812022"><ele>151.0</ele><time>2026-03-28T08:35:37.037Z</time></trkpt><trkpt lat="45.454833" lon="10.4810752"><ele>151.0</ele><time>2026-03-28T08:35:38.033Z</time></trkpt><trkpt lat="45.4547388" lon="10.4809465"><ele>151.25</ele><time>2026-03-28T08:35:39.034Z</time></trkpt><trkpt lat="45.4546473" lon="10.4808165"><ele>151.5</ele><time>2026-03-28T08:35:40.035Z</time></trkpt><trkpt lat="45.4545575" lon="10.4806798"><ele>151.75</ele><time>2026-03-28T08:35:41.034Z</time></trkpt><trkpt lat="45.4544683" lon="10.4805333"><ele>152.0</ele><time>2026-03-28T08:35:42.037Z</time></trkpt><trkpt lat="45.4543797" lon="10.4803755"><ele>151.5</ele><time>2026-03-28T08:35:43.035Z</time></trkpt><trkpt lat="45.4542925" lon="10.4802098"><ele>151.0</ele><time>2026-03-28T08:35:44.036Z</time></trkpt><trkpt lat="45.4542067" lon="10.4800405"><ele>150.5</ele><time>2026-03-28T08:35:45.035Z</time></trkpt><trkpt lat="45.4541185" lon="10.479872"><ele>150.0</ele><time>2026-03-28T08:35:46.034Z</time></trkpt><trkpt lat="45.4540313" lon="10.4797038"><ele>150.66666666666666</ele><time>2026-03-28T08:35:47.032Z</time></trkpt><trkpt lat="45.4539425" lon="10.4795325"><ele>151.33333333333331</ele><time>2026-03-28T08:35:48.032Z</time></trkpt><trkpt lat="45.4538523" lon="10.4793583"><ele>152.0</ele><time>2026-03-28T08:35:49.032Z</time></trkpt><trkpt lat="45.4537612" lon="10.479183"><ele>151.0</ele><time>2026-03-28T08:35:50.033Z</time></trkpt><trkpt lat="45.4536655" lon="10.4789997"><ele>150.0</ele><time>2026-03-28T08:35:51.034Z</time></trkpt><trkpt lat="45.4535633" lon="10.4788022"><ele>149.0</ele><time>2026-03-28T08:35:52.035Z</time></trkpt><trkpt lat="45.4534608" lon="10.4786048"><ele>149.0</ele><time>2026-03-28T08:35:53.035Z</time></trkpt><trkpt lat="45.4533518" lon="10.4783968"><ele>149.0</ele><time>2026-03-28T08:35:54.034Z</time></trkpt><trkpt lat="45.4532363" lon="10.4781763"><ele>149.0</ele><time>2026-03-28T08:35:55.036Z</time></trkpt><trkpt lat="45.4531147" lon="10.4779432"><ele>149.33333333333331</ele><time>2026-03-28T08:35:56.034Z</time></trkpt><trkpt lat="45.4529932" lon="10.4777102"><ele>149.66666666666666</ele><time>2026-03-28T08:35:57.032Z</time></trkpt><trkpt lat="45.4528675" lon="10.4774758"><ele>150.0</ele><time>2026-03-28T08:35:58.033Z</time></trkpt><trkpt lat="45.4527377" lon="10.4772388"><ele>149.66666666666666</ele><time>2026-03-28T08:35:59.033Z</time></trkpt><trkpt lat="45.452604" lon="10.4770043"><ele>149.33333333333331</ele><time>2026-03-28T08:36:00.035Z</time></trkpt><trkpt lat="45.452468" lon="10.4767773"><ele>149.0</ele><time>2026-03-28T08:36:01.035Z</time></trkpt><trkpt lat="45.452334" lon="10.4765608"><ele>149.0</ele><time>2026-03-28T08:36:02.034Z</time></trkpt><trkpt lat="45.4521998" lon="10.4763527"><ele>149.0</ele><time>2026-03-28T08:36:03.034Z</time></trkpt><trkpt lat="45.4520625" lon="10.476151"><ele>149.0</ele><time>2026-03-28T08:36:04.035Z</time></trkpt><trkpt lat="45.4519227" lon="10.4759543"><ele>147.33333333333331</ele><time>2026-03-28T08:36:05.035Z</time></trkpt><trkpt lat="45.4517788" lon="10.4757595"><ele>145.66666666666666</ele><time>2026-03-28T08:36:06.035Z</time></trkpt><trkpt lat="45.4516298" lon="10.4755657"><ele>144.0</ele><time>2026-03-28T08:36:07.035Z</time></trkpt><trkpt lat="45.4514757" lon="10.4753725"><ele>144.0</ele><time>2026-03-28T08:36:08.038Z</time></trkpt><trkpt lat="45.4513182" lon="10.4751777"><ele>144.0</ele><time>2026-03-28T08:36:09.036Z</time></trkpt><trkpt lat="45.4511615" lon="10.4749795"><ele>144.0</ele><time>2026-03-28T08:36:10.035Z</time></trkpt><trkpt lat="45.4510082" lon="10.4747767"><ele>143.0</ele><time>2026-03-28T08:36:11.034Z</time></trkpt><trkpt lat="45.4508628" lon="10.4745673"><ele>142.0</ele><time>2026-03-28T08:36:12.036Z</time></trkpt><trkpt lat="45.4507285" lon="10.474348"><ele>141.0</ele><time>2026-03-28T08:36:13.033Z</time></trkpt><trkpt lat="45.4506025" lon="10.4741217"><ele>141.0</ele><time>2026-03-28T08:36:14.033Z</time></trkpt><trkpt lat="45.4504863" lon="10.4738888"><ele>141.0</ele><time>2026-03-28T08:36:15.035Z</time></trkpt><trkpt lat="45.4503827" lon="10.4736582"><ele>141.0</ele><time>2026-03-28T08:36:16.034Z</time></trkpt><trkpt lat="45.4502913" lon="10.4734315"><ele>140.66666666666666</ele><time>2026-03-28T08:36:17.035Z</time></trkpt><trkpt lat="45.4502062" lon="10.4732042"><ele>140.33333333333331</ele><time>2026-03-28T08:36:18.035Z</time></trkpt><trkpt lat="45.4501213" lon="10.4729717"><ele>140.0</ele><time>2026-03-28T08:36:19.036Z</time></trkpt><trkpt lat="45.4500357" lon="10.4727375"><ele>140.0</ele><time>2026-03-28T08:36:20.035Z</time></trkpt><trkpt lat="45.449952" lon="10.4725072"><ele>140.0</ele><time>2026-03-28T08:36:21.035Z</time></trkpt><trkpt lat="45.4498702" lon="10.4722805"><ele>140.0</ele><time>2026-03-28T08:36:22.036Z</time></trkpt><trkpt lat="45.4497882" lon="10.4720555"><ele>139.66666666666666</ele><time>2026-03-28T08:36:23.035Z</time></trkpt><trkpt lat="45.4497058" lon="10.4718292"><ele>139.33333333333334</ele><time>2026-03-28T08:36:24.035Z</time></trkpt><trkpt lat="45.4496233" lon="10.4716022"><ele>139.0</ele><time>2026-03-28T08:36:25.034Z</time></trkpt><trkpt lat="45.4495417" lon="10.4713777"><ele>139.0</ele><time>2026-03-28T08:36:26.035Z</time></trkpt><trkpt lat="45.4494602" lon="10.4711568"><ele>139.0</ele><time>2026-03-28T08:36:27.034Z</time></trkpt><trkpt lat="45.4493778" lon="10.4709367"><ele>139.0</ele><time>2026-03-28T08:36:28.035Z</time></trkpt><trkpt lat="45.4492977" lon="10.4707197"><ele>139.0</ele><time>2026-03-28T08:36:29.034Z</time></trkpt><trkpt lat="45.449221" lon="10.470513"><ele>139.0</ele><time>2026-03-28T08:36:30.034Z</time></trkpt><trkpt lat="45.449147" lon="10.4703167"><ele>139.0</ele><time>2026-03-28T08:36:31.034Z</time></trkpt><trkpt lat="45.44908" lon="10.4701387"><ele>139.0</ele><time>2026-03-28T08:36:32.036Z</time></trkpt><trkpt lat="45.4490187" lon="10.4699778"><ele>139.0</ele><time>2026-03-28T08:36:33.034Z</time></trkpt><trkpt lat="45.448968" lon="10.469836"><ele>139.0</ele><time>2026-03-28T08:36:34.033Z</time></trkpt><trkpt lat="45.4489232" lon="10.469711"><ele>139.0</ele><time>2026-03-28T08:36:35.032Z</time></trkpt><trkpt lat="45.448884" lon="10.4696002"><ele>139.0</ele><time>2026-03-28T08:36:36.031Z</time></trkpt><trkpt lat="45.4488483" lon="10.4695017"><ele>138.83333333333334</ele><time>2026-03-28T08:36:37.033Z</time></trkpt><trkpt lat="45.4488148" lon="10.4694123"><ele>138.66666666666669</ele><time>2026-03-28T08:36:38.032Z</time></trkpt><trkpt lat="45.4487835" lon="10.4693307"><ele>138.5</ele><time>2026-03-28T08:36:39.035Z</time></trkpt><trkpt lat="45.4487517" lon="10.4692495"><ele>138.33333333333334</ele><time>2026-03-28T08:36:40.034Z</time></trkpt><trkpt lat="45.4487175" lon="10.4691628"><ele>138.16666666666666</ele><time>2026-03-28T08:36:41.037Z</time></trkpt><trkpt lat="45.4486258" lon="10.4690667"><ele>138.0</ele><time>2026-03-28T08:36:43.034Z</time></trkpt><trkpt lat="45.4485587" lon="10.4690625"><ele>138.0</ele><time>2026-03-28T08:36:44.036Z</time></trkpt><trkpt lat="45.4484753" lon="10.4690515"><ele>138.0</ele><time>2026-03-28T08:36:45.035Z</time></trkpt><trkpt lat="45.4483723" lon="10.4690187"><ele>138.0</ele><time>2026-03-28T08:36:46.037Z</time></trkpt><trkpt lat="45.4482572" lon="10.4689815"><ele>138.0</ele><time>2026-03-28T08:36:47.034Z</time></trkpt><trkpt lat="45.4481402" lon="10.4689475"><ele>138.0</ele><time>2026-03-28T08:36:48.036Z</time></trkpt><trkpt lat="45.4480293" lon="10.4689132"><ele>137.25</ele><time>2026-03-28T08:36:49.034Z</time></trkpt><trkpt lat="45.4479197" lon="10.4688767"><ele>136.5</ele><time>2026-03-28T08:36:50.034Z</time></trkpt><trkpt lat="45.4478065" lon="10.4688368"><ele>135.75</ele><time>2026-03-28T08:36:51.035Z</time></trkpt><trkpt lat="45.4476905" lon="10.4687915"><ele>135.0</ele><time>2026-03-28T08:36:52.035Z</time></trkpt><trkpt lat="45.4475722" lon="10.4687393"><ele>134.75</ele><time>2026-03-28T08:36:53.036Z</time></trkpt><trkpt lat="45.4474538" lon="10.4686798"><ele>134.5</ele><time>2026-03-28T08:36:54.035Z</time></trkpt><trkpt lat="45.4473418" lon="10.4686192"><ele>134.25</ele><time>2026-03-28T08:36:55.035Z</time></trkpt><trkpt lat="45.4472412" lon="10.4685598"><ele>134.0</ele><time>2026-03-28T08:36:56.034Z</time></trkpt><trkpt lat="45.4471508" lon="10.4685025"><ele>133.8</ele><time>2026-03-28T08:36:57.034Z</time></trkpt><trkpt lat="45.4470647" lon="10.4684545"><ele>133.60000000000002</ele><time>2026-03-28T08:36:58.035Z</time></trkpt><trkpt lat="45.4469762" lon="10.4684262"><ele>133.4</ele><time>2026-03-28T08:36:59.034Z</time></trkpt><trkpt lat="45.4468773" lon="10.4684097"><ele>133.20000000000002</ele><time>2026-03-28T08:37:00.032Z</time></trkpt><trkpt lat="45.4467662" lon="10.4683972"><ele>133.0</ele><time>2026-03-28T08:37:01.032Z</time></trkpt><trkpt lat="45.4466407" lon="10.468386"><ele>133.0</ele><time>2026-03-28T08:37:02.033Z</time></trkpt><trkpt lat="45.4465003" lon="10.4683718"><ele>133.0</ele><time>2026-03-28T08:37:03.031Z</time></trkpt><trkpt lat="45.4463563" lon="10.4683573"><ele>133.0</ele><time>2026-03-28T08:37:04.033Z</time></trkpt><trkpt lat="45.4462138" lon="10.468341"><ele>133.0</ele><time>2026-03-28T08:37:05.034Z</time></trkpt><trkpt lat="45.4460772" lon="10.4683212"><ele>133.0</ele><time>2026-03-28T08:37:06.034Z</time></trkpt><trkpt lat="45.445949" lon="10.4682998"><ele>133.0</ele><time>2026-03-28T08:37:07.035Z</time></trkpt><trkpt lat="45.4458287" lon="10.4682777"><ele>133.0</ele><time>2026-03-28T08:37:08.034Z</time></trkpt><trkpt lat="45.4457147" lon="10.4682552"><ele>133.0</ele><time>2026-03-28T08:37:09.033Z</time></trkpt><trkpt lat="45.4456038" lon="10.4682335"><ele>133.0</ele><time>2026-03-28T08:37:10.034Z</time></trkpt><trkpt lat="45.4454958" lon="10.4682163"><ele>133.0</ele><time>2026-03-28T08:37:11.033Z</time></trkpt><trkpt lat="45.4453798" lon="10.4682027"><ele>133.0</ele><time>2026-03-28T08:37:12.031Z</time></trkpt><trkpt lat="45.445251" lon="10.4681917"><ele>133.0</ele><time>2026-03-28T08:37:13.034Z</time></trkpt><trkpt lat="45.4451125" lon="10.4681902"><ele>132.75</ele><time>2026-03-28T08:37:14.033Z</time></trkpt><trkpt lat="45.444975" lon="10.468193"><ele>132.5</ele><time>2026-03-28T08:37:15.035Z</time></trkpt><trkpt lat="45.4448453" lon="10.4681978"><ele>132.25</ele><time>2026-03-28T08:37:16.033Z</time></trkpt><trkpt lat="45.4447187" lon="10.4682032"><ele>132.0</ele><time>2026-03-28T08:37:17.032Z</time></trkpt><trkpt lat="45.4445875" lon="10.4682128"><ele>132.0</ele><time>2026-03-28T08:37:18.032Z</time></trkpt><trkpt lat="45.4444592" lon="10.4682115"><ele>132.0</ele><time>2026-03-28T08:37:19.034Z</time></trkpt><trkpt lat="45.4443332" lon="10.468204"><ele>132.0</ele><time>2026-03-28T08:37:20.033Z</time></trkpt><trkpt lat="45.4442147" lon="10.468197"><ele>132.0</ele><time>2026-03-28T08:37:21.033Z</time></trkpt><trkpt lat="45.4441057" lon="10.4681977"><ele>132.0</ele><time>2026-03-28T08:37:22.033Z</time></trkpt><trkpt lat="45.444002" lon="10.4682088"><ele>132.0</ele><time>2026-03-28T08:37:23.033Z</time></trkpt><trkpt lat="45.4439002" lon="10.4682278"><ele>132.0</ele><time>2026-03-28T08:37:24.028Z</time></trkpt><trkpt lat="45.4437942" lon="10.4682513"><ele>132.0</ele><time>2026-03-28T08:37:25.033Z</time></trkpt><trkpt lat="45.443689" lon="10.4682782"><ele>132.0</ele><time>2026-03-28T08:37:26.031Z</time></trkpt><trkpt lat="45.4435927" lon="10.4683067"><ele>132.0</ele><time>2026-03-28T08:37:27.03Z</time></trkpt><trkpt lat="45.443499" lon="10.4683357"><ele>132.0</ele><time>2026-03-28T08:37:28.032Z</time></trkpt><trkpt lat="45.4434023" lon="10.4683608"><ele>132.0</ele><time>2026-03-28T08:37:29.032Z</time></trkpt><trkpt lat="45.4433003" lon="10.4683788"><ele>132.0</ele><time>2026-03-28T08:37:30.033Z</time></trkpt><trkpt lat="45.4431997" lon="10.4683795"><ele>132.0</ele><time>2026-03-28T08:37:31.034Z</time></trkpt><trkpt lat="45.4431088" lon="10.4683678"><ele>132.0</ele><time>2026-03-28T08:37:32.034Z</time></trkpt><trkpt lat="45.4430327" lon="10.4683538"><ele>132.0</ele><time>2026-03-28T08:37:33.03Z</time></trkpt><trkpt lat="45.4429648" lon="10.4683362"><ele>132.0</ele><time>2026-03-28T08:37:34.033Z</time></trkpt><trkpt lat="45.442896" lon="10.4683162"><ele>132.0</ele><time>2026-03-28T08:37:35.033Z</time></trkpt><trkpt lat="45.4428247" lon="10.4682942"><ele>132.0</ele><time>2026-03-28T08:37:36.034Z</time></trkpt><trkpt lat="45.4427513" lon="10.4682827"><ele>132.0</ele><time>2026-03-28T08:37:37.032Z</time></trkpt><trkpt lat="45.442676" lon="10.4682747"><ele>132.0</ele><time>2026-03-28T08:37:38.033Z</time></trkpt><trkpt lat="45.4426025" lon="10.4682653"><ele>131.83333333333334</ele><time>2026-03-28T08:37:39.033Z</time></trkpt><trkpt lat="45.442533" lon="10.4682567"><ele>131.66666666666666</ele><time>2026-03-28T08:37:40.035Z</time></trkpt><trkpt lat="45.442455" lon="10.4682498"><ele>131.5</ele><time>2026-03-28T08:37:41.036Z</time></trkpt><trkpt lat="45.442372" lon="10.4682457"><ele>131.33333333333331</ele><time>2026-03-28T08:37:42.036Z</time></trkpt><trkpt lat="45.4422778" lon="10.4682377"><ele>131.16666666666666</ele><time>2026-03-28T08:37:43.037Z</time></trkpt><trkpt lat="45.4421883" lon="10.4682297"><ele>131.0</ele><time>2026-03-28T08:37:44.034Z</time></trkpt><trkpt lat="45.4420985" lon="10.4682242"><ele>130.8</ele><time>2026-03-28T08:37:45.034Z</time></trkpt><trkpt lat="45.4420122" lon="10.468208"><ele>130.6</ele><time>2026-03-28T08:37:46.034Z</time></trkpt><trkpt lat="45.4419297" lon="10.4681822"><ele>130.4</ele><time>2026-03-28T08:37:47.035Z</time></trkpt><trkpt lat="45.4418448" lon="10.4681473"><ele>130.2</ele><time>2026-03-28T08:37:48.032Z</time></trkpt><trkpt lat="45.4417577" lon="10.4680962"><ele>130.0</ele><time>2026-03-28T08:37:49.031Z</time></trkpt><trkpt lat="45.4416598" lon="10.468032"><ele>130.0</ele><time>2026-03-28T08:37:50.032Z</time></trkpt><trkpt lat="45.4415398" lon="10.4679443"><ele>130.0</ele><time>2026-03-28T08:37:51.031Z</time></trkpt><trkpt lat="45.4413952" lon="10.4678407"><ele>130.0</ele><time>2026-03-28T08:37:52.038Z</time></trkpt><trkpt lat="45.441249" lon="10.467734"><ele>129.33333333333334</ele><time>2026-03-28T08:37:53.034Z</time></trkpt><trkpt lat="45.4411058" lon="10.4676228"><ele>128.66666666666666</ele><time>2026-03-28T08:37:54.034Z</time></trkpt><trkpt lat="45.4409732" lon="10.4675135"><ele>128.0</ele><time>2026-03-28T08:37:55.034Z</time></trkpt><trkpt lat="45.4408483" lon="10.4674115"><ele>128.0</ele><time>2026-03-28T08:37:56.036Z</time></trkpt><trkpt lat="45.4407222" lon="10.4673065"><ele>128.0</ele><time>2026-03-28T08:37:57.033Z</time></trkpt><trkpt lat="45.4405928" lon="10.4672018"><ele>128.0</ele><time>2026-03-28T08:37:58.036Z</time></trkpt><trkpt lat="45.4404592" lon="10.4671008"><ele>128.0</ele><time>2026-03-28T08:37:59.035Z</time></trkpt><trkpt lat="45.4403308" lon="10.4670093"><ele>127.5</ele><time>2026-03-28T08:38:00.036Z</time></trkpt><trkpt lat="45.4402015" lon="10.4669247"><ele>127.0</ele><time>2026-03-28T08:38:01.034Z</time></trkpt><trkpt lat="45.4400665" lon="10.4668502"><ele>126.5</ele><time>2026-03-28T08:38:02.035Z</time></trkpt><trkpt lat="45.4399235" lon="10.466786"><ele>126.0</ele><time>2026-03-28T08:38:03.034Z</time></trkpt><trkpt lat="45.439778" lon="10.4667293"><ele>126.0</ele><time>2026-03-28T08:38:04.035Z</time></trkpt><trkpt lat="45.4396255" lon="10.4666767"><ele>126.0</ele><time>2026-03-28T08:38:05.034Z</time></trkpt><trkpt lat="45.4394623" lon="10.4666243"><ele>126.0</ele><time>2026-03-28T08:38:06.036Z</time></trkpt><trkpt lat="45.4392965" lon="10.4665735"><ele>126.0</ele><time>2026-03-28T08:38:07.038Z</time></trkpt><trkpt lat="45.4391367" lon="10.4665237"><ele>126.0</ele><time>2026-03-28T08:38:08.036Z</time></trkpt><trkpt lat="45.4389813" lon="10.4664767"><ele>126.0</ele><time>2026-03-28T08:38:09.033Z</time></trkpt><trkpt lat="45.4388283" lon="10.4664383"><ele>126.0</ele><time>2026-03-28T08:38:10.039Z</time></trkpt><trkpt lat="45.4386758" lon="10.4663957"><ele>126.0</ele><time>2026-03-28T08:38:11.036Z</time></trkpt><trkpt lat="45.4385248" lon="10.4663402"><ele>126.0</ele><time>2026-03-28T08:38:12.034Z</time></trkpt><trkpt lat="45.438381" lon="10.4662615"><ele>126.33333333333334</ele><time>2026-03-28T08:38:13.033Z</time></trkpt><trkpt lat="45.4382428" lon="10.4661627"><ele>126.66666666666667</ele><time>2026-03-28T08:38:14.033Z</time></trkpt><trkpt lat="45.438101" lon="10.466052"><ele>127.0</ele><time>2026-03-28T08:38:15.032Z</time></trkpt><trkpt lat="45.4379603" lon="10.4659375"><ele>126.0</ele><time>2026-03-28T08:38:16.032Z</time></trkpt><trkpt lat="45.4378213" lon="10.4658203"><ele>125.0</ele><time>2026-03-28T08:38:17.035Z</time></trkpt><trkpt lat="45.4376837" lon="10.4657003"><ele>124.0</ele><time>2026-03-28T08:38:18.035Z</time></trkpt><trkpt lat="45.4375533" lon="10.4655835"><ele>124.0</ele><time>2026-03-28T08:38:19.034Z</time></trkpt><trkpt lat="45.4374235" lon="10.4654755"><ele>124.0</ele><time>2026-03-28T08:38:20.037Z</time></trkpt><trkpt lat="45.4372942" lon="10.4653825"><ele>124.0</ele><time>2026-03-28T08:38:21.037Z</time></trkpt><trkpt lat="45.437167" lon="10.4653032"><ele>124.0</ele><time>2026-03-28T08:38:22.035Z</time></trkpt><trkpt lat="45.4370428" lon="10.4652325"><ele>124.0</ele><time>2026-03-28T08:38:23.034Z</time></trkpt><trkpt lat="45.4369255" lon="10.4651735"><ele>124.0</ele><time>2026-03-28T08:38:24.036Z</time></trkpt><trkpt lat="45.4368163" lon="10.4651217"><ele>124.0</ele><time>2026-03-28T08:38:25.035Z</time></trkpt><trkpt lat="45.4367163" lon="10.4650808"><ele>124.0</ele><time>2026-03-28T08:38:26.034Z</time></trkpt><trkpt lat="45.4366298" lon="10.4650472"><ele>124.0</ele><time>2026-03-28T08:38:27.035Z</time></trkpt><trkpt lat="45.4365655" lon="10.4650337"><ele>124.0</ele><time>2026-03-28T08:38:28.039Z</time></trkpt><trkpt lat="45.4364747" lon="10.4650987"><ele>124.0</ele><time>2026-03-28T08:38:30.035Z</time></trkpt><trkpt lat="45.4364277" lon="10.4652895"><ele>124.0</ele><time>2026-03-28T08:38:32.033Z</time></trkpt><trkpt lat="45.4364087" lon="10.4654418"><ele>124.0</ele><time>2026-03-28T08:38:33.032Z</time></trkpt><trkpt lat="45.436394" lon="10.465625"><ele>124.25</ele><time>2026-03-28T08:38:34.033Z</time></trkpt><trkpt lat="45.4363838" lon="10.4658097"><ele>124.5</ele><time>2026-03-28T08:38:35.034Z</time></trkpt><trkpt lat="45.4363768" lon="10.4659958"><ele>124.75</ele><time>2026-03-28T08:38:36.035Z</time></trkpt><trkpt lat="45.4363798" lon="10.466185"><ele>125.0</ele><time>2026-03-28T08:38:37.034Z</time></trkpt><trkpt lat="45.4363908" lon="10.4663742"><ele>125.0</ele><time>2026-03-28T08:38:38.033Z</time></trkpt><trkpt lat="45.4363987" lon="10.4665622"><ele>125.0</ele><time>2026-03-28T08:38:39.033Z</time></trkpt><trkpt lat="45.4364038" lon="10.4667522"><ele>125.0</ele><time>2026-03-28T08:38:40.034Z</time></trkpt><trkpt lat="45.436405" lon="10.4669458"><ele>125.0</ele><time>2026-03-28T08:38:41.034Z</time></trkpt><trkpt lat="45.4364003" lon="10.4671365"><ele>125.0</ele><time>2026-03-28T08:38:42.038Z</time></trkpt><trkpt lat="45.4363915" lon="10.4673315"><ele>125.0</ele><time>2026-03-28T08:38:43.035Z</time></trkpt><trkpt lat="45.4363802" lon="10.4675315"><ele>125.0</ele><time>2026-03-28T08:38:44.034Z</time></trkpt><trkpt lat="45.4363732" lon="10.4677313"><ele>125.0</ele><time>2026-03-28T08:38:45.034Z</time></trkpt><trkpt lat="45.436371" lon="10.4679352"><ele>125.0</ele><time>2026-03-28T08:38:46.035Z</time></trkpt><trkpt lat="45.4363715" lon="10.4681437"><ele>125.0</ele><time>2026-03-28T08:38:47.033Z</time></trkpt><trkpt lat="45.4363693" lon="10.4683518"><ele>125.0</ele><time>2026-03-28T08:38:48.033Z</time></trkpt><trkpt lat="45.4363633" lon="10.468559"><ele>125.0</ele><time>2026-03-28T08:38:49.034Z</time></trkpt><trkpt lat="45.4363575" lon="10.4687618"><ele>125.25</ele><time>2026-03-28T08:38:50.034Z</time></trkpt><trkpt lat="45.4363528" lon="10.4689713"><ele>125.5</ele><time>2026-03-28T08:38:51.033Z</time></trkpt><trkpt lat="45.4363517" lon="10.4691835"><ele>125.75</ele><time>2026-03-28T08:38:52.034Z</time></trkpt><trkpt lat="45.4363532" lon="10.469385"><ele>126.0</ele><time>2026-03-28T08:38:53.035Z</time></trkpt><trkpt lat="45.4363562" lon="10.469583"><ele>126.5</ele><time>2026-03-28T08:38:54.035Z</time></trkpt><trkpt lat="45.4363633" lon="10.469779"><ele>127.0</ele><time>2026-03-28T08:38:55.038Z</time></trkpt><trkpt lat="45.4363727" lon="10.4699853"><ele>127.5</ele><time>2026-03-28T08:38:56.034Z</time></trkpt><trkpt lat="45.4363763" lon="10.4701925"><ele>128.0</ele><time>2026-03-28T08:38:57.035Z</time></trkpt><trkpt lat="45.4363772" lon="10.4704002"><ele>127.66666666666666</ele><time>2026-03-28T08:38:58.034Z</time></trkpt><trkpt lat="45.4363778" lon="10.4706125"><ele>127.33333333333334</ele><time>2026-03-28T08:38:59.034Z</time></trkpt><trkpt lat="45.4363738" lon="10.470828"><ele>127.0</ele><time>2026-03-28T08:39:00.033Z</time></trkpt><trkpt lat="45.4363707" lon="10.4710422"><ele>127.0</ele><time>2026-03-28T08:39:01.034Z</time></trkpt><trkpt lat="45.4363655" lon="10.4712568"><ele>127.0</ele><time>2026-03-28T08:39:02.033Z</time></trkpt><trkpt lat="45.4363602" lon="10.471481"><ele>127.0</ele><time>2026-03-28T08:39:03.031Z</time></trkpt><trkpt lat="45.4363577" lon="10.4717042"><ele>127.0</ele><time>2026-03-28T08:39:04.034Z</time></trkpt><trkpt lat="45.4363553" lon="10.4719257"><ele>127.0</ele><time>2026-03-28T08:39:05.033Z</time></trkpt><trkpt lat="45.4363572" lon="10.4721492"><ele>127.0</ele><time>2026-03-28T08:39:06.034Z</time></trkpt><trkpt lat="45.4363618" lon="10.4723737"><ele>127.0</ele><time>2026-03-28T08:39:07.033Z</time></trkpt><trkpt lat="45.4363663" lon="10.4725952"><ele>127.0</ele><time>2026-03-28T08:39:08.035Z</time></trkpt><trkpt lat="45.4363753" lon="10.47282"><ele>127.0</ele><time>2026-03-28T08:39:09.037Z</time></trkpt><trkpt lat="45.4363917" lon="10.4730527"><ele>127.0</ele><time>2026-03-28T08:39:10.036Z</time></trkpt><trkpt lat="45.436415" lon="10.4732895"><ele>127.0</ele><time>2026-03-28T08:39:11.034Z</time></trkpt><trkpt lat="45.4364447" lon="10.4735255"><ele>127.0</ele><time>2026-03-28T08:39:12.033Z</time></trkpt><trkpt lat="45.4364725" lon="10.4737573"><ele>127.0</ele><time>2026-03-28T08:39:13.037Z</time></trkpt><trkpt lat="45.4364955" lon="10.4739807"><ele>127.0</ele><time>2026-03-28T08:39:14.034Z</time></trkpt><trkpt lat="45.4365108" lon="10.4741852"><ele>127.0</ele><time>2026-03-28T08:39:15.034Z</time></trkpt><trkpt lat="45.4365222" lon="10.4743745"><ele>127.0</ele><time>2026-03-28T08:39:16.034Z</time></trkpt><trkpt lat="45.4365342" lon="10.4745593"><ele>127.33333333333334</ele><time>2026-03-28T08:39:17.035Z</time></trkpt><trkpt lat="45.4365512" lon="10.4747535"><ele>127.66666666666666</ele><time>2026-03-28T08:39:18.038Z</time></trkpt><trkpt lat="45.4365765" lon="10.474969"><ele>128.0</ele><time>2026-03-28T08:39:19.036Z</time></trkpt><trkpt lat="45.4366052" lon="10.4752005"><ele>128.0</ele><time>2026-03-28T08:39:20.033Z</time></trkpt><trkpt lat="45.4366323" lon="10.4754195"><ele>128.0</ele><time>2026-03-28T08:39:21.034Z</time></trkpt><trkpt lat="45.4366587" lon="10.4756243"><ele>128.0</ele><time>2026-03-28T08:39:22.034Z</time></trkpt><trkpt lat="45.4366847" lon="10.475831"><ele>128.0</ele><time>2026-03-28T08:39:23.034Z</time></trkpt><trkpt lat="45.4367123" lon="10.4760533"><ele>128.0</ele><time>2026-03-28T08:39:24.037Z</time></trkpt><trkpt lat="45.436738" lon="10.4762625"><ele>128.0</ele><time>2026-03-28T08:39:25.034Z</time></trkpt><trkpt lat="45.4367595" lon="10.4764555"><ele>128.0</ele><time>2026-03-28T08:39:26.037Z</time></trkpt><trkpt lat="45.436777" lon="10.4766332"><ele>128.0</ele><time>2026-03-28T08:39:27.033Z</time></trkpt><trkpt lat="45.4367962" lon="10.4767958"><ele>127.99999999999999</ele><time>2026-03-28T08:39:28.034Z</time></trkpt><trkpt lat="45.4368162" lon="10.4769422"><ele>128.0</ele><time>2026-03-28T08:39:29.033Z</time></trkpt><trkpt lat="45.4368332" lon="10.4770702"><ele>128.0</ele><time>2026-03-28T08:39:30.033Z</time></trkpt><trkpt lat="45.4368463" lon="10.4771805"><ele>128.0</ele><time>2026-03-28T08:39:31.034Z</time></trkpt><trkpt lat="45.4368563" lon="10.4772692"><ele>127.99999999999999</ele><time>2026-03-28T08:39:32.033Z</time></trkpt><trkpt lat="45.4368735" lon="10.4773868"><ele>128.0</ele><time>2026-03-28T08:39:34.035Z</time></trkpt><trkpt lat="45.4369345" lon="10.4774798"><ele>128.20000000000002</ele><time>2026-03-28T08:39:36.035Z</time></trkpt><trkpt lat="45.4370068" lon="10.4775038"><ele>128.4</ele><time>2026-03-28T08:39:37.034Z</time></trkpt><trkpt lat="45.4370973" lon="10.477516"><ele>128.60000000000002</ele><time>2026-03-28T08:39:38.033Z</time></trkpt><trkpt lat="45.4372057" lon="10.4775298"><ele>128.8</ele><time>2026-03-28T08:39:39.034Z</time></trkpt><trkpt lat="45.4373202" lon="10.4775465"><ele>129.0</ele><time>2026-03-28T08:39:40.034Z</time></trkpt><trkpt lat="45.437453" lon="10.4775685"><ele>129.0</ele><time>2026-03-28T08:39:41.034Z</time></trkpt><trkpt lat="45.4375888" lon="10.4775895"><ele>129.0</ele><time>2026-03-28T08:39:42.035Z</time></trkpt><trkpt lat="45.4377253" lon="10.4776032"><ele>129.0</ele><time>2026-03-28T08:39:43.035Z</time></trkpt><trkpt lat="45.437865" lon="10.4776137"><ele>129.0</ele><time>2026-03-28T08:39:44.034Z</time></trkpt><trkpt lat="45.4380098" lon="10.4776258"><ele>129.33333333333334</ele><time>2026-03-28T08:39:45.034Z</time></trkpt><trkpt lat="45.4381603" lon="10.4776407"><ele>129.66666666666669</ele><time>2026-03-28T08:39:46.034Z</time></trkpt><trkpt lat="45.4383153" lon="10.4776562"><ele>130.0</ele><time>2026-03-28T08:39:47.034Z</time></trkpt><trkpt lat="45.4384683" lon="10.4776723"><ele>130.0</ele><time>2026-03-28T08:39:48.034Z</time></trkpt><trkpt lat="45.4386225" lon="10.4776928"><ele>130.0</ele><time>2026-03-28T08:39:49.033Z</time></trkpt><trkpt lat="45.4387773" lon="10.4777212"><ele>130.0</ele><time>2026-03-28T08:39:50.033Z</time></trkpt><trkpt lat="45.4389277" lon="10.4777562"><ele>130.0</ele><time>2026-03-28T08:39:51.031Z</time></trkpt><trkpt lat="45.439072" lon="10.477793"><ele>130.0</ele><time>2026-03-28T08:39:52.034Z</time></trkpt><trkpt lat="45.4392157" lon="10.4778333"><ele>130.0</ele><time>2026-03-28T08:39:53.034Z</time></trkpt><trkpt lat="45.4393517" lon="10.47788"><ele>130.0</ele><time>2026-03-28T08:39:54.04Z</time></trkpt><trkpt lat="45.4394822" lon="10.4779322"><ele>130.25</ele><time>2026-03-28T08:39:55.035Z</time></trkpt><trkpt lat="45.4396063" lon="10.4779857"><ele>130.5</ele><time>2026-03-28T08:39:56.035Z</time></trkpt><trkpt lat="45.4397218" lon="10.4780368"><ele>130.75</ele><time>2026-03-28T08:39:57.034Z</time></trkpt><trkpt lat="45.4398393" lon="10.4780847"><ele>131.0</ele><time>2026-03-28T08:39:58.037Z</time></trkpt><trkpt lat="45.4399683" lon="10.4781328"><ele>131.0</ele><time>2026-03-28T08:39:59.035Z</time></trkpt><trkpt lat="45.4401122" lon="10.4781833"><ele>131.0</ele><time>2026-03-28T08:40:00.035Z</time></trkpt><trkpt lat="45.4402695" lon="10.4782378"><ele>131.0</ele><time>2026-03-28T08:40:01.035Z</time></trkpt><trkpt lat="45.4404335" lon="10.4782935"><ele>131.33333333333331</ele><time>2026-03-28T08:40:02.034Z</time></trkpt><trkpt lat="45.4406052" lon="10.4783488"><ele>131.66666666666666</ele><time>2026-03-28T08:40:03.034Z</time></trkpt><trkpt lat="45.440782" lon="10.4784058"><ele>132.0</ele><time>2026-03-28T08:40:04.035Z</time></trkpt><trkpt lat="45.440948" lon="10.4784588"><ele>132.0</ele><time>2026-03-28T08:40:05.033Z</time></trkpt><trkpt lat="45.4411055" lon="10.478508"><ele>132.0</ele><time>2026-03-28T08:40:06.037Z</time></trkpt><trkpt lat="45.441255" lon="10.478553"><ele>132.0</ele><time>2026-03-28T08:40:07.036Z</time></trkpt><trkpt lat="45.4413995" lon="10.4785928"><ele>132.5</ele><time>2026-03-28T08:40:08.034Z</time></trkpt><trkpt lat="45.441536" lon="10.478622"><ele>133.0</ele><time>2026-03-28T08:40:09.035Z</time></trkpt><trkpt lat="45.4416717" lon="10.4786353"><ele>133.5</ele><time>2026-03-28T08:40:10.034Z</time></trkpt><trkpt lat="45.4418085" lon="10.4786327"><ele>134.0</ele><time>2026-03-28T08:40:11.035Z</time></trkpt><trkpt lat="45.4419452" lon="10.4786173"><ele>134.0</ele><time>2026-03-28T08:40:12.034Z</time></trkpt><trkpt lat="45.4420832" lon="10.478585"><ele>134.0</ele><time>2026-03-28T08:40:13.035Z</time></trkpt><trkpt lat="45.4422233" lon="10.4785325"><ele>134.0</ele><time>2026-03-28T08:40:14.035Z</time></trkpt><trkpt lat="45.442366" lon="10.4784648"><ele>134.0</ele><time>2026-03-28T08:40:15.031Z</time></trkpt><trkpt lat="45.44251" lon="10.4783852"><ele>134.66666666666666</ele><time>2026-03-28T08:40:16.03Z</time></trkpt><trkpt lat="45.4426543" lon="10.4783002"><ele>135.33333333333334</ele><time>2026-03-28T08:40:17.03Z</time></trkpt><trkpt lat="45.4427937" lon="10.4782107"><ele>136.0</ele><time>2026-03-28T08:40:18.03Z</time></trkpt><trkpt lat="45.4429368" lon="10.4781212"><ele>135.66666666666669</ele><time>2026-03-28T08:40:19.031Z</time></trkpt><trkpt lat="45.443083" lon="10.4780493"><ele>135.33333333333334</ele><time>2026-03-28T08:40:20.034Z</time></trkpt><trkpt lat="45.4432315" lon="10.4780005"><ele>135.0</ele><time>2026-03-28T08:40:21.034Z</time></trkpt><trkpt lat="45.4433798" lon="10.4779682"><ele>135.0</ele><time>2026-03-28T08:40:22.035Z</time></trkpt><trkpt lat="45.4435233" lon="10.4779532"><ele>135.0</ele><time>2026-03-28T08:40:23.035Z</time></trkpt><trkpt lat="45.4436638" lon="10.4779522"><ele>135.0</ele><time>2026-03-28T08:40:24.035Z</time></trkpt><trkpt lat="45.443806" lon="10.4779683"><ele>135.0</ele><time>2026-03-28T08:40:25.035Z</time></trkpt><trkpt lat="45.443949" lon="10.4779968"><ele>135.33333333333334</ele><time>2026-03-28T08:40:26.034Z</time></trkpt><trkpt lat="45.444094" lon="10.4780317"><ele>135.66666666666669</ele><time>2026-03-28T08:40:27.035Z</time></trkpt><trkpt lat="45.4442423" lon="10.4780713"><ele>136.0</ele><time>2026-03-28T08:40:28.032Z</time></trkpt><trkpt lat="45.4443983" lon="10.4781123"><ele>136.0</ele><time>2026-03-28T08:40:29.034Z</time></trkpt><trkpt lat="45.4445622" lon="10.4781563"><ele>136.0</ele><time>2026-03-28T08:40:30.033Z</time></trkpt><trkpt lat="45.4447247" lon="10.4782015"><ele>136.0</ele><time>2026-03-28T08:40:31.035Z</time></trkpt><trkpt lat="45.4448783" lon="10.478245"><ele>136.25</ele><time>2026-03-28T08:40:32.037Z</time></trkpt><trkpt lat="45.445024" lon="10.478286"><ele>136.5</ele><time>2026-03-28T08:40:33.032Z</time></trkpt><trkpt lat="45.445171" lon="10.4783293"><ele>136.75</ele><time>2026-03-28T08:40:34.033Z</time></trkpt><trkpt lat="45.4453167" lon="10.4783772"><ele>137.0</ele><time>2026-03-28T08:40:35.032Z</time></trkpt><trkpt lat="45.445455" lon="10.47843"><ele>137.5</ele><time>2026-03-28T08:40:36.035Z</time></trkpt><trkpt lat="45.4455905" lon="10.478491"><ele>138.0</ele><time>2026-03-28T08:40:37.035Z</time></trkpt><trkpt lat="45.4457235" lon="10.4785652"><ele>138.5</ele><time>2026-03-28T08:40:38.038Z</time></trkpt><trkpt lat="45.4458585" lon="10.4786543"><ele>139.0</ele><time>2026-03-28T08:40:39.034Z</time></trkpt><trkpt lat="45.4459967" lon="10.4787525"><ele>139.25</ele><time>2026-03-28T08:40:40.033Z</time></trkpt><trkpt lat="45.446134" lon="10.478853"><ele>139.5</ele><time>2026-03-28T08:40:41.032Z</time></trkpt><trkpt lat="45.4462608" lon="10.47895"><ele>139.75</ele><time>2026-03-28T08:40:42.033Z</time></trkpt><trkpt lat="45.4463787" lon="10.4790422"><ele>140.0</ele><time>2026-03-28T08:40:43.035Z</time></trkpt><trkpt lat="45.4464958" lon="10.4791358"><ele>140.5</ele><time>2026-03-28T08:40:44.038Z</time></trkpt><trkpt lat="45.4466178" lon="10.4792355"><ele>141.0</ele><time>2026-03-28T08:40:45.037Z</time></trkpt><trkpt lat="45.4467448" lon="10.4793408"><ele>141.5</ele><time>2026-03-28T08:40:46.035Z</time></trkpt><trkpt lat="45.4468812" lon="10.4794462"><ele>142.0</ele><time>2026-03-28T08:40:47.034Z</time></trkpt><trkpt lat="45.4470245" lon="10.4795445"><ele>141.33333333333334</ele><time>2026-03-28T08:40:48.033Z</time></trkpt><trkpt lat="45.447169" lon="10.4796308"><ele>140.66666666666666</ele><time>2026-03-28T08:40:49.034Z</time></trkpt><trkpt lat="45.4473103" lon="10.4797115"><ele>140.0</ele><time>2026-03-28T08:40:50.034Z</time></trkpt><trkpt lat="45.4474467" lon="10.4797838"><ele>140.0</ele><time>2026-03-28T08:40:51.035Z</time></trkpt><trkpt lat="45.4475743" lon="10.4798523"><ele>140.0</ele><time>2026-03-28T08:40:52.035Z</time></trkpt><trkpt lat="45.4476998" lon="10.4799187"><ele>140.0</ele><time>2026-03-28T08:40:53.034Z</time></trkpt><trkpt lat="45.4478265" lon="10.4799855"><ele>140.0</ele><time>2026-03-28T08:40:54.034Z</time></trkpt><trkpt lat="45.4479537" lon="10.4800482"><ele>140.0</ele><time>2026-03-28T08:40:55.033Z</time></trkpt><trkpt lat="45.4480828" lon="10.4801105"><ele>140.0</ele><time>2026-03-28T08:40:56.037Z</time></trkpt><trkpt lat="45.4482147" lon="10.4801693"><ele>140.0</ele><time>2026-03-28T08:40:57.035Z</time></trkpt><trkpt lat="45.4483485" lon="10.480224"><ele>140.0</ele><time>2026-03-28T08:40:58.034Z</time></trkpt><trkpt lat="45.4484872" lon="10.4802745"><ele>140.0</ele><time>2026-03-28T08:40:59.034Z</time></trkpt><trkpt lat="45.4486283" lon="10.4803215"><ele>140.0</ele><time>2026-03-28T08:41:00.035Z</time></trkpt><trkpt lat="45.4487712" lon="10.4803675"><ele>140.0</ele><time>2026-03-28T08:41:01.034Z</time></trkpt><trkpt lat="45.4489185" lon="10.4804127"><ele>140.0</ele><time>2026-03-28T08:41:02.034Z</time></trkpt><trkpt lat="45.4490702" lon="10.4804598"><ele>140.0</ele><time>2026-03-28T08:41:03.035Z</time></trkpt><trkpt lat="45.4492207" lon="10.480506"><ele>140.0</ele><time>2026-03-28T08:41:04.033Z</time></trkpt><trkpt lat="45.4493725" lon="10.4805508"><ele>140.0</ele><time>2026-03-28T08:41:05.032Z</time></trkpt><trkpt lat="45.4495258" lon="10.4805943"><ele>141.0</ele><time>2026-03-28T08:41:06.035Z</time></trkpt><trkpt lat="45.4496797" lon="10.4806375"><ele>142.0</ele><time>2026-03-28T08:41:07.034Z</time></trkpt><trkpt lat="45.4498323" lon="10.4806803"><ele>143.0</ele><time>2026-03-28T08:41:08.033Z</time></trkpt><trkpt lat="45.4499783" lon="10.480721"><ele>143.0</ele><time>2026-03-28T08:41:09.037Z</time></trkpt><trkpt lat="45.4501143" lon="10.4807587"><ele>143.0</ele><time>2026-03-28T08:41:10.034Z</time></trkpt><trkpt lat="45.4502475" lon="10.4807947"><ele>143.0</ele><time>2026-03-28T08:41:11.037Z</time></trkpt><trkpt lat="45.4503822" lon="10.4808293"><ele>143.0</ele><time>2026-03-28T08:41:12.035Z</time></trkpt><trkpt lat="45.4505188" lon="10.4808648"><ele>143.25</ele><time>2026-03-28T08:41:13.037Z</time></trkpt><trkpt lat="45.4506572" lon="10.4808983"><ele>143.5</ele><time>2026-03-28T08:41:14.037Z</time></trkpt><trkpt lat="45.4507952" lon="10.4809317"><ele>143.75</ele><time>2026-03-28T08:41:15.032Z</time></trkpt><trkpt lat="45.450935" lon="10.4809672"><ele>144.0</ele><time>2026-03-28T08:41:16.034Z</time></trkpt><trkpt lat="45.4510828" lon="10.4810015"><ele>144.0</ele><time>2026-03-28T08:41:17.036Z</time></trkpt><trkpt lat="45.4512315" lon="10.4810388"><ele>144.0</ele><time>2026-03-28T08:41:18.034Z</time></trkpt><trkpt lat="45.4513723" lon="10.481078"><ele>144.0</ele><time>2026-03-28T08:41:19.037Z</time></trkpt><trkpt lat="45.4515088" lon="10.48112"><ele>144.0</ele><time>2026-03-28T08:41:20.032Z</time></trkpt><trkpt lat="45.4516345" lon="10.4811642"><ele>143.75</ele><time>2026-03-28T08:41:21.033Z</time></trkpt><trkpt lat="45.4517495" lon="10.4812078"><ele>143.5</ele><time>2026-03-28T08:41:22.034Z</time></trkpt><trkpt lat="45.4518588" lon="10.481251"><ele>143.25</ele><time>2026-03-28T08:41:23.035Z</time></trkpt><trkpt lat="45.451969" lon="10.4812927"><ele>143.0</ele><time>2026-03-28T08:41:24.032Z</time></trkpt><trkpt lat="45.4520782" lon="10.4813417"><ele>144.0</ele><time>2026-03-28T08:41:25.032Z</time></trkpt><trkpt lat="45.4521915" lon="10.4814098"><ele>145.0</ele><time>2026-03-28T08:41:26.035Z</time></trkpt><trkpt lat="45.4523063" lon="10.4815023"><ele>146.0</ele><time>2026-03-28T08:41:27.035Z</time></trkpt><trkpt lat="45.4524078" lon="10.4816133"><ele>147.0</ele><time>2026-03-28T08:41:28.038Z</time></trkpt><trkpt lat="45.4524975" lon="10.481745"><ele>147.0</ele><time>2026-03-28T08:41:29.032Z</time></trkpt><trkpt lat="45.452574" lon="10.4818977"><ele>147.0</ele><time>2026-03-28T08:41:30.032Z</time></trkpt><trkpt lat="45.4526337" lon="10.4820718"><ele>147.0</ele><time>2026-03-28T08:41:31.034Z</time></trkpt><trkpt lat="45.4526735" lon="10.4822648"><ele>147.0</ele><time>2026-03-28T08:41:32.032Z</time></trkpt><trkpt lat="45.4526912" lon="10.4824675"><ele>147.25</ele><time>2026-03-28T08:41:33.034Z</time></trkpt><trkpt lat="45.4526888" lon="10.4826702"><ele>147.5</ele><time>2026-03-28T08:41:34.035Z</time></trkpt><trkpt lat="45.4526777" lon="10.4828753"><ele>147.75</ele><time>2026-03-28T08:41:35.034Z</time></trkpt><trkpt lat="45.4526632" lon="10.483081"><ele>148.0</ele><time>2026-03-28T08:41:36.051Z</time></trkpt><trkpt lat="45.4526498" lon="10.4832875"><ele>148.5</ele><time>2026-03-28T08:41:37.035Z</time></trkpt><trkpt lat="45.4526395" lon="10.4834793"><ele>149.0</ele><time>2026-03-28T08:41:38.036Z</time></trkpt><trkpt lat="45.4526357" lon="10.4836553"><ele>149.5</ele><time>2026-03-28T08:41:39.035Z</time></trkpt><trkpt lat="45.4526412" lon="10.4838262"><ele>150.0</ele><time>2026-03-28T08:41:40.034Z</time></trkpt><trkpt lat="45.452663" lon="10.4839947"><ele>150.0</ele><time>2026-03-28T08:41:41.037Z</time></trkpt><trkpt lat="45.4526993" lon="10.4841523"><ele>150.0</ele><time>2026-03-28T08:41:42.034Z</time></trkpt><trkpt lat="45.4527457" lon="10.4842932"><ele>150.0</ele><time>2026-03-28T08:41:43.035Z</time></trkpt><trkpt lat="45.452798" lon="10.4844153"><ele>150.0</ele><time>2026-03-28T08:41:44.033Z</time></trkpt><trkpt lat="45.4528522" lon="10.4845163"><ele>150.0</ele><time>2026-03-28T08:41:45.034Z</time></trkpt><trkpt lat="45.4529012" lon="10.484591"><ele>151.0</ele><time>2026-03-28T08:41:46.032Z</time></trkpt><trkpt lat="45.4529475" lon="10.4846798"><ele>152.0</ele><time>2026-03-28T08:41:48.033Z</time></trkpt><trkpt lat="45.4529503" lon="10.4847857"><ele>153.0</ele><time>2026-03-28T08:41:50.035Z</time></trkpt><trkpt lat="45.4529228" lon="10.484911"><ele>154.0</ele><time>2026-03-28T08:41:52.033Z</time></trkpt><trkpt lat="45.4528703" lon="10.485007"><ele>155.0</ele><time>2026-03-28T08:41:54.029Z</time></trkpt><trkpt lat="45.4527643" lon="10.4850525"><ele>156.0</ele><time>2026-03-28T08:41:56.032Z</time></trkpt><trkpt lat="45.4526767" lon="10.4850652"><ele>156.0</ele><time>2026-03-28T08:41:57.029Z</time></trkpt><trkpt lat="45.4525787" lon="10.4850682"><ele>156.0</ele><time>2026-03-28T08:41:58.033Z</time></trkpt><trkpt lat="45.452483" lon="10.4850705"><ele>156.0</ele><time>2026-03-28T08:41:59.033Z</time></trkpt><trkpt lat="45.4523845" lon="10.4850667"><ele>156.0</ele><time>2026-03-28T08:42:00.032Z</time></trkpt><trkpt lat="45.452275" lon="10.4850568"><ele>156.0</ele><time>2026-03-28T08:42:01.033Z</time></trkpt><trkpt lat="45.452157" lon="10.4850358"><ele>156.0</ele><time>2026-03-28T08:42:02.032Z</time></trkpt><trkpt lat="45.4520435" lon="10.4850118"><ele>156.0</ele><time>2026-03-28T08:42:03.031Z</time></trkpt><trkpt lat="45.4519292" lon="10.4849873"><ele>156.0</ele><time>2026-03-28T08:42:04.032Z</time></trkpt><trkpt lat="45.451814" lon="10.4849563"><ele>156.0</ele><time>2026-03-28T08:42:05.032Z</time></trkpt><trkpt lat="45.4516977" lon="10.4849123"><ele>156.0</ele><time>2026-03-28T08:42:06.032Z</time></trkpt><trkpt lat="45.4515797" lon="10.4848538"><ele>156.0</ele><time>2026-03-28T08:42:07.032Z</time></trkpt><trkpt lat="45.4514588" lon="10.4847947"><ele>156.0</ele><time>2026-03-28T08:42:08.033Z</time></trkpt><trkpt lat="45.451341" lon="10.4847462"><ele>156.0</ele><time>2026-03-28T08:42:09.033Z</time></trkpt><trkpt lat="45.4512202" lon="10.48471"><ele>156.5</ele><time>2026-03-28T08:42:10.034Z</time></trkpt><trkpt lat="45.451102" lon="10.484684"><ele>157.0</ele><time>2026-03-28T08:42:11.033Z</time></trkpt><trkpt lat="45.4509822" lon="10.4846625"><ele>157.5</ele><time>2026-03-28T08:42:12.036Z</time></trkpt><trkpt lat="45.450865" lon="10.4846455"><ele>158.0</ele><time>2026-03-28T08:42:13.033Z</time></trkpt><trkpt lat="45.4507558" lon="10.4846267"><ele>156.20000000000002</ele><time>2026-03-28T08:42:14.033Z</time></trkpt><trkpt lat="45.4506515" lon="10.4845955"><ele>154.4</ele><time>2026-03-28T08:42:15.032Z</time></trkpt><trkpt lat="45.4505515" lon="10.4845515"><ele>152.60000000000002</ele><time>2026-03-28T08:42:16.033Z</time></trkpt><trkpt lat="45.4504543" lon="10.4845082"><ele>150.8</ele><time>2026-03-28T08:42:17.034Z</time></trkpt><trkpt lat="45.45036" lon="10.484476"><ele>149.0</ele><time>2026-03-28T08:42:18.032Z</time></trkpt><trkpt lat="45.4502685" lon="10.4844553"><ele>148.8</ele><time>2026-03-28T08:42:19.032Z</time></trkpt><trkpt lat="45.4501813" lon="10.4844393"><ele>148.60000000000002</ele><time>2026-03-28T08:42:20.031Z</time></trkpt><trkpt lat="45.4500985" lon="10.4844245"><ele>148.4</ele><time>2026-03-28T08:42:21.031Z</time></trkpt><trkpt lat="45.450013" lon="10.4844093"><ele>148.20000000000002</ele><time>2026-03-28T08:42:22.034Z</time></trkpt><trkpt lat="45.4499165" lon="10.4843982"><ele>148.0</ele><time>2026-03-28T08:42:23.032Z</time></trkpt><trkpt lat="45.4498133" lon="10.4843985"><ele>148.0</ele><time>2026-03-28T08:42:24.031Z</time></trkpt><trkpt lat="45.4497067" lon="10.484415"><ele>148.0</ele><time>2026-03-28T08:42:25.033Z</time></trkpt><trkpt lat="45.4495962" lon="10.484433"><ele>148.0</ele><time>2026-03-28T08:42:26.031Z</time></trkpt><trkpt lat="45.4494795" lon="10.4844452"><ele>148.0</ele><time>2026-03-28T08:42:27.034Z</time></trkpt><trkpt lat="45.4493587" lon="10.4844537"><ele>147.5</ele><time>2026-03-28T08:42:28.035Z</time></trkpt><trkpt lat="45.449237" lon="10.4844593"><ele>147.0</ele><time>2026-03-28T08:42:29.031Z</time></trkpt><trkpt lat="45.44912" lon="10.4844595"><ele>146.5</ele><time>2026-03-28T08:42:30.032Z</time></trkpt><trkpt lat="45.4490033" lon="10.4844553"><ele>146.0</ele><time>2026-03-28T08:42:31.034Z</time></trkpt><trkpt lat="45.4488898" lon="10.4844543"><ele>146.25</ele><time>2026-03-28T08:42:32.033Z</time></trkpt><trkpt lat="45.4487778" lon="10.4844628"><ele>146.5</ele><time>2026-03-28T08:42:33.031Z</time></trkpt><trkpt lat="45.4486532" lon="10.48447"><ele>146.75</ele><time>2026-03-28T08:42:34.033Z</time></trkpt><trkpt lat="45.4485193" lon="10.4844663"><ele>147.0</ele><time>2026-03-28T08:42:35.033Z</time></trkpt><trkpt lat="45.4483715" lon="10.4844567"><ele>147.0</ele><time>2026-03-28T08:42:36.031Z</time></trkpt><trkpt lat="45.4482328" lon="10.4844472"><ele>147.0</ele><time>2026-03-28T08:42:37.032Z</time></trkpt><trkpt lat="45.4481012" lon="10.4844383"><ele>147.0</ele><time>2026-03-28T08:42:38.032Z</time></trkpt><trkpt lat="45.4479902" lon="10.4844272"><ele>147.0</ele><time>2026-03-28T08:42:39.032Z</time></trkpt><trkpt lat="45.4479033" lon="10.4844112"><ele>147.79999999999998</ele><time>2026-03-28T08:42:40.034Z</time></trkpt><trkpt lat="45.4477967" lon="10.4843375"><ele>148.6</ele><time>2026-03-28T08:42:42.032Z</time></trkpt><trkpt lat="45.4476908" lon="10.4842457"><ele>149.39999999999998</ele><time>2026-03-28T08:42:44.029Z</time></trkpt><trkpt lat="45.4476355" lon="10.4841838"><ele>150.2</ele><time>2026-03-28T08:42:45.03Z</time></trkpt><trkpt lat="45.4475808" lon="10.4841125"><ele>151.0</ele><time>2026-03-28T08:42:46.032Z</time></trkpt><trkpt lat="45.4475205" lon="10.4840397"><ele>151.0</ele><time>2026-03-28T08:42:47.033Z</time></trkpt><trkpt lat="45.4474438" lon="10.483975"><ele>151.0</ele><time>2026-03-28T08:42:48.032Z</time></trkpt><trkpt lat="45.4473482" lon="10.483926"><ele>151.0</ele><time>2026-03-28T08:42:49.033Z</time></trkpt><trkpt lat="45.447242" lon="10.4838875"><ele>151.0</ele><time>2026-03-28T08:42:50.035Z</time></trkpt><trkpt lat="45.4471323" lon="10.4838513"><ele>151.0</ele><time>2026-03-28T08:42:51.034Z</time></trkpt><trkpt lat="45.4470012" lon="10.483819"><ele>151.66666666666669</ele><time>2026-03-28T08:42:52.035Z</time></trkpt><trkpt lat="45.4468498" lon="10.4837873"><ele>152.33333333333334</ele><time>2026-03-28T08:42:53.034Z</time></trkpt><trkpt lat="45.4467007" lon="10.4837585"><ele>153.0</ele><time>2026-03-28T08:42:54.032Z</time></trkpt><trkpt lat="45.4465423" lon="10.4837252"><ele>150.0</ele><time>2026-03-28T08:42:55.033Z</time></trkpt><trkpt lat="45.4463623" lon="10.4836902"><ele>147.0</ele><time>2026-03-28T08:42:56.034Z</time></trkpt><trkpt lat="45.4461583" lon="10.4836523"><ele>144.0</ele><time>2026-03-28T08:42:57.032Z</time></trkpt><trkpt lat="45.4459527" lon="10.4836143"><ele>144.0</ele><time>2026-03-28T08:42:58.035Z</time></trkpt><trkpt lat="45.4457615" lon="10.4835743"><ele>144.0</ele><time>2026-03-28T08:42:59.033Z</time></trkpt><trkpt lat="45.4455818" lon="10.4835352"><ele>144.0</ele><time>2026-03-28T08:43:00.035Z</time></trkpt><trkpt lat="45.4454082" lon="10.4835"><ele>144.0</ele><time>2026-03-28T08:43:01.035Z</time></trkpt><trkpt lat="45.4452368" lon="10.4834642"><ele>144.0</ele><time>2026-03-28T08:43:02.036Z</time></trkpt><trkpt lat="45.445073" lon="10.4834247"><ele>144.0</ele><time>2026-03-28T08:43:03.034Z</time></trkpt><trkpt lat="45.4449098" lon="10.4833802"><ele>144.0</ele><time>2026-03-28T08:43:04.033Z</time></trkpt><trkpt lat="45.4447487" lon="10.483343"><ele>144.0</ele><time>2026-03-28T08:43:05.034Z</time></trkpt><trkpt lat="45.4445865" lon="10.4833202"><ele>144.0</ele><time>2026-03-28T08:43:06.033Z</time></trkpt><trkpt lat="45.4444292" lon="10.4833025"><ele>144.0</ele><time>2026-03-28T08:43:07.032Z</time></trkpt><trkpt lat="45.4442775" lon="10.4832803"><ele>144.0</ele><time>2026-03-28T08:43:08.031Z</time></trkpt><trkpt lat="45.444125" lon="10.4832495"><ele>144.0</ele><time>2026-03-28T08:43:09.031Z</time></trkpt><trkpt lat="45.443972" lon="10.4832075"><ele>144.0</ele><time>2026-03-28T08:43:10.033Z</time></trkpt><trkpt lat="45.443822" lon="10.4831597"><ele>144.0</ele><time>2026-03-28T08:43:11.035Z</time></trkpt><trkpt lat="45.4436768" lon="10.4831193"><ele>144.0</ele><time>2026-03-28T08:43:12.034Z</time></trkpt><trkpt lat="45.4435293" lon="10.4830907"><ele>144.33333333333334</ele><time>2026-03-28T08:43:13.032Z</time></trkpt><trkpt lat="45.4433772" lon="10.4830665"><ele>144.66666666666669</ele><time>2026-03-28T08:43:14.033Z</time></trkpt><trkpt lat="45.4432242" lon="10.4830363"><ele>145.0</ele><time>2026-03-28T08:43:15.033Z</time></trkpt><trkpt lat="45.4430795" lon="10.4830013"><ele>145.25</ele><time>2026-03-28T08:43:16.034Z</time></trkpt><trkpt lat="45.4429432" lon="10.4829628"><ele>145.5</ele><time>2026-03-28T08:43:17.032Z</time></trkpt><trkpt lat="45.4428107" lon="10.4829118"><ele>145.75</ele><time>2026-03-28T08:43:18.032Z</time></trkpt><trkpt lat="45.4426892" lon="10.4828463"><ele>146.0</ele><time>2026-03-28T08:43:19.032Z</time></trkpt><trkpt lat="45.4425568" lon="10.4827528"><ele>144.33333333333331</ele><time>2026-03-28T08:43:20.033Z</time></trkpt><trkpt lat="45.4424223" lon="10.4826477"><ele>142.66666666666666</ele><time>2026-03-28T08:43:21.036Z</time></trkpt><trkpt lat="45.4422822" lon="10.4825375"><ele>141.0</ele><time>2026-03-28T08:43:22.035Z</time></trkpt><trkpt lat="45.4421487" lon="10.4824363"><ele>141.0</ele><time>2026-03-28T08:43:23.037Z</time></trkpt><trkpt lat="45.4420185" lon="10.482344"><ele>141.0</ele><time>2026-03-28T08:43:24.036Z</time></trkpt><trkpt lat="45.4418878" lon="10.4822472"><ele>141.0</ele><time>2026-03-28T08:43:25.034Z</time></trkpt><trkpt lat="45.4417557" lon="10.4821447"><ele>141.0</ele><time>2026-03-28T08:43:26.034Z</time></trkpt><trkpt lat="45.4416228" lon="10.4820395"><ele>140.0</ele><time>2026-03-28T08:43:27.035Z</time></trkpt><trkpt lat="45.4414835" lon="10.4819358"><ele>139.0</ele><time>2026-03-28T08:43:28.036Z</time></trkpt><trkpt lat="45.4413428" lon="10.4818333"><ele>138.0</ele><time>2026-03-28T08:43:29.035Z</time></trkpt><trkpt lat="45.4412023" lon="10.4817292"><ele>138.0</ele><time>2026-03-28T08:43:30.033Z</time></trkpt><trkpt lat="45.4410647" lon="10.481629"><ele>138.0</ele><time>2026-03-28T08:43:31.033Z</time></trkpt><trkpt lat="45.4409337" lon="10.481531"><ele>138.0</ele><time>2026-03-28T08:43:32.033Z</time></trkpt><trkpt lat="45.4408052" lon="10.4814365"><ele>138.0</ele><time>2026-03-28T08:43:33.032Z</time></trkpt><trkpt lat="45.440677" lon="10.4813383"><ele>137.5</ele><time>2026-03-28T08:43:34.032Z</time></trkpt><trkpt lat="45.4405547" lon="10.4812442"><ele>137.0</ele><time>2026-03-28T08:43:35.033Z</time></trkpt><trkpt lat="45.4404333" lon="10.481168"><ele>136.5</ele><time>2026-03-28T08:43:36.034Z</time></trkpt><trkpt lat="45.440292" lon="10.4810962"><ele>136.0</ele><time>2026-03-28T08:43:37.036Z</time></trkpt><trkpt lat="45.4401345" lon="10.4810305"><ele>135.33333333333334</ele><time>2026-03-28T08:43:38.034Z</time></trkpt><trkpt lat="45.4399795" lon="10.4809767"><ele>134.66666666666666</ele><time>2026-03-28T08:43:39.034Z</time></trkpt><trkpt lat="45.43981" lon="10.4809265"><ele>134.0</ele><time>2026-03-28T08:43:40.037Z</time></trkpt><trkpt lat="45.4396373" lon="10.4808817"><ele>134.33333333333331</ele><time>2026-03-28T08:43:41.036Z</time></trkpt><trkpt lat="45.4394762" lon="10.4808378"><ele>134.66666666666666</ele><time>2026-03-28T08:43:42.036Z</time></trkpt><trkpt lat="45.4393212" lon="10.4807923"><ele>135.0</ele><time>2026-03-28T08:43:43.036Z</time></trkpt><trkpt lat="45.4391642" lon="10.4807448"><ele>135.0</ele><time>2026-03-28T08:43:44.037Z</time></trkpt><trkpt lat="45.4390132" lon="10.4807027"><ele>135.0</ele><time>2026-03-28T08:43:45.039Z</time></trkpt><trkpt lat="45.4388717" lon="10.4806637"><ele>135.0</ele><time>2026-03-28T08:43:46.035Z</time></trkpt><trkpt lat="45.4387392" lon="10.4806278"><ele>135.0</ele><time>2026-03-28T08:43:47.035Z</time></trkpt><trkpt lat="45.4386268" lon="10.4805992"><ele>134.6</ele><time>2026-03-28T08:43:48.034Z</time></trkpt><trkpt lat="45.4385362" lon="10.4805743"><ele>134.2</ele><time>2026-03-28T08:43:49.034Z</time></trkpt><trkpt lat="45.4384552" lon="10.480547"><ele>133.8</ele><time>2026-03-28T08:43:50.034Z</time></trkpt><trkpt lat="45.4383597" lon="10.4805163"><ele>133.4</ele><time>2026-03-28T08:43:51.033Z</time></trkpt><trkpt lat="45.4382413" lon="10.4804832"><ele>133.0</ele><time>2026-03-28T08:43:52.037Z</time></trkpt><trkpt lat="45.43811" lon="10.4804557"><ele>132.33333333333334</ele><time>2026-03-28T08:43:53.036Z</time></trkpt><trkpt lat="45.4379673" lon="10.4804388"><ele>131.66666666666666</ele><time>2026-03-28T08:43:54.036Z</time></trkpt><trkpt lat="45.4378018" lon="10.4804302"><ele>131.0</ele><time>2026-03-28T08:43:55.035Z</time></trkpt><trkpt lat="45.437631" lon="10.4804272"><ele>131.0</ele><time>2026-03-28T08:43:56.032Z</time></trkpt><trkpt lat="45.4374575" lon="10.4804307"><ele>131.0</ele><time>2026-03-28T08:43:57.032Z</time></trkpt><trkpt lat="45.4372777" lon="10.4804337"><ele>131.0</ele><time>2026-03-28T08:43:58.034Z</time></trkpt><trkpt lat="45.4370977" lon="10.480435"><ele>131.0</ele><time>2026-03-28T08:43:59.034Z</time></trkpt><trkpt lat="45.436923" lon="10.4804368"><ele>131.0</ele><time>2026-03-28T08:44:00.035Z</time></trkpt><trkpt lat="45.4367557" lon="10.4804438"><ele>131.0</ele><time>2026-03-28T08:44:01.034Z</time></trkpt><trkpt lat="45.4365855" lon="10.4804692"><ele>131.0</ele><time>2026-03-28T08:44:02.038Z</time></trkpt><trkpt lat="45.4364062" lon="10.480523"><ele>131.0</ele><time>2026-03-28T08:44:03.035Z</time></trkpt><trkpt lat="45.4362235" lon="10.4805995"><ele>131.0</ele><time>2026-03-28T08:44:04.034Z</time></trkpt><trkpt lat="45.4360382" lon="10.4806897"><ele>131.0</ele><time>2026-03-28T08:44:05.036Z</time></trkpt><trkpt lat="45.435858" lon="10.4807812"><ele>131.0</ele><time>2026-03-28T08:44:06.034Z</time></trkpt><trkpt lat="45.4356898" lon="10.48087"><ele>131.0</ele><time>2026-03-28T08:44:07.035Z</time></trkpt><trkpt lat="45.4355257" lon="10.4809558"><ele>130.66666666666666</ele><time>2026-03-28T08:44:08.034Z</time></trkpt><trkpt lat="45.4353595" lon="10.4810427"><ele>130.33333333333334</ele><time>2026-03-28T08:44:09.034Z</time></trkpt><trkpt lat="45.4351892" lon="10.481127"><ele>130.0</ele><time>2026-03-28T08:44:10.038Z</time></trkpt><trkpt lat="45.435017" lon="10.4812042"><ele>130.33333333333334</ele><time>2026-03-28T08:44:11.036Z</time></trkpt><trkpt lat="45.4348527" lon="10.4812673"><ele>130.66666666666666</ele><time>2026-03-28T08:44:12.037Z</time></trkpt><trkpt lat="45.4346953" lon="10.481316"><ele>131.0</ele><time>2026-03-28T08:44:13.036Z</time></trkpt><trkpt lat="45.4345388" lon="10.4813507"><ele>131.0</ele><time>2026-03-28T08:44:14.037Z</time></trkpt><trkpt lat="45.4343828" lon="10.4813772"><ele>131.0</ele><time>2026-03-28T08:44:15.037Z</time></trkpt><trkpt lat="45.4342238" lon="10.4813968"><ele>131.0</ele><time>2026-03-28T08:44:16.037Z</time></trkpt><trkpt lat="45.4340593" lon="10.4814063"><ele>131.0</ele><time>2026-03-28T08:44:17.037Z</time></trkpt><trkpt lat="45.4338928" lon="10.4813932"><ele>131.0</ele><time>2026-03-28T08:44:18.034Z</time></trkpt><trkpt lat="45.433726" lon="10.4813555"><ele>131.0</ele><time>2026-03-28T08:44:19.035Z</time></trkpt><trkpt lat="45.4335565" lon="10.481295"><ele>130.33333333333331</ele><time>2026-03-28T08:44:20.033Z</time></trkpt><trkpt lat="45.433386" lon="10.4812192"><ele>129.66666666666666</ele><time>2026-03-28T08:44:21.035Z</time></trkpt><trkpt lat="45.433211" lon="10.4811327"><ele>129.0</ele><time>2026-03-28T08:44:22.034Z</time></trkpt><trkpt lat="45.433033" lon="10.481037"><ele>130.0</ele><time>2026-03-28T08:44:23.033Z</time></trkpt><trkpt lat="45.4328555" lon="10.4809385"><ele>131.0</ele><time>2026-03-28T08:44:24.035Z</time></trkpt><trkpt lat="45.432676" lon="10.4808407"><ele>132.0</ele><time>2026-03-28T08:44:25.036Z</time></trkpt><trkpt lat="45.4324913" lon="10.4807393"><ele>132.0</ele><time>2026-03-28T08:44:26.035Z</time></trkpt><trkpt lat="45.432306" lon="10.4806393"><ele>132.0</ele><time>2026-03-28T08:44:27.035Z</time></trkpt><trkpt lat="45.4321185" lon="10.4805457"><ele>132.0</ele><time>2026-03-28T08:44:28.034Z</time></trkpt><trkpt lat="45.4319247" lon="10.4804583"><ele>131.0</ele><time>2026-03-28T08:44:29.036Z</time></trkpt><trkpt lat="45.43173" lon="10.480382"><ele>130.0</ele><time>2026-03-28T08:44:30.033Z</time></trkpt><trkpt lat="45.4315387" lon="10.4803217"><ele>129.0</ele><time>2026-03-28T08:44:31.034Z</time></trkpt><trkpt lat="45.4313538" lon="10.4802755"><ele>129.0</ele><time>2026-03-28T08:44:32.036Z</time></trkpt><trkpt lat="45.4311785" lon="10.4802325"><ele>129.0</ele><time>2026-03-28T08:44:33.036Z</time></trkpt><trkpt lat="45.4310113" lon="10.480193"><ele>129.0</ele><time>2026-03-28T08:44:34.035Z</time></trkpt><trkpt lat="45.430853" lon="10.480151"><ele>129.0</ele><time>2026-03-28T08:44:35.037Z</time></trkpt><trkpt lat="45.4306993" lon="10.4801052"><ele>129.0</ele><time>2026-03-28T08:44:36.037Z</time></trkpt><trkpt lat="45.43054" lon="10.4800588"><ele>129.0</ele><time>2026-03-28T08:44:37.036Z</time></trkpt><trkpt lat="45.4303693" lon="10.4800127"><ele>129.66666666666666</ele><time>2026-03-28T08:44:38.036Z</time></trkpt><trkpt lat="45.43019" lon="10.4799642"><ele>130.33333333333331</ele><time>2026-03-28T08:44:39.033Z</time></trkpt><trkpt lat="45.4300032" lon="10.4799128"><ele>131.0</ele><time>2026-03-28T08:44:40.034Z</time></trkpt><trkpt lat="45.429808" lon="10.4798622"><ele>130.0</ele><time>2026-03-28T08:44:41.036Z</time></trkpt><trkpt lat="45.4296118" lon="10.479811"><ele>129.0</ele><time>2026-03-28T08:44:42.037Z</time></trkpt><trkpt lat="45.4294217" lon="10.4797707"><ele>128.0</ele><time>2026-03-28T08:44:43.036Z</time></trkpt><trkpt lat="45.4292387" lon="10.4797483"><ele>128.0</ele><time>2026-03-28T08:44:44.035Z</time></trkpt><trkpt lat="45.4290638" lon="10.4797393"><ele>128.0</ele><time>2026-03-28T08:44:45.032Z</time></trkpt><trkpt lat="45.428896" lon="10.4797372"><ele>128.0</ele><time>2026-03-28T08:44:46.034Z</time></trkpt><trkpt lat="45.4287355" lon="10.4797387"><ele>127.0</ele><time>2026-03-28T08:44:47.033Z</time></trkpt><trkpt lat="45.4285782" lon="10.47974"><ele>126.0</ele><time>2026-03-28T08:44:48.033Z</time></trkpt><trkpt lat="45.4284233" lon="10.4797407"><ele>125.0</ele><time>2026-03-28T08:44:49.039Z</time></trkpt><trkpt lat="45.4282745" lon="10.4797427"><ele>125.0</ele><time>2026-03-28T08:44:50.036Z</time></trkpt><trkpt lat="45.4281272" lon="10.4797475"><ele>125.0</ele><time>2026-03-28T08:44:51.036Z</time></trkpt><trkpt lat="45.4279757" lon="10.479753"><ele>125.0</ele><time>2026-03-28T08:44:52.037Z</time></trkpt><trkpt lat="45.4278178" lon="10.4797557"><ele>125.33333333333333</ele><time>2026-03-28T08:44:53.039Z</time></trkpt><trkpt lat="45.4276497" lon="10.4797533"><ele>125.66666666666666</ele><time>2026-03-28T08:44:54.037Z</time></trkpt><trkpt lat="45.4274737" lon="10.4797458"><ele>126.0</ele><time>2026-03-28T08:44:55.039Z</time></trkpt><trkpt lat="45.4272968" lon="10.4797282"><ele>126.0</ele><time>2026-03-28T08:44:56.038Z</time></trkpt><trkpt lat="45.4271245" lon="10.4797003"><ele>126.0</ele><time>2026-03-28T08:44:57.036Z</time></trkpt><trkpt lat="45.4269613" lon="10.4796632"><ele>126.0</ele><time>2026-03-28T08:44:58.036Z</time></trkpt><trkpt lat="45.426807" lon="10.479619"><ele>125.5</ele><time>2026-03-28T08:44:59.036Z</time></trkpt><trkpt lat="45.426661" lon="10.4795717"><ele>125.0</ele><time>2026-03-28T08:45:00.038Z</time></trkpt><trkpt lat="45.4265188" lon="10.4795253"><ele>124.5</ele><time>2026-03-28T08:45:01.036Z</time></trkpt><trkpt lat="45.4263758" lon="10.4794792"><ele>124.0</ele><time>2026-03-28T08:45:02.036Z</time></trkpt><trkpt lat="45.4262312" lon="10.4794315"><ele>124.0</ele><time>2026-03-28T08:45:03.035Z</time></trkpt><trkpt lat="45.4260883" lon="10.4793855"><ele>124.0</ele><time>2026-03-28T08:45:04.036Z</time></trkpt><trkpt lat="45.425951" lon="10.479341"><ele>124.0</ele><time>2026-03-28T08:45:05.035Z</time></trkpt><trkpt lat="45.42582" lon="10.4792977"><ele>124.0</ele><time>2026-03-28T08:45:06.035Z</time></trkpt><trkpt lat="45.4256938" lon="10.4792553"><ele>124.0</ele><time>2026-03-28T08:45:07.035Z</time></trkpt><trkpt lat="45.4255662" lon="10.4792117"><ele>124.0</ele><time>2026-03-28T08:45:08.036Z</time></trkpt><trkpt lat="45.4254362" lon="10.4791645"><ele>124.0</ele><time>2026-03-28T08:45:09.032Z</time></trkpt><trkpt lat="45.4253068" lon="10.4791183"><ele>124.0</ele><time>2026-03-28T08:45:10.032Z</time></trkpt><trkpt lat="45.425179" lon="10.4790738"><ele>124.0</ele><time>2026-03-28T08:45:11.031Z</time></trkpt><trkpt lat="45.4250478" lon="10.479029"><ele>124.0</ele><time>2026-03-28T08:45:12.033Z</time></trkpt><trkpt lat="45.4249123" lon="10.4789803"><ele>124.0</ele><time>2026-03-28T08:45:13.034Z</time></trkpt><trkpt lat="45.4247723" lon="10.4789272"><ele>124.0</ele><time>2026-03-28T08:45:14.035Z</time></trkpt><trkpt lat="45.424629" lon="10.4788712"><ele>124.0</ele><time>2026-03-28T08:45:15.035Z</time></trkpt><trkpt lat="45.424487" lon="10.478814"><ele>124.0</ele><time>2026-03-28T08:45:16.036Z</time></trkpt><trkpt lat="45.4243488" lon="10.4787608"><ele>124.0</ele><time>2026-03-28T08:45:17.035Z</time></trkpt><trkpt lat="45.4242178" lon="10.478712"><ele>124.0</ele><time>2026-03-28T08:45:18.033Z</time></trkpt><trkpt lat="45.424097" lon="10.4786683"><ele>123.75</ele><time>2026-03-28T08:45:19.034Z</time></trkpt><trkpt lat="45.4239807" lon="10.478627"><ele>123.5</ele><time>2026-03-28T08:45:20.032Z</time></trkpt><trkpt lat="45.4238708" lon="10.4785865"><ele>123.25</ele><time>2026-03-28T08:45:21.033Z</time></trkpt><trkpt lat="45.4237632" lon="10.4785418"><ele>123.0</ele><time>2026-03-28T08:45:22.038Z</time></trkpt><trkpt lat="45.423655" lon="10.4784962"><ele>123.0</ele><time>2026-03-28T08:45:23.036Z</time></trkpt><trkpt lat="45.4235355" lon="10.4784448"><ele>123.0</ele><time>2026-03-28T08:45:24.033Z</time></trkpt><trkpt lat="45.4234063" lon="10.4783927"><ele>123.0</ele><time>2026-03-28T08:45:25.033Z</time></trkpt><trkpt lat="45.4232703" lon="10.478335"><ele>123.0</ele><time>2026-03-28T08:45:26.033Z</time></trkpt><trkpt lat="45.423127" lon="10.4782625"><ele>123.0</ele><time>2026-03-28T08:45:27.033Z</time></trkpt><trkpt lat="45.4229897" lon="10.4781832"><ele>123.0</ele><time>2026-03-28T08:45:28.032Z</time></trkpt><trkpt lat="45.4228578" lon="10.4781043"><ele>123.0</ele><time>2026-03-28T08:45:29.032Z</time></trkpt><trkpt lat="45.4227208" lon="10.4780255"><ele>123.0</ele><time>2026-03-28T08:45:30.031Z</time></trkpt><trkpt lat="45.4225813" lon="10.4779473"><ele>122.0</ele><time>2026-03-28T08:45:31.031Z</time></trkpt><trkpt lat="45.4224423" lon="10.4778685"><ele>121.0</ele><time>2026-03-28T08:45:32.031Z</time></trkpt><trkpt lat="45.4223047" lon="10.477791"><ele>120.0</ele><time>2026-03-28T08:45:33.032Z</time></trkpt><trkpt lat="45.4221687" lon="10.4777118"><ele>119.0</ele><time>2026-03-28T08:45:34.029Z</time></trkpt><trkpt lat="45.4220333" lon="10.477637"><ele>119.0</ele><time>2026-03-28T08:45:35.031Z</time></trkpt><trkpt lat="45.4218983" lon="10.4775597"><ele>119.0</ele><time>2026-03-28T08:45:36.031Z</time></trkpt><trkpt lat="45.421754" lon="10.4774797"><ele>119.0</ele><time>2026-03-28T08:45:37.032Z</time></trkpt><trkpt lat="45.4215915" lon="10.4774013"><ele>119.0</ele><time>2026-03-28T08:45:38.035Z</time></trkpt><trkpt lat="45.4214185" lon="10.4773343"><ele>119.0</ele><time>2026-03-28T08:45:39.034Z</time></trkpt><trkpt lat="45.4212435" lon="10.4772785"><ele>119.0</ele><time>2026-03-28T08:45:40.035Z</time></trkpt><trkpt lat="45.4210682" lon="10.47723"><ele>119.66666666666666</ele><time>2026-03-28T08:45:41.034Z</time></trkpt><trkpt lat="45.4208965" lon="10.4771835"><ele>120.33333333333334</ele><time>2026-03-28T08:45:42.033Z</time></trkpt><trkpt lat="45.4207252" lon="10.4771392"><ele>121.0</ele><time>2026-03-28T08:45:43.035Z</time></trkpt><trkpt lat="45.4205532" lon="10.4770902"><ele>119.0</ele><time>2026-03-28T08:45:44.035Z</time></trkpt><trkpt lat="45.4203857" lon="10.477048"><ele>117.0</ele><time>2026-03-28T08:45:45.036Z</time></trkpt><trkpt lat="45.4202175" lon="10.4770053"><ele>115.0</ele><time>2026-03-28T08:45:46.036Z</time></trkpt><trkpt lat="45.42005" lon="10.4769608"><ele>115.0</ele><time>2026-03-28T08:45:47.034Z</time></trkpt><trkpt lat="45.4198893" lon="10.4769187"><ele>115.0</ele><time>2026-03-28T08:45:48.035Z</time></trkpt><trkpt lat="45.4197403" lon="10.476881"><ele>115.0</ele><time>2026-03-28T08:45:49.033Z</time></trkpt><trkpt lat="45.4196047" lon="10.4768442"><ele>115.4</ele><time>2026-03-28T08:45:50.034Z</time></trkpt><trkpt lat="45.4194845" lon="10.4768152"><ele>115.8</ele><time>2026-03-28T08:45:51.033Z</time></trkpt><trkpt lat="45.4193767" lon="10.4767897"><ele>116.19999999999999</ele><time>2026-03-28T08:45:52.034Z</time></trkpt><trkpt lat="45.4192762" lon="10.4767653"><ele>116.6</ele><time>2026-03-28T08:45:53.036Z</time></trkpt><trkpt lat="45.4191842" lon="10.4767398"><ele>117.0</ele><time>2026-03-28T08:45:54.034Z</time></trkpt><trkpt lat="45.4190988" lon="10.4767185"><ele>117.0</ele><time>2026-03-28T08:45:55.036Z</time></trkpt><trkpt lat="45.419017" lon="10.4767"><ele>116.99999999999999</ele><time>2026-03-28T08:45:56.035Z</time></trkpt><trkpt lat="45.4189425" lon="10.4766832"><ele>116.99999999999999</ele><time>2026-03-28T08:45:57.035Z</time></trkpt><trkpt lat="45.4188187" lon="10.4766585"><ele>117.0</ele><time>2026-03-28T08:45:59.033Z</time></trkpt><trkpt lat="45.418706" lon="10.4766938"><ele>117.0</ele><time>2026-03-28T08:46:01.031Z</time></trkpt><trkpt lat="45.4186773" lon="10.4768598"><ele>116.6</ele><time>2026-03-28T08:46:03.035Z</time></trkpt><trkpt lat="45.4186752" lon="10.4769732"><ele>116.19999999999999</ele><time>2026-03-28T08:46:04.033Z</time></trkpt><trkpt lat="45.4186523" lon="10.47709"><ele>115.8</ele><time>2026-03-28T08:46:05.035Z</time></trkpt><trkpt lat="45.4186008" lon="10.4772118"><ele>115.4</ele><time>2026-03-28T08:46:06.033Z</time></trkpt><trkpt lat="45.418536" lon="10.4773413"><ele>115.0</ele><time>2026-03-28T08:46:07.032Z</time></trkpt><trkpt lat="45.4184618" lon="10.4774687"><ele>116.25</ele><time>2026-03-28T08:46:08.033Z</time></trkpt><trkpt lat="45.4183797" lon="10.4776002"><ele>117.5</ele><time>2026-03-28T08:46:09.031Z</time></trkpt><trkpt lat="45.418298" lon="10.477718"><ele>118.75</ele><time>2026-03-28T08:46:10.035Z</time></trkpt><trkpt lat="45.4182215" lon="10.4778525"><ele>120.0</ele><time>2026-03-28T08:46:11.032Z</time></trkpt><trkpt lat="45.4181583" lon="10.4780105"><ele>119.5</ele><time>2026-03-28T08:46:12.033Z</time></trkpt><trkpt lat="45.4181052" lon="10.4781845"><ele>119.0</ele><time>2026-03-28T08:46:13.032Z</time></trkpt><trkpt lat="45.4180612" lon="10.4783525"><ele>118.5</ele><time>2026-03-28T08:46:14.033Z</time></trkpt><trkpt lat="45.4180213" lon="10.4785138"><ele>118.0</ele><time>2026-03-28T08:46:15.032Z</time></trkpt><trkpt lat="45.4179832" lon="10.4786673"><ele>119.0</ele><time>2026-03-28T08:46:16.033Z</time></trkpt><trkpt lat="45.4179478" lon="10.4788115"><ele>120.00000000000001</ele><time>2026-03-28T08:46:17.032Z</time></trkpt><trkpt lat="45.417915" lon="10.478949"><ele>121.00000000000001</ele><time>2026-03-28T08:46:18.033Z</time></trkpt><trkpt lat="45.417888" lon="10.4790917"><ele>122.0</ele><time>2026-03-28T08:46:19.032Z</time></trkpt><trkpt lat="45.4178793" lon="10.4792322"><ele>123.0</ele><time>2026-03-28T08:46:20.033Z</time></trkpt><trkpt lat="45.4178997" lon="10.4793733"><ele>123.0</ele><time>2026-03-28T08:46:21.032Z</time></trkpt><trkpt lat="45.4179438" lon="10.479521"><ele>123.0</ele><time>2026-03-28T08:46:22.033Z</time></trkpt><trkpt lat="45.417999" lon="10.4796753"><ele>123.0</ele><time>2026-03-28T08:46:23.031Z</time></trkpt><trkpt lat="45.418051" lon="10.4798247"><ele>123.0</ele><time>2026-03-28T08:46:24.031Z</time></trkpt><trkpt lat="45.4181013" lon="10.479985"><ele>124.0</ele><time>2026-03-28T08:46:25.033Z</time></trkpt><trkpt lat="45.4181488" lon="10.4801523"><ele>125.0</ele><time>2026-03-28T08:46:26.032Z</time></trkpt><trkpt lat="45.4181932" lon="10.4803122"><ele>126.0</ele><time>2026-03-28T08:46:27.035Z</time></trkpt><trkpt lat="45.4182385" lon="10.4804587"><ele>127.0</ele><time>2026-03-28T08:46:28.036Z</time></trkpt><trkpt lat="45.4182923" lon="10.4805857"><ele>127.0</ele><time>2026-03-28T08:46:29.033Z</time></trkpt><trkpt lat="45.4183552" lon="10.4806932"><ele>126.99999999999999</ele><time>2026-03-28T08:46:30.031Z</time></trkpt><trkpt lat="45.4184248" lon="10.4807813"><ele>126.99999999999999</ele><time>2026-03-28T08:46:31.032Z</time></trkpt><trkpt lat="45.4184992" lon="10.4808618"><ele>127.0</ele><time>2026-03-28T08:46:32.032Z</time></trkpt><trkpt lat="45.4185688" lon="10.4809367"><ele>127.0</ele><time>2026-03-28T08:46:33.03Z</time></trkpt><trkpt lat="45.41863" lon="10.481005"><ele>127.00000000000001</ele><time>2026-03-28T08:46:34.031Z</time></trkpt><trkpt lat="45.4186815" lon="10.4810735"><ele>127.0</ele><time>2026-03-28T08:46:35.032Z</time></trkpt><trkpt lat="45.4187253" lon="10.481163"><ele>127.0</ele><time>2026-03-28T08:46:36.031Z</time></trkpt><trkpt lat="45.4187445" lon="10.4812803"><ele>127.0</ele><time>2026-03-28T08:46:37.033Z</time></trkpt><trkpt lat="45.4187415" lon="10.4813888"><ele>127.00000000000001</ele><time>2026-03-28T08:46:38.033Z</time></trkpt><trkpt lat="45.4187253" lon="10.4814777"><ele>127.0</ele><time>2026-03-28T08:46:39.031Z</time></trkpt><trkpt lat="45.41869" lon="10.4816158"><ele>127.00000000000001</ele><time>2026-03-28T08:46:41.034Z</time></trkpt><trkpt lat="45.4186655" lon="10.4817058"><ele>127.0</ele><time>2026-03-28T08:46:43.036Z</time></trkpt><trkpt lat="45.4186622" lon="10.4818453"><ele>127.0</ele><time>2026-03-28T08:46:46.033Z</time></trkpt><trkpt lat="45.4187325" lon="10.4819307"><ele>127.0</ele><time>2026-03-28T08:46:48.032Z</time></trkpt><trkpt lat="45.4187818" lon="10.4820537"><ele>127.00000000000001</ele><time>2026-03-28T08:46:50.03Z</time></trkpt><trkpt lat="45.4188012" lon="10.4821697"><ele>127.0</ele><time>2026-03-28T08:46:51.032Z</time></trkpt><trkpt lat="45.4188077" lon="10.4823303"><ele>127.0</ele><time>2026-03-28T08:46:52.033Z</time></trkpt><trkpt lat="45.418804" lon="10.4825195"><ele>126.99999999999999</ele><time>2026-03-28T08:46:53.035Z</time></trkpt><trkpt lat="45.418803" lon="10.4826943"><ele>126.99999999999999</ele><time>2026-03-28T08:46:54.034Z</time></trkpt><trkpt lat="45.4188083" lon="10.4828395"><ele>127.0</ele><time>2026-03-28T08:46:55.034Z</time></trkpt><trkpt lat="45.4188268" lon="10.4829538"><ele>127.0</ele><time>2026-03-28T08:46:56.033Z</time></trkpt><trkpt lat="45.418894" lon="10.4830547"><ele>126.6</ele><time>2026-03-28T08:46:57.033Z</time></trkpt><trkpt lat="45.4189835" lon="10.4831452"><ele>126.19999999999999</ele><time>2026-03-28T08:46:58.033Z</time></trkpt><trkpt lat="45.419072" lon="10.4832302"><ele>125.8</ele><time>2026-03-28T08:46:59.035Z</time></trkpt><trkpt lat="45.419155" lon="10.4833175"><ele>125.4</ele><time>2026-03-28T08:47:00.033Z</time></trkpt><trkpt lat="45.4192253" lon="10.4834065"><ele>125.0</ele><time>2026-03-28T08:47:01.036Z</time></trkpt><trkpt lat="45.4192792" lon="10.4834955"><ele>124.99999999999999</ele><time>2026-03-28T08:47:02.037Z</time></trkpt><trkpt lat="45.4193215" lon="10.4835768"><ele>125.0</ele><time>2026-03-28T08:47:03.035Z</time></trkpt><trkpt lat="45.4193475" lon="10.4836602"><ele>125.0</ele><time>2026-03-28T08:47:04.037Z</time></trkpt><trkpt lat="45.4193552" lon="10.4837558"><ele>125.0</ele><time>2026-03-28T08:47:05.033Z</time></trkpt><trkpt lat="45.419347" lon="10.4838897"><ele>124.99999999999999</ele><time>2026-03-28T08:47:06.034Z</time></trkpt><trkpt lat="45.4193347" lon="10.4840292"><ele>125.0</ele><time>2026-03-28T08:47:07.033Z</time></trkpt><trkpt lat="45.4193223" lon="10.4841583"><ele>125.49999999999999</ele><time>2026-03-28T08:47:08.034Z</time></trkpt><trkpt lat="45.4193128" lon="10.4842802"><ele>126.0</ele><time>2026-03-28T08:47:09.031Z</time></trkpt><trkpt lat="45.4193188" lon="10.4843953"><ele>126.5</ele><time>2026-03-28T08:47:10.034Z</time></trkpt><trkpt lat="45.4193455" lon="10.4845042"><ele>127.0</ele><time>2026-03-28T08:47:11.033Z</time></trkpt><trkpt lat="45.41939" lon="10.4846087"><ele>127.49999999999999</ele><time>2026-03-28T08:47:12.031Z</time></trkpt><trkpt lat="45.4194572" lon="10.484713"><ele>128.0</ele><time>2026-03-28T08:47:13.032Z</time></trkpt><trkpt lat="45.4195362" lon="10.4848143"><ele>128.0</ele><time>2026-03-28T08:47:14.03Z</time></trkpt><trkpt lat="45.419627" lon="10.4849172"><ele>128.0</ele><time>2026-03-28T08:47:15.029Z</time></trkpt><trkpt lat="45.4197218" lon="10.4850133"><ele>128.0</ele><time>2026-03-28T08:47:16.032Z</time></trkpt><trkpt lat="45.4198218" lon="10.4851075"><ele>128.0</ele><time>2026-03-28T08:47:17.031Z</time></trkpt><trkpt lat="45.4199223" lon="10.4851912"><ele>128.0</ele><time>2026-03-28T08:47:18.032Z</time></trkpt><trkpt lat="45.4200335" lon="10.4852683"><ele>128.0</ele><time>2026-03-28T08:47:19.03Z</time></trkpt><trkpt lat="45.4201452" lon="10.4853323"><ele>128.0</ele><time>2026-03-28T08:47:20.03Z</time></trkpt><trkpt lat="45.4202647" lon="10.485377"><ele>128.0</ele><time>2026-03-28T08:47:21.029Z</time></trkpt><trkpt lat="45.420395" lon="10.4854162"><ele>130.75</ele><time>2026-03-28T08:47:22.031Z</time></trkpt><trkpt lat="45.4205248" lon="10.4854397"><ele>133.5</ele><time>2026-03-28T08:47:23.032Z</time></trkpt><trkpt lat="45.420649" lon="10.4854488"><ele>136.25</ele><time>2026-03-28T08:47:24.029Z</time></trkpt><trkpt lat="45.420774" lon="10.4854412"><ele>139.0</ele><time>2026-03-28T08:47:25.03Z</time></trkpt><trkpt lat="45.4209118" lon="10.4854303"><ele>139.0</ele><time>2026-03-28T08:47:26.032Z</time></trkpt><trkpt lat="45.4210408" lon="10.4854242"><ele>139.0</ele><time>2026-03-28T08:47:27.031Z</time></trkpt><trkpt lat="45.4211702" lon="10.4854345"><ele>139.0</ele><time>2026-03-28T08:47:28.033Z</time></trkpt><trkpt lat="45.4213028" lon="10.485469"><ele>139.0</ele><time>2026-03-28T08:47:29.031Z</time></trkpt><trkpt lat="45.4214285" lon="10.4855025"><ele>139.2</ele><time>2026-03-28T08:47:30.03Z</time></trkpt><trkpt lat="45.421548" lon="10.4855355"><ele>139.4</ele><time>2026-03-28T08:47:31.032Z</time></trkpt><trkpt lat="45.4216573" lon="10.4855702"><ele>139.6</ele><time>2026-03-28T08:47:32.031Z</time></trkpt><trkpt lat="45.4217553" lon="10.4856137"><ele>139.8</ele><time>2026-03-28T08:47:33.032Z</time></trkpt><trkpt lat="45.4218407" lon="10.485665"><ele>140.0</ele><time>2026-03-28T08:47:34.029Z</time></trkpt><trkpt lat="45.4219362" lon="10.4857277"><ele>140.0</ele><time>2026-03-28T08:47:35.03Z</time></trkpt><trkpt lat="45.4220265" lon="10.4858038"><ele>140.0</ele><time>2026-03-28T08:47:36.03Z</time></trkpt><trkpt lat="45.4221012" lon="10.4858932"><ele>140.0</ele><time>2026-03-28T08:47:37.028Z</time></trkpt><trkpt lat="45.4221577" lon="10.4859807"><ele>140.0</ele><time>2026-03-28T08:47:38.029Z</time></trkpt><trkpt lat="45.42221" lon="10.4860708"><ele>140.0</ele><time>2026-03-28T08:47:39.027Z</time></trkpt><trkpt lat="45.422262" lon="10.48617"><ele>140.8</ele><time>2026-03-28T08:47:40.03Z</time></trkpt><trkpt lat="45.4223027" lon="10.4862952"><ele>141.6</ele><time>2026-03-28T08:47:41.031Z</time></trkpt><trkpt lat="45.422325" lon="10.4864197"><ele>142.4</ele><time>2026-03-28T08:47:42.03Z</time></trkpt><trkpt lat="45.4223357" lon="10.4865355"><ele>143.2</ele><time>2026-03-28T08:47:43.032Z</time></trkpt><trkpt lat="45.4223397" lon="10.4866598"><ele>144.0</ele><time>2026-03-28T08:47:44.032Z</time></trkpt><trkpt lat="45.4223333" lon="10.4868005"><ele>144.0</ele><time>2026-03-28T08:47:45.031Z</time></trkpt><trkpt lat="45.4223237" lon="10.4869697"><ele>144.0</ele><time>2026-03-28T08:47:46.031Z</time></trkpt><trkpt lat="45.4223138" lon="10.4871345"><ele>144.0</ele><time>2026-03-28T08:47:47.032Z</time></trkpt><trkpt lat="45.4223198" lon="10.4872913"><ele>144.0</ele><time>2026-03-28T08:47:48.03Z</time></trkpt><trkpt lat="45.4223385" lon="10.4874657"><ele>144.75</ele><time>2026-03-28T08:47:49.031Z</time></trkpt><trkpt lat="45.4223752" lon="10.4876458"><ele>145.5</ele><time>2026-03-28T08:47:50.03Z</time></trkpt><trkpt lat="45.4224262" lon="10.4878058"><ele>146.25</ele><time>2026-03-28T08:47:51.03Z</time></trkpt><trkpt lat="45.4224857" lon="10.4879493"><ele>147.0</ele><time>2026-03-28T08:47:52.03Z</time></trkpt><trkpt lat="45.4225592" lon="10.4880642"><ele>147.75</ele><time>2026-03-28T08:47:53.031Z</time></trkpt><trkpt lat="45.4226418" lon="10.4881647"><ele>148.5</ele><time>2026-03-28T08:47:54.03Z</time></trkpt><trkpt lat="45.4227535" lon="10.4882745"><ele>149.25</ele><time>2026-03-28T08:47:55.03Z</time></trkpt><trkpt lat="45.4228767" lon="10.4883883"><ele>150.0</ele><time>2026-03-28T08:47:56.03Z</time></trkpt><trkpt lat="45.4229957" lon="10.4884978"><ele>150.0</ele><time>2026-03-28T08:47:57.032Z</time></trkpt><trkpt lat="45.4231173" lon="10.4885993"><ele>150.0</ele><time>2026-03-28T08:47:58.031Z</time></trkpt><trkpt lat="45.4232312" lon="10.4886957"><ele>150.0</ele><time>2026-03-28T08:47:59.033Z</time></trkpt><trkpt lat="45.4233335" lon="10.4887838"><ele>150.0</ele><time>2026-03-28T08:48:00.031Z</time></trkpt><trkpt lat="45.4234335" lon="10.4888648"><ele>150.75</ele><time>2026-03-28T08:48:01.03Z</time></trkpt><trkpt lat="45.423533" lon="10.488948"><ele>151.5</ele><time>2026-03-28T08:48:02.028Z</time></trkpt><trkpt lat="45.4236308" lon="10.489038"><ele>152.25</ele><time>2026-03-28T08:48:03.027Z</time></trkpt><trkpt lat="45.4237198" lon="10.4891302"><ele>153.0</ele><time>2026-03-28T08:48:04.026Z</time></trkpt><trkpt lat="45.4238082" lon="10.4892303"><ele>153.0</ele><time>2026-03-28T08:48:05.03Z</time></trkpt><trkpt lat="45.4238943" lon="10.4893438"><ele>153.0</ele><time>2026-03-28T08:48:06.029Z</time></trkpt><trkpt lat="45.4239875" lon="10.4894748"><ele>153.0</ele><time>2026-03-28T08:48:07.03Z</time></trkpt><trkpt lat="45.4240827" lon="10.489591"><ele>153.0</ele><time>2026-03-28T08:48:08.031Z</time></trkpt><trkpt lat="45.4241758" lon="10.4897158"><ele>152.75</ele><time>2026-03-28T08:48:09.03Z</time></trkpt><trkpt lat="45.4242682" lon="10.4898452"><ele>152.5</ele><time>2026-03-28T08:48:10.03Z</time></trkpt><trkpt lat="45.424364" lon="10.4899645"><ele>152.25</ele><time>2026-03-28T08:48:11.03Z</time></trkpt><trkpt lat="45.4244642" lon="10.4900835"><ele>152.0</ele><time>2026-03-28T08:48:12.03Z</time></trkpt><trkpt lat="45.4245557" lon="10.4902132"><ele>153.25</ele><time>2026-03-28T08:48:13.031Z</time></trkpt><trkpt lat="45.4246555" lon="10.4903307"><ele>154.5</ele><time>2026-03-28T08:48:14.028Z</time></trkpt><trkpt lat="45.424751" lon="10.4904563"><ele>155.75</ele><time>2026-03-28T08:48:15.028Z</time></trkpt><trkpt lat="45.4248485" lon="10.4905757"><ele>157.0</ele><time>2026-03-28T08:48:16.03Z</time></trkpt><trkpt lat="45.4249123" lon="10.490698"><ele>157.0</ele><time>2026-03-28T08:48:17.028Z</time></trkpt><trkpt lat="45.4249577" lon="10.4908375"><ele>157.0</ele><time>2026-03-28T08:48:18.03Z</time></trkpt><trkpt lat="45.4249887" lon="10.4909938"><ele>157.0</ele><time>2026-03-28T08:48:19.029Z</time></trkpt><trkpt lat="45.4249943" lon="10.4911513"><ele>157.0</ele><time>2026-03-28T08:48:20.031Z</time></trkpt><trkpt lat="45.4249782" lon="10.4913227"><ele>156.0</ele><time>2026-03-28T08:48:21.028Z</time></trkpt><trkpt lat="45.4249647" lon="10.491479"><ele>155.0</ele><time>2026-03-28T08:48:22.032Z</time></trkpt><trkpt lat="45.4249598" lon="10.4916312"><ele>154.0</ele><time>2026-03-28T08:48:23.03Z</time></trkpt><trkpt lat="45.4249657" lon="10.4917982"><ele>153.0</ele><time>2026-03-28T08:48:24.03Z</time></trkpt><trkpt lat="45.424973" lon="10.4919662"><ele>152.0</ele><time>2026-03-28T08:48:25.03Z</time></trkpt><trkpt lat="45.4249795" lon="10.4921302"><ele>151.0</ele><time>2026-03-28T08:48:26.029Z</time></trkpt><trkpt lat="45.4249913" lon="10.4922722"><ele>150.0</ele><time>2026-03-28T08:48:27.03Z</time></trkpt><trkpt lat="45.4250162" lon="10.4924063"><ele>149.0</ele><time>2026-03-28T08:48:28.03Z</time></trkpt><trkpt lat="45.4250578" lon="10.4925282"><ele>148.0</ele><time>2026-03-28T08:48:29.031Z</time></trkpt><trkpt lat="45.4251157" lon="10.4926307"><ele>148.0</ele><time>2026-03-28T08:48:30.033Z</time></trkpt><trkpt lat="45.4251822" lon="10.4927065"><ele>148.0</ele><time>2026-03-28T08:48:31.032Z</time></trkpt><trkpt lat="45.4252657" lon="10.4927668"><ele>148.0</ele><time>2026-03-28T08:48:32.033Z</time></trkpt><trkpt lat="45.4253722" lon="10.4928417"><ele>148.0</ele><time>2026-03-28T08:48:33.032Z</time></trkpt><trkpt lat="45.4254877" lon="10.4929232"><ele>148.0</ele><time>2026-03-28T08:48:34.032Z</time></trkpt><trkpt lat="45.4256013" lon="10.4930015"><ele>147.25</ele><time>2026-03-28T08:48:35.033Z</time></trkpt><trkpt lat="45.4257077" lon="10.4930722"><ele>146.5</ele><time>2026-03-28T08:48:36.033Z</time></trkpt><trkpt lat="45.425809" lon="10.4931397"><ele>145.75</ele><time>2026-03-28T08:48:37.033Z</time></trkpt><trkpt lat="45.4259172" lon="10.4932128"><ele>145.0</ele><time>2026-03-28T08:48:38.035Z</time></trkpt><trkpt lat="45.4260327" lon="10.4932853"><ele>145.0</ele><time>2026-03-28T08:48:39.03Z</time></trkpt><trkpt lat="45.4261542" lon="10.4933598"><ele>145.0</ele><time>2026-03-28T08:48:40.031Z</time></trkpt><trkpt lat="45.4262802" lon="10.4934355"><ele>145.0</ele><time>2026-03-28T08:48:41.031Z</time></trkpt><trkpt lat="45.426402" lon="10.4935187"><ele>145.0</ele><time>2026-03-28T08:48:42.03Z</time></trkpt><trkpt lat="45.4265232" lon="10.4936108"><ele>144.25</ele><time>2026-03-28T08:48:43.032Z</time></trkpt><trkpt lat="45.4266405" lon="10.4937103"><ele>143.5</ele><time>2026-03-28T08:48:44.029Z</time></trkpt><trkpt lat="45.4267503" lon="10.4938067"><ele>142.75</ele><time>2026-03-28T08:48:45.031Z</time></trkpt><trkpt lat="45.4268555" lon="10.4938957"><ele>142.0</ele><time>2026-03-28T08:48:46.032Z</time></trkpt><trkpt lat="45.4269507" lon="10.4939673"><ele>142.0</ele><time>2026-03-28T08:48:47.031Z</time></trkpt><trkpt lat="45.4270348" lon="10.4940195"><ele>142.0</ele><time>2026-03-28T08:48:48.03Z</time></trkpt><trkpt lat="45.4271143" lon="10.494041"><ele>142.0</ele><time>2026-03-28T08:48:49.031Z</time></trkpt><trkpt lat="45.4272015" lon="10.4940387"><ele>142.0</ele><time>2026-03-28T08:48:50.03Z</time></trkpt><trkpt lat="45.4273125" lon="10.4940297"><ele>142.0</ele><time>2026-03-28T08:48:51.033Z</time></trkpt><trkpt lat="45.4274405" lon="10.4940182"><ele>142.75</ele><time>2026-03-28T08:48:52.032Z</time></trkpt><trkpt lat="45.4275685" lon="10.494007"><ele>143.5</ele><time>2026-03-28T08:48:53.032Z</time></trkpt><trkpt lat="45.4276987" lon="10.4940052"><ele>144.25</ele><time>2026-03-28T08:48:54.033Z</time></trkpt><trkpt lat="45.4278288" lon="10.4939957"><ele>145.0</ele><time>2026-03-28T08:48:55.032Z</time></trkpt><trkpt lat="45.4279625" lon="10.4939898"><ele>145.75</ele><time>2026-03-28T08:48:56.034Z</time></trkpt><trkpt lat="45.4280932" lon="10.4939887"><ele>146.5</ele><time>2026-03-28T08:48:57.034Z</time></trkpt><trkpt lat="45.428217" lon="10.494005"><ele>147.25</ele><time>2026-03-28T08:48:58.033Z</time></trkpt><trkpt lat="45.4283312" lon="10.494048"><ele>148.0</ele><time>2026-03-28T08:48:59.034Z</time></trkpt><trkpt lat="45.4284485" lon="10.494115"><ele>148.0</ele><time>2026-03-28T08:49:00.033Z</time></trkpt><trkpt lat="45.4285722" lon="10.4941913"><ele>148.0</ele><time>2026-03-28T08:49:01.032Z</time></trkpt><trkpt lat="45.4287002" lon="10.4942657"><ele>148.0</ele><time>2026-03-28T08:49:02.033Z</time></trkpt><trkpt lat="45.4288308" lon="10.4943425"><ele>148.0</ele><time>2026-03-28T08:49:03.032Z</time></trkpt><trkpt lat="45.4289685" lon="10.4944178"><ele>148.5</ele><time>2026-03-28T08:49:04.032Z</time></trkpt><trkpt lat="45.4291098" lon="10.494498"><ele>149.0</ele><time>2026-03-28T08:49:05.031Z</time></trkpt><trkpt lat="45.4292437" lon="10.4945748"><ele>149.5</ele><time>2026-03-28T08:49:06.03Z</time></trkpt><trkpt lat="45.4293655" lon="10.4946512"><ele>150.0</ele><time>2026-03-28T08:49:07.034Z</time></trkpt><trkpt lat="45.4294767" lon="10.4947317"><ele>148.5</ele><time>2026-03-28T08:49:08.034Z</time></trkpt><trkpt lat="45.4295865" lon="10.4948248"><ele>147.0</ele><time>2026-03-28T08:49:09.033Z</time></trkpt><trkpt lat="45.429694" lon="10.494931"><ele>145.5</ele><time>2026-03-28T08:49:10.033Z</time></trkpt><trkpt lat="45.4297992" lon="10.495046"><ele>144.0</ele><time>2026-03-28T08:49:11.034Z</time></trkpt><trkpt lat="45.4299012" lon="10.4951633"><ele>145.5</ele><time>2026-03-28T08:49:12.033Z</time></trkpt><trkpt lat="45.4299975" lon="10.4952785"><ele>147.0</ele><time>2026-03-28T08:49:13.033Z</time></trkpt><trkpt lat="45.430082" lon="10.495391"><ele>148.5</ele><time>2026-03-28T08:49:14.033Z</time></trkpt><trkpt lat="45.4301518" lon="10.4955075"><ele>150.0</ele><time>2026-03-28T08:49:15.031Z</time></trkpt><trkpt lat="45.4302115" lon="10.4956383"><ele>150.0</ele><time>2026-03-28T08:49:16.031Z</time></trkpt><trkpt lat="45.4302692" lon="10.4957822"><ele>150.0</ele><time>2026-03-28T08:49:17.031Z</time></trkpt><trkpt lat="45.4303295" lon="10.4959292"><ele>150.0</ele><time>2026-03-28T08:49:18.033Z</time></trkpt><trkpt lat="45.4303993" lon="10.4960772"><ele>150.0</ele><time>2026-03-28T08:49:19.035Z</time></trkpt><trkpt lat="45.4304705" lon="10.4962075"><ele>152.0</ele><time>2026-03-28T08:49:20.033Z</time></trkpt><trkpt lat="45.430541" lon="10.4963193"><ele>154.0</ele><time>2026-03-28T08:49:21.032Z</time></trkpt><trkpt lat="45.4306152" lon="10.4964222"><ele>156.0</ele><time>2026-03-28T08:49:22.031Z</time></trkpt><trkpt lat="45.4307057" lon="10.4965262"><ele>158.0</ele><time>2026-03-28T08:49:23.032Z</time></trkpt><trkpt lat="45.4308132" lon="10.496629"><ele>158.0</ele><time>2026-03-28T08:49:24.031Z</time></trkpt><trkpt lat="45.4309355" lon="10.4967397"><ele>158.0</ele><time>2026-03-28T08:49:25.031Z</time></trkpt><trkpt lat="45.4310497" lon="10.4968442"><ele>158.0</ele><time>2026-03-28T08:49:26.036Z</time></trkpt><trkpt lat="45.431154" lon="10.4969388"><ele>158.0</ele><time>2026-03-28T08:49:27.032Z</time></trkpt><trkpt lat="45.4312448" lon="10.4970283"><ele>157.5</ele><time>2026-03-28T08:49:28.033Z</time></trkpt><trkpt lat="45.4313217" lon="10.4971315"><ele>157.0</ele><time>2026-03-28T08:49:29.032Z</time></trkpt><trkpt lat="45.431389" lon="10.4972607"><ele>156.5</ele><time>2026-03-28T08:49:30.03Z</time></trkpt><trkpt lat="45.4314475" lon="10.497411"><ele>156.0</ele><time>2026-03-28T08:49:31.032Z</time></trkpt><trkpt lat="45.4314998" lon="10.4975605"><ele>156.0</ele><time>2026-03-28T08:49:32.032Z</time></trkpt><trkpt lat="45.4315488" lon="10.4977003"><ele>156.0</ele><time>2026-03-28T08:49:33.031Z</time></trkpt><trkpt lat="45.4315958" lon="10.4978308"><ele>156.0</ele><time>2026-03-28T08:49:34.034Z</time></trkpt><trkpt lat="45.4316398" lon="10.4979768"><ele>156.0</ele><time>2026-03-28T08:49:35.033Z</time></trkpt><trkpt lat="45.431681" lon="10.4981292"><ele>156.0</ele><time>2026-03-28T08:49:36.033Z</time></trkpt><trkpt lat="45.431715" lon="10.4982765"><ele>154.8</ele><time>2026-03-28T08:49:37.033Z</time></trkpt><trkpt lat="45.4317377" lon="10.4984192"><ele>153.6</ele><time>2026-03-28T08:49:38.032Z</time></trkpt><trkpt lat="45.4317482" lon="10.498566"><ele>152.4</ele><time>2026-03-28T08:49:39.03Z</time></trkpt><trkpt lat="45.4317432" lon="10.49873"><ele>151.2</ele><time>2026-03-28T08:49:40.031Z</time></trkpt><trkpt lat="45.4317285" lon="10.4989088"><ele>150.0</ele><time>2026-03-28T08:49:41.03Z</time></trkpt><trkpt lat="45.4317092" lon="10.4990945"><ele>150.0</ele><time>2026-03-28T08:49:42.033Z</time></trkpt><trkpt lat="45.431685" lon="10.4992847"><ele>150.0</ele><time>2026-03-28T08:49:43.033Z</time></trkpt><trkpt lat="45.431657" lon="10.4994775"><ele>150.0</ele><time>2026-03-28T08:49:44.032Z</time></trkpt><trkpt lat="45.431625" lon="10.4996725"><ele>150.0</ele><time>2026-03-28T08:49:45.032Z</time></trkpt><trkpt lat="45.4315913" lon="10.4998667"><ele>150.0</ele><time>2026-03-28T08:49:46.032Z</time></trkpt><trkpt lat="45.4315567" lon="10.5000578"><ele>150.0</ele><time>2026-03-28T08:49:47.032Z</time></trkpt><trkpt lat="45.4315228" lon="10.5002462"><ele>150.0</ele><time>2026-03-28T08:49:48.032Z</time></trkpt><trkpt lat="45.4314928" lon="10.5004252"><ele>150.0</ele><time>2026-03-28T08:49:49.032Z</time></trkpt><trkpt lat="45.4314648" lon="10.5005927"><ele>149.6</ele><time>2026-03-28T08:49:50.033Z</time></trkpt><trkpt lat="45.4314372" lon="10.5007515"><ele>149.2</ele><time>2026-03-28T08:49:51.033Z</time></trkpt><trkpt lat="45.4314113" lon="10.500907"><ele>148.8</ele><time>2026-03-28T08:49:52.033Z</time></trkpt><trkpt lat="45.4313832" lon="10.501065"><ele>148.4</ele><time>2026-03-28T08:49:53.034Z</time></trkpt><trkpt lat="45.4313583" lon="10.5012137"><ele>148.0</ele><time>2026-03-28T08:49:54.033Z</time></trkpt><trkpt lat="45.4313358" lon="10.5013525"><ele>148.0</ele><time>2026-03-28T08:49:55.035Z</time></trkpt><trkpt lat="45.4313157" lon="10.5014825"><ele>148.0</ele><time>2026-03-28T08:49:56.035Z</time></trkpt><trkpt lat="45.4312948" lon="10.5016112"><ele>148.0</ele><time>2026-03-28T08:49:57.037Z</time></trkpt><trkpt lat="45.4312722" lon="10.5017328"><ele>148.0</ele><time>2026-03-28T08:49:58.034Z</time></trkpt><trkpt lat="45.4312488" lon="10.5018367"><ele>148.0</ele><time>2026-03-28T08:49:59.033Z</time></trkpt><trkpt lat="45.4311972" lon="10.501977"><ele>147.8</ele><time>2026-03-28T08:50:01.035Z</time></trkpt><trkpt lat="45.4311232" lon="10.5019947"><ele>147.60000000000002</ele><time>2026-03-28T08:50:03.032Z</time></trkpt><trkpt lat="45.4310085" lon="10.5018955"><ele>147.39999999999998</ele><time>2026-03-28T08:50:05.032Z</time></trkpt><trkpt lat="45.4309282" lon="10.5018128"><ele>147.2</ele><time>2026-03-28T08:50:06.031Z</time></trkpt><trkpt lat="45.4308275" lon="10.5017157"><ele>147.0</ele><time>2026-03-28T08:50:07.034Z</time></trkpt><trkpt lat="45.430713" lon="10.5016055"><ele>147.0</ele><time>2026-03-28T08:50:08.037Z</time></trkpt><trkpt lat="45.4306068" lon="10.5015025"><ele>147.0</ele><time>2026-03-28T08:50:09.037Z</time></trkpt><trkpt lat="45.430508" lon="10.5014072"><ele>147.0</ele><time>2026-03-28T08:50:10.035Z</time></trkpt><trkpt lat="45.4304123" lon="10.5013138"><ele>147.0</ele><time>2026-03-28T08:50:11.035Z</time></trkpt><trkpt lat="45.4303168" lon="10.5012232"><ele>146.6</ele><time>2026-03-28T08:50:12.036Z</time></trkpt><trkpt lat="45.4302227" lon="10.501136"><ele>146.2</ele><time>2026-03-28T08:50:13.036Z</time></trkpt><trkpt lat="45.4301298" lon="10.5010502"><ele>145.8</ele><time>2026-03-28T08:50:14.036Z</time></trkpt><trkpt lat="45.4300453" lon="10.5009693"><ele>145.4</ele><time>2026-03-28T08:50:15.038Z</time></trkpt><trkpt lat="45.4299718" lon="10.5008958"><ele>145.0</ele><time>2026-03-28T08:50:16.037Z</time></trkpt><trkpt lat="45.4299148" lon="10.5008368"><ele>145.0</ele><time>2026-03-28T08:50:17.036Z</time></trkpt><trkpt lat="45.4298195" lon="10.5007807"><ele>145.0</ele><time>2026-03-28T08:50:19.039Z</time></trkpt><trkpt lat="45.4297292" lon="10.5008535"><ele>145.0</ele><time>2026-03-28T08:50:21.036Z</time></trkpt><trkpt lat="45.4296743" lon="10.5009342"><ele>145.0</ele><time>2026-03-28T08:50:22.035Z</time></trkpt><trkpt lat="45.4296147" lon="10.5010367"><ele>145.0</ele><time>2026-03-28T08:50:23.033Z</time></trkpt><trkpt lat="45.4295525" lon="10.5011523"><ele>146.2</ele><time>2026-03-28T08:50:24.036Z</time></trkpt><trkpt lat="45.4294947" lon="10.5012662"><ele>147.4</ele><time>2026-03-28T08:50:25.033Z</time></trkpt><trkpt lat="45.4294272" lon="10.5013787"><ele>148.6</ele><time>2026-03-28T08:50:26.035Z</time></trkpt><trkpt lat="45.429345" lon="10.5014913"><ele>149.8</ele><time>2026-03-28T08:50:27.033Z</time></trkpt><trkpt lat="45.4292682" lon="10.501597"><ele>151.0</ele><time>2026-03-28T08:50:28.033Z</time></trkpt><trkpt lat="45.4292065" lon="10.5016877"><ele>151.0</ele><time>2026-03-28T08:50:29.033Z</time></trkpt><trkpt lat="45.4291533" lon="10.5017793"><ele>151.0</ele><time>2026-03-28T08:50:30.032Z</time></trkpt><trkpt lat="45.429107" lon="10.5018885"><ele>151.0</ele><time>2026-03-28T08:50:31.031Z</time></trkpt><trkpt lat="45.4290678" lon="10.5020172"><ele>151.0</ele><time>2026-03-28T08:50:32.035Z</time></trkpt><trkpt lat="45.4290243" lon="10.5021513"><ele>151.0</ele><time>2026-03-28T08:50:33.035Z</time></trkpt><trkpt lat="45.428986" lon="10.5022688"><ele>151.16666666666669</ele><time>2026-03-28T08:50:34.036Z</time></trkpt><trkpt lat="45.4289528" lon="10.5023775"><ele>151.33333333333334</ele><time>2026-03-28T08:50:35.037Z</time></trkpt><trkpt lat="45.4289208" lon="10.5024877"><ele>151.5</ele><time>2026-03-28T08:50:36.035Z</time></trkpt><trkpt lat="45.4288873" lon="10.5025923"><ele>151.66666666666666</ele><time>2026-03-28T08:50:37.04Z</time></trkpt><trkpt lat="45.4288492" lon="10.5026897"><ele>151.83333333333331</ele><time>2026-03-28T08:50:38.036Z</time></trkpt><trkpt lat="45.4288092" lon="10.5027813"><ele>152.0</ele><time>2026-03-28T08:50:39.034Z</time></trkpt><trkpt lat="45.4287662" lon="10.5028682"><ele>151.7142857142857</ele><time>2026-03-28T08:50:40.035Z</time></trkpt><trkpt lat="45.4287162" lon="10.502946"><ele>151.42857142857144</ele><time>2026-03-28T08:50:41.036Z</time></trkpt><trkpt lat="45.42866" lon="10.503005"><ele>151.14285714285714</ele><time>2026-03-28T08:50:42.035Z</time></trkpt><trkpt lat="45.4285978" lon="10.5030537"><ele>150.85714285714283</ele><time>2026-03-28T08:50:43.034Z</time></trkpt><trkpt lat="45.4285318" lon="10.5030997"><ele>150.57142857142856</ele><time>2026-03-28T08:50:44.034Z</time></trkpt><trkpt lat="45.4284715" lon="10.5031377"><ele>150.28571428571428</ele><time>2026-03-28T08:50:45.034Z</time></trkpt><trkpt lat="45.4284108" lon="10.5031773"><ele>150.0</ele><time>2026-03-28T08:50:46.035Z</time></trkpt><trkpt lat="45.428355" lon="10.5032282"><ele>150.0</ele><time>2026-03-28T08:50:47.032Z</time></trkpt><trkpt lat="45.4283015" lon="10.5032995"><ele>150.0</ele><time>2026-03-28T08:50:48.033Z</time></trkpt><trkpt lat="45.4282563" lon="10.503376"><ele>150.0</ele><time>2026-03-28T08:50:49.034Z</time></trkpt><trkpt lat="45.428187" lon="10.5035208"><ele>150.0</ele><time>2026-03-28T08:50:51.033Z</time></trkpt><trkpt lat="45.4281073" lon="10.5036467"><ele>150.0</ele><time>2026-03-28T08:50:53.033Z</time></trkpt><trkpt lat="45.427988" lon="10.5037405"><ele>148.16666666666666</ele><time>2026-03-28T08:50:55.035Z</time></trkpt><trkpt lat="45.4279133" lon="10.5037837"><ele>146.33333333333334</ele><time>2026-03-28T08:50:56.034Z</time></trkpt><trkpt lat="45.4278382" lon="10.5038353"><ele>144.5</ele><time>2026-03-28T08:50:57.033Z</time></trkpt><trkpt lat="45.4277652" lon="10.5038957"><ele>142.66666666666669</ele><time>2026-03-28T08:50:58.034Z</time></trkpt><trkpt lat="45.427697" lon="10.5039613"><ele>140.83333333333334</ele><time>2026-03-28T08:50:59.036Z</time></trkpt><trkpt lat="45.427636" lon="10.5040057"><ele>139.0</ele><time>2026-03-28T08:51:00.032Z</time></trkpt><trkpt lat="45.427571" lon="10.5040422"><ele>139.0</ele><time>2026-03-28T08:51:01.034Z</time></trkpt><trkpt lat="45.4274983" lon="10.5040642"><ele>139.0</ele><time>2026-03-28T08:51:02.033Z</time></trkpt><trkpt lat="45.4274157" lon="10.5040852"><ele>139.0</ele><time>2026-03-28T08:51:03.033Z</time></trkpt><trkpt lat="45.4273332" lon="10.5040993"><ele>139.0</ele><time>2026-03-28T08:51:04.033Z</time></trkpt><trkpt lat="45.4272527" lon="10.5040848"><ele>139.0</ele><time>2026-03-28T08:51:05.034Z</time></trkpt><trkpt lat="45.4271772" lon="10.5040607"><ele>139.0</ele><time>2026-03-28T08:51:06.033Z</time></trkpt><trkpt lat="45.4271022" lon="10.5040418"><ele>139.16666666666669</ele><time>2026-03-28T08:51:07.035Z</time></trkpt><trkpt lat="45.4270173" lon="10.5040383"><ele>139.33333333333334</ele><time>2026-03-28T08:51:08.032Z</time></trkpt><trkpt lat="45.4269332" lon="10.5040472"><ele>139.5</ele><time>2026-03-28T08:51:09.033Z</time></trkpt><trkpt lat="45.4268525" lon="10.5040563"><ele>139.66666666666666</ele><time>2026-03-28T08:51:10.035Z</time></trkpt><trkpt lat="45.426774" lon="10.5040722"><ele>139.83333333333331</ele><time>2026-03-28T08:51:11.033Z</time></trkpt><trkpt lat="45.4266883" lon="10.504105"><ele>140.0</ele><time>2026-03-28T08:51:12.033Z</time></trkpt><trkpt lat="45.4265955" lon="10.5041608"><ele>140.0</ele><time>2026-03-28T08:51:13.033Z</time></trkpt><trkpt lat="45.4265048" lon="10.5042355"><ele>140.0</ele><time>2026-03-28T08:51:14.032Z</time></trkpt><trkpt lat="45.4264167" lon="10.5043173"><ele>140.0</ele><time>2026-03-28T08:51:15.031Z</time></trkpt><trkpt lat="45.4263335" lon="10.504397"><ele>140.0</ele><time>2026-03-28T08:51:16.031Z</time></trkpt><trkpt lat="45.4262565" lon="10.5044682"><ele>140.0</ele><time>2026-03-28T08:51:17.031Z</time></trkpt><trkpt lat="45.4261858" lon="10.5045302"><ele>138.16666666666666</ele><time>2026-03-28T08:51:18.029Z</time></trkpt><trkpt lat="45.4261197" lon="10.504586"><ele>136.33333333333331</ele><time>2026-03-28T08:51:19.031Z</time></trkpt><trkpt lat="45.426063" lon="10.5046358"><ele>134.5</ele><time>2026-03-28T08:51:20.03Z</time></trkpt><trkpt lat="45.4260067" lon="10.5046857"><ele>132.66666666666666</ele><time>2026-03-28T08:51:21.033Z</time></trkpt><trkpt lat="45.4259093" lon="10.5047692"><ele>130.83333333333334</ele><time>2026-03-28T08:51:23.033Z</time></trkpt><trkpt lat="45.4258292" lon="10.5048495"><ele>129.0</ele><time>2026-03-28T08:51:25.034Z</time></trkpt><trkpt lat="45.425701" lon="10.5049153"><ele>129.0</ele><time>2026-03-28T08:51:27.034Z</time></trkpt><trkpt lat="45.4256175" lon="10.5049128"><ele>129.0</ele><time>2026-03-28T08:51:28.034Z</time></trkpt><trkpt lat="45.4255393" lon="10.504894"><ele>129.0</ele><time>2026-03-28T08:51:29.034Z</time></trkpt><trkpt lat="45.425477" lon="10.5048735"><ele>129.0</ele><time>2026-03-28T08:51:30.032Z</time></trkpt><trkpt lat="45.4254105" lon="10.5048788"><ele>129.0</ele><time>2026-03-28T08:51:31.035Z</time></trkpt><trkpt lat="45.4253385" lon="10.504867"><ele>129.0</ele><time>2026-03-28T08:51:32.033Z</time></trkpt><trkpt lat="45.4252507" lon="10.504853"><ele>129.0</ele><time>2026-03-28T08:51:33.032Z</time></trkpt><trkpt lat="45.4251397" lon="10.5048437"><ele>129.0</ele><time>2026-03-28T08:51:34.031Z</time></trkpt><trkpt lat="45.425017" lon="10.5048452"><ele>129.0</ele><time>2026-03-28T08:51:35.033Z</time></trkpt><trkpt lat="45.4249017" lon="10.5048505"><ele>129.0</ele><time>2026-03-28T08:51:36.032Z</time></trkpt><trkpt lat="45.4247807" lon="10.5048472"><ele>129.0</ele><time>2026-03-28T08:51:37.033Z</time></trkpt><trkpt lat="45.4246577" lon="10.504837"><ele>129.0</ele><time>2026-03-28T08:51:38.031Z</time></trkpt><trkpt lat="45.4245347" lon="10.5048237"><ele>129.0</ele><time>2026-03-28T08:51:39.032Z</time></trkpt><trkpt lat="45.4244053" lon="10.5047903"><ele>129.0</ele><time>2026-03-28T08:51:40.032Z</time></trkpt><trkpt lat="45.4242635" lon="10.5047503"><ele>129.0</ele><time>2026-03-28T08:51:41.031Z</time></trkpt><trkpt lat="45.4241298" lon="10.504703"><ele>129.0</ele><time>2026-03-28T08:51:42.03Z</time></trkpt><trkpt lat="45.424007" lon="10.504633"><ele>129.0</ele><time>2026-03-28T08:51:43.03Z</time></trkpt><trkpt lat="45.4238703" lon="10.5045492"><ele>129.0</ele><time>2026-03-28T08:51:44.031Z</time></trkpt><trkpt lat="45.4237345" lon="10.504453"><ele>128.33333333333334</ele><time>2026-03-28T08:51:45.037Z</time></trkpt><trkpt lat="45.4235977" lon="10.5043492"><ele>127.66666666666667</ele><time>2026-03-28T08:51:46.034Z</time></trkpt><trkpt lat="45.4234575" lon="10.5042453"><ele>127.0</ele><time>2026-03-28T08:51:47.034Z</time></trkpt><trkpt lat="45.4233122" lon="10.5041502"><ele>127.0</ele><time>2026-03-28T08:51:48.037Z</time></trkpt><trkpt lat="45.4231647" lon="10.5040743"><ele>127.0</ele><time>2026-03-28T08:51:49.037Z</time></trkpt><trkpt lat="45.4230142" lon="10.504002"><ele>127.0</ele><time>2026-03-28T08:51:50.036Z</time></trkpt><trkpt lat="45.4228692" lon="10.5039305"><ele>127.0</ele><time>2026-03-28T08:51:51.035Z</time></trkpt><trkpt lat="45.422724" lon="10.5038597"><ele>127.0</ele><time>2026-03-28T08:51:52.038Z</time></trkpt><trkpt lat="45.4225775" lon="10.5037923"><ele>127.0</ele><time>2026-03-28T08:51:53.036Z</time></trkpt><trkpt lat="45.4224268" lon="10.5037333"><ele>127.0</ele><time>2026-03-28T08:51:54.035Z</time></trkpt><trkpt lat="45.4222762" lon="10.503679"><ele>127.0</ele><time>2026-03-28T08:51:55.038Z</time></trkpt><trkpt lat="45.4221332" lon="10.5036292"><ele>127.0</ele><time>2026-03-28T08:51:56.038Z</time></trkpt><trkpt lat="45.4220002" lon="10.5035833"><ele>127.0</ele><time>2026-03-28T08:51:57.038Z</time></trkpt><trkpt lat="45.421882" lon="10.5035308"><ele>126.39999999999999</ele><time>2026-03-28T08:51:58.036Z</time></trkpt><trkpt lat="45.4217773" lon="10.503453"><ele>125.79999999999998</ele><time>2026-03-28T08:51:59.037Z</time></trkpt><trkpt lat="45.4216805" lon="10.5033502"><ele>125.2</ele><time>2026-03-28T08:52:00.036Z</time></trkpt><trkpt lat="45.4215958" lon="10.5032497"><ele>124.6</ele><time>2026-03-28T08:52:01.036Z</time></trkpt><trkpt lat="45.4215218" lon="10.5031643"><ele>124.0</ele><time>2026-03-28T08:52:02.035Z</time></trkpt><trkpt lat="45.4214495" lon="10.503101"><ele>124.0</ele><time>2026-03-28T08:52:03.033Z</time></trkpt><trkpt lat="45.4213755" lon="10.503084"><ele>124.0</ele><time>2026-03-28T08:52:04.033Z</time></trkpt><trkpt lat="45.4213138" lon="10.5031268"><ele>124.0</ele><time>2026-03-28T08:52:05.036Z</time></trkpt><trkpt lat="45.4212642" lon="10.5032302"><ele>124.0</ele><time>2026-03-28T08:52:06.033Z</time></trkpt><trkpt lat="45.4212213" lon="10.5033818"><ele>124.0</ele><time>2026-03-28T08:52:07.032Z</time></trkpt><trkpt lat="45.4211778" lon="10.5035573"><ele>124.0</ele><time>2026-03-28T08:52:08.031Z</time></trkpt><trkpt lat="45.421128" lon="10.503721"><ele>124.0</ele><time>2026-03-28T08:52:09.032Z</time></trkpt><trkpt lat="45.4210622" lon="10.5038785"><ele>124.0</ele><time>2026-03-28T08:52:10.034Z</time></trkpt><trkpt lat="45.4209815" lon="10.5040325"><ele>124.0</ele><time>2026-03-28T08:52:11.033Z</time></trkpt><trkpt lat="45.4208983" lon="10.5041875"><ele>124.0</ele><time>2026-03-28T08:52:12.033Z</time></trkpt><trkpt lat="45.4208285" lon="10.5043455"><ele>124.0</ele><time>2026-03-28T08:52:13.034Z</time></trkpt><trkpt lat="45.4207862" lon="10.5045187"><ele>124.0</ele><time>2026-03-28T08:52:14.035Z</time></trkpt><trkpt lat="45.4207645" lon="10.5047203"><ele>124.0</ele><time>2026-03-28T08:52:15.034Z</time></trkpt><trkpt lat="45.4207407" lon="10.5049293"><ele>123.0</ele><time>2026-03-28T08:52:16.037Z</time></trkpt><trkpt lat="45.42071" lon="10.505139"><ele>122.0</ele><time>2026-03-28T08:52:17.035Z</time></trkpt><trkpt lat="45.4206782" lon="10.5053562"><ele>121.0</ele><time>2026-03-28T08:52:18.032Z</time></trkpt><trkpt lat="45.4206453" lon="10.5055763"><ele>121.0</ele><time>2026-03-28T08:52:19.033Z</time></trkpt><trkpt lat="45.4206113" lon="10.505804"><ele>121.0</ele><time>2026-03-28T08:52:20.032Z</time></trkpt><trkpt lat="45.4205738" lon="10.5060415"><ele>121.0</ele><time>2026-03-28T08:52:21.034Z</time></trkpt><trkpt lat="45.4205383" lon="10.5062872"><ele>121.0</ele><time>2026-03-28T08:52:22.034Z</time></trkpt><trkpt lat="45.4205093" lon="10.506526"><ele>121.0</ele><time>2026-03-28T08:52:23.036Z</time></trkpt><trkpt lat="45.4204838" lon="10.5067535"><ele>121.0</ele><time>2026-03-28T08:52:24.034Z</time></trkpt><trkpt lat="45.4204625" lon="10.5069625"><ele>120.6</ele><time>2026-03-28T08:52:25.035Z</time></trkpt><trkpt lat="45.4204445" lon="10.5071468"><ele>120.19999999999999</ele><time>2026-03-28T08:52:26.036Z</time></trkpt><trkpt lat="45.4204277" lon="10.5073093"><ele>119.80000000000001</ele><time>2026-03-28T08:52:27.036Z</time></trkpt><trkpt lat="45.4204138" lon="10.5074502"><ele>119.4</ele><time>2026-03-28T08:52:28.034Z</time></trkpt><trkpt lat="45.420402" lon="10.5075712"><ele>119.0</ele><time>2026-03-28T08:52:29.035Z</time></trkpt><trkpt lat="45.4203953" lon="10.5076655"><ele>119.0</ele><time>2026-03-28T08:52:30.032Z</time></trkpt><trkpt lat="45.420402" lon="10.5078188"><ele>119.0</ele><time>2026-03-28T08:52:32.034Z</time></trkpt><trkpt lat="45.4204203" lon="10.5079387"><ele>119.0</ele><time>2026-03-28T08:52:33.033Z</time></trkpt><trkpt lat="45.4204608" lon="10.5081027"><ele>119.0</ele><time>2026-03-28T08:52:34.036Z</time></trkpt><trkpt lat="45.4205162" lon="10.5082935"><ele>119.25</ele><time>2026-03-28T08:52:35.034Z</time></trkpt><trkpt lat="45.4205735" lon="10.5085038"><ele>119.5</ele><time>2026-03-28T08:52:36.036Z</time></trkpt><trkpt lat="45.4206253" lon="10.5087007"><ele>119.75</ele><time>2026-03-28T08:52:37.034Z</time></trkpt><trkpt lat="45.4206748" lon="10.5088885"><ele>120.0</ele><time>2026-03-28T08:52:38.036Z</time></trkpt><trkpt lat="45.4207242" lon="10.5090723"><ele>119.5</ele><time>2026-03-28T08:52:39.037Z</time></trkpt><trkpt lat="45.4207698" lon="10.509244"><ele>119.0</ele><time>2026-03-28T08:52:40.036Z</time></trkpt><trkpt lat="45.4208107" lon="10.5094038"><ele>118.5</ele><time>2026-03-28T08:52:41.036Z</time></trkpt><trkpt lat="45.4208598" lon="10.5095475"><ele>118.0</ele><time>2026-03-28T08:52:42.037Z</time></trkpt><trkpt lat="45.420926" lon="10.5096755"><ele>118.0</ele><time>2026-03-28T08:52:43.037Z</time></trkpt><trkpt lat="45.4210063" lon="10.5097925"><ele>118.00000000000001</ele><time>2026-03-28T08:52:44.036Z</time></trkpt><trkpt lat="45.4210957" lon="10.5098987"><ele>118.00000000000001</ele><time>2026-03-28T08:52:45.037Z</time></trkpt><trkpt lat="45.4211827" lon="10.5099857"><ele>118.0</ele><time>2026-03-28T08:52:46.035Z</time></trkpt><trkpt lat="45.4212585" lon="10.510056"><ele>118.0</ele><time>2026-03-28T08:52:47.035Z</time></trkpt><trkpt lat="45.4213195" lon="10.5101305"><ele>118.00000000000001</ele><time>2026-03-28T08:52:48.034Z</time></trkpt><trkpt lat="45.4213548" lon="10.5102175"><ele>118.0</ele><time>2026-03-28T08:52:49.036Z</time></trkpt><trkpt lat="45.4213532" lon="10.510312"><ele>118.0</ele><time>2026-03-28T08:52:50.035Z</time></trkpt><trkpt lat="45.421312" lon="10.5103903"><ele>118.0</ele><time>2026-03-28T08:52:51.036Z</time></trkpt><trkpt lat="45.421239" lon="10.5104358"><ele>118.00000000000001</ele><time>2026-03-28T08:52:52.037Z</time></trkpt><trkpt lat="45.4211445" lon="10.5104558"><ele>118.0</ele><time>2026-03-28T08:52:53.036Z</time></trkpt><trkpt lat="45.4210493" lon="10.510466"><ele>118.80000000000001</ele><time>2026-03-28T08:52:54.036Z</time></trkpt><trkpt lat="45.4209555" lon="10.5104948"><ele>119.60000000000001</ele><time>2026-03-28T08:52:55.033Z</time></trkpt><trkpt lat="45.4208678" lon="10.5105492"><ele>120.39999999999999</ele><time>2026-03-28T08:52:56.031Z</time></trkpt><trkpt lat="45.4207887" lon="10.5106262"><ele>121.19999999999999</ele><time>2026-03-28T08:52:57.031Z</time></trkpt><trkpt lat="45.4207218" lon="10.5107225"><ele>122.0</ele><time>2026-03-28T08:52:58.033Z</time></trkpt><trkpt lat="45.4206698" lon="10.5108358"><ele>122.0</ele><time>2026-03-28T08:52:59.035Z</time></trkpt><trkpt lat="45.4206305" lon="10.5109682"><ele>121.99999999999999</ele><time>2026-03-28T08:53:00.034Z</time></trkpt><trkpt lat="45.4206072" lon="10.5111108"><ele>121.99999999999999</ele><time>2026-03-28T08:53:01.035Z</time></trkpt><trkpt lat="45.420605" lon="10.5112472"><ele>122.0</ele><time>2026-03-28T08:53:02.042Z</time></trkpt><trkpt lat="45.4206202" lon="10.5113863"><ele>122.0</ele><time>2026-03-28T08:53:03.036Z</time></trkpt><trkpt lat="45.42065" lon="10.5115287"><ele>121.83333333333333</ele><time>2026-03-28T08:53:04.037Z</time></trkpt><trkpt lat="45.4206928" lon="10.5116608"><ele>121.66666666666666</ele><time>2026-03-28T08:53:05.038Z</time></trkpt><trkpt lat="45.4207448" lon="10.5117748"><ele>121.5</ele><time>2026-03-28T08:53:06.037Z</time></trkpt><trkpt lat="45.4207995" lon="10.5118758"><ele>121.33333333333334</ele><time>2026-03-28T08:53:07.035Z</time></trkpt><trkpt lat="45.4208398" lon="10.5119735"><ele>121.16666666666667</ele><time>2026-03-28T08:53:08.034Z</time></trkpt><trkpt lat="45.4208538" lon="10.5120645"><ele>121.0</ele><time>2026-03-28T08:53:09.037Z</time></trkpt><trkpt lat="45.4208098" lon="10.5121968"><ele>121.0</ele><time>2026-03-28T08:53:11.035Z</time></trkpt><trkpt lat="45.4206833" lon="10.5122292"><ele>121.0</ele><time>2026-03-28T08:53:13.036Z</time></trkpt><trkpt lat="45.4206012" lon="10.5122503"><ele>121.0</ele><time>2026-03-28T08:53:14.035Z</time></trkpt><trkpt lat="45.4204865" lon="10.5123095"><ele>121.0</ele><time>2026-03-28T08:53:15.034Z</time></trkpt><trkpt lat="45.4203403" lon="10.5123902"><ele>121.0</ele><time>2026-03-28T08:53:16.033Z</time></trkpt><trkpt lat="45.4201662" lon="10.5124802"><ele>121.0</ele><time>2026-03-28T08:53:17.034Z</time></trkpt><trkpt lat="45.4199732" lon="10.512569"><ele>121.0</ele><time>2026-03-28T08:53:18.034Z</time></trkpt><trkpt lat="45.4197677" lon="10.512647"><ele>121.5</ele><time>2026-03-28T08:53:19.032Z</time></trkpt><trkpt lat="45.4195507" lon="10.5127085"><ele>122.0</ele><time>2026-03-28T08:53:20.032Z</time></trkpt><trkpt lat="45.4193188" lon="10.51274"><ele>122.0</ele><time>2026-03-28T08:53:21.034Z</time></trkpt><trkpt lat="45.4190837" lon="10.5127583"><ele>122.0</ele><time>2026-03-28T08:53:22.033Z</time></trkpt><trkpt lat="45.418846" lon="10.5127772"><ele>119.5</ele><time>2026-03-28T08:53:23.034Z</time></trkpt><trkpt lat="45.4186093" lon="10.5127978"><ele>117.0</ele><time>2026-03-28T08:53:24.035Z</time></trkpt><trkpt lat="45.418361" lon="10.512819"><ele>117.0</ele><time>2026-03-28T08:53:25.037Z</time></trkpt><trkpt lat="45.4181057" lon="10.5128397"><ele>117.0</ele><time>2026-03-28T08:53:26.036Z</time></trkpt><trkpt lat="45.4178418" lon="10.5128633"><ele>116.0</ele><time>2026-03-28T08:53:27.035Z</time></trkpt><trkpt lat="45.4175818" lon="10.512887"><ele>115.0</ele><time>2026-03-28T08:53:28.036Z</time></trkpt><trkpt lat="45.4173303" lon="10.5129045"><ele>114.5</ele><time>2026-03-28T08:53:29.038Z</time></trkpt><trkpt lat="45.41709" lon="10.5129163"><ele>114.0</ele><time>2026-03-28T08:53:30.036Z</time></trkpt><trkpt lat="45.4168642" lon="10.512931"><ele>114.0</ele><time>2026-03-28T08:53:31.038Z</time></trkpt><trkpt lat="45.4166698" lon="10.5129463"><ele>114.0</ele><time>2026-03-28T08:53:32.037Z</time></trkpt><trkpt lat="45.4165" lon="10.5129588"><ele>114.0</ele><time>2026-03-28T08:53:33.037Z</time></trkpt><trkpt lat="45.4163477" lon="10.512971"><ele>114.5</ele><time>2026-03-28T08:53:34.035Z</time></trkpt><trkpt lat="45.4162057" lon="10.512987"><ele>115.0</ele><time>2026-03-28T08:53:35.036Z</time></trkpt><trkpt lat="45.4160743" lon="10.513002"><ele>115.5</ele><time>2026-03-28T08:53:36.036Z</time></trkpt><trkpt lat="45.4159508" lon="10.5130105"><ele>116.0</ele><time>2026-03-28T08:53:37.038Z</time></trkpt><trkpt lat="45.4158268" lon="10.5130153"><ele>116.0</ele><time>2026-03-28T08:53:38.036Z</time></trkpt><trkpt lat="45.4157005" lon="10.513013"><ele>116.0</ele><time>2026-03-28T08:53:39.035Z</time></trkpt><trkpt lat="45.415581" lon="10.5130033"><ele>116.0</ele><time>2026-03-28T08:53:40.036Z</time></trkpt><trkpt lat="45.4154783" lon="10.5129878"><ele>116.0</ele><time>2026-03-28T08:53:41.035Z</time></trkpt><trkpt lat="45.4153862" lon="10.5129703"><ele>116.0</ele><time>2026-03-28T08:53:42.036Z</time></trkpt><trkpt lat="45.4153027" lon="10.5129525"><ele>116.16666666666666</ele><time>2026-03-28T08:53:43.036Z</time></trkpt><trkpt lat="45.4152257" lon="10.5129332"><ele>116.33333333333333</ele><time>2026-03-28T08:53:44.033Z</time></trkpt><trkpt lat="45.4151567" lon="10.5129142"><ele>116.5</ele><time>2026-03-28T08:53:45.033Z</time></trkpt><trkpt lat="45.4150632" lon="10.5129002"><ele>116.66666666666666</ele><time>2026-03-28T08:53:47.032Z</time></trkpt><trkpt lat="45.4150113" lon="10.5129748"><ele>116.83333333333333</ele><time>2026-03-28T08:53:49.034Z</time></trkpt><trkpt lat="45.4149815" lon="10.513124"><ele>117.0</ele><time>2026-03-28T08:53:51.036Z</time></trkpt><trkpt lat="45.4149635" lon="10.5132813"><ele>117.0</ele><time>2026-03-28T08:53:53.034Z</time></trkpt><trkpt lat="45.4149537" lon="10.5134063"><ele>116.99999999999999</ele><time>2026-03-28T08:53:54.035Z</time></trkpt><trkpt lat="45.4149485" lon="10.5135442"><ele>116.99999999999999</ele><time>2026-03-28T08:53:55.035Z</time></trkpt><trkpt lat="45.4149483" lon="10.5136645"><ele>117.0</ele><time>2026-03-28T08:53:56.034Z</time></trkpt><trkpt lat="45.4149478" lon="10.5137657"><ele>117.0</ele><time>2026-03-28T08:53:57.034Z</time></trkpt><trkpt lat="45.4149088" lon="10.513926"><ele>116.75</ele><time>2026-03-28T08:53:59.035Z</time></trkpt><trkpt lat="45.4147883" lon="10.5140028"><ele>116.5</ele><time>2026-03-28T08:54:01.035Z</time></trkpt><trkpt lat="45.4146913" lon="10.5140102"><ele>116.25</ele><time>2026-03-28T08:54:02.037Z</time></trkpt><trkpt lat="45.414575" lon="10.5140072"><ele>116.0</ele><time>2026-03-28T08:54:03.035Z</time></trkpt><trkpt lat="45.4144528" lon="10.5140058"><ele>116.0</ele><time>2026-03-28T08:54:04.036Z</time></trkpt><trkpt lat="45.4143327" lon="10.5140163"><ele>116.0</ele><time>2026-03-28T08:54:05.033Z</time></trkpt><trkpt lat="45.414221" lon="10.5140485"><ele>116.0</ele><time>2026-03-28T08:54:06.032Z</time></trkpt><trkpt lat="45.4141162" lon="10.5141112"><ele>116.0</ele><time>2026-03-28T08:54:07.033Z</time></trkpt><trkpt lat="45.4140008" lon="10.5141905"><ele>116.0</ele><time>2026-03-28T08:54:08.033Z</time></trkpt><trkpt lat="45.4138778" lon="10.5142487"><ele>116.0</ele><time>2026-03-28T08:54:09.032Z</time></trkpt><trkpt lat="45.4137603" lon="10.5142833"><ele>116.0</ele><time>2026-03-28T08:54:10.032Z</time></trkpt><trkpt lat="45.4136637" lon="10.5143165"><ele>116.0</ele><time>2026-03-28T08:54:11.033Z</time></trkpt><trkpt lat="45.4135877" lon="10.5143525"><ele>116.0</ele><time>2026-03-28T08:54:12.051Z</time></trkpt><trkpt lat="45.4135235" lon="10.514418"><ele>116.0</ele><time>2026-03-28T08:54:13.036Z</time></trkpt><trkpt lat="45.4134718" lon="10.5145182"><ele>116.0</ele><time>2026-03-28T08:54:14.033Z</time></trkpt><trkpt lat="45.4134278" lon="10.5146558"><ele>116.0</ele><time>2026-03-28T08:54:15.033Z</time></trkpt><trkpt lat="45.4133888" lon="10.5148308"><ele>116.0</ele><time>2026-03-28T08:54:16.035Z</time></trkpt><trkpt lat="45.4133475" lon="10.5150228"><ele>116.0</ele><time>2026-03-28T08:54:17.033Z</time></trkpt><trkpt lat="45.4132992" lon="10.5152257"><ele>116.0</ele><time>2026-03-28T08:54:18.035Z</time></trkpt><trkpt lat="45.4132457" lon="10.5154312"><ele>116.0</ele><time>2026-03-28T08:54:19.035Z</time></trkpt><trkpt lat="45.4131833" lon="10.5156407"><ele>116.0</ele><time>2026-03-28T08:54:20.038Z</time></trkpt><trkpt lat="45.4131095" lon="10.5158678"><ele>116.0</ele><time>2026-03-28T08:54:21.035Z</time></trkpt><trkpt lat="45.413026" lon="10.5161017"><ele>116.0</ele><time>2026-03-28T08:54:22.037Z</time></trkpt><trkpt lat="45.4129395" lon="10.5163383"><ele>115.33333333333333</ele><time>2026-03-28T08:54:23.034Z</time></trkpt><trkpt lat="45.4128607" lon="10.5165643"><ele>114.66666666666666</ele><time>2026-03-28T08:54:24.035Z</time></trkpt><trkpt lat="45.4127897" lon="10.5167752"><ele>114.0</ele><time>2026-03-28T08:54:25.035Z</time></trkpt><trkpt lat="45.4127278" lon="10.5169703"><ele>114.0</ele><time>2026-03-28T08:54:26.034Z</time></trkpt><trkpt lat="45.4126715" lon="10.5171472"><ele>114.0</ele><time>2026-03-28T08:54:27.036Z</time></trkpt><trkpt lat="45.4126097" lon="10.5173053"><ele>114.0</ele><time>2026-03-28T08:54:28.034Z</time></trkpt><trkpt lat="45.4125307" lon="10.5174572"><ele>114.0</ele><time>2026-03-28T08:54:29.035Z</time></trkpt><trkpt lat="45.4124277" lon="10.5176025"><ele>114.0</ele><time>2026-03-28T08:54:30.035Z</time></trkpt><trkpt lat="45.4123015" lon="10.5177552"><ele>114.0</ele><time>2026-03-28T08:54:31.035Z</time></trkpt><trkpt lat="45.4121785" lon="10.5178953"><ele>114.0</ele><time>2026-03-28T08:54:32.04Z</time></trkpt><trkpt lat="45.4120638" lon="10.5180273"><ele>115.25</ele><time>2026-03-28T08:54:33.032Z</time></trkpt><trkpt lat="45.4119627" lon="10.5181683"><ele>116.5</ele><time>2026-03-28T08:54:34.035Z</time></trkpt><trkpt lat="45.4118752" lon="10.5183203"><ele>117.75</ele><time>2026-03-28T08:54:35.034Z</time></trkpt><trkpt lat="45.411795" lon="10.5184822"><ele>119.0</ele><time>2026-03-28T08:54:36.032Z</time></trkpt><trkpt lat="45.4117168" lon="10.5186448"><ele>119.0</ele><time>2026-03-28T08:54:37.036Z</time></trkpt><trkpt lat="45.4116438" lon="10.5187863"><ele>119.0</ele><time>2026-03-28T08:54:38.032Z</time></trkpt><trkpt lat="45.411578" lon="10.5189053"><ele>119.0</ele><time>2026-03-28T08:54:39.033Z</time></trkpt><trkpt lat="45.4115177" lon="10.5190118"><ele>119.0</ele><time>2026-03-28T08:54:40.033Z</time></trkpt><trkpt lat="45.411465" lon="10.5191122"><ele>119.0</ele><time>2026-03-28T08:54:41.034Z</time></trkpt><trkpt lat="45.4114305" lon="10.5191995"><ele>119.0</ele><time>2026-03-28T08:54:42.041Z</time></trkpt><trkpt lat="45.4114437" lon="10.5193595"><ele>119.0</ele><time>2026-03-28T08:54:44.032Z</time></trkpt><trkpt lat="45.4114907" lon="10.5194522"><ele>119.0</ele><time>2026-03-28T08:54:45.035Z</time></trkpt><trkpt lat="45.411545" lon="10.5195502"><ele>119.0</ele><time>2026-03-28T08:54:46.034Z</time></trkpt><trkpt lat="45.4115815" lon="10.5196612"><ele>119.0</ele><time>2026-03-28T08:54:47.035Z</time></trkpt><trkpt lat="45.4115998" lon="10.5197945"><ele>118.5</ele><time>2026-03-28T08:54:48.036Z</time></trkpt><trkpt lat="45.4116012" lon="10.5199567"><ele>118.0</ele><time>2026-03-28T08:54:49.036Z</time></trkpt><trkpt lat="45.411595" lon="10.5201418"><ele>117.5</ele><time>2026-03-28T08:54:50.035Z</time></trkpt><trkpt lat="45.4115892" lon="10.5203213"><ele>117.0</ele><time>2026-03-28T08:54:51.041Z</time></trkpt><trkpt lat="45.411586" lon="10.5204875"><ele>116.8</ele><time>2026-03-28T08:54:52.039Z</time></trkpt><trkpt lat="45.41159" lon="10.5206343"><ele>116.6</ele><time>2026-03-28T08:54:53.035Z</time></trkpt><trkpt lat="45.411608" lon="10.5207578"><ele>116.39999999999999</ele><time>2026-03-28T08:54:54.034Z</time></trkpt><trkpt lat="45.4116477" lon="10.520864"><ele>116.19999999999999</ele><time>2026-03-28T08:54:55.034Z</time></trkpt><trkpt lat="45.4117103" lon="10.5209535"><ele>116.0</ele><time>2026-03-28T08:54:56.033Z</time></trkpt><trkpt lat="45.4117935" lon="10.5210273"><ele>116.0</ele><time>2026-03-28T08:54:57.032Z</time></trkpt><trkpt lat="45.4119022" lon="10.521096"><ele>116.0</ele><time>2026-03-28T08:54:58.032Z</time></trkpt><trkpt lat="45.4120022" lon="10.5211595"><ele>116.0</ele><time>2026-03-28T08:54:59.032Z</time></trkpt><trkpt lat="45.4120775" lon="10.5212278"><ele>116.0</ele><time>2026-03-28T08:55:00.033Z</time></trkpt><trkpt lat="45.4121318" lon="10.5213162"><ele>116.0</ele><time>2026-03-28T08:55:01.033Z</time></trkpt><trkpt lat="45.4121682" lon="10.5214315"><ele>116.19999999999999</ele><time>2026-03-28T08:55:02.035Z</time></trkpt><trkpt lat="45.4121877" lon="10.5215703"><ele>116.39999999999999</ele><time>2026-03-28T08:55:03.035Z</time></trkpt><trkpt lat="45.4121838" lon="10.5217103"><ele>116.6</ele><time>2026-03-28T08:55:04.034Z</time></trkpt><trkpt lat="45.4121543" lon="10.5218395"><ele>116.8</ele><time>2026-03-28T08:55:05.036Z</time></trkpt><trkpt lat="45.4121175" lon="10.5219563"><ele>117.0</ele><time>2026-03-28T08:55:06.034Z</time></trkpt><trkpt lat="45.4120885" lon="10.5220513"><ele>116.66666666666667</ele><time>2026-03-28T08:55:07.035Z</time></trkpt><trkpt lat="45.4120742" lon="10.522153"><ele>116.33333333333334</ele><time>2026-03-28T08:55:09.034Z</time></trkpt><trkpt lat="45.4121248" lon="10.5222335"><ele>116.0</ele><time>2026-03-28T08:55:11.034Z</time></trkpt><trkpt lat="45.4121795" lon="10.5222827"><ele>115.66666666666667</ele><time>2026-03-28T08:55:12.034Z</time></trkpt><trkpt lat="45.4122598" lon="10.5223328"><ele>115.33333333333334</ele><time>2026-03-28T08:55:13.035Z</time></trkpt><trkpt lat="45.4123648" lon="10.5223897"><ele>115.0</ele><time>2026-03-28T08:55:14.032Z</time></trkpt><trkpt lat="45.4124952" lon="10.522454"><ele>116.66666666666667</ele><time>2026-03-28T08:55:15.031Z</time></trkpt><trkpt lat="45.4126412" lon="10.5225272"><ele>118.33333333333334</ele><time>2026-03-28T08:55:16.032Z</time></trkpt><trkpt lat="45.4127965" lon="10.522609"><ele>120.0</ele><time>2026-03-28T08:55:17.031Z</time></trkpt><trkpt lat="45.412941" lon="10.5226883"><ele>120.0</ele><time>2026-03-28T08:55:18.03Z</time></trkpt><trkpt lat="45.4130743" lon="10.522757"><ele>120.0</ele><time>2026-03-28T08:55:19.033Z</time></trkpt><trkpt lat="45.4131958" lon="10.5228192"><ele>120.0</ele><time>2026-03-28T08:55:20.033Z</time></trkpt><trkpt lat="45.4133118" lon="10.5228782"><ele>120.0</ele><time>2026-03-28T08:55:21.032Z</time></trkpt><trkpt lat="45.4134337" lon="10.522929"><ele>119.5</ele><time>2026-03-28T08:55:22.03Z</time></trkpt><trkpt lat="45.413559" lon="10.5229692"><ele>119.0</ele><time>2026-03-28T08:55:23.03Z</time></trkpt><trkpt lat="45.4136893" lon="10.5229988"><ele>118.5</ele><time>2026-03-28T08:55:24.032Z</time></trkpt><trkpt lat="45.4138163" lon="10.5230222"><ele>118.0</ele><time>2026-03-28T08:55:25.033Z</time></trkpt><trkpt lat="45.4139275" lon="10.5230382"><ele>117.50000000000001</ele><time>2026-03-28T08:55:26.032Z</time></trkpt><trkpt lat="45.4140227" lon="10.5230528"><ele>117.0</ele><time>2026-03-28T08:55:27.032Z</time></trkpt><trkpt lat="45.414097" lon="10.5230662"><ele>116.5</ele><time>2026-03-28T08:55:28.033Z</time></trkpt><trkpt lat="45.4141967" lon="10.523112"><ele>116.0</ele><time>2026-03-28T08:55:30.035Z</time></trkpt><trkpt lat="45.414233" lon="10.523222"><ele>115.50000000000001</ele><time>2026-03-28T08:55:32.035Z</time></trkpt><trkpt lat="45.414226" lon="10.5233245"><ele>115.0</ele><time>2026-03-28T08:55:33.033Z</time></trkpt><trkpt lat="45.4142028" lon="10.5234625"><ele>115.0</ele><time>2026-03-28T08:55:34.038Z</time></trkpt><trkpt lat="45.4141658" lon="10.5236298"><ele>115.0</ele><time>2026-03-28T08:55:35.034Z</time></trkpt><trkpt lat="45.414126" lon="10.5237993"><ele>115.0</ele><time>2026-03-28T08:55:36.034Z</time></trkpt><trkpt lat="45.414097" lon="10.5239337"><ele>115.0</ele><time>2026-03-28T08:55:37.035Z</time></trkpt><trkpt lat="45.4140817" lon="10.5240427"><ele>115.0</ele><time>2026-03-28T08:55:38.033Z</time></trkpt><trkpt lat="45.4141087" lon="10.5241913"><ele>115.0</ele><time>2026-03-28T08:55:40.034Z</time></trkpt><trkpt lat="45.414155" lon="10.5242552"><ele>115.0</ele><time>2026-03-28T08:55:41.033Z</time></trkpt><trkpt lat="45.4142278" lon="10.5243207"><ele>115.0</ele><time>2026-03-28T08:55:42.034Z</time></trkpt><trkpt lat="45.4143213" lon="10.5243917"><ele>115.0</ele><time>2026-03-28T08:55:43.034Z</time></trkpt><trkpt lat="45.4144283" lon="10.524477"><ele>115.0</ele><time>2026-03-28T08:55:44.034Z</time></trkpt><trkpt lat="45.4145482" lon="10.5245767"><ele>115.33333333333334</ele><time>2026-03-28T08:55:45.034Z</time></trkpt><trkpt lat="45.4146862" lon="10.52469"><ele>115.66666666666666</ele><time>2026-03-28T08:55:46.032Z</time></trkpt><trkpt lat="45.4148368" lon="10.5248168"><ele>116.0</ele><time>2026-03-28T08:55:47.032Z</time></trkpt><trkpt lat="45.4149893" lon="10.5249523"><ele>116.0</ele><time>2026-03-28T08:55:48.032Z</time></trkpt><trkpt lat="45.4151505" lon="10.5251043"><ele>116.0</ele><time>2026-03-28T08:55:49.032Z</time></trkpt><trkpt lat="45.4153127" lon="10.5252613"><ele>116.0</ele><time>2026-03-28T08:55:50.032Z</time></trkpt><trkpt lat="45.415462" lon="10.5254072"><ele>115.66666666666666</ele><time>2026-03-28T08:55:51.035Z</time></trkpt><trkpt lat="45.4156013" lon="10.5255405"><ele>115.33333333333334</ele><time>2026-03-28T08:55:52.034Z</time></trkpt><trkpt lat="45.4157402" lon="10.5256682"><ele>115.0</ele><time>2026-03-28T08:55:53.035Z</time></trkpt><trkpt lat="45.4158833" lon="10.5257982"><ele>115.0</ele><time>2026-03-28T08:55:54.035Z</time></trkpt><trkpt lat="45.4160322" lon="10.525931"><ele>115.0</ele><time>2026-03-28T08:55:55.033Z</time></trkpt><trkpt lat="45.4161823" lon="10.5260605"><ele>115.0</ele><time>2026-03-28T08:55:56.033Z</time></trkpt><trkpt lat="45.4163313" lon="10.5261823"><ele>114.33333333333334</ele><time>2026-03-28T08:55:57.034Z</time></trkpt><trkpt lat="45.4164797" lon="10.5263005"><ele>113.66666666666666</ele><time>2026-03-28T08:55:58.033Z</time></trkpt><trkpt lat="45.4166275" lon="10.5264172"><ele>113.0</ele><time>2026-03-28T08:55:59.033Z</time></trkpt><trkpt lat="45.4167765" lon="10.5265305"><ele>113.0</ele><time>2026-03-28T08:56:00.034Z</time></trkpt><trkpt lat="45.4169278" lon="10.5266402"><ele>113.0</ele><time>2026-03-28T08:56:01.035Z</time></trkpt><trkpt lat="45.4170815" lon="10.5267493"><ele>113.0</ele><time>2026-03-28T08:56:02.034Z</time></trkpt><trkpt lat="45.4172378" lon="10.526855"><ele>113.66666666666666</ele><time>2026-03-28T08:56:03.037Z</time></trkpt><trkpt lat="45.4173933" lon="10.5269553"><ele>114.33333333333334</ele><time>2026-03-28T08:56:04.035Z</time></trkpt><trkpt lat="45.4175462" lon="10.5270533"><ele>115.0</ele><time>2026-03-28T08:56:05.035Z</time></trkpt><trkpt lat="45.4176983" lon="10.5271503"><ele>115.0</ele><time>2026-03-28T08:56:06.036Z</time></trkpt><trkpt lat="45.4178523" lon="10.5272452"><ele>115.0</ele><time>2026-03-28T08:56:07.033Z</time></trkpt><trkpt lat="45.4180068" lon="10.5273408"><ele>115.0</ele><time>2026-03-28T08:56:08.033Z</time></trkpt><trkpt lat="45.4181598" lon="10.5274387"><ele>116.0</ele><time>2026-03-28T08:56:09.035Z</time></trkpt><trkpt lat="45.418314" lon="10.527537"><ele>117.0</ele><time>2026-03-28T08:56:10.033Z</time></trkpt><trkpt lat="45.4184687" lon="10.527635"><ele>118.0</ele><time>2026-03-28T08:56:11.033Z</time></trkpt><trkpt lat="45.4186232" lon="10.5277323"><ele>118.0</ele><time>2026-03-28T08:56:12.033Z</time></trkpt><trkpt lat="45.4187683" lon="10.5278227"><ele>118.0</ele><time>2026-03-28T08:56:13.032Z</time></trkpt><trkpt lat="45.4189" lon="10.527905"><ele>118.0</ele><time>2026-03-28T08:56:14.033Z</time></trkpt><trkpt lat="45.4190175" lon="10.5279835"><ele>118.0</ele><time>2026-03-28T08:56:15.033Z</time></trkpt><trkpt lat="45.4191185" lon="10.5280708"><ele>118.0</ele><time>2026-03-28T08:56:16.034Z</time></trkpt><trkpt lat="45.4192137" lon="10.528188"><ele>118.0</ele><time>2026-03-28T08:56:17.038Z</time></trkpt><trkpt lat="45.419304" lon="10.5283125"><ele>118.0</ele><time>2026-03-28T08:56:18.034Z</time></trkpt><trkpt lat="45.4193915" lon="10.528409"><ele>118.0</ele><time>2026-03-28T08:56:19.034Z</time></trkpt><trkpt lat="45.4194883" lon="10.52849"><ele>118.0</ele><time>2026-03-28T08:56:20.034Z</time></trkpt><trkpt lat="45.419601" lon="10.528565"><ele>118.0</ele><time>2026-03-28T08:56:21.035Z</time></trkpt><trkpt lat="45.4197242" lon="10.5286465"><ele>118.0</ele><time>2026-03-28T08:56:22.035Z</time></trkpt><trkpt lat="45.419843" lon="10.5287372"><ele>118.0</ele><time>2026-03-28T08:56:23.036Z</time></trkpt><trkpt lat="45.4199538" lon="10.5288417"><ele>119.0</ele><time>2026-03-28T08:56:24.035Z</time></trkpt><trkpt lat="45.4200617" lon="10.5289662"><ele>120.0</ele><time>2026-03-28T08:56:25.035Z</time></trkpt><trkpt lat="45.4201687" lon="10.5291153"><ele>121.0</ele><time>2026-03-28T08:56:26.033Z</time></trkpt><trkpt lat="45.4202767" lon="10.5292922"><ele>121.0</ele><time>2026-03-28T08:56:27.034Z</time></trkpt><trkpt lat="45.4203813" lon="10.5294748"><ele>121.0</ele><time>2026-03-28T08:56:28.037Z</time></trkpt><trkpt lat="45.4204837" lon="10.5296542"><ele>121.0</ele><time>2026-03-28T08:56:29.034Z</time></trkpt><trkpt lat="45.420584" lon="10.5298307"><ele>121.25</ele><time>2026-03-28T08:56:30.033Z</time></trkpt><trkpt lat="45.4206838" lon="10.5299847"><ele>121.5</ele><time>2026-03-28T08:56:31.034Z</time></trkpt><trkpt lat="45.4207788" lon="10.5301105"><ele>121.75</ele><time>2026-03-28T08:56:32.035Z</time></trkpt><trkpt lat="45.420864" lon="10.5302087"><ele>122.0</ele><time>2026-03-28T08:56:33.037Z</time></trkpt><trkpt lat="45.4209525" lon="10.5302867"><ele>122.0</ele><time>2026-03-28T08:56:34.035Z</time></trkpt><trkpt lat="45.4210582" lon="10.5303552"><ele>122.0</ele><time>2026-03-28T08:56:35.035Z</time></trkpt><trkpt lat="45.4211832" lon="10.5304043"><ele>122.0</ele><time>2026-03-28T08:56:36.032Z</time></trkpt><trkpt lat="45.4213188" lon="10.5304238"><ele>122.0</ele><time>2026-03-28T08:56:37.032Z</time></trkpt><trkpt lat="45.421444" lon="10.5304242"><ele>123.5</ele><time>2026-03-28T08:56:38.031Z</time></trkpt><trkpt lat="45.4215668" lon="10.5304358"><ele>125.0</ele><time>2026-03-28T08:56:39.033Z</time></trkpt><trkpt lat="45.4216863" lon="10.530477"><ele>126.5</ele><time>2026-03-28T08:56:40.034Z</time></trkpt><trkpt lat="45.4218003" lon="10.5305605"><ele>128.0</ele><time>2026-03-28T08:56:41.035Z</time></trkpt><trkpt lat="45.421901" lon="10.5306848"><ele>128.0</ele><time>2026-03-28T08:56:42.033Z</time></trkpt><trkpt lat="45.4219768" lon="10.5308345"><ele>128.0</ele><time>2026-03-28T08:56:43.034Z</time></trkpt><trkpt lat="45.4220287" lon="10.5309923"><ele>128.0</ele><time>2026-03-28T08:56:44.033Z</time></trkpt><trkpt lat="45.4220613" lon="10.5311578"><ele>128.0</ele><time>2026-03-28T08:56:45.034Z</time></trkpt><trkpt lat="45.4220688" lon="10.5313188"><ele>129.0</ele><time>2026-03-28T08:56:46.034Z</time></trkpt><trkpt lat="45.4220707" lon="10.5314592"><ele>130.0</ele><time>2026-03-28T08:56:47.032Z</time></trkpt><trkpt lat="45.4220705" lon="10.531564"><ele>131.0</ele><time>2026-03-28T08:56:48.032Z</time></trkpt><trkpt lat="45.422048" lon="10.5317445"><ele>132.0</ele><time>2026-03-28T08:56:50.033Z</time></trkpt><trkpt lat="45.4220148" lon="10.5318792"><ele>133.0</ele><time>2026-03-28T08:56:51.033Z</time></trkpt><trkpt lat="45.4219617" lon="10.5320467"><ele>134.0</ele><time>2026-03-28T08:56:52.033Z</time></trkpt><trkpt lat="45.421897" lon="10.532204"><ele>135.0</ele><time>2026-03-28T08:56:53.032Z</time></trkpt><trkpt lat="45.421829" lon="10.5323427"><ele>136.0</ele><time>2026-03-28T08:56:54.033Z</time></trkpt><trkpt lat="45.4217612" lon="10.5324608"><ele>137.0</ele><time>2026-03-28T08:56:55.034Z</time></trkpt><trkpt lat="45.4216962" lon="10.5325613"><ele>137.0</ele><time>2026-03-28T08:56:56.034Z</time></trkpt><trkpt lat="45.421618" lon="10.5326487"><ele>137.0</ele><time>2026-03-28T08:56:57.033Z</time></trkpt><trkpt lat="45.421517" lon="10.5327272"><ele>137.0</ele><time>2026-03-28T08:56:58.034Z</time></trkpt><trkpt lat="45.4213927" lon="10.5327982"><ele>137.0</ele><time>2026-03-28T08:56:59.032Z</time></trkpt><trkpt lat="45.4212502" lon="10.5328647"><ele>137.33333333333331</ele><time>2026-03-28T08:57:00.03Z</time></trkpt><trkpt lat="45.4210997" lon="10.5329305"><ele>137.66666666666666</ele><time>2026-03-28T08:57:01.031Z</time></trkpt><trkpt lat="45.420949" lon="10.5329993"><ele>138.0</ele><time>2026-03-28T08:57:02.032Z</time></trkpt><trkpt lat="45.4207927" lon="10.5330783"><ele>138.0</ele><time>2026-03-28T08:57:03.03Z</time></trkpt><trkpt lat="45.4206327" lon="10.5331687"><ele>138.0</ele><time>2026-03-28T08:57:04.035Z</time></trkpt><trkpt lat="45.4204687" lon="10.5332697"><ele>138.0</ele><time>2026-03-28T08:57:05.034Z</time></trkpt><trkpt lat="45.4203023" lon="10.5333808"><ele>137.0</ele><time>2026-03-28T08:57:06.033Z</time></trkpt><trkpt lat="45.4201305" lon="10.5335048"><ele>136.0</ele><time>2026-03-28T08:57:07.034Z</time></trkpt><trkpt lat="45.4199595" lon="10.5336413"><ele>135.0</ele><time>2026-03-28T08:57:08.036Z</time></trkpt><trkpt lat="45.4197867" lon="10.533791"><ele>133.5</ele><time>2026-03-28T08:57:09.036Z</time></trkpt><trkpt lat="45.4195983" lon="10.5339578"><ele>132.0</ele><time>2026-03-28T08:57:10.036Z</time></trkpt><trkpt lat="45.419403" lon="10.5341343"><ele>132.0</ele><time>2026-03-28T08:57:11.034Z</time></trkpt><trkpt lat="45.4192163" lon="10.5343058"><ele>132.0</ele><time>2026-03-28T08:57:12.032Z</time></trkpt><trkpt lat="45.4190343" lon="10.534458"><ele>132.0</ele><time>2026-03-28T08:57:13.033Z</time></trkpt><trkpt lat="45.418854" lon="10.5345825"><ele>131.0</ele><time>2026-03-28T08:57:14.033Z</time></trkpt><trkpt lat="45.4186752" lon="10.5346795"><ele>130.0</ele><time>2026-03-28T08:57:15.033Z</time></trkpt><trkpt lat="45.4184968" lon="10.5347525"><ele>129.0</ele><time>2026-03-28T08:57:16.034Z</time></trkpt><trkpt lat="45.4183182" lon="10.534822"><ele>129.0</ele><time>2026-03-28T08:57:17.033Z</time></trkpt><trkpt lat="45.4181427" lon="10.5348938"><ele>129.0</ele><time>2026-03-28T08:57:18.033Z</time></trkpt><trkpt lat="45.4179735" lon="10.5349777"><ele>129.0</ele><time>2026-03-28T08:57:19.034Z</time></trkpt><trkpt lat="45.4178183" lon="10.5350832"><ele>128.66666666666666</ele><time>2026-03-28T08:57:20.033Z</time></trkpt><trkpt lat="45.4176748" lon="10.5352172"><ele>128.33333333333331</ele><time>2026-03-28T08:57:21.034Z</time></trkpt><trkpt lat="45.4175357" lon="10.5353663"><ele>128.0</ele><time>2026-03-28T08:57:22.034Z</time></trkpt><trkpt lat="45.4173967" lon="10.5354995"><ele>128.0</ele><time>2026-03-28T08:57:23.036Z</time></trkpt><trkpt lat="45.417255" lon="10.5356015"><ele>128.0</ele><time>2026-03-28T08:57:24.031Z</time></trkpt><trkpt lat="45.4171083" lon="10.535672"><ele>128.0</ele><time>2026-03-28T08:57:25.031Z</time></trkpt><trkpt lat="45.416953" lon="10.535723"><ele>127.33333333333333</ele><time>2026-03-28T08:57:26.03Z</time></trkpt><trkpt lat="45.4167933" lon="10.5357647"><ele>126.66666666666666</ele><time>2026-03-28T08:57:27.028Z</time></trkpt><trkpt lat="45.4166375" lon="10.5358007"><ele>126.0</ele><time>2026-03-28T08:57:28.029Z</time></trkpt><trkpt lat="45.4164938" lon="10.535836"><ele>126.0</ele><time>2026-03-28T08:57:29.032Z</time></trkpt><trkpt lat="45.416361" lon="10.5358922"><ele>126.0</ele><time>2026-03-28T08:57:30.033Z</time></trkpt><trkpt lat="45.4162302" lon="10.5359838"><ele>126.0</ele><time>2026-03-28T08:57:31.035Z</time></trkpt><trkpt lat="45.4161053" lon="10.5360955"><ele>126.0</ele><time>2026-03-28T08:57:32.034Z</time></trkpt><trkpt lat="45.4159942" lon="10.5362063"><ele>126.25</ele><time>2026-03-28T08:57:33.032Z</time></trkpt><trkpt lat="45.4158918" lon="10.5363185"><ele>126.5</ele><time>2026-03-28T08:57:34.032Z</time></trkpt><trkpt lat="45.415791" lon="10.5364382"><ele>126.75</ele><time>2026-03-28T08:57:35.032Z</time></trkpt><trkpt lat="45.4156922" lon="10.536567"><ele>127.0</ele><time>2026-03-28T08:57:36.033Z</time></trkpt><trkpt lat="45.4155963" lon="10.5367268"><ele>127.0</ele><time>2026-03-28T08:57:37.032Z</time></trkpt><trkpt lat="45.415504" lon="10.5369308"><ele>127.0</ele><time>2026-03-28T08:57:38.035Z</time></trkpt><trkpt lat="45.4153982" lon="10.5371713"><ele>127.0</ele><time>2026-03-28T08:57:39.032Z</time></trkpt><trkpt lat="45.415281" lon="10.5374243"><ele>126.66666666666667</ele><time>2026-03-28T08:57:40.034Z</time></trkpt><trkpt lat="45.4151547" lon="10.5376725"><ele>126.33333333333334</ele><time>2026-03-28T08:57:41.036Z</time></trkpt><trkpt lat="45.4150183" lon="10.5378978"><ele>126.0</ele><time>2026-03-28T08:57:42.036Z</time></trkpt><trkpt lat="45.4148598" lon="10.5381063"><ele>125.5</ele><time>2026-03-28T08:57:43.037Z</time></trkpt><trkpt lat="45.4146755" lon="10.5383078"><ele>125.0</ele><time>2026-03-28T08:57:44.037Z</time></trkpt><trkpt lat="45.4144717" lon="10.5385128"><ele>125.0</ele><time>2026-03-28T08:57:45.036Z</time></trkpt><trkpt lat="45.4142668" lon="10.5387128"><ele>125.0</ele><time>2026-03-28T08:57:46.036Z</time></trkpt><trkpt lat="45.4140723" lon="10.5388998"><ele>125.0</ele><time>2026-03-28T08:57:47.036Z</time></trkpt><trkpt lat="45.4138855" lon="10.5390762"><ele>125.0</ele><time>2026-03-28T08:57:48.035Z</time></trkpt><trkpt lat="45.413701" lon="10.5392435"><ele>125.0</ele><time>2026-03-28T08:57:49.032Z</time></trkpt><trkpt lat="45.413515" lon="10.5393955"><ele>125.0</ele><time>2026-03-28T08:57:50.032Z</time></trkpt><trkpt lat="45.4133368" lon="10.5395285"><ele>125.0</ele><time>2026-03-28T08:57:51.033Z</time></trkpt><trkpt lat="45.413173" lon="10.5396495"><ele>125.0</ele><time>2026-03-28T08:57:52.034Z</time></trkpt><trkpt lat="45.4130243" lon="10.5397647"><ele>125.33333333333333</ele><time>2026-03-28T08:57:53.033Z</time></trkpt><trkpt lat="45.4128895" lon="10.539888"><ele>125.66666666666666</ele><time>2026-03-28T08:57:54.037Z</time></trkpt><trkpt lat="45.4127707" lon="10.5400362"><ele>126.0</ele><time>2026-03-28T08:57:55.035Z</time></trkpt><trkpt lat="45.4126653" lon="10.540223"><ele>127.0</ele><time>2026-03-28T08:57:56.034Z</time></trkpt><trkpt lat="45.4125665" lon="10.5404485"><ele>128.0</ele><time>2026-03-28T08:57:57.038Z</time></trkpt><trkpt lat="45.4124627" lon="10.540705"><ele>129.0</ele><time>2026-03-28T08:57:58.036Z</time></trkpt><trkpt lat="45.4123395" lon="10.5409822"><ele>129.5</ele><time>2026-03-28T08:57:59.038Z</time></trkpt><trkpt lat="45.4122008" lon="10.5412547"><ele>130.0</ele><time>2026-03-28T08:58:00.034Z</time></trkpt><trkpt lat="45.4120498" lon="10.5415267"><ele>128.5</ele><time>2026-03-28T08:58:01.033Z</time></trkpt><trkpt lat="45.411889" lon="10.541814"><ele>127.0</ele><time>2026-03-28T08:58:02.037Z</time></trkpt><trkpt lat="45.4117358" lon="10.5421008"><ele>126.5</ele><time>2026-03-28T08:58:03.036Z</time></trkpt><trkpt lat="45.411594" lon="10.5423797"><ele>126.0</ele><time>2026-03-28T08:58:04.04Z</time></trkpt><trkpt lat="45.4114645" lon="10.5426457"><ele>126.0</ele><time>2026-03-28T08:58:05.035Z</time></trkpt><trkpt lat="45.4113478" lon="10.542896"><ele>126.0</ele><time>2026-03-28T08:58:06.035Z</time></trkpt><trkpt lat="45.4112485" lon="10.5431378"><ele>126.0</ele><time>2026-03-28T08:58:07.035Z</time></trkpt><trkpt lat="45.4111782" lon="10.5433813"><ele>124.66666666666666</ele><time>2026-03-28T08:58:08.037Z</time></trkpt><trkpt lat="45.411124" lon="10.543617"><ele>123.33333333333333</ele><time>2026-03-28T08:58:09.035Z</time></trkpt><trkpt lat="45.411053" lon="10.5438378"><ele>122.0</ele><time>2026-03-28T08:58:10.038Z</time></trkpt><trkpt lat="45.4109468" lon="10.5440522"><ele>122.0</ele><time>2026-03-28T08:58:11.036Z</time></trkpt><trkpt lat="45.4108032" lon="10.5442588"><ele>122.0</ele><time>2026-03-28T08:58:12.034Z</time></trkpt><trkpt lat="45.4106325" lon="10.5444688"><ele>122.0</ele><time>2026-03-28T08:58:13.034Z</time></trkpt><trkpt lat="45.4104573" lon="10.544686"><ele>121.66666666666666</ele><time>2026-03-28T08:58:14.033Z</time></trkpt><trkpt lat="45.4102915" lon="10.5448857"><ele>121.33333333333334</ele><time>2026-03-28T08:58:15.032Z</time></trkpt><trkpt lat="45.4101317" lon="10.545072"><ele>121.0</ele><time>2026-03-28T08:58:16.033Z</time></trkpt><trkpt lat="45.4099735" lon="10.5452587"><ele>121.33333333333334</ele><time>2026-03-28T08:58:17.037Z</time></trkpt><trkpt lat="45.4098248" lon="10.545438"><ele>121.66666666666666</ele><time>2026-03-28T08:58:18.039Z</time></trkpt><trkpt lat="45.4096825" lon="10.5455955"><ele>122.0</ele><time>2026-03-28T08:58:19.037Z</time></trkpt><trkpt lat="45.4095362" lon="10.5457172"><ele>120.0</ele><time>2026-03-28T08:58:20.034Z</time></trkpt><trkpt lat="45.4093922" lon="10.545797"><ele>118.0</ele><time>2026-03-28T08:58:21.037Z</time></trkpt><trkpt lat="45.4092588" lon="10.5458475"><ele>116.0</ele><time>2026-03-28T08:58:22.035Z</time></trkpt><trkpt lat="45.4091387" lon="10.5458778"><ele>114.0</ele><time>2026-03-28T08:58:23.037Z</time></trkpt><trkpt lat="45.4090323" lon="10.5458905"><ele>114.0</ele><time>2026-03-28T08:58:24.035Z</time></trkpt><trkpt lat="45.4089363" lon="10.5458882"><ele>114.0</ele><time>2026-03-28T08:58:25.035Z</time></trkpt><trkpt lat="45.4088435" lon="10.5458767"><ele>114.0</ele><time>2026-03-28T08:58:26.035Z</time></trkpt><trkpt lat="45.4087472" lon="10.5458602"><ele>114.0</ele><time>2026-03-28T08:58:27.035Z</time></trkpt><trkpt lat="45.4086445" lon="10.5458462"><ele>114.0</ele><time>2026-03-28T08:58:28.035Z</time></trkpt><trkpt lat="45.4085273" lon="10.5458343"><ele>113.6</ele><time>2026-03-28T08:58:29.036Z</time></trkpt><trkpt lat="45.4084138" lon="10.5458207"><ele>113.2</ele><time>2026-03-28T08:58:30.037Z</time></trkpt><trkpt lat="45.408309" lon="10.5458057"><ele>112.79999999999998</ele><time>2026-03-28T08:58:31.038Z</time></trkpt><trkpt lat="45.4082058" lon="10.5457973"><ele>112.39999999999999</ele><time>2026-03-28T08:58:32.037Z</time></trkpt><trkpt lat="45.4080948" lon="10.5458093"><ele>112.0</ele><time>2026-03-28T08:58:33.035Z</time></trkpt><trkpt lat="45.4079662" lon="10.5458437"><ele>112.0</ele><time>2026-03-28T08:58:34.035Z</time></trkpt><trkpt lat="45.4078277" lon="10.5458843"><ele>112.0</ele><time>2026-03-28T08:58:35.036Z</time></trkpt><trkpt lat="45.4076858" lon="10.545913"><ele>112.0</ele><time>2026-03-28T08:58:36.035Z</time></trkpt><trkpt lat="45.4075542" lon="10.54594"><ele>112.0</ele><time>2026-03-28T08:58:37.037Z</time></trkpt><trkpt lat="45.4074363" lon="10.5459713"><ele>112.0</ele><time>2026-03-28T08:58:38.035Z</time></trkpt><trkpt lat="45.407325" lon="10.5460108"><ele>112.0</ele><time>2026-03-28T08:58:39.035Z</time></trkpt><trkpt lat="45.4072165" lon="10.5460698"><ele>112.0</ele><time>2026-03-28T08:58:40.034Z</time></trkpt><trkpt lat="45.4071115" lon="10.5461532"><ele>112.0</ele><time>2026-03-28T08:58:41.035Z</time></trkpt><trkpt lat="45.4070093" lon="10.5462583"><ele>113.33333333333334</ele><time>2026-03-28T08:58:42.036Z</time></trkpt><trkpt lat="45.4068993" lon="10.5463917"><ele>114.66666666666666</ele><time>2026-03-28T08:58:43.037Z</time></trkpt><trkpt lat="45.4067752" lon="10.546551"><ele>116.0</ele><time>2026-03-28T08:58:44.037Z</time></trkpt><trkpt lat="45.4066403" lon="10.5467212"><ele>116.0</ele><time>2026-03-28T08:58:45.037Z</time></trkpt><trkpt lat="45.4065093" lon="10.5468735"><ele>116.0</ele><time>2026-03-28T08:58:46.037Z</time></trkpt><trkpt lat="45.4063785" lon="10.5470087"><ele>116.0</ele><time>2026-03-28T08:58:47.035Z</time></trkpt><trkpt lat="45.4062422" lon="10.5471193"><ele>118.0</ele><time>2026-03-28T08:58:48.036Z</time></trkpt><trkpt lat="45.4060933" lon="10.5472083"><ele>120.0</ele><time>2026-03-28T08:58:49.036Z</time></trkpt><trkpt lat="45.405938" lon="10.5472818"><ele>122.0</ele><time>2026-03-28T08:58:50.039Z</time></trkpt><trkpt lat="45.4057845" lon="10.5473525"><ele>122.0</ele><time>2026-03-28T08:58:51.037Z</time></trkpt><trkpt lat="45.405642" lon="10.5474183"><ele>122.0</ele><time>2026-03-28T08:58:52.036Z</time></trkpt><trkpt lat="45.4055162" lon="10.5474805"><ele>122.0</ele><time>2026-03-28T08:58:53.037Z</time></trkpt><trkpt lat="45.405393" lon="10.5475552"><ele>122.0</ele><time>2026-03-28T08:58:54.038Z</time></trkpt><trkpt lat="45.405264" lon="10.5476513"><ele>122.33333333333333</ele><time>2026-03-28T08:58:55.039Z</time></trkpt><trkpt lat="45.4051243" lon="10.5477678"><ele>122.66666666666666</ele><time>2026-03-28T08:58:56.036Z</time></trkpt><trkpt lat="45.4049737" lon="10.5478935"><ele>123.0</ele><time>2026-03-28T08:58:57.036Z</time></trkpt><trkpt lat="45.4048165" lon="10.548025"><ele>121.33333333333334</ele><time>2026-03-28T08:58:58.036Z</time></trkpt><trkpt lat="45.4046552" lon="10.5481617"><ele>119.66666666666667</ele><time>2026-03-28T08:58:59.037Z</time></trkpt><trkpt lat="45.4044952" lon="10.5482987"><ele>118.0</ele><time>2026-03-28T08:59:00.036Z</time></trkpt><trkpt lat="45.4043467" lon="10.5484273"><ele>118.0</ele><time>2026-03-28T08:59:01.036Z</time></trkpt><trkpt lat="45.404211" lon="10.5485477"><ele>118.0</ele><time>2026-03-28T08:59:02.033Z</time></trkpt><trkpt lat="45.404089" lon="10.5486602"><ele>118.0</ele><time>2026-03-28T08:59:03.032Z</time></trkpt><trkpt lat="45.4039822" lon="10.5487743"><ele>118.0</ele><time>2026-03-28T08:59:04.032Z</time></trkpt><trkpt lat="45.4038898" lon="10.5488982"><ele>117.75</ele><time>2026-03-28T08:59:05.032Z</time></trkpt><trkpt lat="45.4037947" lon="10.5490282"><ele>117.5</ele><time>2026-03-28T08:59:06.035Z</time></trkpt><trkpt lat="45.4036895" lon="10.5491548"><ele>117.25</ele><time>2026-03-28T08:59:07.038Z</time></trkpt><trkpt lat="45.4035733" lon="10.5492638"><ele>117.0</ele><time>2026-03-28T08:59:08.036Z</time></trkpt><trkpt lat="45.4034508" lon="10.5493512"><ele>117.0</ele><time>2026-03-28T08:59:09.034Z</time></trkpt><trkpt lat="45.403329" lon="10.5494197"><ele>117.0</ele><time>2026-03-28T08:59:10.036Z</time></trkpt><trkpt lat="45.4032087" lon="10.5494673"><ele>117.0</ele><time>2026-03-28T08:59:11.036Z</time></trkpt><trkpt lat="45.4030875" lon="10.549488"><ele>117.0</ele><time>2026-03-28T08:59:12.035Z</time></trkpt><trkpt lat="45.4029687" lon="10.5494765"><ele>116.6</ele><time>2026-03-28T08:59:13.034Z</time></trkpt><trkpt lat="45.4028613" lon="10.5494537"><ele>116.19999999999999</ele><time>2026-03-28T08:59:14.038Z</time></trkpt><trkpt lat="45.4027513" lon="10.549442"><ele>115.8</ele><time>2026-03-28T08:59:15.035Z</time></trkpt><trkpt lat="45.4026498" lon="10.5494502"><ele>115.4</ele><time>2026-03-28T08:59:16.036Z</time></trkpt><trkpt lat="45.4025527" lon="10.549483"><ele>115.0</ele><time>2026-03-28T08:59:17.037Z</time></trkpt><trkpt lat="45.4024562" lon="10.549541"><ele>115.25</ele><time>2026-03-28T08:59:18.033Z</time></trkpt><trkpt lat="45.4023612" lon="10.5496213"><ele>115.5</ele><time>2026-03-28T08:59:19.034Z</time></trkpt><trkpt lat="45.4022687" lon="10.54972"><ele>115.75</ele><time>2026-03-28T08:59:20.034Z</time></trkpt><trkpt lat="45.4021768" lon="10.5498338"><ele>116.0</ele><time>2026-03-28T08:59:21.035Z</time></trkpt><trkpt lat="45.4020783" lon="10.5499635"><ele>116.0</ele><time>2026-03-28T08:59:22.034Z</time></trkpt><trkpt lat="45.4019805" lon="10.5500987"><ele>116.0</ele><time>2026-03-28T08:59:23.033Z</time></trkpt><trkpt lat="45.4018788" lon="10.5502447"><ele>116.0</ele><time>2026-03-28T08:59:24.034Z</time></trkpt><trkpt lat="45.4017743" lon="10.5503942"><ele>116.0</ele><time>2026-03-28T08:59:25.034Z</time></trkpt><trkpt lat="45.4016692" lon="10.5505367"><ele>116.25</ele><time>2026-03-28T08:59:26.035Z</time></trkpt><trkpt lat="45.4015683" lon="10.5506688"><ele>116.5</ele><time>2026-03-28T08:59:27.035Z</time></trkpt><trkpt lat="45.4014763" lon="10.5507867"><ele>116.75</ele><time>2026-03-28T08:59:28.034Z</time></trkpt><trkpt lat="45.401385" lon="10.5508897"><ele>117.0</ele><time>2026-03-28T08:59:29.035Z</time></trkpt><trkpt lat="45.4012953" lon="10.5509668"><ele>116.25</ele><time>2026-03-28T08:59:30.032Z</time></trkpt><trkpt lat="45.401196" lon="10.5510198"><ele>115.5</ele><time>2026-03-28T08:59:31.035Z</time></trkpt><trkpt lat="45.4010848" lon="10.5510498"><ele>114.75</ele><time>2026-03-28T08:59:32.038Z</time></trkpt><trkpt lat="45.4009533" lon="10.5510618"><ele>114.0</ele><time>2026-03-28T08:59:33.034Z</time></trkpt><trkpt lat="45.4008017" lon="10.5510633"><ele>114.0</ele><time>2026-03-28T08:59:34.037Z</time></trkpt><trkpt lat="45.4006623" lon="10.5510663"><ele>114.0</ele><time>2026-03-28T08:59:35.036Z</time></trkpt><trkpt lat="45.4005295" lon="10.551084"><ele>114.0</ele><time>2026-03-28T08:59:36.036Z</time></trkpt><trkpt lat="45.4003998" lon="10.5511163"><ele>114.0</ele><time>2026-03-28T08:59:37.035Z</time></trkpt><trkpt lat="45.4002773" lon="10.5511732"><ele>113.25</ele><time>2026-03-28T08:59:38.036Z</time></trkpt><trkpt lat="45.4001575" lon="10.5512612"><ele>112.5</ele><time>2026-03-28T08:59:39.034Z</time></trkpt><trkpt lat="45.4000442" lon="10.5513575"><ele>111.75</ele><time>2026-03-28T08:59:40.036Z</time></trkpt><trkpt lat="45.3999335" lon="10.5514387"><ele>111.0</ele><time>2026-03-28T08:59:41.036Z</time></trkpt><trkpt lat="45.3998225" lon="10.5514893"><ele>111.0</ele><time>2026-03-28T08:59:42.035Z</time></trkpt><trkpt lat="45.3996963" lon="10.5515177"><ele>111.0</ele><time>2026-03-28T08:59:43.035Z</time></trkpt><trkpt lat="45.3995553" lon="10.5515332"><ele>111.0</ele><time>2026-03-28T08:59:44.037Z</time></trkpt><trkpt lat="45.3994195" lon="10.5515455"><ele>111.0</ele><time>2026-03-28T08:59:45.038Z</time></trkpt><trkpt lat="45.3992945" lon="10.5515523"><ele>111.8</ele><time>2026-03-28T08:59:46.033Z</time></trkpt><trkpt lat="45.399175" lon="10.5515442"><ele>112.6</ele><time>2026-03-28T08:59:47.033Z</time></trkpt><trkpt lat="45.3990665" lon="10.5515448"><ele>113.4</ele><time>2026-03-28T08:59:48.032Z</time></trkpt><trkpt lat="45.3989553" lon="10.5515565"><ele>114.2</ele><time>2026-03-28T08:59:49.034Z</time></trkpt><trkpt lat="45.3988498" lon="10.5515873"><ele>115.0</ele><time>2026-03-28T08:59:50.033Z</time></trkpt><trkpt lat="45.3987435" lon="10.5516382"><ele>117.0</ele><time>2026-03-28T08:59:51.032Z</time></trkpt><trkpt lat="45.3986357" lon="10.5517057"><ele>119.0</ele><time>2026-03-28T08:59:52.031Z</time></trkpt><trkpt lat="45.3985265" lon="10.5517643"><ele>121.0</ele><time>2026-03-28T08:59:53.033Z</time></trkpt><trkpt lat="45.398418" lon="10.5518125"><ele>123.0</ele><time>2026-03-28T08:59:54.031Z</time></trkpt><trkpt lat="45.3983083" lon="10.5518457"><ele>123.0</ele><time>2026-03-28T08:59:55.033Z</time></trkpt><trkpt lat="45.3981903" lon="10.5518688"><ele>123.0</ele><time>2026-03-28T08:59:56.033Z</time></trkpt><trkpt lat="45.3980597" lon="10.5518693"><ele>123.0</ele><time>2026-03-28T08:59:57.032Z</time></trkpt><trkpt lat="45.397924" lon="10.5518482"><ele>123.0</ele><time>2026-03-28T08:59:58.033Z</time></trkpt><trkpt lat="45.397802" lon="10.5518228"><ele>122.75</ele><time>2026-03-28T08:59:59.035Z</time></trkpt><trkpt lat="45.3976783" lon="10.5518005"><ele>122.5</ele><time>2026-03-28T09:00:00.033Z</time></trkpt><trkpt lat="45.3975518" lon="10.5517783"><ele>122.25</ele><time>2026-03-28T09:00:01.035Z</time></trkpt><trkpt lat="45.397426" lon="10.5517603"><ele>122.0</ele><time>2026-03-28T09:00:02.035Z</time></trkpt><trkpt lat="45.3973117" lon="10.5517417"><ele>122.0</ele><time>2026-03-28T09:00:03.035Z</time></trkpt><trkpt lat="45.3972097" lon="10.5517212"><ele>121.99999999999999</ele><time>2026-03-28T09:00:04.038Z</time></trkpt><trkpt lat="45.3971222" lon="10.5517105"><ele>121.99999999999999</ele><time>2026-03-28T09:00:05.036Z</time></trkpt><trkpt lat="45.3970513" lon="10.5517217"><ele>122.0</ele><time>2026-03-28T09:00:06.033Z</time></trkpt><trkpt lat="45.3969667" lon="10.5518397"><ele>122.0</ele><time>2026-03-28T09:00:08.036Z</time></trkpt><trkpt lat="45.3969505" lon="10.5519395"><ele>123.6</ele><time>2026-03-28T09:00:09.031Z</time></trkpt><trkpt lat="45.3969478" lon="10.5520598"><ele>125.19999999999999</ele><time>2026-03-28T09:00:10.033Z</time></trkpt><trkpt lat="45.3969527" lon="10.552197"><ele>126.8</ele><time>2026-03-28T09:00:11.032Z</time></trkpt><trkpt lat="45.3969972" lon="10.5523563"><ele>128.4</ele><time>2026-03-28T09:00:12.031Z</time></trkpt><trkpt lat="45.3970502" lon="10.5525132"><ele>130.0</ele><time>2026-03-28T09:00:13.032Z</time></trkpt><trkpt lat="45.3971027" lon="10.5526455"><ele>130.0</ele><time>2026-03-28T09:00:14.03Z</time></trkpt><trkpt lat="45.3971502" lon="10.5527927"><ele>130.0</ele><time>2026-03-28T09:00:15.03Z</time></trkpt><trkpt lat="45.3971975" lon="10.5529663"><ele>130.0</ele><time>2026-03-28T09:00:16.028Z</time></trkpt><trkpt lat="45.397232" lon="10.5531527"><ele>130.0</ele><time>2026-03-28T09:00:17.027Z</time></trkpt><trkpt lat="45.397283" lon="10.5533193"><ele>126.25</ele><time>2026-03-28T09:00:18.028Z</time></trkpt><trkpt lat="45.397337" lon="10.553481"><ele>122.5</ele><time>2026-03-28T09:00:19.03Z</time></trkpt><trkpt lat="45.397391" lon="10.5536302"><ele>118.75</ele><time>2026-03-28T09:00:20.033Z</time></trkpt><trkpt lat="45.3974437" lon="10.5537978"><ele>115.0</ele><time>2026-03-28T09:00:21.034Z</time></trkpt><trkpt lat="45.3974932" lon="10.5539568"><ele>114.6</ele><time>2026-03-28T09:00:22.034Z</time></trkpt><trkpt lat="45.397538" lon="10.5541005"><ele>114.2</ele><time>2026-03-28T09:00:23.034Z</time></trkpt><trkpt lat="45.3975785" lon="10.5542283"><ele>113.80000000000001</ele><time>2026-03-28T09:00:24.033Z</time></trkpt><trkpt lat="45.3976078" lon="10.5543523"><ele>113.4</ele><time>2026-03-28T09:00:25.033Z</time></trkpt><trkpt lat="45.3976242" lon="10.5544767"><ele>113.0</ele><time>2026-03-28T09:00:26.032Z</time></trkpt><trkpt lat="45.397626" lon="10.5546085"><ele>112.25</ele><time>2026-03-28T09:00:27.032Z</time></trkpt><trkpt lat="45.3976125" lon="10.554764"><ele>111.5</ele><time>2026-03-28T09:00:28.033Z</time></trkpt><trkpt lat="45.3975827" lon="10.554944"><ele>110.75</ele><time>2026-03-28T09:00:29.034Z</time></trkpt><trkpt lat="45.3975312" lon="10.5551448"><ele>110.0</ele><time>2026-03-28T09:00:30.033Z</time></trkpt><trkpt lat="45.3974717" lon="10.5553722"><ele>108.33333333333333</ele><time>2026-03-28T09:00:31.035Z</time></trkpt><trkpt lat="45.3974135" lon="10.5556173"><ele>106.66666666666666</ele><time>2026-03-28T09:00:32.034Z</time></trkpt><trkpt lat="45.3973668" lon="10.5558622"><ele>105.0</ele><time>2026-03-28T09:00:33.034Z</time></trkpt><trkpt lat="45.3973327" lon="10.5560927"><ele>105.25</ele><time>2026-03-28T09:00:34.034Z</time></trkpt><trkpt lat="45.3973032" lon="10.5563057"><ele>105.5</ele><time>2026-03-28T09:00:35.035Z</time></trkpt><trkpt lat="45.3972793" lon="10.5564997"><ele>105.75</ele><time>2026-03-28T09:00:36.034Z</time></trkpt><trkpt lat="45.39726" lon="10.5566815"><ele>106.0</ele><time>2026-03-28T09:00:37.032Z</time></trkpt><trkpt lat="45.3972353" lon="10.5568637"><ele>106.0</ele><time>2026-03-28T09:00:38.033Z</time></trkpt><trkpt lat="45.3972007" lon="10.5570293"><ele>106.0</ele><time>2026-03-28T09:00:39.031Z</time></trkpt><trkpt lat="45.3971513" lon="10.5571743"><ele>106.0</ele><time>2026-03-28T09:00:40.03Z</time></trkpt><trkpt lat="45.3970762" lon="10.5573213"><ele>106.0</ele><time>2026-03-28T09:00:41.031Z</time></trkpt><trkpt lat="45.3969802" lon="10.5574853"><ele>105.33333333333334</ele><time>2026-03-28T09:00:42.03Z</time></trkpt><trkpt lat="45.396894" lon="10.5576653"><ele>104.66666666666666</ele><time>2026-03-28T09:00:43.031Z</time></trkpt><trkpt lat="45.3968288" lon="10.5578732"><ele>104.0</ele><time>2026-03-28T09:00:44.033Z</time></trkpt><trkpt lat="45.3967842" lon="10.5581103"><ele>104.0</ele><time>2026-03-28T09:00:45.034Z</time></trkpt><trkpt lat="45.3967623" lon="10.5583705"><ele>104.0</ele><time>2026-03-28T09:00:46.032Z</time></trkpt><trkpt lat="45.396763" lon="10.5586448"><ele>104.0</ele><time>2026-03-28T09:00:47.036Z</time></trkpt><trkpt lat="45.3967758" lon="10.5589293"><ele>104.0</ele><time>2026-03-28T09:00:48.033Z</time></trkpt><trkpt lat="45.3967943" lon="10.5592225"><ele>104.0</ele><time>2026-03-28T09:00:49.034Z</time></trkpt><trkpt lat="45.3968158" lon="10.5595322"><ele>104.0</ele><time>2026-03-28T09:00:50.034Z</time></trkpt><trkpt lat="45.3968343" lon="10.5598415"><ele>104.0</ele><time>2026-03-28T09:00:51.038Z</time></trkpt><trkpt lat="45.3968487" lon="10.5601315"><ele>104.0</ele><time>2026-03-28T09:00:52.037Z</time></trkpt><trkpt lat="45.3968567" lon="10.5604033"><ele>104.0</ele><time>2026-03-28T09:00:53.036Z</time></trkpt><trkpt lat="45.3968583" lon="10.5606612"><ele>104.0</ele><time>2026-03-28T09:00:54.035Z</time></trkpt><trkpt lat="45.3968473" lon="10.5609195"><ele>104.0</ele><time>2026-03-28T09:00:55.034Z</time></trkpt><trkpt lat="45.3968158" lon="10.5611818"><ele>104.0</ele><time>2026-03-28T09:00:56.036Z</time></trkpt><trkpt lat="45.3967655" lon="10.561456"><ele>104.0</ele><time>2026-03-28T09:00:57.034Z</time></trkpt><trkpt lat="45.3967008" lon="10.5617473"><ele>104.0</ele><time>2026-03-28T09:00:58.038Z</time></trkpt><trkpt lat="45.3966275" lon="10.5620482"><ele>104.0</ele><time>2026-03-28T09:00:59.036Z</time></trkpt><trkpt lat="45.3965513" lon="10.5623332"><ele>103.0</ele><time>2026-03-28T09:01:00.037Z</time></trkpt><trkpt lat="45.3964733" lon="10.5625905"><ele>102.0</ele><time>2026-03-28T09:01:01.036Z</time></trkpt><trkpt lat="45.3963962" lon="10.562815"><ele>101.0</ele><time>2026-03-28T09:01:02.037Z</time></trkpt><trkpt lat="45.3963238" lon="10.563015"><ele>101.0</ele><time>2026-03-28T09:01:03.034Z</time></trkpt><trkpt lat="45.3962593" lon="10.5631907"><ele>101.0</ele><time>2026-03-28T09:01:04.037Z</time></trkpt><trkpt lat="45.3962053" lon="10.5633297"><ele>101.0</ele><time>2026-03-28T09:01:05.032Z</time></trkpt><trkpt lat="45.3961653" lon="10.5634282"><ele>101.0</ele><time>2026-03-28T09:01:06.034Z</time></trkpt><trkpt lat="45.3961455" lon="10.5636033"><ele>101.0</ele><time>2026-03-28T09:01:08.042Z</time></trkpt><trkpt lat="45.3961773" lon="10.563697"><ele>101.0</ele><time>2026-03-28T09:01:09.049Z</time></trkpt><trkpt lat="45.3962395" lon="10.5637963"><ele>101.0</ele><time>2026-03-28T09:01:10.038Z</time></trkpt><trkpt lat="45.3963217" lon="10.5639127"><ele>101.0</ele><time>2026-03-28T09:01:11.05Z</time></trkpt><trkpt lat="45.396404" lon="10.5640318"><ele>101.0</ele><time>2026-03-28T09:01:12.034Z</time></trkpt><trkpt lat="45.3964958" lon="10.5641607"><ele>101.33333333333333</ele><time>2026-03-28T09:01:13.034Z</time></trkpt><trkpt lat="45.3966075" lon="10.5643083"><ele>101.66666666666666</ele><time>2026-03-28T09:01:14.033Z</time></trkpt><trkpt lat="45.3967345" lon="10.5644792"><ele>102.0</ele><time>2026-03-28T09:01:15.033Z</time></trkpt><trkpt lat="45.3968728" lon="10.5646708"><ele>102.0</ele><time>2026-03-28T09:01:16.035Z</time></trkpt><trkpt lat="45.3970032" lon="10.5648537"><ele>102.0</ele><time>2026-03-28T09:01:17.038Z</time></trkpt><trkpt lat="45.3971275" lon="10.5650227"><ele>102.0</ele><time>2026-03-28T09:01:18.034Z</time></trkpt><trkpt lat="45.3972407" lon="10.5651863"><ele>102.0</ele><time>2026-03-28T09:01:19.036Z</time></trkpt><trkpt lat="45.3973355" lon="10.565353"><ele>102.0</ele><time>2026-03-28T09:01:20.035Z</time></trkpt><trkpt lat="45.397408" lon="10.565537"><ele>102.0</ele><time>2026-03-28T09:01:21.052Z</time></trkpt><trkpt lat="45.3974638" lon="10.5657485"><ele>102.0</ele><time>2026-03-28T09:01:22.034Z</time></trkpt><trkpt lat="45.3975365" lon="10.5659672"><ele>102.0</ele><time>2026-03-28T09:01:23.035Z</time></trkpt><trkpt lat="45.3976423" lon="10.5661863"><ele>102.0</ele><time>2026-03-28T09:01:24.034Z</time></trkpt><trkpt lat="45.3977753" lon="10.566406"><ele>102.0</ele><time>2026-03-28T09:01:25.035Z</time></trkpt><trkpt lat="45.3979288" lon="10.5666335"><ele>102.0</ele><time>2026-03-28T09:01:26.033Z</time></trkpt><trkpt lat="45.3980888" lon="10.566852"><ele>102.0</ele><time>2026-03-28T09:01:27.039Z</time></trkpt><trkpt lat="45.398261" lon="10.5670715"><ele>103.0</ele><time>2026-03-28T09:01:28.037Z</time></trkpt><trkpt lat="45.3984312" lon="10.5672762"><ele>104.0</ele><time>2026-03-28T09:01:29.036Z</time></trkpt><trkpt lat="45.3985925" lon="10.5674637"><ele>105.0</ele><time>2026-03-28T09:01:30.031Z</time></trkpt><trkpt lat="45.3987427" lon="10.567635"><ele>105.66666666666666</ele><time>2026-03-28T09:01:31.032Z</time></trkpt><trkpt lat="45.3988795" lon="10.5677973"><ele>106.33333333333333</ele><time>2026-03-28T09:01:32.033Z</time></trkpt><trkpt lat="45.3990113" lon="10.5679657"><ele>107.0</ele><time>2026-03-28T09:01:33.034Z</time></trkpt><trkpt lat="45.3991432" lon="10.5681467"><ele>107.66666666666666</ele><time>2026-03-28T09:01:34.036Z</time></trkpt><trkpt lat="45.3992665" lon="10.5683185"><ele>108.33333333333334</ele><time>2026-03-28T09:01:35.036Z</time></trkpt><trkpt lat="45.3993805" lon="10.568473"><ele>109.0</ele><time>2026-03-28T09:01:36.035Z</time></trkpt><trkpt lat="45.3994782" lon="10.5686033"><ele>109.6</ele><time>2026-03-28T09:01:37.034Z</time></trkpt><trkpt lat="45.3995462" lon="10.5686993"><ele>110.2</ele><time>2026-03-28T09:01:38.035Z</time></trkpt><trkpt lat="45.3995957" lon="10.5688058"><ele>110.79999999999998</ele><time>2026-03-28T09:01:40.036Z</time></trkpt><trkpt lat="45.3995977" lon="10.5688955"><ele>111.39999999999999</ele><time>2026-03-28T09:01:43.034Z</time></trkpt><trkpt lat="45.3997022" lon="10.5689862"><ele>112.0</ele><time>2026-03-28T09:01:46.036Z</time></trkpt><trkpt lat="45.399759" lon="10.5690867"><ele>112.0</ele><time>2026-03-28T09:01:47.034Z</time></trkpt><trkpt lat="45.399827" lon="10.5692108"><ele>112.0</ele><time>2026-03-28T09:01:48.034Z</time></trkpt><trkpt lat="45.3999098" lon="10.5693577"><ele>112.0</ele><time>2026-03-28T09:01:49.035Z</time></trkpt><trkpt lat="45.3999875" lon="10.5695052"><ele>112.0</ele><time>2026-03-28T09:01:50.034Z</time></trkpt><trkpt lat="45.4000393" lon="10.569639"><ele>112.5</ele><time>2026-03-28T09:01:51.035Z</time></trkpt><trkpt lat="45.4000715" lon="10.5697748"><ele>113.0</ele><time>2026-03-28T09:01:52.034Z</time></trkpt><trkpt lat="45.4000947" lon="10.5699483"><ele>113.5</ele><time>2026-03-28T09:01:53.033Z</time></trkpt><trkpt lat="45.4001098" lon="10.5701557"><ele>114.0</ele><time>2026-03-28T09:01:54.032Z</time></trkpt><trkpt lat="45.400132" lon="10.5703702"><ele>114.5</ele><time>2026-03-28T09:01:55.031Z</time></trkpt><trkpt lat="45.4001643" lon="10.5705597"><ele>115.0</ele><time>2026-03-28T09:01:56.031Z</time></trkpt><trkpt lat="45.4002142" lon="10.570723"><ele>115.5</ele><time>2026-03-28T09:01:57.031Z</time></trkpt><trkpt lat="45.4002785" lon="10.5708563"><ele>116.0</ele><time>2026-03-28T09:01:58.033Z</time></trkpt><trkpt lat="45.4003447" lon="10.5709585"><ele>116.0</ele><time>2026-03-28T09:01:59.033Z</time></trkpt><trkpt lat="45.4003943" lon="10.5710368"><ele>116.0</ele><time>2026-03-28T09:02:00.032Z</time></trkpt><trkpt lat="45.400427" lon="10.571132"><ele>116.0</ele><time>2026-03-28T09:02:02.034Z</time></trkpt><trkpt lat="45.4003917" lon="10.5709938"><ele>116.0</ele><time>2026-03-28T09:02:07.033Z</time></trkpt><trkpt lat="45.4003135" lon="10.570886"><ele>116.0</ele><time>2026-03-28T09:02:08.035Z</time></trkpt><trkpt lat="45.4002332" lon="10.5707352"><ele>116.0</ele><time>2026-03-28T09:02:09.032Z</time></trkpt><trkpt lat="45.4001713" lon="10.5705417"><ele>116.0</ele><time>2026-03-28T09:02:10.035Z</time></trkpt><trkpt lat="45.400136" lon="10.5703105"><ele>116.0</ele><time>2026-03-28T09:02:11.031Z</time></trkpt><trkpt lat="45.4001105" lon="10.5700577"><ele>115.5</ele><time>2026-03-28T09:02:12.031Z</time></trkpt><trkpt lat="45.400088" lon="10.5698377"><ele>115.0</ele><time>2026-03-28T09:02:13.032Z</time></trkpt><trkpt lat="45.400044" lon="10.5696518"><ele>114.5</ele><time>2026-03-28T09:02:14.031Z</time></trkpt><trkpt lat="45.3999627" lon="10.5694632"><ele>114.0</ele><time>2026-03-28T09:02:15.033Z</time></trkpt><trkpt lat="45.3998568" lon="10.5692722"><ele>114.0</ele><time>2026-03-28T09:02:16.035Z</time></trkpt><trkpt lat="45.3997668" lon="10.5691168"><ele>114.0</ele><time>2026-03-28T09:02:17.034Z</time></trkpt><trkpt lat="45.3997043" lon="10.5690038"><ele>114.0</ele><time>2026-03-28T09:02:18.033Z</time></trkpt><trkpt lat="45.3996593" lon="10.5689383"><ele>114.0</ele><time>2026-03-28T09:02:19.034Z</time></trkpt><trkpt lat="45.3995488" lon="10.5689495"><ele>114.0</ele><time>2026-03-28T09:02:21.034Z</time></trkpt><trkpt lat="45.3994727" lon="10.5690263"><ele>114.0</ele><time>2026-03-28T09:02:22.032Z</time></trkpt><trkpt lat="45.3993713" lon="10.5691692"><ele>114.0</ele><time>2026-03-28T09:02:23.033Z</time></trkpt><trkpt lat="45.3992583" lon="10.5693342"><ele>114.0</ele><time>2026-03-28T09:02:24.037Z</time></trkpt><trkpt lat="45.3991223" lon="10.5695398"><ele>115.0</ele><time>2026-03-28T09:02:25.033Z</time></trkpt><trkpt lat="45.398976" lon="10.5697557"><ele>116.0</ele><time>2026-03-28T09:02:26.033Z</time></trkpt><trkpt lat="45.398811" lon="10.5699883"><ele>117.0</ele><time>2026-03-28T09:02:27.034Z</time></trkpt><trkpt lat="45.3986427" lon="10.5702093"><ele>118.0</ele><time>2026-03-28T09:02:28.034Z</time></trkpt><trkpt lat="45.3984705" lon="10.5704232"><ele>119.0</ele><time>2026-03-28T09:02:29.032Z</time></trkpt><trkpt lat="45.3982857" lon="10.5706335"><ele>119.0</ele><time>2026-03-28T09:02:30.033Z</time></trkpt><trkpt lat="45.398085" lon="10.5708538"><ele>119.0</ele><time>2026-03-28T09:02:31.038Z</time></trkpt><trkpt lat="45.3978758" lon="10.571088"><ele>118.5</ele><time>2026-03-28T09:02:32.034Z</time></trkpt><trkpt lat="45.397667" lon="10.5713298"><ele>118.0</ele><time>2026-03-28T09:02:33.031Z</time></trkpt><trkpt lat="45.3974562" lon="10.5715805"><ele>118.0</ele><time>2026-03-28T09:02:34.037Z</time></trkpt><trkpt lat="45.3972533" lon="10.571823"><ele>118.0</ele><time>2026-03-28T09:02:35.032Z</time></trkpt><trkpt lat="45.3970593" lon="10.5720525"><ele>117.5</ele><time>2026-03-28T09:02:36.033Z</time></trkpt><trkpt lat="45.3968748" lon="10.5722695"><ele>117.0</ele><time>2026-03-28T09:02:37.034Z</time></trkpt><trkpt lat="45.3967128" lon="10.5724623"><ele>117.0</ele><time>2026-03-28T09:02:38.034Z</time></trkpt><trkpt lat="45.3965602" lon="10.5726358"><ele>117.0</ele><time>2026-03-28T09:02:39.034Z</time></trkpt><trkpt lat="45.3964067" lon="10.5727847"><ele>117.0</ele><time>2026-03-28T09:02:40.035Z</time></trkpt><trkpt lat="45.3962392" lon="10.5729125"><ele>117.66666666666666</ele><time>2026-03-28T09:02:41.034Z</time></trkpt><trkpt lat="45.3960512" lon="10.5730255"><ele>118.33333333333333</ele><time>2026-03-28T09:02:42.036Z</time></trkpt><trkpt lat="45.3958533" lon="10.5731353"><ele>119.0</ele><time>2026-03-28T09:02:43.033Z</time></trkpt><trkpt lat="45.3956593" lon="10.5732618"><ele>118.5</ele><time>2026-03-28T09:02:44.031Z</time></trkpt><trkpt lat="45.3954673" lon="10.5734303"><ele>118.0</ele><time>2026-03-28T09:02:45.032Z</time></trkpt><trkpt lat="45.3952707" lon="10.5736342"><ele>118.5</ele><time>2026-03-28T09:02:46.033Z</time></trkpt><trkpt lat="45.3950702" lon="10.5738505"><ele>119.0</ele><time>2026-03-28T09:02:47.034Z</time></trkpt><trkpt lat="45.394878" lon="10.5740582"><ele>119.0</ele><time>2026-03-28T09:02:48.035Z</time></trkpt><trkpt lat="45.3946903" lon="10.5742655"><ele>119.0</ele><time>2026-03-28T09:02:49.035Z</time></trkpt><trkpt lat="45.3945052" lon="10.5744775"><ele>119.0</ele><time>2026-03-28T09:02:50.036Z</time></trkpt><trkpt lat="45.394323" lon="10.5746957"><ele>119.0</ele><time>2026-03-28T09:02:51.034Z</time></trkpt><trkpt lat="45.3941427" lon="10.5749198"><ele>119.0</ele><time>2026-03-28T09:02:52.035Z</time></trkpt><trkpt lat="45.3939632" lon="10.5751467"><ele>119.0</ele><time>2026-03-28T09:02:53.035Z</time></trkpt><trkpt lat="45.3937878" lon="10.5753767"><ele>118.5</ele><time>2026-03-28T09:02:54.037Z</time></trkpt><trkpt lat="45.3936237" lon="10.5756147"><ele>118.0</ele><time>2026-03-28T09:02:55.035Z</time></trkpt><trkpt lat="45.393473" lon="10.5758723"><ele>118.0</ele><time>2026-03-28T09:02:56.035Z</time></trkpt><trkpt lat="45.3933338" lon="10.5761443"><ele>118.0</ele><time>2026-03-28T09:02:57.033Z</time></trkpt><trkpt lat="45.3931987" lon="10.5764227"><ele>119.0</ele><time>2026-03-28T09:02:58.034Z</time></trkpt><trkpt lat="45.3930662" lon="10.5766997"><ele>120.0</ele><time>2026-03-28T09:02:59.035Z</time></trkpt><trkpt lat="45.3929397" lon="10.5769608"><ele>119.33333333333334</ele><time>2026-03-28T09:03:00.036Z</time></trkpt><trkpt lat="45.3928153" lon="10.5772045"><ele>118.66666666666667</ele><time>2026-03-28T09:03:01.035Z</time></trkpt><trkpt lat="45.3926847" lon="10.577439"><ele>118.0</ele><time>2026-03-28T09:03:02.036Z</time></trkpt><trkpt lat="45.392544" lon="10.5776752"><ele>116.5</ele><time>2026-03-28T09:03:03.034Z</time></trkpt><trkpt lat="45.3923907" lon="10.5779175"><ele>115.0</ele><time>2026-03-28T09:03:04.034Z</time></trkpt><trkpt lat="45.3922327" lon="10.5781563"><ele>115.66666666666667</ele><time>2026-03-28T09:03:05.035Z</time></trkpt><trkpt lat="45.3920812" lon="10.5783803"><ele>116.33333333333334</ele><time>2026-03-28T09:03:06.036Z</time></trkpt><trkpt lat="45.3919402" lon="10.578585"><ele>117.0</ele><time>2026-03-28T09:03:07.033Z</time></trkpt><trkpt lat="45.3918058" lon="10.5787688"><ele>117.0</ele><time>2026-03-28T09:03:08.032Z</time></trkpt><trkpt lat="45.3916737" lon="10.5789362"><ele>117.0</ele><time>2026-03-28T09:03:09.031Z</time></trkpt><trkpt lat="45.3915443" lon="10.5790845"><ele>117.0</ele><time>2026-03-28T09:03:10.031Z</time></trkpt><trkpt lat="45.3914245" lon="10.579211"><ele>117.25</ele><time>2026-03-28T09:03:11.033Z</time></trkpt><trkpt lat="45.3913175" lon="10.5793223"><ele>117.5</ele><time>2026-03-28T09:03:12.034Z</time></trkpt><trkpt lat="45.391226" lon="10.5794265"><ele>117.75</ele><time>2026-03-28T09:03:13.035Z</time></trkpt><trkpt lat="45.3911518" lon="10.5795365"><ele>118.0</ele><time>2026-03-28T09:03:14.033Z</time></trkpt><trkpt lat="45.3910975" lon="10.5796565"><ele>118.80000000000001</ele><time>2026-03-28T09:03:15.032Z</time></trkpt><trkpt lat="45.391053" lon="10.5797768"><ele>119.60000000000001</ele><time>2026-03-28T09:03:16.034Z</time></trkpt><trkpt lat="45.3910108" lon="10.5798995"><ele>120.39999999999999</ele><time>2026-03-28T09:03:17.031Z</time></trkpt><trkpt lat="45.3909797" lon="10.5800007"><ele>121.19999999999999</ele><time>2026-03-28T09:03:18.032Z</time></trkpt><trkpt lat="45.390955" lon="10.5801425"><ele>122.0</ele><time>2026-03-28T09:03:20.032Z</time></trkpt><trkpt lat="45.3910067" lon="10.580234"><ele>122.0</ele><time>2026-03-28T09:03:22.032Z</time></trkpt><trkpt lat="45.3910992" lon="10.5803105"><ele>121.99999999999999</ele><time>2026-03-28T09:03:24.031Z</time></trkpt><trkpt lat="45.3911218" lon="10.5804107"><ele>121.99999999999999</ele><time>2026-03-28T09:03:26.032Z</time></trkpt><trkpt lat="45.3910688" lon="10.5805968"><ele>122.0</ele><time>2026-03-28T09:03:28.031Z</time></trkpt><trkpt lat="45.3910257" lon="10.5807358"><ele>122.0</ele><time>2026-03-28T09:03:29.031Z</time></trkpt><trkpt lat="45.3909715" lon="10.5808987"><ele>122.0</ele><time>2026-03-28T09:03:30.03Z</time></trkpt><trkpt lat="45.3909178" lon="10.5810583"><ele>122.0</ele><time>2026-03-28T09:03:31.033Z</time></trkpt><trkpt lat="45.3908602" lon="10.5812132"><ele>122.0</ele><time>2026-03-28T09:03:32.03Z</time></trkpt><trkpt lat="45.3907982" lon="10.5813488"><ele>122.0</ele><time>2026-03-28T09:03:33.03Z</time></trkpt><trkpt lat="45.3907293" lon="10.581458"><ele>121.0</ele><time>2026-03-28T09:03:34.032Z</time></trkpt><trkpt lat="45.3906658" lon="10.5815625"><ele>120.0</ele><time>2026-03-28T09:03:35.032Z</time></trkpt><trkpt lat="45.390614" lon="10.5816852"><ele>119.0</ele><time>2026-03-28T09:03:36.033Z</time></trkpt><trkpt lat="45.3905633" lon="10.5818433"><ele>118.0</ele><time>2026-03-28T09:03:37.033Z</time></trkpt><trkpt lat="45.3905065" lon="10.5820213"><ele>118.0</ele><time>2026-03-28T09:03:38.033Z</time></trkpt><trkpt lat="45.390445" lon="10.5821965"><ele>118.0</ele><time>2026-03-28T09:03:39.034Z</time></trkpt><trkpt lat="45.3903758" lon="10.5823788"><ele>118.0</ele><time>2026-03-28T09:03:40.032Z</time></trkpt><trkpt lat="45.3902958" lon="10.5825688"><ele>118.0</ele><time>2026-03-28T09:03:41.033Z</time></trkpt><trkpt lat="45.3902123" lon="10.5827452"><ele>118.5</ele><time>2026-03-28T09:03:42.032Z</time></trkpt><trkpt lat="45.3901295" lon="10.5829115"><ele>119.0</ele><time>2026-03-28T09:03:43.035Z</time></trkpt><trkpt lat="45.3900548" lon="10.5830597"><ele>119.5</ele><time>2026-03-28T09:03:44.033Z</time></trkpt><trkpt lat="45.3899913" lon="10.5831872"><ele>120.0</ele><time>2026-03-28T09:03:45.019Z</time></trkpt><trkpt lat="45.3899405" lon="10.583297"><ele>120.0</ele><time>2026-03-28T09:03:46.034Z</time></trkpt><trkpt lat="45.3899105" lon="10.5833952"><ele>120.0</ele><time>2026-03-28T09:03:47.033Z</time></trkpt><trkpt lat="45.3898988" lon="10.5834958"><ele>120.0</ele><time>2026-03-28T09:03:48.032Z</time></trkpt><trkpt lat="45.3899017" lon="10.583591"><ele>120.0</ele><time>2026-03-28T09:03:49.033Z</time></trkpt><trkpt lat="45.3899185" lon="10.5836847"><ele>120.0</ele><time>2026-03-28T09:03:50.033Z</time></trkpt><trkpt lat="45.3899482" lon="10.5837657"><ele>120.0</ele><time>2026-03-28T09:03:51.035Z</time></trkpt><trkpt lat="45.3899915" lon="10.5838322"><ele>120.0</ele><time>2026-03-28T09:03:52.033Z</time></trkpt><trkpt lat="45.3900503" lon="10.5838777"><ele>119.8</ele><time>2026-03-28T09:03:53.032Z</time></trkpt><trkpt lat="45.3901333" lon="10.5839095"><ele>119.6</ele><time>2026-03-28T09:03:54.032Z</time></trkpt><trkpt lat="45.3902347" lon="10.5839233"><ele>119.4</ele><time>2026-03-28T09:03:55.033Z</time></trkpt><trkpt lat="45.390352" lon="10.5839298"><ele>119.2</ele><time>2026-03-28T09:03:56.031Z</time></trkpt><trkpt lat="45.3904887" lon="10.5839252"><ele>119.0</ele><time>2026-03-28T09:03:57.031Z</time></trkpt><trkpt lat="45.3906245" lon="10.5839178"><ele>119.0</ele><time>2026-03-28T09:03:58.03Z</time></trkpt><trkpt lat="45.3907517" lon="10.5839102"><ele>119.0</ele><time>2026-03-28T09:03:59.031Z</time></trkpt><trkpt lat="45.3908673" lon="10.5839027"><ele>119.0</ele><time>2026-03-28T09:04:00.031Z</time></trkpt><trkpt lat="45.3909667" lon="10.5839138"><ele>119.0</ele><time>2026-03-28T09:04:01.037Z</time></trkpt><trkpt lat="45.3910535" lon="10.5839458"><ele>119.0</ele><time>2026-03-28T09:04:02.032Z</time></trkpt><trkpt lat="45.391143" lon="10.5840112"><ele>119.0</ele><time>2026-03-28T09:04:03.034Z</time></trkpt><trkpt lat="45.3912393" lon="10.5841093"><ele>119.0</ele><time>2026-03-28T09:04:04.034Z</time></trkpt><trkpt lat="45.3913385" lon="10.584222"><ele>119.0</ele><time>2026-03-28T09:04:05.034Z</time></trkpt><trkpt lat="45.3914317" lon="10.5843285"><ele>119.0</ele><time>2026-03-28T09:04:06.034Z</time></trkpt><trkpt lat="45.3915178" lon="10.5844253"><ele>118.33333333333333</ele><time>2026-03-28T09:04:07.037Z</time></trkpt><trkpt lat="45.3915958" lon="10.5845152"><ele>117.66666666666666</ele><time>2026-03-28T09:04:08.034Z</time></trkpt><trkpt lat="45.3916585" lon="10.5846003"><ele>117.0</ele><time>2026-03-28T09:04:09.034Z</time></trkpt><trkpt lat="45.391702" lon="10.5846837"><ele>116.33333333333334</ele><time>2026-03-28T09:04:10.035Z</time></trkpt><trkpt lat="45.3917272" lon="10.5847683"><ele>115.66666666666667</ele><time>2026-03-28T09:04:11.038Z</time></trkpt><trkpt lat="45.3917382" lon="10.5848677"><ele>115.0</ele><time>2026-03-28T09:04:12.035Z</time></trkpt><trkpt lat="45.3917352" lon="10.584977"><ele>115.0</ele><time>2026-03-28T09:04:13.036Z</time></trkpt><trkpt lat="45.3917225" lon="10.5850935"><ele>115.0</ele><time>2026-03-28T09:04:14.036Z</time></trkpt><trkpt lat="45.3917078" lon="10.5852182"><ele>115.0</ele><time>2026-03-28T09:04:15.034Z</time></trkpt><trkpt lat="45.391693" lon="10.585353"><ele>115.0</ele><time>2026-03-28T09:04:16.035Z</time></trkpt><trkpt lat="45.3916772" lon="10.5854958"><ele>115.0</ele><time>2026-03-28T09:04:17.034Z</time></trkpt><trkpt lat="45.3916603" lon="10.5856463"><ele>115.0</ele><time>2026-03-28T09:04:18.035Z</time></trkpt><trkpt lat="45.3916393" lon="10.5858107"><ele>115.0</ele><time>2026-03-28T09:04:19.034Z</time></trkpt><trkpt lat="45.3916105" lon="10.5859938"><ele>115.0</ele><time>2026-03-28T09:04:20.034Z</time></trkpt><trkpt lat="45.3915733" lon="10.5861675"><ele>115.0</ele><time>2026-03-28T09:04:21.033Z</time></trkpt><trkpt lat="45.3915165" lon="10.5863463"><ele>115.0</ele><time>2026-03-28T09:04:22.033Z</time></trkpt><trkpt lat="45.391439" lon="10.5865338"><ele>115.0</ele><time>2026-03-28T09:04:23.032Z</time></trkpt><trkpt lat="45.3913695" lon="10.5866948"><ele>115.0</ele><time>2026-03-28T09:04:24.03Z</time></trkpt><trkpt lat="45.391322" lon="10.586847"><ele>115.0</ele><time>2026-03-28T09:04:25.033Z</time></trkpt><trkpt lat="45.3912953" lon="10.5870063"><ele>115.0</ele><time>2026-03-28T09:04:26.034Z</time></trkpt><trkpt lat="45.3912878" lon="10.5871622"><ele>115.0</ele><time>2026-03-28T09:04:27.034Z</time></trkpt><trkpt lat="45.3913035" lon="10.5873003"><ele>115.0</ele><time>2026-03-28T09:04:28.034Z</time></trkpt><trkpt lat="45.3913403" lon="10.5874272"><ele>115.0</ele><time>2026-03-28T09:04:29.034Z</time></trkpt><trkpt lat="45.3913942" lon="10.5875277"><ele>115.0</ele><time>2026-03-28T09:04:30.034Z</time></trkpt><trkpt lat="45.3914723" lon="10.5876197"><ele>115.0</ele><time>2026-03-28T09:04:31.034Z</time></trkpt><trkpt lat="45.391566" lon="10.5877183"><ele>115.0</ele><time>2026-03-28T09:04:32.033Z</time></trkpt><trkpt lat="45.391653" lon="10.5878372"><ele>115.0</ele><time>2026-03-28T09:04:33.034Z</time></trkpt><trkpt lat="45.3917388" lon="10.5879937"><ele>115.0</ele><time>2026-03-28T09:04:34.033Z</time></trkpt><trkpt lat="45.3918162" lon="10.5881772"><ele>116.0</ele><time>2026-03-28T09:04:35.035Z</time></trkpt><trkpt lat="45.3918763" lon="10.5883747"><ele>117.0</ele><time>2026-03-28T09:04:36.035Z</time></trkpt><trkpt lat="45.3919205" lon="10.588582"><ele>118.0</ele><time>2026-03-28T09:04:37.035Z</time></trkpt><trkpt lat="45.3919565" lon="10.5888132"><ele>118.0</ele><time>2026-03-28T09:04:38.035Z</time></trkpt><trkpt lat="45.391988" lon="10.589046"><ele>118.0</ele><time>2026-03-28T09:04:39.035Z</time></trkpt><trkpt lat="45.3920105" lon="10.5892615"><ele>118.0</ele><time>2026-03-28T09:04:40.035Z</time></trkpt><trkpt lat="45.392021" lon="10.5894723"><ele>117.66666666666667</ele><time>2026-03-28T09:04:41.036Z</time></trkpt><trkpt lat="45.392023" lon="10.5896835"><ele>117.33333333333334</ele><time>2026-03-28T09:04:42.035Z</time></trkpt><trkpt lat="45.3920213" lon="10.5898985"><ele>117.0</ele><time>2026-03-28T09:04:43.035Z</time></trkpt><trkpt lat="45.392022" lon="10.5901238"><ele>117.0</ele><time>2026-03-28T09:04:44.037Z</time></trkpt><trkpt lat="45.3920295" lon="10.5903355"><ele>117.0</ele><time>2026-03-28T09:04:45.032Z</time></trkpt><trkpt lat="45.3920398" lon="10.5905312"><ele>117.0</ele><time>2026-03-28T09:04:46.033Z</time></trkpt><trkpt lat="45.3920568" lon="10.5907073"><ele>117.0</ele><time>2026-03-28T09:04:47.033Z</time></trkpt><trkpt lat="45.3920875" lon="10.5908685"><ele>116.75</ele><time>2026-03-28T09:04:48.033Z</time></trkpt><trkpt lat="45.3921362" lon="10.5910212"><ele>116.5</ele><time>2026-03-28T09:04:49.034Z</time></trkpt><trkpt lat="45.3922073" lon="10.5911695"><ele>116.25</ele><time>2026-03-28T09:04:50.035Z</time></trkpt><trkpt lat="45.3922968" lon="10.5913252"><ele>116.0</ele><time>2026-03-28T09:04:51.035Z</time></trkpt><trkpt lat="45.3923822" lon="10.5914702"><ele>116.8</ele><time>2026-03-28T09:04:52.037Z</time></trkpt><trkpt lat="45.3924545" lon="10.5916097"><ele>117.6</ele><time>2026-03-28T09:04:53.036Z</time></trkpt><trkpt lat="45.392511" lon="10.5917475"><ele>118.4</ele><time>2026-03-28T09:04:54.035Z</time></trkpt><trkpt lat="45.39255" lon="10.5918823"><ele>119.2</ele><time>2026-03-28T09:04:55.035Z</time></trkpt><trkpt lat="45.392577" lon="10.5920252"><ele>120.0</ele><time>2026-03-28T09:04:56.038Z</time></trkpt><trkpt lat="45.3925938" lon="10.5921707"><ele>120.0</ele><time>2026-03-28T09:04:57.052Z</time></trkpt><trkpt lat="45.3925907" lon="10.5923027"><ele>120.0</ele><time>2026-03-28T09:04:58.034Z</time></trkpt><trkpt lat="45.3925702" lon="10.5924412"><ele>120.0</ele><time>2026-03-28T09:04:59.035Z</time></trkpt><trkpt lat="45.3925442" lon="10.5925717"><ele>120.0</ele><time>2026-03-28T09:05:00.034Z</time></trkpt><trkpt lat="45.3925277" lon="10.592686"><ele>120.0</ele><time>2026-03-28T09:05:01.038Z</time></trkpt><trkpt lat="45.3925292" lon="10.5927852"><ele>120.0</ele><time>2026-03-28T09:05:02.035Z</time></trkpt><trkpt lat="45.3925512" lon="10.5928812"><ele>119.8</ele><time>2026-03-28T09:05:03.035Z</time></trkpt><trkpt lat="45.3925963" lon="10.5929722"><ele>119.6</ele><time>2026-03-28T09:05:04.035Z</time></trkpt><trkpt lat="45.392664" lon="10.593046"><ele>119.4</ele><time>2026-03-28T09:05:05.038Z</time></trkpt><trkpt lat="45.3927557" lon="10.5931055"><ele>119.2</ele><time>2026-03-28T09:05:06.034Z</time></trkpt><trkpt lat="45.3928732" lon="10.5931557"><ele>119.0</ele><time>2026-03-28T09:05:07.035Z</time></trkpt><trkpt lat="45.3930022" lon="10.5932018"><ele>118.25</ele><time>2026-03-28T09:05:08.036Z</time></trkpt><trkpt lat="45.3931215" lon="10.5932477"><ele>117.5</ele><time>2026-03-28T09:05:09.035Z</time></trkpt><trkpt lat="45.3932267" lon="10.5933063"><ele>116.75</ele><time>2026-03-28T09:05:10.031Z</time></trkpt><trkpt lat="45.3933223" lon="10.593385"><ele>116.0</ele><time>2026-03-28T09:05:11.031Z</time></trkpt><trkpt lat="45.3934223" lon="10.5934765"><ele>116.0</ele><time>2026-03-28T09:05:12.032Z</time></trkpt><trkpt lat="45.3935318" lon="10.5935705"><ele>116.0</ele><time>2026-03-28T09:05:13.033Z</time></trkpt><trkpt lat="45.3936345" lon="10.5936542"><ele>116.0</ele><time>2026-03-28T09:05:14.033Z</time></trkpt><trkpt lat="45.3937287" lon="10.593725"><ele>116.0</ele><time>2026-03-28T09:05:15.036Z</time></trkpt><trkpt lat="45.3938085" lon="10.5937985"><ele>116.0</ele><time>2026-03-28T09:05:16.035Z</time></trkpt><trkpt lat="45.3938655" lon="10.5938855"><ele>115.6</ele><time>2026-03-28T09:05:17.034Z</time></trkpt><trkpt lat="45.3938982" lon="10.5939888"><ele>115.19999999999999</ele><time>2026-03-28T09:05:18.034Z</time></trkpt><trkpt lat="45.3939183" lon="10.5941198"><ele>114.80000000000001</ele><time>2026-03-28T09:05:19.035Z</time></trkpt><trkpt lat="45.3939237" lon="10.5942728"><ele>114.4</ele><time>2026-03-28T09:05:20.034Z</time></trkpt><trkpt lat="45.3939163" lon="10.5944555"><ele>114.0</ele><time>2026-03-28T09:05:21.033Z</time></trkpt><trkpt lat="45.393907" lon="10.5946335"><ele>113.75</ele><time>2026-03-28T09:05:22.037Z</time></trkpt><trkpt lat="45.3938965" lon="10.5948075"><ele>113.5</ele><time>2026-03-28T09:05:23.034Z</time></trkpt><trkpt lat="45.3938823" lon="10.5949868"><ele>113.25</ele><time>2026-03-28T09:05:24.034Z</time></trkpt><trkpt lat="45.3938668" lon="10.5951487"><ele>113.0</ele><time>2026-03-28T09:05:25.034Z</time></trkpt><trkpt lat="45.3938512" lon="10.5953012"><ele>113.49999999999999</ele><time>2026-03-28T09:05:26.036Z</time></trkpt><trkpt lat="45.3938427" lon="10.5954312"><ele>114.0</ele><time>2026-03-28T09:05:27.035Z</time></trkpt><trkpt lat="45.3938465" lon="10.5955437"><ele>114.5</ele><time>2026-03-28T09:05:28.035Z</time></trkpt><trkpt lat="45.393865" lon="10.5956435"><ele>115.0</ele><time>2026-03-28T09:05:29.037Z</time></trkpt><trkpt lat="45.3938997" lon="10.5957352"><ele>115.49999999999999</ele><time>2026-03-28T09:05:30.034Z</time></trkpt><trkpt lat="45.3939508" lon="10.5958037"><ele>116.0</ele><time>2026-03-28T09:05:31.035Z</time></trkpt><trkpt lat="45.394017" lon="10.5958605"><ele>116.0</ele><time>2026-03-28T09:05:32.038Z</time></trkpt><trkpt lat="45.3940885" lon="10.5959055"><ele>116.0</ele><time>2026-03-28T09:05:33.036Z</time></trkpt><trkpt lat="45.3941678" lon="10.5959472"><ele>116.0</ele><time>2026-03-28T09:05:34.033Z</time></trkpt><trkpt lat="45.3942605" lon="10.595992"><ele>116.0</ele><time>2026-03-28T09:05:35.03Z</time></trkpt><trkpt lat="45.3943663" lon="10.5960428"><ele>116.0</ele><time>2026-03-28T09:05:36.03Z</time></trkpt><trkpt lat="45.3944827" lon="10.5960862"><ele>116.0</ele><time>2026-03-28T09:05:37.032Z</time></trkpt><trkpt lat="45.3946012" lon="10.5961208"><ele>116.0</ele><time>2026-03-28T09:05:38.033Z</time></trkpt><trkpt lat="45.3947245" lon="10.5961585"><ele>116.0</ele><time>2026-03-28T09:05:39.033Z</time></trkpt><trkpt lat="45.3948513" lon="10.5961982"><ele>116.0</ele><time>2026-03-28T09:05:40.035Z</time></trkpt><trkpt lat="45.3949712" lon="10.596238"><ele>115.19999999999999</ele><time>2026-03-28T09:05:41.035Z</time></trkpt><trkpt lat="45.3950832" lon="10.5962792"><ele>114.39999999999999</ele><time>2026-03-28T09:05:42.036Z</time></trkpt><trkpt lat="45.395185" lon="10.5963328"><ele>113.6</ele><time>2026-03-28T09:05:43.035Z</time></trkpt><trkpt lat="45.3952762" lon="10.5964062"><ele>112.8</ele><time>2026-03-28T09:05:44.035Z</time></trkpt><trkpt lat="45.3953607" lon="10.5965003"><ele>112.0</ele><time>2026-03-28T09:05:45.034Z</time></trkpt><trkpt lat="45.3954368" lon="10.596622"><ele>111.19999999999999</ele><time>2026-03-28T09:05:46.036Z</time></trkpt><trkpt lat="45.3955047" lon="10.596745"><ele>110.39999999999999</ele><time>2026-03-28T09:05:47.036Z</time></trkpt><trkpt lat="45.3955677" lon="10.5968507"><ele>109.60000000000001</ele><time>2026-03-28T09:05:48.034Z</time></trkpt><trkpt lat="45.3956323" lon="10.5969373"><ele>108.80000000000001</ele><time>2026-03-28T09:05:49.034Z</time></trkpt><trkpt lat="45.3957118" lon="10.596999"><ele>108.0</ele><time>2026-03-28T09:05:50.035Z</time></trkpt><trkpt lat="45.395814" lon="10.5970455"><ele>108.0</ele><time>2026-03-28T09:05:51.033Z</time></trkpt><trkpt lat="45.395928" lon="10.5970922"><ele>108.0</ele><time>2026-03-28T09:05:52.037Z</time></trkpt><trkpt lat="45.3960452" lon="10.5971292"><ele>108.0</ele><time>2026-03-28T09:05:53.033Z</time></trkpt><trkpt lat="45.3961623" lon="10.5971593"><ele>108.0</ele><time>2026-03-28T09:05:54.034Z</time></trkpt><trkpt lat="45.3962788" lon="10.5972022"><ele>106.75</ele><time>2026-03-28T09:05:55.036Z</time></trkpt><trkpt lat="45.3963967" lon="10.59724"><ele>105.5</ele><time>2026-03-28T09:05:56.033Z</time></trkpt><trkpt lat="45.3965097" lon="10.5972353"><ele>104.25</ele><time>2026-03-28T09:05:57.034Z</time></trkpt><trkpt lat="45.396623" lon="10.5971903"><ele>103.0</ele><time>2026-03-28T09:05:58.035Z</time></trkpt><trkpt lat="45.3967298" lon="10.5971413"><ele>103.0</ele><time>2026-03-28T09:05:59.033Z</time></trkpt><trkpt lat="45.396836" lon="10.5971102"><ele>103.0</ele><time>2026-03-28T09:06:00.031Z</time></trkpt><trkpt lat="45.396942" lon="10.5970937"><ele>103.0</ele><time>2026-03-28T09:06:01.031Z</time></trkpt><trkpt lat="45.3970395" lon="10.5970893"><ele>103.0</ele><time>2026-03-28T09:06:02.034Z</time></trkpt><trkpt lat="45.3971248" lon="10.597091"><ele>103.0</ele><time>2026-03-28T09:06:03.034Z</time></trkpt><trkpt lat="45.3971882" lon="10.597099"><ele>103.2</ele><time>2026-03-28T09:06:04.035Z</time></trkpt><trkpt lat="45.3972568" lon="10.5971533"><ele>103.4</ele><time>2026-03-28T09:06:06.034Z</time></trkpt><trkpt lat="45.3972667" lon="10.5973023"><ele>103.60000000000001</ele><time>2026-03-28T09:06:08.034Z</time></trkpt><trkpt lat="45.3972588" lon="10.5974292"><ele>103.80000000000001</ele><time>2026-03-28T09:06:09.036Z</time></trkpt><trkpt lat="45.3972433" lon="10.5975792"><ele>104.0</ele><time>2026-03-28T09:06:10.035Z</time></trkpt><trkpt lat="45.3972233" lon="10.5977297"><ele>103.80000000000001</ele><time>2026-03-28T09:06:11.032Z</time></trkpt><trkpt lat="45.3972005" lon="10.5978732"><ele>103.60000000000001</ele><time>2026-03-28T09:06:12.033Z</time></trkpt><trkpt lat="45.3971743" lon="10.5980085"><ele>103.4</ele><time>2026-03-28T09:06:13.033Z</time></trkpt><trkpt lat="45.3971467" lon="10.5981403"><ele>103.2</ele><time>2026-03-28T09:06:14.033Z</time></trkpt><trkpt lat="45.39711" lon="10.5982915"><ele>103.0</ele><time>2026-03-28T09:06:15.033Z</time></trkpt><trkpt lat="45.397071" lon="10.598438"><ele>103.0</ele><time>2026-03-28T09:06:16.033Z</time></trkpt><trkpt lat="45.3970313" lon="10.5985877"><ele>103.0</ele><time>2026-03-28T09:06:17.032Z</time></trkpt><trkpt lat="45.3969967" lon="10.5987313"><ele>103.0</ele><time>2026-03-28T09:06:18.031Z</time></trkpt><trkpt lat="45.3969687" lon="10.5988683"><ele>103.0</ele><time>2026-03-28T09:06:19.036Z</time></trkpt><trkpt lat="45.3969433" lon="10.5989975"><ele>103.0</ele><time>2026-03-28T09:06:20.036Z</time></trkpt><trkpt lat="45.3969267" lon="10.5991158"><ele>103.0</ele><time>2026-03-28T09:06:21.033Z</time></trkpt><trkpt lat="45.396909" lon="10.5992435"><ele>103.0</ele><time>2026-03-28T09:06:22.035Z</time></trkpt><trkpt lat="45.3968828" lon="10.5993808"><ele>103.0</ele><time>2026-03-28T09:06:23.032Z</time></trkpt><trkpt lat="45.3968497" lon="10.5995128"><ele>103.0</ele><time>2026-03-28T09:06:24.029Z</time></trkpt><trkpt lat="45.3968093" lon="10.599649"><ele>103.0</ele><time>2026-03-28T09:06:25.03Z</time></trkpt><trkpt lat="45.396757" lon="10.5997768"><ele>103.0</ele><time>2026-03-28T09:06:26.03Z</time></trkpt><trkpt lat="45.396691" lon="10.5999072"><ele>103.0</ele><time>2026-03-28T09:06:27.032Z</time></trkpt><trkpt lat="45.3966353" lon="10.6000265"><ele>103.0</ele><time>2026-03-28T09:06:28.035Z</time></trkpt><trkpt lat="45.3965867" lon="10.6001567"><ele>103.0</ele><time>2026-03-28T09:06:29.033Z</time></trkpt><trkpt lat="45.3965403" lon="10.6002983"><ele>103.0</ele><time>2026-03-28T09:06:30.035Z</time></trkpt><trkpt lat="45.396498" lon="10.6004337"><ele>103.60000000000001</ele><time>2026-03-28T09:06:31.035Z</time></trkpt><trkpt lat="45.3964548" lon="10.6005652"><ele>104.2</ele><time>2026-03-28T09:06:32.034Z</time></trkpt><trkpt lat="45.396416" lon="10.6006932"><ele>104.8</ele><time>2026-03-28T09:06:33.034Z</time></trkpt><trkpt lat="45.396375" lon="10.6008218"><ele>105.4</ele><time>2026-03-28T09:06:34.034Z</time></trkpt><trkpt lat="45.396334" lon="10.6009475"><ele>106.0</ele><time>2026-03-28T09:06:35.033Z</time></trkpt><trkpt lat="45.3962955" lon="10.6010738"><ele>105.0</ele><time>2026-03-28T09:06:36.033Z</time></trkpt><trkpt lat="45.3962613" lon="10.6012007"><ele>104.0</ele><time>2026-03-28T09:06:37.034Z</time></trkpt><trkpt lat="45.3962258" lon="10.6013403"><ele>103.0</ele><time>2026-03-28T09:06:38.031Z</time></trkpt><trkpt lat="45.3961922" lon="10.601479"><ele>102.0</ele><time>2026-03-28T09:06:39.033Z</time></trkpt><trkpt lat="45.3961575" lon="10.6016175"><ele>101.0</ele><time>2026-03-28T09:06:40.032Z</time></trkpt><trkpt lat="45.3961198" lon="10.6017643"><ele>101.0</ele><time>2026-03-28T09:06:41.033Z</time></trkpt><trkpt lat="45.3960772" lon="10.6019148"><ele>101.0</ele><time>2026-03-28T09:06:42.032Z</time></trkpt><trkpt lat="45.3960318" lon="10.6020667"><ele>101.0</ele><time>2026-03-28T09:06:43.035Z</time></trkpt><trkpt lat="45.3959837" lon="10.6022128"><ele>101.0</ele><time>2026-03-28T09:06:44.033Z</time></trkpt><trkpt lat="45.395936" lon="10.6023527"><ele>101.19999999999999</ele><time>2026-03-28T09:06:45.029Z</time></trkpt><trkpt lat="45.3958895" lon="10.6024927"><ele>101.39999999999999</ele><time>2026-03-28T09:06:46.031Z</time></trkpt><trkpt lat="45.3958423" lon="10.6026382"><ele>101.6</ele><time>2026-03-28T09:06:47.031Z</time></trkpt><trkpt lat="45.3957987" lon="10.6027795"><ele>101.8</ele><time>2026-03-28T09:06:48.026Z</time></trkpt><trkpt lat="45.3957545" lon="10.6029252"><ele>102.0</ele><time>2026-03-28T09:06:49.03Z</time></trkpt><trkpt lat="45.3957102" lon="10.6030673"><ele>101.6</ele><time>2026-03-28T09:06:50.029Z</time></trkpt><trkpt lat="45.3956652" lon="10.6032067"><ele>101.19999999999999</ele><time>2026-03-28T09:06:51.029Z</time></trkpt><trkpt lat="45.395622" lon="10.6033343"><ele>100.8</ele><time>2026-03-28T09:06:52.032Z</time></trkpt><trkpt lat="45.3955788" lon="10.6034618"><ele>100.4</ele><time>2026-03-28T09:06:53.032Z</time></trkpt><trkpt lat="45.3955338" lon="10.6035915"><ele>100.0</ele><time>2026-03-28T09:06:54.032Z</time></trkpt><trkpt lat="45.3954928" lon="10.6037097"><ele>100.0</ele><time>2026-03-28T09:06:55.032Z</time></trkpt><trkpt lat="45.3954498" lon="10.603834"><ele>100.0</ele><time>2026-03-28T09:06:56.033Z</time></trkpt><trkpt lat="45.3954065" lon="10.6039573"><ele>100.0</ele><time>2026-03-28T09:06:57.033Z</time></trkpt><trkpt lat="45.3953677" lon="10.6040837"><ele>100.0</ele><time>2026-03-28T09:06:58.033Z</time></trkpt><trkpt lat="45.3953253" lon="10.6042125"><ele>100.0</ele><time>2026-03-28T09:06:59.033Z</time></trkpt><trkpt lat="45.3952852" lon="10.6043318"><ele>100.0</ele><time>2026-03-28T09:07:00.034Z</time></trkpt><trkpt lat="45.3952478" lon="10.6044513"><ele>100.0</ele><time>2026-03-28T09:07:01.033Z</time></trkpt><trkpt lat="45.3952167" lon="10.6045677"><ele>100.0</ele><time>2026-03-28T09:07:02.034Z</time></trkpt><trkpt lat="45.3951882" lon="10.6046908"><ele>100.0</ele><time>2026-03-28T09:07:03.034Z</time></trkpt><trkpt lat="45.3951605" lon="10.6048143"><ele>100.0</ele><time>2026-03-28T09:07:04.034Z</time></trkpt><trkpt lat="45.395134" lon="10.6049405"><ele>100.0</ele><time>2026-03-28T09:07:05.034Z</time></trkpt><trkpt lat="45.3951085" lon="10.6050685"><ele>100.0</ele><time>2026-03-28T09:07:06.033Z</time></trkpt><trkpt lat="45.3950845" lon="10.6051977"><ele>100.0</ele><time>2026-03-28T09:07:07.034Z</time></trkpt><trkpt lat="45.3950613" lon="10.6053285"><ele>100.0</ele><time>2026-03-28T09:07:08.034Z</time></trkpt><trkpt lat="45.3950397" lon="10.6054563"><ele>100.0</ele><time>2026-03-28T09:07:09.035Z</time></trkpt><trkpt lat="45.3950173" lon="10.6055775"><ele>100.4</ele><time>2026-03-28T09:07:10.033Z</time></trkpt><trkpt lat="45.394994" lon="10.6057055"><ele>100.8</ele><time>2026-03-28T09:07:11.035Z</time></trkpt><trkpt lat="45.3949695" lon="10.6058525"><ele>101.19999999999999</ele><time>2026-03-28T09:07:12.035Z</time></trkpt><trkpt lat="45.394943" lon="10.6060013"><ele>101.6</ele><time>2026-03-28T09:07:13.033Z</time></trkpt><trkpt lat="45.3949143" lon="10.6061475"><ele>102.0</ele><time>2026-03-28T09:07:14.032Z</time></trkpt><trkpt lat="45.394883" lon="10.6063002"><ele>102.0</ele><time>2026-03-28T09:07:15.032Z</time></trkpt><trkpt lat="45.3948518" lon="10.606473"><ele>102.0</ele><time>2026-03-28T09:07:16.033Z</time></trkpt><trkpt lat="45.3948283" lon="10.6066505"><ele>102.0</ele><time>2026-03-28T09:07:17.036Z</time></trkpt><trkpt lat="45.3948163" lon="10.6068362"><ele>102.0</ele><time>2026-03-28T09:07:18.036Z</time></trkpt><trkpt lat="45.3948122" lon="10.6070475"><ele>102.66666666666666</ele><time>2026-03-28T09:07:19.037Z</time></trkpt><trkpt lat="45.3948067" lon="10.6072725"><ele>103.33333333333333</ele><time>2026-03-28T09:07:20.037Z</time></trkpt><trkpt lat="45.3947987" lon="10.607507"><ele>104.0</ele><time>2026-03-28T09:07:21.037Z</time></trkpt><trkpt lat="45.3947902" lon="10.607745"><ele>104.0</ele><time>2026-03-28T09:07:22.039Z</time></trkpt><trkpt lat="45.3947818" lon="10.6079817"><ele>104.0</ele><time>2026-03-28T09:07:23.037Z</time></trkpt><trkpt lat="45.3947715" lon="10.608205"><ele>104.0</ele><time>2026-03-28T09:07:24.037Z</time></trkpt><trkpt lat="45.3947568" lon="10.6084193"><ele>104.0</ele><time>2026-03-28T09:07:25.036Z</time></trkpt><trkpt lat="45.394734" lon="10.6086445"><ele>104.0</ele><time>2026-03-28T09:07:26.035Z</time></trkpt><trkpt lat="45.3946993" lon="10.608866"><ele>104.0</ele><time>2026-03-28T09:07:27.035Z</time></trkpt><trkpt lat="45.3946582" lon="10.6090688"><ele>102.80000000000001</ele><time>2026-03-28T09:07:28.036Z</time></trkpt><trkpt lat="45.394609" lon="10.6092387"><ele>101.60000000000001</ele><time>2026-03-28T09:07:29.035Z</time></trkpt><trkpt lat="45.394553" lon="10.6093868"><ele>100.4</ele><time>2026-03-28T09:07:30.035Z</time></trkpt><trkpt lat="45.3945005" lon="10.6095118"><ele>99.2</ele><time>2026-03-28T09:07:31.036Z</time></trkpt><trkpt lat="45.3944563" lon="10.6096135"><ele>98.0</ele><time>2026-03-28T09:07:32.034Z</time></trkpt><trkpt lat="45.394414" lon="10.6097215"><ele>98.0</ele><time>2026-03-28T09:07:33.036Z</time></trkpt><trkpt lat="45.3943718" lon="10.6098438"><ele>98.0</ele><time>2026-03-28T09:07:34.036Z</time></trkpt><trkpt lat="45.3943373" lon="10.6099645"><ele>98.0</ele><time>2026-03-28T09:07:35.033Z</time></trkpt><trkpt lat="45.3943082" lon="10.6100832"><ele>98.0</ele><time>2026-03-28T09:07:36.035Z</time></trkpt><trkpt lat="45.3942878" lon="10.610208"><ele>98.0</ele><time>2026-03-28T09:07:37.032Z</time></trkpt><trkpt lat="45.3942717" lon="10.6103442"><ele>98.4</ele><time>2026-03-28T09:07:38.032Z</time></trkpt><trkpt lat="45.3942647" lon="10.6104878"><ele>98.80000000000001</ele><time>2026-03-28T09:07:39.03Z</time></trkpt><trkpt lat="45.3942672" lon="10.6106507"><ele>99.2</ele><time>2026-03-28T09:07:40.032Z</time></trkpt><trkpt lat="45.3942762" lon="10.610811"><ele>99.6</ele><time>2026-03-28T09:07:41.034Z</time></trkpt><trkpt lat="45.3942847" lon="10.6109475"><ele>100.0</ele><time>2026-03-28T09:07:42.034Z</time></trkpt><trkpt lat="45.3942947" lon="10.6110513"><ele>100.00000000000001</ele><time>2026-03-28T09:07:43.035Z</time></trkpt><trkpt lat="45.3943393" lon="10.6111683"><ele>100.0</ele><time>2026-03-28T09:07:45.035Z</time></trkpt><trkpt lat="45.3944333" lon="10.6111818"><ele>100.0</ele><time>2026-03-28T09:07:47.033Z</time></trkpt><trkpt lat="45.3944963" lon="10.6111518"><ele>100.0</ele><time>2026-03-28T09:07:48.033Z</time></trkpt><trkpt lat="45.3945717" lon="10.611109"><ele>100.00000000000001</ele><time>2026-03-28T09:07:49.036Z</time></trkpt><trkpt lat="45.3946692" lon="10.6110518"><ele>100.0</ele><time>2026-03-28T09:07:50.035Z</time></trkpt><trkpt lat="45.3947877" lon="10.6109825"><ele>102.5</ele><time>2026-03-28T09:07:51.032Z</time></trkpt><trkpt lat="45.3949147" lon="10.6109063"><ele>105.0</ele><time>2026-03-28T09:07:52.034Z</time></trkpt><trkpt lat="45.3950362" lon="10.6108342"><ele>107.5</ele><time>2026-03-28T09:07:53.032Z</time></trkpt><trkpt lat="45.3951565" lon="10.6107683"><ele>110.0</ele><time>2026-03-28T09:07:54.03Z</time></trkpt><trkpt lat="45.39527" lon="10.6107233"><ele>110.0</ele><time>2026-03-28T09:07:55.033Z</time></trkpt><trkpt lat="45.3953875" lon="10.6106912"><ele>110.0</ele><time>2026-03-28T09:07:56.033Z</time></trkpt><trkpt lat="45.3955003" lon="10.6106618"><ele>110.0</ele><time>2026-03-28T09:07:57.032Z</time></trkpt><trkpt lat="45.3956093" lon="10.6106247"><ele>110.0</ele><time>2026-03-28T09:07:58.034Z</time></trkpt><trkpt lat="45.3957098" lon="10.6105892"><ele>111.0</ele><time>2026-03-28T09:07:59.033Z</time></trkpt><trkpt lat="45.3957933" lon="10.6105485"><ele>112.0</ele><time>2026-03-28T09:08:00.034Z</time></trkpt><trkpt lat="45.3958602" lon="10.610481"><ele>113.0</ele><time>2026-03-28T09:08:01.033Z</time></trkpt><trkpt lat="45.3959225" lon="10.6103793"><ele>114.0</ele><time>2026-03-28T09:08:02.031Z</time></trkpt><trkpt lat="45.3959875" lon="10.6102657"><ele>115.0</ele><time>2026-03-28T09:08:03.032Z</time></trkpt><trkpt lat="45.396053" lon="10.6101492"><ele>115.2</ele><time>2026-03-28T09:08:04.032Z</time></trkpt><trkpt lat="45.3961215" lon="10.610029"><ele>115.4</ele><time>2026-03-28T09:08:05.033Z</time></trkpt><trkpt lat="45.3961873" lon="10.6099128"><ele>115.6</ele><time>2026-03-28T09:08:06.033Z</time></trkpt><trkpt lat="45.3962463" lon="10.6097995"><ele>115.8</ele><time>2026-03-28T09:08:07.034Z</time></trkpt><trkpt lat="45.3962957" lon="10.6096738"><ele>116.0</ele><time>2026-03-28T09:08:08.036Z</time></trkpt><trkpt lat="45.3963335" lon="10.6095467"><ele>116.66666666666666</ele><time>2026-03-28T09:08:09.032Z</time></trkpt><trkpt lat="45.3963703" lon="10.6094222"><ele>117.33333333333333</ele><time>2026-03-28T09:08:10.034Z</time></trkpt><trkpt lat="45.3964083" lon="10.6093102"><ele>118.0</ele><time>2026-03-28T09:08:11.034Z</time></trkpt><trkpt lat="45.3964463" lon="10.6092137"><ele>118.66666666666666</ele><time>2026-03-28T09:08:12.033Z</time></trkpt><trkpt lat="45.3964927" lon="10.6091388"><ele>119.33333333333333</ele><time>2026-03-28T09:08:13.034Z</time></trkpt><trkpt lat="45.3965555" lon="10.609088"><ele>120.0</ele><time>2026-03-28T09:08:14.034Z</time></trkpt><trkpt lat="45.3966353" lon="10.6090722"><ele>120.0</ele><time>2026-03-28T09:08:15.033Z</time></trkpt><trkpt lat="45.396741" lon="10.6090728"><ele>120.0</ele><time>2026-03-28T09:08:16.037Z</time></trkpt><trkpt lat="45.3968793" lon="10.6090817"><ele>120.0</ele><time>2026-03-28T09:08:17.036Z</time></trkpt><trkpt lat="45.3970418" lon="10.6090917"><ele>120.0</ele><time>2026-03-28T09:08:18.035Z</time></trkpt><trkpt lat="45.397212" lon="10.609096"><ele>120.66666666666666</ele><time>2026-03-28T09:08:19.035Z</time></trkpt><trkpt lat="45.397368" lon="10.6090945"><ele>121.33333333333333</ele><time>2026-03-28T09:08:20.035Z</time></trkpt><trkpt lat="45.3975195" lon="10.6090813"><ele>122.0</ele><time>2026-03-28T09:08:21.033Z</time></trkpt><trkpt lat="45.3976688" lon="10.6090588"><ele>122.0</ele><time>2026-03-28T09:08:22.033Z</time></trkpt><trkpt lat="45.3978092" lon="10.6090262"><ele>122.0</ele><time>2026-03-28T09:08:23.036Z</time></trkpt><trkpt lat="45.3979427" lon="10.6089877"><ele>122.0</ele><time>2026-03-28T09:08:24.033Z</time></trkpt><trkpt lat="45.3980635" lon="10.6089533"><ele>122.0</ele><time>2026-03-28T09:08:25.032Z</time></trkpt><trkpt lat="45.398165" lon="10.6089275"><ele>122.0</ele><time>2026-03-28T09:08:26.031Z</time></trkpt><trkpt lat="45.3982475" lon="10.6089123"><ele>121.99999999999999</ele><time>2026-03-28T09:08:27.033Z</time></trkpt><trkpt lat="45.3983415" lon="10.6089393"><ele>121.99999999999999</ele><time>2026-03-28T09:08:29.031Z</time></trkpt><trkpt lat="45.3983585" lon="10.6090745"><ele>122.0</ele><time>2026-03-28T09:08:31.035Z</time></trkpt><trkpt lat="45.3983427" lon="10.6092258"><ele>122.0</ele><time>2026-03-28T09:08:32.033Z</time></trkpt><trkpt lat="45.3983155" lon="10.6094312"><ele>123.0</ele><time>2026-03-28T09:08:33.035Z</time></trkpt><trkpt lat="45.3982862" lon="10.6096902"><ele>124.0</ele><time>2026-03-28T09:08:34.034Z</time></trkpt><trkpt lat="45.3982495" lon="10.6100065"><ele>125.0</ele><time>2026-03-28T09:08:35.033Z</time></trkpt><trkpt lat="45.3982007" lon="10.6103477"><ele>125.0</ele><time>2026-03-28T09:08:36.035Z</time></trkpt><trkpt lat="45.3981338" lon="10.6107145"><ele>125.0</ele><time>2026-03-28T09:08:37.034Z</time></trkpt><trkpt lat="45.3980447" lon="10.611089"><ele>121.5</ele><time>2026-03-28T09:08:38.036Z</time></trkpt><trkpt lat="45.3979393" lon="10.6114377"><ele>118.0</ele><time>2026-03-28T09:08:39.034Z</time></trkpt><trkpt lat="45.3978275" lon="10.6117578"><ele>118.0</ele><time>2026-03-28T09:08:40.034Z</time></trkpt><trkpt lat="45.3977247" lon="10.612052"><ele>118.0</ele><time>2026-03-28T09:08:41.033Z</time></trkpt><trkpt lat="45.3976382" lon="10.6123288"><ele>118.0</ele><time>2026-03-28T09:08:42.032Z</time></trkpt><trkpt lat="45.3975767" lon="10.6126065"><ele>118.0</ele><time>2026-03-28T09:08:43.034Z</time></trkpt><trkpt lat="45.397546" lon="10.6129098"><ele>118.0</ele><time>2026-03-28T09:08:44.033Z</time></trkpt><trkpt lat="45.3975435" lon="10.6132492"><ele>118.0</ele><time>2026-03-28T09:08:45.034Z</time></trkpt><trkpt lat="45.3975568" lon="10.6136213"><ele>118.0</ele><time>2026-03-28T09:08:46.032Z</time></trkpt><trkpt lat="45.3975713" lon="10.6140162"><ele>118.0</ele><time>2026-03-28T09:08:47.036Z</time></trkpt><trkpt lat="45.3975825" lon="10.6144142"><ele>118.0</ele><time>2026-03-28T09:08:48.035Z</time></trkpt><trkpt lat="45.39759" lon="10.614835"><ele>118.0</ele><time>2026-03-28T09:08:49.035Z</time></trkpt><trkpt lat="45.3975877" lon="10.6152507"><ele>118.0</ele><time>2026-03-28T09:08:50.034Z</time></trkpt><trkpt lat="45.3975737" lon="10.6156437"><ele>118.0</ele><time>2026-03-28T09:08:51.03Z</time></trkpt><trkpt lat="45.3975547" lon="10.6160173"><ele>118.0</ele><time>2026-03-28T09:08:52.03Z</time></trkpt><trkpt lat="45.3975342" lon="10.616373"><ele>117.0</ele><time>2026-03-28T09:08:53.03Z</time></trkpt><trkpt lat="45.3975148" lon="10.6167147"><ele>116.0</ele><time>2026-03-28T09:08:54.032Z</time></trkpt><trkpt lat="45.397501" lon="10.6170423"><ele>115.33333333333333</ele><time>2026-03-28T09:08:55.033Z</time></trkpt><trkpt lat="45.397487" lon="10.6173608"><ele>114.66666666666666</ele><time>2026-03-28T09:08:56.033Z</time></trkpt><trkpt lat="45.3974727" lon="10.6176767"><ele>114.0</ele><time>2026-03-28T09:08:57.036Z</time></trkpt><trkpt lat="45.3974563" lon="10.6179838"><ele>113.0</ele><time>2026-03-28T09:08:58.035Z</time></trkpt><trkpt lat="45.3974413" lon="10.618279"><ele>112.0</ele><time>2026-03-28T09:08:59.035Z</time></trkpt><trkpt lat="45.3974247" lon="10.618562"><ele>111.0</ele><time>2026-03-28T09:09:00.034Z</time></trkpt><trkpt lat="45.3973995" lon="10.6188347"><ele>108.66666666666666</ele><time>2026-03-28T09:09:01.035Z</time></trkpt><trkpt lat="45.3973557" lon="10.6191047"><ele>106.33333333333333</ele><time>2026-03-28T09:09:02.036Z</time></trkpt><trkpt lat="45.397292" lon="10.6193747"><ele>104.0</ele><time>2026-03-28T09:09:03.034Z</time></trkpt><trkpt lat="45.3972082" lon="10.6196245"><ele>102.66666666666666</ele><time>2026-03-28T09:09:04.034Z</time></trkpt><trkpt lat="45.3971057" lon="10.6198395"><ele>101.33333333333334</ele><time>2026-03-28T09:09:05.035Z</time></trkpt><trkpt lat="45.39699" lon="10.6200265"><ele>100.0</ele><time>2026-03-28T09:09:06.035Z</time></trkpt><trkpt lat="45.396869" lon="10.6201875"><ele>99.0</ele><time>2026-03-28T09:09:07.035Z</time></trkpt><trkpt lat="45.3967468" lon="10.6203313"><ele>98.0</ele><time>2026-03-28T09:09:08.036Z</time></trkpt><trkpt lat="45.3966282" lon="10.6204675"><ele>97.0</ele><time>2026-03-28T09:09:09.035Z</time></trkpt><trkpt lat="45.3965138" lon="10.620598"><ele>97.0</ele><time>2026-03-28T09:09:10.036Z</time></trkpt><trkpt lat="45.396404" lon="10.6207232"><ele>97.0</ele><time>2026-03-28T09:09:11.036Z</time></trkpt><trkpt lat="45.3963008" lon="10.6208398"><ele>97.0</ele><time>2026-03-28T09:09:12.035Z</time></trkpt><trkpt lat="45.3962065" lon="10.6209458"><ele>97.0</ele><time>2026-03-28T09:09:13.036Z</time></trkpt><trkpt lat="45.3961227" lon="10.6210418"><ele>96.33333333333334</ele><time>2026-03-28T09:09:14.035Z</time></trkpt><trkpt lat="45.3960532" lon="10.6211213"><ele>95.66666666666667</ele><time>2026-03-28T09:09:15.033Z</time></trkpt><trkpt lat="45.3959927" lon="10.6211892"><ele>95.0</ele><time>2026-03-28T09:09:16.033Z</time></trkpt><trkpt lat="45.3959082" lon="10.6212783"><ele>94.33333333333334</ele><time>2026-03-28T09:09:18.034Z</time></trkpt><trkpt lat="45.395846" lon="10.6213348"><ele>93.66666666666667</ele><time>2026-03-28T09:09:20.035Z</time></trkpt><trkpt lat="45.3957678" lon="10.6213185"><ele>93.0</ele><time>2026-03-28T09:09:22.034Z</time></trkpt><trkpt lat="45.3957313" lon="10.6211462"><ele>93.0</ele><time>2026-03-28T09:09:24.036Z</time></trkpt><trkpt lat="45.395734" lon="10.6210178"><ele>93.0</ele><time>2026-03-28T09:09:25.036Z</time></trkpt><trkpt lat="45.3957268" lon="10.6208718"><ele>93.0</ele><time>2026-03-28T09:09:26.035Z</time></trkpt><trkpt lat="45.3957172" lon="10.6206732"><ele>93.0</ele><time>2026-03-28T09:09:27.033Z</time></trkpt><trkpt lat="45.3957002" lon="10.6204402"><ele>93.0</ele><time>2026-03-28T09:09:28.034Z</time></trkpt><trkpt lat="45.3956605" lon="10.6201882"><ele>93.0</ele><time>2026-03-28T09:09:29.034Z</time></trkpt><trkpt lat="45.3955875" lon="10.619912"><ele>93.0</ele><time>2026-03-28T09:09:30.034Z</time></trkpt><trkpt lat="45.3954955" lon="10.6196332"><ele>93.5</ele><time>2026-03-28T09:09:31.034Z</time></trkpt><trkpt lat="45.3953882" lon="10.6193317"><ele>94.0</ele><time>2026-03-28T09:09:32.033Z</time></trkpt><trkpt lat="45.3952712" lon="10.6189998"><ele>95.5</ele><time>2026-03-28T09:09:33.033Z</time></trkpt><trkpt lat="45.395145" lon="10.6186378"><ele>97.0</ele><time>2026-03-28T09:09:34.036Z</time></trkpt><trkpt lat="45.3950122" lon="10.618264"><ele>97.0</ele><time>2026-03-28T09:09:35.035Z</time></trkpt><trkpt lat="45.3948673" lon="10.6178825"><ele>97.0</ele><time>2026-03-28T09:09:36.034Z</time></trkpt><trkpt lat="45.3947147" lon="10.617517"><ele>95.5</ele><time>2026-03-28T09:09:37.034Z</time></trkpt><trkpt lat="45.3945593" lon="10.6171825"><ele>94.0</ele><time>2026-03-28T09:09:38.034Z</time></trkpt><trkpt lat="45.3944038" lon="10.6168693"><ele>97.0</ele><time>2026-03-28T09:09:39.032Z</time></trkpt><trkpt lat="45.394257" lon="10.6165737"><ele>100.0</ele><time>2026-03-28T09:09:40.033Z</time></trkpt><trkpt lat="45.3941183" lon="10.616294"><ele>101.0</ele><time>2026-03-28T09:09:41.032Z</time></trkpt><trkpt lat="45.3939913" lon="10.6160233"><ele>102.0</ele><time>2026-03-28T09:09:42.033Z</time></trkpt><trkpt lat="45.3938762" lon="10.6157478"><ele>99.0</ele><time>2026-03-28T09:09:43.033Z</time></trkpt><trkpt lat="45.3937703" lon="10.6154652"><ele>96.0</ele><time>2026-03-28T09:09:44.034Z</time></trkpt><trkpt lat="45.3936648" lon="10.6151822"><ele>96.0</ele><time>2026-03-28T09:09:45.036Z</time></trkpt><trkpt lat="45.3935577" lon="10.6149012"><ele>96.0</ele><time>2026-03-28T09:09:46.033Z</time></trkpt><trkpt lat="45.393454" lon="10.614629"><ele>96.0</ele><time>2026-03-28T09:09:47.033Z</time></trkpt><trkpt lat="45.3933575" lon="10.6143682"><ele>97.0</ele><time>2026-03-28T09:09:48.031Z</time></trkpt><trkpt lat="45.3932643" lon="10.6141198"><ele>98.0</ele><time>2026-03-28T09:09:49.033Z</time></trkpt><trkpt lat="45.3931738" lon="10.613883"><ele>99.0</ele><time>2026-03-28T09:09:50.035Z</time></trkpt><trkpt lat="45.393081" lon="10.6136493"><ele>97.0</ele><time>2026-03-28T09:09:51.033Z</time></trkpt><trkpt lat="45.3929903" lon="10.6134375"><ele>95.0</ele><time>2026-03-28T09:09:52.035Z</time></trkpt><trkpt lat="45.3929048" lon="10.6132613"><ele>93.0</ele><time>2026-03-28T09:09:53.037Z</time></trkpt><trkpt lat="45.3928223" lon="10.613106"><ele>93.0</ele><time>2026-03-28T09:09:54.038Z</time></trkpt><trkpt lat="45.3927445" lon="10.6129668"><ele>93.0</ele><time>2026-03-28T09:09:55.036Z</time></trkpt><trkpt lat="45.3926688" lon="10.6128465"><ele>93.0</ele><time>2026-03-28T09:09:56.032Z</time></trkpt><trkpt lat="45.3925915" lon="10.6127308"><ele>93.0</ele><time>2026-03-28T09:09:57.037Z</time></trkpt><trkpt lat="45.3925222" lon="10.6126248"><ele>93.0</ele><time>2026-03-28T09:09:58.034Z</time></trkpt><trkpt lat="45.3924598" lon="10.612529"><ele>93.0</ele><time>2026-03-28T09:09:59.036Z</time></trkpt><trkpt lat="45.3923968" lon="10.6124358"><ele>93.0</ele><time>2026-03-28T09:10:00.035Z</time></trkpt><trkpt lat="45.3923347" lon="10.6123425"><ele>93.0</ele><time>2026-03-28T09:10:01.037Z</time></trkpt><trkpt lat="45.3922762" lon="10.612256"><ele>93.0</ele><time>2026-03-28T09:10:02.035Z</time></trkpt><trkpt lat="45.3922208" lon="10.6121772"><ele>93.0</ele><time>2026-03-28T09:10:03.037Z</time></trkpt><trkpt lat="45.3921645" lon="10.6121165"><ele>93.4</ele><time>2026-03-28T09:10:04.034Z</time></trkpt><trkpt lat="45.3920933" lon="10.6120843"><ele>93.80000000000001</ele><time>2026-03-28T09:10:05.032Z</time></trkpt><trkpt lat="45.3919965" lon="10.6120868"><ele>94.2</ele><time>2026-03-28T09:10:06.034Z</time></trkpt><trkpt lat="45.3918778" lon="10.6121143"><ele>94.6</ele><time>2026-03-28T09:10:07.033Z</time></trkpt><trkpt lat="45.3917522" lon="10.6121475"><ele>95.0</ele><time>2026-03-28T09:10:08.034Z</time></trkpt><trkpt lat="45.3916177" lon="10.612177"><ele>95.0</ele><time>2026-03-28T09:10:09.034Z</time></trkpt><trkpt lat="45.3914765" lon="10.6122072"><ele>95.0</ele><time>2026-03-28T09:10:10.036Z</time></trkpt><trkpt lat="45.3913295" lon="10.6122357"><ele>95.0</ele><time>2026-03-28T09:10:11.036Z</time></trkpt><trkpt lat="45.391179" lon="10.612255"><ele>95.0</ele><time>2026-03-28T09:10:12.033Z</time></trkpt><trkpt lat="45.3910268" lon="10.6122515"><ele>95.66666666666667</ele><time>2026-03-28T09:10:13.034Z</time></trkpt><trkpt lat="45.3908747" lon="10.6122163"><ele>96.33333333333334</ele><time>2026-03-28T09:10:14.035Z</time></trkpt><trkpt lat="45.3907162" lon="10.612148"><ele>97.0</ele><time>2026-03-28T09:10:15.039Z</time></trkpt><trkpt lat="45.3905438" lon="10.6120523"><ele>97.33333333333334</ele><time>2026-03-28T09:10:16.035Z</time></trkpt><trkpt lat="45.3903715" lon="10.6119535"><ele>97.66666666666666</ele><time>2026-03-28T09:10:17.036Z</time></trkpt><trkpt lat="45.3902088" lon="10.6118618"><ele>98.0</ele><time>2026-03-28T09:10:18.035Z</time></trkpt><trkpt lat="45.3900493" lon="10.6117715"><ele>98.0</ele><time>2026-03-28T09:10:19.033Z</time></trkpt><trkpt lat="45.3898885" lon="10.6116807"><ele>98.0</ele><time>2026-03-28T09:10:20.033Z</time></trkpt><trkpt lat="45.389731" lon="10.6115952"><ele>98.0</ele><time>2026-03-28T09:10:21.035Z</time></trkpt><trkpt lat="45.389576" lon="10.6115172"><ele>98.33333333333333</ele><time>2026-03-28T09:10:22.034Z</time></trkpt><trkpt lat="45.3894237" lon="10.6114443"><ele>98.66666666666666</ele><time>2026-03-28T09:10:23.035Z</time></trkpt><trkpt lat="45.3892647" lon="10.611377"><ele>99.0</ele><time>2026-03-28T09:10:24.035Z</time></trkpt><trkpt lat="45.3890965" lon="10.6113272"><ele>99.0</ele><time>2026-03-28T09:10:25.034Z</time></trkpt><trkpt lat="45.3889178" lon="10.6112957"><ele>99.0</ele><time>2026-03-28T09:10:26.035Z</time></trkpt><trkpt lat="45.3887398" lon="10.611268"><ele>99.0</ele><time>2026-03-28T09:10:27.034Z</time></trkpt><trkpt lat="45.388563" lon="10.611241"><ele>99.0</ele><time>2026-03-28T09:10:28.036Z</time></trkpt><trkpt lat="45.3883808" lon="10.6112203"><ele>99.0</ele><time>2026-03-28T09:10:29.035Z</time></trkpt><trkpt lat="45.3881933" lon="10.6112053"><ele>99.0</ele><time>2026-03-28T09:10:30.033Z</time></trkpt><trkpt lat="45.3880108" lon="10.6111873"><ele>99.0</ele><time>2026-03-28T09:10:31.033Z</time></trkpt><trkpt lat="45.3878438" lon="10.6111633"><ele>99.0</ele><time>2026-03-28T09:10:32.034Z</time></trkpt><trkpt lat="45.3876873" lon="10.611139"><ele>99.0</ele><time>2026-03-28T09:10:33.035Z</time></trkpt><trkpt lat="45.3875292" lon="10.6111167"><ele>99.0</ele><time>2026-03-28T09:10:34.036Z</time></trkpt><trkpt lat="45.3873688" lon="10.6110938"><ele>99.0</ele><time>2026-03-28T09:10:35.036Z</time></trkpt><trkpt lat="45.3872117" lon="10.6110733"><ele>99.0</ele><time>2026-03-28T09:10:36.034Z</time></trkpt><trkpt lat="45.3870075" lon="10.6110465"><ele>99.33333333333334</ele><time>2026-03-28T09:10:37.434Z</time></trkpt><trkpt lat="45.3867698" lon="10.6110082"><ele>99.66666666666667</ele><time>2026-03-28T09:10:39.034Z</time></trkpt><trkpt lat="45.386618" lon="10.610985"><ele>100.0</ele><time>2026-03-28T09:10:40.034Z</time></trkpt><trkpt lat="45.3864737" lon="10.6109653"><ele>100.25</ele><time>2026-03-28T09:10:41.034Z</time></trkpt><trkpt lat="45.3863343" lon="10.6109462"><ele>100.5</ele><time>2026-03-28T09:10:42.034Z</time></trkpt><trkpt lat="45.3861977" lon="10.6109297"><ele>100.75</ele><time>2026-03-28T09:10:43.034Z</time></trkpt><trkpt lat="45.3860597" lon="10.6109303"><ele>101.0</ele><time>2026-03-28T09:10:44.035Z</time></trkpt><trkpt lat="45.385923" lon="10.6109675"><ele>101.0</ele><time>2026-03-28T09:10:45.034Z</time></trkpt><trkpt lat="45.3857857" lon="10.6110407"><ele>101.0</ele><time>2026-03-28T09:10:46.036Z</time></trkpt><trkpt lat="45.3856532" lon="10.6111413"><ele>101.0</ele><time>2026-03-28T09:10:47.035Z</time></trkpt><trkpt lat="45.3855235" lon="10.6112645"><ele>101.66666666666666</ele><time>2026-03-28T09:10:48.034Z</time></trkpt><trkpt lat="45.3853908" lon="10.6113983"><ele>102.33333333333334</ele><time>2026-03-28T09:10:49.035Z</time></trkpt><trkpt lat="45.3852477" lon="10.6115395"><ele>103.0</ele><time>2026-03-28T09:10:50.034Z</time></trkpt><trkpt lat="45.3851" lon="10.6116725"><ele>103.0</ele><time>2026-03-28T09:10:51.035Z</time></trkpt><trkpt lat="45.384936" lon="10.6117902"><ele>103.0</ele><time>2026-03-28T09:10:52.037Z</time></trkpt><trkpt lat="45.3847612" lon="10.6118888"><ele>103.0</ele><time>2026-03-28T09:10:53.032Z</time></trkpt><trkpt lat="45.3845925" lon="10.6119757"><ele>103.66666666666667</ele><time>2026-03-28T09:10:54.032Z</time></trkpt><trkpt lat="45.3844337" lon="10.6120577"><ele>104.33333333333334</ele><time>2026-03-28T09:10:55.033Z</time></trkpt><trkpt lat="45.3842817" lon="10.612134"><ele>105.0</ele><time>2026-03-28T09:10:56.032Z</time></trkpt><trkpt lat="45.3841303" lon="10.6122093"><ele>105.0</ele><time>2026-03-28T09:10:57.035Z</time></trkpt><trkpt lat="45.3839797" lon="10.6122875"><ele>105.0</ele><time>2026-03-28T09:10:58.034Z</time></trkpt><trkpt lat="45.3838287" lon="10.6123687"><ele>105.0</ele><time>2026-03-28T09:10:59.034Z</time></trkpt><trkpt lat="45.383677" lon="10.6124543"><ele>104.33333333333334</ele><time>2026-03-28T09:11:00.034Z</time></trkpt><trkpt lat="45.3835268" lon="10.6125485"><ele>103.66666666666667</ele><time>2026-03-28T09:11:01.035Z</time></trkpt><trkpt lat="45.3833788" lon="10.6126603"><ele>103.0</ele><time>2026-03-28T09:11:02.034Z</time></trkpt><trkpt lat="45.3832362" lon="10.6127908"><ele>103.0</ele><time>2026-03-28T09:11:03.034Z</time></trkpt><trkpt lat="45.3830987" lon="10.612929"><ele>103.0</ele><time>2026-03-28T09:11:04.035Z</time></trkpt><trkpt lat="45.3829688" lon="10.61307"><ele>103.0</ele><time>2026-03-28T09:11:05.035Z</time></trkpt><trkpt lat="45.3828497" lon="10.6132133"><ele>103.0</ele><time>2026-03-28T09:11:06.036Z</time></trkpt><trkpt lat="45.382736" lon="10.6133588"><ele>103.0</ele><time>2026-03-28T09:11:07.036Z</time></trkpt><trkpt lat="45.3826232" lon="10.6135083"><ele>103.0</ele><time>2026-03-28T09:11:08.036Z</time></trkpt><trkpt lat="45.3825098" lon="10.6136578"><ele>103.0</ele><time>2026-03-28T09:11:09.037Z</time></trkpt><trkpt lat="45.3824003" lon="10.6138023"><ele>103.0</ele><time>2026-03-28T09:11:10.036Z</time></trkpt><trkpt lat="45.382303" lon="10.6139318"><ele>103.0</ele><time>2026-03-28T09:11:11.035Z</time></trkpt><trkpt lat="45.382221" lon="10.6140412"><ele>103.0</ele><time>2026-03-28T09:11:12.035Z</time></trkpt><trkpt lat="45.3821497" lon="10.6141365"><ele>103.00000000000001</ele><time>2026-03-28T09:11:13.035Z</time></trkpt><trkpt lat="45.3820867" lon="10.6142213"><ele>103.0</ele><time>2026-03-28T09:11:14.034Z</time></trkpt><trkpt lat="45.3820293" lon="10.6143058"><ele>103.0</ele><time>2026-03-28T09:11:15.034Z</time></trkpt><trkpt lat="45.3819903" lon="10.6143948"><ele>103.0</ele><time>2026-03-28T09:11:16.035Z</time></trkpt><trkpt lat="45.3819773" lon="10.6144883"><ele>103.00000000000001</ele><time>2026-03-28T09:11:17.035Z</time></trkpt><trkpt lat="45.3819772" lon="10.6145977"><ele>103.0</ele><time>2026-03-28T09:11:18.031Z</time></trkpt><trkpt lat="45.3819778" lon="10.6147185"><ele>103.0</ele><time>2026-03-28T09:11:19.034Z</time></trkpt><trkpt lat="45.3819747" lon="10.6148493"><ele>103.0</ele><time>2026-03-28T09:11:20.031Z</time></trkpt><trkpt lat="45.3819698" lon="10.6149922"><ele>103.0</ele><time>2026-03-28T09:11:21.033Z</time></trkpt><trkpt lat="45.3819627" lon="10.6151452"><ele>103.0</ele><time>2026-03-28T09:11:22.034Z</time></trkpt><trkpt lat="45.3819553" lon="10.6153092"><ele>103.0</ele><time>2026-03-28T09:11:23.035Z</time></trkpt><trkpt lat="45.3819527" lon="10.6154777"><ele>103.0</ele><time>2026-03-28T09:11:24.034Z</time></trkpt><trkpt lat="45.3819502" lon="10.6156507"><ele>103.0</ele><time>2026-03-28T09:11:25.036Z</time></trkpt><trkpt lat="45.3819453" lon="10.6158278"><ele>103.0</ele><time>2026-03-28T09:11:26.034Z</time></trkpt><trkpt lat="45.3819402" lon="10.6160117"><ele>103.0</ele><time>2026-03-28T09:11:27.033Z</time></trkpt><trkpt lat="45.3819348" lon="10.6161978"><ele>103.0</ele><time>2026-03-28T09:11:28.035Z</time></trkpt><trkpt lat="45.3819322" lon="10.6163808"><ele>103.0</ele><time>2026-03-28T09:11:29.034Z</time></trkpt><trkpt lat="45.3819295" lon="10.6165613"><ele>103.0</ele><time>2026-03-28T09:11:30.033Z</time></trkpt><trkpt lat="45.3819235" lon="10.6167473"><ele>103.0</ele><time>2026-03-28T09:11:31.034Z</time></trkpt><trkpt lat="45.3819187" lon="10.6169268"><ele>102.4</ele><time>2026-03-28T09:11:32.035Z</time></trkpt><trkpt lat="45.3819148" lon="10.617096"><ele>101.80000000000001</ele><time>2026-03-28T09:11:33.032Z</time></trkpt><trkpt lat="45.3819128" lon="10.6172547"><ele>101.2</ele><time>2026-03-28T09:11:34.033Z</time></trkpt><trkpt lat="45.3819122" lon="10.6174082"><ele>100.6</ele><time>2026-03-28T09:11:35.036Z</time></trkpt><trkpt lat="45.381916" lon="10.6175545"><ele>100.0</ele><time>2026-03-28T09:11:36.034Z</time></trkpt><trkpt lat="45.3819228" lon="10.6176945"><ele>100.4</ele><time>2026-03-28T09:11:37.035Z</time></trkpt><trkpt lat="45.3819383" lon="10.6178268"><ele>100.8</ele><time>2026-03-28T09:11:38.036Z</time></trkpt><trkpt lat="45.3819617" lon="10.6179528"><ele>101.19999999999999</ele><time>2026-03-28T09:11:39.034Z</time></trkpt><trkpt lat="45.381984" lon="10.6180798"><ele>101.6</ele><time>2026-03-28T09:11:40.034Z</time></trkpt><trkpt lat="45.3819992" lon="10.618204"><ele>102.0</ele><time>2026-03-28T09:11:41.034Z</time></trkpt><trkpt lat="45.3820065" lon="10.6183242"><ele>102.0</ele><time>2026-03-28T09:11:42.032Z</time></trkpt><trkpt lat="45.382014" lon="10.618457"><ele>102.0</ele><time>2026-03-28T09:11:43.032Z</time></trkpt><trkpt lat="45.382032" lon="10.6186053"><ele>102.0</ele><time>2026-03-28T09:11:44.032Z</time></trkpt><trkpt lat="45.382062" lon="10.6187653"><ele>102.0</ele><time>2026-03-28T09:11:45.035Z</time></trkpt><trkpt lat="45.3820878" lon="10.6189072"><ele>102.0</ele><time>2026-03-28T09:11:46.035Z</time></trkpt><trkpt lat="45.3821077" lon="10.6190468"><ele>102.33333333333333</ele><time>2026-03-28T09:11:47.034Z</time></trkpt><trkpt lat="45.3821178" lon="10.6191695"><ele>102.66666666666666</ele><time>2026-03-28T09:11:48.034Z</time></trkpt><trkpt lat="45.3821163" lon="10.6192817"><ele>103.0</ele><time>2026-03-28T09:11:49.034Z</time></trkpt><trkpt lat="45.3821" lon="10.6193942"><ele>103.33333333333333</ele><time>2026-03-28T09:11:50.036Z</time></trkpt><trkpt lat="45.3820743" lon="10.6195217"><ele>103.66666666666666</ele><time>2026-03-28T09:11:51.034Z</time></trkpt><trkpt lat="45.3820403" lon="10.6196605"><ele>104.0</ele><time>2026-03-28T09:11:52.033Z</time></trkpt><trkpt lat="45.382" lon="10.6198048"><ele>104.0</ele><time>2026-03-28T09:11:53.034Z</time></trkpt><trkpt lat="45.3819595" lon="10.6199415"><ele>104.0</ele><time>2026-03-28T09:11:54.035Z</time></trkpt><trkpt lat="45.3819188" lon="10.6200762"><ele>104.0</ele><time>2026-03-28T09:11:55.033Z</time></trkpt><trkpt lat="45.3818752" lon="10.6202098"><ele>104.0</ele><time>2026-03-28T09:11:56.035Z</time></trkpt><trkpt lat="45.3818335" lon="10.6203337"><ele>104.0</ele><time>2026-03-28T09:11:57.035Z</time></trkpt><trkpt lat="45.3817968" lon="10.6204473"><ele>103.4</ele><time>2026-03-28T09:11:58.034Z</time></trkpt><trkpt lat="45.3817748" lon="10.6205638"><ele>102.80000000000001</ele><time>2026-03-28T09:11:59.035Z</time></trkpt><trkpt lat="45.3817633" lon="10.6207027"><ele>102.19999999999999</ele><time>2026-03-28T09:12:00.033Z</time></trkpt><trkpt lat="45.3817568" lon="10.620854"><ele>101.6</ele><time>2026-03-28T09:12:01.034Z</time></trkpt><trkpt lat="45.3817507" lon="10.6210118"><ele>101.0</ele><time>2026-03-28T09:12:02.036Z</time></trkpt><trkpt lat="45.3817487" lon="10.6211753"><ele>100.8</ele><time>2026-03-28T09:12:03.036Z</time></trkpt><trkpt lat="45.3817512" lon="10.6213315"><ele>100.6</ele><time>2026-03-28T09:12:04.035Z</time></trkpt><trkpt lat="45.3817528" lon="10.6214745"><ele>100.4</ele><time>2026-03-28T09:12:05.033Z</time></trkpt><trkpt lat="45.3817502" lon="10.6216032"><ele>100.2</ele><time>2026-03-28T09:12:06.032Z</time></trkpt><trkpt lat="45.381746" lon="10.6217323"><ele>100.0</ele><time>2026-03-28T09:12:07.032Z</time></trkpt><trkpt lat="45.3817437" lon="10.621869"><ele>100.0</ele><time>2026-03-28T09:12:08.031Z</time></trkpt><trkpt lat="45.3817418" lon="10.6220055"><ele>100.0</ele><time>2026-03-28T09:12:09.032Z</time></trkpt><trkpt lat="45.3817383" lon="10.6221332"><ele>100.0</ele><time>2026-03-28T09:12:10.032Z</time></trkpt><trkpt lat="45.3817355" lon="10.6222665"><ele>100.0</ele><time>2026-03-28T09:12:11.033Z</time></trkpt><trkpt lat="45.3817308" lon="10.6224222"><ele>100.0</ele><time>2026-03-28T09:12:12.034Z</time></trkpt><trkpt lat="45.3817183" lon="10.6225823"><ele>100.0</ele><time>2026-03-28T09:12:13.035Z</time></trkpt><trkpt lat="45.3817012" lon="10.6227507"><ele>100.0</ele><time>2026-03-28T09:12:14.035Z</time></trkpt><trkpt lat="45.381685" lon="10.6229155"><ele>100.0</ele><time>2026-03-28T09:12:15.035Z</time></trkpt><trkpt lat="45.3816742" lon="10.623096"><ele>100.0</ele><time>2026-03-28T09:12:16.436Z</time></trkpt><trkpt lat="45.3816887" lon="10.6232448"><ele>100.0</ele><time>2026-03-28T09:12:18.035Z</time></trkpt><trkpt lat="45.3817015" lon="10.623395"><ele>100.0</ele><time>2026-03-28T09:12:20.035Z</time></trkpt><trkpt lat="45.3816978" lon="10.623545"><ele>100.0</ele><time>2026-03-28T09:12:22.035Z</time></trkpt><trkpt lat="45.3816922" lon="10.6237028"><ele>100.0</ele><time>2026-03-28T09:12:24.035Z</time></trkpt><trkpt lat="45.3816827" lon="10.6238748"><ele>100.0</ele><time>2026-03-28T09:12:26.034Z</time></trkpt><trkpt lat="45.3816738" lon="10.6239738"><ele>100.16666666666667</ele><time>2026-03-28T09:12:27.035Z</time></trkpt><trkpt lat="45.3816602" lon="10.6240695"><ele>100.33333333333334</ele><time>2026-03-28T09:12:28.036Z</time></trkpt><trkpt lat="45.3816445" lon="10.6241687"><ele>100.5</ele><time>2026-03-28T09:12:29.036Z</time></trkpt><trkpt lat="45.3816385" lon="10.6243383"><ele>100.66666666666666</ele><time>2026-03-28T09:12:31.033Z</time></trkpt><trkpt lat="45.3816398" lon="10.6244548"><ele>100.83333333333333</ele><time>2026-03-28T09:12:32.032Z</time></trkpt><trkpt lat="45.3816355" lon="10.6245782"><ele>101.0</ele><time>2026-03-28T09:12:33.032Z</time></trkpt><trkpt lat="45.381632" lon="10.6247062"><ele>100.75</ele><time>2026-03-28T09:12:34.032Z</time></trkpt><trkpt lat="45.3816253" lon="10.6248468"><ele>100.5</ele><time>2026-03-28T09:12:35.037Z</time></trkpt><trkpt lat="45.3816148" lon="10.6250118"><ele>100.25</ele><time>2026-03-28T09:12:36.037Z</time></trkpt><trkpt lat="45.3815967" lon="10.6252022"><ele>100.0</ele><time>2026-03-28T09:12:37.035Z</time></trkpt><trkpt lat="45.3815675" lon="10.6254217"><ele>100.0</ele><time>2026-03-28T09:12:38.035Z</time></trkpt><trkpt lat="45.381536" lon="10.6256468"><ele>100.0</ele><time>2026-03-28T09:12:39.036Z</time></trkpt><trkpt lat="45.3815053" lon="10.6258587"><ele>100.0</ele><time>2026-03-28T09:12:40.035Z</time></trkpt><trkpt lat="45.3814733" lon="10.6260748"><ele>100.33333333333334</ele><time>2026-03-28T09:12:41.036Z</time></trkpt><trkpt lat="45.3814365" lon="10.6263187"><ele>100.66666666666666</ele><time>2026-03-28T09:12:42.034Z</time></trkpt><trkpt lat="45.3813967" lon="10.6266008"><ele>101.0</ele><time>2026-03-28T09:12:43.035Z</time></trkpt><trkpt lat="45.3813562" lon="10.6268743"><ele>102.5</ele><time>2026-03-28T09:12:44.035Z</time></trkpt><trkpt lat="45.3813217" lon="10.6271077"><ele>104.0</ele><time>2026-03-28T09:12:45.035Z</time></trkpt><trkpt lat="45.381297" lon="10.6273015"><ele>105.5</ele><time>2026-03-28T09:12:46.036Z</time></trkpt><trkpt lat="45.3812773" lon="10.6274755"><ele>107.0</ele><time>2026-03-28T09:12:47.035Z</time></trkpt><trkpt lat="45.3812588" lon="10.6276187"><ele>107.0</ele><time>2026-03-28T09:12:48.034Z</time></trkpt><trkpt lat="45.3812405" lon="10.6277165"><ele>106.99999999999999</ele><time>2026-03-28T09:12:49.034Z</time></trkpt><trkpt lat="45.381166" lon="10.6278158"><ele>106.99999999999999</ele><time>2026-03-28T09:12:51.034Z</time></trkpt><trkpt lat="45.381089" lon="10.627848"><ele>107.0</ele><time>2026-03-28T09:12:52.034Z</time></trkpt><trkpt lat="45.3809818" lon="10.6278898"><ele>107.0</ele><time>2026-03-28T09:12:53.034Z</time></trkpt><trkpt lat="45.3808533" lon="10.627944"><ele>107.33333333333333</ele><time>2026-03-28T09:12:54.031Z</time></trkpt><trkpt lat="45.380699" lon="10.6280155"><ele>107.66666666666666</ele><time>2026-03-28T09:12:55.032Z</time></trkpt><trkpt lat="45.3805505" lon="10.6280903"><ele>108.0</ele><time>2026-03-28T09:12:56.029Z</time></trkpt><trkpt lat="45.3804142" lon="10.6281817"><ele>108.0</ele><time>2026-03-28T09:12:57.032Z</time></trkpt><trkpt lat="45.3802972" lon="10.6282803"><ele>108.0</ele><time>2026-03-28T09:12:58.03Z</time></trkpt><trkpt lat="45.380197" lon="10.6283808"><ele>108.0</ele><time>2026-03-28T09:12:59.033Z</time></trkpt><trkpt lat="45.3801027" lon="10.628457"><ele>108.0</ele><time>2026-03-28T09:13:00.033Z</time></trkpt><trkpt lat="45.3799985" lon="10.628498"><ele>108.0</ele><time>2026-03-28T09:13:01.033Z</time></trkpt><trkpt lat="45.3798862" lon="10.6285035"><ele>108.0</ele><time>2026-03-28T09:13:02.034Z</time></trkpt><trkpt lat="45.379753" lon="10.6284797"><ele>108.0</ele><time>2026-03-28T09:13:03.033Z</time></trkpt><trkpt lat="45.379605" lon="10.6284383"><ele>108.0</ele><time>2026-03-28T09:13:04.034Z</time></trkpt><trkpt lat="45.3794752" lon="10.6283955"><ele>108.5</ele><time>2026-03-28T09:13:05.033Z</time></trkpt><trkpt lat="45.3793733" lon="10.628376"><ele>109.0</ele><time>2026-03-28T09:13:06.032Z</time></trkpt><trkpt lat="45.3792772" lon="10.628386"><ele>109.5</ele><time>2026-03-28T09:13:07.033Z</time></trkpt><trkpt lat="45.379153" lon="10.6284085"><ele>110.0</ele><time>2026-03-28T09:13:08.032Z</time></trkpt><trkpt lat="45.3790048" lon="10.6284417"><ele>108.75</ele><time>2026-03-28T09:13:09.032Z</time></trkpt><trkpt lat="45.37885" lon="10.6284807"><ele>107.5</ele><time>2026-03-28T09:13:10.031Z</time></trkpt><trkpt lat="45.378709" lon="10.628539"><ele>106.25</ele><time>2026-03-28T09:13:11.03Z</time></trkpt><trkpt lat="45.3785865" lon="10.6286145"><ele>105.0</ele><time>2026-03-28T09:13:12.028Z</time></trkpt><trkpt lat="45.3784572" lon="10.6287223"><ele>105.0</ele><time>2026-03-28T09:13:13.033Z</time></trkpt><trkpt lat="45.378316" lon="10.6288513"><ele>105.0</ele><time>2026-03-28T09:13:14.032Z</time></trkpt><trkpt lat="45.3781732" lon="10.6289817"><ele>105.0</ele><time>2026-03-28T09:13:15.033Z</time></trkpt><trkpt lat="45.3780352" lon="10.6291113"><ele>105.33333333333334</ele><time>2026-03-28T09:13:16.036Z</time></trkpt><trkpt lat="45.3779055" lon="10.6292403"><ele>105.66666666666667</ele><time>2026-03-28T09:13:17.033Z</time></trkpt><trkpt lat="45.3777927" lon="10.6293798"><ele>106.0</ele><time>2026-03-28T09:13:18.033Z</time></trkpt><trkpt lat="45.3776948" lon="10.629528"><ele>106.0</ele><time>2026-03-28T09:13:19.031Z</time></trkpt><trkpt lat="45.3776022" lon="10.6296785"><ele>106.0</ele><time>2026-03-28T09:13:20.03Z</time></trkpt><trkpt lat="45.3775158" lon="10.6298207"><ele>106.0</ele><time>2026-03-28T09:13:21.03Z</time></trkpt><trkpt lat="45.3774265" lon="10.6299558"><ele>106.0</ele><time>2026-03-28T09:13:22.03Z</time></trkpt><trkpt lat="45.3773382" lon="10.6300733"><ele>106.0</ele><time>2026-03-28T09:13:23.031Z</time></trkpt><trkpt lat="45.37725" lon="10.630153"><ele>106.0</ele><time>2026-03-28T09:13:24.03Z</time></trkpt><trkpt lat="45.3771647" lon="10.6302072"><ele>106.0</ele><time>2026-03-28T09:13:25.031Z</time></trkpt><trkpt lat="45.3770642" lon="10.6302363"><ele>106.0</ele><time>2026-03-28T09:13:26.03Z</time></trkpt><trkpt lat="45.3769572" lon="10.6302622"><ele>106.0</ele><time>2026-03-28T09:13:27.03Z</time></trkpt><trkpt lat="45.3768473" lon="10.6302993"><ele>107.19999999999999</ele><time>2026-03-28T09:13:28.031Z</time></trkpt><trkpt lat="45.3767513" lon="10.6303597"><ele>108.39999999999999</ele><time>2026-03-28T09:13:29.032Z</time></trkpt><trkpt lat="45.3766718" lon="10.6304433"><ele>109.6</ele><time>2026-03-28T09:13:30.03Z</time></trkpt><trkpt lat="45.3766008" lon="10.6305525"><ele>110.8</ele><time>2026-03-28T09:13:31.031Z</time></trkpt><trkpt lat="45.376534" lon="10.6307013"><ele>112.0</ele><time>2026-03-28T09:13:32.03Z</time></trkpt><trkpt lat="45.376459" lon="10.6309032"><ele>112.0</ele><time>2026-03-28T09:13:33.028Z</time></trkpt><trkpt lat="45.3763777" lon="10.6311402"><ele>112.0</ele><time>2026-03-28T09:13:34.033Z</time></trkpt><trkpt lat="45.376299" lon="10.6314042"><ele>112.0</ele><time>2026-03-28T09:13:35.03Z</time></trkpt><trkpt lat="45.3762138" lon="10.6316793"><ele>114.66666666666667</ele><time>2026-03-28T09:13:36.029Z</time></trkpt><trkpt lat="45.3761408" lon="10.6319467"><ele>117.33333333333334</ele><time>2026-03-28T09:13:37.031Z</time></trkpt><trkpt lat="45.3760832" lon="10.6322017"><ele>120.0</ele><time>2026-03-28T09:13:38.031Z</time></trkpt><trkpt lat="45.3760387" lon="10.632453"><ele>120.0</ele><time>2026-03-28T09:13:39.032Z</time></trkpt><trkpt lat="45.3760005" lon="10.6327092"><ele>120.0</ele><time>2026-03-28T09:13:40.03Z</time></trkpt><trkpt lat="45.3759725" lon="10.6329475"><ele>120.0</ele><time>2026-03-28T09:13:41.031Z</time></trkpt><trkpt lat="45.3759507" lon="10.6331632"><ele>118.2</ele><time>2026-03-28T09:13:42.03Z</time></trkpt><trkpt lat="45.3759212" lon="10.6333493"><ele>116.4</ele><time>2026-03-28T09:13:43.031Z</time></trkpt><trkpt lat="45.3758998" lon="10.6335077"><ele>114.6</ele><time>2026-03-28T09:13:44.031Z</time></trkpt><trkpt lat="45.3758882" lon="10.6336267"><ele>112.8</ele><time>2026-03-28T09:13:45.028Z</time></trkpt><trkpt lat="45.3758947" lon="10.6337167"><ele>111.0</ele><time>2026-03-28T09:13:46.03Z</time></trkpt><trkpt lat="45.3759287" lon="10.6337977"><ele>110.25</ele><time>2026-03-28T09:13:47.029Z</time></trkpt><trkpt lat="45.3759808" lon="10.6339062"><ele>109.5</ele><time>2026-03-28T09:13:48.03Z</time></trkpt><trkpt lat="45.3760557" lon="10.6340283"><ele>108.75</ele><time>2026-03-28T09:13:49.031Z</time></trkpt><trkpt lat="45.376146" lon="10.6341522"><ele>108.0</ele><time>2026-03-28T09:13:50.032Z</time></trkpt><trkpt lat="45.3762367" lon="10.6342602"><ele>108.0</ele><time>2026-03-28T09:13:51.031Z</time></trkpt><trkpt lat="45.3763142" lon="10.634361"><ele>108.00000000000001</ele><time>2026-03-28T09:13:52.031Z</time></trkpt><trkpt lat="45.376374" lon="10.6344582"><ele>108.00000000000001</ele><time>2026-03-28T09:13:53.031Z</time></trkpt><trkpt lat="45.3764265" lon="10.6345752"><ele>108.0</ele><time>2026-03-28T09:13:54.031Z</time></trkpt><trkpt lat="45.37647" lon="10.6347248"><ele>108.0</ele><time>2026-03-28T09:13:55.031Z</time></trkpt><trkpt lat="45.376516" lon="10.634875"><ele>107.60000000000001</ele><time>2026-03-28T09:13:56.034Z</time></trkpt><trkpt lat="45.3765602" lon="10.6350187"><ele>107.20000000000002</ele><time>2026-03-28T09:13:57.031Z</time></trkpt><trkpt lat="45.3765853" lon="10.6351412"><ele>106.8</ele><time>2026-03-28T09:13:58.031Z</time></trkpt><trkpt lat="45.376586" lon="10.6352437"><ele>106.4</ele><time>2026-03-28T09:13:59.031Z</time></trkpt><trkpt lat="45.3765403" lon="10.6354207"><ele>106.0</ele><time>2026-03-28T09:14:01.032Z</time></trkpt><trkpt lat="45.3765033" lon="10.6355408"><ele>107.33333333333334</ele><time>2026-03-28T09:14:02.031Z</time></trkpt><trkpt lat="45.376468" lon="10.6356583"><ele>108.66666666666667</ele><time>2026-03-28T09:14:03.031Z</time></trkpt><trkpt lat="45.3764403" lon="10.6357428"><ele>110.0</ele><time>2026-03-28T09:14:04.032Z</time></trkpt><trkpt lat="45.3763708" lon="10.6357732"><ele>111.33333333333334</ele><time>2026-03-28T09:14:06.033Z</time></trkpt><trkpt lat="45.3762995" lon="10.6357538"><ele>112.66666666666667</ele><time>2026-03-28T09:14:07.031Z</time></trkpt><trkpt lat="45.376214" lon="10.6356767"><ele>114.0</ele><time>2026-03-28T09:14:08.031Z</time></trkpt><trkpt lat="45.3761087" lon="10.6355868"><ele>114.5</ele><time>2026-03-28T09:14:09.028Z</time></trkpt><trkpt lat="45.3759945" lon="10.6354973"><ele>115.0</ele><time>2026-03-28T09:14:10.03Z</time></trkpt><trkpt lat="45.3758897" lon="10.6354285"><ele>115.5</ele><time>2026-03-28T09:14:11.03Z</time></trkpt><trkpt lat="45.3757898" lon="10.635375"><ele>116.0</ele><time>2026-03-28T09:14:12.027Z</time></trkpt><trkpt lat="45.3756938" lon="10.6353403"><ele>115.99999999999999</ele><time>2026-03-28T09:14:13.029Z</time></trkpt><trkpt lat="45.3756042" lon="10.6353298"><ele>116.0</ele><time>2026-03-28T09:14:14.033Z</time></trkpt><trkpt lat="45.3755183" lon="10.6353402"><ele>116.0</ele><time>2026-03-28T09:14:15.03Z</time></trkpt><trkpt lat="45.3754413" lon="10.63537"><ele>116.0</ele><time>2026-03-28T09:14:16.033Z</time></trkpt><trkpt lat="45.3753702" lon="10.6354227"><ele>115.99999999999999</ele><time>2026-03-28T09:14:17.03Z</time></trkpt><trkpt lat="45.375305" lon="10.6354845"><ele>116.0</ele><time>2026-03-28T09:14:18.03Z</time></trkpt><trkpt lat="45.3752477" lon="10.6355545"><ele>115.33333333333333</ele><time>2026-03-28T09:14:19.03Z</time></trkpt><trkpt lat="45.3752017" lon="10.635616"><ele>114.66666666666666</ele><time>2026-03-28T09:14:20.03Z</time></trkpt><trkpt lat="45.3751243" lon="10.6357158"><ele>114.0</ele><time>2026-03-28T09:14:22.034Z</time></trkpt><trkpt lat="45.375076" lon="10.6357777"><ele>113.33333333333334</ele><time>2026-03-28T09:14:23.032Z</time></trkpt><trkpt lat="45.3750218" lon="10.6358557"><ele>112.66666666666667</ele><time>2026-03-28T09:14:24.033Z</time></trkpt><trkpt lat="45.3749632" lon="10.6359397"><ele>112.0</ele><time>2026-03-28T09:14:25.034Z</time></trkpt><trkpt lat="45.3749055" lon="10.6360262"><ele>112.00000000000001</ele><time>2026-03-28T09:14:26.032Z</time></trkpt><trkpt lat="45.3748443" lon="10.6361027"><ele>112.0</ele><time>2026-03-28T09:14:27.032Z</time></trkpt><trkpt lat="45.3747797" lon="10.636168"><ele>112.0</ele><time>2026-03-28T09:14:28.033Z</time></trkpt><trkpt lat="45.374714" lon="10.6362245"><ele>112.0</ele><time>2026-03-28T09:14:29.031Z</time></trkpt><trkpt lat="45.3746542" lon="10.6362692"><ele>112.00000000000001</ele><time>2026-03-28T09:14:30.032Z</time></trkpt><trkpt lat="45.374562" lon="10.6363527"><ele>112.0</ele><time>2026-03-28T09:14:32.032Z</time></trkpt><trkpt lat="45.374485" lon="10.6364397"><ele>111.66666666666667</ele><time>2026-03-28T09:14:34.03Z</time></trkpt><trkpt lat="45.3744645" lon="10.636574"><ele>111.33333333333334</ele><time>2026-03-28T09:14:36.032Z</time></trkpt><trkpt lat="45.3744868" lon="10.636666"><ele>111.0</ele><time>2026-03-28T09:14:37.03Z</time></trkpt><trkpt lat="45.3745205" lon="10.6367728"><ele>110.66666666666666</ele><time>2026-03-28T09:14:38.032Z</time></trkpt><trkpt lat="45.3745623" lon="10.636898"><ele>110.33333333333333</ele><time>2026-03-28T09:14:39.032Z</time></trkpt><trkpt lat="45.374595" lon="10.6370287"><ele>110.0</ele><time>2026-03-28T09:14:40.033Z</time></trkpt><trkpt lat="45.3746173" lon="10.6371653"><ele>110.0</ele><time>2026-03-28T09:14:41.032Z</time></trkpt><trkpt lat="45.3746238" lon="10.6373165"><ele>110.0</ele><time>2026-03-28T09:14:42.031Z</time></trkpt><trkpt lat="45.3746205" lon="10.637482"><ele>110.0</ele><time>2026-03-28T09:14:43.033Z</time></trkpt><trkpt lat="45.3746232" lon="10.6376623"><ele>110.0</ele><time>2026-03-28T09:14:44.03Z</time></trkpt><trkpt lat="45.3746398" lon="10.6378432"><ele>110.5</ele><time>2026-03-28T09:14:45.031Z</time></trkpt><trkpt lat="45.3746695" lon="10.6380307"><ele>111.0</ele><time>2026-03-28T09:14:46.032Z</time></trkpt><trkpt lat="45.374707" lon="10.6382092"><ele>111.5</ele><time>2026-03-28T09:14:47.032Z</time></trkpt><trkpt lat="45.3747422" lon="10.638374"><ele>112.0</ele><time>2026-03-28T09:14:48.035Z</time></trkpt><trkpt lat="45.3747647" lon="10.6384942"><ele>112.83333333333334</ele><time>2026-03-28T09:14:49.032Z</time></trkpt><trkpt lat="45.3747763" lon="10.6385903"><ele>113.66666666666667</ele><time>2026-03-28T09:14:50.031Z</time></trkpt><trkpt lat="45.374787" lon="10.6386947"><ele>114.5</ele><time>2026-03-28T09:14:51.033Z</time></trkpt><trkpt lat="45.374802" lon="10.6388158"><ele>115.33333333333334</ele><time>2026-03-28T09:14:52.033Z</time></trkpt><trkpt lat="45.3748123" lon="10.6389395"><ele>116.16666666666667</ele><time>2026-03-28T09:14:53.032Z</time></trkpt><trkpt lat="45.3748153" lon="10.639072"><ele>117.0</ele><time>2026-03-28T09:14:54.033Z</time></trkpt><trkpt lat="45.374817" lon="10.6392127"><ele>117.25</ele><time>2026-03-28T09:14:55.032Z</time></trkpt><trkpt lat="45.3748228" lon="10.6393605"><ele>117.5</ele><time>2026-03-28T09:14:56.031Z</time></trkpt><trkpt lat="45.3748432" lon="10.6395208"><ele>117.75</ele><time>2026-03-28T09:14:57.031Z</time></trkpt><trkpt lat="45.3748797" lon="10.6396847"><ele>118.0</ele><time>2026-03-28T09:14:58.031Z</time></trkpt><trkpt lat="45.3749332" lon="10.639853"><ele>118.0</ele><time>2026-03-28T09:14:59.03Z</time></trkpt><trkpt lat="45.3750018" lon="10.6400128"><ele>118.0</ele><time>2026-03-28T09:15:00.03Z</time></trkpt><trkpt lat="45.3750728" lon="10.6401495"><ele>118.0</ele><time>2026-03-28T09:15:01.029Z</time></trkpt><trkpt lat="45.3751352" lon="10.6402687"><ele>118.0</ele><time>2026-03-28T09:15:02.034Z</time></trkpt><trkpt lat="45.3751925" lon="10.6403823"><ele>117.16666666666667</ele><time>2026-03-28T09:15:03.033Z</time></trkpt><trkpt lat="45.3752417" lon="10.6404928"><ele>116.33333333333334</ele><time>2026-03-28T09:15:04.033Z</time></trkpt><trkpt lat="45.3752807" lon="10.6406012"><ele>115.5</ele><time>2026-03-28T09:15:05.033Z</time></trkpt><trkpt lat="45.3753008" lon="10.6407098"><ele>114.66666666666666</ele><time>2026-03-28T09:15:06.034Z</time></trkpt><trkpt lat="45.3753" lon="10.6408133"><ele>113.83333333333333</ele><time>2026-03-28T09:15:07.035Z</time></trkpt><trkpt lat="45.3752807" lon="10.6409042"><ele>113.0</ele><time>2026-03-28T09:15:08.035Z</time></trkpt><trkpt lat="45.3752458" lon="10.6409805"><ele>113.0</ele><time>2026-03-28T09:15:09.033Z</time></trkpt><trkpt lat="45.3751982" lon="10.641046"><ele>113.00000000000001</ele><time>2026-03-28T09:15:10.034Z</time></trkpt><trkpt lat="45.375125" lon="10.6411012"><ele>113.00000000000001</ele><time>2026-03-28T09:15:11.033Z</time></trkpt><trkpt lat="45.3750097" lon="10.6411492"><ele>113.0</ele><time>2026-03-28T09:15:12.037Z</time></trkpt><trkpt lat="45.3748512" lon="10.6411872"><ele>113.0</ele><time>2026-03-28T09:15:13.033Z</time></trkpt><trkpt lat="45.3746802" lon="10.6412045"><ele>111.66666666666666</ele><time>2026-03-28T09:15:14.034Z</time></trkpt><trkpt lat="45.374503" lon="10.6412075"><ele>110.33333333333334</ele><time>2026-03-28T09:15:15.034Z</time></trkpt><trkpt lat="45.3743242" lon="10.6412053"><ele>109.0</ele><time>2026-03-28T09:15:16.034Z</time></trkpt><trkpt lat="45.374152" lon="10.6412052"><ele>109.0</ele><time>2026-03-28T09:15:17.036Z</time></trkpt><trkpt lat="45.3739803" lon="10.6412208"><ele>109.0</ele><time>2026-03-28T09:15:18.033Z</time></trkpt><trkpt lat="45.3738103" lon="10.6412758"><ele>109.0</ele><time>2026-03-28T09:15:19.035Z</time></trkpt><trkpt lat="45.3736455" lon="10.641378"><ele>108.0</ele><time>2026-03-28T09:15:20.034Z</time></trkpt><trkpt lat="45.3734865" lon="10.641518"><ele>107.0</ele><time>2026-03-28T09:15:21.033Z</time></trkpt><trkpt lat="45.3733283" lon="10.6416677"><ele>106.0</ele><time>2026-03-28T09:15:22.032Z</time></trkpt><trkpt lat="45.3731747" lon="10.6418075"><ele>106.0</ele><time>2026-03-28T09:15:23.031Z</time></trkpt><trkpt lat="45.373029" lon="10.6419398"><ele>106.0</ele><time>2026-03-28T09:15:24.03Z</time></trkpt><trkpt lat="45.3728835" lon="10.6420647"><ele>106.0</ele><time>2026-03-28T09:15:25.031Z</time></trkpt><trkpt lat="45.372731" lon="10.6421707"><ele>106.0</ele><time>2026-03-28T09:15:26.031Z</time></trkpt><trkpt lat="45.3725655" lon="10.642246"><ele>106.0</ele><time>2026-03-28T09:15:27.035Z</time></trkpt><trkpt lat="45.37239" lon="10.6422912"><ele>106.0</ele><time>2026-03-28T09:15:28.034Z</time></trkpt><trkpt lat="45.3722155" lon="10.642322"><ele>107.0</ele><time>2026-03-28T09:15:29.032Z</time></trkpt><trkpt lat="45.3720513" lon="10.6423485"><ele>108.0</ele><time>2026-03-28T09:15:30.033Z</time></trkpt><trkpt lat="45.3718942" lon="10.6423747"><ele>109.0</ele><time>2026-03-28T09:15:31.033Z</time></trkpt><trkpt lat="45.3717347" lon="10.6424028"><ele>109.0</ele><time>2026-03-28T09:15:32.033Z</time></trkpt><trkpt lat="45.3715728" lon="10.6424338"><ele>109.0</ele><time>2026-03-28T09:15:33.033Z</time></trkpt><trkpt lat="45.3714123" lon="10.6424713"><ele>109.0</ele><time>2026-03-28T09:15:34.033Z</time></trkpt><trkpt lat="45.3712582" lon="10.6425308"><ele>108.66666666666667</ele><time>2026-03-28T09:15:35.038Z</time></trkpt><trkpt lat="45.3711092" lon="10.6426345"><ele>108.33333333333334</ele><time>2026-03-28T09:15:36.034Z</time></trkpt><trkpt lat="45.3709737" lon="10.6427853"><ele>108.0</ele><time>2026-03-28T09:15:37.033Z</time></trkpt><trkpt lat="45.3708498" lon="10.6429618"><ele>108.0</ele><time>2026-03-28T09:15:38.034Z</time></trkpt><trkpt lat="45.370734" lon="10.643137"><ele>108.0</ele><time>2026-03-28T09:15:39.033Z</time></trkpt><trkpt lat="45.370619" lon="10.6432958"><ele>108.0</ele><time>2026-03-28T09:15:40.032Z</time></trkpt><trkpt lat="45.3704937" lon="10.6434255"><ele>108.33333333333334</ele><time>2026-03-28T09:15:41.033Z</time></trkpt><trkpt lat="45.3703537" lon="10.64352"><ele>108.66666666666667</ele><time>2026-03-28T09:15:42.032Z</time></trkpt><trkpt lat="45.3702017" lon="10.64359"><ele>109.0</ele><time>2026-03-28T09:15:43.033Z</time></trkpt><trkpt lat="45.370043" lon="10.6436498"><ele>109.66666666666667</ele><time>2026-03-28T09:15:44.033Z</time></trkpt><trkpt lat="45.3698805" lon="10.6437083"><ele>110.33333333333334</ele><time>2026-03-28T09:15:45.033Z</time></trkpt><trkpt lat="45.3697182" lon="10.6437732"><ele>111.0</ele><time>2026-03-28T09:15:46.034Z</time></trkpt><trkpt lat="45.3695577" lon="10.6438443"><ele>111.0</ele><time>2026-03-28T09:15:47.034Z</time></trkpt><trkpt lat="45.3693983" lon="10.6439255"><ele>111.0</ele><time>2026-03-28T09:15:48.031Z</time></trkpt><trkpt lat="45.3692388" lon="10.6440128"><ele>111.0</ele><time>2026-03-28T09:15:49.032Z</time></trkpt><trkpt lat="45.3690783" lon="10.6440997"><ele>111.0</ele><time>2026-03-28T09:15:50.029Z</time></trkpt><trkpt lat="45.3689212" lon="10.6441735"><ele>111.0</ele><time>2026-03-28T09:15:51.034Z</time></trkpt><trkpt lat="45.3687688" lon="10.6442238"><ele>111.0</ele><time>2026-03-28T09:15:52.034Z</time></trkpt><trkpt lat="45.3686208" lon="10.6442527"><ele>110.66666666666666</ele><time>2026-03-28T09:15:53.036Z</time></trkpt><trkpt lat="45.3684687" lon="10.6442735"><ele>110.33333333333333</ele><time>2026-03-28T09:15:54.033Z</time></trkpt><trkpt lat="45.3683125" lon="10.644292"><ele>110.0</ele><time>2026-03-28T09:15:55.033Z</time></trkpt><trkpt lat="45.3681598" lon="10.644302"><ele>110.0</ele><time>2026-03-28T09:15:56.037Z</time></trkpt><trkpt lat="45.3680082" lon="10.6442985"><ele>110.0</ele><time>2026-03-28T09:15:57.033Z</time></trkpt><trkpt lat="45.3678525" lon="10.6442732"><ele>110.0</ele><time>2026-03-28T09:15:58.036Z</time></trkpt><trkpt lat="45.3676948" lon="10.6442227"><ele>110.0</ele><time>2026-03-28T09:15:59.034Z</time></trkpt><trkpt lat="45.3675388" lon="10.6441533"><ele>110.0</ele><time>2026-03-28T09:16:00.034Z</time></trkpt><trkpt lat="45.3673848" lon="10.6440585"><ele>110.0</ele><time>2026-03-28T09:16:01.034Z</time></trkpt><trkpt lat="45.3672363" lon="10.6439327"><ele>109.66666666666666</ele><time>2026-03-28T09:16:02.034Z</time></trkpt><trkpt lat="45.3670893" lon="10.6437765"><ele>109.33333333333334</ele><time>2026-03-28T09:16:03.033Z</time></trkpt><trkpt lat="45.366944" lon="10.6436175"><ele>109.0</ele><time>2026-03-28T09:16:04.033Z</time></trkpt><trkpt lat="45.3668018" lon="10.643473"><ele>108.33333333333334</ele><time>2026-03-28T09:16:05.032Z</time></trkpt><trkpt lat="45.3666605" lon="10.643348"><ele>107.66666666666666</ele><time>2026-03-28T09:16:06.033Z</time></trkpt><trkpt lat="45.3665125" lon="10.6432537"><ele>107.0</ele><time>2026-03-28T09:16:07.034Z</time></trkpt><trkpt lat="45.3663572" lon="10.6431917"><ele>106.66666666666666</ele><time>2026-03-28T09:16:08.033Z</time></trkpt><trkpt lat="45.3661995" lon="10.643168"><ele>106.33333333333334</ele><time>2026-03-28T09:16:09.036Z</time></trkpt><trkpt lat="45.3660515" lon="10.6431965"><ele>106.0</ele><time>2026-03-28T09:16:10.034Z</time></trkpt><trkpt lat="45.3659173" lon="10.643277"><ele>106.0</ele><time>2026-03-28T09:16:11.034Z</time></trkpt><trkpt lat="45.3657925" lon="10.643386"><ele>106.0</ele><time>2026-03-28T09:16:12.031Z</time></trkpt><trkpt lat="45.3656735" lon="10.6434963"><ele>106.0</ele><time>2026-03-28T09:16:13.033Z</time></trkpt><trkpt lat="45.3655543" lon="10.6435988"><ele>106.0</ele><time>2026-03-28T09:16:14.032Z</time></trkpt><trkpt lat="45.3654303" lon="10.6436997"><ele>106.25</ele><time>2026-03-28T09:16:15.032Z</time></trkpt><trkpt lat="45.3653" lon="10.643792"><ele>106.5</ele><time>2026-03-28T09:16:16.035Z</time></trkpt><trkpt lat="45.3651622" lon="10.6438637"><ele>106.75</ele><time>2026-03-28T09:16:17.035Z</time></trkpt><trkpt lat="45.3650167" lon="10.6439067"><ele>107.0</ele><time>2026-03-28T09:16:18.032Z</time></trkpt><trkpt lat="45.3648667" lon="10.6439132"><ele>107.0</ele><time>2026-03-28T09:16:19.033Z</time></trkpt><trkpt lat="45.3647117" lon="10.643889"><ele>107.0</ele><time>2026-03-28T09:16:20.032Z</time></trkpt><trkpt lat="45.3645572" lon="10.6438468"><ele>107.0</ele><time>2026-03-28T09:16:21.033Z</time></trkpt><trkpt lat="45.3644117" lon="10.643798"><ele>107.25</ele><time>2026-03-28T09:16:22.032Z</time></trkpt><trkpt lat="45.3642705" lon="10.643744"><ele>107.5</ele><time>2026-03-28T09:16:23.033Z</time></trkpt><trkpt lat="45.3641278" lon="10.6436862"><ele>107.75</ele><time>2026-03-28T09:16:24.035Z</time></trkpt><trkpt lat="45.3639802" lon="10.6436532"><ele>108.0</ele><time>2026-03-28T09:16:25.033Z</time></trkpt><trkpt lat="45.3638303" lon="10.6436873"><ele>109.66666666666666</ele><time>2026-03-28T09:16:26.034Z</time></trkpt><trkpt lat="45.3636773" lon="10.6437772"><ele>111.33333333333333</ele><time>2026-03-28T09:16:27.033Z</time></trkpt><trkpt lat="45.3635193" lon="10.6438803"><ele>113.0</ele><time>2026-03-28T09:16:28.036Z</time></trkpt><trkpt lat="45.3633585" lon="10.6439863"><ele>113.0</ele><time>2026-03-28T09:16:29.036Z</time></trkpt><trkpt lat="45.3631963" lon="10.6440925"><ele>113.0</ele><time>2026-03-28T09:16:30.034Z</time></trkpt><trkpt lat="45.3630313" lon="10.6441935"><ele>113.0</ele><time>2026-03-28T09:16:31.035Z</time></trkpt><trkpt lat="45.3628617" lon="10.6442865"><ele>114.33333333333333</ele><time>2026-03-28T09:16:32.035Z</time></trkpt><trkpt lat="45.3626853" lon="10.6443512"><ele>115.66666666666666</ele><time>2026-03-28T09:16:33.033Z</time></trkpt><trkpt lat="45.3625015" lon="10.644375"><ele>117.0</ele><time>2026-03-28T09:16:34.033Z</time></trkpt><trkpt lat="45.362314" lon="10.6443795"><ele>118.66666666666666</ele><time>2026-03-28T09:16:35.029Z</time></trkpt><trkpt lat="45.3621292" lon="10.6443923"><ele>120.33333333333333</ele><time>2026-03-28T09:16:36.028Z</time></trkpt><trkpt lat="45.361958" lon="10.6444367"><ele>122.0</ele><time>2026-03-28T09:16:37.028Z</time></trkpt><trkpt lat="45.3618002" lon="10.6445318"><ele>124.33333333333333</ele><time>2026-03-28T09:16:38.027Z</time></trkpt><trkpt lat="45.3616518" lon="10.6446793"><ele>126.66666666666666</ele><time>2026-03-28T09:16:39.03Z</time></trkpt><trkpt lat="45.36151" lon="10.6448317"><ele>129.0</ele><time>2026-03-28T09:16:40.03Z</time></trkpt><trkpt lat="45.3613703" lon="10.6449465"><ele>128.75</ele><time>2026-03-28T09:16:41.032Z</time></trkpt><trkpt lat="45.3612285" lon="10.6450107"><ele>128.5</ele><time>2026-03-28T09:16:42.032Z</time></trkpt><trkpt lat="45.3610857" lon="10.6450227"><ele>128.25</ele><time>2026-03-28T09:16:43.033Z</time></trkpt><trkpt lat="45.3609392" lon="10.6449882"><ele>128.0</ele><time>2026-03-28T09:16:44.033Z</time></trkpt><trkpt lat="45.3607775" lon="10.6449198"><ele>128.0</ele><time>2026-03-28T09:16:45.033Z</time></trkpt><trkpt lat="45.3606032" lon="10.6448407"><ele>128.0</ele><time>2026-03-28T09:16:46.034Z</time></trkpt><trkpt lat="45.3604203" lon="10.6447627"><ele>128.0</ele><time>2026-03-28T09:16:47.033Z</time></trkpt><trkpt lat="45.3602333" lon="10.6446973"><ele>127.0</ele><time>2026-03-28T09:16:48.034Z</time></trkpt><trkpt lat="45.360042" lon="10.6446417"><ele>126.0</ele><time>2026-03-28T09:16:49.036Z</time></trkpt><trkpt lat="45.3598483" lon="10.6445872"><ele>125.0</ele><time>2026-03-28T09:16:50.034Z</time></trkpt><trkpt lat="45.3596572" lon="10.6445318"><ele>125.0</ele><time>2026-03-28T09:16:51.033Z</time></trkpt><trkpt lat="45.3594657" lon="10.6444792"><ele>125.0</ele><time>2026-03-28T09:16:52.034Z</time></trkpt><trkpt lat="45.3592802" lon="10.6444282"><ele>125.0</ele><time>2026-03-28T09:16:53.035Z</time></trkpt><trkpt lat="45.3591028" lon="10.6443782"><ele>124.66666666666666</ele><time>2026-03-28T09:16:54.034Z</time></trkpt><trkpt lat="45.3589265" lon="10.64433"><ele>124.33333333333334</ele><time>2026-03-28T09:16:55.035Z</time></trkpt><trkpt lat="45.3587492" lon="10.6442862"><ele>124.0</ele><time>2026-03-28T09:16:56.034Z</time></trkpt><trkpt lat="45.3585782" lon="10.6442482"><ele>123.75</ele><time>2026-03-28T09:16:57.034Z</time></trkpt><trkpt lat="45.3584255" lon="10.644222"><ele>123.5</ele><time>2026-03-28T09:16:58.033Z</time></trkpt><trkpt lat="45.358291" lon="10.6441992"><ele>123.25</ele><time>2026-03-28T09:16:59.035Z</time></trkpt><trkpt lat="45.358176" lon="10.6441723"><ele>123.0</ele><time>2026-03-28T09:17:00.031Z</time></trkpt><trkpt lat="45.3580812" lon="10.6441392"><ele>122.5</ele><time>2026-03-28T09:17:01.032Z</time></trkpt><trkpt lat="45.3580037" lon="10.6441033"><ele>122.0</ele><time>2026-03-28T09:17:02.031Z</time></trkpt><trkpt lat="45.3579373" lon="10.644069"><ele>121.5</ele><time>2026-03-28T09:17:03.032Z</time></trkpt><trkpt lat="45.357834" lon="10.6440423"><ele>121.0</ele><time>2026-03-28T09:17:05.033Z</time></trkpt><trkpt lat="45.3577558" lon="10.6440735"><ele>120.5</ele><time>2026-03-28T09:17:07.033Z</time></trkpt><trkpt lat="45.357678" lon="10.6441183"><ele>120.0</ele><time>2026-03-28T09:17:08.034Z</time></trkpt><trkpt lat="45.3575833" lon="10.6441592"><ele>120.0</ele><time>2026-03-28T09:17:09.032Z</time></trkpt><trkpt lat="45.3574565" lon="10.6441848"><ele>120.0</ele><time>2026-03-28T09:17:10.032Z</time></trkpt><trkpt lat="45.3573033" lon="10.644188"><ele>120.0</ele><time>2026-03-28T09:17:11.033Z</time></trkpt><trkpt lat="45.3571323" lon="10.6441803"><ele>119.66666666666666</ele><time>2026-03-28T09:17:12.034Z</time></trkpt><trkpt lat="45.3569525" lon="10.644173"><ele>119.33333333333333</ele><time>2026-03-28T09:17:13.034Z</time></trkpt><trkpt lat="45.3567638" lon="10.6441672"><ele>119.0</ele><time>2026-03-28T09:17:14.034Z</time></trkpt><trkpt lat="45.3565747" lon="10.6441552"><ele>119.0</ele><time>2026-03-28T09:17:15.035Z</time></trkpt><trkpt lat="45.356391" lon="10.6441235"><ele>119.0</ele><time>2026-03-28T09:17:16.034Z</time></trkpt><trkpt lat="45.3562073" lon="10.6440652"><ele>119.0</ele><time>2026-03-28T09:17:17.033Z</time></trkpt><trkpt lat="45.3560238" lon="10.6439793"><ele>119.33333333333333</ele><time>2026-03-28T09:17:18.034Z</time></trkpt><trkpt lat="45.3558352" lon="10.6438802"><ele>119.66666666666666</ele><time>2026-03-28T09:17:19.036Z</time></trkpt><trkpt lat="45.3556503" lon="10.6437773"><ele>120.0</ele><time>2026-03-28T09:17:20.034Z</time></trkpt><trkpt lat="45.3554775" lon="10.6436742"><ele>119.33333333333334</ele><time>2026-03-28T09:17:21.032Z</time></trkpt><trkpt lat="45.3553138" lon="10.6435745"><ele>118.66666666666667</ele><time>2026-03-28T09:17:22.035Z</time></trkpt><trkpt lat="45.3551607" lon="10.6434902"><ele>118.0</ele><time>2026-03-28T09:17:23.034Z</time></trkpt><trkpt lat="45.355009" lon="10.6434468"><ele>118.0</ele><time>2026-03-28T09:17:24.034Z</time></trkpt><trkpt lat="45.3548487" lon="10.6434663"><ele>118.0</ele><time>2026-03-28T09:17:25.031Z</time></trkpt><trkpt lat="45.3546785" lon="10.6435488"><ele>118.0</ele><time>2026-03-28T09:17:26.03Z</time></trkpt><trkpt lat="45.3544942" lon="10.6436717"><ele>115.66666666666667</ele><time>2026-03-28T09:17:27.029Z</time></trkpt><trkpt lat="45.3543002" lon="10.6438055"><ele>113.33333333333334</ele><time>2026-03-28T09:17:28.03Z</time></trkpt><trkpt lat="45.354104" lon="10.6439422"><ele>111.0</ele><time>2026-03-28T09:17:29.034Z</time></trkpt><trkpt lat="45.3538968" lon="10.6440848"><ele>110.5</ele><time>2026-03-28T09:17:30.033Z</time></trkpt><trkpt lat="45.353685" lon="10.6442317"><ele>110.0</ele><time>2026-03-28T09:17:31.035Z</time></trkpt><trkpt lat="45.3534778" lon="10.6443852"><ele>107.5</ele><time>2026-03-28T09:17:32.034Z</time></trkpt><trkpt lat="45.3532745" lon="10.6445488"><ele>105.0</ele><time>2026-03-28T09:17:33.034Z</time></trkpt><trkpt lat="45.3530773" lon="10.6447207"><ele>107.5</ele><time>2026-03-28T09:17:34.036Z</time></trkpt><trkpt lat="45.3528828" lon="10.644899"><ele>110.0</ele><time>2026-03-28T09:17:35.034Z</time></trkpt><trkpt lat="45.3526847" lon="10.6450812"><ele>110.0</ele><time>2026-03-28T09:17:36.034Z</time></trkpt><trkpt lat="45.3524887" lon="10.6452602"><ele>110.0</ele><time>2026-03-28T09:17:37.034Z</time></trkpt><trkpt lat="45.352302" lon="10.64543"><ele>109.66666666666666</ele><time>2026-03-28T09:17:38.034Z</time></trkpt><trkpt lat="45.3521353" lon="10.6455762"><ele>109.33333333333334</ele><time>2026-03-28T09:17:39.033Z</time></trkpt><trkpt lat="45.3519913" lon="10.6456937"><ele>109.0</ele><time>2026-03-28T09:17:40.032Z</time></trkpt><trkpt lat="45.3518745" lon="10.6457817"><ele>109.00000000000001</ele><time>2026-03-28T09:17:41.032Z</time></trkpt><trkpt lat="45.3517812" lon="10.6458402"><ele>109.0</ele><time>2026-03-28T09:17:42.035Z</time></trkpt><trkpt lat="45.3517057" lon="10.6458548"><ele>109.0</ele><time>2026-03-28T09:17:43.034Z</time></trkpt><trkpt lat="45.3516278" lon="10.6457567"><ele>109.0</ele><time>2026-03-28T09:17:45.033Z</time></trkpt><trkpt lat="45.3516295" lon="10.6456617"><ele>109.00000000000001</ele><time>2026-03-28T09:17:46.038Z</time></trkpt><trkpt lat="45.3516503" lon="10.6455537"><ele>109.0</ele><time>2026-03-28T09:17:47.034Z</time></trkpt><trkpt lat="45.3516843" lon="10.645413"><ele>109.25</ele><time>2026-03-28T09:17:48.033Z</time></trkpt><trkpt lat="45.3517362" lon="10.6452333"><ele>109.5</ele><time>2026-03-28T09:17:49.032Z</time></trkpt><trkpt lat="45.3518073" lon="10.645055"><ele>109.75</ele><time>2026-03-28T09:17:50.029Z</time></trkpt><trkpt lat="45.3518887" lon="10.6449025"><ele>110.0</ele><time>2026-03-28T09:17:51.031Z</time></trkpt><trkpt lat="45.3519713" lon="10.6447688"><ele>109.99999999999999</ele><time>2026-03-28T09:17:52.029Z</time></trkpt><trkpt lat="45.3520443" lon="10.6446525"><ele>110.0</ele><time>2026-03-28T09:17:53.028Z</time></trkpt><trkpt lat="45.352105" lon="10.644553"><ele>110.0</ele><time>2026-03-28T09:17:54.032Z</time></trkpt><trkpt lat="45.3521545" lon="10.6444712"><ele>110.0</ele><time>2026-03-28T09:17:55.032Z</time></trkpt><trkpt lat="45.3522197" lon="10.6443675"><ele>109.99999999999999</ele><time>2026-03-28T09:17:57.033Z</time></trkpt><trkpt lat="45.3522017" lon="10.644266"><ele>110.0</ele><time>2026-03-28T09:18:00.033Z</time></trkpt><trkpt lat="45.3521208" lon="10.6442175"><ele>110.2</ele><time>2026-03-28T09:18:02.034Z</time></trkpt><trkpt lat="45.3520515" lon="10.6441733"><ele>110.4</ele><time>2026-03-28T09:18:03.031Z</time></trkpt><trkpt lat="45.351969" lon="10.6441143"><ele>110.6</ele><time>2026-03-28T09:18:04.032Z</time></trkpt><trkpt lat="45.3518757" lon="10.644053"><ele>110.8</ele><time>2026-03-28T09:18:05.032Z</time></trkpt><trkpt lat="45.3517693" lon="10.6439767"><ele>111.0</ele><time>2026-03-28T09:18:06.032Z</time></trkpt><trkpt lat="45.3516647" lon="10.6438897"><ele>111.0</ele><time>2026-03-28T09:18:07.035Z</time></trkpt><trkpt lat="45.3515492" lon="10.6437918"><ele>111.0</ele><time>2026-03-28T09:18:08.034Z</time></trkpt><trkpt lat="45.3514273" lon="10.6437033"><ele>111.0</ele><time>2026-03-28T09:18:09.033Z</time></trkpt><trkpt lat="45.3512978" lon="10.6436213"><ele>111.0</ele><time>2026-03-28T09:18:10.036Z</time></trkpt><trkpt lat="45.351168" lon="10.643537"><ele>110.25</ele><time>2026-03-28T09:18:11.035Z</time></trkpt><trkpt lat="45.3510335" lon="10.6434468"><ele>109.5</ele><time>2026-03-28T09:18:12.033Z</time></trkpt><trkpt lat="45.3508968" lon="10.6433602"><ele>108.75</ele><time>2026-03-28T09:18:13.034Z</time></trkpt><trkpt lat="45.3507627" lon="10.6432787"><ele>108.0</ele><time>2026-03-28T09:18:14.03Z</time></trkpt><trkpt lat="45.3506262" lon="10.6432038"><ele>107.75</ele><time>2026-03-28T09:18:15.031Z</time></trkpt><trkpt lat="45.3504867" lon="10.643135"><ele>107.5</ele><time>2026-03-28T09:18:16.032Z</time></trkpt><trkpt lat="45.35035" lon="10.6430705"><ele>107.25</ele><time>2026-03-28T09:18:17.031Z</time></trkpt><trkpt lat="45.3502143" lon="10.643006"><ele>107.0</ele><time>2026-03-28T09:18:18.032Z</time></trkpt><trkpt lat="45.3500857" lon="10.6429453"><ele>107.0</ele><time>2026-03-28T09:18:19.034Z</time></trkpt><trkpt lat="45.349975" lon="10.6428947"><ele>107.0</ele><time>2026-03-28T09:18:20.034Z</time></trkpt><trkpt lat="45.3498782" lon="10.6428513"><ele>107.0</ele><time>2026-03-28T09:18:21.036Z</time></trkpt><trkpt lat="45.3497048" lon="10.6427778"><ele>107.0</ele><time>2026-03-28T09:18:23.034Z</time></trkpt><trkpt lat="45.3496047" lon="10.642741"><ele>106.5</ele><time>2026-03-28T09:18:24.035Z</time></trkpt><trkpt lat="45.3494973" lon="10.6427082"><ele>106.0</ele><time>2026-03-28T09:18:25.034Z</time></trkpt><trkpt lat="45.3493827" lon="10.6426752"><ele>105.5</ele><time>2026-03-28T09:18:26.034Z</time></trkpt><trkpt lat="45.3492668" lon="10.642638"><ele>105.0</ele><time>2026-03-28T09:18:27.034Z</time></trkpt><trkpt lat="45.3491485" lon="10.6426012"><ele>105.0</ele><time>2026-03-28T09:18:28.035Z</time></trkpt><trkpt lat="45.3490243" lon="10.6425648"><ele>105.0</ele><time>2026-03-28T09:18:29.036Z</time></trkpt><trkpt lat="45.348909" lon="10.642531"><ele>105.0</ele><time>2026-03-28T09:18:30.036Z</time></trkpt><trkpt lat="45.3488095" lon="10.642497"><ele>105.0</ele><time>2026-03-28T09:18:31.035Z</time></trkpt><trkpt lat="45.348737" lon="10.6424465"><ele>105.0</ele><time>2026-03-28T09:18:32.033Z</time></trkpt><trkpt lat="45.3487005" lon="10.6422893"><ele>105.33333333333333</ele><time>2026-03-28T09:18:34.034Z</time></trkpt><trkpt lat="45.3487085" lon="10.642154"><ele>105.66666666666666</ele><time>2026-03-28T09:18:35.033Z</time></trkpt><trkpt lat="45.3487155" lon="10.6420237"><ele>106.0</ele><time>2026-03-28T09:18:36.033Z</time></trkpt><trkpt lat="45.3487165" lon="10.6419095"><ele>106.33333333333333</ele><time>2026-03-28T09:18:37.034Z</time></trkpt><trkpt lat="45.3487048" lon="10.6418137"><ele>106.66666666666666</ele><time>2026-03-28T09:18:38.033Z</time></trkpt><trkpt lat="45.3486192" lon="10.6417323"><ele>107.0</ele><time>2026-03-28T09:18:40.034Z</time></trkpt><trkpt lat="45.348536" lon="10.6417398"><ele>107.0</ele><time>2026-03-28T09:18:41.031Z</time></trkpt><trkpt lat="45.348417" lon="10.6417642"><ele>107.0</ele><time>2026-03-28T09:18:42.032Z</time></trkpt><trkpt lat="45.3482842" lon="10.64179"><ele>107.0</ele><time>2026-03-28T09:18:43.036Z</time></trkpt><trkpt lat="45.3481628" lon="10.6418142"><ele>107.0</ele><time>2026-03-28T09:18:44.034Z</time></trkpt><trkpt lat="45.3480482" lon="10.6418395"><ele>107.5</ele><time>2026-03-28T09:18:45.035Z</time></trkpt><trkpt lat="45.347931" lon="10.6418647"><ele>108.0</ele><time>2026-03-28T09:18:46.034Z</time></trkpt><trkpt lat="45.3478147" lon="10.641888"><ele>108.5</ele><time>2026-03-28T09:18:47.035Z</time></trkpt><trkpt lat="45.3477033" lon="10.6419112"><ele>109.0</ele><time>2026-03-28T09:18:48.033Z</time></trkpt><trkpt lat="45.347598" lon="10.6419348"><ele>109.0</ele><time>2026-03-28T09:18:49.034Z</time></trkpt><trkpt lat="45.3474905" lon="10.6419538"><ele>109.0</ele><time>2026-03-28T09:18:50.038Z</time></trkpt><trkpt lat="45.3473823" lon="10.6419742"><ele>109.0</ele><time>2026-03-28T09:18:51.037Z</time></trkpt><trkpt lat="45.3472778" lon="10.6419972"><ele>109.0</ele><time>2026-03-28T09:18:52.035Z</time></trkpt><trkpt lat="45.3471768" lon="10.6420182"><ele>109.0</ele><time>2026-03-28T09:18:53.035Z</time></trkpt><trkpt lat="45.3470908" lon="10.6420378"><ele>109.14285714285714</ele><time>2026-03-28T09:18:54.034Z</time></trkpt><trkpt lat="45.3470197" lon="10.64205"><ele>109.28571428571429</ele><time>2026-03-28T09:18:55.035Z</time></trkpt><trkpt lat="45.3469503" lon="10.642067"><ele>109.42857142857142</ele><time>2026-03-28T09:18:56.034Z</time></trkpt><trkpt lat="45.3468798" lon="10.6420827"><ele>109.57142857142857</ele><time>2026-03-28T09:18:57.033Z</time></trkpt><trkpt lat="45.3468028" lon="10.6420985"><ele>109.71428571428571</ele><time>2026-03-28T09:18:58.033Z</time></trkpt><trkpt lat="45.3467397" lon="10.642105"><ele>109.85714285714285</ele><time>2026-03-28T09:18:59.033Z</time></trkpt><trkpt lat="45.346678" lon="10.6420723"><ele>110.0</ele><time>2026-03-28T09:19:01.035Z</time></trkpt><trkpt lat="45.3466227" lon="10.6419525"><ele>110.0</ele><time>2026-03-28T09:19:03.03Z</time></trkpt><trkpt lat="45.346595" lon="10.6418547"><ele>110.0</ele><time>2026-03-28T09:19:04.029Z</time></trkpt><trkpt lat="45.3465588" lon="10.641732"><ele>110.0</ele><time>2026-03-28T09:19:05.031Z</time></trkpt><trkpt lat="45.3465095" lon="10.6415837"><ele>110.0</ele><time>2026-03-28T09:19:06.03Z</time></trkpt><trkpt lat="45.3464528" lon="10.6414245"><ele>110.0</ele><time>2026-03-28T09:19:07.033Z</time></trkpt><trkpt lat="45.3464008" lon="10.6412823"><ele>110.2</ele><time>2026-03-28T09:19:08.036Z</time></trkpt><trkpt lat="45.346357" lon="10.6411567"><ele>110.4</ele><time>2026-03-28T09:19:09.034Z</time></trkpt><trkpt lat="45.3463342" lon="10.6410413"><ele>110.6</ele><time>2026-03-28T09:19:10.033Z</time></trkpt><trkpt lat="45.3463362" lon="10.6409268"><ele>110.8</ele><time>2026-03-28T09:19:11.036Z</time></trkpt><trkpt lat="45.3463545" lon="10.6407855"><ele>111.0</ele><time>2026-03-28T09:19:12.037Z</time></trkpt><trkpt lat="45.346379" lon="10.640615"><ele>111.0</ele><time>2026-03-28T09:19:13.034Z</time></trkpt><trkpt lat="45.3463955" lon="10.6404342"><ele>111.0</ele><time>2026-03-28T09:19:14.034Z</time></trkpt><trkpt lat="45.3463908" lon="10.6402582"><ele>111.0</ele><time>2026-03-28T09:19:15.034Z</time></trkpt><trkpt lat="45.3463575" lon="10.6400403"><ele>111.0</ele><time>2026-03-28T09:19:16.233Z</time></trkpt><trkpt lat="45.3462958" lon="10.6397323"><ele>113.75</ele><time>2026-03-28T09:19:18.033Z</time></trkpt><trkpt lat="45.3462663" lon="10.6395593"><ele>116.5</ele><time>2026-03-28T09:19:19.033Z</time></trkpt><trkpt lat="45.3462408" lon="10.6393837"><ele>119.25</ele><time>2026-03-28T09:19:20.033Z</time></trkpt><trkpt lat="45.3462193" lon="10.6392018"><ele>122.0</ele><time>2026-03-28T09:19:21.033Z</time></trkpt><trkpt lat="45.346201" lon="10.6390247"><ele>122.0</ele><time>2026-03-28T09:19:22.036Z</time></trkpt><trkpt lat="45.3461827" lon="10.6388653"><ele>121.99999999999999</ele><time>2026-03-28T09:19:23.033Z</time></trkpt><trkpt lat="45.3461545" lon="10.6387242"><ele>121.99999999999999</ele><time>2026-03-28T09:19:24.034Z</time></trkpt><trkpt lat="45.3461098" lon="10.6385935"><ele>122.0</ele><time>2026-03-28T09:19:25.035Z</time></trkpt><trkpt lat="45.3460553" lon="10.6384608"><ele>122.0</ele><time>2026-03-28T09:19:26.034Z</time></trkpt><trkpt lat="45.3459997" lon="10.6383203"><ele>122.0</ele><time>2026-03-28T09:19:27.033Z</time></trkpt><trkpt lat="45.3459435" lon="10.6381717"><ele>121.99999999999999</ele><time>2026-03-28T09:19:28.03Z</time></trkpt><trkpt lat="45.3458927" lon="10.6380283"><ele>121.99999999999999</ele><time>2026-03-28T09:19:29.029Z</time></trkpt><trkpt lat="45.3458533" lon="10.6378962"><ele>122.0</ele><time>2026-03-28T09:19:30.031Z</time></trkpt><trkpt lat="45.3458262" lon="10.6377943"><ele>122.0</ele><time>2026-03-28T09:19:31.034Z</time></trkpt><trkpt lat="45.3457538" lon="10.6376603"><ele>122.0</ele><time>2026-03-28T09:19:33.034Z</time></trkpt><trkpt lat="45.3456858" lon="10.6375938"><ele>121.99999999999999</ele><time>2026-03-28T09:19:34.034Z</time></trkpt><trkpt lat="45.3456118" lon="10.6375198"><ele>121.99999999999999</ele><time>2026-03-28T09:19:35.031Z</time></trkpt><trkpt lat="45.3455325" lon="10.6374447"><ele>122.0</ele><time>2026-03-28T09:19:36.033Z</time></trkpt><trkpt lat="45.3454462" lon="10.637382"><ele>122.0</ele><time>2026-03-28T09:19:37.031Z</time></trkpt><trkpt lat="45.3453403" lon="10.6373228"><ele>122.0</ele><time>2026-03-28T09:19:38.037Z</time></trkpt><trkpt lat="45.3452277" lon="10.6372515"><ele>122.0</ele><time>2026-03-28T09:19:39.035Z</time></trkpt><trkpt lat="45.3451153" lon="10.6371555"><ele>122.0</ele><time>2026-03-28T09:19:40.033Z</time></trkpt><trkpt lat="45.3450125" lon="10.6370415"><ele>122.0</ele><time>2026-03-28T09:19:41.056Z</time></trkpt><trkpt lat="45.3449217" lon="10.6369245"><ele>122.25</ele><time>2026-03-28T09:19:42.032Z</time></trkpt><trkpt lat="45.3448383" lon="10.6368012"><ele>122.5</ele><time>2026-03-28T09:19:43.035Z</time></trkpt><trkpt lat="45.344759" lon="10.636665"><ele>122.75</ele><time>2026-03-28T09:19:44.033Z</time></trkpt><trkpt lat="45.344693" lon="10.6365138"><ele>123.0</ele><time>2026-03-28T09:19:45.03Z</time></trkpt><trkpt lat="45.3446417" lon="10.636353"><ele>124.0</ele><time>2026-03-28T09:19:46.033Z</time></trkpt><trkpt lat="45.3445965" lon="10.6361952"><ele>125.0</ele><time>2026-03-28T09:19:47.031Z</time></trkpt><trkpt lat="45.3445447" lon="10.6360423"><ele>126.0</ele><time>2026-03-28T09:19:48.031Z</time></trkpt><trkpt lat="45.3444795" lon="10.6359052"><ele>127.0</ele><time>2026-03-28T09:19:49.031Z</time></trkpt><trkpt lat="45.344392" lon="10.6357733"><ele>127.0</ele><time>2026-03-28T09:19:50.031Z</time></trkpt><trkpt lat="45.344291" lon="10.635634"><ele>127.0</ele><time>2026-03-28T09:19:51.034Z</time></trkpt><trkpt lat="45.3441853" lon="10.6355002"><ele>127.0</ele><time>2026-03-28T09:19:52.031Z</time></trkpt><trkpt lat="45.3440768" lon="10.6353663"><ele>127.0</ele><time>2026-03-28T09:19:53.03Z</time></trkpt><trkpt lat="45.3439688" lon="10.635229"><ele>125.0</ele><time>2026-03-28T09:19:54.03Z</time></trkpt><trkpt lat="45.3438672" lon="10.6350903"><ele>123.0</ele><time>2026-03-28T09:19:55.029Z</time></trkpt><trkpt lat="45.343788" lon="10.6349432"><ele>121.0</ele><time>2026-03-28T09:19:56.031Z</time></trkpt><trkpt lat="45.3437337" lon="10.6347815"><ele>119.0</ele><time>2026-03-28T09:19:57.034Z</time></trkpt><trkpt lat="45.343695" lon="10.6346015"><ele>119.0</ele><time>2026-03-28T09:19:58.03Z</time></trkpt><trkpt lat="45.3436692" lon="10.634415"><ele>119.0</ele><time>2026-03-28T09:19:59.032Z</time></trkpt><trkpt lat="45.3436488" lon="10.6342307"><ele>119.0</ele><time>2026-03-28T09:20:00.031Z</time></trkpt><trkpt lat="45.3436312" lon="10.6340608"><ele>119.0</ele><time>2026-03-28T09:20:01.035Z</time></trkpt><trkpt lat="45.3436252" lon="10.6339067"><ele>119.0</ele><time>2026-03-28T09:20:02.032Z</time></trkpt><trkpt lat="45.3436437" lon="10.6337663"><ele>119.0</ele><time>2026-03-28T09:20:03.033Z</time></trkpt><trkpt lat="45.3436822" lon="10.6336418"><ele>119.0</ele><time>2026-03-28T09:20:04.033Z</time></trkpt><trkpt lat="45.3437363" lon="10.6335228"><ele>119.0</ele><time>2026-03-28T09:20:05.033Z</time></trkpt><trkpt lat="45.3437925" lon="10.6334108"><ele>119.0</ele><time>2026-03-28T09:20:06.029Z</time></trkpt><trkpt lat="45.343843" lon="10.6332993"><ele>120.80000000000001</ele><time>2026-03-28T09:20:07.031Z</time></trkpt><trkpt lat="45.3438865" lon="10.633172"><ele>122.60000000000001</ele><time>2026-03-28T09:20:08.033Z</time></trkpt><trkpt lat="45.343909" lon="10.6330277"><ele>124.4</ele><time>2026-03-28T09:20:09.034Z</time></trkpt><trkpt lat="45.3439152" lon="10.6328768"><ele>126.2</ele><time>2026-03-28T09:20:10.033Z</time></trkpt><trkpt lat="45.3439117" lon="10.6327148"><ele>128.0</ele><time>2026-03-28T09:20:11.033Z</time></trkpt><trkpt lat="45.3439113" lon="10.6325458"><ele>128.25</ele><time>2026-03-28T09:20:12.031Z</time></trkpt><trkpt lat="45.3439272" lon="10.6323795"><ele>128.5</ele><time>2026-03-28T09:20:13.034Z</time></trkpt><trkpt lat="45.3439483" lon="10.632199"><ele>128.75</ele><time>2026-03-28T09:20:14.033Z</time></trkpt><trkpt lat="45.3439698" lon="10.6320122"><ele>129.0</ele><time>2026-03-28T09:20:15.032Z</time></trkpt><trkpt lat="45.343985" lon="10.6318417"><ele>129.8</ele><time>2026-03-28T09:20:16.031Z</time></trkpt><trkpt lat="45.344" lon="10.6316923"><ele>130.60000000000002</ele><time>2026-03-28T09:20:17.027Z</time></trkpt><trkpt lat="45.3440078" lon="10.6315675"><ele>131.4</ele><time>2026-03-28T09:20:18.027Z</time></trkpt><trkpt lat="45.3440088" lon="10.6314632"><ele>132.20000000000002</ele><time>2026-03-28T09:20:19.028Z</time></trkpt><trkpt lat="45.3440053" lon="10.6312975"><ele>133.0</ele><time>2026-03-28T09:20:21.03Z</time></trkpt><trkpt lat="45.3440168" lon="10.6311998"><ele>133.6</ele><time>2026-03-28T09:20:22.034Z</time></trkpt><trkpt lat="45.3440387" lon="10.6310873"><ele>134.20000000000002</ele><time>2026-03-28T09:20:23.031Z</time></trkpt><trkpt lat="45.3440757" lon="10.6309573"><ele>134.8</ele><time>2026-03-28T09:20:24.032Z</time></trkpt><trkpt lat="45.3441248" lon="10.6308165"><ele>135.4</ele><time>2026-03-28T09:20:25.036Z</time></trkpt><trkpt lat="45.3441843" lon="10.6306843"><ele>136.0</ele><time>2026-03-28T09:20:26.035Z</time></trkpt><trkpt lat="45.3442413" lon="10.6305648"><ele>136.0</ele><time>2026-03-28T09:20:27.032Z</time></trkpt><trkpt lat="45.344296" lon="10.6304593"><ele>136.0</ele><time>2026-03-28T09:20:28.032Z</time></trkpt><trkpt lat="45.3443447" lon="10.6303635"><ele>136.0</ele><time>2026-03-28T09:20:29.032Z</time></trkpt><trkpt lat="45.3443863" lon="10.630282"><ele>136.0</ele><time>2026-03-28T09:20:30.031Z</time></trkpt><trkpt lat="45.3444233" lon="10.6301267"><ele>136.0</ele><time>2026-03-28T09:20:32.035Z</time></trkpt><trkpt lat="45.3443835" lon="10.6299722"><ele>135.66666666666669</ele><time>2026-03-28T09:20:34.038Z</time></trkpt><trkpt lat="45.3442937" lon="10.6298822"><ele>135.33333333333334</ele><time>2026-03-28T09:20:36.033Z</time></trkpt><trkpt lat="45.3442248" lon="10.629862"><ele>135.0</ele><time>2026-03-28T09:20:37.035Z</time></trkpt><trkpt lat="45.3441505" lon="10.6298542"><ele>134.66666666666666</ele><time>2026-03-28T09:20:38.035Z</time></trkpt><trkpt lat="45.3440777" lon="10.6298683"><ele>134.33333333333331</ele><time>2026-03-28T09:20:39.035Z</time></trkpt><trkpt lat="45.3440115" lon="10.6299082"><ele>134.0</ele><time>2026-03-28T09:20:40.034Z</time></trkpt><trkpt lat="45.3439427" lon="10.6299862"><ele>133.75</ele><time>2026-03-28T09:20:41.033Z</time></trkpt><trkpt lat="45.3438582" lon="10.6300918"><ele>133.5</ele><time>2026-03-28T09:20:42.032Z</time></trkpt><trkpt lat="45.3437537" lon="10.6301965"><ele>133.25</ele><time>2026-03-28T09:20:43.033Z</time></trkpt><trkpt lat="45.3436245" lon="10.6303135"><ele>133.0</ele><time>2026-03-28T09:20:44.032Z</time></trkpt><trkpt lat="45.3434835" lon="10.6304377"><ele>133.0</ele><time>2026-03-28T09:20:45.033Z</time></trkpt><trkpt lat="45.3433388" lon="10.6305648"><ele>133.0</ele><time>2026-03-28T09:20:46.034Z</time></trkpt><trkpt lat="45.3431943" lon="10.6306905"><ele>133.0</ele><time>2026-03-28T09:20:47.034Z</time></trkpt><trkpt lat="45.3430475" lon="10.6308188"><ele>132.66666666666669</ele><time>2026-03-28T09:20:48.034Z</time></trkpt><trkpt lat="45.3429058" lon="10.6309445"><ele>132.33333333333334</ele><time>2026-03-28T09:20:49.035Z</time></trkpt><trkpt lat="45.3427643" lon="10.6310672"><ele>132.0</ele><time>2026-03-28T09:20:50.034Z</time></trkpt><trkpt lat="45.3426207" lon="10.6311905"><ele>132.0</ele><time>2026-03-28T09:20:51.034Z</time></trkpt><trkpt lat="45.3424802" lon="10.6313098"><ele>132.0</ele><time>2026-03-28T09:20:52.034Z</time></trkpt><trkpt lat="45.3423497" lon="10.6314265"><ele>132.0</ele><time>2026-03-28T09:20:53.033Z</time></trkpt><trkpt lat="45.3422385" lon="10.6315458"><ele>130.5</ele><time>2026-03-28T09:20:54.033Z</time></trkpt><trkpt lat="45.3421493" lon="10.6316803"><ele>129.0</ele><time>2026-03-28T09:20:55.034Z</time></trkpt><trkpt lat="45.3420742" lon="10.6318422"><ele>127.5</ele><time>2026-03-28T09:20:56.033Z</time></trkpt><trkpt lat="45.341999" lon="10.632027"><ele>126.0</ele><time>2026-03-28T09:20:57.032Z</time></trkpt><trkpt lat="45.3419147" lon="10.6322293"><ele>126.0</ele><time>2026-03-28T09:20:58.032Z</time></trkpt><trkpt lat="45.3418218" lon="10.6324348"><ele>126.0</ele><time>2026-03-28T09:20:59.034Z</time></trkpt><trkpt lat="45.3417242" lon="10.6326283"><ele>126.0</ele><time>2026-03-28T09:21:00.032Z</time></trkpt><trkpt lat="45.3416183" lon="10.6328043"><ele>125.33333333333334</ele><time>2026-03-28T09:21:01.035Z</time></trkpt><trkpt lat="45.3415075" lon="10.6329672"><ele>124.66666666666667</ele><time>2026-03-28T09:21:02.034Z</time></trkpt><trkpt lat="45.341397" lon="10.6331133"><ele>124.0</ele><time>2026-03-28T09:21:03.033Z</time></trkpt><trkpt lat="45.3412812" lon="10.633231"><ele>124.0</ele><time>2026-03-28T09:21:04.033Z</time></trkpt><trkpt lat="45.341162" lon="10.633316"><ele>124.0</ele><time>2026-03-28T09:21:05.034Z</time></trkpt><trkpt lat="45.3410555" lon="10.6333825"><ele>124.0</ele><time>2026-03-28T09:21:06.033Z</time></trkpt><trkpt lat="45.3409627" lon="10.6334373"><ele>124.0</ele><time>2026-03-28T09:21:07.033Z</time></trkpt><trkpt lat="45.3408832" lon="10.6334785"><ele>124.0</ele><time>2026-03-28T09:21:08.031Z</time></trkpt><trkpt lat="45.340808" lon="10.6335148"><ele>124.0</ele><time>2026-03-28T09:21:09.034Z</time></trkpt><trkpt lat="45.3407387" lon="10.6335492"><ele>124.00000000000001</ele><time>2026-03-28T09:21:10.034Z</time></trkpt><trkpt lat="45.340676" lon="10.6335798"><ele>124.0</ele><time>2026-03-28T09:21:11.034Z</time></trkpt><trkpt lat="45.3406163" lon="10.6336098"><ele>124.0</ele><time>2026-03-28T09:21:12.031Z</time></trkpt><trkpt lat="45.3405513" lon="10.6336432"><ele>124.00000000000001</ele><time>2026-03-28T09:21:13.033Z</time></trkpt><trkpt lat="45.3404865" lon="10.6336772"><ele>124.0</ele><time>2026-03-28T09:21:14.034Z</time></trkpt><trkpt lat="45.340421" lon="10.6337098"><ele>124.0</ele><time>2026-03-28T09:21:15.033Z</time></trkpt><trkpt lat="45.3403523" lon="10.6337367"><ele>123.80000000000001</ele><time>2026-03-28T09:21:16.034Z</time></trkpt><trkpt lat="45.3402745" lon="10.6337672"><ele>123.60000000000001</ele><time>2026-03-28T09:21:17.033Z</time></trkpt><trkpt lat="45.3401883" lon="10.6338023"><ele>123.4</ele><time>2026-03-28T09:21:18.032Z</time></trkpt><trkpt lat="45.3400935" lon="10.63384"><ele>123.2</ele><time>2026-03-28T09:21:19.034Z</time></trkpt><trkpt lat="45.339993" lon="10.633879"><ele>123.0</ele><time>2026-03-28T09:21:20.036Z</time></trkpt><trkpt lat="45.339893" lon="10.633917"><ele>123.0</ele><time>2026-03-28T09:21:21.033Z</time></trkpt><trkpt lat="45.3397935" lon="10.6339558"><ele>123.00000000000001</ele><time>2026-03-28T09:21:22.036Z</time></trkpt><trkpt lat="45.3396925" lon="10.6339965"><ele>123.00000000000001</ele><time>2026-03-28T09:21:23.034Z</time></trkpt><trkpt lat="45.3395885" lon="10.6340357"><ele>123.0</ele><time>2026-03-28T09:21:24.033Z</time></trkpt><trkpt lat="45.3394842" lon="10.6340745"><ele>123.0</ele><time>2026-03-28T09:21:25.036Z</time></trkpt><trkpt lat="45.3393885" lon="10.6341163"><ele>122.2</ele><time>2026-03-28T09:21:26.037Z</time></trkpt><trkpt lat="45.3393022" lon="10.6341583"><ele>121.4</ele><time>2026-03-28T09:21:27.035Z</time></trkpt><trkpt lat="45.3392283" lon="10.6341887"><ele>120.60000000000001</ele><time>2026-03-28T09:21:28.036Z</time></trkpt><trkpt lat="45.3391297" lon="10.6341725"><ele>119.80000000000001</ele><time>2026-03-28T09:21:30.036Z</time></trkpt><trkpt lat="45.3390482" lon="10.6340552"><ele>119.0</ele><time>2026-03-28T09:21:32.032Z</time></trkpt><trkpt lat="45.33895" lon="10.6339815"><ele>117.75</ele><time>2026-03-28T09:21:34.035Z</time></trkpt><trkpt lat="45.3388303" lon="10.6340582"><ele>116.5</ele><time>2026-03-28T09:21:36.035Z</time></trkpt><trkpt lat="45.3387398" lon="10.6341315"><ele>115.25</ele><time>2026-03-28T09:21:37.036Z</time></trkpt><trkpt lat="45.3386345" lon="10.6342173"><ele>114.0</ele><time>2026-03-28T09:21:38.035Z</time></trkpt><trkpt lat="45.3385202" lon="10.6343162"><ele>114.0</ele><time>2026-03-28T09:21:39.033Z</time></trkpt><trkpt lat="45.338403" lon="10.6344212"><ele>114.0</ele><time>2026-03-28T09:21:40.035Z</time></trkpt><trkpt lat="45.3382838" lon="10.6345313"><ele>114.0</ele><time>2026-03-28T09:21:41.035Z</time></trkpt><trkpt lat="45.33817" lon="10.634636"><ele>114.0</ele><time>2026-03-28T09:21:42.036Z</time></trkpt><trkpt lat="45.338061" lon="10.6347377"><ele>113.5</ele><time>2026-03-28T09:21:43.034Z</time></trkpt><trkpt lat="45.3379522" lon="10.634839"><ele>113.0</ele><time>2026-03-28T09:21:44.034Z</time></trkpt><trkpt lat="45.3378468" lon="10.6349377"><ele>112.5</ele><time>2026-03-28T09:21:45.034Z</time></trkpt><trkpt lat="45.3377497" lon="10.6350307"><ele>112.0</ele><time>2026-03-28T09:21:46.035Z</time></trkpt><trkpt lat="45.3376632" lon="10.635115"><ele>112.00000000000001</ele><time>2026-03-28T09:21:47.035Z</time></trkpt><trkpt lat="45.3375955" lon="10.635189"><ele>112.0</ele><time>2026-03-28T09:21:48.035Z</time></trkpt><trkpt lat="45.3375492" lon="10.6352553"><ele>112.0</ele><time>2026-03-28T09:21:49.034Z</time></trkpt><trkpt lat="45.3374617" lon="10.6353172"><ele>112.0</ele><time>2026-03-28T09:21:51.034Z</time></trkpt><trkpt lat="45.3373603" lon="10.635248"><ele>112.00000000000001</ele><time>2026-03-28T09:21:53.035Z</time></trkpt><trkpt lat="45.337297" lon="10.6351795"><ele>112.0</ele><time>2026-03-28T09:21:54.032Z</time></trkpt><trkpt lat="45.3372178" lon="10.6350987"><ele>110.25</ele><time>2026-03-28T09:21:55.032Z</time></trkpt><trkpt lat="45.3371207" lon="10.6350082"><ele>108.5</ele><time>2026-03-28T09:21:56.032Z</time></trkpt><trkpt lat="45.3370162" lon="10.6349278"><ele>106.75</ele><time>2026-03-28T09:21:57.033Z</time></trkpt><trkpt lat="45.3369163" lon="10.6348552"><ele>105.0</ele><time>2026-03-28T09:21:58.034Z</time></trkpt><trkpt lat="45.3368223" lon="10.6347763"><ele>105.0</ele><time>2026-03-28T09:21:59.034Z</time></trkpt><trkpt lat="45.3367373" lon="10.6346825"><ele>105.0</ele><time>2026-03-28T09:22:00.037Z</time></trkpt><trkpt lat="45.3366672" lon="10.6345808"><ele>105.0</ele><time>2026-03-28T09:22:01.035Z</time></trkpt><trkpt lat="45.3366188" lon="10.6344927"><ele>105.0</ele><time>2026-03-28T09:22:02.04Z</time></trkpt><trkpt lat="45.3365345" lon="10.6343947"><ele>105.0</ele><time>2026-03-28T09:22:04.036Z</time></trkpt><trkpt lat="45.336405" lon="10.6343923"><ele>104.6</ele><time>2026-03-28T09:22:06.035Z</time></trkpt><trkpt lat="45.3363185" lon="10.6344208"><ele>104.2</ele><time>2026-03-28T09:22:07.033Z</time></trkpt><trkpt lat="45.3362112" lon="10.6344602"><ele>103.80000000000001</ele><time>2026-03-28T09:22:08.035Z</time></trkpt><trkpt lat="45.3361072" lon="10.6345112"><ele>103.4</ele><time>2026-03-28T09:22:09.034Z</time></trkpt><trkpt lat="45.336019" lon="10.6345815"><ele>103.0</ele><time>2026-03-28T09:22:10.035Z</time></trkpt><trkpt lat="45.3359542" lon="10.6346647"><ele>102.80000000000001</ele><time>2026-03-28T09:22:11.034Z</time></trkpt><trkpt lat="45.3359047" lon="10.6347627"><ele>102.6</ele><time>2026-03-28T09:22:12.032Z</time></trkpt><trkpt lat="45.3358533" lon="10.6348652"><ele>102.4</ele><time>2026-03-28T09:22:13.034Z</time></trkpt><trkpt lat="45.3357908" lon="10.6349782"><ele>102.19999999999999</ele><time>2026-03-28T09:22:14.035Z</time></trkpt><trkpt lat="45.33572" lon="10.6351188"><ele>102.0</ele><time>2026-03-28T09:22:15.032Z</time></trkpt><trkpt lat="45.3356528" lon="10.63527"><ele>101.25</ele><time>2026-03-28T09:22:16.034Z</time></trkpt><trkpt lat="45.3355827" lon="10.635441"><ele>100.5</ele><time>2026-03-28T09:22:17.033Z</time></trkpt><trkpt lat="45.335509" lon="10.6356165"><ele>99.75</ele><time>2026-03-28T09:22:18.033Z</time></trkpt><trkpt lat="45.3354325" lon="10.6357732"><ele>99.0</ele><time>2026-03-28T09:22:19.032Z</time></trkpt><trkpt lat="45.3353523" lon="10.6359058"><ele>98.5</ele><time>2026-03-28T09:22:20.03Z</time></trkpt><trkpt lat="45.335266" lon="10.6360097"><ele>98.0</ele><time>2026-03-28T09:22:21.034Z</time></trkpt><trkpt lat="45.335168" lon="10.6361085"><ele>97.5</ele><time>2026-03-28T09:22:22.034Z</time></trkpt><trkpt lat="45.3350667" lon="10.6362047"><ele>97.0</ele><time>2026-03-28T09:22:23.033Z</time></trkpt><trkpt lat="45.3349542" lon="10.6363075"><ele>97.0</ele><time>2026-03-28T09:22:24.032Z</time></trkpt><trkpt lat="45.3348497" lon="10.636407"><ele>97.0</ele><time>2026-03-28T09:22:25.033Z</time></trkpt><trkpt lat="45.3347527" lon="10.6365063"><ele>97.0</ele><time>2026-03-28T09:22:26.032Z</time></trkpt><trkpt lat="45.3346667" lon="10.636608"><ele>97.0</ele><time>2026-03-28T09:22:27.032Z</time></trkpt><trkpt lat="45.334589" lon="10.6367285"><ele>97.0</ele><time>2026-03-28T09:22:28.034Z</time></trkpt><trkpt lat="45.3345225" lon="10.6368562"><ele>97.0</ele><time>2026-03-28T09:22:29.031Z</time></trkpt><trkpt lat="45.3344537" lon="10.6369838"><ele>97.0</ele><time>2026-03-28T09:22:30.033Z</time></trkpt><trkpt lat="45.3343828" lon="10.6371078"><ele>97.0</ele><time>2026-03-28T09:22:31.033Z</time></trkpt><trkpt lat="45.3343158" lon="10.6372187"><ele>97.0</ele><time>2026-03-28T09:22:32.034Z</time></trkpt><trkpt lat="45.334255" lon="10.637307"><ele>97.25</ele><time>2026-03-28T09:22:33.034Z</time></trkpt><trkpt lat="45.3341835" lon="10.6373785"><ele>97.5</ele><time>2026-03-28T09:22:34.033Z</time></trkpt><trkpt lat="45.3340887" lon="10.637449"><ele>97.75</ele><time>2026-03-28T09:22:35.031Z</time></trkpt><trkpt lat="45.333964" lon="10.6375247"><ele>98.0</ele><time>2026-03-28T09:22:36.036Z</time></trkpt><trkpt lat="45.3338268" lon="10.6375958"><ele>98.0</ele><time>2026-03-28T09:22:37.033Z</time></trkpt><trkpt lat="45.3336817" lon="10.6376642"><ele>98.0</ele><time>2026-03-28T09:22:38.033Z</time></trkpt><trkpt lat="45.3335442" lon="10.6377318"><ele>98.0</ele><time>2026-03-28T09:22:39.032Z</time></trkpt><trkpt lat="45.3334133" lon="10.6377958"><ele>98.0</ele><time>2026-03-28T09:22:40.036Z</time></trkpt><trkpt lat="45.3332967" lon="10.637864"><ele>97.80000000000001</ele><time>2026-03-28T09:22:41.032Z</time></trkpt><trkpt lat="45.3331968" lon="10.6379442"><ele>97.6</ele><time>2026-03-28T09:22:42.032Z</time></trkpt><trkpt lat="45.333109" lon="10.6380432"><ele>97.4</ele><time>2026-03-28T09:22:43.03Z</time></trkpt><trkpt lat="45.3330308" lon="10.638141"><ele>97.19999999999999</ele><time>2026-03-28T09:22:44.028Z</time></trkpt><trkpt lat="45.3329573" lon="10.6382223"><ele>97.0</ele><time>2026-03-28T09:22:45.03Z</time></trkpt><trkpt lat="45.33288" lon="10.6383002"><ele>97.0</ele><time>2026-03-28T09:22:46.028Z</time></trkpt><trkpt lat="45.332809" lon="10.6383723"><ele>97.0</ele><time>2026-03-28T09:22:47.029Z</time></trkpt><trkpt lat="45.3327263" lon="10.6384562"><ele>97.0</ele><time>2026-03-28T09:22:48.029Z</time></trkpt><trkpt lat="45.3326325" lon="10.6385485"><ele>97.0</ele><time>2026-03-28T09:22:49.03Z</time></trkpt><trkpt lat="45.3325313" lon="10.6386352"><ele>97.0</ele><time>2026-03-28T09:22:50.032Z</time></trkpt><trkpt lat="45.3324193" lon="10.6387152"><ele>94.25</ele><time>2026-03-28T09:22:51.029Z</time></trkpt><trkpt lat="45.33231" lon="10.6387908"><ele>91.5</ele><time>2026-03-28T09:22:52.034Z</time></trkpt><trkpt lat="45.3322095" lon="10.6388753"><ele>88.75</ele><time>2026-03-28T09:22:53.031Z</time></trkpt><trkpt lat="45.3321225" lon="10.6389763"><ele>86.0</ele><time>2026-03-28T09:22:54.032Z</time></trkpt><trkpt lat="45.3320453" lon="10.6390928"><ele>85.6</ele><time>2026-03-28T09:22:55.032Z</time></trkpt><trkpt lat="45.3319643" lon="10.6391977"><ele>85.19999999999999</ele><time>2026-03-28T09:22:56.03Z</time></trkpt><trkpt lat="45.3318767" lon="10.639293"><ele>84.80000000000001</ele><time>2026-03-28T09:22:57.032Z</time></trkpt><trkpt lat="45.3317965" lon="10.6393885"><ele>84.4</ele><time>2026-03-28T09:22:58.035Z</time></trkpt><trkpt lat="45.3317338" lon="10.6394858"><ele>84.0</ele><time>2026-03-28T09:22:59.033Z</time></trkpt><trkpt lat="45.3316947" lon="10.6395927"><ele>84.0</ele><time>2026-03-28T09:23:00.033Z</time></trkpt><trkpt lat="45.3316708" lon="10.6396933"><ele>84.0</ele><time>2026-03-28T09:23:01.032Z</time></trkpt><trkpt lat="45.3316247" lon="10.6398127"><ele>84.0</ele><time>2026-03-28T09:23:03.034Z</time></trkpt><trkpt lat="45.3315338" lon="10.6398525"><ele>84.0</ele><time>2026-03-28T09:23:05.036Z</time></trkpt><trkpt lat="45.3314338" lon="10.63985"><ele>84.0</ele><time>2026-03-28T09:23:06.031Z</time></trkpt><trkpt lat="45.3313068" lon="10.6398455"><ele>85.0</ele><time>2026-03-28T09:23:07.033Z</time></trkpt><trkpt lat="45.3311568" lon="10.6398413"><ele>86.0</ele><time>2026-03-28T09:23:08.031Z</time></trkpt><trkpt lat="45.3309957" lon="10.6398393"><ele>87.0</ele><time>2026-03-28T09:23:09.03Z</time></trkpt><trkpt lat="45.3308228" lon="10.6398342"><ele>87.0</ele><time>2026-03-28T09:23:10.03Z</time></trkpt><trkpt lat="45.3306433" lon="10.6398142"><ele>87.0</ele><time>2026-03-28T09:23:11.028Z</time></trkpt><trkpt lat="45.3304683" lon="10.6397712"><ele>87.0</ele><time>2026-03-28T09:23:12.031Z</time></trkpt><trkpt lat="45.3303018" lon="10.639716"><ele>87.0</ele><time>2026-03-28T09:23:13.034Z</time></trkpt><trkpt lat="45.3301453" lon="10.6396653"><ele>87.0</ele><time>2026-03-28T09:23:14.035Z</time></trkpt><trkpt lat="45.3300133" lon="10.6396212"><ele>87.0</ele><time>2026-03-28T09:23:15.033Z</time></trkpt><trkpt lat="45.329904" lon="10.6395982"><ele>87.0</ele><time>2026-03-28T09:23:16.033Z</time></trkpt><trkpt lat="45.329805" lon="10.6396138"><ele>86.0</ele><time>2026-03-28T09:23:17.032Z</time></trkpt><trkpt lat="45.3297107" lon="10.6396762"><ele>85.0</ele><time>2026-03-28T09:23:18.035Z</time></trkpt><trkpt lat="45.3296317" lon="10.6397603"><ele>84.0</ele><time>2026-03-28T09:23:19.034Z</time></trkpt><trkpt lat="45.3295657" lon="10.6398423"><ele>83.0</ele><time>2026-03-28T09:23:20.033Z</time></trkpt><trkpt lat="45.3295098" lon="10.6399115"><ele>82.0</ele><time>2026-03-28T09:23:21.032Z</time></trkpt><trkpt lat="45.3294557" lon="10.6400158"><ele>82.0</ele><time>2026-03-28T09:23:23.033Z</time></trkpt><trkpt lat="45.3294492" lon="10.6402013"><ele>82.0</ele><time>2026-03-28T09:23:25.035Z</time></trkpt><trkpt lat="45.3294663" lon="10.6403065"><ele>82.0</ele><time>2026-03-28T09:23:26.036Z</time></trkpt><trkpt lat="45.3294885" lon="10.6404127"><ele>82.0</ele><time>2026-03-28T09:23:27.033Z</time></trkpt><trkpt lat="45.3295143" lon="10.640539"><ele>82.0</ele><time>2026-03-28T09:23:28.034Z</time></trkpt><trkpt lat="45.3295418" lon="10.6406825"><ele>82.19999999999999</ele><time>2026-03-28T09:23:29.035Z</time></trkpt><trkpt lat="45.3295695" lon="10.6408177"><ele>82.4</ele><time>2026-03-28T09:23:30.034Z</time></trkpt><trkpt lat="45.3296025" lon="10.6409597"><ele>82.6</ele><time>2026-03-28T09:23:31.034Z</time></trkpt><trkpt lat="45.3296238" lon="10.6411155"><ele>82.80000000000001</ele><time>2026-03-28T09:23:32.035Z</time></trkpt><trkpt lat="45.329612" lon="10.6412723"><ele>83.0</ele><time>2026-03-28T09:23:33.031Z</time></trkpt><trkpt lat="45.3295675" lon="10.6414227"><ele>83.0</ele><time>2026-03-28T09:23:34.034Z</time></trkpt><trkpt lat="45.3295" lon="10.6415673"><ele>83.0</ele><time>2026-03-28T09:23:35.032Z</time></trkpt><trkpt lat="45.3294212" lon="10.6417107"><ele>83.0</ele><time>2026-03-28T09:23:36.034Z</time></trkpt><trkpt lat="45.3293422" lon="10.6418535"><ele>83.0</ele><time>2026-03-28T09:23:37.034Z</time></trkpt><trkpt lat="45.3292748" lon="10.6420072"><ele>82.75</ele><time>2026-03-28T09:23:38.034Z</time></trkpt><trkpt lat="45.329224" lon="10.6421795"><ele>82.5</ele><time>2026-03-28T09:23:39.033Z</time></trkpt><trkpt lat="45.329186" lon="10.6423722"><ele>82.25</ele><time>2026-03-28T09:23:40.034Z</time></trkpt><trkpt lat="45.3291575" lon="10.6425737"><ele>82.0</ele><time>2026-03-28T09:23:41.034Z</time></trkpt><trkpt lat="45.3291365" lon="10.6427827"><ele>82.66666666666666</ele><time>2026-03-28T09:23:42.033Z</time></trkpt><trkpt lat="45.3291185" lon="10.6430092"><ele>83.33333333333333</ele><time>2026-03-28T09:23:43.037Z</time></trkpt><trkpt lat="45.3291" lon="10.6432478"><ele>84.0</ele><time>2026-03-28T09:23:44.035Z</time></trkpt><trkpt lat="45.3290845" lon="10.6434952"><ele>83.66666666666667</ele><time>2026-03-28T09:23:45.034Z</time></trkpt><trkpt lat="45.3290717" lon="10.6437453"><ele>83.33333333333334</ele><time>2026-03-28T09:23:46.035Z</time></trkpt><trkpt lat="45.3290597" lon="10.6439938"><ele>83.0</ele><time>2026-03-28T09:23:47.035Z</time></trkpt><trkpt lat="45.3290503" lon="10.6442367"><ele>83.66666666666667</ele><time>2026-03-28T09:23:48.034Z</time></trkpt><trkpt lat="45.329042" lon="10.6444738"><ele>84.33333333333333</ele><time>2026-03-28T09:23:49.035Z</time></trkpt><trkpt lat="45.3290323" lon="10.6447033"><ele>85.0</ele><time>2026-03-28T09:23:50.035Z</time></trkpt><trkpt lat="45.3290218" lon="10.644921"><ele>85.0</ele><time>2026-03-28T09:23:51.033Z</time></trkpt><trkpt lat="45.3290128" lon="10.6451238"><ele>85.0</ele><time>2026-03-28T09:23:52.033Z</time></trkpt><trkpt lat="45.3290042" lon="10.6453132"><ele>85.0</ele><time>2026-03-28T09:23:53.036Z</time></trkpt><trkpt lat="45.3289948" lon="10.6454905"><ele>85.0</ele><time>2026-03-28T09:23:54.034Z</time></trkpt><trkpt lat="45.3289822" lon="10.6456557"><ele>85.4</ele><time>2026-03-28T09:23:55.034Z</time></trkpt><trkpt lat="45.3289653" lon="10.6458018"><ele>85.8</ele><time>2026-03-28T09:23:56.035Z</time></trkpt><trkpt lat="45.3289465" lon="10.6459173"><ele>86.19999999999999</ele><time>2026-03-28T09:23:57.03Z</time></trkpt><trkpt lat="45.3289297" lon="10.6460107"><ele>86.6</ele><time>2026-03-28T09:23:58.032Z</time></trkpt><trkpt lat="45.3288988" lon="10.6461428"><ele>87.0</ele><time>2026-03-28T09:24:00.031Z</time></trkpt><trkpt lat="45.3288378" lon="10.6462993"><ele>87.39999999999999</ele><time>2026-03-28T09:24:02.03Z</time></trkpt><trkpt lat="45.3287948" lon="10.646416"><ele>87.8</ele><time>2026-03-28T09:24:03.038Z</time></trkpt><trkpt lat="45.3287508" lon="10.6465408"><ele>88.2</ele><time>2026-03-28T09:24:04.034Z</time></trkpt><trkpt lat="45.3286977" lon="10.6466935"><ele>88.6</ele><time>2026-03-28T09:24:05.034Z</time></trkpt><trkpt lat="45.3286435" lon="10.6468565"><ele>89.0</ele><time>2026-03-28T09:24:06.03Z</time></trkpt><trkpt lat="45.3285798" lon="10.6470105"><ele>89.0</ele><time>2026-03-28T09:24:07.034Z</time></trkpt><trkpt lat="45.3284992" lon="10.6471535"><ele>89.0</ele><time>2026-03-28T09:24:08.035Z</time></trkpt><trkpt lat="45.3284003" lon="10.6472848"><ele>89.0</ele><time>2026-03-28T09:24:09.032Z</time></trkpt><trkpt lat="45.3282912" lon="10.6474147"><ele>89.0</ele><time>2026-03-28T09:24:10.033Z</time></trkpt><trkpt lat="45.3281782" lon="10.647564"><ele>89.0</ele><time>2026-03-28T09:24:11.034Z</time></trkpt><trkpt lat="45.3280713" lon="10.6477235"><ele>89.0</ele><time>2026-03-28T09:24:12.032Z</time></trkpt><trkpt lat="45.3279685" lon="10.6479032"><ele>89.0</ele><time>2026-03-28T09:24:13.034Z</time></trkpt><trkpt lat="45.3278638" lon="10.6481017"><ele>92.66666666666667</ele><time>2026-03-28T09:24:14.032Z</time></trkpt><trkpt lat="45.3277607" lon="10.648305"><ele>96.33333333333334</ele><time>2026-03-28T09:24:15.032Z</time></trkpt><trkpt lat="45.3276668" lon="10.6485047"><ele>100.0</ele><time>2026-03-28T09:24:16.034Z</time></trkpt><trkpt lat="45.3275732" lon="10.6487083"><ele>100.0</ele><time>2026-03-28T09:24:17.035Z</time></trkpt><trkpt lat="45.327481" lon="10.6489163"><ele>100.0</ele><time>2026-03-28T09:24:18.032Z</time></trkpt><trkpt lat="45.3273847" lon="10.6491305"><ele>100.0</ele><time>2026-03-28T09:24:19.033Z</time></trkpt><trkpt lat="45.3272917" lon="10.6493468"><ele>103.33333333333334</ele><time>2026-03-28T09:24:20.032Z</time></trkpt><trkpt lat="45.327198" lon="10.6495712"><ele>106.66666666666666</ele><time>2026-03-28T09:24:21.034Z</time></trkpt><trkpt lat="45.3271005" lon="10.6498085"><ele>110.0</ele><time>2026-03-28T09:24:22.029Z</time></trkpt><trkpt lat="45.327006" lon="10.6500533"><ele>108.0</ele><time>2026-03-28T09:24:23.029Z</time></trkpt><trkpt lat="45.3269072" lon="10.6502932"><ele>106.0</ele><time>2026-03-28T09:24:24.028Z</time></trkpt><trkpt lat="45.326816" lon="10.6505133"><ele>104.0</ele><time>2026-03-28T09:24:25.031Z</time></trkpt><trkpt lat="45.3267218" lon="10.6507167"><ele>104.0</ele><time>2026-03-28T09:24:26.032Z</time></trkpt><trkpt lat="45.3266263" lon="10.650897"><ele>104.0</ele><time>2026-03-28T09:24:27.03Z</time></trkpt><trkpt lat="45.326526" lon="10.6510572"><ele>104.0</ele><time>2026-03-28T09:24:28.033Z</time></trkpt><trkpt lat="45.3264013" lon="10.6512022"><ele>108.66666666666666</ele><time>2026-03-28T09:24:29.032Z</time></trkpt><trkpt lat="45.3262627" lon="10.6513497"><ele>113.33333333333334</ele><time>2026-03-28T09:24:30.03Z</time></trkpt><trkpt lat="45.3261253" lon="10.6515073"><ele>118.0</ele><time>2026-03-28T09:24:31.034Z</time></trkpt><trkpt lat="45.3259942" lon="10.6516693"><ele>118.0</ele><time>2026-03-28T09:24:32.032Z</time></trkpt><trkpt lat="45.3258642" lon="10.6518295"><ele>118.0</ele><time>2026-03-28T09:24:33.033Z</time></trkpt><trkpt lat="45.3257422" lon="10.6519808"><ele>118.0</ele><time>2026-03-28T09:24:34.033Z</time></trkpt><trkpt lat="45.3256298" lon="10.65212"><ele>119.75</ele><time>2026-03-28T09:24:35.032Z</time></trkpt><trkpt lat="45.325534" lon="10.6522577"><ele>121.5</ele><time>2026-03-28T09:24:36.033Z</time></trkpt><trkpt lat="45.3254518" lon="10.6523987"><ele>123.25</ele><time>2026-03-28T09:24:37.035Z</time></trkpt><trkpt lat="45.3253848" lon="10.6525438"><ele>125.0</ele><time>2026-03-28T09:24:38.033Z</time></trkpt><trkpt lat="45.325327" lon="10.6526983"><ele>124.25</ele><time>2026-03-28T09:24:39.031Z</time></trkpt><trkpt lat="45.3252685" lon="10.6528552"><ele>123.5</ele><time>2026-03-28T09:24:40.032Z</time></trkpt><trkpt lat="45.3252032" lon="10.6530145"><ele>122.75</ele><time>2026-03-28T09:24:41.033Z</time></trkpt><trkpt lat="45.3251308" lon="10.6531753"><ele>122.0</ele><time>2026-03-28T09:24:42.033Z</time></trkpt><trkpt lat="45.3250488" lon="10.6533272"><ele>122.0</ele><time>2026-03-28T09:24:43.032Z</time></trkpt><trkpt lat="45.3249632" lon="10.6534587"><ele>121.99999999999999</ele><time>2026-03-28T09:24:44.031Z</time></trkpt><trkpt lat="45.3248845" lon="10.6535685"><ele>121.99999999999999</ele><time>2026-03-28T09:24:45.032Z</time></trkpt><trkpt lat="45.3248192" lon="10.6536633"><ele>122.0</ele><time>2026-03-28T09:24:46.03Z</time></trkpt><trkpt lat="45.3247613" lon="10.653743"><ele>122.0</ele><time>2026-03-28T09:24:47.03Z</time></trkpt><trkpt lat="45.3247093" lon="10.6538125"><ele>122.19999999999999</ele><time>2026-03-28T09:24:48.031Z</time></trkpt><trkpt lat="45.3246447" lon="10.653917"><ele>122.39999999999999</ele><time>2026-03-28T09:24:50.032Z</time></trkpt><trkpt lat="45.3246838" lon="10.6539872"><ele>122.60000000000001</ele><time>2026-03-28T09:24:52.032Z</time></trkpt><trkpt lat="45.324836" lon="10.6540055"><ele>122.80000000000001</ele><time>2026-03-28T09:24:54.03Z</time></trkpt><trkpt lat="45.3249375" lon="10.6540637"><ele>123.0</ele><time>2026-03-28T09:24:55.031Z</time></trkpt><trkpt lat="45.325045" lon="10.6541577"><ele>123.0</ele><time>2026-03-28T09:24:56.032Z</time></trkpt><trkpt lat="45.3251552" lon="10.6542815"><ele>123.0</ele><time>2026-03-28T09:24:57.031Z</time></trkpt><trkpt lat="45.3252568" lon="10.6544075"><ele>123.0</ele><time>2026-03-28T09:24:58.032Z</time></trkpt><trkpt lat="45.325341" lon="10.6545462"><ele>123.0</ele><time>2026-03-28T09:24:59.031Z</time></trkpt><trkpt lat="45.3254015" lon="10.654714"><ele>123.25</ele><time>2026-03-28T09:25:00.032Z</time></trkpt><trkpt lat="45.325428" lon="10.6548875"><ele>123.5</ele><time>2026-03-28T09:25:01.033Z</time></trkpt><trkpt lat="45.3254162" lon="10.6550805"><ele>123.75</ele><time>2026-03-28T09:25:02.033Z</time></trkpt><trkpt lat="45.3253745" lon="10.6552923"><ele>124.0</ele><time>2026-03-28T09:25:03.032Z</time></trkpt><trkpt lat="45.3253282" lon="10.6555073"><ele>122.66666666666667</ele><time>2026-03-28T09:25:04.031Z</time></trkpt><trkpt lat="45.3252803" lon="10.655715"><ele>121.33333333333334</ele><time>2026-03-28T09:25:05.032Z</time></trkpt><trkpt lat="45.3252348" lon="10.6559205"><ele>120.0</ele><time>2026-03-28T09:25:06.028Z</time></trkpt><trkpt lat="45.325186" lon="10.6561187"><ele>117.25</ele><time>2026-03-28T09:25:07.033Z</time></trkpt><trkpt lat="45.3251432" lon="10.6563078"><ele>114.5</ele><time>2026-03-28T09:25:08.031Z</time></trkpt><trkpt lat="45.3251082" lon="10.6564937"><ele>111.75</ele><time>2026-03-28T09:25:09.03Z</time></trkpt><trkpt lat="45.3250848" lon="10.6566723"><ele>109.0</ele><time>2026-03-28T09:25:10.033Z</time></trkpt><trkpt lat="45.3250943" lon="10.6568488"><ele>108.0</ele><time>2026-03-28T09:25:11.03Z</time></trkpt><trkpt lat="45.325126" lon="10.6570267"><ele>107.0</ele><time>2026-03-28T09:25:12.03Z</time></trkpt><trkpt lat="45.32516" lon="10.6572168"><ele>106.0</ele><time>2026-03-28T09:25:13.029Z</time></trkpt><trkpt lat="45.3251953" lon="10.6574203"><ele>105.0</ele><time>2026-03-28T09:25:14.034Z</time></trkpt><trkpt lat="45.3252315" lon="10.6576188"><ele>105.2</ele><time>2026-03-28T09:25:15.03Z</time></trkpt><trkpt lat="45.3252637" lon="10.657805"><ele>105.4</ele><time>2026-03-28T09:25:16.03Z</time></trkpt><trkpt lat="45.325293" lon="10.657971"><ele>105.6</ele><time>2026-03-28T09:25:17.033Z</time></trkpt><trkpt lat="45.3253162" lon="10.658107"><ele>105.8</ele><time>2026-03-28T09:25:18.03Z</time></trkpt><trkpt lat="45.3253305" lon="10.6582203"><ele>106.0</ele><time>2026-03-28T09:25:19.032Z</time></trkpt><trkpt lat="45.3253477" lon="10.6583567"><ele>106.00000000000001</ele><time>2026-03-28T09:25:21.033Z</time></trkpt><trkpt lat="45.3253572" lon="10.6584658"><ele>106.0</ele><time>2026-03-28T09:25:32.033Z</time></trkpt><trkpt lat="45.325419" lon="10.6585002"><ele>106.0</ele><time>2026-03-28T09:25:34.033Z</time></trkpt><trkpt lat="45.3255377" lon="10.6584762"><ele>106.0</ele><time>2026-03-28T09:25:36.028Z</time></trkpt><trkpt lat="45.3256103" lon="10.65845"><ele>106.00000000000001</ele><time>2026-03-28T09:25:37.028Z</time></trkpt><trkpt lat="45.3256915" lon="10.658423"><ele>106.0</ele><time>2026-03-28T09:25:38.029Z</time></trkpt><trkpt lat="45.3257798" lon="10.6583962"><ele>105.50000000000001</ele><time>2026-03-28T09:25:39.032Z</time></trkpt><trkpt lat="45.3258675" lon="10.6583693"><ele>105.0</ele><time>2026-03-28T09:25:40.032Z</time></trkpt><trkpt lat="45.325947" lon="10.6583435"><ele>104.5</ele><time>2026-03-28T09:25:41.035Z</time></trkpt><trkpt lat="45.326026" lon="10.6583183"><ele>104.0</ele><time>2026-03-28T09:25:42.032Z</time></trkpt><trkpt lat="45.3261123" lon="10.658295"><ele>103.50000000000001</ele><time>2026-03-28T09:25:43.032Z</time></trkpt><trkpt lat="45.3262047" lon="10.658273"><ele>103.0</ele><time>2026-03-28T09:25:44.033Z</time></trkpt><trkpt lat="45.3263028" lon="10.6582493"><ele>102.66666666666667</ele><time>2026-03-28T09:25:45.031Z</time></trkpt><trkpt lat="45.3264015" lon="10.658225"><ele>102.33333333333334</ele><time>2026-03-28T09:25:46.035Z</time></trkpt><trkpt lat="45.326492" lon="10.6582028"><ele>102.0</ele><time>2026-03-28T09:25:47.033Z</time></trkpt><trkpt lat="45.3265737" lon="10.6581872"><ele>101.66666666666666</ele><time>2026-03-28T09:25:48.032Z</time></trkpt><trkpt lat="45.326648" lon="10.6582003"><ele>101.33333333333333</ele><time>2026-03-28T09:25:49.032Z</time></trkpt><trkpt lat="45.3267087" lon="10.6582642"><ele>101.0</ele><time>2026-03-28T09:25:50.033Z</time></trkpt><trkpt lat="45.3267455" lon="10.6583692"><ele>101.0</ele><time>2026-03-28T09:25:51.035Z</time></trkpt><trkpt lat="45.3267682" lon="10.6585137"><ele>101.0</ele><time>2026-03-28T09:25:52.034Z</time></trkpt><trkpt lat="45.3267808" lon="10.6586935"><ele>101.0</ele><time>2026-03-28T09:25:53.033Z</time></trkpt><trkpt lat="45.3267815" lon="10.6588717"><ele>101.0</ele><time>2026-03-28T09:25:54.032Z</time></trkpt><trkpt lat="45.3267633" lon="10.6590522"><ele>100.19999999999999</ele><time>2026-03-28T09:25:55.033Z</time></trkpt><trkpt lat="45.3267352" lon="10.6592318"><ele>99.39999999999999</ele><time>2026-03-28T09:25:56.033Z</time></trkpt><trkpt lat="45.3267107" lon="10.6593943"><ele>98.6</ele><time>2026-03-28T09:25:57.031Z</time></trkpt><trkpt lat="45.3266863" lon="10.6595338"><ele>97.8</ele><time>2026-03-28T09:25:58.034Z</time></trkpt><trkpt lat="45.3266543" lon="10.6596487"><ele>97.0</ele><time>2026-03-28T09:25:59.034Z</time></trkpt><trkpt lat="45.326616" lon="10.6597458"><ele>96.6</ele><time>2026-03-28T09:26:00.031Z</time></trkpt><trkpt lat="45.3265983" lon="10.6598453"><ele>96.19999999999999</ele><time>2026-03-28T09:26:01.033Z</time></trkpt><trkpt lat="45.3266198" lon="10.6599547"><ele>95.8</ele><time>2026-03-28T09:26:02.033Z</time></trkpt><trkpt lat="45.3266655" lon="10.6600907"><ele>95.4</ele><time>2026-03-28T09:26:03.031Z</time></trkpt><trkpt lat="45.3267045" lon="10.6602812"><ele>95.0</ele><time>2026-03-28T09:26:04.032Z</time></trkpt><trkpt lat="45.3267335" lon="10.6604953"><ele>94.0</ele><time>2026-03-28T09:26:05.035Z</time></trkpt><trkpt lat="45.3267613" lon="10.6607137"><ele>93.0</ele><time>2026-03-28T09:26:06.031Z</time></trkpt><trkpt lat="45.3267892" lon="10.6609292"><ele>92.0</ele><time>2026-03-28T09:26:07.033Z</time></trkpt><trkpt lat="45.3268122" lon="10.6611368"><ele>91.25</ele><time>2026-03-28T09:26:08.032Z</time></trkpt><trkpt lat="45.3268272" lon="10.6613387"><ele>90.5</ele><time>2026-03-28T09:26:09.031Z</time></trkpt><trkpt lat="45.3268303" lon="10.6615323"><ele>89.75</ele><time>2026-03-28T09:26:10.032Z</time></trkpt><trkpt lat="45.3268282" lon="10.6617205"><ele>89.0</ele><time>2026-03-28T09:26:11.035Z</time></trkpt><trkpt lat="45.3268205" lon="10.6618988"><ele>89.0</ele><time>2026-03-28T09:26:12.03Z</time></trkpt><trkpt lat="45.3268082" lon="10.6620617"><ele>89.0</ele><time>2026-03-28T09:26:13.032Z</time></trkpt><trkpt lat="45.3267915" lon="10.6622038"><ele>89.0</ele><time>2026-03-28T09:26:14.032Z</time></trkpt><trkpt lat="45.3267737" lon="10.6623242"><ele>89.0</ele><time>2026-03-28T09:26:15.033Z</time></trkpt><trkpt lat="45.3267505" lon="10.6624305"><ele>89.0</ele><time>2026-03-28T09:26:16.034Z</time></trkpt><trkpt lat="45.3267173" lon="10.6625288"><ele>89.0</ele><time>2026-03-28T09:26:17.033Z</time></trkpt><trkpt lat="45.3267035" lon="10.6626287"><ele>89.0</ele><time>2026-03-28T09:26:18.033Z</time></trkpt><trkpt lat="45.3267305" lon="10.6627238"><ele>89.0</ele><time>2026-03-28T09:26:19.036Z</time></trkpt><trkpt lat="45.3268023" lon="10.6628133"><ele>89.0</ele><time>2026-03-28T09:26:20.034Z</time></trkpt><trkpt lat="45.3269082" lon="10.6629112"><ele>89.0</ele><time>2026-03-28T09:26:21.036Z</time></trkpt><trkpt lat="45.327021" lon="10.6630163"><ele>89.0</ele><time>2026-03-28T09:26:22.033Z</time></trkpt><trkpt lat="45.3271528" lon="10.6631327"><ele>89.0</ele><time>2026-03-28T09:26:23.034Z</time></trkpt><trkpt lat="45.3272908" lon="10.6632458"><ele>89.0</ele><time>2026-03-28T09:26:24.033Z</time></trkpt><trkpt lat="45.3274287" lon="10.6633563"><ele>89.0</ele><time>2026-03-28T09:26:25.034Z</time></trkpt><trkpt lat="45.3275662" lon="10.6634707"><ele>89.0</ele><time>2026-03-28T09:26:26.032Z</time></trkpt><trkpt lat="45.3277033" lon="10.6635882"><ele>89.0</ele><time>2026-03-28T09:26:27.032Z</time></trkpt><trkpt lat="45.3278392" lon="10.6637033"><ele>88.33333333333334</ele><time>2026-03-28T09:26:28.033Z</time></trkpt><trkpt lat="45.3279785" lon="10.6638152"><ele>87.66666666666667</ele><time>2026-03-28T09:26:29.036Z</time></trkpt><trkpt lat="45.3281238" lon="10.6639238"><ele>87.0</ele><time>2026-03-28T09:26:30.033Z</time></trkpt><trkpt lat="45.3282753" lon="10.6640268"><ele>86.66666666666667</ele><time>2026-03-28T09:26:31.035Z</time></trkpt><trkpt lat="45.3284343" lon="10.6641203"><ele>86.33333333333334</ele><time>2026-03-28T09:26:32.033Z</time></trkpt><trkpt lat="45.3286028" lon="10.66421"><ele>86.0</ele><time>2026-03-28T09:26:33.035Z</time></trkpt><trkpt lat="45.3287707" lon="10.6642987"><ele>87.0</ele><time>2026-03-28T09:26:34.033Z</time></trkpt><trkpt lat="45.328935" lon="10.6643828"><ele>88.0</ele><time>2026-03-28T09:26:35.034Z</time></trkpt><trkpt lat="45.3291003" lon="10.6644735"><ele>89.0</ele><time>2026-03-28T09:26:36.033Z</time></trkpt><trkpt lat="45.3292593" lon="10.6645933"><ele>89.33333333333334</ele><time>2026-03-28T09:26:37.034Z</time></trkpt><trkpt lat="45.3294037" lon="10.6647522"><ele>89.66666666666667</ele><time>2026-03-28T09:26:38.034Z</time></trkpt><trkpt lat="45.3295328" lon="10.664945"><ele>90.0</ele><time>2026-03-28T09:26:39.034Z</time></trkpt><trkpt lat="45.3296537" lon="10.6651472"><ele>90.33333333333333</ele><time>2026-03-28T09:26:40.034Z</time></trkpt><trkpt lat="45.3297743" lon="10.6653478"><ele>90.66666666666666</ele><time>2026-03-28T09:26:41.034Z</time></trkpt><trkpt lat="45.3298928" lon="10.6655473"><ele>91.0</ele><time>2026-03-28T09:26:42.036Z</time></trkpt><trkpt lat="45.3300063" lon="10.66575"><ele>91.0</ele><time>2026-03-28T09:26:43.036Z</time></trkpt><trkpt lat="45.3301107" lon="10.6659613"><ele>91.0</ele><time>2026-03-28T09:26:44.034Z</time></trkpt><trkpt lat="45.330208" lon="10.666189"><ele>91.0</ele><time>2026-03-28T09:26:45.035Z</time></trkpt><trkpt lat="45.3303035" lon="10.6664322"><ele>91.0</ele><time>2026-03-28T09:26:46.033Z</time></trkpt><trkpt lat="45.3303952" lon="10.666676"><ele>91.0</ele><time>2026-03-28T09:26:47.034Z</time></trkpt><trkpt lat="45.33048" lon="10.6669088"><ele>91.0</ele><time>2026-03-28T09:26:48.031Z</time></trkpt><trkpt lat="45.3305603" lon="10.6671373"><ele>91.0</ele><time>2026-03-28T09:26:49.031Z</time></trkpt><trkpt lat="45.3306387" lon="10.6673653"><ele>91.0</ele><time>2026-03-28T09:26:50.03Z</time></trkpt><trkpt lat="45.3307165" lon="10.6675913"><ele>91.0</ele><time>2026-03-28T09:26:51.032Z</time></trkpt><trkpt lat="45.3307915" lon="10.6678123"><ele>91.33333333333333</ele><time>2026-03-28T09:26:52.032Z</time></trkpt><trkpt lat="45.3308698" lon="10.6680327"><ele>91.66666666666667</ele><time>2026-03-28T09:26:53.035Z</time></trkpt><trkpt lat="45.3309578" lon="10.6682657"><ele>92.0</ele><time>2026-03-28T09:26:54.033Z</time></trkpt><trkpt lat="45.3310488" lon="10.6684952"><ele>92.33333333333334</ele><time>2026-03-28T09:26:55.033Z</time></trkpt><trkpt lat="45.3311433" lon="10.6687093"><ele>92.66666666666667</ele><time>2026-03-28T09:26:56.033Z</time></trkpt><trkpt lat="45.3312525" lon="10.6689117"><ele>93.0</ele><time>2026-03-28T09:26:57.034Z</time></trkpt><trkpt lat="45.3313828" lon="10.6690935"><ele>92.0</ele><time>2026-03-28T09:26:58.035Z</time></trkpt><trkpt lat="45.3315378" lon="10.6692537"><ele>91.0</ele><time>2026-03-28T09:26:59.035Z</time></trkpt><trkpt lat="45.3317163" lon="10.669395"><ele>90.0</ele><time>2026-03-28T09:27:00.034Z</time></trkpt><trkpt lat="45.3319112" lon="10.6695223"><ele>89.66666666666667</ele><time>2026-03-28T09:27:01.035Z</time></trkpt><trkpt lat="45.3321158" lon="10.6696387"><ele>89.33333333333334</ele><time>2026-03-28T09:27:02.034Z</time></trkpt><trkpt lat="45.3323267" lon="10.6697487"><ele>89.0</ele><time>2026-03-28T09:27:03.033Z</time></trkpt><trkpt lat="45.3325395" lon="10.6698578"><ele>88.33333333333334</ele><time>2026-03-28T09:27:04.033Z</time></trkpt><trkpt lat="45.3327433" lon="10.669963"><ele>87.66666666666667</ele><time>2026-03-28T09:27:05.034Z</time></trkpt><trkpt lat="45.3329362" lon="10.670063"><ele>87.0</ele><time>2026-03-28T09:27:06.033Z</time></trkpt><trkpt lat="45.333118" lon="10.6701657"><ele>86.33333333333333</ele><time>2026-03-28T09:27:07.032Z</time></trkpt><trkpt lat="45.3332878" lon="10.6702838"><ele>85.66666666666666</ele><time>2026-03-28T09:27:08.032Z</time></trkpt><trkpt lat="45.3334452" lon="10.6704123"><ele>85.0</ele><time>2026-03-28T09:27:09.033Z</time></trkpt><trkpt lat="45.3335875" lon="10.6705398"><ele>85.0</ele><time>2026-03-28T09:27:10.036Z</time></trkpt><trkpt lat="45.3337042" lon="10.6706548"><ele>85.0</ele><time>2026-03-28T09:27:11.033Z</time></trkpt><trkpt lat="45.3338002" lon="10.6707543"><ele>85.0</ele><time>2026-03-28T09:27:12.036Z</time></trkpt><trkpt lat="45.3338767" lon="10.6708417"><ele>85.0</ele><time>2026-03-28T09:27:13.033Z</time></trkpt><trkpt lat="45.3339242" lon="10.6709182"><ele>85.0</ele><time>2026-03-28T09:27:14.034Z</time></trkpt><trkpt lat="45.3339223" lon="10.6710222"><ele>84.5</ele><time>2026-03-28T09:27:16.033Z</time></trkpt><trkpt lat="45.3338308" lon="10.671187"><ele>84.0</ele><time>2026-03-28T09:27:18.033Z</time></trkpt><trkpt lat="45.3337745" lon="10.6713148"><ele>83.5</ele><time>2026-03-28T09:27:19.032Z</time></trkpt><trkpt lat="45.33371" lon="10.671465"><ele>83.0</ele><time>2026-03-28T09:27:20.035Z</time></trkpt><trkpt lat="45.333648" lon="10.6716062"><ele>83.0</ele><time>2026-03-28T09:27:21.033Z</time></trkpt><trkpt lat="45.3335835" lon="10.6717443"><ele>83.0</ele><time>2026-03-28T09:27:22.033Z</time></trkpt><trkpt lat="45.3335153" lon="10.6718787"><ele>83.0</ele><time>2026-03-28T09:27:23.034Z</time></trkpt><trkpt lat="45.3334428" lon="10.6720087"><ele>83.0</ele><time>2026-03-28T09:27:24.034Z</time></trkpt><trkpt lat="45.3333728" lon="10.6721305"><ele>82.5</ele><time>2026-03-28T09:27:25.034Z</time></trkpt><trkpt lat="45.3333125" lon="10.672245"><ele>82.0</ele><time>2026-03-28T09:27:26.034Z</time></trkpt><trkpt lat="45.3332672" lon="10.6723565"><ele>81.5</ele><time>2026-03-28T09:27:27.035Z</time></trkpt><trkpt lat="45.3332408" lon="10.6724682"><ele>81.0</ele><time>2026-03-28T09:27:28.033Z</time></trkpt><trkpt lat="45.3332325" lon="10.6725917"><ele>80.5</ele><time>2026-03-28T09:27:29.035Z</time></trkpt><trkpt lat="45.333235" lon="10.6727135"><ele>80.0</ele><time>2026-03-28T09:27:30.033Z</time></trkpt><trkpt lat="45.3332408" lon="10.6728238"><ele>80.0</ele><time>2026-03-28T09:27:31.034Z</time></trkpt><trkpt lat="45.33324" lon="10.672921"><ele>80.0</ele><time>2026-03-28T09:27:32.033Z</time></trkpt><trkpt lat="45.3332412" lon="10.6730682"><ele>80.0</ele><time>2026-03-28T09:27:34.034Z</time></trkpt><trkpt lat="45.3333167" lon="10.6732535"><ele>80.0</ele><time>2026-03-28T09:27:36.035Z</time></trkpt><trkpt lat="45.3333668" lon="10.6733987"><ele>80.0</ele><time>2026-03-28T09:27:37.033Z</time></trkpt><trkpt lat="45.333421" lon="10.6735702"><ele>80.4</ele><time>2026-03-28T09:27:38.033Z</time></trkpt><trkpt lat="45.3334633" lon="10.6737113"><ele>80.8</ele><time>2026-03-28T09:27:39.034Z</time></trkpt><trkpt lat="45.3334952" lon="10.673812"><ele>81.19999999999999</ele><time>2026-03-28T09:27:40.033Z</time></trkpt><trkpt lat="45.333522" lon="10.673922"><ele>81.6</ele><time>2026-03-28T09:27:42.036Z</time></trkpt><trkpt lat="45.3334687" lon="10.6740912"><ele>82.0</ele><time>2026-03-28T09:27:44.036Z</time></trkpt><trkpt lat="45.3334155" lon="10.674213"><ele>82.0</ele><time>2026-03-28T09:27:45.034Z</time></trkpt><trkpt lat="45.3333722" lon="10.6743585"><ele>82.0</ele><time>2026-03-28T09:27:46.035Z</time></trkpt><trkpt lat="45.3333533" lon="10.6745043"><ele>82.0</ele><time>2026-03-28T09:27:47.035Z</time></trkpt><trkpt lat="45.3333643" lon="10.674659"><ele>82.0</ele><time>2026-03-28T09:27:48.033Z</time></trkpt><trkpt lat="45.3334035" lon="10.6748142"><ele>82.0</ele><time>2026-03-28T09:27:49.034Z</time></trkpt><trkpt lat="45.333462" lon="10.6749645"><ele>82.0</ele><time>2026-03-28T09:27:50.034Z</time></trkpt><trkpt lat="45.333522" lon="10.6751058"><ele>82.0</ele><time>2026-03-28T09:27:51.033Z</time></trkpt><trkpt lat="45.3335717" lon="10.6752263"><ele>82.0</ele><time>2026-03-28T09:27:52.033Z</time></trkpt><trkpt lat="45.3336175" lon="10.6753263"><ele>82.0</ele><time>2026-03-28T09:27:53.037Z</time></trkpt><trkpt lat="45.333664" lon="10.6754027"><ele>82.0</ele><time>2026-03-28T09:27:54.03Z</time></trkpt><trkpt lat="45.333719" lon="10.6754558"><ele>82.0</ele><time>2026-03-28T09:27:55.033Z</time></trkpt><trkpt lat="45.3337793" lon="10.675482"><ele>82.0</ele><time>2026-03-28T09:27:56.03Z</time></trkpt><trkpt lat="45.3338483" lon="10.675568"><ele>82.0</ele><time>2026-03-28T09:27:58.033Z</time></trkpt><trkpt lat="45.333835" lon="10.6757553"><ele>82.0</ele><time>2026-03-28T09:28:00.033Z</time></trkpt><trkpt lat="45.3338287" lon="10.6758837"><ele>82.0</ele><time>2026-03-28T09:28:01.035Z</time></trkpt><trkpt lat="45.3338282" lon="10.6760208"><ele>82.0</ele><time>2026-03-28T09:28:02.031Z</time></trkpt><trkpt lat="45.3338358" lon="10.6761703"><ele>81.5</ele><time>2026-03-28T09:28:03.029Z</time></trkpt><trkpt lat="45.3338525" lon="10.6763288"><ele>81.0</ele><time>2026-03-28T09:28:04.03Z</time></trkpt><trkpt lat="45.3338745" lon="10.6764855"><ele>80.5</ele><time>2026-03-28T09:28:05.03Z</time></trkpt><trkpt lat="45.333894" lon="10.6766468"><ele>80.0</ele><time>2026-03-28T09:28:06.035Z</time></trkpt><trkpt lat="45.3339162" lon="10.6768183"><ele>82.0</ele><time>2026-03-28T09:28:07.036Z</time></trkpt><trkpt lat="45.3339412" lon="10.6769888"><ele>84.0</ele><time>2026-03-28T09:28:08.034Z</time></trkpt><trkpt lat="45.333969" lon="10.6771553"><ele>86.0</ele><time>2026-03-28T09:28:09.034Z</time></trkpt><trkpt lat="45.3340038" lon="10.6773162"><ele>88.0</ele><time>2026-03-28T09:28:10.034Z</time></trkpt><trkpt lat="45.3340423" lon="10.67746"><ele>88.0</ele><time>2026-03-28T09:28:11.035Z</time></trkpt><trkpt lat="45.3340872" lon="10.6775955"><ele>88.0</ele><time>2026-03-28T09:28:12.034Z</time></trkpt><trkpt lat="45.3341323" lon="10.6777222"><ele>88.0</ele><time>2026-03-28T09:28:13.035Z</time></trkpt><trkpt lat="45.3341753" lon="10.6778448"><ele>88.0</ele><time>2026-03-28T09:28:14.035Z</time></trkpt><trkpt lat="45.3342118" lon="10.6779765"><ele>88.0</ele><time>2026-03-28T09:28:15.031Z</time></trkpt><trkpt lat="45.3342458" lon="10.6780972"><ele>88.0</ele><time>2026-03-28T09:28:16.034Z</time></trkpt><trkpt lat="45.3342825" lon="10.6782062"><ele>88.0</ele><time>2026-03-28T09:28:17.034Z</time></trkpt><trkpt lat="45.3343288" lon="10.6783145"><ele>88.0</ele><time>2026-03-28T09:28:18.034Z</time></trkpt><trkpt lat="45.3343848" lon="10.6784158"><ele>88.0</ele><time>2026-03-28T09:28:19.034Z</time></trkpt><trkpt lat="45.3344525" lon="10.6785052"><ele>88.0</ele><time>2026-03-28T09:28:20.033Z</time></trkpt><trkpt lat="45.3345232" lon="10.6785752"><ele>88.0</ele><time>2026-03-28T09:28:21.033Z</time></trkpt><trkpt lat="45.3345917" lon="10.6786255"><ele>88.0</ele><time>2026-03-28T09:28:22.032Z</time></trkpt><trkpt lat="45.3346582" lon="10.6786498"><ele>88.0</ele><time>2026-03-28T09:28:23.033Z</time></trkpt><trkpt lat="45.3347213" lon="10.6786423"><ele>88.0</ele><time>2026-03-28T09:28:24.032Z</time></trkpt><trkpt lat="45.3347897" lon="10.6786078"><ele>88.0</ele><time>2026-03-28T09:28:25.032Z</time></trkpt><trkpt lat="45.3348635" lon="10.6785522"><ele>88.0</ele><time>2026-03-28T09:28:26.029Z</time></trkpt><trkpt lat="45.3349438" lon="10.678491"><ele>88.0</ele><time>2026-03-28T09:28:27.028Z</time></trkpt><trkpt lat="45.3350227" lon="10.6784255"><ele>88.83333333333333</ele><time>2026-03-28T09:28:28.033Z</time></trkpt><trkpt lat="45.3350973" lon="10.678366"><ele>89.66666666666666</ele><time>2026-03-28T09:28:29.029Z</time></trkpt><trkpt lat="45.3351667" lon="10.6783287"><ele>90.5</ele><time>2026-03-28T09:28:30.03Z</time></trkpt><trkpt lat="45.335234" lon="10.6783268"><ele>91.33333333333333</ele><time>2026-03-28T09:28:31.033Z</time></trkpt><trkpt lat="45.3352967" lon="10.6783528"><ele>92.16666666666667</ele><time>2026-03-28T09:28:32.032Z</time></trkpt><trkpt lat="45.3354022" lon="10.6784603"><ele>93.0</ele><time>2026-03-28T09:28:34.034Z</time></trkpt><trkpt lat="45.3354608" lon="10.6785615"><ele>91.4</ele><time>2026-03-28T09:28:35.033Z</time></trkpt><trkpt lat="45.3355297" lon="10.6786725"><ele>89.80000000000001</ele><time>2026-03-28T09:28:36.033Z</time></trkpt><trkpt lat="45.3356023" lon="10.6787867"><ele>88.2</ele><time>2026-03-28T09:28:37.034Z</time></trkpt><trkpt lat="45.335673" lon="10.6789012"><ele>86.6</ele><time>2026-03-28T09:28:38.032Z</time></trkpt><trkpt lat="45.3357448" lon="10.6790173"><ele>85.0</ele><time>2026-03-28T09:28:39.032Z</time></trkpt><trkpt lat="45.3358183" lon="10.6791315"><ele>85.0</ele><time>2026-03-28T09:28:40.032Z</time></trkpt><trkpt lat="45.3358953" lon="10.6792443"><ele>85.0</ele><time>2026-03-28T09:28:41.032Z</time></trkpt><trkpt lat="45.335973" lon="10.679362"><ele>85.0</ele><time>2026-03-28T09:28:42.033Z</time></trkpt><trkpt lat="45.3360523" lon="10.6794862"><ele>85.0</ele><time>2026-03-28T09:28:43.033Z</time></trkpt><trkpt lat="45.336132" lon="10.6796105"><ele>85.0</ele><time>2026-03-28T09:28:44.034Z</time></trkpt><trkpt lat="45.3362127" lon="10.6797375"><ele>85.0</ele><time>2026-03-28T09:28:45.033Z</time></trkpt><trkpt lat="45.3362872" lon="10.6798577"><ele>85.0</ele><time>2026-03-28T09:28:46.034Z</time></trkpt><trkpt lat="45.3363562" lon="10.6799703"><ele>85.0</ele><time>2026-03-28T09:28:47.032Z</time></trkpt><trkpt lat="45.3364252" lon="10.6800795"><ele>85.0</ele><time>2026-03-28T09:28:48.032Z</time></trkpt><trkpt lat="45.3364865" lon="10.6801765"><ele>85.0</ele><time>2026-03-28T09:28:49.032Z</time></trkpt><trkpt lat="45.336546" lon="10.6802698"><ele>85.0</ele><time>2026-03-28T09:28:50.034Z</time></trkpt><trkpt lat="45.3365967" lon="10.6803518"><ele>85.0</ele><time>2026-03-28T09:28:51.031Z</time></trkpt><trkpt lat="45.3366743" lon="10.6804517"><ele>85.0</ele><time>2026-03-28T09:28:53.033Z</time></trkpt><trkpt lat="45.3367525" lon="10.6804263"><ele>85.0</ele><time>2026-03-28T09:28:55.033Z</time></trkpt><trkpt lat="45.3368108" lon="10.6803505"><ele>85.0</ele><time>2026-03-28T09:28:56.032Z</time></trkpt><trkpt lat="45.3368775" lon="10.6802515"><ele>85.0</ele><time>2026-03-28T09:28:57.033Z</time></trkpt><trkpt lat="45.3369658" lon="10.6801312"><ele>85.0</ele><time>2026-03-28T09:28:58.034Z</time></trkpt><trkpt lat="45.3370682" lon="10.6800085"><ele>85.0</ele><time>2026-03-28T09:28:59.034Z</time></trkpt><trkpt lat="45.3371748" lon="10.6798837"><ele>85.0</ele><time>2026-03-28T09:29:00.034Z</time></trkpt><trkpt lat="45.337282" lon="10.6797425"><ele>85.75</ele><time>2026-03-28T09:29:01.033Z</time></trkpt><trkpt lat="45.3373838" lon="10.679605"><ele>86.5</ele><time>2026-03-28T09:29:02.037Z</time></trkpt><trkpt lat="45.337487" lon="10.6794717"><ele>87.25</ele><time>2026-03-28T09:29:03.033Z</time></trkpt><trkpt lat="45.3375962" lon="10.6793433"><ele>88.0</ele><time>2026-03-28T09:29:04.035Z</time></trkpt><trkpt lat="45.3377133" lon="10.6792227"><ele>88.0</ele><time>2026-03-28T09:29:05.035Z</time></trkpt><trkpt lat="45.3378295" lon="10.6791127"><ele>88.0</ele><time>2026-03-28T09:29:06.033Z</time></trkpt><trkpt lat="45.337938" lon="10.6790145"><ele>88.0</ele><time>2026-03-28T09:29:07.032Z</time></trkpt><trkpt lat="45.3380368" lon="10.6789242"><ele>88.0</ele><time>2026-03-28T09:29:08.031Z</time></trkpt><trkpt lat="45.338127" lon="10.678841"><ele>88.0</ele><time>2026-03-28T09:29:09.031Z</time></trkpt><trkpt lat="45.3382085" lon="10.6787647"><ele>88.0</ele><time>2026-03-28T09:29:10.033Z</time></trkpt><trkpt lat="45.3382827" lon="10.6786955"><ele>88.0</ele><time>2026-03-28T09:29:11.035Z</time></trkpt><trkpt lat="45.3383485" lon="10.678631"><ele>88.0</ele><time>2026-03-28T09:29:12.033Z</time></trkpt><trkpt lat="45.3384065" lon="10.6785762"><ele>88.0</ele><time>2026-03-28T09:29:13.031Z</time></trkpt><trkpt lat="45.338499" lon="10.6785462"><ele>88.0</ele><time>2026-03-28T09:29:15.031Z</time></trkpt><trkpt lat="45.3385557" lon="10.6786442"><ele>88.0</ele><time>2026-03-28T09:29:17.031Z</time></trkpt><trkpt lat="45.3385868" lon="10.6787338"><ele>88.0</ele><time>2026-03-28T09:29:18.031Z</time></trkpt><trkpt lat="45.3386297" lon="10.6788513"><ele>88.0</ele><time>2026-03-28T09:29:19.033Z</time></trkpt><trkpt lat="45.338684" lon="10.6789812"><ele>88.0</ele><time>2026-03-28T09:29:20.033Z</time></trkpt><trkpt lat="45.3387398" lon="10.6791008"><ele>88.0</ele><time>2026-03-28T09:29:21.034Z</time></trkpt><trkpt lat="45.3387983" lon="10.6792232"><ele>88.0</ele><time>2026-03-28T09:29:22.035Z</time></trkpt><trkpt lat="45.3388555" lon="10.6793472"><ele>88.0</ele><time>2026-03-28T09:29:23.035Z</time></trkpt><trkpt lat="45.3389088" lon="10.6794663"><ele>88.0</ele><time>2026-03-28T09:29:24.034Z</time></trkpt><trkpt lat="45.33896" lon="10.6795822"><ele>88.0</ele><time>2026-03-28T09:29:25.032Z</time></trkpt><trkpt lat="45.3390107" lon="10.679704"><ele>88.0</ele><time>2026-03-28T09:29:26.033Z</time></trkpt><trkpt lat="45.3390648" lon="10.6798382"><ele>88.4</ele><time>2026-03-28T09:29:27.034Z</time></trkpt><trkpt lat="45.3391188" lon="10.6799713"><ele>88.80000000000001</ele><time>2026-03-28T09:29:28.034Z</time></trkpt><trkpt lat="45.3391663" lon="10.6800958"><ele>89.2</ele><time>2026-03-28T09:29:29.034Z</time></trkpt><trkpt lat="45.3392132" lon="10.6802145"><ele>89.6</ele><time>2026-03-28T09:29:30.034Z</time></trkpt><trkpt lat="45.3392598" lon="10.6803348"><ele>90.0</ele><time>2026-03-28T09:29:31.033Z</time></trkpt><trkpt lat="45.3393053" lon="10.680451"><ele>90.0</ele><time>2026-03-28T09:29:32.033Z</time></trkpt><trkpt lat="45.3393552" lon="10.6805723"><ele>90.0</ele><time>2026-03-28T09:29:33.034Z</time></trkpt><trkpt lat="45.3394087" lon="10.6806953"><ele>90.0</ele><time>2026-03-28T09:29:34.035Z</time></trkpt><trkpt lat="45.3394655" lon="10.680826"><ele>90.0</ele><time>2026-03-28T09:29:35.033Z</time></trkpt><trkpt lat="45.3395248" lon="10.6809662"><ele>90.0</ele><time>2026-03-28T09:29:36.032Z</time></trkpt><trkpt lat="45.339584" lon="10.6811058"><ele>90.2</ele><time>2026-03-28T09:29:37.032Z</time></trkpt><trkpt lat="45.3396397" lon="10.6812372"><ele>90.4</ele><time>2026-03-28T09:29:38.032Z</time></trkpt><trkpt lat="45.3396932" lon="10.6813595"><ele>90.6</ele><time>2026-03-28T09:29:39.032Z</time></trkpt><trkpt lat="45.3397468" lon="10.6814777"><ele>90.8</ele><time>2026-03-28T09:29:40.03Z</time></trkpt><trkpt lat="45.3398017" lon="10.6816067"><ele>91.0</ele><time>2026-03-28T09:29:41.028Z</time></trkpt><trkpt lat="45.3398553" lon="10.6817343"><ele>91.0</ele><time>2026-03-28T09:29:42.03Z</time></trkpt><trkpt lat="45.3399002" lon="10.6818582"><ele>91.0</ele><time>2026-03-28T09:29:43.032Z</time></trkpt><trkpt lat="45.3399345" lon="10.6819687"><ele>91.0</ele><time>2026-03-28T09:29:44.034Z</time></trkpt><trkpt lat="45.339953" lon="10.6820767"><ele>91.0</ele><time>2026-03-28T09:29:45.034Z</time></trkpt><trkpt lat="45.3399578" lon="10.6821928"><ele>91.0</ele><time>2026-03-28T09:29:46.035Z</time></trkpt><trkpt lat="45.3399542" lon="10.6823242"><ele>91.0</ele><time>2026-03-28T09:29:47.032Z</time></trkpt><trkpt lat="45.3399555" lon="10.6824682"><ele>91.0</ele><time>2026-03-28T09:29:48.032Z</time></trkpt><trkpt lat="45.3399675" lon="10.6826092"><ele>91.0</ele><time>2026-03-28T09:29:49.033Z</time></trkpt><trkpt lat="45.339986" lon="10.6827443"><ele>91.0</ele><time>2026-03-28T09:29:50.037Z</time></trkpt><trkpt lat="45.3400123" lon="10.6828703"><ele>91.0</ele><time>2026-03-28T09:29:51.035Z</time></trkpt><trkpt lat="45.3400415" lon="10.6829727"><ele>91.0</ele><time>2026-03-28T09:29:52.039Z</time></trkpt><trkpt lat="45.3400708" lon="10.6830648"><ele>91.0</ele><time>2026-03-28T09:29:53.035Z</time></trkpt><trkpt lat="45.3401042" lon="10.6831637"><ele>91.19999999999999</ele><time>2026-03-28T09:29:54.034Z</time></trkpt><trkpt lat="45.3401437" lon="10.683273"><ele>91.39999999999999</ele><time>2026-03-28T09:29:55.034Z</time></trkpt><trkpt lat="45.3401885" lon="10.6833972"><ele>91.6</ele><time>2026-03-28T09:29:56.033Z</time></trkpt><trkpt lat="45.3402322" lon="10.6835257"><ele>91.8</ele><time>2026-03-28T09:29:57.033Z</time></trkpt><trkpt lat="45.3402738" lon="10.6836535"><ele>92.0</ele><time>2026-03-28T09:29:58.033Z</time></trkpt><trkpt lat="45.3403113" lon="10.6837698"><ele>91.66666666666667</ele><time>2026-03-28T09:29:59.033Z</time></trkpt><trkpt lat="45.340343" lon="10.6838752"><ele>91.33333333333334</ele><time>2026-03-28T09:30:00.032Z</time></trkpt><trkpt lat="45.3403757" lon="10.6839787"><ele>91.0</ele><time>2026-03-28T09:30:01.032Z</time></trkpt><trkpt lat="45.3404098" lon="10.684085"><ele>90.66666666666667</ele><time>2026-03-28T09:30:02.033Z</time></trkpt><trkpt lat="45.3404388" lon="10.6841963"><ele>90.33333333333333</ele><time>2026-03-28T09:30:03.033Z</time></trkpt><trkpt lat="45.340467" lon="10.6843238"><ele>90.0</ele><time>2026-03-28T09:30:04.032Z</time></trkpt><trkpt lat="45.3404903" lon="10.6844682"><ele>90.0</ele><time>2026-03-28T09:30:05.032Z</time></trkpt><trkpt lat="45.3405095" lon="10.6846123"><ele>90.0</ele><time>2026-03-28T09:30:06.031Z</time></trkpt><trkpt lat="45.3405285" lon="10.6847653"><ele>90.0</ele><time>2026-03-28T09:30:07.03Z</time></trkpt><trkpt lat="45.3405505" lon="10.6849265"><ele>90.0</ele><time>2026-03-28T09:30:08.031Z</time></trkpt><trkpt lat="45.3405753" lon="10.685089"><ele>90.0</ele><time>2026-03-28T09:30:09.032Z</time></trkpt><trkpt lat="45.3405997" lon="10.6852412"><ele>90.2</ele><time>2026-03-28T09:30:10.032Z</time></trkpt><trkpt lat="45.3406248" lon="10.6853813"><ele>90.4</ele><time>2026-03-28T09:30:11.032Z</time></trkpt><trkpt lat="45.3406493" lon="10.6855122"><ele>90.6</ele><time>2026-03-28T09:30:12.032Z</time></trkpt><trkpt lat="45.3406732" lon="10.6856468"><ele>90.8</ele><time>2026-03-28T09:30:13.035Z</time></trkpt><trkpt lat="45.3406967" lon="10.6857733"><ele>91.0</ele><time>2026-03-28T09:30:14.032Z</time></trkpt><trkpt lat="45.340723" lon="10.6858938"><ele>91.0</ele><time>2026-03-28T09:30:15.032Z</time></trkpt><trkpt lat="45.3407477" lon="10.686012"><ele>91.0</ele><time>2026-03-28T09:30:16.03Z</time></trkpt><trkpt lat="45.3407738" lon="10.6861305"><ele>91.0</ele><time>2026-03-28T09:30:17.032Z</time></trkpt><trkpt lat="45.3408017" lon="10.6862598"><ele>91.0</ele><time>2026-03-28T09:30:18.032Z</time></trkpt><trkpt lat="45.3408368" lon="10.6863998"><ele>91.0</ele><time>2026-03-28T09:30:19.03Z</time></trkpt><trkpt lat="45.3408712" lon="10.6865435"><ele>91.0</ele><time>2026-03-28T09:30:20.031Z</time></trkpt><trkpt lat="45.3408995" lon="10.686692"><ele>91.0</ele><time>2026-03-28T09:30:21.031Z</time></trkpt><trkpt lat="45.3409178" lon="10.6868385"><ele>91.0</ele><time>2026-03-28T09:30:22.03Z</time></trkpt><trkpt lat="45.3409257" lon="10.686972"><ele>91.0</ele><time>2026-03-28T09:30:23.032Z</time></trkpt><trkpt lat="45.3409257" lon="10.687103"><ele>91.0</ele><time>2026-03-28T09:30:24.034Z</time></trkpt><trkpt lat="45.3409352" lon="10.687239"><ele>91.0</ele><time>2026-03-28T09:30:25.032Z</time></trkpt><trkpt lat="45.3409523" lon="10.687384"><ele>91.0</ele><time>2026-03-28T09:30:26.032Z</time></trkpt><trkpt lat="45.340977" lon="10.6875378"><ele>91.0</ele><time>2026-03-28T09:30:27.05Z</time></trkpt><trkpt lat="45.3410067" lon="10.6876895"><ele>91.0</ele><time>2026-03-28T09:30:28.033Z</time></trkpt><trkpt lat="45.3410362" lon="10.6878387"><ele>91.0</ele><time>2026-03-28T09:30:29.03Z</time></trkpt><trkpt lat="45.3410643" lon="10.6879818"><ele>91.0</ele><time>2026-03-28T09:30:30.029Z</time></trkpt><trkpt lat="45.3410898" lon="10.6881233"><ele>91.0</ele><time>2026-03-28T09:30:31.029Z</time></trkpt><trkpt lat="45.3411165" lon="10.688279"><ele>91.0</ele><time>2026-03-28T09:30:32.031Z</time></trkpt><trkpt lat="45.3411533" lon="10.6884368"><ele>91.0</ele><time>2026-03-28T09:30:33.032Z</time></trkpt><trkpt lat="45.3411925" lon="10.6886028"><ele>91.25</ele><time>2026-03-28T09:30:34.036Z</time></trkpt><trkpt lat="45.3412345" lon="10.6887733"><ele>91.5</ele><time>2026-03-28T09:30:35.035Z</time></trkpt><trkpt lat="45.3412785" lon="10.68895"><ele>91.75</ele><time>2026-03-28T09:30:36.035Z</time></trkpt><trkpt lat="45.3413273" lon="10.6891435"><ele>92.0</ele><time>2026-03-28T09:30:37.033Z</time></trkpt><trkpt lat="45.3413777" lon="10.6893353"><ele>91.75</ele><time>2026-03-28T09:30:38.033Z</time></trkpt><trkpt lat="45.3414262" lon="10.6895158"><ele>91.5</ele><time>2026-03-28T09:30:39.033Z</time></trkpt><trkpt lat="45.34147" lon="10.689669"><ele>91.25</ele><time>2026-03-28T09:30:40.032Z</time></trkpt><trkpt lat="45.3415162" lon="10.689801"><ele>91.0</ele><time>2026-03-28T09:30:41.035Z</time></trkpt><trkpt lat="45.3415647" lon="10.6899222"><ele>91.0</ele><time>2026-03-28T09:30:42.035Z</time></trkpt><trkpt lat="45.3416143" lon="10.6900617"><ele>91.0</ele><time>2026-03-28T09:30:43.035Z</time></trkpt><trkpt lat="45.3416682" lon="10.6902328"><ele>91.0</ele><time>2026-03-28T09:30:44.034Z</time></trkpt><trkpt lat="45.3417275" lon="10.6904168"><ele>91.0</ele><time>2026-03-28T09:30:45.034Z</time></trkpt><trkpt lat="45.3417935" lon="10.6906065"><ele>91.25</ele><time>2026-03-28T09:30:46.035Z</time></trkpt><trkpt lat="45.3418573" lon="10.6907822"><ele>91.5</ele><time>2026-03-28T09:30:47.035Z</time></trkpt><trkpt lat="45.341907" lon="10.6909527"><ele>91.75</ele><time>2026-03-28T09:30:48.034Z</time></trkpt><trkpt lat="45.3419393" lon="10.6911327"><ele>92.0</ele><time>2026-03-28T09:30:49.033Z</time></trkpt><trkpt lat="45.3419578" lon="10.691325"><ele>92.25</ele><time>2026-03-28T09:30:50.033Z</time></trkpt><trkpt lat="45.3419657" lon="10.6915153"><ele>92.5</ele><time>2026-03-28T09:30:51.033Z</time></trkpt><trkpt lat="45.3419643" lon="10.6916918"><ele>92.75</ele><time>2026-03-28T09:30:52.033Z</time></trkpt><trkpt lat="45.3419642" lon="10.6918762"><ele>93.0</ele><time>2026-03-28T09:30:53.035Z</time></trkpt><trkpt lat="45.3419698" lon="10.6920583"><ele>93.25</ele><time>2026-03-28T09:30:54.034Z</time></trkpt><trkpt lat="45.3419795" lon="10.692226"><ele>93.5</ele><time>2026-03-28T09:30:55.032Z</time></trkpt><trkpt lat="45.3419913" lon="10.6923912"><ele>93.75</ele><time>2026-03-28T09:30:56.032Z</time></trkpt><trkpt lat="45.3420122" lon="10.69256"><ele>94.0</ele><time>2026-03-28T09:30:57.033Z</time></trkpt><trkpt lat="45.3420423" lon="10.6927223"><ele>94.25</ele><time>2026-03-28T09:30:58.035Z</time></trkpt><trkpt lat="45.3420838" lon="10.6928808"><ele>94.5</ele><time>2026-03-28T09:30:59.033Z</time></trkpt><trkpt lat="45.3421347" lon="10.6930487"><ele>94.75</ele><time>2026-03-28T09:31:00.032Z</time></trkpt><trkpt lat="45.3421855" lon="10.693225"><ele>95.0</ele><time>2026-03-28T09:31:01.032Z</time></trkpt><trkpt lat="45.3422338" lon="10.6934028"><ele>96.5</ele><time>2026-03-28T09:31:02.034Z</time></trkpt><trkpt lat="45.3422808" lon="10.6935673"><ele>98.0</ele><time>2026-03-28T09:31:03.035Z</time></trkpt><trkpt lat="45.3423272" lon="10.693725"><ele>99.5</ele><time>2026-03-28T09:31:04.033Z</time></trkpt><trkpt lat="45.3423753" lon="10.6938793"><ele>101.0</ele><time>2026-03-28T09:31:05.032Z</time></trkpt><trkpt lat="45.3424205" lon="10.6940067"><ele>101.0</ele><time>2026-03-28T09:31:06.032Z</time></trkpt><trkpt lat="45.3424633" lon="10.6941373"><ele>101.0</ele><time>2026-03-28T09:31:07.033Z</time></trkpt><trkpt lat="45.3425108" lon="10.6942807"><ele>101.0</ele><time>2026-03-28T09:31:08.033Z</time></trkpt><trkpt lat="45.3425588" lon="10.694446"><ele>101.0</ele><time>2026-03-28T09:31:09.034Z</time></trkpt><trkpt lat="45.3425983" lon="10.694645"><ele>100.66666666666666</ele><time>2026-03-28T09:31:10.035Z</time></trkpt><trkpt lat="45.3426317" lon="10.6948603"><ele>100.33333333333334</ele><time>2026-03-28T09:31:11.035Z</time></trkpt><trkpt lat="45.3426672" lon="10.6950735"><ele>100.0</ele><time>2026-03-28T09:31:12.031Z</time></trkpt><trkpt lat="45.3427015" lon="10.6952815"><ele>99.75</ele><time>2026-03-28T09:31:13.035Z</time></trkpt><trkpt lat="45.3427327" lon="10.6954833"><ele>99.5</ele><time>2026-03-28T09:31:14.033Z</time></trkpt><trkpt lat="45.3427603" lon="10.6956735"><ele>99.25</ele><time>2026-03-28T09:31:15.032Z</time></trkpt><trkpt lat="45.3427833" lon="10.6958532"><ele>99.0</ele><time>2026-03-28T09:31:16.033Z</time></trkpt><trkpt lat="45.3428013" lon="10.696023"><ele>98.75</ele><time>2026-03-28T09:31:17.032Z</time></trkpt><trkpt lat="45.3428203" lon="10.6961818"><ele>98.5</ele><time>2026-03-28T09:31:18.031Z</time></trkpt><trkpt lat="45.3428467" lon="10.6963477"><ele>98.25</ele><time>2026-03-28T09:31:19.031Z</time></trkpt><trkpt lat="45.3428893" lon="10.6965307"><ele>98.0</ele><time>2026-03-28T09:31:20.032Z</time></trkpt><trkpt lat="45.3429587" lon="10.6967437"><ele>98.0</ele><time>2026-03-28T09:31:21.03Z</time></trkpt><trkpt lat="45.343046" lon="10.6969903"><ele>98.0</ele><time>2026-03-28T09:31:22.033Z</time></trkpt><trkpt lat="45.3431445" lon="10.6972755"><ele>98.0</ele><time>2026-03-28T09:31:23.033Z</time></trkpt><trkpt lat="45.3432438" lon="10.6975625"><ele>98.33333333333333</ele><time>2026-03-28T09:31:24.032Z</time></trkpt><trkpt lat="45.3433287" lon="10.6978295"><ele>98.66666666666666</ele><time>2026-03-28T09:31:25.032Z</time></trkpt><trkpt lat="45.3434072" lon="10.6980772"><ele>99.0</ele><time>2026-03-28T09:31:26.032Z</time></trkpt><trkpt lat="45.3435002" lon="10.698313"><ele>99.0</ele><time>2026-03-28T09:31:27.033Z</time></trkpt><trkpt lat="45.3436177" lon="10.6985313"><ele>99.0</ele><time>2026-03-28T09:31:28.034Z</time></trkpt><trkpt lat="45.3437438" lon="10.698742"><ele>99.0</ele><time>2026-03-28T09:31:29.031Z</time></trkpt><trkpt lat="45.3438653" lon="10.6989625"><ele>99.0</ele><time>2026-03-28T09:31:30.032Z</time></trkpt><trkpt lat="45.3439723" lon="10.6991813"><ele>99.0</ele><time>2026-03-28T09:31:31.035Z</time></trkpt><trkpt lat="45.3440768" lon="10.6994143"><ele>99.0</ele><time>2026-03-28T09:31:32.036Z</time></trkpt><trkpt lat="45.3441847" lon="10.699669"><ele>98.0</ele><time>2026-03-28T09:31:33.033Z</time></trkpt><trkpt lat="45.3442788" lon="10.6999135"><ele>97.0</ele><time>2026-03-28T09:31:34.034Z</time></trkpt><trkpt lat="45.3443598" lon="10.7001312"><ele>96.0</ele><time>2026-03-28T09:31:35.034Z</time></trkpt><trkpt lat="45.3444348" lon="10.7003267"><ele>96.0</ele><time>2026-03-28T09:31:36.034Z</time></trkpt><trkpt lat="45.344506" lon="10.7005068"><ele>96.0</ele><time>2026-03-28T09:31:37.034Z</time></trkpt><trkpt lat="45.3445772" lon="10.7006825"><ele>96.0</ele><time>2026-03-28T09:31:38.034Z</time></trkpt><trkpt lat="45.3446435" lon="10.7008475"><ele>96.0</ele><time>2026-03-28T09:31:39.032Z</time></trkpt><trkpt lat="45.3447022" lon="10.7009933"><ele>96.0</ele><time>2026-03-28T09:31:40.034Z</time></trkpt><trkpt lat="45.3447485" lon="10.701112"><ele>96.0</ele><time>2026-03-28T09:31:41.035Z</time></trkpt><trkpt lat="45.3447858" lon="10.701209"><ele>96.0</ele><time>2026-03-28T09:31:42.032Z</time></trkpt><trkpt lat="45.3448358" lon="10.7013393"><ele>96.0</ele><time>2026-03-28T09:31:44.032Z</time></trkpt><trkpt lat="45.3449132" lon="10.7013655"><ele>96.0</ele><time>2026-03-28T09:31:48.034Z</time></trkpt><trkpt lat="45.3449688" lon="10.7012763"><ele>96.0</ele><time>2026-03-28T09:31:49.032Z</time></trkpt><trkpt lat="45.3450365" lon="10.701133"><ele>96.33333333333334</ele><time>2026-03-28T09:31:50.032Z</time></trkpt><trkpt lat="45.3451202" lon="10.7009397"><ele>96.66666666666667</ele><time>2026-03-28T09:31:51.031Z</time></trkpt><trkpt lat="45.34522" lon="10.700708"><ele>97.0</ele><time>2026-03-28T09:31:52.034Z</time></trkpt><trkpt lat="45.3453325" lon="10.7004577"><ele>98.33333333333334</ele><time>2026-03-28T09:31:53.034Z</time></trkpt><trkpt lat="45.3454598" lon="10.7002032"><ele>99.66666666666666</ele><time>2026-03-28T09:31:54.033Z</time></trkpt><trkpt lat="45.3455863" lon="10.6999788"><ele>101.0</ele><time>2026-03-28T09:31:55.033Z</time></trkpt><trkpt lat="45.345712" lon="10.6997708"><ele>103.66666666666666</ele><time>2026-03-28T09:31:56.032Z</time></trkpt><trkpt lat="45.3458302" lon="10.6995762"><ele>106.33333333333334</ele><time>2026-03-28T09:31:57.032Z</time></trkpt><trkpt lat="45.34594" lon="10.699389"><ele>109.0</ele><time>2026-03-28T09:31:58.033Z</time></trkpt><trkpt lat="45.3460348" lon="10.6992065"><ele>109.5</ele><time>2026-03-28T09:31:59.031Z</time></trkpt><trkpt lat="45.346113" lon="10.6990262"><ele>110.0</ele><time>2026-03-28T09:32:00.031Z</time></trkpt><trkpt lat="45.3461742" lon="10.698848"><ele>110.5</ele><time>2026-03-28T09:32:01.031Z</time></trkpt><trkpt lat="45.3462297" lon="10.6986597"><ele>111.0</ele><time>2026-03-28T09:32:02.03Z</time></trkpt><trkpt lat="45.3462822" lon="10.6984592"><ele>109.66666666666666</ele><time>2026-03-28T09:32:03.03Z</time></trkpt><trkpt lat="45.3463462" lon="10.6982492"><ele>108.33333333333333</ele><time>2026-03-28T09:32:04.031Z</time></trkpt><trkpt lat="45.3464242" lon="10.6980355"><ele>107.0</ele><time>2026-03-28T09:32:05.034Z</time></trkpt><trkpt lat="45.3465215" lon="10.6978132"><ele>105.0</ele><time>2026-03-28T09:32:06.03Z</time></trkpt><trkpt lat="45.3466358" lon="10.6975927"><ele>103.0</ele><time>2026-03-28T09:32:07.028Z</time></trkpt><trkpt lat="45.3467548" lon="10.6973827"><ele>101.0</ele><time>2026-03-28T09:32:08.031Z</time></trkpt><trkpt lat="45.3468723" lon="10.6971935"><ele>101.0</ele><time>2026-03-28T09:32:09.029Z</time></trkpt><trkpt lat="45.3469895" lon="10.6970255"><ele>101.0</ele><time>2026-03-28T09:32:10.029Z</time></trkpt><trkpt lat="45.3471115" lon="10.6968793"><ele>101.0</ele><time>2026-03-28T09:32:11.03Z</time></trkpt><trkpt lat="45.3472472" lon="10.6967593"><ele>100.33333333333333</ele><time>2026-03-28T09:32:12.032Z</time></trkpt><trkpt lat="45.3473993" lon="10.6966635"><ele>99.66666666666666</ele><time>2026-03-28T09:32:13.034Z</time></trkpt><trkpt lat="45.3475567" lon="10.6965782"><ele>99.0</ele><time>2026-03-28T09:32:14.04Z</time></trkpt><trkpt lat="45.3477" lon="10.6964892"><ele>99.0</ele><time>2026-03-28T09:32:15.035Z</time></trkpt><trkpt lat="45.3478272" lon="10.6963942"><ele>99.0</ele><time>2026-03-28T09:32:16.035Z</time></trkpt><trkpt lat="45.3479385" lon="10.6963012"><ele>99.0</ele><time>2026-03-28T09:32:17.033Z</time></trkpt><trkpt lat="45.3480433" lon="10.6962232"><ele>99.0</ele><time>2026-03-28T09:32:18.032Z</time></trkpt><trkpt lat="45.3481515" lon="10.6961732"><ele>98.33333333333334</ele><time>2026-03-28T09:32:19.031Z</time></trkpt><trkpt lat="45.3482582" lon="10.6961535"><ele>97.66666666666667</ele><time>2026-03-28T09:32:20.033Z</time></trkpt><trkpt lat="45.3483673" lon="10.6961497"><ele>97.0</ele><time>2026-03-28T09:32:21.033Z</time></trkpt><trkpt lat="45.3486487" lon="10.6961567"><ele>97.0</ele><time>2026-03-28T09:32:23.032Z</time></trkpt><trkpt lat="45.3488157" lon="10.6961603"><ele>97.0</ele><time>2026-03-28T09:32:24.035Z</time></trkpt><trkpt lat="45.3489795" lon="10.6961565"><ele>97.0</ele><time>2026-03-28T09:32:25.032Z</time></trkpt><trkpt lat="45.3491255" lon="10.6961575"><ele>96.0</ele><time>2026-03-28T09:32:26.033Z</time></trkpt><trkpt lat="45.3492555" lon="10.6961895"><ele>95.0</ele><time>2026-03-28T09:32:27.031Z</time></trkpt><trkpt lat="45.3493562" lon="10.6962612"><ele>94.0</ele><time>2026-03-28T09:32:28.032Z</time></trkpt><trkpt lat="45.3494268" lon="10.6963787"><ele>93.0</ele><time>2026-03-28T09:32:29.032Z</time></trkpt><trkpt lat="45.3494673" lon="10.696547"><ele>93.0</ele><time>2026-03-28T09:32:30.032Z</time></trkpt><trkpt lat="45.3494775" lon="10.6967547"><ele>93.0</ele><time>2026-03-28T09:32:31.033Z</time></trkpt><trkpt lat="45.349476" lon="10.6969978"><ele>93.0</ele><time>2026-03-28T09:32:32.031Z</time></trkpt><trkpt lat="45.3494832" lon="10.6972668"><ele>93.66666666666667</ele><time>2026-03-28T09:32:33.031Z</time></trkpt><trkpt lat="45.3495033" lon="10.6975453"><ele>94.33333333333334</ele><time>2026-03-28T09:32:34.032Z</time></trkpt><trkpt lat="45.3495253" lon="10.6977857"><ele>95.0</ele><time>2026-03-28T09:32:35.032Z</time></trkpt><trkpt lat="45.349547" lon="10.6979807"><ele>95.25</ele><time>2026-03-28T09:32:36.034Z</time></trkpt><trkpt lat="45.3495717" lon="10.6981633"><ele>95.5</ele><time>2026-03-28T09:32:37.033Z</time></trkpt><trkpt lat="45.349592" lon="10.6983643"><ele>95.75</ele><time>2026-03-28T09:32:38.036Z</time></trkpt><trkpt lat="45.349601" lon="10.6985962"><ele>96.0</ele><time>2026-03-28T09:32:39.032Z</time></trkpt><trkpt lat="45.3496048" lon="10.698841"><ele>96.33333333333334</ele><time>2026-03-28T09:32:40.033Z</time></trkpt><trkpt lat="45.3496087" lon="10.699084"><ele>96.66666666666667</ele><time>2026-03-28T09:32:41.034Z</time></trkpt><trkpt lat="45.3496127" lon="10.6993263"><ele>97.0</ele><time>2026-03-28T09:32:42.033Z</time></trkpt><trkpt lat="45.3496142" lon="10.6995682"><ele>97.0</ele><time>2026-03-28T09:32:43.032Z</time></trkpt><trkpt lat="45.3496073" lon="10.6998082"><ele>97.0</ele><time>2026-03-28T09:32:44.032Z</time></trkpt><trkpt lat="45.349585" lon="10.7000503"><ele>97.0</ele><time>2026-03-28T09:32:45.037Z</time></trkpt><trkpt lat="45.3495573" lon="10.7002885"><ele>96.0</ele><time>2026-03-28T09:32:46.031Z</time></trkpt><trkpt lat="45.3495343" lon="10.7005182"><ele>95.0</ele><time>2026-03-28T09:32:47.034Z</time></trkpt><trkpt lat="45.3495155" lon="10.700745"><ele>94.0</ele><time>2026-03-28T09:32:48.033Z</time></trkpt><trkpt lat="45.349496" lon="10.700965"><ele>93.75</ele><time>2026-03-28T09:32:49.03Z</time></trkpt><trkpt lat="45.349478" lon="10.7011662"><ele>93.5</ele><time>2026-03-28T09:32:50.031Z</time></trkpt><trkpt lat="45.3494648" lon="10.7013622"><ele>93.25</ele><time>2026-03-28T09:32:51.032Z</time></trkpt><trkpt lat="45.349453" lon="10.701562"><ele>93.0</ele><time>2026-03-28T09:32:52.03Z</time></trkpt><trkpt lat="45.3494567" lon="10.7017795"><ele>92.33333333333333</ele><time>2026-03-28T09:32:53.03Z</time></trkpt><trkpt lat="45.349473" lon="10.7020157"><ele>91.66666666666666</ele><time>2026-03-28T09:32:54.029Z</time></trkpt><trkpt lat="45.3494958" lon="10.7022783"><ele>91.0</ele><time>2026-03-28T09:32:55.029Z</time></trkpt><trkpt lat="45.349513" lon="10.7025545"><ele>89.66666666666666</ele><time>2026-03-28T09:32:56.031Z</time></trkpt><trkpt lat="45.3495275" lon="10.702847"><ele>88.33333333333333</ele><time>2026-03-28T09:32:57.027Z</time></trkpt><trkpt lat="45.3495423" lon="10.7031303"><ele>87.0</ele><time>2026-03-28T09:32:58.029Z</time></trkpt><trkpt lat="45.349555" lon="10.7034013"><ele>86.0</ele><time>2026-03-28T09:32:59.03Z</time></trkpt><trkpt lat="45.3495677" lon="10.703659"><ele>85.0</ele><time>2026-03-28T09:33:00.03Z</time></trkpt><trkpt lat="45.3495738" lon="10.7039053"><ele>84.0</ele><time>2026-03-28T09:33:01.032Z</time></trkpt><trkpt lat="45.3495588" lon="10.7041415"><ele>84.0</ele><time>2026-03-28T09:33:02.032Z</time></trkpt><trkpt lat="45.3495245" lon="10.704362"><ele>84.0</ele><time>2026-03-28T09:33:03.031Z</time></trkpt><trkpt lat="45.3494917" lon="10.7045757"><ele>84.0</ele><time>2026-03-28T09:33:04.031Z</time></trkpt><trkpt lat="45.3494788" lon="10.7047978"><ele>84.0</ele><time>2026-03-28T09:33:05.03Z</time></trkpt><trkpt lat="45.3494883" lon="10.7050282"><ele>84.0</ele><time>2026-03-28T09:33:06.03Z</time></trkpt><trkpt lat="45.3495262" lon="10.7052445"><ele>84.0</ele><time>2026-03-28T09:33:07.03Z</time></trkpt><trkpt lat="45.3495957" lon="10.7054503"><ele>84.66666666666667</ele><time>2026-03-28T09:33:08.034Z</time></trkpt><trkpt lat="45.349698" lon="10.7056592"><ele>85.33333333333334</ele><time>2026-03-28T09:33:09.03Z</time></trkpt><trkpt lat="45.3498152" lon="10.7058795"><ele>86.0</ele><time>2026-03-28T09:33:10.032Z</time></trkpt><trkpt lat="45.3499355" lon="10.7061102"><ele>79.33333333333334</ele><time>2026-03-28T09:33:11.033Z</time></trkpt><trkpt lat="45.3500537" lon="10.706337"><ele>72.66666666666667</ele><time>2026-03-28T09:33:12.033Z</time></trkpt><trkpt lat="45.35017" lon="10.7065693"><ele>66.0</ele><time>2026-03-28T09:33:13.034Z</time></trkpt><trkpt lat="45.3502813" lon="10.7068165"><ele>66.0</ele><time>2026-03-28T09:33:14.031Z</time></trkpt><trkpt lat="45.3503885" lon="10.7070823"><ele>66.0</ele><time>2026-03-28T09:33:15.033Z</time></trkpt><trkpt lat="45.3504955" lon="10.7073555"><ele>66.0</ele><time>2026-03-28T09:33:16.034Z</time></trkpt><trkpt lat="45.3506018" lon="10.7076237"><ele>67.66666666666667</ele><time>2026-03-28T09:33:17.032Z</time></trkpt><trkpt lat="45.350708" lon="10.7078793"><ele>69.33333333333334</ele><time>2026-03-28T09:33:18.03Z</time></trkpt><trkpt lat="45.3508135" lon="10.7081278"><ele>71.0</ele><time>2026-03-28T09:33:19.032Z</time></trkpt><trkpt lat="45.3509113" lon="10.7083705"><ele>70.33333333333334</ele><time>2026-03-28T09:33:20.03Z</time></trkpt><trkpt lat="45.3509953" lon="10.7086018"><ele>69.66666666666667</ele><time>2026-03-28T09:33:21.03Z</time></trkpt><trkpt lat="45.3510705" lon="10.7088332"><ele>69.0</ele><time>2026-03-28T09:33:22.03Z</time></trkpt><trkpt lat="45.3511458" lon="10.70907"><ele>69.0</ele><time>2026-03-28T09:33:23.031Z</time></trkpt><trkpt lat="45.3512218" lon="10.7093162"><ele>69.0</ele><time>2026-03-28T09:33:24.03Z</time></trkpt><trkpt lat="45.3512982" lon="10.7095677"><ele>69.0</ele><time>2026-03-28T09:33:25.031Z</time></trkpt><trkpt lat="45.351369" lon="10.7098127"><ele>68.0</ele><time>2026-03-28T09:33:26.033Z</time></trkpt><trkpt lat="45.3514512" lon="10.7100647"><ele>67.0</ele><time>2026-03-28T09:33:27.03Z</time></trkpt><trkpt lat="45.3515527" lon="10.7103293"><ele>66.0</ele><time>2026-03-28T09:33:28.033Z</time></trkpt><trkpt lat="45.351666" lon="10.7105912"><ele>66.0</ele><time>2026-03-28T09:33:29.031Z</time></trkpt><trkpt lat="45.3517852" lon="10.7108328"><ele>66.0</ele><time>2026-03-28T09:33:30.031Z</time></trkpt><trkpt lat="45.3519285" lon="10.7111045"><ele>66.0</ele><time>2026-03-28T09:33:31.232Z</time></trkpt><trkpt lat="45.3521267" lon="10.7114482"><ele>66.25</ele><time>2026-03-28T09:33:33.033Z</time></trkpt><trkpt lat="45.3522262" lon="10.7116075"><ele>66.5</ele><time>2026-03-28T09:33:34.032Z</time></trkpt><trkpt lat="45.3523125" lon="10.7117455"><ele>66.75</ele><time>2026-03-28T09:33:35.032Z</time></trkpt><trkpt lat="45.3523847" lon="10.7118588"><ele>67.0</ele><time>2026-03-28T09:33:36.031Z</time></trkpt><trkpt lat="45.3524472" lon="10.7119567"><ele>67.0</ele><time>2026-03-28T09:33:37.032Z</time></trkpt><trkpt lat="45.3524977" lon="10.7120415"><ele>67.0</ele><time>2026-03-28T09:33:38.031Z</time></trkpt><trkpt lat="45.352539" lon="10.7121175"><ele>67.0</ele><time>2026-03-28T09:33:39.031Z</time></trkpt><trkpt lat="45.3525797" lon="10.7122078"><ele>67.0</ele><time>2026-03-28T09:33:40.033Z</time></trkpt><trkpt lat="45.3526282" lon="10.7123228"><ele>67.0</ele><time>2026-03-28T09:33:41.034Z</time></trkpt><trkpt lat="45.3526915" lon="10.7124493"><ele>67.0</ele><time>2026-03-28T09:33:42.032Z</time></trkpt><trkpt lat="45.3527697" lon="10.712587"><ele>65.33333333333333</ele><time>2026-03-28T09:33:43.032Z</time></trkpt><trkpt lat="45.3528622" lon="10.7127482"><ele>63.66666666666667</ele><time>2026-03-28T09:33:44.031Z</time></trkpt><trkpt lat="45.352963" lon="10.7129243"><ele>62.0</ele><time>2026-03-28T09:33:45.029Z</time></trkpt><trkpt lat="45.353078" lon="10.7131145"><ele>64.0</ele><time>2026-03-28T09:33:46.031Z</time></trkpt><trkpt lat="45.353196" lon="10.713319"><ele>66.0</ele><time>2026-03-28T09:33:47.029Z</time></trkpt><trkpt lat="45.3533018" lon="10.713514"><ele>68.0</ele><time>2026-03-28T09:33:48.029Z</time></trkpt><trkpt lat="45.3533942" lon="10.7136843"><ele>68.0</ele><time>2026-03-28T09:33:49.032Z</time></trkpt><trkpt lat="45.35348" lon="10.7138383"><ele>68.0</ele><time>2026-03-28T09:33:50.031Z</time></trkpt><trkpt lat="45.3535547" lon="10.7139952"><ele>68.0</ele><time>2026-03-28T09:33:51.03Z</time></trkpt><trkpt lat="45.3536163" lon="10.7141673"><ele>68.0</ele><time>2026-03-28T09:33:52.031Z</time></trkpt><trkpt lat="45.3536605" lon="10.7143468"><ele>67.5</ele><time>2026-03-28T09:33:53.029Z</time></trkpt><trkpt lat="45.353693" lon="10.7145345"><ele>67.0</ele><time>2026-03-28T09:33:54.03Z</time></trkpt><trkpt lat="45.3537177" lon="10.7147272"><ele>66.5</ele><time>2026-03-28T09:33:55.029Z</time></trkpt><trkpt lat="45.353742" lon="10.7149272"><ele>66.0</ele><time>2026-03-28T09:33:56.031Z</time></trkpt><trkpt lat="45.3537623" lon="10.7151387"><ele>65.0</ele><time>2026-03-28T09:33:57.033Z</time></trkpt><trkpt lat="45.3537817" lon="10.7153697"><ele>64.0</ele><time>2026-03-28T09:33:58.03Z</time></trkpt><trkpt lat="45.3537922" lon="10.7156333"><ele>63.0</ele><time>2026-03-28T09:33:59.03Z</time></trkpt><trkpt lat="45.3537802" lon="10.7159075"><ele>62.66666666666667</ele><time>2026-03-28T09:34:00.031Z</time></trkpt><trkpt lat="45.3537552" lon="10.7161965"><ele>62.333333333333336</ele><time>2026-03-28T09:34:01.033Z</time></trkpt><trkpt lat="45.3537443" lon="10.716479"><ele>62.0</ele><time>2026-03-28T09:34:02.03Z</time></trkpt><trkpt lat="45.3537588" lon="10.7167595"><ele>61.333333333333336</ele><time>2026-03-28T09:34:03.031Z</time></trkpt><trkpt lat="45.3537993" lon="10.7170263"><ele>60.66666666666667</ele><time>2026-03-28T09:34:04.033Z</time></trkpt><trkpt lat="45.3538613" lon="10.7172808"><ele>60.0</ele><time>2026-03-28T09:34:05.032Z</time></trkpt><trkpt lat="45.3539523" lon="10.7175335"><ele>61.0</ele><time>2026-03-28T09:34:06.032Z</time></trkpt><trkpt lat="45.3540702" lon="10.7177815"><ele>62.0</ele><time>2026-03-28T09:34:07.034Z</time></trkpt><trkpt lat="45.354191" lon="10.718014"><ele>63.0</ele><time>2026-03-28T09:34:08.034Z</time></trkpt><trkpt lat="45.3543023" lon="10.7182258"><ele>63.0</ele><time>2026-03-28T09:34:09.031Z</time></trkpt><trkpt lat="45.3544032" lon="10.7184148"><ele>63.0</ele><time>2026-03-28T09:34:10.029Z</time></trkpt><trkpt lat="45.3544988" lon="10.7185962"><ele>63.0</ele><time>2026-03-28T09:34:11.03Z</time></trkpt><trkpt lat="45.3545917" lon="10.718772"><ele>62.75</ele><time>2026-03-28T09:34:12.029Z</time></trkpt><trkpt lat="45.354682" lon="10.7189423"><ele>62.5</ele><time>2026-03-28T09:34:13.03Z</time></trkpt><trkpt lat="45.3547743" lon="10.7191137"><ele>62.25</ele><time>2026-03-28T09:34:14.034Z</time></trkpt><trkpt lat="45.3548625" lon="10.7192793"><ele>62.0</ele><time>2026-03-28T09:34:15.031Z</time></trkpt><trkpt lat="45.3549472" lon="10.7194408"><ele>62.5</ele><time>2026-03-28T09:34:16.035Z</time></trkpt><trkpt lat="45.355028" lon="10.7195915"><ele>63.0</ele><time>2026-03-28T09:34:17.032Z</time></trkpt><trkpt lat="45.3551063" lon="10.7197322"><ele>63.5</ele><time>2026-03-28T09:34:18.031Z</time></trkpt><trkpt lat="45.3551848" lon="10.7198752"><ele>64.0</ele><time>2026-03-28T09:34:19.031Z</time></trkpt><trkpt lat="45.3552657" lon="10.7200275"><ele>64.0</ele><time>2026-03-28T09:34:20.032Z</time></trkpt><trkpt lat="45.3553475" lon="10.7201835"><ele>64.0</ele><time>2026-03-28T09:34:21.031Z</time></trkpt><trkpt lat="45.355427" lon="10.7203343"><ele>64.0</ele><time>2026-03-28T09:34:22.03Z</time></trkpt><trkpt lat="45.3555035" lon="10.7204795"><ele>64.0</ele><time>2026-03-28T09:34:23.031Z</time></trkpt><trkpt lat="45.3555718" lon="10.7206085"><ele>64.0</ele><time>2026-03-28T09:34:24.031Z</time></trkpt><trkpt lat="45.3556363" lon="10.7207283"><ele>64.0</ele><time>2026-03-28T09:34:25.033Z</time></trkpt><trkpt lat="45.3557015" lon="10.720847"><ele>64.0</ele><time>2026-03-28T09:34:26.032Z</time></trkpt><trkpt lat="45.3557613" lon="10.720955"><ele>64.0</ele><time>2026-03-28T09:34:27.03Z</time></trkpt><trkpt lat="45.355815" lon="10.7210442"><ele>64.0</ele><time>2026-03-28T09:34:28.032Z</time></trkpt><trkpt lat="45.3558678" lon="10.7211207"><ele>63.99999999999999</ele><time>2026-03-28T09:34:29.031Z</time></trkpt><trkpt lat="45.3559267" lon="10.7211918"><ele>64.0</ele><time>2026-03-28T09:34:30.031Z</time></trkpt><trkpt lat="45.355986" lon="10.7212507"><ele>64.0</ele><time>2026-03-28T09:34:31.031Z</time></trkpt><trkpt lat="45.3560375" lon="10.7213033"><ele>64.0</ele><time>2026-03-28T09:34:32.031Z</time></trkpt><trkpt lat="45.3560932" lon="10.7214328"><ele>63.99999999999999</ele><time>2026-03-28T09:34:34.027Z</time></trkpt><trkpt lat="45.3560917" lon="10.7215255"><ele>64.0</ele><time>2026-03-28T09:34:35.027Z</time></trkpt><trkpt lat="45.3560587" lon="10.7216375"><ele>64.0</ele><time>2026-03-28T09:34:36.027Z</time></trkpt><trkpt lat="45.3560165" lon="10.7217523"><ele>64.0</ele><time>2026-03-28T09:34:37.032Z</time></trkpt><trkpt lat="45.3559668" lon="10.721886"><ele>64.0</ele><time>2026-03-28T09:34:38.031Z</time></trkpt><trkpt lat="45.3559165" lon="10.7220272"><ele>64.0</ele><time>2026-03-28T09:34:39.031Z</time></trkpt><trkpt lat="45.3558608" lon="10.722194"><ele>64.0</ele><time>2026-03-28T09:34:40.032Z</time></trkpt><trkpt lat="45.3557962" lon="10.7223933"><ele>63.666666666666664</ele><time>2026-03-28T09:34:41.03Z</time></trkpt><trkpt lat="45.3557232" lon="10.722602"><ele>63.33333333333333</ele><time>2026-03-28T09:34:42.031Z</time></trkpt><trkpt lat="45.3556485" lon="10.7228057"><ele>63.0</ele><time>2026-03-28T09:34:43.034Z</time></trkpt><trkpt lat="45.3555762" lon="10.7230062"><ele>62.25</ele><time>2026-03-28T09:34:44.032Z</time></trkpt><trkpt lat="45.3555073" lon="10.7231988"><ele>61.5</ele><time>2026-03-28T09:34:45.031Z</time></trkpt><trkpt lat="45.3554405" lon="10.7233842"><ele>60.75</ele><time>2026-03-28T09:34:46.032Z</time></trkpt><trkpt lat="45.3553758" lon="10.7235615"><ele>60.0</ele><time>2026-03-28T09:34:47.032Z</time></trkpt><trkpt lat="45.3553123" lon="10.7237343"><ele>60.0</ele><time>2026-03-28T09:34:48.034Z</time></trkpt><trkpt lat="45.35525" lon="10.7239065"><ele>60.0</ele><time>2026-03-28T09:34:49.032Z</time></trkpt><trkpt lat="45.355188" lon="10.724082"><ele>60.0</ele><time>2026-03-28T09:34:50.032Z</time></trkpt><trkpt lat="45.3551272" lon="10.7242555"><ele>60.0</ele><time>2026-03-28T09:34:51.031Z</time></trkpt><trkpt lat="45.3550672" lon="10.72442"><ele>60.0</ele><time>2026-03-28T09:34:52.032Z</time></trkpt><trkpt lat="45.3550103" lon="10.724576"><ele>60.0</ele><time>2026-03-28T09:34:53.032Z</time></trkpt><trkpt lat="45.3549585" lon="10.724723"><ele>60.0</ele><time>2026-03-28T09:34:54.032Z</time></trkpt><trkpt lat="45.3549095" lon="10.7248633"><ele>60.0</ele><time>2026-03-28T09:34:55.031Z</time></trkpt><trkpt lat="45.3548588" lon="10.7250088"><ele>60.0</ele><time>2026-03-28T09:34:56.031Z</time></trkpt><trkpt lat="45.3548082" lon="10.725162"><ele>60.0</ele><time>2026-03-28T09:34:57.03Z</time></trkpt><trkpt lat="45.354755" lon="10.725321"><ele>60.0</ele><time>2026-03-28T09:34:58.031Z</time></trkpt><trkpt lat="45.354698" lon="10.7254853"><ele>60.0</ele><time>2026-03-28T09:34:59.03Z</time></trkpt><trkpt lat="45.3546385" lon="10.7256523"><ele>59.75</ele><time>2026-03-28T09:35:00.027Z</time></trkpt><trkpt lat="45.3545743" lon="10.7258268"><ele>59.5</ele><time>2026-03-28T09:35:01.031Z</time></trkpt><trkpt lat="45.354509" lon="10.7260033"><ele>59.25</ele><time>2026-03-28T09:35:02.031Z</time></trkpt><trkpt lat="45.3544455" lon="10.7261823"><ele>59.0</ele><time>2026-03-28T09:35:03.031Z</time></trkpt><trkpt lat="45.3543838" lon="10.726366"><ele>59.0</ele><time>2026-03-28T09:35:04.033Z</time></trkpt><trkpt lat="45.3543198" lon="10.7265678"><ele>59.0</ele><time>2026-03-28T09:35:05.031Z</time></trkpt><trkpt lat="45.3542443" lon="10.7267878"><ele>59.0</ele><time>2026-03-28T09:35:06.031Z</time></trkpt><trkpt lat="45.3541622" lon="10.7270075"><ele>59.333333333333336</ele><time>2026-03-28T09:35:07.033Z</time></trkpt><trkpt lat="45.354082" lon="10.727219"><ele>59.66666666666667</ele><time>2026-03-28T09:35:08.03Z</time></trkpt><trkpt lat="45.3540043" lon="10.7274317"><ele>60.0</ele><time>2026-03-28T09:35:09.031Z</time></trkpt><trkpt lat="45.3539327" lon="10.7276318"><ele>63.2</ele><time>2026-03-28T09:35:10.031Z</time></trkpt><trkpt lat="45.3538665" lon="10.7278147"><ele>66.4</ele><time>2026-03-28T09:35:11.03Z</time></trkpt><trkpt lat="45.3538092" lon="10.727973"><ele>69.6</ele><time>2026-03-28T09:35:12.029Z</time></trkpt><trkpt lat="45.353762" lon="10.7280973"><ele>72.8</ele><time>2026-03-28T09:35:13.032Z</time></trkpt><trkpt lat="45.3537225" lon="10.7281923"><ele>76.0</ele><time>2026-03-28T09:35:14.031Z</time></trkpt><trkpt lat="45.3536763" lon="10.7282677"><ele>76.0</ele><time>2026-03-28T09:35:15.031Z</time></trkpt><trkpt lat="45.3536407" lon="10.7283422"><ele>76.0</ele><time>2026-03-28T09:35:16.032Z</time></trkpt><trkpt lat="45.3536697" lon="10.7285002"><ele>76.0</ele><time>2026-03-28T09:35:18.029Z</time></trkpt><trkpt lat="45.3537325" lon="10.7285628"><ele>76.0</ele><time>2026-03-28T09:35:19.029Z</time></trkpt><trkpt lat="45.353814" lon="10.728625"><ele>76.0</ele><time>2026-03-28T09:35:20.031Z</time></trkpt><trkpt lat="45.3538752" lon="10.728675"><ele>76.0</ele><time>2026-03-28T09:35:21.029Z</time></trkpt><trkpt lat="45.3539253" lon="10.7287388"><ele>77.0</ele><time>2026-03-28T09:35:23.027Z</time></trkpt><trkpt lat="45.3539883" lon="10.7288163"><ele>78.0</ele><time>2026-03-28T09:35:28.03Z</time></trkpt><trkpt lat="45.3540408" lon="10.7287455"><ele>79.0</ele><time>2026-03-28T09:57:03.026Z</time></trkpt><trkpt lat="45.3541585" lon="10.7287933"><ele>80.0</ele><time>2026-03-28T09:57:05.027Z</time></trkpt><trkpt lat="45.3542337" lon="10.7288313"><ele>81.0</ele><time>2026-03-28T09:57:06.029Z</time></trkpt><trkpt lat="45.3543187" lon="10.7288733"><ele>82.0</ele><time>2026-03-28T09:57:07.028Z</time></trkpt><trkpt lat="45.354409" lon="10.7289122"><ele>82.0</ele><time>2026-03-28T09:57:08.031Z</time></trkpt><trkpt lat="45.3545058" lon="10.7289523"><ele>82.0</ele><time>2026-03-28T09:57:09.029Z</time></trkpt><trkpt lat="45.3546127" lon="10.7290097"><ele>82.0</ele><time>2026-03-28T09:57:10.03Z</time></trkpt><trkpt lat="45.354733" lon="10.729074"><ele>82.0</ele><time>2026-03-28T09:57:11.028Z</time></trkpt><trkpt lat="45.3548592" lon="10.7291302"><ele>81.33333333333333</ele><time>2026-03-28T09:57:12.028Z</time></trkpt><trkpt lat="45.3550005" lon="10.7291812"><ele>80.66666666666667</ele><time>2026-03-28T09:57:13.028Z</time></trkpt><trkpt lat="45.3551657" lon="10.7292247"><ele>80.0</ele><time>2026-03-28T09:57:14.029Z</time></trkpt><trkpt lat="45.355327" lon="10.7292593"><ele>80.0</ele><time>2026-03-28T09:57:15.029Z</time></trkpt><trkpt lat="45.3554842" lon="10.7292842"><ele>80.0</ele><time>2026-03-28T09:57:16.029Z</time></trkpt><trkpt lat="45.3556422" lon="10.7293122"><ele>80.0</ele><time>2026-03-28T09:57:17.027Z</time></trkpt><trkpt lat="45.3558002" lon="10.7293415"><ele>79.75</ele><time>2026-03-28T09:57:18.026Z</time></trkpt><trkpt lat="45.3559537" lon="10.7293553"><ele>79.5</ele><time>2026-03-28T09:57:19.028Z</time></trkpt><trkpt lat="45.3560975" lon="10.7293507"><ele>79.25</ele><time>2026-03-28T09:57:20.026Z</time></trkpt><trkpt lat="45.3562207" lon="10.7293305"><ele>79.0</ele><time>2026-03-28T09:57:21.028Z</time></trkpt><trkpt lat="45.3563308" lon="10.7293033"><ele>79.80000000000001</ele><time>2026-03-28T09:57:22.028Z</time></trkpt><trkpt lat="45.3564192" lon="10.7292817"><ele>80.60000000000001</ele><time>2026-03-28T09:57:23.03Z</time></trkpt><trkpt lat="45.3564897" lon="10.7292783"><ele>81.4</ele><time>2026-03-28T09:57:24.028Z</time></trkpt><trkpt lat="45.3565645" lon="10.7293222"><ele>82.2</ele><time>2026-03-28T09:57:26.028Z</time></trkpt><trkpt lat="45.3566375" lon="10.72936"><ele>83.0</ele><time>2026-03-28T09:57:28.025Z</time></trkpt><trkpt lat="45.3567735" lon="10.7293432"><ele>83.0</ele><time>2026-03-28T09:57:30.027Z</time></trkpt><trkpt lat="45.356876" lon="10.7293102"><ele>83.0</ele><time>2026-03-28T09:57:31.028Z</time></trkpt><trkpt lat="45.3569965" lon="10.7292773"><ele>83.0</ele><time>2026-03-28T09:57:32.028Z</time></trkpt><trkpt lat="45.3571333" lon="10.7292527"><ele>83.0</ele><time>2026-03-28T09:57:33.027Z</time></trkpt><trkpt lat="45.3572793" lon="10.729229"><ele>82.0</ele><time>2026-03-28T09:57:34.03Z</time></trkpt><trkpt lat="45.3574323" lon="10.7292132"><ele>81.0</ele><time>2026-03-28T09:57:35.025Z</time></trkpt><trkpt lat="45.357594" lon="10.729217"><ele>80.0</ele><time>2026-03-28T09:57:36.027Z</time></trkpt><trkpt lat="45.3577665" lon="10.7292372"><ele>80.0</ele><time>2026-03-28T09:57:37.031Z</time></trkpt><trkpt lat="45.3579465" lon="10.7292718"><ele>80.0</ele><time>2026-03-28T09:57:38.029Z</time></trkpt><trkpt lat="45.358132" lon="10.7293182"><ele>80.0</ele><time>2026-03-28T09:57:39.029Z</time></trkpt><trkpt lat="45.3583182" lon="10.7293507"><ele>78.33333333333334</ele><time>2026-03-28T09:57:40.029Z</time></trkpt><trkpt lat="45.3584987" lon="10.7293718"><ele>76.66666666666667</ele><time>2026-03-28T09:57:41.029Z</time></trkpt><trkpt lat="45.3586812" lon="10.7293827"><ele>75.0</ele><time>2026-03-28T09:57:42.029Z</time></trkpt><trkpt lat="45.3588755" lon="10.729379"><ele>74.0</ele><time>2026-03-28T09:57:43.029Z</time></trkpt><trkpt lat="45.3590805" lon="10.7293673"><ele>73.0</ele><time>2026-03-28T09:57:44.027Z</time></trkpt><trkpt lat="45.3592955" lon="10.72935"><ele>72.0</ele><time>2026-03-28T09:57:45.028Z</time></trkpt><trkpt lat="45.3595227" lon="10.7293355"><ele>71.0</ele><time>2026-03-28T09:57:46.029Z</time></trkpt><trkpt lat="45.3597632" lon="10.729324"><ele>70.0</ele><time>2026-03-28T09:57:47.027Z</time></trkpt><trkpt lat="45.3599972" lon="10.7293223"><ele>70.0</ele><time>2026-03-28T09:57:48.028Z</time></trkpt><trkpt lat="45.360227" lon="10.7293187"><ele>70.0</ele><time>2026-03-28T09:57:49.029Z</time></trkpt><trkpt lat="45.3604538" lon="10.729307"><ele>70.0</ele><time>2026-03-28T09:57:50.029Z</time></trkpt><trkpt lat="45.3606765" lon="10.7292953"><ele>70.0</ele><time>2026-03-28T09:57:51.026Z</time></trkpt><trkpt lat="45.360898" lon="10.729286"><ele>70.0</ele><time>2026-03-28T09:57:52.028Z</time></trkpt><trkpt lat="45.361116" lon="10.7292783"><ele>70.0</ele><time>2026-03-28T09:57:53.027Z</time></trkpt><trkpt lat="45.361329" lon="10.7292713"><ele>70.0</ele><time>2026-03-28T09:57:54.027Z</time></trkpt><trkpt lat="45.3615313" lon="10.7292623"><ele>70.0</ele><time>2026-03-28T09:57:55.029Z</time></trkpt><trkpt lat="45.3617277" lon="10.7292468"><ele>70.66666666666666</ele><time>2026-03-28T09:57:56.027Z</time></trkpt><trkpt lat="45.3619205" lon="10.7292168"><ele>71.33333333333333</ele><time>2026-03-28T09:57:57.028Z</time></trkpt><trkpt lat="45.3621073" lon="10.7291598"><ele>72.0</ele><time>2026-03-28T09:57:58.028Z</time></trkpt><trkpt lat="45.3622928" lon="10.7290733"><ele>74.33333333333333</ele><time>2026-03-28T09:57:59.027Z</time></trkpt><trkpt lat="45.362475" lon="10.7289597"><ele>76.66666666666666</ele><time>2026-03-28T09:58:00.029Z</time></trkpt><trkpt lat="45.362654" lon="10.7288223"><ele>79.0</ele><time>2026-03-28T09:58:01.029Z</time></trkpt><trkpt lat="45.3628312" lon="10.7286752"><ele>77.66666666666666</ele><time>2026-03-28T09:58:02.028Z</time></trkpt><trkpt lat="45.363009" lon="10.7285258"><ele>76.33333333333333</ele><time>2026-03-28T09:58:03.028Z</time></trkpt><trkpt lat="45.3631858" lon="10.7283732"><ele>75.0</ele><time>2026-03-28T09:58:04.027Z</time></trkpt><trkpt lat="45.3633617" lon="10.7282163"><ele>75.0</ele><time>2026-03-28T09:58:05.028Z</time></trkpt><trkpt lat="45.3635375" lon="10.7280608"><ele>75.0</ele><time>2026-03-28T09:58:06.026Z</time></trkpt><trkpt lat="45.3637147" lon="10.7279043"><ele>75.0</ele><time>2026-03-28T09:58:07.028Z</time></trkpt><trkpt lat="45.3638915" lon="10.7277472"><ele>74.0</ele><time>2026-03-28T09:58:08.03Z</time></trkpt><trkpt lat="45.364069" lon="10.7275878"><ele>73.0</ele><time>2026-03-28T09:58:09.027Z</time></trkpt><trkpt lat="45.3642462" lon="10.7274315"><ele>72.0</ele><time>2026-03-28T09:58:10.029Z</time></trkpt><trkpt lat="45.3644198" lon="10.72728"><ele>72.0</ele><time>2026-03-28T09:58:11.028Z</time></trkpt><trkpt lat="45.3645848" lon="10.7271382"><ele>72.0</ele><time>2026-03-28T09:58:12.027Z</time></trkpt><trkpt lat="45.364742" lon="10.7270043"><ele>72.0</ele><time>2026-03-28T09:58:13.028Z</time></trkpt><trkpt lat="45.364893" lon="10.7268705"><ele>71.66666666666667</ele><time>2026-03-28T09:58:14.028Z</time></trkpt><trkpt lat="45.3650412" lon="10.7267262"><ele>71.33333333333334</ele><time>2026-03-28T09:58:15.028Z</time></trkpt><trkpt lat="45.3651885" lon="10.7265593"><ele>71.0</ele><time>2026-03-28T09:58:16.027Z</time></trkpt><trkpt lat="45.365339" lon="10.7263705"><ele>71.0</ele><time>2026-03-28T09:58:17.027Z</time></trkpt><trkpt lat="45.365494" lon="10.7261627"><ele>71.0</ele><time>2026-03-28T09:58:18.024Z</time></trkpt><trkpt lat="45.3656527" lon="10.7259415"><ele>71.0</ele><time>2026-03-28T09:58:19.03Z</time></trkpt><trkpt lat="45.3658138" lon="10.725713"><ele>69.5</ele><time>2026-03-28T09:58:20.03Z</time></trkpt><trkpt lat="45.365972" lon="10.7254782"><ele>68.0</ele><time>2026-03-28T09:58:21.03Z</time></trkpt><trkpt lat="45.3661178" lon="10.725229"><ele>66.0</ele><time>2026-03-28T09:58:22.029Z</time></trkpt><trkpt lat="45.3662502" lon="10.724958"><ele>64.0</ele><time>2026-03-28T09:58:23.027Z</time></trkpt><trkpt lat="45.3663758" lon="10.7246733"><ele>70.0</ele><time>2026-03-28T09:58:24.026Z</time></trkpt><trkpt lat="45.3665042" lon="10.7243898"><ele>76.0</ele><time>2026-03-28T09:58:25.028Z</time></trkpt><trkpt lat="45.3666372" lon="10.7241072"><ele>76.0</ele><time>2026-03-28T09:58:26.028Z</time></trkpt><trkpt lat="45.3667733" lon="10.7238263"><ele>76.0</ele><time>2026-03-28T09:58:27.028Z</time></trkpt><trkpt lat="45.366906" lon="10.7235408"><ele>73.33333333333333</ele><time>2026-03-28T09:58:28.028Z</time></trkpt><trkpt lat="45.367036" lon="10.7232643"><ele>70.66666666666667</ele><time>2026-03-28T09:58:29.027Z</time></trkpt><trkpt lat="45.3671587" lon="10.7230123"><ele>68.0</ele><time>2026-03-28T09:58:30.026Z</time></trkpt><trkpt lat="45.3672763" lon="10.7227773"><ele>69.66666666666667</ele><time>2026-03-28T09:58:31.027Z</time></trkpt><trkpt lat="45.3673978" lon="10.7225528"><ele>71.33333333333333</ele><time>2026-03-28T09:58:32.027Z</time></trkpt><trkpt lat="45.3675298" lon="10.7223465"><ele>73.0</ele><time>2026-03-28T09:58:33.027Z</time></trkpt><trkpt lat="45.3676695" lon="10.7221485"><ele>73.0</ele><time>2026-03-28T09:58:34.027Z</time></trkpt><trkpt lat="45.3678125" lon="10.7219562"><ele>73.0</ele><time>2026-03-28T09:58:35.025Z</time></trkpt><trkpt lat="45.3679555" lon="10.7217717"><ele>73.0</ele><time>2026-03-28T09:58:36.027Z</time></trkpt><trkpt lat="45.3680942" lon="10.7215852"><ele>74.33333333333333</ele><time>2026-03-28T09:58:37.028Z</time></trkpt><trkpt lat="45.368227" lon="10.721407"><ele>75.66666666666667</ele><time>2026-03-28T09:58:38.028Z</time></trkpt><trkpt lat="45.3683398" lon="10.7212268"><ele>77.0</ele><time>2026-03-28T09:58:39.025Z</time></trkpt><trkpt lat="45.3684285" lon="10.7210117"><ele>74.33333333333334</ele><time>2026-03-28T09:58:40.025Z</time></trkpt><trkpt lat="45.3685038" lon="10.7207642"><ele>71.66666666666667</ele><time>2026-03-28T09:58:41.025Z</time></trkpt><trkpt lat="45.3685798" lon="10.7204957"><ele>69.0</ele><time>2026-03-28T09:58:42.026Z</time></trkpt><trkpt lat="45.3686597" lon="10.7202163"><ele>66.5</ele><time>2026-03-28T09:58:43.028Z</time></trkpt><trkpt lat="45.3687418" lon="10.7199227"><ele>64.0</ele><time>2026-03-28T09:58:44.028Z</time></trkpt><trkpt lat="45.3688297" lon="10.7196115"><ele>70.0</ele><time>2026-03-28T09:58:45.029Z</time></trkpt><trkpt lat="45.3689218" lon="10.7192902"><ele>76.0</ele><time>2026-03-28T09:58:46.031Z</time></trkpt><trkpt lat="45.3690152" lon="10.7189718"><ele>76.0</ele><time>2026-03-28T09:58:47.029Z</time></trkpt><trkpt lat="45.369108" lon="10.7186542"><ele>76.0</ele><time>2026-03-28T09:58:48.03Z</time></trkpt><trkpt lat="45.3692008" lon="10.7183403"><ele>73.5</ele><time>2026-03-28T09:58:49.028Z</time></trkpt><trkpt lat="45.3692943" lon="10.7180303"><ele>71.0</ele><time>2026-03-28T09:58:50.028Z</time></trkpt><trkpt lat="45.369389" lon="10.7177228"><ele>68.5</ele><time>2026-03-28T09:58:51.029Z</time></trkpt><trkpt lat="45.3694825" lon="10.717411"><ele>66.0</ele><time>2026-03-28T09:58:52.031Z</time></trkpt><trkpt lat="45.3695752" lon="10.717097"><ele>63.5</ele><time>2026-03-28T09:58:53.029Z</time></trkpt><trkpt lat="45.369665" lon="10.7167927"><ele>61.0</ele><time>2026-03-28T09:58:54.03Z</time></trkpt><trkpt lat="45.3697493" lon="10.716507"><ele>65.0</ele><time>2026-03-28T09:58:55.028Z</time></trkpt><trkpt lat="45.3698282" lon="10.7162377"><ele>69.0</ele><time>2026-03-28T09:58:56.028Z</time></trkpt><trkpt lat="45.3699042" lon="10.7159837"><ele>73.0</ele><time>2026-03-28T09:58:57.028Z</time></trkpt><trkpt lat="45.3699777" lon="10.7157437"><ele>73.0</ele><time>2026-03-28T09:58:58.028Z</time></trkpt><trkpt lat="45.370047" lon="10.715517"><ele>73.0</ele><time>2026-03-28T09:58:59.03Z</time></trkpt><trkpt lat="45.3701105" lon="10.7153002"><ele>73.0</ele><time>2026-03-28T09:59:00.027Z</time></trkpt><trkpt lat="45.3701752" lon="10.715087"><ele>71.33333333333333</ele><time>2026-03-28T09:59:01.027Z</time></trkpt><trkpt lat="45.3702435" lon="10.714875"><ele>69.66666666666667</ele><time>2026-03-28T09:59:02.027Z</time></trkpt><trkpt lat="45.3703198" lon="10.7146592"><ele>68.0</ele><time>2026-03-28T09:59:03.027Z</time></trkpt><trkpt lat="45.3704053" lon="10.7144417"><ele>66.0</ele><time>2026-03-28T09:59:04.026Z</time></trkpt><trkpt lat="45.3705013" lon="10.7142318"><ele>64.0</ele><time>2026-03-28T09:59:05.026Z</time></trkpt><trkpt lat="45.3706097" lon="10.7140385"><ele>62.0</ele><time>2026-03-28T09:59:06.026Z</time></trkpt><trkpt lat="45.3707255" lon="10.7138533"><ele>62.66666666666667</ele><time>2026-03-28T09:59:07.025Z</time></trkpt><trkpt lat="45.370849" lon="10.7136653"><ele>63.33333333333333</ele><time>2026-03-28T09:59:08.026Z</time></trkpt><trkpt lat="45.3709813" lon="10.7134668"><ele>64.0</ele><time>2026-03-28T09:59:09.029Z</time></trkpt><trkpt lat="45.3711197" lon="10.7132617"><ele>64.0</ele><time>2026-03-28T09:59:10.027Z</time></trkpt><trkpt lat="45.3712595" lon="10.7130582"><ele>64.0</ele><time>2026-03-28T09:59:11.028Z</time></trkpt><trkpt lat="45.371386" lon="10.712871"><ele>64.0</ele><time>2026-03-28T09:59:12.028Z</time></trkpt><trkpt lat="45.3714965" lon="10.712703"><ele>64.25</ele><time>2026-03-28T09:59:13.029Z</time></trkpt><trkpt lat="45.3715955" lon="10.7125493"><ele>64.5</ele><time>2026-03-28T09:59:14.03Z</time></trkpt><trkpt lat="45.371691" lon="10.7124032"><ele>64.75</ele><time>2026-03-28T09:59:15.028Z</time></trkpt><trkpt lat="45.3717867" lon="10.7122533"><ele>65.0</ele><time>2026-03-28T09:59:16.03Z</time></trkpt><trkpt lat="45.3718827" lon="10.7121005"><ele>65.0</ele><time>2026-03-28T09:59:17.032Z</time></trkpt><trkpt lat="45.3719778" lon="10.7119495"><ele>65.0</ele><time>2026-03-28T09:59:18.029Z</time></trkpt><trkpt lat="45.372067" lon="10.7118143"><ele>65.0</ele><time>2026-03-28T09:59:19.033Z</time></trkpt><trkpt lat="45.3721553" lon="10.7117037"><ele>65.0</ele><time>2026-03-28T09:59:20.029Z</time></trkpt><trkpt lat="45.3722558" lon="10.711628"><ele>64.25</ele><time>2026-03-28T09:59:21.029Z</time></trkpt><trkpt lat="45.3723765" lon="10.711581"><ele>63.5</ele><time>2026-03-28T09:59:22.032Z</time></trkpt><trkpt lat="45.3725185" lon="10.7115447"><ele>62.75</ele><time>2026-03-28T09:59:23.032Z</time></trkpt><trkpt lat="45.3726698" lon="10.7115067"><ele>62.0</ele><time>2026-03-28T09:59:24.033Z</time></trkpt><trkpt lat="45.3728192" lon="10.7114677"><ele>62.0</ele><time>2026-03-28T09:59:25.032Z</time></trkpt><trkpt lat="45.3729643" lon="10.7114298"><ele>62.0</ele><time>2026-03-28T09:59:26.033Z</time></trkpt><trkpt lat="45.3731073" lon="10.711393"><ele>62.0</ele><time>2026-03-28T09:59:27.032Z</time></trkpt><trkpt lat="45.37325" lon="10.7113565"><ele>62.0</ele><time>2026-03-28T09:59:28.032Z</time></trkpt><trkpt lat="45.3733963" lon="10.711318"><ele>62.333333333333336</ele><time>2026-03-28T09:59:29.031Z</time></trkpt><trkpt lat="45.3735503" lon="10.7112758"><ele>62.66666666666667</ele><time>2026-03-28T09:59:30.031Z</time></trkpt><trkpt lat="45.3737132" lon="10.7112295"><ele>63.0</ele><time>2026-03-28T09:59:31.031Z</time></trkpt><trkpt lat="45.3738795" lon="10.7111797"><ele>63.33333333333333</ele><time>2026-03-28T09:59:32.032Z</time></trkpt><trkpt lat="45.3740433" lon="10.711125"><ele>63.666666666666664</ele><time>2026-03-28T09:59:33.031Z</time></trkpt><trkpt lat="45.3741973" lon="10.7110673"><ele>64.0</ele><time>2026-03-28T09:59:34.032Z</time></trkpt><trkpt lat="45.3743567" lon="10.7109972"><ele>64.0</ele><time>2026-03-28T09:59:35.032Z</time></trkpt><trkpt lat="45.3745163" lon="10.7109125"><ele>64.0</ele><time>2026-03-28T09:59:36.033Z</time></trkpt><trkpt lat="45.3746782" lon="10.7108138"><ele>64.0</ele><time>2026-03-28T09:59:37.032Z</time></trkpt><trkpt lat="45.3748447" lon="10.710708"><ele>64.66666666666666</ele><time>2026-03-28T09:59:38.032Z</time></trkpt><trkpt lat="45.3750173" lon="10.7106012"><ele>65.33333333333333</ele><time>2026-03-28T09:59:39.031Z</time></trkpt><trkpt lat="45.3751882" lon="10.710494"><ele>66.0</ele><time>2026-03-28T09:59:40.033Z</time></trkpt><trkpt lat="45.3753575" lon="10.7103868"><ele>65.0</ele><time>2026-03-28T09:59:41.032Z</time></trkpt><trkpt lat="45.3755242" lon="10.7102757"><ele>64.0</ele><time>2026-03-28T09:59:42.033Z</time></trkpt><trkpt lat="45.3756852" lon="10.7101602"><ele>63.0</ele><time>2026-03-28T09:59:43.036Z</time></trkpt><trkpt lat="45.3758367" lon="10.7100492"><ele>63.0</ele><time>2026-03-28T09:59:44.032Z</time></trkpt><trkpt lat="45.3759828" lon="10.7099452"><ele>63.0</ele><time>2026-03-28T09:59:45.031Z</time></trkpt><trkpt lat="45.3761308" lon="10.7098438"><ele>63.0</ele><time>2026-03-28T09:59:46.032Z</time></trkpt><trkpt lat="45.3762808" lon="10.7097463"><ele>63.0</ele><time>2026-03-28T09:59:47.033Z</time></trkpt><trkpt lat="45.3764248" lon="10.7096607"><ele>63.0</ele><time>2026-03-28T09:59:48.033Z</time></trkpt><trkpt lat="45.3765598" lon="10.7095845"><ele>63.0</ele><time>2026-03-28T09:59:49.032Z</time></trkpt><trkpt lat="45.3766858" lon="10.7095142"><ele>63.0</ele><time>2026-03-28T09:59:50.032Z</time></trkpt><trkpt lat="45.3768023" lon="10.7094535"><ele>63.0</ele><time>2026-03-28T09:59:51.03Z</time></trkpt><trkpt lat="45.3769108" lon="10.709408"><ele>63.0</ele><time>2026-03-28T09:59:52.032Z</time></trkpt><trkpt lat="45.3770237" lon="10.7093768"><ele>63.0</ele><time>2026-03-28T09:59:53.03Z</time></trkpt><trkpt lat="45.3771415" lon="10.7093577"><ele>63.0</ele><time>2026-03-28T09:59:54.029Z</time></trkpt><trkpt lat="45.3772582" lon="10.709346"><ele>63.0</ele><time>2026-03-28T09:59:55.029Z</time></trkpt><trkpt lat="45.37736" lon="10.7093372"><ele>63.0</ele><time>2026-03-28T09:59:56.029Z</time></trkpt><trkpt lat="45.3774407" lon="10.7093317"><ele>63.0</ele><time>2026-03-28T09:59:57.031Z</time></trkpt><trkpt lat="45.3775407" lon="10.7093192"><ele>63.0</ele><time>2026-03-28T09:59:59.033Z</time></trkpt><trkpt lat="45.3776705" lon="10.7092782"><ele>63.0</ele><time>2026-03-28T10:00:01.032Z</time></trkpt><trkpt lat="45.3777677" lon="10.7092382"><ele>63.0</ele><time>2026-03-28T10:00:02.033Z</time></trkpt><trkpt lat="45.377869" lon="10.7091932"><ele>63.0</ele><time>2026-03-28T10:00:03.033Z</time></trkpt><trkpt lat="45.3779773" lon="10.709148"><ele>63.0</ele><time>2026-03-28T10:00:04.033Z</time></trkpt><trkpt lat="45.3780918" lon="10.7091007"><ele>63.0</ele><time>2026-03-28T10:00:05.031Z</time></trkpt><trkpt lat="45.3782135" lon="10.7090462"><ele>64.25</ele><time>2026-03-28T10:00:06.031Z</time></trkpt><trkpt lat="45.3783415" lon="10.7089863"><ele>65.5</ele><time>2026-03-28T10:00:07.031Z</time></trkpt><trkpt lat="45.3784737" lon="10.7089225"><ele>66.75</ele><time>2026-03-28T10:00:08.039Z</time></trkpt><trkpt lat="45.378599" lon="10.7088507"><ele>68.0</ele><time>2026-03-28T10:00:09.034Z</time></trkpt><trkpt lat="45.3787227" lon="10.708778"><ele>68.0</ele><time>2026-03-28T10:00:10.031Z</time></trkpt><trkpt lat="45.3788455" lon="10.7087098"><ele>68.0</ele><time>2026-03-28T10:00:11.031Z</time></trkpt><trkpt lat="45.37897" lon="10.7086425"><ele>68.0</ele><time>2026-03-28T10:00:12.031Z</time></trkpt><trkpt lat="45.379092" lon="10.7085743"><ele>68.0</ele><time>2026-03-28T10:00:13.032Z</time></trkpt><trkpt lat="45.3792068" lon="10.7085098"><ele>68.5</ele><time>2026-03-28T10:00:14.031Z</time></trkpt><trkpt lat="45.3793192" lon="10.7084555"><ele>69.0</ele><time>2026-03-28T10:00:15.032Z</time></trkpt><trkpt lat="45.3794293" lon="10.708412"><ele>69.5</ele><time>2026-03-28T10:00:16.032Z</time></trkpt><trkpt lat="45.37954" lon="10.708362"><ele>70.0</ele><time>2026-03-28T10:00:17.033Z</time></trkpt><trkpt lat="45.3796392" lon="10.7083098"><ele>70.0</ele><time>2026-03-28T10:00:18.03Z</time></trkpt><trkpt lat="45.3797283" lon="10.7082428"><ele>70.0</ele><time>2026-03-28T10:00:19.029Z</time></trkpt><trkpt lat="45.3798147" lon="10.708144"><ele>70.0</ele><time>2026-03-28T10:00:20.03Z</time></trkpt><trkpt lat="45.379911" lon="10.7080408"><ele>70.0</ele><time>2026-03-28T10:00:21.03Z</time></trkpt><trkpt lat="45.3800257" lon="10.7079452"><ele>70.0</ele><time>2026-03-28T10:00:22.033Z</time></trkpt><trkpt lat="45.3801575" lon="10.7078578"><ele>70.0</ele><time>2026-03-28T10:00:23.033Z</time></trkpt><trkpt lat="45.3803062" lon="10.707778"><ele>70.0</ele><time>2026-03-28T10:00:24.033Z</time></trkpt><trkpt lat="45.3804663" lon="10.707702"><ele>69.0</ele><time>2026-03-28T10:00:25.032Z</time></trkpt><trkpt lat="45.3806267" lon="10.7076288"><ele>68.0</ele><time>2026-03-28T10:00:26.031Z</time></trkpt><trkpt lat="45.38079" lon="10.7075513"><ele>67.0</ele><time>2026-03-28T10:00:27.033Z</time></trkpt><trkpt lat="45.380955" lon="10.7074745"><ele>67.0</ele><time>2026-03-28T10:00:28.031Z</time></trkpt><trkpt lat="45.3811188" lon="10.7074052"><ele>67.0</ele><time>2026-03-28T10:00:29.03Z</time></trkpt><trkpt lat="45.3812805" lon="10.707343"><ele>67.0</ele><time>2026-03-28T10:00:30.036Z</time></trkpt><trkpt lat="45.3814415" lon="10.7072908"><ele>68.0</ele><time>2026-03-28T10:00:31.032Z</time></trkpt><trkpt lat="45.381604" lon="10.7072538"><ele>69.0</ele><time>2026-03-28T10:00:32.031Z</time></trkpt><trkpt lat="45.3817603" lon="10.7072257"><ele>70.0</ele><time>2026-03-28T10:00:33.032Z</time></trkpt><trkpt lat="45.381907" lon="10.7071963"><ele>70.0</ele><time>2026-03-28T10:00:34.033Z</time></trkpt><trkpt lat="45.3820468" lon="10.7071648"><ele>70.0</ele><time>2026-03-28T10:00:35.031Z</time></trkpt><trkpt lat="45.382187" lon="10.7071458"><ele>70.0</ele><time>2026-03-28T10:00:36.033Z</time></trkpt><trkpt lat="45.3823365" lon="10.7071368"><ele>70.0</ele><time>2026-03-28T10:00:37.035Z</time></trkpt><trkpt lat="45.3824912" lon="10.7071378"><ele>70.66666666666666</ele><time>2026-03-28T10:00:38.032Z</time></trkpt><trkpt lat="45.3826505" lon="10.707152"><ele>71.33333333333333</ele><time>2026-03-28T10:00:39.033Z</time></trkpt><trkpt lat="45.3828133" lon="10.707185"><ele>72.0</ele><time>2026-03-28T10:00:40.033Z</time></trkpt><trkpt lat="45.3829847" lon="10.7072362"><ele>70.66666666666667</ele><time>2026-03-28T10:00:41.034Z</time></trkpt><trkpt lat="45.3831598" lon="10.7072938"><ele>69.33333333333334</ele><time>2026-03-28T10:00:42.031Z</time></trkpt><trkpt lat="45.38334" lon="10.7073455"><ele>68.0</ele><time>2026-03-28T10:00:43.031Z</time></trkpt><trkpt lat="45.3835242" lon="10.7073857"><ele>68.0</ele><time>2026-03-28T10:00:44.03Z</time></trkpt><trkpt lat="45.3837108" lon="10.7074193"><ele>68.0</ele><time>2026-03-28T10:00:45.029Z</time></trkpt><trkpt lat="45.3838977" lon="10.7074513"><ele>68.0</ele><time>2026-03-28T10:00:46.032Z</time></trkpt><trkpt lat="45.3840772" lon="10.7074823"><ele>69.0</ele><time>2026-03-28T10:00:47.034Z</time></trkpt><trkpt lat="45.3842493" lon="10.7075113"><ele>70.0</ele><time>2026-03-28T10:00:48.034Z</time></trkpt><trkpt lat="45.3844133" lon="10.7075387"><ele>71.0</ele><time>2026-03-28T10:00:49.032Z</time></trkpt><trkpt lat="45.3845533" lon="10.7075625"><ele>71.0</ele><time>2026-03-28T10:00:50.031Z</time></trkpt><trkpt lat="45.3846657" lon="10.7075902"><ele>71.0</ele><time>2026-03-28T10:00:51.032Z</time></trkpt><trkpt lat="45.3847503" lon="10.7076273"><ele>71.0</ele><time>2026-03-28T10:00:52.031Z</time></trkpt><trkpt lat="45.3848227" lon="10.7076708"><ele>71.0</ele><time>2026-03-28T10:00:53.032Z</time></trkpt><trkpt lat="45.3849043" lon="10.7077057"><ele>71.0</ele><time>2026-03-28T10:00:54.03Z</time></trkpt><trkpt lat="45.3849982" lon="10.7077227"><ele>71.33333333333334</ele><time>2026-03-28T10:00:55.028Z</time></trkpt><trkpt lat="45.3850992" lon="10.7077302"><ele>71.66666666666667</ele><time>2026-03-28T10:00:56.032Z</time></trkpt><trkpt lat="45.3851857" lon="10.7077358"><ele>72.0</ele><time>2026-03-28T10:00:57.031Z</time></trkpt><trkpt lat="45.3852557" lon="10.7077407"><ele>72.33333333333333</ele><time>2026-03-28T10:00:58.032Z</time></trkpt><trkpt lat="45.385327" lon="10.7077452"><ele>72.66666666666666</ele><time>2026-03-28T10:00:59.031Z</time></trkpt><trkpt lat="45.3854123" lon="10.7077498"><ele>73.0</ele><time>2026-03-28T10:01:00.031Z</time></trkpt><trkpt lat="45.3855098" lon="10.7077527"><ele>73.5</ele><time>2026-03-28T10:01:01.032Z</time></trkpt><trkpt lat="45.3856138" lon="10.7077538"><ele>74.0</ele><time>2026-03-28T10:01:02.035Z</time></trkpt><trkpt lat="45.3857243" lon="10.7077533"><ele>74.5</ele><time>2026-03-28T10:01:03.033Z</time></trkpt><trkpt lat="45.3858403" lon="10.7077545"><ele>75.0</ele><time>2026-03-28T10:01:04.032Z</time></trkpt><trkpt lat="45.385961" lon="10.7077563"><ele>75.0</ele><time>2026-03-28T10:01:05.032Z</time></trkpt><trkpt lat="45.3860875" lon="10.7077572"><ele>75.0</ele><time>2026-03-28T10:01:06.038Z</time></trkpt><trkpt lat="45.3862063" lon="10.707757"><ele>75.0</ele><time>2026-03-28T10:01:07.03Z</time></trkpt><trkpt lat="45.3863142" lon="10.707757"><ele>75.0</ele><time>2026-03-28T10:01:08.03Z</time></trkpt><trkpt lat="45.3864118" lon="10.7077582"><ele>75.2</ele><time>2026-03-28T10:01:09.031Z</time></trkpt><trkpt lat="45.3864993" lon="10.7077592"><ele>75.4</ele><time>2026-03-28T10:01:10.029Z</time></trkpt><trkpt lat="45.3865775" lon="10.707759"><ele>75.6</ele><time>2026-03-28T10:01:11.032Z</time></trkpt><trkpt lat="45.3866468" lon="10.7077573"><ele>75.8</ele><time>2026-03-28T10:01:12.031Z</time></trkpt><trkpt lat="45.3867612" lon="10.7077577"><ele>76.0</ele><time>2026-03-28T10:01:14.03Z</time></trkpt><trkpt lat="45.386882" lon="10.7077552"><ele>76.0</ele><time>2026-03-28T10:01:16.031Z</time></trkpt><trkpt lat="45.3869692" lon="10.7077548"><ele>76.0</ele><time>2026-03-28T10:01:17.032Z</time></trkpt><trkpt lat="45.3870603" lon="10.7077585"><ele>76.0</ele><time>2026-03-28T10:01:18.032Z</time></trkpt><trkpt lat="45.3871583" lon="10.7077672"><ele>76.0</ele><time>2026-03-28T10:01:19.031Z</time></trkpt><trkpt lat="45.3872593" lon="10.7077828"><ele>76.0</ele><time>2026-03-28T10:01:20.031Z</time></trkpt><trkpt lat="45.3873492" lon="10.7078235"><ele>76.75</ele><time>2026-03-28T10:01:21.031Z</time></trkpt><trkpt lat="45.3874295" lon="10.707908"><ele>77.5</ele><time>2026-03-28T10:01:22.03Z</time></trkpt><trkpt lat="45.3875035" lon="10.7080383"><ele>78.25</ele><time>2026-03-28T10:01:23.032Z</time></trkpt><trkpt lat="45.3875802" lon="10.7082025"><ele>79.0</ele><time>2026-03-28T10:01:24.031Z</time></trkpt><trkpt lat="45.3876583" lon="10.708373"><ele>79.0</ele><time>2026-03-28T10:01:25.034Z</time></trkpt><trkpt lat="45.3877458" lon="10.7085402"><ele>79.0</ele><time>2026-03-28T10:01:26.037Z</time></trkpt><trkpt lat="45.3878465" lon="10.7086987"><ele>79.0</ele><time>2026-03-28T10:01:27.031Z</time></trkpt><trkpt lat="45.3879562" lon="10.7088427"><ele>79.0</ele><time>2026-03-28T10:01:28.031Z</time></trkpt><trkpt lat="45.3880735" lon="10.7089885"><ele>79.0</ele><time>2026-03-28T10:01:29.033Z</time></trkpt><trkpt lat="45.3881988" lon="10.7091467"><ele>79.0</ele><time>2026-03-28T10:01:30.029Z</time></trkpt><trkpt lat="45.388329" lon="10.7093098"><ele>79.0</ele><time>2026-03-28T10:01:31.029Z</time></trkpt><trkpt lat="45.3884587" lon="10.7094677"><ele>79.33333333333333</ele><time>2026-03-28T10:01:32.029Z</time></trkpt><trkpt lat="45.3885937" lon="10.7096277"><ele>79.66666666666667</ele><time>2026-03-28T10:01:33.029Z</time></trkpt><trkpt lat="45.388734" lon="10.7097925"><ele>80.0</ele><time>2026-03-28T10:01:34.03Z</time></trkpt><trkpt lat="45.3888772" lon="10.7099615"><ele>80.33333333333334</ele><time>2026-03-28T10:01:35.033Z</time></trkpt><trkpt lat="45.3890223" lon="10.7101342"><ele>80.66666666666667</ele><time>2026-03-28T10:01:36.032Z</time></trkpt><trkpt lat="45.3891682" lon="10.7103073"><ele>81.0</ele><time>2026-03-28T10:01:37.033Z</time></trkpt><trkpt lat="45.3893118" lon="10.7104782"><ele>81.33333333333333</ele><time>2026-03-28T10:01:38.031Z</time></trkpt><trkpt lat="45.3894518" lon="10.7106435"><ele>81.66666666666666</ele><time>2026-03-28T10:01:39.033Z</time></trkpt><trkpt lat="45.3895907" lon="10.7108067"><ele>82.0</ele><time>2026-03-28T10:01:40.031Z</time></trkpt><trkpt lat="45.3897277" lon="10.710969"><ele>82.66666666666666</ele><time>2026-03-28T10:01:41.032Z</time></trkpt><trkpt lat="45.389864" lon="10.7111292"><ele>83.33333333333333</ele><time>2026-03-28T10:01:42.031Z</time></trkpt><trkpt lat="45.3899935" lon="10.7112792"><ele>84.0</ele><time>2026-03-28T10:01:43.031Z</time></trkpt><trkpt lat="45.3901145" lon="10.7114175"><ele>84.0</ele><time>2026-03-28T10:01:44.032Z</time></trkpt><trkpt lat="45.3902285" lon="10.7115385"><ele>84.0</ele><time>2026-03-28T10:01:45.031Z</time></trkpt><trkpt lat="45.3903505" lon="10.711629"><ele>84.0</ele><time>2026-03-28T10:01:46.032Z</time></trkpt><trkpt lat="45.3904942" lon="10.7116847"><ele>84.0</ele><time>2026-03-28T10:01:47.032Z</time></trkpt><trkpt lat="45.3906583" lon="10.7117128"><ele>84.33333333333333</ele><time>2026-03-28T10:01:48.03Z</time></trkpt><trkpt lat="45.39083" lon="10.7117332"><ele>84.66666666666666</ele><time>2026-03-28T10:01:49.034Z</time></trkpt><trkpt lat="45.3909903" lon="10.7117598"><ele>85.0</ele><time>2026-03-28T10:01:50.032Z</time></trkpt><trkpt lat="45.391124" lon="10.7117945"><ele>85.0</ele><time>2026-03-28T10:01:51.029Z</time></trkpt><trkpt lat="45.3912337" lon="10.7118613"><ele>85.0</ele><time>2026-03-28T10:01:52.031Z</time></trkpt><trkpt lat="45.39132" lon="10.7119742"><ele>85.0</ele><time>2026-03-28T10:01:53.029Z</time></trkpt><trkpt lat="45.391389" lon="10.7121368"><ele>85.0</ele><time>2026-03-28T10:01:54.031Z</time></trkpt><trkpt lat="45.3914455" lon="10.7123228"><ele>84.75</ele><time>2026-03-28T10:01:55.031Z</time></trkpt><trkpt lat="45.3915077" lon="10.7125088"><ele>84.5</ele><time>2026-03-28T10:01:56.028Z</time></trkpt><trkpt lat="45.39159" lon="10.7126817"><ele>84.25</ele><time>2026-03-28T10:01:57.029Z</time></trkpt><trkpt lat="45.3916813" lon="10.7128327"><ele>84.0</ele><time>2026-03-28T10:01:58.029Z</time></trkpt><trkpt lat="45.3917665" lon="10.7129755"><ele>83.75</ele><time>2026-03-28T10:01:59.032Z</time></trkpt><trkpt lat="45.3918347" lon="10.7131248"><ele>83.5</ele><time>2026-03-28T10:02:00.034Z</time></trkpt><trkpt lat="45.3918828" lon="10.7132878"><ele>83.25</ele><time>2026-03-28T10:02:01.031Z</time></trkpt><trkpt lat="45.3919093" lon="10.7134657"><ele>83.0</ele><time>2026-03-28T10:02:02.032Z</time></trkpt><trkpt lat="45.3919257" lon="10.7136563"><ele>82.75</ele><time>2026-03-28T10:02:03.03Z</time></trkpt><trkpt lat="45.3919417" lon="10.7138548"><ele>82.5</ele><time>2026-03-28T10:02:04.032Z</time></trkpt><trkpt lat="45.3919597" lon="10.714053"><ele>82.25</ele><time>2026-03-28T10:02:05.032Z</time></trkpt><trkpt lat="45.3919878" lon="10.7142377"><ele>82.0</ele><time>2026-03-28T10:02:06.032Z</time></trkpt><trkpt lat="45.3920377" lon="10.7144095"><ele>82.0</ele><time>2026-03-28T10:02:07.032Z</time></trkpt><trkpt lat="45.3920982" lon="10.7145828"><ele>82.0</ele><time>2026-03-28T10:02:08.031Z</time></trkpt><trkpt lat="45.3921543" lon="10.7147733"><ele>82.0</ele><time>2026-03-28T10:02:09.031Z</time></trkpt><trkpt lat="45.3921983" lon="10.7149767"><ele>82.0</ele><time>2026-03-28T10:02:10.03Z</time></trkpt><trkpt lat="45.3922352" lon="10.7151788"><ele>81.33333333333333</ele><time>2026-03-28T10:02:11.032Z</time></trkpt><trkpt lat="45.3922732" lon="10.7153767"><ele>80.66666666666667</ele><time>2026-03-28T10:02:12.031Z</time></trkpt><trkpt lat="45.3923262" lon="10.7155738"><ele>80.0</ele><time>2026-03-28T10:02:13.031Z</time></trkpt><trkpt lat="45.3924068" lon="10.715771"><ele>80.0</ele><time>2026-03-28T10:02:14.032Z</time></trkpt><trkpt lat="45.3925043" lon="10.7159707"><ele>80.0</ele><time>2026-03-28T10:02:15.03Z</time></trkpt><trkpt lat="45.3926058" lon="10.7161668"><ele>80.0</ele><time>2026-03-28T10:02:16.032Z</time></trkpt><trkpt lat="45.39271" lon="10.7163538"><ele>80.33333333333334</ele><time>2026-03-28T10:02:17.031Z</time></trkpt><trkpt lat="45.3928157" lon="10.716529"><ele>80.66666666666667</ele><time>2026-03-28T10:02:18.032Z</time></trkpt><trkpt lat="45.3929198" lon="10.7166878"><ele>81.0</ele><time>2026-03-28T10:02:19.032Z</time></trkpt><trkpt lat="45.3930245" lon="10.7168317"><ele>81.5</ele><time>2026-03-28T10:02:20.028Z</time></trkpt><trkpt lat="45.39313" lon="10.7169533"><ele>82.0</ele><time>2026-03-28T10:02:21.028Z</time></trkpt><trkpt lat="45.3932487" lon="10.7170455"><ele>82.5</ele><time>2026-03-28T10:02:22.028Z</time></trkpt><trkpt lat="45.393387" lon="10.7171078"><ele>83.0</ele><time>2026-03-28T10:02:23.027Z</time></trkpt><trkpt lat="45.3935358" lon="10.7171517"><ele>83.0</ele><time>2026-03-28T10:02:24.028Z</time></trkpt><trkpt lat="45.39369" lon="10.7171988"><ele>83.0</ele><time>2026-03-28T10:02:25.029Z</time></trkpt><trkpt lat="45.3938437" lon="10.7172587"><ele>83.0</ele><time>2026-03-28T10:02:26.028Z</time></trkpt><trkpt lat="45.3939978" lon="10.7173358"><ele>81.66666666666667</ele><time>2026-03-28T10:02:27.028Z</time></trkpt><trkpt lat="45.3941508" lon="10.7174303"><ele>80.33333333333333</ele><time>2026-03-28T10:02:28.03Z</time></trkpt><trkpt lat="45.3943072" lon="10.7175247"><ele>79.0</ele><time>2026-03-28T10:02:29.029Z</time></trkpt><trkpt lat="45.3944655" lon="10.7176237"><ele>79.0</ele><time>2026-03-28T10:02:30.031Z</time></trkpt><trkpt lat="45.3946208" lon="10.7177252"><ele>79.0</ele><time>2026-03-28T10:02:31.029Z</time></trkpt><trkpt lat="45.3947742" lon="10.7178377"><ele>79.0</ele><time>2026-03-28T10:02:32.03Z</time></trkpt><trkpt lat="45.3949287" lon="10.7179465"><ele>79.66666666666666</ele><time>2026-03-28T10:02:33.03Z</time></trkpt><trkpt lat="45.3950837" lon="10.7180553"><ele>80.33333333333333</ele><time>2026-03-28T10:02:34.031Z</time></trkpt><trkpt lat="45.3952408" lon="10.7181578"><ele>81.0</ele><time>2026-03-28T10:02:35.032Z</time></trkpt><trkpt lat="45.3953957" lon="10.7182485"><ele>80.66666666666667</ele><time>2026-03-28T10:02:36.031Z</time></trkpt><trkpt lat="45.3955492" lon="10.7183277"><ele>80.33333333333334</ele><time>2026-03-28T10:02:37.032Z</time></trkpt><trkpt lat="45.3956928" lon="10.7183962"><ele>80.0</ele><time>2026-03-28T10:02:38.031Z</time></trkpt><trkpt lat="45.3958208" lon="10.7184612"><ele>80.0</ele><time>2026-03-28T10:02:39.03Z</time></trkpt><trkpt lat="45.3959372" lon="10.7185193"><ele>80.0</ele><time>2026-03-28T10:02:40.037Z</time></trkpt><trkpt lat="45.3960372" lon="10.718582"><ele>80.0</ele><time>2026-03-28T10:02:41.031Z</time></trkpt><trkpt lat="45.3961122" lon="10.7186608"><ele>80.0</ele><time>2026-03-28T10:02:42.029Z</time></trkpt><trkpt lat="45.3961523" lon="10.7187628"><ele>80.0</ele><time>2026-03-28T10:02:43.031Z</time></trkpt><trkpt lat="45.39616" lon="10.7188885"><ele>82.5</ele><time>2026-03-28T10:02:44.029Z</time></trkpt><trkpt lat="45.3961468" lon="10.7190423"><ele>85.0</ele><time>2026-03-28T10:02:45.027Z</time></trkpt><trkpt lat="45.396124" lon="10.7192208"><ele>87.5</ele><time>2026-03-28T10:02:46.028Z</time></trkpt><trkpt lat="45.3960932" lon="10.7194148"><ele>90.0</ele><time>2026-03-28T10:02:47.029Z</time></trkpt><trkpt lat="45.3960615" lon="10.7196043"><ele>91.0</ele><time>2026-03-28T10:02:48.028Z</time></trkpt><trkpt lat="45.3960305" lon="10.7197995"><ele>92.0</ele><time>2026-03-28T10:02:49.032Z</time></trkpt><trkpt lat="45.3960012" lon="10.7199875"><ele>93.0</ele><time>2026-03-28T10:02:50.031Z</time></trkpt><trkpt lat="45.395977" lon="10.7201595"><ele>94.0</ele><time>2026-03-28T10:02:51.031Z</time></trkpt><trkpt lat="45.3959542" lon="10.7203162"><ele>94.4</ele><time>2026-03-28T10:02:52.032Z</time></trkpt><trkpt lat="45.3959323" lon="10.7204588"><ele>94.80000000000001</ele><time>2026-03-28T10:02:53.033Z</time></trkpt><trkpt lat="45.3959113" lon="10.7205917"><ele>95.19999999999999</ele><time>2026-03-28T10:02:54.031Z</time></trkpt><trkpt lat="45.3958915" lon="10.720725"><ele>95.6</ele><time>2026-03-28T10:02:55.031Z</time></trkpt><trkpt lat="45.3958742" lon="10.720844"><ele>96.0</ele><time>2026-03-28T10:02:56.032Z</time></trkpt><trkpt lat="45.395858" lon="10.7209495"><ele>96.16666666666667</ele><time>2026-03-28T10:02:57.032Z</time></trkpt><trkpt lat="45.3958397" lon="10.7210953"><ele>96.33333333333334</ele><time>2026-03-28T10:02:59.031Z</time></trkpt><trkpt lat="45.395833" lon="10.721215"><ele>96.5</ele><time>2026-03-28T10:03:10.028Z</time></trkpt><trkpt lat="45.395887" lon="10.7212972"><ele>96.66666666666667</ele><time>2026-03-28T10:03:12.028Z</time></trkpt><trkpt lat="45.3959617" lon="10.7213215"><ele>96.83333333333334</ele><time>2026-03-28T10:03:13.031Z</time></trkpt><trkpt lat="45.3960543" lon="10.7213383"><ele>97.0</ele><time>2026-03-28T10:03:14.031Z</time></trkpt><trkpt lat="45.3961618" lon="10.7213558"><ele>97.0</ele><time>2026-03-28T10:03:15.032Z</time></trkpt><trkpt lat="45.3962802" lon="10.7213768"><ele>97.0</ele><time>2026-03-28T10:03:16.031Z</time></trkpt><trkpt lat="45.3964102" lon="10.7214005"><ele>97.0</ele><time>2026-03-28T10:03:17.032Z</time></trkpt><trkpt lat="45.396547" lon="10.7214258"><ele>97.0</ele><time>2026-03-28T10:03:18.032Z</time></trkpt><trkpt lat="45.3966878" lon="10.7214523"><ele>97.5</ele><time>2026-03-28T10:03:19.032Z</time></trkpt><trkpt lat="45.3968332" lon="10.7214782"><ele>98.0</ele><time>2026-03-28T10:03:20.034Z</time></trkpt><trkpt lat="45.3969812" lon="10.7215057"><ele>98.5</ele><time>2026-03-28T10:03:21.031Z</time></trkpt><trkpt lat="45.3971297" lon="10.7215337"><ele>99.0</ele><time>2026-03-28T10:03:22.029Z</time></trkpt><trkpt lat="45.3972855" lon="10.7215625"><ele>99.0</ele><time>2026-03-28T10:03:23.033Z</time></trkpt><trkpt lat="45.3974417" lon="10.721591"><ele>99.0</ele><time>2026-03-28T10:03:24.032Z</time></trkpt><trkpt lat="45.397586" lon="10.7216175"><ele>99.0</ele><time>2026-03-28T10:03:25.032Z</time></trkpt><trkpt lat="45.3977138" lon="10.7216413"><ele>99.0</ele><time>2026-03-28T10:03:26.035Z</time></trkpt><trkpt lat="45.3978325" lon="10.7216638"><ele>99.0</ele><time>2026-03-28T10:03:27.031Z</time></trkpt><trkpt lat="45.3979497" lon="10.7216857"><ele>99.0</ele><time>2026-03-28T10:03:28.031Z</time></trkpt><trkpt lat="45.3980743" lon="10.7217105"><ele>99.0</ele><time>2026-03-28T10:03:29.032Z</time></trkpt><trkpt lat="45.3982067" lon="10.7217417"><ele>99.0</ele><time>2026-03-28T10:03:30.033Z</time></trkpt><trkpt lat="45.3983392" lon="10.7217773"><ele>99.25</ele><time>2026-03-28T10:03:31.036Z</time></trkpt><trkpt lat="45.3984658" lon="10.721816"><ele>99.5</ele><time>2026-03-28T10:03:32.033Z</time></trkpt><trkpt lat="45.398582" lon="10.7218598"><ele>99.75</ele><time>2026-03-28T10:03:33.031Z</time></trkpt><trkpt lat="45.3986872" lon="10.7219103"><ele>100.0</ele><time>2026-03-28T10:03:34.033Z</time></trkpt><trkpt lat="45.3987755" lon="10.7219657"><ele>100.16666666666667</ele><time>2026-03-28T10:03:35.03Z</time></trkpt><trkpt lat="45.39884" lon="10.7220243"><ele>100.33333333333334</ele><time>2026-03-28T10:03:36.031Z</time></trkpt><trkpt lat="45.3988853" lon="10.7220975"><ele>100.5</ele><time>2026-03-28T10:03:37.03Z</time></trkpt><trkpt lat="45.3989157" lon="10.7221943"><ele>100.66666666666666</ele><time>2026-03-28T10:03:38.033Z</time></trkpt><trkpt lat="45.3989428" lon="10.7223112"><ele>100.83333333333333</ele><time>2026-03-28T10:03:39.032Z</time></trkpt><trkpt lat="45.3989867" lon="10.7224133"><ele>101.0</ele><time>2026-03-28T10:03:40.033Z</time></trkpt><trkpt lat="45.399052" lon="10.722487"><ele>101.0</ele><time>2026-03-28T10:03:41.034Z</time></trkpt><trkpt lat="45.3991293" lon="10.7225518"><ele>101.0</ele><time>2026-03-28T10:03:42.032Z</time></trkpt><trkpt lat="45.399199" lon="10.7226435"><ele>101.0</ele><time>2026-03-28T10:03:43.032Z</time></trkpt><trkpt lat="45.399265" lon="10.7227837"><ele>101.0</ele><time>2026-03-28T10:03:44.028Z</time></trkpt><trkpt lat="45.3993287" lon="10.7229372"><ele>101.0</ele><time>2026-03-28T10:03:45.031Z</time></trkpt><trkpt lat="45.3993993" lon="10.723092"><ele>102.25</ele><time>2026-03-28T10:03:46.03Z</time></trkpt><trkpt lat="45.3994707" lon="10.7232343"><ele>103.5</ele><time>2026-03-28T10:03:47.031Z</time></trkpt><trkpt lat="45.3995455" lon="10.723372"><ele>104.75</ele><time>2026-03-28T10:03:48.036Z</time></trkpt><trkpt lat="45.3996205" lon="10.7234983"><ele>106.0</ele><time>2026-03-28T10:03:49.031Z</time></trkpt><trkpt lat="45.3996972" lon="10.723617"><ele>106.6</ele><time>2026-03-28T10:03:50.032Z</time></trkpt><trkpt lat="45.399775" lon="10.72373"><ele>107.19999999999999</ele><time>2026-03-28T10:03:51.033Z</time></trkpt><trkpt lat="45.3998542" lon="10.7238397"><ele>107.80000000000001</ele><time>2026-03-28T10:03:52.031Z</time></trkpt><trkpt lat="45.3999358" lon="10.7239478"><ele>108.4</ele><time>2026-03-28T10:03:53.034Z</time></trkpt><trkpt lat="45.4000213" lon="10.7240572"><ele>109.0</ele><time>2026-03-28T10:03:54.031Z</time></trkpt><trkpt lat="45.4001137" lon="10.7241737"><ele>109.0</ele><time>2026-03-28T10:03:55.031Z</time></trkpt><trkpt lat="45.4002153" lon="10.7242997"><ele>109.0</ele><time>2026-03-28T10:03:56.032Z</time></trkpt><trkpt lat="45.400327" lon="10.7244397"><ele>109.0</ele><time>2026-03-28T10:03:57.033Z</time></trkpt><trkpt lat="45.4004452" lon="10.7245912"><ele>109.0</ele><time>2026-03-28T10:03:58.03Z</time></trkpt><trkpt lat="45.4005675" lon="10.7247487"><ele>109.0</ele><time>2026-03-28T10:03:59.03Z</time></trkpt><trkpt lat="45.4006958" lon="10.724909"><ele>109.0</ele><time>2026-03-28T10:04:00.03Z</time></trkpt><trkpt lat="45.4008282" lon="10.7250645"><ele>109.0</ele><time>2026-03-28T10:04:01.031Z</time></trkpt><trkpt lat="45.4009625" lon="10.7252043"><ele>109.33333333333334</ele><time>2026-03-28T10:04:02.031Z</time></trkpt><trkpt lat="45.4010982" lon="10.7253238"><ele>109.66666666666666</ele><time>2026-03-28T10:04:03.034Z</time></trkpt><trkpt lat="45.4012298" lon="10.7254262"><ele>110.0</ele><time>2026-03-28T10:04:04.032Z</time></trkpt><trkpt lat="45.4013587" lon="10.7255162"><ele>110.0</ele><time>2026-03-28T10:04:05.033Z</time></trkpt><trkpt lat="45.4014927" lon="10.7255868"><ele>110.0</ele><time>2026-03-28T10:04:06.032Z</time></trkpt><trkpt lat="45.4016353" lon="10.7256282"><ele>110.0</ele><time>2026-03-28T10:04:07.032Z</time></trkpt><trkpt lat="45.4017845" lon="10.7256495"><ele>110.0</ele><time>2026-03-28T10:04:08.031Z</time></trkpt><trkpt lat="45.4019367" lon="10.7256657"><ele>110.0</ele><time>2026-03-28T10:04:09.031Z</time></trkpt><trkpt lat="45.4020905" lon="10.725682"><ele>110.0</ele><time>2026-03-28T10:04:10.033Z</time></trkpt><trkpt lat="45.4022398" lon="10.7256962"><ele>110.0</ele><time>2026-03-28T10:04:11.03Z</time></trkpt><trkpt lat="45.4023842" lon="10.72571"><ele>110.0</ele><time>2026-03-28T10:04:12.029Z</time></trkpt><trkpt lat="45.4025253" lon="10.7257247"><ele>110.6</ele><time>2026-03-28T10:04:13.029Z</time></trkpt><trkpt lat="45.4026535" lon="10.72574"><ele>111.2</ele><time>2026-03-28T10:04:14.031Z</time></trkpt><trkpt lat="45.4027637" lon="10.7257555"><ele>111.80000000000001</ele><time>2026-03-28T10:04:15.029Z</time></trkpt><trkpt lat="45.4028578" lon="10.7257717"><ele>112.4</ele><time>2026-03-28T10:04:16.029Z</time></trkpt><trkpt lat="45.4029373" lon="10.7257902"><ele>113.0</ele><time>2026-03-28T10:04:17.029Z</time></trkpt><trkpt lat="45.403005" lon="10.7258168"><ele>112.4</ele><time>2026-03-28T10:04:18.028Z</time></trkpt><trkpt lat="45.4030793" lon="10.7258595"><ele>111.80000000000001</ele><time>2026-03-28T10:04:19.029Z</time></trkpt><trkpt lat="45.403157" lon="10.7259307"><ele>111.2</ele><time>2026-03-28T10:04:20.032Z</time></trkpt><trkpt lat="45.4032318" lon="10.7260372"><ele>110.6</ele><time>2026-03-28T10:04:21.03Z</time></trkpt><trkpt lat="45.403295" lon="10.726171"><ele>110.0</ele><time>2026-03-28T10:04:22.03Z</time></trkpt><trkpt lat="45.4033508" lon="10.726317"><ele>110.0</ele><time>2026-03-28T10:04:23.03Z</time></trkpt><trkpt lat="45.4034022" lon="10.7264625"><ele>110.0</ele><time>2026-03-28T10:04:24.027Z</time></trkpt><trkpt lat="45.403462" lon="10.7266082"><ele>110.0</ele><time>2026-03-28T10:04:25.031Z</time></trkpt><trkpt lat="45.4035352" lon="10.7267488"><ele>110.0</ele><time>2026-03-28T10:04:26.032Z</time></trkpt><trkpt lat="45.4036175" lon="10.7268782"><ele>110.5</ele><time>2026-03-28T10:04:27.032Z</time></trkpt><trkpt lat="45.4037065" lon="10.7269988"><ele>111.0</ele><time>2026-03-28T10:04:28.035Z</time></trkpt><trkpt lat="45.4038027" lon="10.727117"><ele>111.5</ele><time>2026-03-28T10:04:29.03Z</time></trkpt><trkpt lat="45.4038963" lon="10.7272453"><ele>112.0</ele><time>2026-03-28T10:04:30.034Z</time></trkpt><trkpt lat="45.4039802" lon="10.7273965"><ele>112.0</ele><time>2026-03-28T10:04:31.032Z</time></trkpt><trkpt lat="45.404052" lon="10.727565"><ele>112.0</ele><time>2026-03-28T10:04:32.032Z</time></trkpt><trkpt lat="45.4041233" lon="10.7277543"><ele>112.0</ele><time>2026-03-28T10:04:33.031Z</time></trkpt><trkpt lat="45.4041958" lon="10.727946"><ele>112.0</ele><time>2026-03-28T10:04:34.032Z</time></trkpt><trkpt lat="45.4042698" lon="10.7281462"><ele>112.0</ele><time>2026-03-28T10:04:35.031Z</time></trkpt><trkpt lat="45.4043377" lon="10.728343"><ele>112.0</ele><time>2026-03-28T10:04:36.031Z</time></trkpt><trkpt lat="45.4043995" lon="10.7285255"><ele>112.0</ele><time>2026-03-28T10:04:37.031Z</time></trkpt><trkpt lat="45.4044598" lon="10.7286868"><ele>112.0</ele><time>2026-03-28T10:04:38.032Z</time></trkpt><trkpt lat="45.4045185" lon="10.7288265"><ele>111.8</ele><time>2026-03-28T10:04:39.031Z</time></trkpt><trkpt lat="45.4045723" lon="10.7289415"><ele>111.6</ele><time>2026-03-28T10:04:40.033Z</time></trkpt><trkpt lat="45.404618" lon="10.729034"><ele>111.39999999999999</ele><time>2026-03-28T10:04:41.031Z</time></trkpt><trkpt lat="45.404672" lon="10.7291525"><ele>111.19999999999999</ele><time>2026-03-28T10:04:43.032Z</time></trkpt><trkpt lat="45.4047315" lon="10.729225"><ele>111.0</ele><time>2026-03-28T10:05:44.031Z</time></trkpt><trkpt lat="45.404827" lon="10.7293433"><ele>111.19999999999999</ele><time>2026-03-28T10:05:46.032Z</time></trkpt><trkpt lat="45.4048895" lon="10.7294335"><ele>111.39999999999999</ele><time>2026-03-28T10:05:47.031Z</time></trkpt><trkpt lat="45.4049602" lon="10.7295368"><ele>111.6</ele><time>2026-03-28T10:05:48.036Z</time></trkpt><trkpt lat="45.4050363" lon="10.7296528"><ele>111.8</ele><time>2026-03-28T10:05:49.032Z</time></trkpt><trkpt lat="45.4051178" lon="10.7297805"><ele>112.0</ele><time>2026-03-28T10:05:50.036Z</time></trkpt><trkpt lat="45.4052075" lon="10.72992"><ele>112.0</ele><time>2026-03-28T10:05:51.036Z</time></trkpt><trkpt lat="45.4053035" lon="10.7300705"><ele>112.0</ele><time>2026-03-28T10:05:52.037Z</time></trkpt><trkpt lat="45.4054043" lon="10.73023"><ele>112.0</ele><time>2026-03-28T10:05:53.032Z</time></trkpt><trkpt lat="45.4055025" lon="10.7303835"><ele>112.0</ele><time>2026-03-28T10:05:54.031Z</time></trkpt><trkpt lat="45.4055982" lon="10.7305253"><ele>111.5</ele><time>2026-03-28T10:05:55.033Z</time></trkpt><trkpt lat="45.4056893" lon="10.7306598"><ele>111.0</ele><time>2026-03-28T10:05:56.032Z</time></trkpt><trkpt lat="45.4057823" lon="10.730794"><ele>110.5</ele><time>2026-03-28T10:05:57.031Z</time></trkpt><trkpt lat="45.4058848" lon="10.730939"><ele>110.0</ele><time>2026-03-28T10:05:58.032Z</time></trkpt><trkpt lat="45.4059942" lon="10.7310992"><ele>108.75</ele><time>2026-03-28T10:05:59.035Z</time></trkpt><trkpt lat="45.4060923" lon="10.7312597"><ele>107.5</ele><time>2026-03-28T10:06:00.03Z</time></trkpt><trkpt lat="45.4061738" lon="10.7314287"><ele>106.25</ele><time>2026-03-28T10:06:01.029Z</time></trkpt><trkpt lat="45.40624" lon="10.7316228"><ele>105.0</ele><time>2026-03-28T10:06:02.031Z</time></trkpt><trkpt lat="45.4062908" lon="10.7318493"><ele>106.33333333333334</ele><time>2026-03-28T10:06:03.03Z</time></trkpt><trkpt lat="45.4063297" lon="10.7321082"><ele>107.66666666666667</ele><time>2026-03-28T10:06:04.033Z</time></trkpt><trkpt lat="45.406363" lon="10.7323798"><ele>109.0</ele><time>2026-03-28T10:06:05.035Z</time></trkpt><trkpt lat="45.406396" lon="10.732643"><ele>108.33333333333334</ele><time>2026-03-28T10:06:06.032Z</time></trkpt><trkpt lat="45.4064288" lon="10.732901"><ele>107.66666666666666</ele><time>2026-03-28T10:06:07.028Z</time></trkpt><trkpt lat="45.4064593" lon="10.7331468"><ele>107.0</ele><time>2026-03-28T10:06:08.029Z</time></trkpt><trkpt lat="45.4064928" lon="10.7333803"><ele>106.75</ele><time>2026-03-28T10:06:09.033Z</time></trkpt><trkpt lat="45.4065392" lon="10.7335965"><ele>106.5</ele><time>2026-03-28T10:06:10.034Z</time></trkpt><trkpt lat="45.4065945" lon="10.7337715"><ele>106.25</ele><time>2026-03-28T10:06:11.033Z</time></trkpt><trkpt lat="45.4066498" lon="10.733917"><ele>106.0</ele><time>2026-03-28T10:06:12.031Z</time></trkpt><trkpt lat="45.4067087" lon="10.7340655"><ele>106.0</ele><time>2026-03-28T10:06:13.035Z</time></trkpt><trkpt lat="45.4067718" lon="10.7342288"><ele>106.0</ele><time>2026-03-28T10:06:14.032Z</time></trkpt><trkpt lat="45.40684" lon="10.7344077"><ele>106.0</ele><time>2026-03-28T10:06:15.031Z</time></trkpt><trkpt lat="45.406915" lon="10.734602"><ele>106.0</ele><time>2026-03-28T10:06:16.033Z</time></trkpt><trkpt lat="45.4069937" lon="10.734808"><ele>106.33333333333334</ele><time>2026-03-28T10:06:17.031Z</time></trkpt><trkpt lat="45.4070727" lon="10.7350163"><ele>106.66666666666666</ele><time>2026-03-28T10:06:18.03Z</time></trkpt><trkpt lat="45.4071482" lon="10.7352337"><ele>107.0</ele><time>2026-03-28T10:06:19.031Z</time></trkpt><trkpt lat="45.4072188" lon="10.7354717"><ele>106.66666666666666</ele><time>2026-03-28T10:06:20.029Z</time></trkpt><trkpt lat="45.407285" lon="10.7357352"><ele>106.33333333333334</ele><time>2026-03-28T10:06:21.03Z</time></trkpt><trkpt lat="45.4073483" lon="10.7360092"><ele>106.0</ele><time>2026-03-28T10:06:22.03Z</time></trkpt><trkpt lat="45.4074067" lon="10.7362785"><ele>106.0</ele><time>2026-03-28T10:06:23.031Z</time></trkpt><trkpt lat="45.4074593" lon="10.7365367"><ele>106.0</ele><time>2026-03-28T10:06:24.03Z</time></trkpt><trkpt lat="45.4075013" lon="10.7367883"><ele>106.0</ele><time>2026-03-28T10:06:25.029Z</time></trkpt><trkpt lat="45.4075273" lon="10.737046"><ele>105.33333333333334</ele><time>2026-03-28T10:06:26.028Z</time></trkpt><trkpt lat="45.407536" lon="10.7373138"><ele>104.66666666666666</ele><time>2026-03-28T10:06:27.028Z</time></trkpt><trkpt lat="45.4075278" lon="10.737589"><ele>104.0</ele><time>2026-03-28T10:06:28.027Z</time></trkpt><trkpt lat="45.4075045" lon="10.7378712"><ele>103.33333333333333</ele><time>2026-03-28T10:06:29.029Z</time></trkpt><trkpt lat="45.4074723" lon="10.7381548"><ele>102.66666666666666</ele><time>2026-03-28T10:06:30.031Z</time></trkpt><trkpt lat="45.4074365" lon="10.7384358"><ele>102.0</ele><time>2026-03-28T10:06:31.031Z</time></trkpt><trkpt lat="45.4074027" lon="10.7387083"><ele>102.0</ele><time>2026-03-28T10:06:32.034Z</time></trkpt><trkpt lat="45.4073698" lon="10.7389727"><ele>102.0</ele><time>2026-03-28T10:06:33.03Z</time></trkpt><trkpt lat="45.4073433" lon="10.7392365"><ele>102.0</ele><time>2026-03-28T10:06:34.031Z</time></trkpt><trkpt lat="45.4073295" lon="10.7395045"><ele>102.0</ele><time>2026-03-28T10:06:35.03Z</time></trkpt><trkpt lat="45.4073255" lon="10.7397772"><ele>102.0</ele><time>2026-03-28T10:06:36.029Z</time></trkpt><trkpt lat="45.407324" lon="10.740055"><ele>102.0</ele><time>2026-03-28T10:06:37.029Z</time></trkpt><trkpt lat="45.4073237" lon="10.7403408"><ele>101.33333333333334</ele><time>2026-03-28T10:06:38.028Z</time></trkpt><trkpt lat="45.4073183" lon="10.7406368"><ele>100.66666666666667</ele><time>2026-03-28T10:06:39.029Z</time></trkpt><trkpt lat="45.4073113" lon="10.7409233"><ele>100.0</ele><time>2026-03-28T10:06:40.028Z</time></trkpt><trkpt lat="45.4073062" lon="10.7412012"><ele>100.0</ele><time>2026-03-28T10:06:41.03Z</time></trkpt><trkpt lat="45.4073033" lon="10.7414767"><ele>100.0</ele><time>2026-03-28T10:06:42.03Z</time></trkpt><trkpt lat="45.4073022" lon="10.741747"><ele>100.0</ele><time>2026-03-28T10:06:43.032Z</time></trkpt><trkpt lat="45.4073023" lon="10.7420052"><ele>99.33333333333334</ele><time>2026-03-28T10:06:44.03Z</time></trkpt><trkpt lat="45.4073047" lon="10.7422558"><ele>98.66666666666666</ele><time>2026-03-28T10:06:45.03Z</time></trkpt><trkpt lat="45.4073065" lon="10.7425077"><ele>98.0</ele><time>2026-03-28T10:06:46.029Z</time></trkpt><trkpt lat="45.4073112" lon="10.7427733"><ele>97.66666666666666</ele><time>2026-03-28T10:06:47.03Z</time></trkpt><trkpt lat="45.4073157" lon="10.7430575"><ele>97.33333333333334</ele><time>2026-03-28T10:06:48.03Z</time></trkpt><trkpt lat="45.4073165" lon="10.7433607"><ele>97.0</ele><time>2026-03-28T10:06:49.029Z</time></trkpt><trkpt lat="45.4073177" lon="10.7436775"><ele>96.5</ele><time>2026-03-28T10:06:50.029Z</time></trkpt><trkpt lat="45.407321" lon="10.7440002"><ele>96.0</ele><time>2026-03-28T10:06:51.028Z</time></trkpt><trkpt lat="45.4073247" lon="10.7443195"><ele>96.0</ele><time>2026-03-28T10:06:52.028Z</time></trkpt><trkpt lat="45.407329" lon="10.7446325"><ele>96.0</ele><time>2026-03-28T10:06:53.028Z</time></trkpt><trkpt lat="45.407334" lon="10.7449385"><ele>96.0</ele><time>2026-03-28T10:06:54.031Z</time></trkpt><trkpt lat="45.4073415" lon="10.7452405"><ele>95.66666666666667</ele><time>2026-03-28T10:06:55.03Z</time></trkpt><trkpt lat="45.4073497" lon="10.7455388"><ele>95.33333333333334</ele><time>2026-03-28T10:06:56.031Z</time></trkpt><trkpt lat="45.4073567" lon="10.7458297"><ele>95.0</ele><time>2026-03-28T10:06:57.03Z</time></trkpt><trkpt lat="45.4073613" lon="10.7461065"><ele>95.0</ele><time>2026-03-28T10:06:58.032Z</time></trkpt><trkpt lat="45.4073633" lon="10.7463665"><ele>95.0</ele><time>2026-03-28T10:06:59.03Z</time></trkpt><trkpt lat="45.4073632" lon="10.746604"><ele>95.0</ele><time>2026-03-28T10:07:00.03Z</time></trkpt><trkpt lat="45.4073652" lon="10.7468192"><ele>95.0</ele><time>2026-03-28T10:07:01.031Z</time></trkpt><trkpt lat="45.4073748" lon="10.7470192"><ele>95.0</ele><time>2026-03-28T10:07:02.033Z</time></trkpt><trkpt lat="45.4073963" lon="10.7472023"><ele>95.0</ele><time>2026-03-28T10:07:03.031Z</time></trkpt><trkpt lat="45.407425" lon="10.747366"><ele>95.0</ele><time>2026-03-28T10:07:04.03Z</time></trkpt><trkpt lat="45.407436" lon="10.7475138"><ele>95.0</ele><time>2026-03-28T10:07:05.033Z</time></trkpt><trkpt lat="45.4074202" lon="10.7476467"><ele>95.0</ele><time>2026-03-28T10:07:06.031Z</time></trkpt><trkpt lat="45.4073845" lon="10.747771"><ele>95.0</ele><time>2026-03-28T10:07:07.034Z</time></trkpt><trkpt lat="45.407361" lon="10.7478927"><ele>95.0</ele><time>2026-03-28T10:07:08.03Z</time></trkpt><trkpt lat="45.407372" lon="10.7480082"><ele>95.0</ele><time>2026-03-28T10:07:09.032Z</time></trkpt><trkpt lat="45.4074207" lon="10.7480992"><ele>95.0</ele><time>2026-03-28T10:07:10.035Z</time></trkpt><trkpt lat="45.4074992" lon="10.7481393"><ele>95.25</ele><time>2026-03-28T10:07:11.031Z</time></trkpt><trkpt lat="45.4075955" lon="10.7481232"><ele>95.5</ele><time>2026-03-28T10:07:12.032Z</time></trkpt><trkpt lat="45.4077133" lon="10.7480842"><ele>95.75</ele><time>2026-03-28T10:07:13.031Z</time></trkpt><trkpt lat="45.4078543" lon="10.748063"><ele>96.0</ele><time>2026-03-28T10:07:14.029Z</time></trkpt><trkpt lat="45.4080033" lon="10.7480687"><ele>96.0</ele><time>2026-03-28T10:07:15.028Z</time></trkpt><trkpt lat="45.4081722" lon="10.748079"><ele>96.0</ele><time>2026-03-28T10:07:16.029Z</time></trkpt><trkpt lat="45.4083557" lon="10.7480937"><ele>96.0</ele><time>2026-03-28T10:07:17.03Z</time></trkpt><trkpt lat="45.4085408" lon="10.7481062"><ele>96.0</ele><time>2026-03-28T10:07:18.031Z</time></trkpt><trkpt lat="45.4087388" lon="10.748121"><ele>96.0</ele><time>2026-03-28T10:07:19.034Z</time></trkpt><trkpt lat="45.4089447" lon="10.7481315"><ele>96.0</ele><time>2026-03-28T10:07:20.03Z</time></trkpt><trkpt lat="45.4091498" lon="10.7481397"><ele>96.0</ele><time>2026-03-28T10:07:21.03Z</time></trkpt><trkpt lat="45.409359" lon="10.7481465"><ele>96.0</ele><time>2026-03-28T10:07:22.033Z</time></trkpt><trkpt lat="45.4095585" lon="10.7481523"><ele>96.0</ele><time>2026-03-28T10:07:23.03Z</time></trkpt><trkpt lat="45.4097442" lon="10.7481615"><ele>96.66666666666666</ele><time>2026-03-28T10:07:24.031Z</time></trkpt><trkpt lat="45.4099182" lon="10.748177"><ele>97.33333333333333</ele><time>2026-03-28T10:07:25.032Z</time></trkpt><trkpt lat="45.4100943" lon="10.7481947"><ele>98.0</ele><time>2026-03-28T10:07:26.031Z</time></trkpt><trkpt lat="45.4102827" lon="10.7482113"><ele>98.0</ele><time>2026-03-28T10:07:27.031Z</time></trkpt><trkpt lat="45.4104828" lon="10.7482335"><ele>98.0</ele><time>2026-03-28T10:07:28.033Z</time></trkpt><trkpt lat="45.4106963" lon="10.748258"><ele>98.0</ele><time>2026-03-28T10:07:29.032Z</time></trkpt><trkpt lat="45.4109155" lon="10.7482832"><ele>98.66666666666666</ele><time>2026-03-28T10:07:30.03Z</time></trkpt><trkpt lat="45.4111265" lon="10.7483067"><ele>99.33333333333334</ele><time>2026-03-28T10:07:31.032Z</time></trkpt><trkpt lat="45.4113372" lon="10.74833"><ele>100.0</ele><time>2026-03-28T10:07:32.032Z</time></trkpt><trkpt lat="45.411549" lon="10.7483555"><ele>100.33333333333334</ele><time>2026-03-28T10:07:33.031Z</time></trkpt><trkpt lat="45.4117622" lon="10.7483822"><ele>100.66666666666666</ele><time>2026-03-28T10:07:34.03Z</time></trkpt><trkpt lat="45.4119757" lon="10.7484093"><ele>101.0</ele><time>2026-03-28T10:07:35.031Z</time></trkpt><trkpt lat="45.4121893" lon="10.7484358"><ele>101.0</ele><time>2026-03-28T10:07:36.031Z</time></trkpt><trkpt lat="45.4124033" lon="10.7484603"><ele>101.0</ele><time>2026-03-28T10:07:37.032Z</time></trkpt><trkpt lat="45.4126158" lon="10.7484872"><ele>101.0</ele><time>2026-03-28T10:07:38.029Z</time></trkpt><trkpt lat="45.412825" lon="10.7485177"><ele>102.66666666666666</ele><time>2026-03-28T10:07:39.029Z</time></trkpt><trkpt lat="45.4130318" lon="10.7485533"><ele>104.33333333333334</ele><time>2026-03-28T10:07:40.03Z</time></trkpt><trkpt lat="45.4132385" lon="10.7485988"><ele>106.0</ele><time>2026-03-28T10:07:41.029Z</time></trkpt><trkpt lat="45.4134455" lon="10.7486535"><ele>106.0</ele><time>2026-03-28T10:07:42.029Z</time></trkpt><trkpt lat="45.413651" lon="10.7487173"><ele>106.0</ele><time>2026-03-28T10:07:43.032Z</time></trkpt><trkpt lat="45.4138518" lon="10.7487967"><ele>106.0</ele><time>2026-03-28T10:07:44.03Z</time></trkpt><trkpt lat="45.4140522" lon="10.7488822"><ele>105.0</ele><time>2026-03-28T10:07:45.032Z</time></trkpt><trkpt lat="45.4142548" lon="10.7489632"><ele>104.0</ele><time>2026-03-28T10:07:46.032Z</time></trkpt><trkpt lat="45.4144602" lon="10.7490317"><ele>103.0</ele><time>2026-03-28T10:07:47.031Z</time></trkpt><trkpt lat="45.414667" lon="10.7490868"><ele>102.66666666666667</ele><time>2026-03-28T10:07:48.033Z</time></trkpt><trkpt lat="45.4148717" lon="10.749136"><ele>102.33333333333334</ele><time>2026-03-28T10:07:49.033Z</time></trkpt><trkpt lat="45.4150722" lon="10.7491928"><ele>102.0</ele><time>2026-03-28T10:07:50.031Z</time></trkpt><trkpt lat="45.4152707" lon="10.7492627"><ele>102.0</ele><time>2026-03-28T10:07:51.031Z</time></trkpt><trkpt lat="45.4154705" lon="10.7493437"><ele>102.0</ele><time>2026-03-28T10:07:52.033Z</time></trkpt><trkpt lat="45.4156755" lon="10.7494313"><ele>102.0</ele><time>2026-03-28T10:07:53.03Z</time></trkpt><trkpt lat="45.4158845" lon="10.7495193"><ele>102.5</ele><time>2026-03-28T10:07:54.032Z</time></trkpt><trkpt lat="45.4161037" lon="10.7495945"><ele>103.0</ele><time>2026-03-28T10:07:55.032Z</time></trkpt><trkpt lat="45.416333" lon="10.7496387"><ele>102.0</ele><time>2026-03-28T10:07:56.034Z</time></trkpt><trkpt lat="45.4165727" lon="10.7496568"><ele>101.0</ele><time>2026-03-28T10:07:57.032Z</time></trkpt><trkpt lat="45.4168142" lon="10.7496655"><ele>101.0</ele><time>2026-03-28T10:07:58.033Z</time></trkpt><trkpt lat="45.4170513" lon="10.749678"><ele>101.0</ele><time>2026-03-28T10:07:59.033Z</time></trkpt><trkpt lat="45.4172838" lon="10.7497073"><ele>101.0</ele><time>2026-03-28T10:08:00.032Z</time></trkpt><trkpt lat="45.417515" lon="10.7497565"><ele>101.0</ele><time>2026-03-28T10:08:01.033Z</time></trkpt><trkpt lat="45.417748" lon="10.7498178"><ele>101.0</ele><time>2026-03-28T10:08:02.032Z</time></trkpt><trkpt lat="45.4179827" lon="10.7498868"><ele>101.0</ele><time>2026-03-28T10:08:03.032Z</time></trkpt><trkpt lat="45.4182212" lon="10.7499582"><ele>102.0</ele><time>2026-03-28T10:08:04.031Z</time></trkpt><trkpt lat="45.418463" lon="10.7500312"><ele>103.0</ele><time>2026-03-28T10:08:05.03Z</time></trkpt><trkpt lat="45.4187063" lon="10.7501082"><ele>102.5</ele><time>2026-03-28T10:08:06.03Z</time></trkpt><trkpt lat="45.418951" lon="10.750185"><ele>102.0</ele><time>2026-03-28T10:08:07.034Z</time></trkpt><trkpt lat="45.4191958" lon="10.7502615"><ele>102.0</ele><time>2026-03-28T10:08:08.033Z</time></trkpt><trkpt lat="45.4194403" lon="10.7503355"><ele>102.0</ele><time>2026-03-28T10:08:09.033Z</time></trkpt><trkpt lat="45.4196835" lon="10.7504117"><ele>102.0</ele><time>2026-03-28T10:08:10.031Z</time></trkpt><trkpt lat="45.4199257" lon="10.7504973"><ele>102.0</ele><time>2026-03-28T10:08:11.031Z</time></trkpt><trkpt lat="45.4201665" lon="10.7505975"><ele>102.0</ele><time>2026-03-28T10:08:12.031Z</time></trkpt><trkpt lat="45.4204042" lon="10.7507195"><ele>102.0</ele><time>2026-03-28T10:08:13.032Z</time></trkpt><trkpt lat="45.420641" lon="10.7508602"><ele>102.0</ele><time>2026-03-28T10:08:14.034Z</time></trkpt><trkpt lat="45.4208793" lon="10.75101"><ele>102.0</ele><time>2026-03-28T10:08:15.033Z</time></trkpt><trkpt lat="45.4211158" lon="10.7511658"><ele>102.0</ele><time>2026-03-28T10:08:16.033Z</time></trkpt><trkpt lat="45.4213493" lon="10.7513322"><ele>102.0</ele><time>2026-03-28T10:08:17.031Z</time></trkpt><trkpt lat="45.4215772" lon="10.7515042"><ele>102.0</ele><time>2026-03-28T10:08:18.031Z</time></trkpt><trkpt lat="45.4217973" lon="10.7516725"><ele>102.0</ele><time>2026-03-28T10:08:19.032Z</time></trkpt><trkpt lat="45.4220112" lon="10.7518363"><ele>102.5</ele><time>2026-03-28T10:08:20.031Z</time></trkpt><trkpt lat="45.4222207" lon="10.7519985"><ele>103.0</ele><time>2026-03-28T10:08:21.032Z</time></trkpt><trkpt lat="45.4224267" lon="10.7521657"><ele>103.0</ele><time>2026-03-28T10:08:22.031Z</time></trkpt><trkpt lat="45.4226285" lon="10.7523427"><ele>103.0</ele><time>2026-03-28T10:08:23.032Z</time></trkpt><trkpt lat="45.4228287" lon="10.7525272"><ele>102.5</ele><time>2026-03-28T10:08:24.031Z</time></trkpt><trkpt lat="45.4230295" lon="10.752714"><ele>102.0</ele><time>2026-03-28T10:08:25.031Z</time></trkpt><trkpt lat="45.4232328" lon="10.7529017"><ele>102.0</ele><time>2026-03-28T10:08:26.033Z</time></trkpt><trkpt lat="45.4234353" lon="10.7530888"><ele>102.0</ele><time>2026-03-28T10:08:27.029Z</time></trkpt><trkpt lat="45.4236302" lon="10.7532703"><ele>102.0</ele><time>2026-03-28T10:08:28.028Z</time></trkpt><trkpt lat="45.423812" lon="10.753443"><ele>102.0</ele><time>2026-03-28T10:08:29.029Z</time></trkpt><trkpt lat="45.423979" lon="10.753602"><ele>102.0</ele><time>2026-03-28T10:08:30.029Z</time></trkpt><trkpt lat="45.4241278" lon="10.7537408"><ele>102.0</ele><time>2026-03-28T10:08:31.032Z</time></trkpt><trkpt lat="45.4242547" lon="10.7538585"><ele>102.0</ele><time>2026-03-28T10:08:32.032Z</time></trkpt><trkpt lat="45.4243563" lon="10.7539605"><ele>102.0</ele><time>2026-03-28T10:08:33.032Z</time></trkpt><trkpt lat="45.4244318" lon="10.754054"><ele>102.0</ele><time>2026-03-28T10:08:34.037Z</time></trkpt><trkpt lat="45.4244785" lon="10.7541547"><ele>102.0</ele><time>2026-03-28T10:08:35.032Z</time></trkpt><trkpt lat="45.424503" lon="10.7542752"><ele>102.0</ele><time>2026-03-28T10:08:36.032Z</time></trkpt><trkpt lat="45.4245293" lon="10.754399"><ele>102.0</ele><time>2026-03-28T10:08:37.033Z</time></trkpt><trkpt lat="45.4245768" lon="10.7544948"><ele>102.0</ele><time>2026-03-28T10:08:38.033Z</time></trkpt><trkpt lat="45.4246508" lon="10.754582"><ele>102.0</ele><time>2026-03-28T10:08:39.031Z</time></trkpt><trkpt lat="45.4247443" lon="10.7546822"><ele>101.0</ele><time>2026-03-28T10:08:40.031Z</time></trkpt><trkpt lat="45.4248457" lon="10.754825"><ele>100.0</ele><time>2026-03-28T10:08:41.03Z</time></trkpt><trkpt lat="45.4249598" lon="10.7550032"><ele>99.0</ele><time>2026-03-28T10:08:42.031Z</time></trkpt><trkpt lat="45.4250872" lon="10.7551738"><ele>100.0</ele><time>2026-03-28T10:08:43.036Z</time></trkpt><trkpt lat="45.425239" lon="10.7553417"><ele>101.0</ele><time>2026-03-28T10:08:44.032Z</time></trkpt><trkpt lat="45.4254088" lon="10.7554997"><ele>102.0</ele><time>2026-03-28T10:08:45.033Z</time></trkpt><trkpt lat="45.4255892" lon="10.7556457"><ele>102.0</ele><time>2026-03-28T10:08:46.033Z</time></trkpt><trkpt lat="45.4257828" lon="10.7557885"><ele>102.0</ele><time>2026-03-28T10:08:47.033Z</time></trkpt><trkpt lat="45.4259803" lon="10.7559318"><ele>102.0</ele><time>2026-03-28T10:08:48.033Z</time></trkpt><trkpt lat="45.4261775" lon="10.7560753"><ele>101.66666666666666</ele><time>2026-03-28T10:08:49.033Z</time></trkpt><trkpt lat="45.4263693" lon="10.7562152"><ele>101.33333333333333</ele><time>2026-03-28T10:08:50.032Z</time></trkpt><trkpt lat="45.426554" lon="10.756349"><ele>101.0</ele><time>2026-03-28T10:08:51.031Z</time></trkpt><trkpt lat="45.4267317" lon="10.7564787"><ele>101.0</ele><time>2026-03-28T10:08:52.029Z</time></trkpt><trkpt lat="45.426898" lon="10.7566003"><ele>101.0</ele><time>2026-03-28T10:08:53.031Z</time></trkpt><trkpt lat="45.427057" lon="10.756717"><ele>101.0</ele><time>2026-03-28T10:08:54.031Z</time></trkpt><trkpt lat="45.4272117" lon="10.7568323"><ele>101.0</ele><time>2026-03-28T10:08:55.03Z</time></trkpt><trkpt lat="45.4273645" lon="10.7569452"><ele>101.0</ele><time>2026-03-28T10:08:56.033Z</time></trkpt><trkpt lat="45.427517" lon="10.7570528"><ele>101.0</ele><time>2026-03-28T10:08:57.032Z</time></trkpt><trkpt lat="45.4276708" lon="10.7571488"><ele>101.0</ele><time>2026-03-28T10:08:58.034Z</time></trkpt><trkpt lat="45.4278248" lon="10.757229"><ele>101.0</ele><time>2026-03-28T10:08:59.035Z</time></trkpt><trkpt lat="45.4279735" lon="10.7572937"><ele>101.0</ele><time>2026-03-28T10:09:00.032Z</time></trkpt><trkpt lat="45.4281143" lon="10.7573508"><ele>101.19999999999999</ele><time>2026-03-28T10:09:01.033Z</time></trkpt><trkpt lat="45.428241" lon="10.7573997"><ele>101.39999999999999</ele><time>2026-03-28T10:09:02.034Z</time></trkpt><trkpt lat="45.4283505" lon="10.7574438"><ele>101.6</ele><time>2026-03-28T10:09:03.034Z</time></trkpt><trkpt lat="45.4284457" lon="10.7574977"><ele>101.8</ele><time>2026-03-28T10:09:04.033Z</time></trkpt><trkpt lat="45.4285302" lon="10.7575688"><ele>102.0</ele><time>2026-03-28T10:09:05.031Z</time></trkpt><trkpt lat="45.4286098" lon="10.7576353"><ele>102.0</ele><time>2026-03-28T10:09:06.032Z</time></trkpt><trkpt lat="45.4286858" lon="10.7576673"><ele>102.0</ele><time>2026-03-28T10:09:07.033Z</time></trkpt><trkpt lat="45.4287592" lon="10.7576582"><ele>102.0</ele><time>2026-03-28T10:09:08.035Z</time></trkpt><trkpt lat="45.4288293" lon="10.757611"><ele>102.0</ele><time>2026-03-28T10:09:09.031Z</time></trkpt><trkpt lat="45.4288992" lon="10.7575483"><ele>102.0</ele><time>2026-03-28T10:09:10.031Z</time></trkpt><trkpt lat="45.4289728" lon="10.7575067"><ele>102.0</ele><time>2026-03-28T10:09:11.03Z</time></trkpt><trkpt lat="45.4290508" lon="10.7574942"><ele>102.5</ele><time>2026-03-28T10:09:12.032Z</time></trkpt><trkpt lat="45.4291497" lon="10.7574993"><ele>103.0</ele><time>2026-03-28T10:09:14.032Z</time></trkpt><trkpt lat="45.4292442" lon="10.757525"><ele>103.5</ele><time>2026-03-28T10:09:17.03Z</time></trkpt><trkpt lat="45.4293478" lon="10.7575583"><ele>104.0</ele><time>2026-03-28T10:09:19.029Z</time></trkpt><trkpt lat="45.429411" lon="10.7575712"><ele>104.5</ele><time>2026-03-28T10:09:20.03Z</time></trkpt><trkpt lat="45.4294877" lon="10.757588"><ele>105.0</ele><time>2026-03-28T10:09:21.031Z</time></trkpt><trkpt lat="45.4295715" lon="10.7576152"><ele>104.5</ele><time>2026-03-28T10:09:22.031Z</time></trkpt><trkpt lat="45.4296695" lon="10.7576505"><ele>104.0</ele><time>2026-03-28T10:09:23.032Z</time></trkpt><trkpt lat="45.4297843" lon="10.7576962"><ele>103.5</ele><time>2026-03-28T10:09:24.032Z</time></trkpt><trkpt lat="45.4299093" lon="10.7577475"><ele>103.0</ele><time>2026-03-28T10:09:25.031Z</time></trkpt><trkpt lat="45.4300397" lon="10.7578035"><ele>102.75</ele><time>2026-03-28T10:09:26.031Z</time></trkpt><trkpt lat="45.4301708" lon="10.7578578"><ele>102.5</ele><time>2026-03-28T10:09:27.03Z</time></trkpt><trkpt lat="45.4302985" lon="10.7579015"><ele>102.25</ele><time>2026-03-28T10:09:28.03Z</time></trkpt><trkpt lat="45.430427" lon="10.7579332"><ele>102.0</ele><time>2026-03-28T10:09:29.031Z</time></trkpt><trkpt lat="45.4305383" lon="10.757962"><ele>102.39999999999999</ele><time>2026-03-28T10:09:30.029Z</time></trkpt><trkpt lat="45.4306235" lon="10.7579845"><ele>102.8</ele><time>2026-03-28T10:09:31.03Z</time></trkpt><trkpt lat="45.4307172" lon="10.7580148"><ele>103.2</ele><time>2026-03-28T10:09:33.027Z</time></trkpt><trkpt lat="45.4308167" lon="10.7580562"><ele>103.6</ele><time>2026-03-28T10:09:35.027Z</time></trkpt><trkpt lat="45.430927" lon="10.7581"><ele>104.0</ele><time>2026-03-28T10:09:37.027Z</time></trkpt><trkpt lat="45.4309892" lon="10.7581165"><ele>104.0</ele><time>2026-03-28T10:09:38.028Z</time></trkpt><trkpt lat="45.4310613" lon="10.7581372"><ele>104.0</ele><time>2026-03-28T10:09:39.027Z</time></trkpt><trkpt lat="45.4311538" lon="10.7581635"><ele>104.0</ele><time>2026-03-28T10:09:40.034Z</time></trkpt><trkpt lat="45.431264" lon="10.758199"><ele>104.0</ele><time>2026-03-28T10:09:41.032Z</time></trkpt><trkpt lat="45.4313728" lon="10.7582455"><ele>104.0</ele><time>2026-03-28T10:09:42.029Z</time></trkpt><trkpt lat="45.4314858" lon="10.7583057"><ele>103.75</ele><time>2026-03-28T10:09:43.028Z</time></trkpt><trkpt lat="45.4316132" lon="10.75838"><ele>103.5</ele><time>2026-03-28T10:09:44.027Z</time></trkpt><trkpt lat="45.4317417" lon="10.758461"><ele>103.25</ele><time>2026-03-28T10:09:45.031Z</time></trkpt><trkpt lat="45.4318737" lon="10.758547"><ele>103.0</ele><time>2026-03-28T10:09:46.031Z</time></trkpt><trkpt lat="45.432016" lon="10.7586423"><ele>103.0</ele><time>2026-03-28T10:09:47.032Z</time></trkpt><trkpt lat="45.4321628" lon="10.7587417"><ele>103.0</ele><time>2026-03-28T10:09:48.031Z</time></trkpt><trkpt lat="45.4322988" lon="10.7588412"><ele>103.0</ele><time>2026-03-28T10:09:49.032Z</time></trkpt><trkpt lat="45.4324273" lon="10.7589493"><ele>103.0</ele><time>2026-03-28T10:09:50.03Z</time></trkpt><trkpt lat="45.4325568" lon="10.7590643"><ele>103.0</ele><time>2026-03-28T10:09:51.031Z</time></trkpt><trkpt lat="45.4326903" lon="10.759181"><ele>103.0</ele><time>2026-03-28T10:09:52.031Z</time></trkpt><trkpt lat="45.4328265" lon="10.7592997"><ele>103.0</ele><time>2026-03-28T10:09:53.032Z</time></trkpt><trkpt lat="45.4329567" lon="10.7594122"><ele>103.0</ele><time>2026-03-28T10:09:54.03Z</time></trkpt><trkpt lat="45.4330792" lon="10.759515"><ele>103.0</ele><time>2026-03-28T10:09:55.031Z</time></trkpt><trkpt lat="45.4331945" lon="10.7596162"><ele>103.0</ele><time>2026-03-28T10:09:56.032Z</time></trkpt><trkpt lat="45.4333105" lon="10.7597197"><ele>103.0</ele><time>2026-03-28T10:09:57.032Z</time></trkpt><trkpt lat="45.4334305" lon="10.7598203"><ele>103.0</ele><time>2026-03-28T10:09:58.032Z</time></trkpt><trkpt lat="45.4335508" lon="10.7599085"><ele>103.0</ele><time>2026-03-28T10:09:59.034Z</time></trkpt><trkpt lat="45.4336752" lon="10.7599765"><ele>103.0</ele><time>2026-03-28T10:10:00.032Z</time></trkpt><trkpt lat="45.4338002" lon="10.7600182"><ele>103.25</ele><time>2026-03-28T10:10:01.032Z</time></trkpt><trkpt lat="45.4339342" lon="10.760041"><ele>103.5</ele><time>2026-03-28T10:10:02.033Z</time></trkpt><trkpt lat="45.4340723" lon="10.7600475"><ele>103.75</ele><time>2026-03-28T10:10:03.031Z</time></trkpt><trkpt lat="45.4342103" lon="10.7600442"><ele>104.0</ele><time>2026-03-28T10:10:04.033Z</time></trkpt><trkpt lat="45.4343503" lon="10.7600362"><ele>104.0</ele><time>2026-03-28T10:10:05.033Z</time></trkpt><trkpt lat="45.4344927" lon="10.7600247"><ele>104.0</ele><time>2026-03-28T10:10:06.028Z</time></trkpt><trkpt lat="45.4346365" lon="10.7600095"><ele>104.0</ele><time>2026-03-28T10:10:07.028Z</time></trkpt><trkpt lat="45.434774" lon="10.7600028"><ele>104.0</ele><time>2026-03-28T10:10:08.028Z</time></trkpt><trkpt lat="45.4349018" lon="10.7600048"><ele>104.5</ele><time>2026-03-28T10:10:09.028Z</time></trkpt><trkpt lat="45.4350263" lon="10.760016"><ele>105.0</ele><time>2026-03-28T10:10:10.03Z</time></trkpt><trkpt lat="45.4351447" lon="10.7600357"><ele>105.5</ele><time>2026-03-28T10:10:11.031Z</time></trkpt><trkpt lat="45.4352623" lon="10.7600592"><ele>106.0</ele><time>2026-03-28T10:10:12.029Z</time></trkpt><trkpt lat="45.435383" lon="10.7600838"><ele>106.0</ele><time>2026-03-28T10:10:13.03Z</time></trkpt><trkpt lat="45.4355038" lon="10.7601068"><ele>106.0</ele><time>2026-03-28T10:10:14.029Z</time></trkpt><trkpt lat="45.4356203" lon="10.7601277"><ele>106.0</ele><time>2026-03-28T10:10:15.029Z</time></trkpt><trkpt lat="45.4357377" lon="10.7601437"><ele>106.0</ele><time>2026-03-28T10:10:16.03Z</time></trkpt><trkpt lat="45.4358542" lon="10.7601538"><ele>106.0</ele><time>2026-03-28T10:10:17.03Z</time></trkpt><trkpt lat="45.4359708" lon="10.7601557"><ele>106.0</ele><time>2026-03-28T10:10:18.029Z</time></trkpt><trkpt lat="45.4360898" lon="10.7601487"><ele>106.0</ele><time>2026-03-28T10:10:19.03Z</time></trkpt><trkpt lat="45.4362088" lon="10.7601382"><ele>106.0</ele><time>2026-03-28T10:10:20.029Z</time></trkpt><trkpt lat="45.4363213" lon="10.7601272"><ele>105.6</ele><time>2026-03-28T10:10:21.031Z</time></trkpt><trkpt lat="45.4364262" lon="10.7601163"><ele>105.19999999999999</ele><time>2026-03-28T10:10:22.028Z</time></trkpt><trkpt lat="45.4365317" lon="10.7601063"><ele>104.80000000000001</ele><time>2026-03-28T10:10:23.03Z</time></trkpt><trkpt lat="45.4366393" lon="10.7600938"><ele>104.4</ele><time>2026-03-28T10:10:24.027Z</time></trkpt><trkpt lat="45.436744" lon="10.760083"><ele>104.0</ele><time>2026-03-28T10:10:25.032Z</time></trkpt><trkpt lat="45.4368482" lon="10.7600738"><ele>104.0</ele><time>2026-03-28T10:10:26.028Z</time></trkpt><trkpt lat="45.4369528" lon="10.7600675"><ele>104.0</ele><time>2026-03-28T10:10:27.03Z</time></trkpt><trkpt lat="45.4370593" lon="10.7600632"><ele>104.0</ele><time>2026-03-28T10:10:28.03Z</time></trkpt><trkpt lat="45.437161" lon="10.7600637"><ele>104.0</ele><time>2026-03-28T10:10:29.03Z</time></trkpt><trkpt lat="45.4372523" lon="10.7600695"><ele>104.0</ele><time>2026-03-28T10:10:30.028Z</time></trkpt><trkpt lat="45.4373447" lon="10.7600877"><ele>104.25</ele><time>2026-03-28T10:10:31.028Z</time></trkpt><trkpt lat="45.4374555" lon="10.76013"><ele>104.5</ele><time>2026-03-28T10:10:32.029Z</time></trkpt><trkpt lat="45.4375792" lon="10.7601918"><ele>104.75</ele><time>2026-03-28T10:10:33.029Z</time></trkpt><trkpt lat="45.4376952" lon="10.7602548"><ele>105.0</ele><time>2026-03-28T10:10:34.031Z</time></trkpt><trkpt lat="45.4377963" lon="10.7603145"><ele>105.0</ele><time>2026-03-28T10:10:35.032Z</time></trkpt><trkpt lat="45.4378775" lon="10.7603662"><ele>105.0</ele><time>2026-03-28T10:10:36.031Z</time></trkpt><trkpt lat="45.4379412" lon="10.7604078"><ele>105.0</ele><time>2026-03-28T10:10:37.031Z</time></trkpt><trkpt lat="45.4380442" lon="10.76048"><ele>105.0</ele><time>2026-03-28T10:10:39.034Z</time></trkpt><trkpt lat="45.438139" lon="10.760588"><ele>105.0</ele><time>2026-03-28T10:10:41.031Z</time></trkpt><trkpt lat="45.4381905" lon="10.7606603"><ele>104.5</ele><time>2026-03-28T10:10:42.03Z</time></trkpt><trkpt lat="45.4382465" lon="10.7607418"><ele>104.0</ele><time>2026-03-28T10:10:43.032Z</time></trkpt><trkpt lat="45.4382987" lon="10.7608323"><ele>103.5</ele><time>2026-03-28T10:10:44.032Z</time></trkpt><trkpt lat="45.438335" lon="10.760944"><ele>103.0</ele><time>2026-03-28T10:10:45.03Z</time></trkpt><trkpt lat="45.4383513" lon="10.7610668"><ele>102.5</ele><time>2026-03-28T10:10:46.031Z</time></trkpt><trkpt lat="45.4383587" lon="10.761192"><ele>102.0</ele><time>2026-03-28T10:10:47.032Z</time></trkpt><trkpt lat="45.438363" lon="10.761308"><ele>102.0</ele><time>2026-03-28T10:10:48.028Z</time></trkpt><trkpt lat="45.438369" lon="10.7614163"><ele>102.0</ele><time>2026-03-28T10:10:49.03Z</time></trkpt><trkpt lat="45.4383777" lon="10.7615295"><ele>102.0</ele><time>2026-03-28T10:10:50.033Z</time></trkpt><trkpt lat="45.4383842" lon="10.76165"><ele>102.0</ele><time>2026-03-28T10:10:51.03Z</time></trkpt><trkpt lat="45.4383912" lon="10.7617695"><ele>102.0</ele><time>2026-03-28T10:10:52.032Z</time></trkpt><trkpt lat="45.4383987" lon="10.7618932"><ele>102.0</ele><time>2026-03-28T10:10:53.032Z</time></trkpt><trkpt lat="45.438409" lon="10.7620212"><ele>102.0</ele><time>2026-03-28T10:10:54.029Z</time></trkpt><trkpt lat="45.4384215" lon="10.762149"><ele>102.0</ele><time>2026-03-28T10:10:55.028Z</time></trkpt><trkpt lat="45.4384362" lon="10.7622755"><ele>102.0</ele><time>2026-03-28T10:10:56.027Z</time></trkpt><trkpt lat="45.438452" lon="10.7623928"><ele>102.0</ele><time>2026-03-28T10:10:57.026Z</time></trkpt><trkpt lat="45.4384675" lon="10.7624992"><ele>102.0</ele><time>2026-03-28T10:10:58.027Z</time></trkpt><trkpt lat="45.4384817" lon="10.7626037"><ele>102.0</ele><time>2026-03-28T10:10:59.032Z</time></trkpt><trkpt lat="45.4384947" lon="10.7627028"><ele>101.8</ele><time>2026-03-28T10:11:00.033Z</time></trkpt><trkpt lat="45.4385085" lon="10.762797"><ele>101.6</ele><time>2026-03-28T10:11:01.032Z</time></trkpt><trkpt lat="45.4385415" lon="10.7629768"><ele>101.39999999999999</ele><time>2026-03-28T10:11:03.031Z</time></trkpt><trkpt lat="45.4385633" lon="10.7630772"><ele>101.19999999999999</ele><time>2026-03-28T10:11:04.031Z</time></trkpt><trkpt lat="45.4385892" lon="10.7632018"><ele>101.0</ele><time>2026-03-28T10:11:05.031Z</time></trkpt><trkpt lat="45.4386135" lon="10.7633453"><ele>101.0</ele><time>2026-03-28T10:11:06.032Z</time></trkpt><trkpt lat="45.4386367" lon="10.76348"><ele>101.0</ele><time>2026-03-28T10:11:07.031Z</time></trkpt><trkpt lat="45.4386582" lon="10.763608"><ele>101.0</ele><time>2026-03-28T10:11:08.031Z</time></trkpt><trkpt lat="45.4386763" lon="10.7637457"><ele>101.0</ele><time>2026-03-28T10:11:09.031Z</time></trkpt><trkpt lat="45.438696" lon="10.7638922"><ele>101.0</ele><time>2026-03-28T10:11:10.032Z</time></trkpt><trkpt lat="45.4387187" lon="10.7640348"><ele>101.19999999999999</ele><time>2026-03-28T10:11:11.031Z</time></trkpt><trkpt lat="45.4387437" lon="10.7641742"><ele>101.39999999999999</ele><time>2026-03-28T10:11:12.032Z</time></trkpt><trkpt lat="45.4387722" lon="10.7643187"><ele>101.6</ele><time>2026-03-28T10:11:13.03Z</time></trkpt><trkpt lat="45.4388037" lon="10.7644675"><ele>101.8</ele><time>2026-03-28T10:11:14.034Z</time></trkpt><trkpt lat="45.4388333" lon="10.7646195"><ele>102.0</ele><time>2026-03-28T10:11:15.032Z</time></trkpt><trkpt lat="45.4388632" lon="10.7647698"><ele>103.0</ele><time>2026-03-28T10:11:16.031Z</time></trkpt><trkpt lat="45.4388917" lon="10.7649148"><ele>104.0</ele><time>2026-03-28T10:11:17.032Z</time></trkpt><trkpt lat="45.4389213" lon="10.7650552"><ele>104.99999999999999</ele><time>2026-03-28T10:11:18.031Z</time></trkpt><trkpt lat="45.4389528" lon="10.7651975"><ele>106.0</ele><time>2026-03-28T10:11:19.032Z</time></trkpt><trkpt lat="45.4389822" lon="10.7653335"><ele>107.0</ele><time>2026-03-28T10:11:20.032Z</time></trkpt><trkpt lat="45.4390132" lon="10.7654722"><ele>107.5</ele><time>2026-03-28T10:11:21.029Z</time></trkpt><trkpt lat="45.439047" lon="10.7656205"><ele>108.0</ele><time>2026-03-28T10:11:22.028Z</time></trkpt><trkpt lat="45.4390838" lon="10.7657793"><ele>108.5</ele><time>2026-03-28T10:11:23.031Z</time></trkpt><trkpt lat="45.4391223" lon="10.7659383"><ele>109.0</ele><time>2026-03-28T10:11:24.034Z</time></trkpt><trkpt lat="45.4391633" lon="10.7660927"><ele>109.75</ele><time>2026-03-28T10:11:25.032Z</time></trkpt><trkpt lat="45.4392068" lon="10.766247"><ele>110.5</ele><time>2026-03-28T10:11:26.03Z</time></trkpt><trkpt lat="45.4392513" lon="10.7663983"><ele>111.25</ele><time>2026-03-28T10:11:27.031Z</time></trkpt><trkpt lat="45.439298" lon="10.7665487"><ele>112.0</ele><time>2026-03-28T10:11:28.029Z</time></trkpt><trkpt lat="45.4393505" lon="10.7667018"><ele>112.25</ele><time>2026-03-28T10:11:29.031Z</time></trkpt><trkpt lat="45.4394115" lon="10.7668635"><ele>112.5</ele><time>2026-03-28T10:11:30.03Z</time></trkpt><trkpt lat="45.4394808" lon="10.767036"><ele>112.75</ele><time>2026-03-28T10:11:31.03Z</time></trkpt><trkpt lat="45.4395562" lon="10.7672147"><ele>113.0</ele><time>2026-03-28T10:11:32.029Z</time></trkpt><trkpt lat="45.4396292" lon="10.7673843"><ele>114.25</ele><time>2026-03-28T10:11:33.03Z</time></trkpt><trkpt lat="45.4396945" lon="10.7675397"><ele>115.5</ele><time>2026-03-28T10:11:34.031Z</time></trkpt><trkpt lat="45.4397607" lon="10.7676717"><ele>116.75</ele><time>2026-03-28T10:11:35.032Z</time></trkpt><trkpt lat="45.4398432" lon="10.767773"><ele>118.0</ele><time>2026-03-28T10:11:36.031Z</time></trkpt><trkpt lat="45.4399483" lon="10.7678368"><ele>118.25</ele><time>2026-03-28T10:11:37.034Z</time></trkpt><trkpt lat="45.440079" lon="10.7678712"><ele>118.5</ele><time>2026-03-28T10:11:38.031Z</time></trkpt><trkpt lat="45.4402258" lon="10.7678963"><ele>118.75</ele><time>2026-03-28T10:11:39.028Z</time></trkpt><trkpt lat="45.4403725" lon="10.767931"><ele>119.0</ele><time>2026-03-28T10:11:40.03Z</time></trkpt><trkpt lat="45.4405178" lon="10.7679663"><ele>119.5</ele><time>2026-03-28T10:11:41.028Z</time></trkpt><trkpt lat="45.4406593" lon="10.7680053"><ele>120.0</ele><time>2026-03-28T10:11:42.028Z</time></trkpt><trkpt lat="45.440797" lon="10.7680493"><ele>120.5</ele><time>2026-03-28T10:11:43.027Z</time></trkpt><trkpt lat="45.4409373" lon="10.7680958"><ele>121.0</ele><time>2026-03-28T10:11:44.027Z</time></trkpt><trkpt lat="45.4410775" lon="10.76814"><ele>121.0</ele><time>2026-03-28T10:11:45.027Z</time></trkpt><trkpt lat="45.4412127" lon="10.7681777"><ele>121.0</ele><time>2026-03-28T10:11:46.029Z</time></trkpt><trkpt lat="45.4413425" lon="10.7682115"><ele>121.0</ele><time>2026-03-28T10:11:47.028Z</time></trkpt><trkpt lat="45.441471" lon="10.7682438"><ele>121.0</ele><time>2026-03-28T10:11:48.032Z</time></trkpt><trkpt lat="45.4416045" lon="10.7682752"><ele>120.75</ele><time>2026-03-28T10:11:49.034Z</time></trkpt><trkpt lat="45.4417448" lon="10.7683045"><ele>120.5</ele><time>2026-03-28T10:11:50.032Z</time></trkpt><trkpt lat="45.4418908" lon="10.7683253"><ele>120.25</ele><time>2026-03-28T10:11:51.03Z</time></trkpt><trkpt lat="45.4420382" lon="10.768332"><ele>120.0</ele><time>2026-03-28T10:11:52.031Z</time></trkpt><trkpt lat="45.442185" lon="10.7683273"><ele>119.66666666666666</ele><time>2026-03-28T10:11:53.033Z</time></trkpt><trkpt lat="45.4423335" lon="10.7683173"><ele>119.33333333333333</ele><time>2026-03-28T10:11:54.035Z</time></trkpt><trkpt lat="45.4424835" lon="10.7683033"><ele>119.0</ele><time>2026-03-28T10:11:55.036Z</time></trkpt><trkpt lat="45.4426345" lon="10.7682875"><ele>119.0</ele><time>2026-03-28T10:11:56.032Z</time></trkpt><trkpt lat="45.4427823" lon="10.768272"><ele>119.0</ele><time>2026-03-28T10:11:57.032Z</time></trkpt><trkpt lat="45.4429228" lon="10.7682588"><ele>119.0</ele><time>2026-03-28T10:11:58.03Z</time></trkpt><trkpt lat="45.4430525" lon="10.7682467"><ele>119.0</ele><time>2026-03-28T10:11:59.03Z</time></trkpt><trkpt lat="45.4431703" lon="10.7682345"><ele>118.0</ele><time>2026-03-28T10:12:00.032Z</time></trkpt><trkpt lat="45.4432812" lon="10.7682212"><ele>117.0</ele><time>2026-03-28T10:12:01.032Z</time></trkpt><trkpt lat="45.4433955" lon="10.7682073"><ele>116.0</ele><time>2026-03-28T10:12:02.033Z</time></trkpt><trkpt lat="45.4435165" lon="10.7681935"><ele>115.0</ele><time>2026-03-28T10:12:03.031Z</time></trkpt><trkpt lat="45.4436467" lon="10.7681802"><ele>115.0</ele><time>2026-03-28T10:12:04.039Z</time></trkpt><trkpt lat="45.4437827" lon="10.7681673"><ele>115.0</ele><time>2026-03-28T10:12:05.033Z</time></trkpt><trkpt lat="45.4439193" lon="10.7681543"><ele>115.0</ele><time>2026-03-28T10:12:06.031Z</time></trkpt><trkpt lat="45.4440553" lon="10.768139"><ele>115.0</ele><time>2026-03-28T10:12:07.031Z</time></trkpt><trkpt lat="45.4441922" lon="10.7681252"><ele>115.25</ele><time>2026-03-28T10:12:08.028Z</time></trkpt><trkpt lat="45.4443313" lon="10.7681115"><ele>115.5</ele><time>2026-03-28T10:12:09.028Z</time></trkpt><trkpt lat="45.4444707" lon="10.7680965"><ele>115.75</ele><time>2026-03-28T10:12:10.029Z</time></trkpt><trkpt lat="45.4446128" lon="10.7680813"><ele>116.0</ele><time>2026-03-28T10:12:11.029Z</time></trkpt><trkpt lat="45.4447688" lon="10.7680653"><ele>116.0</ele><time>2026-03-28T10:12:12.03Z</time></trkpt><trkpt lat="45.4449253" lon="10.7680517"><ele>116.0</ele><time>2026-03-28T10:12:13.031Z</time></trkpt><trkpt lat="45.4450752" lon="10.7680382"><ele>116.0</ele><time>2026-03-28T10:12:14.031Z</time></trkpt><trkpt lat="45.4452262" lon="10.7680222"><ele>116.0</ele><time>2026-03-28T10:12:15.03Z</time></trkpt><trkpt lat="45.4453817" lon="10.768006"><ele>116.0</ele><time>2026-03-28T10:12:16.032Z</time></trkpt><trkpt lat="45.4455408" lon="10.7679923"><ele>116.0</ele><time>2026-03-28T10:12:17.031Z</time></trkpt><trkpt lat="45.4457042" lon="10.7679845"><ele>115.33333333333333</ele><time>2026-03-28T10:12:18.031Z</time></trkpt><trkpt lat="45.4458703" lon="10.7679903"><ele>114.66666666666666</ele><time>2026-03-28T10:12:19.03Z</time></trkpt><trkpt lat="45.4460387" lon="10.7680145"><ele>114.0</ele><time>2026-03-28T10:12:20.03Z</time></trkpt><trkpt lat="45.4462068" lon="10.7680583"><ele>113.33333333333334</ele><time>2026-03-28T10:12:21.03Z</time></trkpt><trkpt lat="45.446375" lon="10.7681163"><ele>112.66666666666667</ele><time>2026-03-28T10:12:22.03Z</time></trkpt><trkpt lat="45.4465345" lon="10.7681805"><ele>112.0</ele><time>2026-03-28T10:12:23.029Z</time></trkpt><trkpt lat="45.4466833" lon="10.768249"><ele>112.0</ele><time>2026-03-28T10:12:24.031Z</time></trkpt><trkpt lat="45.4468218" lon="10.7683205"><ele>112.0</ele><time>2026-03-28T10:12:25.03Z</time></trkpt><trkpt lat="45.4469528" lon="10.7683903"><ele>112.0</ele><time>2026-03-28T10:12:26.031Z</time></trkpt><trkpt lat="45.4470773" lon="10.7684622"><ele>112.0</ele><time>2026-03-28T10:12:27.03Z</time></trkpt><trkpt lat="45.4471963" lon="10.7685328"><ele>112.75</ele><time>2026-03-28T10:12:28.029Z</time></trkpt><trkpt lat="45.4473092" lon="10.7686025"><ele>113.5</ele><time>2026-03-28T10:12:29.033Z</time></trkpt><trkpt lat="45.4474262" lon="10.7686777"><ele>114.25</ele><time>2026-03-28T10:12:30.031Z</time></trkpt><trkpt lat="45.4475482" lon="10.7687588"><ele>115.0</ele><time>2026-03-28T10:12:31.032Z</time></trkpt><trkpt lat="45.447675" lon="10.7688462"><ele>115.0</ele><time>2026-03-28T10:12:32.029Z</time></trkpt><trkpt lat="45.447807" lon="10.7689382"><ele>115.0</ele><time>2026-03-28T10:12:33.028Z</time></trkpt><trkpt lat="45.4479435" lon="10.7690352"><ele>115.0</ele><time>2026-03-28T10:12:34.029Z</time></trkpt><trkpt lat="45.4480818" lon="10.7691407"><ele>114.66666666666667</ele><time>2026-03-28T10:12:35.029Z</time></trkpt><trkpt lat="45.4482223" lon="10.7692547"><ele>114.33333333333334</ele><time>2026-03-28T10:12:36.029Z</time></trkpt><trkpt lat="45.448362" lon="10.76938"><ele>114.0</ele><time>2026-03-28T10:12:37.035Z</time></trkpt><trkpt lat="45.4485002" lon="10.7695147"><ele>113.66666666666666</ele><time>2026-03-28T10:12:38.032Z</time></trkpt><trkpt lat="45.4486362" lon="10.769658"><ele>113.33333333333333</ele><time>2026-03-28T10:12:39.032Z</time></trkpt><trkpt lat="45.4487603" lon="10.769805"><ele>113.0</ele><time>2026-03-28T10:12:40.032Z</time></trkpt><trkpt lat="45.4488742" lon="10.7699547"><ele>113.66666666666666</ele><time>2026-03-28T10:12:41.033Z</time></trkpt><trkpt lat="45.4489835" lon="10.7701117"><ele>114.33333333333334</ele><time>2026-03-28T10:12:42.033Z</time></trkpt><trkpt lat="45.44909" lon="10.7702772"><ele>115.0</ele><time>2026-03-28T10:12:43.033Z</time></trkpt><trkpt lat="45.4491947" lon="10.7704497"><ele>115.0</ele><time>2026-03-28T10:12:44.033Z</time></trkpt><trkpt lat="45.4492963" lon="10.7706308"><ele>115.0</ele><time>2026-03-28T10:12:45.034Z</time></trkpt><trkpt lat="45.449394" lon="10.7708223"><ele>115.0</ele><time>2026-03-28T10:12:46.037Z</time></trkpt><trkpt lat="45.4494867" lon="10.7710255"><ele>114.66666666666667</ele><time>2026-03-28T10:12:47.035Z</time></trkpt><trkpt lat="45.4495735" lon="10.7712455"><ele>114.33333333333334</ele><time>2026-03-28T10:12:48.033Z</time></trkpt><trkpt lat="45.4496572" lon="10.7714873"><ele>114.0</ele><time>2026-03-28T10:12:49.033Z</time></trkpt><trkpt lat="45.4497425" lon="10.7717542"><ele>114.66666666666666</ele><time>2026-03-28T10:12:50.033Z</time></trkpt><trkpt lat="45.4498218" lon="10.7720222"><ele>115.33333333333333</ele><time>2026-03-28T10:12:51.033Z</time></trkpt><trkpt lat="45.4498943" lon="10.7722653"><ele>116.0</ele><time>2026-03-28T10:12:52.032Z</time></trkpt><trkpt lat="45.449971" lon="10.7724953"><ele>116.0</ele><time>2026-03-28T10:12:53.033Z</time></trkpt><trkpt lat="45.4500497" lon="10.7727085"><ele>116.0</ele><time>2026-03-28T10:12:54.032Z</time></trkpt><trkpt lat="45.4501342" lon="10.7729055"><ele>116.0</ele><time>2026-03-28T10:12:55.034Z</time></trkpt><trkpt lat="45.4502368" lon="10.7731068"><ele>116.0</ele><time>2026-03-28T10:12:56.032Z</time></trkpt><trkpt lat="45.4503602" lon="10.7733138"><ele>116.0</ele><time>2026-03-28T10:12:57.03Z</time></trkpt><trkpt lat="45.4505043" lon="10.773512"><ele>116.0</ele><time>2026-03-28T10:12:58.03Z</time></trkpt><trkpt lat="45.4506665" lon="10.7737082"><ele>116.66666666666666</ele><time>2026-03-28T10:12:59.03Z</time></trkpt><trkpt lat="45.4508303" lon="10.773896"><ele>117.33333333333334</ele><time>2026-03-28T10:13:00.029Z</time></trkpt><trkpt lat="45.4509992" lon="10.7740877"><ele>118.0</ele><time>2026-03-28T10:13:01.031Z</time></trkpt><trkpt lat="45.4511707" lon="10.774286"><ele>118.0</ele><time>2026-03-28T10:13:02.031Z</time></trkpt><trkpt lat="45.4513428" lon="10.7744877"><ele>118.0</ele><time>2026-03-28T10:13:03.031Z</time></trkpt><trkpt lat="45.4515088" lon="10.7746812"><ele>118.0</ele><time>2026-03-28T10:13:04.031Z</time></trkpt><trkpt lat="45.4516647" lon="10.774862"><ele>118.0</ele><time>2026-03-28T10:13:05.031Z</time></trkpt><trkpt lat="45.451807" lon="10.7750268"><ele>118.0</ele><time>2026-03-28T10:13:06.031Z</time></trkpt><trkpt lat="45.4519358" lon="10.7751763"><ele>118.0</ele><time>2026-03-28T10:13:07.032Z</time></trkpt><trkpt lat="45.4520545" lon="10.775312"><ele>118.0</ele><time>2026-03-28T10:13:08.033Z</time></trkpt><trkpt lat="45.4521665" lon="10.775435"><ele>118.0</ele><time>2026-03-28T10:13:09.033Z</time></trkpt><trkpt lat="45.4522738" lon="10.7755405"><ele>118.0</ele><time>2026-03-28T10:13:10.033Z</time></trkpt><trkpt lat="45.4523733" lon="10.7756348"><ele>118.0</ele><time>2026-03-28T10:13:11.033Z</time></trkpt><trkpt lat="45.4524568" lon="10.7757343"><ele>118.00000000000001</ele><time>2026-03-28T10:13:12.032Z</time></trkpt><trkpt lat="45.4525207" lon="10.7758407"><ele>118.0</ele><time>2026-03-28T10:13:13.031Z</time></trkpt><trkpt lat="45.4525803" lon="10.775935"><ele>118.0</ele><time>2026-03-28T10:13:14.033Z</time></trkpt><trkpt lat="45.452649" lon="10.7759898"><ele>118.0</ele><time>2026-03-28T10:13:15.031Z</time></trkpt><trkpt lat="45.452726" lon="10.7759877"><ele>118.00000000000001</ele><time>2026-03-28T10:13:16.032Z</time></trkpt><trkpt lat="45.4528143" lon="10.7759313"><ele>118.0</ele><time>2026-03-28T10:13:17.031Z</time></trkpt><trkpt lat="45.4529213" lon="10.7758467"><ele>117.33333333333334</ele><time>2026-03-28T10:13:18.031Z</time></trkpt><trkpt lat="45.4530528" lon="10.7757452"><ele>116.66666666666666</ele><time>2026-03-28T10:13:19.031Z</time></trkpt><trkpt lat="45.4532052" lon="10.775621"><ele>116.0</ele><time>2026-03-28T10:13:20.031Z</time></trkpt><trkpt lat="45.4533592" lon="10.7754865"><ele>116.0</ele><time>2026-03-28T10:13:21.029Z</time></trkpt><trkpt lat="45.4535032" lon="10.7753468"><ele>116.0</ele><time>2026-03-28T10:13:22.028Z</time></trkpt><trkpt lat="45.4536365" lon="10.7752057"><ele>116.0</ele><time>2026-03-28T10:13:23.029Z</time></trkpt><trkpt lat="45.4537578" lon="10.7750718"><ele>116.25</ele><time>2026-03-28T10:13:24.031Z</time></trkpt><trkpt lat="45.453869" lon="10.77495"><ele>116.5</ele><time>2026-03-28T10:13:25.03Z</time></trkpt><trkpt lat="45.4539735" lon="10.7748385"><ele>116.75</ele><time>2026-03-28T10:13:26.031Z</time></trkpt><trkpt lat="45.4540722" lon="10.774731"><ele>117.0</ele><time>2026-03-28T10:13:27.033Z</time></trkpt><trkpt lat="45.4541707" lon="10.7746183"><ele>117.0</ele><time>2026-03-28T10:13:28.032Z</time></trkpt><trkpt lat="45.4542702" lon="10.7745025"><ele>117.0</ele><time>2026-03-28T10:13:29.03Z</time></trkpt><trkpt lat="45.4543677" lon="10.7743863"><ele>117.0</ele><time>2026-03-28T10:13:30.031Z</time></trkpt><trkpt lat="45.4544603" lon="10.7742653"><ele>117.0</ele><time>2026-03-28T10:13:31.032Z</time></trkpt><trkpt lat="45.4545447" lon="10.7741333"><ele>117.25</ele><time>2026-03-28T10:13:32.034Z</time></trkpt><trkpt lat="45.4546185" lon="10.773992"><ele>117.5</ele><time>2026-03-28T10:13:33.03Z</time></trkpt><trkpt lat="45.4546818" lon="10.7738455"><ele>117.75</ele><time>2026-03-28T10:13:34.031Z</time></trkpt><trkpt lat="45.4547377" lon="10.7736948"><ele>118.0</ele><time>2026-03-28T10:13:35.03Z</time></trkpt><trkpt lat="45.4547838" lon="10.7735257"><ele>118.0</ele><time>2026-03-28T10:13:36.032Z</time></trkpt><trkpt lat="45.4548275" lon="10.7733177"><ele>118.0</ele><time>2026-03-28T10:13:37.032Z</time></trkpt><trkpt lat="45.4548738" lon="10.7730713"><ele>118.0</ele><time>2026-03-28T10:13:38.031Z</time></trkpt><trkpt lat="45.4549172" lon="10.7728025"><ele>118.33333333333334</ele><time>2026-03-28T10:13:39.031Z</time></trkpt><trkpt lat="45.45495" lon="10.7725388"><ele>118.66666666666666</ele><time>2026-03-28T10:13:40.03Z</time></trkpt><trkpt lat="45.454976" lon="10.7722942"><ele>119.0</ele><time>2026-03-28T10:13:41.03Z</time></trkpt><trkpt lat="45.4549968" lon="10.7720787"><ele>119.0</ele><time>2026-03-28T10:13:42.033Z</time></trkpt><trkpt lat="45.4550127" lon="10.7719085"><ele>119.0</ele><time>2026-03-28T10:13:43.032Z</time></trkpt><trkpt lat="45.4550242" lon="10.7717882"><ele>119.0</ele><time>2026-03-28T10:13:44.032Z</time></trkpt><trkpt lat="45.4550442" lon="10.771698"><ele>119.0</ele><time>2026-03-28T10:13:46.031Z</time></trkpt><trkpt lat="45.4551472" lon="10.7717023"><ele>119.0</ele><time>2026-03-28T10:13:51.032Z</time></trkpt><trkpt lat="45.455269" lon="10.7717373"><ele>119.2</ele><time>2026-03-28T10:13:53.035Z</time></trkpt><trkpt lat="45.4553513" lon="10.7717533"><ele>119.4</ele><time>2026-03-28T10:13:54.033Z</time></trkpt><trkpt lat="45.4554398" lon="10.771773"><ele>119.6</ele><time>2026-03-28T10:13:55.035Z</time></trkpt><trkpt lat="45.455537" lon="10.7717958"><ele>119.8</ele><time>2026-03-28T10:13:56.034Z</time></trkpt><trkpt lat="45.4556388" lon="10.7718192"><ele>120.0</ele><time>2026-03-28T10:13:57.036Z</time></trkpt><trkpt lat="45.4557398" lon="10.7718422"><ele>120.2</ele><time>2026-03-28T10:13:58.035Z</time></trkpt><trkpt lat="45.455843" lon="10.7718653"><ele>120.4</ele><time>2026-03-28T10:13:59.033Z</time></trkpt><trkpt lat="45.4559483" lon="10.7718873"><ele>120.6</ele><time>2026-03-28T10:14:00.033Z</time></trkpt><trkpt lat="45.4560547" lon="10.7719093"><ele>120.8</ele><time>2026-03-28T10:14:01.034Z</time></trkpt><trkpt lat="45.4561572" lon="10.7719328"><ele>121.0</ele><time>2026-03-28T10:14:02.031Z</time></trkpt><trkpt lat="45.4562588" lon="10.771958"><ele>121.0</ele><time>2026-03-28T10:14:03.031Z</time></trkpt><trkpt lat="45.4563648" lon="10.7719873"><ele>121.0</ele><time>2026-03-28T10:14:04.032Z</time></trkpt><trkpt lat="45.4564762" lon="10.772017"><ele>121.0</ele><time>2026-03-28T10:14:05.034Z</time></trkpt><trkpt lat="45.4565948" lon="10.772042"><ele>121.0</ele><time>2026-03-28T10:14:06.032Z</time></trkpt><trkpt lat="45.456718" lon="10.77206"><ele>121.0</ele><time>2026-03-28T10:14:07.033Z</time></trkpt><trkpt lat="45.4568453" lon="10.7720718"><ele>121.0</ele><time>2026-03-28T10:14:08.034Z</time></trkpt><trkpt lat="45.4569778" lon="10.7720788"><ele>121.0</ele><time>2026-03-28T10:14:09.033Z</time></trkpt><trkpt lat="45.4571162" lon="10.7720825"><ele>121.0</ele><time>2026-03-28T10:14:10.032Z</time></trkpt><trkpt lat="45.4572533" lon="10.7720855"><ele>121.0</ele><time>2026-03-28T10:14:11.031Z</time></trkpt><trkpt lat="45.4573807" lon="10.772089"><ele>121.0</ele><time>2026-03-28T10:14:12.03Z</time></trkpt><trkpt lat="45.457497" lon="10.772091"><ele>121.0</ele><time>2026-03-28T10:14:13.03Z</time></trkpt><trkpt lat="45.457593" lon="10.7720893"><ele>121.0</ele><time>2026-03-28T10:14:14.031Z</time></trkpt><trkpt lat="45.4576893" lon="10.7720833"><ele>121.0</ele><time>2026-03-28T10:14:15.031Z</time></trkpt><trkpt lat="45.457804" lon="10.7720783"><ele>121.0</ele><time>2026-03-28T10:14:16.032Z</time></trkpt><trkpt lat="45.4579282" lon="10.7720792"><ele>121.0</ele><time>2026-03-28T10:14:17.03Z</time></trkpt><trkpt lat="45.4580658" lon="10.77208"><ele>121.0</ele><time>2026-03-28T10:14:18.033Z</time></trkpt><trkpt lat="45.4582045" lon="10.7720803"><ele>121.0</ele><time>2026-03-28T10:14:19.033Z</time></trkpt><trkpt lat="45.4583522" lon="10.7720747"><ele>121.0</ele><time>2026-03-28T10:14:20.032Z</time></trkpt><trkpt lat="45.458505" lon="10.772059"><ele>121.0</ele><time>2026-03-28T10:14:21.033Z</time></trkpt><trkpt lat="45.4586582" lon="10.772038"><ele>121.0</ele><time>2026-03-28T10:14:22.033Z</time></trkpt><trkpt lat="45.458812" lon="10.7720155"><ele>121.0</ele><time>2026-03-28T10:14:23.033Z</time></trkpt><trkpt lat="45.4589622" lon="10.7719917"><ele>121.0</ele><time>2026-03-28T10:14:24.031Z</time></trkpt><trkpt lat="45.4591008" lon="10.7719665"><ele>121.0</ele><time>2026-03-28T10:14:25.033Z</time></trkpt><trkpt lat="45.4592327" lon="10.7719413"><ele>121.0</ele><time>2026-03-28T10:14:26.031Z</time></trkpt><trkpt lat="45.459367" lon="10.7719215"><ele>121.0</ele><time>2026-03-28T10:14:27.034Z</time></trkpt><trkpt lat="45.4594948" lon="10.7719162"><ele>121.0</ele><time>2026-03-28T10:14:28.033Z</time></trkpt><trkpt lat="45.4596163" lon="10.7719232"><ele>121.0</ele><time>2026-03-28T10:14:29.032Z</time></trkpt><trkpt lat="45.4597412" lon="10.7719343"><ele>121.0</ele><time>2026-03-28T10:14:30.032Z</time></trkpt><trkpt lat="45.4598778" lon="10.7719413"><ele>121.33333333333334</ele><time>2026-03-28T10:14:31.033Z</time></trkpt><trkpt lat="45.46003" lon="10.771946"><ele>121.66666666666666</ele><time>2026-03-28T10:14:32.033Z</time></trkpt><trkpt lat="45.4601857" lon="10.7719487"><ele>122.0</ele><time>2026-03-28T10:14:33.033Z</time></trkpt><trkpt lat="45.4603382" lon="10.7719495"><ele>122.25</ele><time>2026-03-28T10:14:34.031Z</time></trkpt><trkpt lat="45.4604867" lon="10.771952"><ele>122.5</ele><time>2026-03-28T10:14:35.029Z</time></trkpt><trkpt lat="45.4606258" lon="10.7719557"><ele>122.75</ele><time>2026-03-28T10:14:36.028Z</time></trkpt><trkpt lat="45.4607553" lon="10.7719595"><ele>123.0</ele><time>2026-03-28T10:14:37.028Z</time></trkpt><trkpt lat="45.4608745" lon="10.7719665"><ele>123.0</ele><time>2026-03-28T10:14:38.029Z</time></trkpt><trkpt lat="45.4609822" lon="10.7719683"><ele>123.0</ele><time>2026-03-28T10:14:39.029Z</time></trkpt><trkpt lat="45.4610662" lon="10.771969"><ele>123.0</ele><time>2026-03-28T10:14:40.031Z</time></trkpt><trkpt lat="45.461154" lon="10.7719778"><ele>123.0</ele><time>2026-03-28T10:14:42.03Z</time></trkpt><trkpt lat="45.4612067" lon="10.772058"><ele>123.0</ele><time>2026-03-28T10:14:47.032Z</time></trkpt><trkpt lat="45.4612115" lon="10.7721507"><ele>123.0</ele><time>2026-03-28T10:14:48.033Z</time></trkpt><trkpt lat="45.4612163" lon="10.7722577"><ele>123.0</ele><time>2026-03-28T10:14:49.032Z</time></trkpt><trkpt lat="45.4612228" lon="10.7723502"><ele>123.0</ele><time>2026-03-28T10:14:50.032Z</time></trkpt><trkpt lat="45.4612347" lon="10.7724388"><ele>123.0</ele><time>2026-03-28T10:14:51.033Z</time></trkpt><trkpt lat="45.4613077" lon="10.7725402"><ele>123.0</ele><time>2026-03-28T10:14:53.036Z</time></trkpt><trkpt lat="45.4613767" lon="10.772554"><ele>123.0</ele><time>2026-03-28T10:14:54.031Z</time></trkpt><trkpt lat="45.4614733" lon="10.7725607"><ele>123.0</ele><time>2026-03-28T10:14:55.033Z</time></trkpt><trkpt lat="45.4615808" lon="10.7725668"><ele>123.5</ele><time>2026-03-28T10:14:56.035Z</time></trkpt><trkpt lat="45.4616978" lon="10.772571"><ele>124.0</ele><time>2026-03-28T10:14:57.034Z</time></trkpt><trkpt lat="45.4618297" lon="10.7725683"><ele>124.5</ele><time>2026-03-28T10:14:58.034Z</time></trkpt><trkpt lat="45.4619592" lon="10.772555"><ele>125.0</ele><time>2026-03-28T10:14:59.034Z</time></trkpt><trkpt lat="45.4620893" lon="10.772532"><ele>125.5</ele><time>2026-03-28T10:15:00.029Z</time></trkpt><trkpt lat="45.4622102" lon="10.7725032"><ele>126.0</ele><time>2026-03-28T10:15:01.033Z</time></trkpt><trkpt lat="45.4623237" lon="10.7724712"><ele>126.5</ele><time>2026-03-28T10:15:02.03Z</time></trkpt><trkpt lat="45.4624373" lon="10.772436"><ele>127.0</ele><time>2026-03-28T10:15:03.029Z</time></trkpt><trkpt lat="45.462555" lon="10.7724023"><ele>127.0</ele><time>2026-03-28T10:15:04.033Z</time></trkpt><trkpt lat="45.4626785" lon="10.7723753"><ele>127.0</ele><time>2026-03-28T10:15:05.034Z</time></trkpt><trkpt lat="45.4628077" lon="10.7723562"><ele>127.0</ele><time>2026-03-28T10:15:06.033Z</time></trkpt><trkpt lat="45.4629382" lon="10.7723547"><ele>127.0</ele><time>2026-03-28T10:15:07.032Z</time></trkpt><trkpt lat="45.4630757" lon="10.772376"><ele>128.0</ele><time>2026-03-28T10:15:08.032Z</time></trkpt><trkpt lat="45.463223" lon="10.7724083"><ele>129.0</ele><time>2026-03-28T10:15:09.035Z</time></trkpt><trkpt lat="45.4633663" lon="10.7724373"><ele>130.0</ele><time>2026-03-28T10:15:10.035Z</time></trkpt><trkpt lat="45.4634957" lon="10.7724673"><ele>131.0</ele><time>2026-03-28T10:15:11.034Z</time></trkpt><trkpt lat="45.463618" lon="10.7725117"><ele>131.0</ele><time>2026-03-28T10:15:12.032Z</time></trkpt><trkpt lat="45.4637423" lon="10.7725775"><ele>131.0</ele><time>2026-03-28T10:15:13.032Z</time></trkpt><trkpt lat="45.4638687" lon="10.772654"><ele>131.0</ele><time>2026-03-28T10:15:14.033Z</time></trkpt><trkpt lat="45.4639853" lon="10.7727332"><ele>131.0</ele><time>2026-03-28T10:15:15.035Z</time></trkpt><trkpt lat="45.4640838" lon="10.7728152"><ele>132.0</ele><time>2026-03-28T10:15:16.033Z</time></trkpt><trkpt lat="45.4641612" lon="10.7729005"><ele>133.0</ele><time>2026-03-28T10:15:17.033Z</time></trkpt><trkpt lat="45.4642195" lon="10.7729827"><ele>134.0</ele><time>2026-03-28T10:15:18.033Z</time></trkpt><trkpt lat="45.4642587" lon="10.7730633"><ele>135.0</ele><time>2026-03-28T10:15:19.033Z</time></trkpt><trkpt lat="45.4642577" lon="10.7732315"><ele>136.0</ele><time>2026-03-28T10:15:21.031Z</time></trkpt><trkpt lat="45.4642213" lon="10.77333"><ele>137.0</ele><time>2026-03-28T10:15:22.033Z</time></trkpt><trkpt lat="45.4641667" lon="10.7734468"><ele>138.0</ele><time>2026-03-28T10:15:23.032Z</time></trkpt><trkpt lat="45.464099" lon="10.7735942"><ele>139.0</ele><time>2026-03-28T10:15:24.031Z</time></trkpt><trkpt lat="45.4640233" lon="10.7737665"><ele>140.0</ele><time>2026-03-28T10:15:25.029Z</time></trkpt><trkpt lat="45.46395" lon="10.7739288"><ele>141.0</ele><time>2026-03-28T10:15:26.029Z</time></trkpt><trkpt lat="45.4638848" lon="10.7740767"><ele>141.0</ele><time>2026-03-28T10:15:27.029Z</time></trkpt><trkpt lat="45.4638352" lon="10.7742107"><ele>141.0</ele><time>2026-03-28T10:15:28.034Z</time></trkpt><trkpt lat="45.4638078" lon="10.7743167"><ele>141.0</ele><time>2026-03-28T10:15:29.032Z</time></trkpt><trkpt lat="45.4638242" lon="10.7744358"><ele>141.0</ele><time>2026-03-28T10:15:31.037Z</time></trkpt><trkpt lat="45.463908" lon="10.7745425"><ele>141.0</ele><time>2026-03-28T10:15:33.034Z</time></trkpt><trkpt lat="45.4639737" lon="10.7746077"><ele>141.2</ele><time>2026-03-28T10:15:34.034Z</time></trkpt><trkpt lat="45.464044" lon="10.7746772"><ele>141.39999999999998</ele><time>2026-03-28T10:15:35.033Z</time></trkpt><trkpt lat="45.4641215" lon="10.7747618"><ele>141.6</ele><time>2026-03-28T10:15:36.034Z</time></trkpt><trkpt lat="45.4642067" lon="10.7748625"><ele>141.79999999999998</ele><time>2026-03-28T10:15:37.031Z</time></trkpt><trkpt lat="45.4642983" lon="10.7749695"><ele>142.0</ele><time>2026-03-28T10:15:38.033Z</time></trkpt><trkpt lat="45.4643865" lon="10.775069"><ele>142.0</ele><time>2026-03-28T10:15:39.033Z</time></trkpt><trkpt lat="45.4644687" lon="10.7751577"><ele>142.0</ele><time>2026-03-28T10:15:40.033Z</time></trkpt><trkpt lat="45.4645445" lon="10.7752337"><ele>142.0</ele><time>2026-03-28T10:15:41.03Z</time></trkpt><trkpt lat="45.464622" lon="10.775311"><ele>142.0</ele><time>2026-03-28T10:15:42.03Z</time></trkpt><trkpt lat="45.4647027" lon="10.7753907"><ele>142.0</ele><time>2026-03-28T10:15:43.032Z</time></trkpt><trkpt lat="45.4647882" lon="10.7754688"><ele>143.75</ele><time>2026-03-28T10:15:44.033Z</time></trkpt><trkpt lat="45.4648832" lon="10.7755463"><ele>145.5</ele><time>2026-03-28T10:15:45.032Z</time></trkpt><trkpt lat="45.4649848" lon="10.7756277"><ele>147.25</ele><time>2026-03-28T10:15:46.033Z</time></trkpt><trkpt lat="45.4650872" lon="10.7757117"><ele>149.0</ele><time>2026-03-28T10:15:47.032Z</time></trkpt><trkpt lat="45.4651827" lon="10.7757953"><ele>149.0</ele><time>2026-03-28T10:15:48.031Z</time></trkpt><trkpt lat="45.4652695" lon="10.775874"><ele>149.0</ele><time>2026-03-28T10:15:49.031Z</time></trkpt><trkpt lat="45.4653525" lon="10.7759467"><ele>149.0</ele><time>2026-03-28T10:15:50.031Z</time></trkpt><trkpt lat="45.4654333" lon="10.7760098"><ele>149.0</ele><time>2026-03-28T10:15:51.028Z</time></trkpt><trkpt lat="45.4655087" lon="10.7760647"><ele>149.0</ele><time>2026-03-28T10:15:52.034Z</time></trkpt><trkpt lat="45.4655853" lon="10.7761158"><ele>149.4</ele><time>2026-03-28T10:15:53.036Z</time></trkpt><trkpt lat="45.4656683" lon="10.7761678"><ele>149.8</ele><time>2026-03-28T10:15:54.033Z</time></trkpt><trkpt lat="45.4657508" lon="10.7762128"><ele>150.2</ele><time>2026-03-28T10:15:55.033Z</time></trkpt><trkpt lat="45.4658345" lon="10.7762503"><ele>150.6</ele><time>2026-03-28T10:15:56.033Z</time></trkpt><trkpt lat="45.465925" lon="10.7762778"><ele>151.0</ele><time>2026-03-28T10:15:57.032Z</time></trkpt><trkpt lat="45.466025" lon="10.7763052"><ele>151.0</ele><time>2026-03-28T10:15:58.032Z</time></trkpt><trkpt lat="45.4661305" lon="10.776348"><ele>151.0</ele><time>2026-03-28T10:15:59.029Z</time></trkpt><trkpt lat="45.4662343" lon="10.7764032"><ele>151.0</ele><time>2026-03-28T10:16:00.029Z</time></trkpt><trkpt lat="45.4663457" lon="10.7764645"><ele>151.0</ele><time>2026-03-28T10:16:01.031Z</time></trkpt><trkpt lat="45.4664617" lon="10.7765252"><ele>151.75</ele><time>2026-03-28T10:16:02.033Z</time></trkpt><trkpt lat="45.466577" lon="10.7765865"><ele>152.5</ele><time>2026-03-28T10:16:03.029Z</time></trkpt><trkpt lat="45.466699" lon="10.7766498"><ele>153.25</ele><time>2026-03-28T10:16:04.03Z</time></trkpt><trkpt lat="45.4668227" lon="10.776717"><ele>154.0</ele><time>2026-03-28T10:16:05.031Z</time></trkpt><trkpt lat="45.4669442" lon="10.7767822"><ele>154.0</ele><time>2026-03-28T10:16:06.036Z</time></trkpt><trkpt lat="45.4670633" lon="10.7768437"><ele>154.0</ele><time>2026-03-28T10:16:07.034Z</time></trkpt><trkpt lat="45.4671822" lon="10.7769023"><ele>154.0</ele><time>2026-03-28T10:16:08.032Z</time></trkpt><trkpt lat="45.4672998" lon="10.7769622"><ele>154.0</ele><time>2026-03-28T10:16:09.031Z</time></trkpt><trkpt lat="45.4674127" lon="10.7770192"><ele>154.8</ele><time>2026-03-28T10:16:10.031Z</time></trkpt><trkpt lat="45.467516" lon="10.7770733"><ele>155.60000000000002</ele><time>2026-03-28T10:16:11.031Z</time></trkpt><trkpt lat="45.4676073" lon="10.777124"><ele>156.4</ele><time>2026-03-28T10:16:12.032Z</time></trkpt><trkpt lat="45.4676858" lon="10.777175"><ele>157.20000000000002</ele><time>2026-03-28T10:16:13.028Z</time></trkpt><trkpt lat="45.4677573" lon="10.7772342"><ele>158.0</ele><time>2026-03-28T10:16:14.029Z</time></trkpt><trkpt lat="45.467837" lon="10.7772963"><ele>158.0</ele><time>2026-03-28T10:16:15.028Z</time></trkpt><trkpt lat="45.4679347" lon="10.7773575"><ele>158.0</ele><time>2026-03-28T10:16:16.028Z</time></trkpt><trkpt lat="45.4680423" lon="10.7774143"><ele>158.0</ele><time>2026-03-28T10:16:17.031Z</time></trkpt><trkpt lat="45.4681512" lon="10.7774727"><ele>158.0</ele><time>2026-03-28T10:16:18.032Z</time></trkpt><trkpt lat="45.4682648" lon="10.777533"><ele>157.5</ele><time>2026-03-28T10:16:19.032Z</time></trkpt><trkpt lat="45.4683812" lon="10.7775952"><ele>157.0</ele><time>2026-03-28T10:16:20.031Z</time></trkpt><trkpt lat="45.4684955" lon="10.7776587"><ele>156.5</ele><time>2026-03-28T10:16:21.029Z</time></trkpt><trkpt lat="45.4686042" lon="10.7777218"><ele>156.0</ele><time>2026-03-28T10:16:22.032Z</time></trkpt><trkpt lat="45.468706" lon="10.777782"><ele>155.66666666666666</ele><time>2026-03-28T10:16:23.032Z</time></trkpt><trkpt lat="45.4688018" lon="10.7778378"><ele>155.33333333333334</ele><time>2026-03-28T10:16:24.03Z</time></trkpt><trkpt lat="45.4688913" lon="10.7778875"><ele>155.0</ele><time>2026-03-28T10:16:25.031Z</time></trkpt><trkpt lat="45.4689727" lon="10.7779293"><ele>154.66666666666669</ele><time>2026-03-28T10:16:26.033Z</time></trkpt><trkpt lat="45.4690473" lon="10.777966"><ele>154.33333333333334</ele><time>2026-03-28T10:16:27.032Z</time></trkpt><trkpt lat="45.4691083" lon="10.7780072"><ele>154.0</ele><time>2026-03-28T10:16:28.033Z</time></trkpt><trkpt lat="45.4691678" lon="10.778116"><ele>154.0</ele><time>2026-03-28T10:16:30.033Z</time></trkpt><trkpt lat="45.46914" lon="10.7782457"><ele>154.0</ele><time>2026-03-28T10:16:32.032Z</time></trkpt><trkpt lat="45.4690667" lon="10.7784167"><ele>154.0</ele><time>2026-03-28T10:16:34.033Z</time></trkpt><trkpt lat="45.4689993" lon="10.7785357"><ele>154.0</ele><time>2026-03-28T10:16:35.033Z</time></trkpt><trkpt lat="45.4689092" lon="10.7786713"><ele>154.0</ele><time>2026-03-28T10:16:36.031Z</time></trkpt><trkpt lat="45.4688097" lon="10.778816"><ele>154.0</ele><time>2026-03-28T10:16:37.032Z</time></trkpt><trkpt lat="45.4687023" lon="10.778974"><ele>154.0</ele><time>2026-03-28T10:16:38.03Z</time></trkpt><trkpt lat="45.4685842" lon="10.779148"><ele>153.5</ele><time>2026-03-28T10:16:39.032Z</time></trkpt><trkpt lat="45.4684718" lon="10.7793098"><ele>153.0</ele><time>2026-03-28T10:16:40.032Z</time></trkpt><trkpt lat="45.4683647" lon="10.779457"><ele>152.5</ele><time>2026-03-28T10:16:41.031Z</time></trkpt><trkpt lat="45.4682618" lon="10.7795893"><ele>152.0</ele><time>2026-03-28T10:16:42.031Z</time></trkpt><trkpt lat="45.46816" lon="10.7797002"><ele>152.0</ele><time>2026-03-28T10:16:43.032Z</time></trkpt><trkpt lat="45.4680573" lon="10.7797855"><ele>152.0</ele><time>2026-03-28T10:16:44.03Z</time></trkpt><trkpt lat="45.4679497" lon="10.7798582"><ele>152.0</ele><time>2026-03-28T10:16:45.031Z</time></trkpt><trkpt lat="45.4678437" lon="10.779939"><ele>152.0</ele><time>2026-03-28T10:16:46.032Z</time></trkpt><trkpt lat="45.4677417" lon="10.780043"><ele>152.33333333333331</ele><time>2026-03-28T10:16:47.032Z</time></trkpt><trkpt lat="45.467642" lon="10.7801732"><ele>152.66666666666666</ele><time>2026-03-28T10:16:48.032Z</time></trkpt><trkpt lat="45.4675408" lon="10.7803345"><ele>153.0</ele><time>2026-03-28T10:16:49.03Z</time></trkpt><trkpt lat="45.4674345" lon="10.7805248"><ele>154.66666666666666</ele><time>2026-03-28T10:16:50.038Z</time></trkpt><trkpt lat="45.4673242" lon="10.780732"><ele>156.33333333333331</ele><time>2026-03-28T10:16:51.031Z</time></trkpt><trkpt lat="45.4672232" lon="10.7809223"><ele>158.0</ele><time>2026-03-28T10:16:52.03Z</time></trkpt><trkpt lat="45.4671327" lon="10.7810975"><ele>157.0</ele><time>2026-03-28T10:16:53.03Z</time></trkpt><trkpt lat="45.4670497" lon="10.7812687"><ele>156.0</ele><time>2026-03-28T10:16:54.032Z</time></trkpt><trkpt lat="45.4669735" lon="10.7814493"><ele>155.0</ele><time>2026-03-28T10:16:55.032Z</time></trkpt><trkpt lat="45.4669102" lon="10.7816367"><ele>154.0</ele><time>2026-03-28T10:16:56.034Z</time></trkpt><trkpt lat="45.4668635" lon="10.781816"><ele>154.0</ele><time>2026-03-28T10:16:57.033Z</time></trkpt><trkpt lat="45.4668332" lon="10.7819835"><ele>154.0</ele><time>2026-03-28T10:16:58.033Z</time></trkpt><trkpt lat="45.4668133" lon="10.7821422"><ele>154.0</ele><time>2026-03-28T10:16:59.033Z</time></trkpt><trkpt lat="45.4667975" lon="10.7822945"><ele>154.0</ele><time>2026-03-28T10:17:00.032Z</time></trkpt><trkpt lat="45.466781" lon="10.7824452"><ele>154.0</ele><time>2026-03-28T10:17:01.031Z</time></trkpt><trkpt lat="45.4667625" lon="10.7825942"><ele>153.8</ele><time>2026-03-28T10:17:02.03Z</time></trkpt><trkpt lat="45.4667417" lon="10.7827452"><ele>153.60000000000002</ele><time>2026-03-28T10:17:03.028Z</time></trkpt><trkpt lat="45.46672" lon="10.7828962"><ele>153.4</ele><time>2026-03-28T10:17:04.029Z</time></trkpt><trkpt lat="45.4666943" lon="10.7830483"><ele>153.20000000000002</ele><time>2026-03-28T10:17:05.029Z</time></trkpt><trkpt lat="45.4666575" lon="10.7832"><ele>153.0</ele><time>2026-03-28T10:17:06.031Z</time></trkpt><trkpt lat="45.4666115" lon="10.783351"><ele>152.75</ele><time>2026-03-28T10:17:07.033Z</time></trkpt><trkpt lat="45.4665747" lon="10.7835175"><ele>152.5</ele><time>2026-03-28T10:17:08.032Z</time></trkpt><trkpt lat="45.4665512" lon="10.783709"><ele>152.25</ele><time>2026-03-28T10:17:09.031Z</time></trkpt><trkpt lat="45.4665427" lon="10.7839008"><ele>152.0</ele><time>2026-03-28T10:17:10.04Z</time></trkpt><trkpt lat="45.466541" lon="10.7840745"><ele>152.0</ele><time>2026-03-28T10:17:11.032Z</time></trkpt><trkpt lat="45.4665372" lon="10.7842232"><ele>152.0</ele><time>2026-03-28T10:17:12.031Z</time></trkpt><trkpt lat="45.466528" lon="10.7843478"><ele>152.0</ele><time>2026-03-28T10:17:13.032Z</time></trkpt><trkpt lat="45.466512" lon="10.7844438"><ele>152.0</ele><time>2026-03-28T10:17:14.032Z</time></trkpt><trkpt lat="45.4665213" lon="10.7845525"><ele>152.0</ele><time>2026-03-28T10:17:16.032Z</time></trkpt><trkpt lat="45.466604" lon="10.7845853"><ele>152.0</ele><time>2026-03-28T10:17:18.031Z</time></trkpt><trkpt lat="45.4666675" lon="10.784569"><ele>152.5</ele><time>2026-03-28T10:17:19.029Z</time></trkpt><trkpt lat="45.4667393" lon="10.7845552"><ele>153.0</ele><time>2026-03-28T10:17:20.029Z</time></trkpt><trkpt lat="45.466817" lon="10.784558"><ele>153.5</ele><time>2026-03-28T10:17:21.029Z</time></trkpt><trkpt lat="45.4669077" lon="10.7845868"><ele>154.0</ele><time>2026-03-28T10:17:22.029Z</time></trkpt><trkpt lat="45.466992" lon="10.7846298"><ele>154.5</ele><time>2026-03-28T10:17:23.031Z</time></trkpt><trkpt lat="45.467073" lon="10.7846578"><ele>155.0</ele><time>2026-03-28T10:17:24.032Z</time></trkpt><trkpt lat="45.4671485" lon="10.7846447"><ele>155.0</ele><time>2026-03-28T10:17:25.032Z</time></trkpt><trkpt lat="45.4672237" lon="10.7845908"><ele>155.0</ele><time>2026-03-28T10:17:26.029Z</time></trkpt><trkpt lat="45.46732" lon="10.7845043"><ele>155.0</ele><time>2026-03-28T10:17:27.029Z</time></trkpt><trkpt lat="45.467422" lon="10.7844395"><ele>155.0</ele><time>2026-03-28T10:17:28.029Z</time></trkpt><trkpt lat="45.4675288" lon="10.784401"><ele>155.0</ele><time>2026-03-28T10:17:29.029Z</time></trkpt><trkpt lat="45.467643" lon="10.7843837"><ele>155.0</ele><time>2026-03-28T10:17:30.032Z</time></trkpt><trkpt lat="45.4677653" lon="10.7843788"><ele>155.0</ele><time>2026-03-28T10:17:31.035Z</time></trkpt><trkpt lat="45.4678847" lon="10.7843765"><ele>155.0</ele><time>2026-03-28T10:17:32.033Z</time></trkpt><trkpt lat="45.4680073" lon="10.7843672"><ele>155.0</ele><time>2026-03-28T10:17:33.031Z</time></trkpt><trkpt lat="45.4681222" lon="10.7843472"><ele>154.6</ele><time>2026-03-28T10:17:34.032Z</time></trkpt><trkpt lat="45.4682262" lon="10.7843187"><ele>154.2</ele><time>2026-03-28T10:17:35.032Z</time></trkpt><trkpt lat="45.4683217" lon="10.7842737"><ele>153.8</ele><time>2026-03-28T10:17:36.031Z</time></trkpt><trkpt lat="45.4684118" lon="10.7842087"><ele>153.4</ele><time>2026-03-28T10:17:37.032Z</time></trkpt><trkpt lat="45.4684983" lon="10.7841348"><ele>153.0</ele><time>2026-03-28T10:17:38.03Z</time></trkpt><trkpt lat="45.468593" lon="10.7840718"><ele>153.0</ele><time>2026-03-28T10:17:39.031Z</time></trkpt><trkpt lat="45.4687107" lon="10.7840208"><ele>153.0</ele><time>2026-03-28T10:17:40.031Z</time></trkpt><trkpt lat="45.4688568" lon="10.7839718"><ele>153.0</ele><time>2026-03-28T10:17:41.031Z</time></trkpt><trkpt lat="45.4690168" lon="10.7839158"><ele>153.0</ele><time>2026-03-28T10:17:42.03Z</time></trkpt><trkpt lat="45.4691672" lon="10.783861"><ele>152.0</ele><time>2026-03-28T10:17:43.031Z</time></trkpt><trkpt lat="45.4693118" lon="10.7838158"><ele>151.0</ele><time>2026-03-28T10:17:44.031Z</time></trkpt><trkpt lat="45.4694585" lon="10.7837845"><ele>150.0</ele><time>2026-03-28T10:17:45.03Z</time></trkpt><trkpt lat="45.4695997" lon="10.7837677"><ele>149.0</ele><time>2026-03-28T10:17:46.032Z</time></trkpt><trkpt lat="45.4697345" lon="10.783762"><ele>148.25</ele><time>2026-03-28T10:17:47.032Z</time></trkpt><trkpt lat="45.4698683" lon="10.7837707"><ele>147.5</ele><time>2026-03-28T10:17:48.03Z</time></trkpt><trkpt lat="45.4699947" lon="10.7837882"><ele>146.75</ele><time>2026-03-28T10:17:49.029Z</time></trkpt><trkpt lat="45.4701132" lon="10.7838098"><ele>146.0</ele><time>2026-03-28T10:17:50.033Z</time></trkpt><trkpt lat="45.4702337" lon="10.7838325"><ele>146.0</ele><time>2026-03-28T10:17:51.028Z</time></trkpt><trkpt lat="45.4703602" lon="10.7838575"><ele>146.0</ele><time>2026-03-28T10:17:52.028Z</time></trkpt><trkpt lat="45.4704918" lon="10.7838743"><ele>146.0</ele><time>2026-03-28T10:17:53.027Z</time></trkpt><trkpt lat="45.4706265" lon="10.7838748"><ele>146.0</ele><time>2026-03-28T10:17:54.028Z</time></trkpt><trkpt lat="45.4707647" lon="10.7838578"><ele>145.0</ele><time>2026-03-28T10:17:55.029Z</time></trkpt><trkpt lat="45.47091" lon="10.7838257"><ele>144.0</ele><time>2026-03-28T10:17:56.029Z</time></trkpt><trkpt lat="45.4710615" lon="10.7837843"><ele>143.0</ele><time>2026-03-28T10:17:57.031Z</time></trkpt><trkpt lat="45.4712162" lon="10.7837423"><ele>142.0</ele><time>2026-03-28T10:17:58.031Z</time></trkpt><trkpt lat="45.4713688" lon="10.783701"><ele>141.0</ele><time>2026-03-28T10:17:59.032Z</time></trkpt><trkpt lat="45.4715175" lon="10.7836618"><ele>140.0</ele><time>2026-03-28T10:18:00.033Z</time></trkpt><trkpt lat="45.4716645" lon="10.783622"><ele>140.0</ele><time>2026-03-28T10:18:01.031Z</time></trkpt><trkpt lat="45.4718088" lon="10.7835838"><ele>140.0</ele><time>2026-03-28T10:18:02.031Z</time></trkpt><trkpt lat="45.4719488" lon="10.783547"><ele>140.0</ele><time>2026-03-28T10:18:03.032Z</time></trkpt><trkpt lat="45.472088" lon="10.7835132"><ele>140.0</ele><time>2026-03-28T10:18:04.032Z</time></trkpt><trkpt lat="45.4722302" lon="10.7834813"><ele>139.75</ele><time>2026-03-28T10:18:05.032Z</time></trkpt><trkpt lat="45.4723785" lon="10.7834523"><ele>139.5</ele><time>2026-03-28T10:18:06.031Z</time></trkpt><trkpt lat="45.472524" lon="10.7834285"><ele>139.25</ele><time>2026-03-28T10:18:07.031Z</time></trkpt><trkpt lat="45.4726647" lon="10.7834085"><ele>139.0</ele><time>2026-03-28T10:18:08.031Z</time></trkpt><trkpt lat="45.472807" lon="10.7833945"><ele>139.0</ele><time>2026-03-28T10:18:09.032Z</time></trkpt><trkpt lat="45.4729427" lon="10.7833843"><ele>139.0</ele><time>2026-03-28T10:18:10.032Z</time></trkpt><trkpt lat="45.47306" lon="10.7833782"><ele>139.0</ele><time>2026-03-28T10:18:11.033Z</time></trkpt><trkpt lat="45.4731595" lon="10.7833762"><ele>139.0</ele><time>2026-03-28T10:18:12.032Z</time></trkpt><trkpt lat="45.4732353" lon="10.7833768"><ele>139.0</ele><time>2026-03-28T10:18:13.032Z</time></trkpt><trkpt lat="45.4733348" lon="10.7833757"><ele>139.0</ele><time>2026-03-28T10:18:15.03Z</time></trkpt><trkpt lat="45.4734328" lon="10.7834032"><ele>139.0</ele><time>2026-03-28T10:18:17.029Z</time></trkpt><trkpt lat="45.4735132" lon="10.7834277"><ele>139.0</ele><time>2026-03-28T10:18:18.03Z</time></trkpt><trkpt lat="45.4736007" lon="10.7834408"><ele>139.0</ele><time>2026-03-28T10:18:19.036Z</time></trkpt><trkpt lat="45.4737023" lon="10.7834355"><ele>139.0</ele><time>2026-03-28T10:18:20.037Z</time></trkpt><trkpt lat="45.473797" lon="10.7834068"><ele>139.5</ele><time>2026-03-28T10:18:21.035Z</time></trkpt><trkpt lat="45.4738833" lon="10.7833673"><ele>140.0</ele><time>2026-03-28T10:18:22.031Z</time></trkpt><trkpt lat="45.4739658" lon="10.7833287"><ele>140.5</ele><time>2026-03-28T10:18:23.031Z</time></trkpt><trkpt lat="45.4740427" lon="10.783296"><ele>141.0</ele><time>2026-03-28T10:18:24.032Z</time></trkpt><trkpt lat="45.4741148" lon="10.7832688"><ele>141.5</ele><time>2026-03-28T10:18:25.031Z</time></trkpt><trkpt lat="45.47419" lon="10.7832442"><ele>142.0</ele><time>2026-03-28T10:18:26.031Z</time></trkpt><trkpt lat="45.4742742" lon="10.7832178"><ele>142.0</ele><time>2026-03-28T10:18:27.03Z</time></trkpt><trkpt lat="45.4743618" lon="10.7831853"><ele>142.0</ele><time>2026-03-28T10:18:28.032Z</time></trkpt><trkpt lat="45.474453" lon="10.7831508"><ele>142.0</ele><time>2026-03-28T10:18:29.032Z</time></trkpt><trkpt lat="45.4745513" lon="10.7831122"><ele>142.0</ele><time>2026-03-28T10:18:30.031Z</time></trkpt><trkpt lat="45.4746552" lon="10.7830665"><ele>142.0</ele><time>2026-03-28T10:18:31.032Z</time></trkpt><trkpt lat="45.4747623" lon="10.7830127"><ele>141.75</ele><time>2026-03-28T10:18:32.031Z</time></trkpt><trkpt lat="45.4748715" lon="10.7829405"><ele>141.5</ele><time>2026-03-28T10:18:33.031Z</time></trkpt><trkpt lat="45.4749825" lon="10.7828495"><ele>141.25</ele><time>2026-03-28T10:18:34.035Z</time></trkpt><trkpt lat="45.4750918" lon="10.7827525"><ele>141.0</ele><time>2026-03-28T10:18:35.034Z</time></trkpt><trkpt lat="45.4751997" lon="10.7826568"><ele>141.0</ele><time>2026-03-28T10:18:36.031Z</time></trkpt><trkpt lat="45.4753083" lon="10.7825618"><ele>141.0</ele><time>2026-03-28T10:18:37.033Z</time></trkpt><trkpt lat="45.4754143" lon="10.7824685"><ele>141.0</ele><time>2026-03-28T10:18:38.033Z</time></trkpt><trkpt lat="45.475514" lon="10.7823747"><ele>141.0</ele><time>2026-03-28T10:18:39.031Z</time></trkpt><trkpt lat="45.4756082" lon="10.7822733"><ele>140.25</ele><time>2026-03-28T10:18:40.031Z</time></trkpt><trkpt lat="45.475695" lon="10.7821707"><ele>139.5</ele><time>2026-03-28T10:18:41.028Z</time></trkpt><trkpt lat="45.475779" lon="10.7820765"><ele>138.75</ele><time>2026-03-28T10:18:42.028Z</time></trkpt><trkpt lat="45.4758617" lon="10.7819682"><ele>138.0</ele><time>2026-03-28T10:18:43.029Z</time></trkpt><trkpt lat="45.4759422" lon="10.7818422"><ele>137.5</ele><time>2026-03-28T10:18:44.029Z</time></trkpt><trkpt lat="45.4760198" lon="10.7817125"><ele>137.0</ele><time>2026-03-28T10:18:45.03Z</time></trkpt><trkpt lat="45.4761" lon="10.7815932"><ele>136.5</ele><time>2026-03-28T10:18:46.031Z</time></trkpt><trkpt lat="45.476189" lon="10.7814922"><ele>136.0</ele><time>2026-03-28T10:18:47.033Z</time></trkpt><trkpt lat="45.4762913" lon="10.7813993"><ele>135.6</ele><time>2026-03-28T10:18:48.031Z</time></trkpt><trkpt lat="45.476401" lon="10.7813078"><ele>135.2</ele><time>2026-03-28T10:18:49.033Z</time></trkpt><trkpt lat="45.4765033" lon="10.7812278"><ele>134.8</ele><time>2026-03-28T10:18:50.03Z</time></trkpt><trkpt lat="45.4765973" lon="10.781159"><ele>134.4</ele><time>2026-03-28T10:18:51.031Z</time></trkpt><trkpt lat="45.4766768" lon="10.7811063"><ele>134.0</ele><time>2026-03-28T10:18:52.031Z</time></trkpt><trkpt lat="45.4767367" lon="10.7810743"><ele>134.33333333333331</ele><time>2026-03-28T10:18:53.031Z</time></trkpt><trkpt lat="45.4768048" lon="10.7810128"><ele>134.66666666666666</ele><time>2026-03-28T10:18:55.03Z</time></trkpt><trkpt lat="45.4768218" lon="10.7808485"><ele>135.0</ele><time>2026-03-28T10:18:57.029Z</time></trkpt><trkpt lat="45.476814" lon="10.7807375"><ele>135.33333333333334</ele><time>2026-03-28T10:18:58.032Z</time></trkpt><trkpt lat="45.4768068" lon="10.7806238"><ele>135.66666666666669</ele><time>2026-03-28T10:18:59.03Z</time></trkpt><trkpt lat="45.4768032" lon="10.7805042"><ele>136.0</ele><time>2026-03-28T10:19:00.031Z</time></trkpt><trkpt lat="45.4768013" lon="10.7803913"><ele>136.0</ele><time>2026-03-28T10:19:01.04Z</time></trkpt><trkpt lat="45.4768018" lon="10.7802867"><ele>136.0</ele><time>2026-03-28T10:19:02.033Z</time></trkpt><trkpt lat="45.4768053" lon="10.780174"><ele>136.0</ele><time>2026-03-28T10:19:03.032Z</time></trkpt><trkpt lat="45.4768075" lon="10.780038"><ele>136.0</ele><time>2026-03-28T10:19:04.03Z</time></trkpt><trkpt lat="45.47681" lon="10.7798773"><ele>136.0</ele><time>2026-03-28T10:19:05.03Z</time></trkpt><trkpt lat="45.4768122" lon="10.7796818"><ele>136.66666666666669</ele><time>2026-03-28T10:19:06.028Z</time></trkpt><trkpt lat="45.4768128" lon="10.7794663"><ele>137.33333333333334</ele><time>2026-03-28T10:19:07.029Z</time></trkpt><trkpt lat="45.4768088" lon="10.7792537"><ele>138.0</ele><time>2026-03-28T10:19:08.029Z</time></trkpt><trkpt lat="45.4767997" lon="10.779038"><ele>138.25</ele><time>2026-03-28T10:19:09.031Z</time></trkpt><trkpt lat="45.4767938" lon="10.7788345"><ele>138.5</ele><time>2026-03-28T10:19:10.03Z</time></trkpt><trkpt lat="45.4767905" lon="10.778635"><ele>138.75</ele><time>2026-03-28T10:19:11.029Z</time></trkpt><trkpt lat="45.4767888" lon="10.7784413"><ele>139.0</ele><time>2026-03-28T10:19:12.029Z</time></trkpt><trkpt lat="45.4767867" lon="10.7782518"><ele>138.4</ele><time>2026-03-28T10:19:13.033Z</time></trkpt><trkpt lat="45.4767843" lon="10.7780743"><ele>137.8</ele><time>2026-03-28T10:19:14.031Z</time></trkpt><trkpt lat="45.4767823" lon="10.77791"><ele>137.2</ele><time>2026-03-28T10:19:15.03Z</time></trkpt><trkpt lat="45.4767807" lon="10.7777578"><ele>136.6</ele><time>2026-03-28T10:19:16.03Z</time></trkpt><trkpt lat="45.4767745" lon="10.7776213"><ele>136.0</ele><time>2026-03-28T10:19:17.031Z</time></trkpt><trkpt lat="45.4767697" lon="10.777496"><ele>135.83333333333334</ele><time>2026-03-28T10:19:18.03Z</time></trkpt><trkpt lat="45.4767728" lon="10.7773757"><ele>135.66666666666669</ele><time>2026-03-28T10:19:19.03Z</time></trkpt><trkpt lat="45.4767942" lon="10.777266"><ele>135.5</ele><time>2026-03-28T10:19:20.029Z</time></trkpt><trkpt lat="45.4768413" lon="10.7771763"><ele>135.33333333333334</ele><time>2026-03-28T10:19:21.032Z</time></trkpt><trkpt lat="45.4769088" lon="10.7771138"><ele>135.16666666666666</ele><time>2026-03-28T10:19:22.031Z</time></trkpt><trkpt lat="45.4769987" lon="10.7770602"><ele>135.0</ele><time>2026-03-28T10:19:23.029Z</time></trkpt><trkpt lat="45.4771128" lon="10.7770052"><ele>134.8</ele><time>2026-03-28T10:19:24.032Z</time></trkpt><trkpt lat="45.4772142" lon="10.7769603"><ele>134.6</ele><time>2026-03-28T10:19:25.033Z</time></trkpt><trkpt lat="45.477317" lon="10.7769147"><ele>134.4</ele><time>2026-03-28T10:19:26.03Z</time></trkpt><trkpt lat="45.4774275" lon="10.7768655"><ele>134.2</ele><time>2026-03-28T10:19:27.03Z</time></trkpt><trkpt lat="45.4775395" lon="10.7768233"><ele>134.0</ele><time>2026-03-28T10:19:28.029Z</time></trkpt><trkpt lat="45.4776445" lon="10.7767823"><ele>133.8</ele><time>2026-03-28T10:19:29.029Z</time></trkpt><trkpt lat="45.4777412" lon="10.7767612"><ele>133.60000000000002</ele><time>2026-03-28T10:19:30.028Z</time></trkpt><trkpt lat="45.4778375" lon="10.7767568"><ele>133.4</ele><time>2026-03-28T10:19:31.029Z</time></trkpt><trkpt lat="45.4779332" lon="10.7767653"><ele>133.20000000000002</ele><time>2026-03-28T10:19:32.029Z</time></trkpt><trkpt lat="45.4780238" lon="10.7767845"><ele>133.0</ele><time>2026-03-28T10:19:33.029Z</time></trkpt><trkpt lat="45.4781105" lon="10.7768097"><ele>134.33333333333334</ele><time>2026-03-28T10:19:34.031Z</time></trkpt><trkpt lat="45.4781985" lon="10.7768125"><ele>135.66666666666669</ele><time>2026-03-28T10:19:35.03Z</time></trkpt><trkpt lat="45.4782873" lon="10.7767863"><ele>137.0</ele><time>2026-03-28T10:19:36.027Z</time></trkpt><trkpt lat="45.4783727" lon="10.7767602"><ele>138.33333333333334</ele><time>2026-03-28T10:19:37.028Z</time></trkpt><trkpt lat="45.4784423" lon="10.776739"><ele>139.66666666666666</ele><time>2026-03-28T10:19:38.032Z</time></trkpt><trkpt lat="45.478505" lon="10.7767015"><ele>141.0</ele><time>2026-03-28T10:19:39.028Z</time></trkpt><trkpt lat="45.4785612" lon="10.7766358"><ele>141.0</ele><time>2026-03-28T10:19:40.03Z</time></trkpt><trkpt lat="45.4786063" lon="10.776552"><ele>141.0</ele><time>2026-03-28T10:19:41.03Z</time></trkpt><trkpt lat="45.4786378" lon="10.7764655"><ele>141.0</ele><time>2026-03-28T10:19:42.032Z</time></trkpt><trkpt lat="45.4786503" lon="10.776376"><ele>141.0</ele><time>2026-03-28T10:19:43.032Z</time></trkpt><trkpt lat="45.4786462" lon="10.7762757"><ele>141.0</ele><time>2026-03-28T10:19:44.03Z</time></trkpt><trkpt lat="45.4786388" lon="10.776182"><ele>141.0</ele><time>2026-03-28T10:19:45.032Z</time></trkpt><trkpt lat="45.4786747" lon="10.7760263"><ele>140.0</ele><time>2026-03-28T10:19:47.032Z</time></trkpt><trkpt lat="45.4787698" lon="10.775967"><ele>139.0</ele><time>2026-03-28T10:19:49.032Z</time></trkpt><trkpt lat="45.4788453" lon="10.7759635"><ele>138.0</ele><time>2026-03-28T10:19:50.033Z</time></trkpt><trkpt lat="45.4789402" lon="10.7759765"><ele>137.0</ele><time>2026-03-28T10:19:51.031Z</time></trkpt><trkpt lat="45.4790485" lon="10.7759977"><ele>136.0</ele><time>2026-03-28T10:19:52.034Z</time></trkpt><trkpt lat="45.4791515" lon="10.7760127"><ele>136.0</ele><time>2026-03-28T10:19:53.033Z</time></trkpt><trkpt lat="45.4792398" lon="10.7760262"><ele>136.0</ele><time>2026-03-28T10:19:54.028Z</time></trkpt><trkpt lat="45.4793102" lon="10.776031"><ele>136.0</ele><time>2026-03-28T10:19:55.029Z</time></trkpt><trkpt lat="45.4793997" lon="10.7759765"><ele>136.0</ele><time>2026-03-28T10:19:57.029Z</time></trkpt><trkpt lat="45.4794555" lon="10.7757827"><ele>136.0</ele><time>2026-03-28T10:19:59.033Z</time></trkpt><trkpt lat="45.4794802" lon="10.7756277"><ele>136.0</ele><time>2026-03-28T10:20:00.029Z</time></trkpt><trkpt lat="45.479509" lon="10.77546"><ele>136.0</ele><time>2026-03-28T10:20:01.032Z</time></trkpt><trkpt lat="45.4795485" lon="10.7753032"><ele>136.0</ele><time>2026-03-28T10:20:02.035Z</time></trkpt><trkpt lat="45.4796062" lon="10.7751265"><ele>136.0</ele><time>2026-03-28T10:20:03.029Z</time></trkpt><trkpt lat="45.4796855" lon="10.7749083"><ele>135.0</ele><time>2026-03-28T10:20:04.031Z</time></trkpt><trkpt lat="45.479765" lon="10.7746928"><ele>134.0</ele><time>2026-03-28T10:20:05.031Z</time></trkpt><trkpt lat="45.4798343" lon="10.7744942"><ele>133.0</ele><time>2026-03-28T10:20:06.031Z</time></trkpt><trkpt lat="45.4798943" lon="10.7743123"><ele>133.0</ele><time>2026-03-28T10:20:07.032Z</time></trkpt><trkpt lat="45.4799517" lon="10.7741515"><ele>133.0</ele><time>2026-03-28T10:20:08.032Z</time></trkpt><trkpt lat="45.4800017" lon="10.7740062"><ele>133.0</ele><time>2026-03-28T10:20:09.031Z</time></trkpt><trkpt lat="45.4800463" lon="10.7738753"><ele>133.0</ele><time>2026-03-28T10:20:10.032Z</time></trkpt><trkpt lat="45.4800915" lon="10.7737658"><ele>133.0</ele><time>2026-03-28T10:20:11.033Z</time></trkpt><trkpt lat="45.480143" lon="10.7736762"><ele>133.0</ele><time>2026-03-28T10:20:12.032Z</time></trkpt><trkpt lat="45.480206" lon="10.7736158"><ele>133.0</ele><time>2026-03-28T10:20:13.033Z</time></trkpt><trkpt lat="45.4802827" lon="10.7735888"><ele>133.0</ele><time>2026-03-28T10:20:14.032Z</time></trkpt><trkpt lat="45.4803675" lon="10.7735955"><ele>133.0</ele><time>2026-03-28T10:20:15.031Z</time></trkpt><trkpt lat="45.4804537" lon="10.7736152"><ele>133.0</ele><time>2026-03-28T10:20:16.035Z</time></trkpt><trkpt lat="45.48053" lon="10.7736315"><ele>133.0</ele><time>2026-03-28T10:20:17.032Z</time></trkpt><trkpt lat="45.4805973" lon="10.7736308"><ele>133.0</ele><time>2026-03-28T10:20:18.028Z</time></trkpt><trkpt lat="45.4806997" lon="10.7735543"><ele>133.0</ele><time>2026-03-28T10:20:20.029Z</time></trkpt><trkpt lat="45.4807335" lon="10.7734742"><ele>133.0</ele><time>2026-03-28T10:20:21.03Z</time></trkpt><trkpt lat="45.4807587" lon="10.7733588"><ele>133.0</ele><time>2026-03-28T10:20:22.03Z</time></trkpt><trkpt lat="45.4807773" lon="10.773204"><ele>133.0</ele><time>2026-03-28T10:20:23.032Z</time></trkpt><trkpt lat="45.4807923" lon="10.773055"><ele>133.0</ele><time>2026-03-28T10:20:24.031Z</time></trkpt><trkpt lat="45.4808093" lon="10.7729185"><ele>133.0</ele><time>2026-03-28T10:20:25.031Z</time></trkpt><trkpt lat="45.4808395" lon="10.7727852"><ele>133.0</ele><time>2026-03-28T10:20:26.034Z</time></trkpt><trkpt lat="45.4808925" lon="10.7726618"><ele>133.0</ele><time>2026-03-28T10:20:27.031Z</time></trkpt><trkpt lat="45.4809658" lon="10.7725397"><ele>133.0</ele><time>2026-03-28T10:20:28.029Z</time></trkpt><trkpt lat="45.4810562" lon="10.7724138"><ele>133.5</ele><time>2026-03-28T10:20:29.03Z</time></trkpt><trkpt lat="45.481155" lon="10.7722842"><ele>134.0</ele><time>2026-03-28T10:20:30.031Z</time></trkpt><trkpt lat="45.4812468" lon="10.7721665"><ele>134.5</ele><time>2026-03-28T10:20:31.034Z</time></trkpt><trkpt lat="45.4813295" lon="10.7720608"><ele>135.0</ele><time>2026-03-28T10:20:32.031Z</time></trkpt><trkpt lat="45.4814022" lon="10.7719653"><ele>135.0</ele><time>2026-03-28T10:20:33.033Z</time></trkpt><trkpt lat="45.4814673" lon="10.7718787"><ele>135.0</ele><time>2026-03-28T10:20:34.034Z</time></trkpt><trkpt lat="45.481529" lon="10.7718022"><ele>135.0</ele><time>2026-03-28T10:20:35.031Z</time></trkpt><trkpt lat="45.4815953" lon="10.771725"><ele>135.0</ele><time>2026-03-28T10:20:36.033Z</time></trkpt><trkpt lat="45.4816602" lon="10.7716537"><ele>135.0</ele><time>2026-03-28T10:20:37.035Z</time></trkpt><trkpt lat="45.4817228" lon="10.7715848"><ele>135.0</ele><time>2026-03-28T10:20:38.029Z</time></trkpt><trkpt lat="45.4817808" lon="10.771508"><ele>135.0</ele><time>2026-03-28T10:20:39.027Z</time></trkpt><trkpt lat="45.4818377" lon="10.7714332"><ele>135.0</ele><time>2026-03-28T10:20:40.028Z</time></trkpt><trkpt lat="45.4818883" lon="10.7713572"><ele>135.0</ele><time>2026-03-28T10:20:41.03Z</time></trkpt><trkpt lat="45.4819373" lon="10.771286"><ele>135.0</ele><time>2026-03-28T10:20:42.028Z</time></trkpt><trkpt lat="45.4819842" lon="10.7712172"><ele>135.0</ele><time>2026-03-28T10:20:43.028Z</time></trkpt><trkpt lat="45.4820303" lon="10.7711465"><ele>135.0</ele><time>2026-03-28T10:20:44.028Z</time></trkpt><trkpt lat="45.4820788" lon="10.7710687"><ele>135.0</ele><time>2026-03-28T10:20:45.027Z</time></trkpt><trkpt lat="45.4821285" lon="10.7709942"><ele>135.0</ele><time>2026-03-28T10:20:46.028Z</time></trkpt><trkpt lat="45.4821782" lon="10.7709207"><ele>135.0</ele><time>2026-03-28T10:20:47.03Z</time></trkpt><trkpt lat="45.4822255" lon="10.7708502"><ele>135.0</ele><time>2026-03-28T10:20:48.028Z</time></trkpt><trkpt lat="45.4822777" lon="10.7707743"><ele>135.0</ele><time>2026-03-28T10:20:49.029Z</time></trkpt><trkpt lat="45.4823327" lon="10.770687"><ele>135.0</ele><time>2026-03-28T10:20:50.031Z</time></trkpt><trkpt lat="45.4823907" lon="10.7705967"><ele>135.0</ele><time>2026-03-28T10:20:51.031Z</time></trkpt><trkpt lat="45.4824458" lon="10.770519"><ele>135.0</ele><time>2026-03-28T10:20:52.029Z</time></trkpt><trkpt lat="45.4824927" lon="10.7704568"><ele>135.0</ele><time>2026-03-28T10:20:53.03Z</time></trkpt><trkpt lat="45.4825987" lon="10.7703887"><ele>135.0</ele><time>2026-03-28T10:20:55.03Z</time></trkpt><trkpt lat="45.482669" lon="10.7703818"><ele>135.0</ele><time>2026-03-28T10:20:56.029Z</time></trkpt><trkpt lat="45.4827527" lon="10.7704028"><ele>135.0</ele><time>2026-03-28T10:20:57.029Z</time></trkpt><trkpt lat="45.4828657" lon="10.77045"><ele>135.66666666666666</ele><time>2026-03-28T10:20:58.033Z</time></trkpt><trkpt lat="45.482996" lon="10.7705063"><ele>136.33333333333331</ele><time>2026-03-28T10:20:59.035Z</time></trkpt><trkpt lat="45.4831398" lon="10.7705588"><ele>137.0</ele><time>2026-03-28T10:21:00.035Z</time></trkpt><trkpt lat="45.4833058" lon="10.7706035"><ele>137.0</ele><time>2026-03-28T10:21:01.033Z</time></trkpt><trkpt lat="45.4834657" lon="10.7706317"><ele>137.0</ele><time>2026-03-28T10:21:02.032Z</time></trkpt><trkpt lat="45.4836107" lon="10.7706417"><ele>137.0</ele><time>2026-03-28T10:21:03.034Z</time></trkpt><trkpt lat="45.4837495" lon="10.7706513"><ele>137.0</ele><time>2026-03-28T10:21:04.031Z</time></trkpt><trkpt lat="45.4838702" lon="10.7706763"><ele>137.4</ele><time>2026-03-28T10:21:05.034Z</time></trkpt><trkpt lat="45.483976" lon="10.7707135"><ele>137.79999999999998</ele><time>2026-03-28T10:21:06.032Z</time></trkpt><trkpt lat="45.4840727" lon="10.7707558"><ele>138.2</ele><time>2026-03-28T10:21:07.03Z</time></trkpt><trkpt lat="45.4841628" lon="10.7707965"><ele>138.6</ele><time>2026-03-28T10:21:08.03Z</time></trkpt><trkpt lat="45.4842478" lon="10.7708393"><ele>139.0</ele><time>2026-03-28T10:21:09.029Z</time></trkpt><trkpt lat="45.4843338" lon="10.7709025"><ele>139.0</ele><time>2026-03-28T10:21:10.028Z</time></trkpt><trkpt lat="45.484424" lon="10.7709903"><ele>139.0</ele><time>2026-03-28T10:21:11.031Z</time></trkpt><trkpt lat="45.484508" lon="10.7710798"><ele>139.0</ele><time>2026-03-28T10:21:12.033Z</time></trkpt><trkpt lat="45.4845883" lon="10.7711613"><ele>139.0</ele><time>2026-03-28T10:21:13.032Z</time></trkpt><trkpt lat="45.484671" lon="10.7712412"><ele>139.0</ele><time>2026-03-28T10:21:14.034Z</time></trkpt><trkpt lat="45.484756" lon="10.7713175"><ele>137.75</ele><time>2026-03-28T10:21:15.035Z</time></trkpt><trkpt lat="45.4848445" lon="10.7713967"><ele>136.5</ele><time>2026-03-28T10:21:16.036Z</time></trkpt><trkpt lat="45.4849402" lon="10.7714848"><ele>135.25</ele><time>2026-03-28T10:21:17.033Z</time></trkpt><trkpt lat="45.4850338" lon="10.7715695"><ele>134.0</ele><time>2026-03-28T10:21:18.032Z</time></trkpt><trkpt lat="45.4851398" lon="10.7716668"><ele>134.0</ele><time>2026-03-28T10:21:19.033Z</time></trkpt><trkpt lat="45.4852605" lon="10.7717823"><ele>134.0</ele><time>2026-03-28T10:21:20.033Z</time></trkpt><trkpt lat="45.4853787" lon="10.7719055"><ele>134.0</ele><time>2026-03-28T10:21:21.032Z</time></trkpt><trkpt lat="45.4854922" lon="10.77203"><ele>134.0</ele><time>2026-03-28T10:21:22.033Z</time></trkpt><trkpt lat="45.4856007" lon="10.7721455"><ele>134.25</ele><time>2026-03-28T10:21:23.032Z</time></trkpt><trkpt lat="45.485711" lon="10.7722602"><ele>134.5</ele><time>2026-03-28T10:21:24.041Z</time></trkpt><trkpt lat="45.48582" lon="10.7723653"><ele>134.75</ele><time>2026-03-28T10:21:25.033Z</time></trkpt><trkpt lat="45.4859282" lon="10.7724652"><ele>135.0</ele><time>2026-03-28T10:21:26.033Z</time></trkpt><trkpt lat="45.4860242" lon="10.7725543"><ele>135.0</ele><time>2026-03-28T10:21:27.032Z</time></trkpt><trkpt lat="45.4861005" lon="10.7726262"><ele>135.0</ele><time>2026-03-28T10:21:28.034Z</time></trkpt><trkpt lat="45.4861915" lon="10.7727082"><ele>135.0</ele><time>2026-03-28T10:21:30.034Z</time></trkpt><trkpt lat="45.4863043" lon="10.7727108"><ele>135.0</ele><time>2026-03-28T10:21:32.03Z</time></trkpt><trkpt lat="45.4863862" lon="10.772658"><ele>135.0</ele><time>2026-03-28T10:21:33.028Z</time></trkpt><trkpt lat="45.4864865" lon="10.7725582"><ele>135.33333333333334</ele><time>2026-03-28T10:21:34.028Z</time></trkpt><trkpt lat="45.4865992" lon="10.7724302"><ele>135.66666666666669</ele><time>2026-03-28T10:21:35.031Z</time></trkpt><trkpt lat="45.4867278" lon="10.7722788"><ele>136.0</ele><time>2026-03-28T10:21:36.034Z</time></trkpt><trkpt lat="45.4868647" lon="10.7721082"><ele>136.0</ele><time>2026-03-28T10:21:37.035Z</time></trkpt><trkpt lat="45.4870013" lon="10.7719147"><ele>136.0</ele><time>2026-03-28T10:21:38.032Z</time></trkpt><trkpt lat="45.4871353" lon="10.7716932"><ele>136.0</ele><time>2026-03-28T10:21:39.032Z</time></trkpt><trkpt lat="45.4872598" lon="10.7714713"><ele>136.0</ele><time>2026-03-28T10:21:40.03Z</time></trkpt><trkpt lat="45.4873757" lon="10.7712635"><ele>136.0</ele><time>2026-03-28T10:21:41.032Z</time></trkpt><trkpt lat="45.4874832" lon="10.771069"><ele>136.0</ele><time>2026-03-28T10:21:42.033Z</time></trkpt><trkpt lat="45.487581" lon="10.7708938"><ele>135.8</ele><time>2026-03-28T10:21:43.031Z</time></trkpt><trkpt lat="45.4876647" lon="10.7707442"><ele>135.6</ele><time>2026-03-28T10:21:44.034Z</time></trkpt><trkpt lat="45.4877335" lon="10.7706208"><ele>135.4</ele><time>2026-03-28T10:21:45.034Z</time></trkpt><trkpt lat="45.4877915" lon="10.7705377"><ele>135.2</ele><time>2026-03-28T10:21:46.033Z</time></trkpt><trkpt lat="45.4878922" lon="10.7704973"><ele>135.0</ele><time>2026-03-28T10:21:48.031Z</time></trkpt><trkpt lat="45.4879548" lon="10.7705377"><ele>135.0</ele><time>2026-03-28T10:21:49.032Z</time></trkpt><trkpt lat="45.4880358" lon="10.770624"><ele>135.0</ele><time>2026-03-28T10:21:50.032Z</time></trkpt><trkpt lat="45.4881227" lon="10.7707223"><ele>135.0</ele><time>2026-03-28T10:21:51.032Z</time></trkpt><trkpt lat="45.4882022" lon="10.7708127"><ele>135.0</ele><time>2026-03-28T10:21:52.033Z</time></trkpt><trkpt lat="45.488273" lon="10.7708982"><ele>135.0</ele><time>2026-03-28T10:21:53.031Z</time></trkpt><trkpt lat="45.4883307" lon="10.7709738"><ele>135.16666666666666</ele><time>2026-03-28T10:21:54.032Z</time></trkpt><trkpt lat="45.4883898" lon="10.7710528"><ele>135.33333333333334</ele><time>2026-03-28T10:21:56.029Z</time></trkpt><trkpt lat="45.4884288" lon="10.7711708"><ele>135.5</ele><time>2026-03-28T10:22:01.032Z</time></trkpt><trkpt lat="45.4884193" lon="10.7712695"><ele>135.66666666666669</ele><time>2026-03-28T10:22:02.032Z</time></trkpt><trkpt lat="45.4883867" lon="10.7713663"><ele>135.83333333333334</ele><time>2026-03-28T10:22:03.031Z</time></trkpt><trkpt lat="45.4883648" lon="10.7714568"><ele>136.0</ele><time>2026-03-28T10:22:04.029Z</time></trkpt><trkpt lat="45.4884123" lon="10.7715702"><ele>136.0</ele><time>2026-03-28T10:22:06.031Z</time></trkpt><trkpt lat="45.4885272" lon="10.7715073"><ele>136.0</ele><time>2026-03-28T10:22:08.03Z</time></trkpt><trkpt lat="45.4886028" lon="10.7713825"><ele>136.0</ele><time>2026-03-28T10:22:09.029Z</time></trkpt><trkpt lat="45.4886985" lon="10.7712313"><ele>136.0</ele><time>2026-03-28T10:22:10.029Z</time></trkpt><trkpt lat="45.4888162" lon="10.771081"><ele>136.66666666666669</ele><time>2026-03-28T10:22:11.03Z</time></trkpt><trkpt lat="45.4889465" lon="10.770959"><ele>137.33333333333334</ele><time>2026-03-28T10:22:12.03Z</time></trkpt><trkpt lat="45.4890972" lon="10.770867"><ele>138.0</ele><time>2026-03-28T10:22:13.031Z</time></trkpt><trkpt lat="45.4892728" lon="10.7707883"><ele>138.0</ele><time>2026-03-28T10:22:14.029Z</time></trkpt><trkpt lat="45.4894533" lon="10.7707212"><ele>138.0</ele><time>2026-03-28T10:22:15.031Z</time></trkpt><trkpt lat="45.489643" lon="10.770662"><ele>138.0</ele><time>2026-03-28T10:22:16.036Z</time></trkpt><trkpt lat="45.4898437" lon="10.7706052"><ele>138.0</ele><time>2026-03-28T10:22:17.032Z</time></trkpt><trkpt lat="45.4900492" lon="10.7705505"><ele>138.0</ele><time>2026-03-28T10:22:18.032Z</time></trkpt><trkpt lat="45.4902457" lon="10.770501"><ele>138.0</ele><time>2026-03-28T10:22:19.031Z</time></trkpt><trkpt lat="45.490432" lon="10.7704562"><ele>138.0</ele><time>2026-03-28T10:22:20.03Z</time></trkpt><trkpt lat="45.4906082" lon="10.7704137"><ele>138.0</ele><time>2026-03-28T10:22:21.029Z</time></trkpt><trkpt lat="45.4907838" lon="10.7703682"><ele>138.0</ele><time>2026-03-28T10:22:22.031Z</time></trkpt><trkpt lat="45.4909645" lon="10.770313"><ele>138.0</ele><time>2026-03-28T10:22:23.031Z</time></trkpt><trkpt lat="45.4911505" lon="10.7702473"><ele>138.0</ele><time>2026-03-28T10:22:24.031Z</time></trkpt><trkpt lat="45.4913415" lon="10.7701737"><ele>138.0</ele><time>2026-03-28T10:22:25.03Z</time></trkpt><trkpt lat="45.4915365" lon="10.7700923"><ele>137.0</ele><time>2026-03-28T10:22:26.032Z</time></trkpt><trkpt lat="45.4917282" lon="10.7700028"><ele>136.0</ele><time>2026-03-28T10:22:27.032Z</time></trkpt><trkpt lat="45.4919088" lon="10.7699058"><ele>135.0</ele><time>2026-03-28T10:22:28.031Z</time></trkpt><trkpt lat="45.4920833" lon="10.7697975"><ele>134.33333333333334</ele><time>2026-03-28T10:22:29.035Z</time></trkpt><trkpt lat="45.4922563" lon="10.7696755"><ele>133.66666666666669</ele><time>2026-03-28T10:22:30.032Z</time></trkpt><trkpt lat="45.4924297" lon="10.769546"><ele>133.0</ele><time>2026-03-28T10:22:31.033Z</time></trkpt><trkpt lat="45.4926057" lon="10.769424"><ele>131.33333333333334</ele><time>2026-03-28T10:22:32.033Z</time></trkpt><trkpt lat="45.4927877" lon="10.7693198"><ele>129.66666666666666</ele><time>2026-03-28T10:22:33.031Z</time></trkpt><trkpt lat="45.4929753" lon="10.7692443"><ele>128.0</ele><time>2026-03-28T10:22:34.032Z</time></trkpt><trkpt lat="45.493166" lon="10.7691922"><ele>127.66666666666666</ele><time>2026-03-28T10:22:35.031Z</time></trkpt><trkpt lat="45.493348" lon="10.7691512"><ele>127.33333333333334</ele><time>2026-03-28T10:22:36.032Z</time></trkpt><trkpt lat="45.4935128" lon="10.7691142"><ele>127.0</ele><time>2026-03-28T10:22:37.032Z</time></trkpt><trkpt lat="45.4936427" lon="10.7690805"><ele>127.00000000000001</ele><time>2026-03-28T10:22:38.032Z</time></trkpt><trkpt lat="45.4937523" lon="10.769043"><ele>127.0</ele><time>2026-03-28T10:22:39.031Z</time></trkpt><trkpt lat="45.4938428" lon="10.7690105"><ele>127.0</ele><time>2026-03-28T10:22:40.031Z</time></trkpt><trkpt lat="45.4939133" lon="10.7689902"><ele>127.0</ele><time>2026-03-28T10:22:41.032Z</time></trkpt><trkpt lat="45.4939782" lon="10.7689882"><ele>127.00000000000001</ele><time>2026-03-28T10:22:43.033Z</time></trkpt><trkpt lat="45.4939027" lon="10.7689437"><ele>127.0</ele><time>2026-03-28T10:22:48.03Z</time></trkpt><trkpt lat="45.493807" lon="10.7689898"><ele>127.0</ele><time>2026-03-28T10:22:49.031Z</time></trkpt><trkpt lat="45.4936762" lon="10.7690392"><ele>127.0</ele><time>2026-03-28T10:22:50.033Z</time></trkpt><trkpt lat="45.493517" lon="10.7690823"><ele>127.0</ele><time>2026-03-28T10:22:51.031Z</time></trkpt><trkpt lat="45.493332" lon="10.7691242"><ele>127.0</ele><time>2026-03-28T10:22:52.031Z</time></trkpt><trkpt lat="45.493136" lon="10.7691703"><ele>127.0</ele><time>2026-03-28T10:22:53.033Z</time></trkpt><trkpt lat="45.4929287" lon="10.7692333"><ele>127.0</ele><time>2026-03-28T10:22:54.032Z</time></trkpt><trkpt lat="45.4927548" lon="10.769309"><ele>128.2</ele><time>2026-03-28T10:22:55.031Z</time></trkpt><trkpt lat="45.4926328" lon="10.7693745"><ele>129.39999999999998</ele><time>2026-03-28T10:22:56.031Z</time></trkpt><trkpt lat="45.4925568" lon="10.7694307"><ele>130.60000000000002</ele><time>2026-03-28T10:22:57.031Z</time></trkpt><trkpt lat="45.4925367" lon="10.7695465"><ele>131.8</ele><time>2026-03-28T10:22:59.032Z</time></trkpt><trkpt lat="45.492563" lon="10.7696372"><ele>133.0</ele><time>2026-03-28T10:23:00.032Z</time></trkpt><trkpt lat="45.4926118" lon="10.7697648"><ele>133.0</ele><time>2026-03-28T10:23:01.033Z</time></trkpt><trkpt lat="45.4926857" lon="10.7699238"><ele>133.0</ele><time>2026-03-28T10:23:02.032Z</time></trkpt><trkpt lat="45.4927713" lon="10.770092"><ele>133.0</ele><time>2026-03-28T10:23:03.031Z</time></trkpt><trkpt lat="45.4928473" lon="10.770243"><ele>133.0</ele><time>2026-03-28T10:23:04.033Z</time></trkpt><trkpt lat="45.4929095" lon="10.7703773"><ele>133.0</ele><time>2026-03-28T10:23:05.03Z</time></trkpt><trkpt lat="45.4929648" lon="10.7705145"><ele>133.0</ele><time>2026-03-28T10:23:06.03Z</time></trkpt><trkpt lat="45.4930277" lon="10.7706728"><ele>133.0</ele><time>2026-03-28T10:23:07.031Z</time></trkpt><trkpt lat="45.4930995" lon="10.7708248"><ele>133.0</ele><time>2026-03-28T10:23:08.034Z</time></trkpt><trkpt lat="45.4931695" lon="10.7709485"><ele>133.66666666666669</ele><time>2026-03-28T10:23:09.03Z</time></trkpt><trkpt lat="45.4932323" lon="10.7710475"><ele>134.33333333333334</ele><time>2026-03-28T10:23:10.03Z</time></trkpt><trkpt lat="45.493294" lon="10.7711212"><ele>135.0</ele><time>2026-03-28T10:23:11.029Z</time></trkpt><trkpt lat="45.4933603" lon="10.7711607"><ele>135.66666666666666</ele><time>2026-03-28T10:23:12.027Z</time></trkpt><trkpt lat="45.4934452" lon="10.7711705"><ele>136.33333333333331</ele><time>2026-03-28T10:23:13.03Z</time></trkpt><trkpt lat="45.4935583" lon="10.7711608"><ele>137.0</ele><time>2026-03-28T10:23:14.032Z</time></trkpt><trkpt lat="45.4936845" lon="10.7711552"><ele>137.0</ele><time>2026-03-28T10:23:15.031Z</time></trkpt><trkpt lat="45.493821" lon="10.7711615"><ele>137.0</ele><time>2026-03-28T10:23:16.032Z</time></trkpt><trkpt lat="45.4939565" lon="10.7711752"><ele>137.0</ele><time>2026-03-28T10:23:17.031Z</time></trkpt><trkpt lat="45.4940725" lon="10.7711885"><ele>137.0</ele><time>2026-03-28T10:23:18.033Z</time></trkpt><trkpt lat="45.4941673" lon="10.7711977"><ele>137.0</ele><time>2026-03-28T10:23:19.032Z</time></trkpt><trkpt lat="45.4942392" lon="10.771223"><ele>137.0</ele><time>2026-03-28T10:23:20.029Z</time></trkpt><trkpt lat="45.4943192" lon="10.7713447"><ele>137.0</ele><time>2026-03-28T10:23:22.03Z</time></trkpt><trkpt lat="45.4943375" lon="10.771456"><ele>137.0</ele><time>2026-03-28T10:23:23.029Z</time></trkpt><trkpt lat="45.4943437" lon="10.7716132"><ele>137.0</ele><time>2026-03-28T10:23:24.029Z</time></trkpt><trkpt lat="45.494345" lon="10.771826"><ele>137.0</ele><time>2026-03-28T10:23:25.031Z</time></trkpt><trkpt lat="45.4943545" lon="10.772076"><ele>137.0</ele><time>2026-03-28T10:23:26.033Z</time></trkpt><trkpt lat="45.4943685" lon="10.7723342"><ele>137.0</ele><time>2026-03-28T10:23:27.029Z</time></trkpt><trkpt lat="45.4943832" lon="10.7725808"><ele>137.33333333333331</ele><time>2026-03-28T10:23:28.031Z</time></trkpt><trkpt lat="45.4943958" lon="10.7728057"><ele>137.66666666666666</ele><time>2026-03-28T10:23:29.031Z</time></trkpt><trkpt lat="45.4944115" lon="10.7730332"><ele>138.0</ele><time>2026-03-28T10:23:30.03Z</time></trkpt><trkpt lat="45.4944327" lon="10.7732502"><ele>138.0</ele><time>2026-03-28T10:23:31.034Z</time></trkpt><trkpt lat="45.4944535" lon="10.7734515"><ele>138.0</ele><time>2026-03-28T10:23:32.031Z</time></trkpt><trkpt lat="45.4944747" lon="10.773651"><ele>138.0</ele><time>2026-03-28T10:23:33.029Z</time></trkpt><trkpt lat="45.4945" lon="10.7738712"><ele>138.0</ele><time>2026-03-28T10:23:34.029Z</time></trkpt><trkpt lat="45.4945285" lon="10.7740875"><ele>139.0</ele><time>2026-03-28T10:23:35.029Z</time></trkpt><trkpt lat="45.494555" lon="10.7742828"><ele>140.0</ele><time>2026-03-28T10:23:36.028Z</time></trkpt><trkpt lat="45.4945797" lon="10.7744573"><ele>141.0</ele><time>2026-03-28T10:23:37.029Z</time></trkpt><trkpt lat="45.4946013" lon="10.7746255"><ele>142.0</ele><time>2026-03-28T10:23:38.03Z</time></trkpt><trkpt lat="45.4946137" lon="10.77478"><ele>143.5</ele><time>2026-03-28T10:23:39.03Z</time></trkpt><trkpt lat="45.494622" lon="10.774938"><ele>145.0</ele><time>2026-03-28T10:23:40.033Z</time></trkpt><trkpt lat="45.4946278" lon="10.7751132"><ele>146.5</ele><time>2026-03-28T10:23:41.034Z</time></trkpt><trkpt lat="45.4946315" lon="10.775309"><ele>148.0</ele><time>2026-03-28T10:23:42.031Z</time></trkpt><trkpt lat="45.4946388" lon="10.7755298"><ele>148.0</ele><time>2026-03-28T10:23:43.03Z</time></trkpt><trkpt lat="45.4946485" lon="10.7757328"><ele>148.0</ele><time>2026-03-28T10:23:44.039Z</time></trkpt><trkpt lat="45.4946565" lon="10.7759093"><ele>148.0</ele><time>2026-03-28T10:23:45.029Z</time></trkpt><trkpt lat="45.4946647" lon="10.776063"><ele>148.0</ele><time>2026-03-28T10:23:46.03Z</time></trkpt><trkpt lat="45.4946697" lon="10.7761892"><ele>148.33333333333334</ele><time>2026-03-28T10:23:47.031Z</time></trkpt><trkpt lat="45.4946792" lon="10.7762862"><ele>148.66666666666669</ele><time>2026-03-28T10:23:48.031Z</time></trkpt><trkpt lat="45.4947062" lon="10.7763718"><ele>149.0</ele><time>2026-03-28T10:23:49.031Z</time></trkpt><trkpt lat="45.4947588" lon="10.7764502"><ele>149.33333333333334</ele><time>2026-03-28T10:23:50.036Z</time></trkpt><trkpt lat="45.4948348" lon="10.7765258"><ele>149.66666666666666</ele><time>2026-03-28T10:23:51.031Z</time></trkpt><trkpt lat="45.4949052" lon="10.7766017"><ele>150.0</ele><time>2026-03-28T10:23:52.03Z</time></trkpt><trkpt lat="45.4949843" lon="10.7766852"><ele>150.0</ele><time>2026-03-28T10:23:53.032Z</time></trkpt><trkpt lat="45.4950723" lon="10.7767635"><ele>150.0</ele><time>2026-03-28T10:23:54.031Z</time></trkpt><trkpt lat="45.4951733" lon="10.776852"><ele>150.0</ele><time>2026-03-28T10:23:55.034Z</time></trkpt><trkpt lat="45.4952818" lon="10.776952"><ele>150.0</ele><time>2026-03-28T10:23:56.032Z</time></trkpt><trkpt lat="45.49538" lon="10.7770548"><ele>149.2</ele><time>2026-03-28T10:23:57.033Z</time></trkpt><trkpt lat="45.4954663" lon="10.7771613"><ele>148.4</ele><time>2026-03-28T10:23:58.031Z</time></trkpt><trkpt lat="45.4955447" lon="10.7772687"><ele>147.6</ele><time>2026-03-28T10:23:59.028Z</time></trkpt><trkpt lat="45.4956142" lon="10.7773655"><ele>146.8</ele><time>2026-03-28T10:24:00.028Z</time></trkpt><trkpt lat="45.495669" lon="10.7774643"><ele>146.0</ele><time>2026-03-28T10:24:01.029Z</time></trkpt><trkpt lat="45.4957098" lon="10.777565"><ele>146.0</ele><time>2026-03-28T10:24:02.034Z</time></trkpt><trkpt lat="45.4957415" lon="10.777654"><ele>146.0</ele><time>2026-03-28T10:24:03.031Z</time></trkpt><trkpt lat="45.4958035" lon="10.7777652"><ele>146.0</ele><time>2026-03-28T10:24:05.033Z</time></trkpt><trkpt lat="45.495831" lon="10.7778532"><ele>146.0</ele><time>2026-03-28T10:24:08.035Z</time></trkpt><trkpt lat="45.4959152" lon="10.7779143"><ele>146.0</ele><time>2026-03-28T10:24:11.031Z</time></trkpt><trkpt lat="45.4960575" lon="10.7778873"><ele>145.0</ele><time>2026-03-28T10:24:13.031Z</time></trkpt><trkpt lat="45.4961313" lon="10.7778598"><ele>144.0</ele><time>2026-03-28T10:24:14.03Z</time></trkpt><trkpt lat="45.496203" lon="10.7778437"><ele>143.0</ele><time>2026-03-28T10:24:15.032Z</time></trkpt><trkpt lat="45.4962758" lon="10.77784"><ele>142.0</ele><time>2026-03-28T10:24:16.031Z</time></trkpt><trkpt lat="45.4963652" lon="10.7778328"><ele>141.0</ele><time>2026-03-28T10:24:17.03Z</time></trkpt><trkpt lat="45.4964453" lon="10.777829"><ele>140.0</ele><time>2026-03-28T10:24:18.028Z</time></trkpt><trkpt lat="45.4965218" lon="10.7778273"><ele>139.8</ele><time>2026-03-28T10:24:19.028Z</time></trkpt><trkpt lat="45.496593" lon="10.7778198"><ele>139.6</ele><time>2026-03-28T10:24:20.03Z</time></trkpt><trkpt lat="45.49671" lon="10.7778272"><ele>139.4</ele><time>2026-03-28T10:24:22.029Z</time></trkpt><trkpt lat="45.4968042" lon="10.7778798"><ele>139.2</ele><time>2026-03-28T10:24:24.028Z</time></trkpt><trkpt lat="45.4968917" lon="10.7779637"><ele>139.0</ele><time>2026-03-28T10:24:26.028Z</time></trkpt><trkpt lat="45.4969438" lon="10.7780205"><ele>139.0</ele><time>2026-03-28T10:24:27.029Z</time></trkpt><trkpt lat="45.4969957" lon="10.7780745"><ele>139.0</ele><time>2026-03-28T10:24:28.031Z</time></trkpt><trkpt lat="45.4970893" lon="10.7781378"><ele>139.0</ele><time>2026-03-28T10:24:30.029Z</time></trkpt><trkpt lat="45.497157" lon="10.77817"><ele>139.0</ele><time>2026-03-28T10:24:32.028Z</time></trkpt><trkpt lat="45.4971517" lon="10.7783242"><ele>139.0</ele><time>2026-03-28T10:24:35.03Z</time></trkpt><trkpt lat="45.4971208" lon="10.7784338"><ele>139.0</ele><time>2026-03-28T10:24:36.029Z</time></trkpt><trkpt lat="45.4970913" lon="10.7785685"><ele>138.8</ele><time>2026-03-28T10:24:37.028Z</time></trkpt><trkpt lat="45.497061" lon="10.7787058"><ele>138.60000000000002</ele><time>2026-03-28T10:24:38.03Z</time></trkpt><trkpt lat="45.4970358" lon="10.7788375"><ele>138.4</ele><time>2026-03-28T10:24:39.027Z</time></trkpt><trkpt lat="45.4970122" lon="10.7789608"><ele>138.20000000000002</ele><time>2026-03-28T10:24:40.029Z</time></trkpt><trkpt lat="45.4969927" lon="10.7790848"><ele>138.0</ele><time>2026-03-28T10:24:41.03Z</time></trkpt><trkpt lat="45.4969773" lon="10.7792187"><ele>137.25</ele><time>2026-03-28T10:24:42.029Z</time></trkpt><trkpt lat="45.4969632" lon="10.779364"><ele>136.5</ele><time>2026-03-28T10:24:43.029Z</time></trkpt><trkpt lat="45.4969497" lon="10.7795297"><ele>135.75</ele><time>2026-03-28T10:24:44.03Z</time></trkpt><trkpt lat="45.496941" lon="10.7797333"><ele>135.0</ele><time>2026-03-28T10:24:45.031Z</time></trkpt><trkpt lat="45.496938" lon="10.7799655"><ele>135.0</ele><time>2026-03-28T10:24:46.032Z</time></trkpt><trkpt lat="45.4969388" lon="10.7801787"><ele>135.0</ele><time>2026-03-28T10:24:47.029Z</time></trkpt><trkpt lat="45.4969375" lon="10.780364"><ele>135.0</ele><time>2026-03-28T10:24:48.03Z</time></trkpt><trkpt lat="45.4969268" lon="10.7805267"><ele>135.0</ele><time>2026-03-28T10:24:49.028Z</time></trkpt><trkpt lat="45.4968998" lon="10.7806662"><ele>135.0</ele><time>2026-03-28T10:24:50.029Z</time></trkpt><trkpt lat="45.4968638" lon="10.7807822"><ele>135.0</ele><time>2026-03-28T10:24:51.028Z</time></trkpt><trkpt lat="45.4968395" lon="10.7808762"><ele>135.0</ele><time>2026-03-28T10:24:52.033Z</time></trkpt><trkpt lat="45.4968542" lon="10.7810155"><ele>135.0</ele><time>2026-03-28T10:24:54.032Z</time></trkpt><trkpt lat="45.4969465" lon="10.7810857"><ele>135.0</ele><time>2026-03-28T10:24:56.029Z</time></trkpt><trkpt lat="45.4970332" lon="10.7810995"><ele>136.5</ele><time>2026-03-28T10:24:57.029Z</time></trkpt><trkpt lat="45.4971365" lon="10.7811067"><ele>138.0</ele><time>2026-03-28T10:24:58.03Z</time></trkpt><trkpt lat="45.49726" lon="10.7811128"><ele>139.5</ele><time>2026-03-28T10:24:59.03Z</time></trkpt><trkpt lat="45.4973898" lon="10.7811205"><ele>141.0</ele><time>2026-03-28T10:25:00.027Z</time></trkpt><trkpt lat="45.4975102" lon="10.7811267"><ele>141.0</ele><time>2026-03-28T10:25:01.029Z</time></trkpt><trkpt lat="45.4976225" lon="10.7811328"><ele>141.0</ele><time>2026-03-28T10:25:02.03Z</time></trkpt><trkpt lat="45.4977198" lon="10.7811363"><ele>141.0</ele><time>2026-03-28T10:25:03.03Z</time></trkpt><trkpt lat="45.497797" lon="10.7811517"><ele>141.0</ele><time>2026-03-28T10:25:04.031Z</time></trkpt><trkpt lat="45.4978842" lon="10.7812688"><ele>141.0</ele><time>2026-03-28T10:25:06.03Z</time></trkpt><trkpt lat="45.4979047" lon="10.7813787"><ele>141.0</ele><time>2026-03-28T10:25:07.032Z</time></trkpt><trkpt lat="45.4979153" lon="10.781523"><ele>141.0</ele><time>2026-03-28T10:25:08.03Z</time></trkpt><trkpt lat="45.4979242" lon="10.7816927"><ele>141.0</ele><time>2026-03-28T10:25:09.029Z</time></trkpt><trkpt lat="45.4979353" lon="10.7818682"><ele>141.0</ele><time>2026-03-28T10:25:10.029Z</time></trkpt><trkpt lat="45.497947" lon="10.782061"><ele>144.25</ele><time>2026-03-28T10:25:11.029Z</time></trkpt><trkpt lat="45.4979595" lon="10.7822598"><ele>147.5</ele><time>2026-03-28T10:25:12.028Z</time></trkpt><trkpt lat="45.4979742" lon="10.7824373"><ele>150.75</ele><time>2026-03-28T10:25:13.026Z</time></trkpt><trkpt lat="45.4979935" lon="10.782602"><ele>154.0</ele><time>2026-03-28T10:25:14.027Z</time></trkpt><trkpt lat="45.4980112" lon="10.7827603"><ele>154.0</ele><time>2026-03-28T10:25:15.026Z</time></trkpt><trkpt lat="45.4980205" lon="10.7829168"><ele>154.0</ele><time>2026-03-28T10:25:16.028Z</time></trkpt><trkpt lat="45.4980317" lon="10.783064"><ele>154.0</ele><time>2026-03-28T10:25:17.028Z</time></trkpt><trkpt lat="45.4980533" lon="10.7831862"><ele>154.0</ele><time>2026-03-28T10:25:18.028Z</time></trkpt><trkpt lat="45.4980897" lon="10.7832817"><ele>154.0</ele><time>2026-03-28T10:25:19.029Z</time></trkpt><trkpt lat="45.4981268" lon="10.7833745"><ele>154.0</ele><time>2026-03-28T10:25:20.027Z</time></trkpt><trkpt lat="45.4981542" lon="10.7834657"><ele>154.0</ele><time>2026-03-28T10:25:21.029Z</time></trkpt><trkpt lat="45.4981863" lon="10.7836312"><ele>154.0</ele><time>2026-03-28T10:25:23.03Z</time></trkpt><trkpt lat="45.4981888" lon="10.7837988"><ele>154.0</ele><time>2026-03-28T10:25:25.03Z</time></trkpt><trkpt lat="45.4981762" lon="10.7839573"><ele>154.0</ele><time>2026-03-28T10:25:27.032Z</time></trkpt><trkpt lat="45.4981902" lon="10.7840487"><ele>154.4</ele><time>2026-03-28T10:25:29.029Z</time></trkpt><trkpt lat="45.4982758" lon="10.7840912"><ele>154.8</ele><time>2026-03-28T10:25:31.031Z</time></trkpt><trkpt lat="45.4983553" lon="10.7840958"><ele>155.2</ele><time>2026-03-28T10:25:32.032Z</time></trkpt><trkpt lat="45.4984502" lon="10.7840955"><ele>155.6</ele><time>2026-03-28T10:25:33.031Z</time></trkpt><trkpt lat="45.4985587" lon="10.7840932"><ele>156.0</ele><time>2026-03-28T10:25:34.032Z</time></trkpt><trkpt lat="45.498675" lon="10.7840973"><ele>156.2</ele><time>2026-03-28T10:25:35.034Z</time></trkpt><trkpt lat="45.4987867" lon="10.784106"><ele>156.39999999999998</ele><time>2026-03-28T10:25:36.029Z</time></trkpt><trkpt lat="45.4988913" lon="10.7841117"><ele>156.6</ele><time>2026-03-28T10:25:37.029Z</time></trkpt><trkpt lat="45.4989933" lon="10.7841173"><ele>156.79999999999998</ele><time>2026-03-28T10:25:38.027Z</time></trkpt><trkpt lat="45.4990987" lon="10.7841227"><ele>157.0</ele><time>2026-03-28T10:25:39.028Z</time></trkpt><trkpt lat="45.499206" lon="10.7841188"><ele>157.0</ele><time>2026-03-28T10:25:40.03Z</time></trkpt><trkpt lat="45.4993165" lon="10.784111"><ele>157.0</ele><time>2026-03-28T10:25:41.032Z</time></trkpt><trkpt lat="45.4994195" lon="10.784109"><ele>157.0</ele><time>2026-03-28T10:25:42.034Z</time></trkpt><trkpt lat="45.499518" lon="10.7840912"><ele>157.0</ele><time>2026-03-28T10:25:43.029Z</time></trkpt><trkpt lat="45.4996165" lon="10.7840412"><ele>157.0</ele><time>2026-03-28T10:25:44.03Z</time></trkpt><trkpt lat="45.499717" lon="10.7839562"><ele>157.4</ele><time>2026-03-28T10:25:45.031Z</time></trkpt><trkpt lat="45.4998157" lon="10.783868"><ele>157.79999999999998</ele><time>2026-03-28T10:25:46.031Z</time></trkpt><trkpt lat="45.4999048" lon="10.783797"><ele>158.2</ele><time>2026-03-28T10:25:47.031Z</time></trkpt><trkpt lat="45.4999917" lon="10.783726"><ele>158.6</ele><time>2026-03-28T10:25:48.028Z</time></trkpt><trkpt lat="45.5000743" lon="10.7836538"><ele>159.0</ele><time>2026-03-28T10:25:49.029Z</time></trkpt><trkpt lat="45.5001507" lon="10.7835858"><ele>158.8</ele><time>2026-03-28T10:25:50.027Z</time></trkpt><trkpt lat="45.5002238" lon="10.7835038"><ele>158.60000000000002</ele><time>2026-03-28T10:25:51.03Z</time></trkpt><trkpt lat="45.50029" lon="10.783397"><ele>158.4</ele><time>2026-03-28T10:25:52.028Z</time></trkpt><trkpt lat="45.5003527" lon="10.783275"><ele>158.20000000000002</ele><time>2026-03-28T10:25:53.028Z</time></trkpt><trkpt lat="45.5004087" lon="10.7831605"><ele>158.0</ele><time>2026-03-28T10:25:54.027Z</time></trkpt><trkpt lat="45.500457" lon="10.783059"><ele>158.33333333333331</ele><time>2026-03-28T10:25:55.028Z</time></trkpt><trkpt lat="45.500507" lon="10.7829722"><ele>158.66666666666666</ele><time>2026-03-28T10:25:56.028Z</time></trkpt><trkpt lat="45.50056" lon="10.7829015"><ele>159.0</ele><time>2026-03-28T10:25:57.03Z</time></trkpt><trkpt lat="45.5006188" lon="10.78285"><ele>159.33333333333334</ele><time>2026-03-28T10:25:58.028Z</time></trkpt><trkpt lat="45.5006872" lon="10.7828163"><ele>159.66666666666669</ele><time>2026-03-28T10:25:59.028Z</time></trkpt><trkpt lat="45.5007712" lon="10.7827888"><ele>160.0</ele><time>2026-03-28T10:26:00.028Z</time></trkpt><trkpt lat="45.5008792" lon="10.7827647"><ele>160.0</ele><time>2026-03-28T10:26:01.028Z</time></trkpt><trkpt lat="45.5010145" lon="10.7827485"><ele>160.0</ele><time>2026-03-28T10:26:02.027Z</time></trkpt><trkpt lat="45.5011505" lon="10.7827305"><ele>160.0</ele><time>2026-03-28T10:26:03.027Z</time></trkpt><trkpt lat="45.5012648" lon="10.782712"><ele>160.0</ele><time>2026-03-28T10:26:04.027Z</time></trkpt><trkpt lat="45.5013688" lon="10.7826928"><ele>160.2</ele><time>2026-03-28T10:26:05.027Z</time></trkpt><trkpt lat="45.5014715" lon="10.7826757"><ele>160.4</ele><time>2026-03-28T10:26:06.029Z</time></trkpt><trkpt lat="45.5015715" lon="10.7826695"><ele>160.60000000000002</ele><time>2026-03-28T10:26:07.031Z</time></trkpt><trkpt lat="45.5016662" lon="10.782679"><ele>160.8</ele><time>2026-03-28T10:26:08.028Z</time></trkpt><trkpt lat="45.5017552" lon="10.7827042"><ele>161.0</ele><time>2026-03-28T10:26:09.029Z</time></trkpt><trkpt lat="45.5018508" lon="10.7827415"><ele>161.0</ele><time>2026-03-28T10:26:10.032Z</time></trkpt><trkpt lat="45.5019503" lon="10.782797"><ele>161.0</ele><time>2026-03-28T10:26:11.029Z</time></trkpt><trkpt lat="45.502049" lon="10.7828615"><ele>161.0</ele><time>2026-03-28T10:26:12.031Z</time></trkpt><trkpt lat="45.5021432" lon="10.7829148"><ele>161.0</ele><time>2026-03-28T10:26:13.028Z</time></trkpt><trkpt lat="45.5022367" lon="10.7829475"><ele>161.0</ele><time>2026-03-28T10:26:14.029Z</time></trkpt><trkpt lat="45.5023367" lon="10.7829603"><ele>160.0</ele><time>2026-03-28T10:26:15.032Z</time></trkpt><trkpt lat="45.5024548" lon="10.7829568"><ele>159.0</ele><time>2026-03-28T10:26:16.028Z</time></trkpt><trkpt lat="45.5025653" lon="10.7829462"><ele>158.0</ele><time>2026-03-28T10:26:17.03Z</time></trkpt><trkpt lat="45.502656" lon="10.7829358"><ele>157.0</ele><time>2026-03-28T10:26:18.028Z</time></trkpt><trkpt lat="45.502737" lon="10.7829365"><ele>156.0</ele><time>2026-03-28T10:26:19.028Z</time></trkpt><trkpt lat="45.5028187" lon="10.7829537"><ele>156.0</ele><time>2026-03-28T10:26:20.029Z</time></trkpt><trkpt lat="45.5029073" lon="10.7829792"><ele>156.0</ele><time>2026-03-28T10:26:21.029Z</time></trkpt><trkpt lat="45.5029935" lon="10.7829988"><ele>156.0</ele><time>2026-03-28T10:26:22.028Z</time></trkpt><trkpt lat="45.5030888" lon="10.7830062"><ele>156.0</ele><time>2026-03-28T10:26:23.027Z</time></trkpt><trkpt lat="45.503191" lon="10.7830137"><ele>156.0</ele><time>2026-03-28T10:26:24.028Z</time></trkpt><trkpt lat="45.5032922" lon="10.783039"><ele>156.0</ele><time>2026-03-28T10:26:25.027Z</time></trkpt><trkpt lat="45.5033903" lon="10.7830657"><ele>156.0</ele><time>2026-03-28T10:26:26.027Z</time></trkpt><trkpt lat="45.5034917" lon="10.7830845"><ele>156.0</ele><time>2026-03-28T10:26:27.029Z</time></trkpt><trkpt lat="45.503591" lon="10.7830863"><ele>156.0</ele><time>2026-03-28T10:26:28.026Z</time></trkpt><trkpt lat="45.5036942" lon="10.783066"><ele>156.0</ele><time>2026-03-28T10:26:29.027Z</time></trkpt><trkpt lat="45.5038108" lon="10.7830375"><ele>156.0</ele><time>2026-03-28T10:26:30.03Z</time></trkpt><trkpt lat="45.5039438" lon="10.7830187"><ele>156.0</ele><time>2026-03-28T10:26:31.028Z</time></trkpt><trkpt lat="45.5040767" lon="10.7830058"><ele>156.0</ele><time>2026-03-28T10:26:32.029Z</time></trkpt><trkpt lat="45.5041987" lon="10.7829923"><ele>156.0</ele><time>2026-03-28T10:26:33.031Z</time></trkpt><trkpt lat="45.5043077" lon="10.782981"><ele>156.0</ele><time>2026-03-28T10:26:34.031Z</time></trkpt><trkpt lat="45.5043952" lon="10.7829788"><ele>156.0</ele><time>2026-03-28T10:26:35.029Z</time></trkpt><trkpt lat="45.5044713" lon="10.7829965"><ele>156.0</ele><time>2026-03-28T10:26:36.03Z</time></trkpt><trkpt lat="45.5045463" lon="10.7830398"><ele>156.0</ele><time>2026-03-28T10:26:37.029Z</time></trkpt><trkpt lat="45.5046122" lon="10.7830892"><ele>156.0</ele><time>2026-03-28T10:26:38.03Z</time></trkpt><trkpt lat="45.5046732" lon="10.783132"><ele>156.0</ele><time>2026-03-28T10:26:39.031Z</time></trkpt><trkpt lat="45.5047355" lon="10.7831542"><ele>155.33333333333334</ele><time>2026-03-28T10:26:40.032Z</time></trkpt><trkpt lat="45.5048067" lon="10.7831633"><ele>154.66666666666666</ele><time>2026-03-28T10:26:41.029Z</time></trkpt><trkpt lat="45.5048837" lon="10.7831602"><ele>154.0</ele><time>2026-03-28T10:26:42.03Z</time></trkpt><trkpt lat="45.5049662" lon="10.7831548"><ele>153.33333333333331</ele><time>2026-03-28T10:26:43.031Z</time></trkpt><trkpt lat="45.5050327" lon="10.7831568"><ele>152.66666666666666</ele><time>2026-03-28T10:26:44.028Z</time></trkpt><trkpt lat="45.5051262" lon="10.7832117"><ele>152.0</ele><time>2026-03-28T10:26:46.031Z</time></trkpt><trkpt lat="45.505174" lon="10.7833913"><ele>151.79999999999998</ele><time>2026-03-28T10:26:48.03Z</time></trkpt><trkpt lat="45.5051855" lon="10.7835283"><ele>151.6</ele><time>2026-03-28T10:26:49.031Z</time></trkpt><trkpt lat="45.5051923" lon="10.7836625"><ele>151.39999999999998</ele><time>2026-03-28T10:26:50.028Z</time></trkpt><trkpt lat="45.5051958" lon="10.7838048"><ele>151.2</ele><time>2026-03-28T10:26:51.027Z</time></trkpt><trkpt lat="45.5051998" lon="10.7839385"><ele>151.0</ele><time>2026-03-28T10:26:52.023Z</time></trkpt><trkpt lat="45.5052112" lon="10.7840592"><ele>151.0</ele><time>2026-03-28T10:26:53.023Z</time></trkpt><trkpt lat="45.5052232" lon="10.7842068"><ele>151.0</ele><time>2026-03-28T10:26:54.023Z</time></trkpt><trkpt lat="45.5052355" lon="10.7843272"><ele>151.0</ele><time>2026-03-28T10:26:55.029Z</time></trkpt><trkpt lat="45.5052685" lon="10.7844677"><ele>151.0</ele><time>2026-03-28T10:26:56.03Z</time></trkpt><trkpt lat="45.5053043" lon="10.7846193"><ele>151.0</ele><time>2026-03-28T10:26:57.028Z</time></trkpt><trkpt lat="45.50534" lon="10.784812"><ele>150.66666666666669</ele><time>2026-03-28T10:26:58.033Z</time></trkpt><trkpt lat="45.5053743" lon="10.7850485"><ele>150.33333333333334</ele><time>2026-03-28T10:26:59.029Z</time></trkpt><trkpt lat="45.5053997" lon="10.7852788"><ele>150.0</ele><time>2026-03-28T10:27:00.028Z</time></trkpt><trkpt lat="45.5054238" lon="10.785504"><ele>149.66666666666666</ele><time>2026-03-28T10:27:01.029Z</time></trkpt><trkpt lat="45.5054495" lon="10.7857415"><ele>149.33333333333331</ele><time>2026-03-28T10:27:02.033Z</time></trkpt><trkpt lat="45.5054748" lon="10.7859805"><ele>149.0</ele><time>2026-03-28T10:27:03.029Z</time></trkpt><trkpt lat="45.5055017" lon="10.7862272"><ele>148.66666666666666</ele><time>2026-03-28T10:27:04.031Z</time></trkpt><trkpt lat="45.5055307" lon="10.786488"><ele>148.33333333333334</ele><time>2026-03-28T10:27:05.03Z</time></trkpt><trkpt lat="45.5055627" lon="10.7867543"><ele>148.0</ele><time>2026-03-28T10:27:06.03Z</time></trkpt><trkpt lat="45.505599" lon="10.7870177"><ele>147.33333333333334</ele><time>2026-03-28T10:27:07.031Z</time></trkpt><trkpt lat="45.5056358" lon="10.7872767"><ele>146.66666666666666</ele><time>2026-03-28T10:27:08.031Z</time></trkpt><trkpt lat="45.505666" lon="10.7875142"><ele>146.0</ele><time>2026-03-28T10:27:09.03Z</time></trkpt><trkpt lat="45.5056897" lon="10.7877243"><ele>146.0</ele><time>2026-03-28T10:27:10.029Z</time></trkpt><trkpt lat="45.5057092" lon="10.7879088"><ele>146.0</ele><time>2026-03-28T10:27:11.032Z</time></trkpt><trkpt lat="45.5057258" lon="10.7880688"><ele>146.0</ele><time>2026-03-28T10:27:12.036Z</time></trkpt><trkpt lat="45.5057432" lon="10.7882098"><ele>146.0</ele><time>2026-03-28T10:27:13.029Z</time></trkpt><trkpt lat="45.5057665" lon="10.7883318"><ele>146.0</ele><time>2026-03-28T10:27:14.029Z</time></trkpt><trkpt lat="45.5058078" lon="10.7884487"><ele>145.75</ele><time>2026-03-28T10:27:15.026Z</time></trkpt><trkpt lat="45.5058573" lon="10.7885693"><ele>145.5</ele><time>2026-03-28T10:27:16.026Z</time></trkpt><trkpt lat="45.5059055" lon="10.7887182"><ele>145.25</ele><time>2026-03-28T10:27:17.025Z</time></trkpt><trkpt lat="45.5059453" lon="10.7888703"><ele>145.0</ele><time>2026-03-28T10:27:18.025Z</time></trkpt><trkpt lat="45.5059873" lon="10.7890367"><ele>145.0</ele><time>2026-03-28T10:27:19.027Z</time></trkpt><trkpt lat="45.5060282" lon="10.7892083"><ele>145.0</ele><time>2026-03-28T10:27:20.03Z</time></trkpt><trkpt lat="45.5060658" lon="10.7893733"><ele>145.0</ele><time>2026-03-28T10:27:21.027Z</time></trkpt><trkpt lat="45.5060995" lon="10.7895318"><ele>145.0</ele><time>2026-03-28T10:27:22.029Z</time></trkpt><trkpt lat="45.506129" lon="10.7896793"><ele>145.6</ele><time>2026-03-28T10:27:23.029Z</time></trkpt><trkpt lat="45.5061552" lon="10.789806"><ele>146.2</ele><time>2026-03-28T10:27:24.028Z</time></trkpt><trkpt lat="45.5061823" lon="10.7899342"><ele>146.8</ele><time>2026-03-28T10:27:25.029Z</time></trkpt><trkpt lat="45.5062097" lon="10.790072"><ele>147.4</ele><time>2026-03-28T10:27:26.028Z</time></trkpt><trkpt lat="45.5062328" lon="10.7902178"><ele>148.0</ele><time>2026-03-28T10:27:27.029Z</time></trkpt><trkpt lat="45.506254" lon="10.7903597"><ele>148.0</ele><time>2026-03-28T10:27:28.029Z</time></trkpt><trkpt lat="45.5062707" lon="10.7904887"><ele>148.0</ele><time>2026-03-28T10:27:29.03Z</time></trkpt><trkpt lat="45.506285" lon="10.7906397"><ele>148.0</ele><time>2026-03-28T10:27:30.029Z</time></trkpt><trkpt lat="45.5062973" lon="10.790788"><ele>148.0</ele><time>2026-03-28T10:27:31.03Z</time></trkpt><trkpt lat="45.5063102" lon="10.7909363"><ele>148.0</ele><time>2026-03-28T10:27:32.03Z</time></trkpt><trkpt lat="45.5063213" lon="10.7910738"><ele>148.20000000000002</ele><time>2026-03-28T10:27:33.029Z</time></trkpt><trkpt lat="45.5063323" lon="10.7912033"><ele>148.4</ele><time>2026-03-28T10:27:34.03Z</time></trkpt><trkpt lat="45.506345" lon="10.7913643"><ele>148.60000000000002</ele><time>2026-03-28T10:27:35.029Z</time></trkpt><trkpt lat="45.506355" lon="10.7915227"><ele>148.8</ele><time>2026-03-28T10:27:36.029Z</time></trkpt><trkpt lat="45.506365" lon="10.7916643"><ele>149.0</ele><time>2026-03-28T10:27:37.03Z</time></trkpt><trkpt lat="45.5063803" lon="10.7917952"><ele>149.0</ele><time>2026-03-28T10:27:38.03Z</time></trkpt><trkpt lat="45.5064075" lon="10.7919488"><ele>149.0</ele><time>2026-03-28T10:27:39.028Z</time></trkpt><trkpt lat="45.5064468" lon="10.792136"><ele>149.0</ele><time>2026-03-28T10:27:40.028Z</time></trkpt><trkpt lat="45.5064863" lon="10.792311"><ele>149.0</ele><time>2026-03-28T10:27:41.031Z</time></trkpt><trkpt lat="45.5065242" lon="10.79247"><ele>149.0</ele><time>2026-03-28T10:27:42.033Z</time></trkpt><trkpt lat="45.5065577" lon="10.792613"><ele>149.0</ele><time>2026-03-28T10:27:43.03Z</time></trkpt><trkpt lat="45.5065863" lon="10.792738"><ele>149.0</ele><time>2026-03-28T10:27:44.032Z</time></trkpt><trkpt lat="45.506608" lon="10.7928373"><ele>149.0</ele><time>2026-03-28T10:27:45.028Z</time></trkpt><trkpt lat="45.5066363" lon="10.792985"><ele>149.0</ele><time>2026-03-28T10:27:47.03Z</time></trkpt><trkpt lat="45.5066448" lon="10.7930797"><ele>149.0</ele><time>2026-03-28T10:28:06.026Z</time></trkpt><trkpt lat="45.5066283" lon="10.7932625"><ele>149.2</ele><time>2026-03-28T10:28:08.03Z</time></trkpt><trkpt lat="45.5066235" lon="10.7934038"><ele>149.4</ele><time>2026-03-28T10:28:09.029Z</time></trkpt><trkpt lat="45.5066195" lon="10.7935533"><ele>149.6</ele><time>2026-03-28T10:28:10.029Z</time></trkpt><trkpt lat="45.5066137" lon="10.7937072"><ele>149.8</ele><time>2026-03-28T10:28:11.031Z</time></trkpt><trkpt lat="45.506607" lon="10.793858"><ele>150.0</ele><time>2026-03-28T10:28:12.029Z</time></trkpt><trkpt lat="45.5065988" lon="10.794017"><ele>150.2</ele><time>2026-03-28T10:28:13.03Z</time></trkpt><trkpt lat="45.5065878" lon="10.7941823"><ele>150.4</ele><time>2026-03-28T10:28:14.03Z</time></trkpt><trkpt lat="45.5065748" lon="10.794346"><ele>150.6</ele><time>2026-03-28T10:28:15.03Z</time></trkpt><trkpt lat="45.506562" lon="10.794503"><ele>150.8</ele><time>2026-03-28T10:28:16.031Z</time></trkpt><trkpt lat="45.5065508" lon="10.7946423"><ele>151.0</ele><time>2026-03-28T10:28:17.031Z</time></trkpt><trkpt lat="45.5065447" lon="10.7947607"><ele>151.0</ele><time>2026-03-28T10:28:18.028Z</time></trkpt><trkpt lat="45.5065438" lon="10.7948613"><ele>151.0</ele><time>2026-03-28T10:28:19.029Z</time></trkpt><trkpt lat="45.5065423" lon="10.7950082"><ele>151.0</ele><time>2026-03-28T10:28:21.028Z</time></trkpt><trkpt lat="45.5065407" lon="10.7951287"><ele>151.0</ele><time>2026-03-28T10:28:25.031Z</time></trkpt><trkpt lat="45.5064517" lon="10.795223"><ele>151.0</ele><time>2026-03-28T10:28:28.027Z</time></trkpt><trkpt lat="45.5063873" lon="10.7952707"><ele>151.0</ele><time>2026-03-28T10:28:29.027Z</time></trkpt><trkpt lat="45.5063127" lon="10.7953265"><ele>150.8</ele><time>2026-03-28T10:28:30.025Z</time></trkpt><trkpt lat="45.5062477" lon="10.7953747"><ele>150.6</ele><time>2026-03-28T10:28:31.026Z</time></trkpt><trkpt lat="45.5061907" lon="10.795414"><ele>150.4</ele><time>2026-03-28T10:28:32.027Z</time></trkpt><trkpt lat="45.5060827" lon="10.795479"><ele>150.2</ele><time>2026-03-28T10:28:34.028Z</time></trkpt><trkpt lat="45.5059892" lon="10.7955278"><ele>150.0</ele><time>2026-03-28T10:28:35.029Z</time></trkpt><trkpt lat="45.5058867" lon="10.795572"><ele>150.0</ele><time>2026-03-28T10:28:36.027Z</time></trkpt><trkpt lat="45.505785" lon="10.7956067"><ele>150.0</ele><time>2026-03-28T10:28:37.028Z</time></trkpt><trkpt lat="45.5056885" lon="10.7956318"><ele>150.0</ele><time>2026-03-28T10:28:38.028Z</time></trkpt><trkpt lat="45.5056023" lon="10.7956453"><ele>150.0</ele><time>2026-03-28T10:28:39.027Z</time></trkpt><trkpt lat="45.5055228" lon="10.795656"><ele>150.0</ele><time>2026-03-28T10:28:40.028Z</time></trkpt><trkpt lat="45.5054433" lon="10.7956722"><ele>150.0</ele><time>2026-03-28T10:28:41.03Z</time></trkpt><trkpt lat="45.5053762" lon="10.7956848"><ele>150.0</ele><time>2026-03-28T10:28:42.027Z</time></trkpt><trkpt lat="45.5052782" lon="10.7956552"><ele>150.0</ele><time>2026-03-28T10:28:44.044Z</time></trkpt><trkpt lat="45.5052375" lon="10.7957278"><ele>150.0</ele><time>2026-03-28T10:28:52.027Z</time></trkpt><trkpt lat="45.5052907" lon="10.7957833"><ele>150.0</ele><time>2026-03-28T10:28:56.027Z</time></trkpt><trkpt lat="45.5053643" lon="10.7957953"><ele>150.0</ele><time>2026-03-28T10:28:57.029Z</time></trkpt><trkpt lat="45.505465" lon="10.795778"><ele>150.0</ele><time>2026-03-28T10:28:58.029Z</time></trkpt><trkpt lat="45.5055875" lon="10.7957375"><ele>150.0</ele><time>2026-03-28T10:28:59.028Z</time></trkpt><trkpt lat="45.5057352" lon="10.795684"><ele>150.0</ele><time>2026-03-28T10:29:00.03Z</time></trkpt><trkpt lat="45.5058745" lon="10.7956335"><ele>150.0</ele><time>2026-03-28T10:29:01.03Z</time></trkpt><trkpt lat="45.5059955" lon="10.7955807"><ele>150.0</ele><time>2026-03-28T10:29:02.029Z</time></trkpt><trkpt lat="45.5060997" lon="10.7955273"><ele>150.0</ele><time>2026-03-28T10:29:03.029Z</time></trkpt><trkpt lat="45.5061892" lon="10.7954748"><ele>150.0</ele><time>2026-03-28T10:29:04.03Z</time></trkpt><trkpt lat="45.5062907" lon="10.7954073"><ele>150.0</ele><time>2026-03-28T10:29:05.028Z</time></trkpt><trkpt lat="45.5063895" lon="10.7953452"><ele>150.0</ele><time>2026-03-28T10:29:06.027Z</time></trkpt><trkpt lat="45.5064833" lon="10.7953188"><ele>150.0</ele><time>2026-03-28T10:29:07.028Z</time></trkpt><trkpt lat="45.5065672" lon="10.7953352"><ele>150.0</ele><time>2026-03-28T10:29:08.032Z</time></trkpt><trkpt lat="45.5066523" lon="10.7953882"><ele>150.0</ele><time>2026-03-28T10:29:09.03Z</time></trkpt><trkpt lat="45.506735" lon="10.79543"><ele>150.0</ele><time>2026-03-28T10:29:10.032Z</time></trkpt><trkpt lat="45.5068137" lon="10.7954283"><ele>150.0</ele><time>2026-03-28T10:29:11.031Z</time></trkpt><trkpt lat="45.5068832" lon="10.7953672"><ele>150.0</ele><time>2026-03-28T10:29:12.029Z</time></trkpt><trkpt lat="45.5069198" lon="10.7952582"><ele>150.25</ele><time>2026-03-28T10:29:13.032Z</time></trkpt><trkpt lat="45.5069193" lon="10.7951118"><ele>150.5</ele><time>2026-03-28T10:29:14.03Z</time></trkpt><trkpt lat="45.5069208" lon="10.7949467"><ele>150.75</ele><time>2026-03-28T10:29:15.028Z</time></trkpt><trkpt lat="45.5069607" lon="10.794798"><ele>151.0</ele><time>2026-03-28T10:29:16.029Z</time></trkpt><trkpt lat="45.5070478" lon="10.7946545"><ele>151.0</ele><time>2026-03-28T10:29:17.028Z</time></trkpt><trkpt lat="45.5071745" lon="10.7945045"><ele>151.0</ele><time>2026-03-28T10:29:18.026Z</time></trkpt><trkpt lat="45.5072995" lon="10.7943647"><ele>151.0</ele><time>2026-03-28T10:29:19.027Z</time></trkpt><trkpt lat="45.5074135" lon="10.7942332"><ele>151.0</ele><time>2026-03-28T10:29:20.026Z</time></trkpt><trkpt lat="45.5075252" lon="10.7941023"><ele>151.0</ele><time>2026-03-28T10:29:21.026Z</time></trkpt><trkpt lat="45.507629" lon="10.7939805"><ele>151.0</ele><time>2026-03-28T10:29:22.029Z</time></trkpt><trkpt lat="45.5077242" lon="10.7938702"><ele>151.0</ele><time>2026-03-28T10:29:23.028Z</time></trkpt><trkpt lat="45.5078145" lon="10.7937682"><ele>151.0</ele><time>2026-03-28T10:29:24.028Z</time></trkpt><trkpt lat="45.507901" lon="10.7936652"><ele>151.0</ele><time>2026-03-28T10:29:25.028Z</time></trkpt><trkpt lat="45.507983" lon="10.7935707"><ele>151.0</ele><time>2026-03-28T10:29:26.029Z</time></trkpt><trkpt lat="45.5080618" lon="10.793482"><ele>151.0</ele><time>2026-03-28T10:29:27.027Z</time></trkpt><trkpt lat="45.5081405" lon="10.79339"><ele>151.0</ele><time>2026-03-28T10:29:28.026Z</time></trkpt><trkpt lat="45.5082247" lon="10.793293"><ele>151.0</ele><time>2026-03-28T10:29:29.027Z</time></trkpt><trkpt lat="45.5083127" lon="10.7931945"><ele>151.0</ele><time>2026-03-28T10:29:30.023Z</time></trkpt><trkpt lat="45.5084053" lon="10.7930907"><ele>151.0</ele><time>2026-03-28T10:29:31.025Z</time></trkpt><trkpt lat="45.5084953" lon="10.7929902"><ele>151.0</ele><time>2026-03-28T10:29:32.029Z</time></trkpt><trkpt lat="45.5085782" lon="10.7928962"><ele>151.0</ele><time>2026-03-28T10:29:33.029Z</time></trkpt><trkpt lat="45.5086565" lon="10.7928078"><ele>151.0</ele><time>2026-03-28T10:29:34.029Z</time></trkpt><trkpt lat="45.5087297" lon="10.7927258"><ele>151.0</ele><time>2026-03-28T10:29:35.032Z</time></trkpt><trkpt lat="45.5088093" lon="10.7926385"><ele>151.0</ele><time>2026-03-28T10:29:36.029Z</time></trkpt><trkpt lat="45.5088982" lon="10.7925415"><ele>151.0</ele><time>2026-03-28T10:29:37.031Z</time></trkpt><trkpt lat="45.508995" lon="10.7924348"><ele>151.25</ele><time>2026-03-28T10:29:38.03Z</time></trkpt><trkpt lat="45.5090952" lon="10.7923183"><ele>151.5</ele><time>2026-03-28T10:29:39.03Z</time></trkpt><trkpt lat="45.5091802" lon="10.7921935"><ele>151.75</ele><time>2026-03-28T10:29:40.029Z</time></trkpt><trkpt lat="45.5092467" lon="10.7920652"><ele>152.0</ele><time>2026-03-28T10:29:41.028Z</time></trkpt><trkpt lat="45.5093013" lon="10.7919412"><ele>151.75</ele><time>2026-03-28T10:29:42.026Z</time></trkpt><trkpt lat="45.5093505" lon="10.7918158"><ele>151.5</ele><time>2026-03-28T10:29:43.027Z</time></trkpt><trkpt lat="45.509402" lon="10.7916665"><ele>151.25</ele><time>2026-03-28T10:29:44.027Z</time></trkpt><trkpt lat="45.5094547" lon="10.7914928"><ele>151.0</ele><time>2026-03-28T10:29:45.028Z</time></trkpt><trkpt lat="45.5095072" lon="10.791302"><ele>151.0</ele><time>2026-03-28T10:29:46.03Z</time></trkpt><trkpt lat="45.5095532" lon="10.7911003"><ele>151.0</ele><time>2026-03-28T10:29:47.029Z</time></trkpt><trkpt lat="45.5095845" lon="10.7908838"><ele>151.0</ele><time>2026-03-28T10:29:48.028Z</time></trkpt><trkpt lat="45.5095993" lon="10.790645"><ele>151.66666666666669</ele><time>2026-03-28T10:29:49.03Z</time></trkpt><trkpt lat="45.5096015" lon="10.7904027"><ele>152.33333333333334</ele><time>2026-03-28T10:29:50.028Z</time></trkpt><trkpt lat="45.5095953" lon="10.7901418"><ele>153.0</ele><time>2026-03-28T10:29:51.027Z</time></trkpt><trkpt lat="45.5095887" lon="10.789868"><ele>153.33333333333334</ele><time>2026-03-28T10:29:52.027Z</time></trkpt><trkpt lat="45.5095868" lon="10.7896032"><ele>153.66666666666669</ele><time>2026-03-28T10:29:53.03Z</time></trkpt><trkpt lat="45.509596" lon="10.789336"><ele>154.0</ele><time>2026-03-28T10:29:54.028Z</time></trkpt><trkpt lat="45.509617" lon="10.7890742"><ele>153.33333333333334</ele><time>2026-03-28T10:29:55.029Z</time></trkpt><trkpt lat="45.5096492" lon="10.7888262"><ele>152.66666666666666</ele><time>2026-03-28T10:29:56.029Z</time></trkpt><trkpt lat="45.5096845" lon="10.7885918"><ele>152.0</ele><time>2026-03-28T10:29:57.028Z</time></trkpt><trkpt lat="45.5097192" lon="10.788364"><ele>151.66666666666666</ele><time>2026-03-28T10:29:58.03Z</time></trkpt><trkpt lat="45.5097422" lon="10.7881285"><ele>151.33333333333334</ele><time>2026-03-28T10:29:59.034Z</time></trkpt><trkpt lat="45.5097392" lon="10.7878753"><ele>151.0</ele><time>2026-03-28T10:30:00.03Z</time></trkpt><trkpt lat="45.5097155" lon="10.7876148"><ele>151.5</ele><time>2026-03-28T10:30:01.034Z</time></trkpt><trkpt lat="45.5096863" lon="10.7873782"><ele>152.0</ele><time>2026-03-28T10:30:02.033Z</time></trkpt><trkpt lat="45.5096568" lon="10.7871715"><ele>152.5</ele><time>2026-03-28T10:30:03.029Z</time></trkpt><trkpt lat="45.5096312" lon="10.7869952"><ele>153.0</ele><time>2026-03-28T10:30:04.03Z</time></trkpt><trkpt lat="45.5096083" lon="10.7868518"><ele>152.83333333333334</ele><time>2026-03-28T10:30:05.029Z</time></trkpt><trkpt lat="45.509593" lon="10.7867332"><ele>152.66666666666666</ele><time>2026-03-28T10:30:06.027Z</time></trkpt><trkpt lat="45.5095897" lon="10.7866212"><ele>152.5</ele><time>2026-03-28T10:30:07.027Z</time></trkpt><trkpt lat="45.5095853" lon="10.78651"><ele>152.33333333333331</ele><time>2026-03-28T10:30:08.036Z</time></trkpt><trkpt lat="45.509571" lon="10.786393"><ele>152.16666666666666</ele><time>2026-03-28T10:30:09.028Z</time></trkpt><trkpt lat="45.5095462" lon="10.7862613"><ele>152.0</ele><time>2026-03-28T10:30:10.027Z</time></trkpt><trkpt lat="45.509525" lon="10.7861185"><ele>152.0</ele><time>2026-03-28T10:30:11.028Z</time></trkpt><trkpt lat="45.5095098" lon="10.7859652"><ele>152.0</ele><time>2026-03-28T10:30:12.027Z</time></trkpt><trkpt lat="45.5094997" lon="10.7858135"><ele>152.0</ele><time>2026-03-28T10:30:13.028Z</time></trkpt><trkpt lat="45.5094915" lon="10.7856765"><ele>152.0</ele><time>2026-03-28T10:30:14.026Z</time></trkpt><trkpt lat="45.5094823" lon="10.785552"><ele>152.0</ele><time>2026-03-28T10:30:15.027Z</time></trkpt><trkpt lat="45.5094757" lon="10.7854383"><ele>152.0</ele><time>2026-03-28T10:30:16.031Z</time></trkpt><trkpt lat="45.5094722" lon="10.7853373"><ele>152.0</ele><time>2026-03-28T10:30:17.028Z</time></trkpt><trkpt lat="45.50947" lon="10.7852475"><ele>152.0</ele><time>2026-03-28T10:30:18.027Z</time></trkpt><trkpt lat="45.509472" lon="10.7851532"><ele>152.0</ele><time>2026-03-28T10:30:19.029Z</time></trkpt><trkpt lat="45.5094852" lon="10.785057"><ele>152.0</ele><time>2026-03-28T10:30:20.029Z</time></trkpt><trkpt lat="45.509512" lon="10.7849745"><ele>152.0</ele><time>2026-03-28T10:30:21.028Z</time></trkpt><trkpt lat="45.5096215" lon="10.7848887"><ele>152.2</ele><time>2026-03-28T10:30:23.03Z</time></trkpt><trkpt lat="45.5097028" lon="10.7848745"><ele>152.39999999999998</ele><time>2026-03-28T10:30:24.029Z</time></trkpt><trkpt lat="45.5097962" lon="10.7848707"><ele>152.60000000000002</ele><time>2026-03-28T10:30:25.03Z</time></trkpt><trkpt lat="45.5099192" lon="10.7848738"><ele>152.8</ele><time>2026-03-28T10:30:26.031Z</time></trkpt><trkpt lat="45.510063" lon="10.7848858"><ele>153.0</ele><time>2026-03-28T10:30:27.029Z</time></trkpt><trkpt lat="45.5102377" lon="10.7849077"><ele>153.66666666666666</ele><time>2026-03-28T10:30:28.028Z</time></trkpt><trkpt lat="45.5104277" lon="10.7849337"><ele>154.33333333333331</ele><time>2026-03-28T10:30:29.028Z</time></trkpt><trkpt lat="45.5106215" lon="10.7849575"><ele>155.0</ele><time>2026-03-28T10:30:30.028Z</time></trkpt><trkpt lat="45.5107993" lon="10.784975"><ele>155.0</ele><time>2026-03-28T10:30:31.027Z</time></trkpt><trkpt lat="45.5109627" lon="10.7849883"><ele>155.0</ele><time>2026-03-28T10:30:32.027Z</time></trkpt><trkpt lat="45.5111092" lon="10.785002"><ele>155.0</ele><time>2026-03-28T10:30:33.028Z</time></trkpt><trkpt lat="45.5112407" lon="10.7850152"><ele>155.0</ele><time>2026-03-28T10:30:34.028Z</time></trkpt><trkpt lat="45.5113585" lon="10.7850213"><ele>155.4</ele><time>2026-03-28T10:30:35.031Z</time></trkpt><trkpt lat="45.5114642" lon="10.7850222"><ele>155.8</ele><time>2026-03-28T10:30:36.029Z</time></trkpt><trkpt lat="45.5115602" lon="10.7850238"><ele>156.2</ele><time>2026-03-28T10:30:37.031Z</time></trkpt><trkpt lat="45.5116348" lon="10.7850325"><ele>156.6</ele><time>2026-03-28T10:30:38.033Z</time></trkpt><trkpt lat="45.5117427" lon="10.7850488"><ele>157.0</ele><time>2026-03-28T10:30:40.031Z</time></trkpt><trkpt lat="45.5118228" lon="10.7850602"><ele>157.0</ele><time>2026-03-28T10:30:42.03Z</time></trkpt><trkpt lat="45.5119005" lon="10.7850518"><ele>157.0</ele><time>2026-03-28T10:30:46.03Z</time></trkpt><trkpt lat="45.5119483" lon="10.7849405"><ele>157.0</ele><time>2026-03-28T10:30:49.029Z</time></trkpt><trkpt lat="45.511947" lon="10.7847497"><ele>157.0</ele><time>2026-03-28T10:30:51.027Z</time></trkpt><trkpt lat="45.511935" lon="10.7846067"><ele>157.0</ele><time>2026-03-28T10:30:52.025Z</time></trkpt><trkpt lat="45.511953" lon="10.7844862"><ele>157.0</ele><time>2026-03-28T10:30:54.027Z</time></trkpt><trkpt lat="45.5119975" lon="10.784409"><ele>157.0</ele><time>2026-03-28T10:30:56.026Z</time></trkpt><trkpt lat="45.5121172" lon="10.7844128"><ele>157.0</ele><time>2026-03-28T10:30:58.026Z</time></trkpt><trkpt lat="45.5121918" lon="10.7844198"><ele>157.0</ele><time>2026-03-28T10:30:59.033Z</time></trkpt><trkpt lat="45.5122752" lon="10.7844228"><ele>157.0</ele><time>2026-03-28T10:31:00.028Z</time></trkpt><trkpt lat="45.5123652" lon="10.784421"><ele>157.0</ele><time>2026-03-28T10:31:01.03Z</time></trkpt><trkpt lat="45.5124633" lon="10.7844168"><ele>157.25</ele><time>2026-03-28T10:31:02.033Z</time></trkpt><trkpt lat="45.5125655" lon="10.7844125"><ele>157.5</ele><time>2026-03-28T10:31:03.031Z</time></trkpt><trkpt lat="45.5126873" lon="10.7844078"><ele>157.75</ele><time>2026-03-28T10:31:04.031Z</time></trkpt><trkpt lat="45.5128222" lon="10.7844037"><ele>158.0</ele><time>2026-03-28T10:31:05.03Z</time></trkpt><trkpt lat="45.5129533" lon="10.7843958"><ele>158.0</ele><time>2026-03-28T10:31:06.032Z</time></trkpt><trkpt lat="45.5130865" lon="10.784388"><ele>158.0</ele><time>2026-03-28T10:31:07.031Z</time></trkpt><trkpt lat="45.5132243" lon="10.784376"><ele>158.0</ele><time>2026-03-28T10:31:08.034Z</time></trkpt><trkpt lat="45.513362" lon="10.7843587"><ele>158.0</ele><time>2026-03-28T10:31:09.032Z</time></trkpt><trkpt lat="45.5134983" lon="10.7843428"><ele>158.0</ele><time>2026-03-28T10:31:10.031Z</time></trkpt><trkpt lat="45.5136355" lon="10.7843265"><ele>158.0</ele><time>2026-03-28T10:31:11.032Z</time></trkpt><trkpt lat="45.5137762" lon="10.7843068"><ele>158.0</ele><time>2026-03-28T10:31:12.03Z</time></trkpt><trkpt lat="45.5139198" lon="10.7842852"><ele>158.0</ele><time>2026-03-28T10:31:13.03Z</time></trkpt><trkpt lat="45.5140655" lon="10.7842613"><ele>159.0</ele><time>2026-03-28T10:31:14.031Z</time></trkpt><trkpt lat="45.5142123" lon="10.784235"><ele>160.0</ele><time>2026-03-28T10:31:15.029Z</time></trkpt><trkpt lat="45.5143608" lon="10.7842055"><ele>161.0</ele><time>2026-03-28T10:31:16.03Z</time></trkpt><trkpt lat="45.514509" lon="10.7841753"><ele>162.0</ele><time>2026-03-28T10:31:17.031Z</time></trkpt><trkpt lat="45.5146453" lon="10.7841478"><ele>162.75</ele><time>2026-03-28T10:31:18.029Z</time></trkpt><trkpt lat="45.5147682" lon="10.784122"><ele>163.5</ele><time>2026-03-28T10:31:19.031Z</time></trkpt><trkpt lat="45.5148812" lon="10.7840985"><ele>164.25</ele><time>2026-03-28T10:31:20.028Z</time></trkpt><trkpt lat="45.5149933" lon="10.7840755"><ele>165.0</ele><time>2026-03-28T10:31:21.027Z</time></trkpt><trkpt lat="45.5150982" lon="10.7840557"><ele>165.0</ele><time>2026-03-28T10:31:22.028Z</time></trkpt><trkpt lat="45.5151907" lon="10.7840275"><ele>165.0</ele><time>2026-03-28T10:31:23.029Z</time></trkpt><trkpt lat="45.515274" lon="10.7839733"><ele>165.0</ele><time>2026-03-28T10:31:24.032Z</time></trkpt><trkpt lat="45.515357" lon="10.7838967"><ele>165.0</ele><time>2026-03-28T10:31:25.03Z</time></trkpt><trkpt lat="45.5154442" lon="10.7838228"><ele>165.0</ele><time>2026-03-28T10:31:26.029Z</time></trkpt><trkpt lat="45.5155358" lon="10.783763"><ele>165.2</ele><time>2026-03-28T10:31:27.028Z</time></trkpt><trkpt lat="45.5156238" lon="10.7837227"><ele>165.4</ele><time>2026-03-28T10:31:28.03Z</time></trkpt><trkpt lat="45.5157282" lon="10.7837028"><ele>165.60000000000002</ele><time>2026-03-28T10:31:29.032Z</time></trkpt><trkpt lat="45.5158525" lon="10.7837005"><ele>165.8</ele><time>2026-03-28T10:31:30.032Z</time></trkpt><trkpt lat="45.515978" lon="10.7837055"><ele>166.0</ele><time>2026-03-28T10:31:31.032Z</time></trkpt><trkpt lat="45.516091" lon="10.7837143"><ele>166.0</ele><time>2026-03-28T10:31:32.029Z</time></trkpt><trkpt lat="45.5161913" lon="10.7837148"><ele>166.0</ele><time>2026-03-28T10:31:33.031Z</time></trkpt><trkpt lat="45.5162833" lon="10.7837005"><ele>166.0</ele><time>2026-03-28T10:31:34.031Z</time></trkpt><trkpt lat="45.5163727" lon="10.7836823"><ele>166.0</ele><time>2026-03-28T10:31:35.031Z</time></trkpt><trkpt lat="45.5164663" lon="10.7836647"><ele>166.0</ele><time>2026-03-28T10:31:36.034Z</time></trkpt><trkpt lat="45.5165433" lon="10.7836482"><ele>166.14285714285714</ele><time>2026-03-28T10:31:37.031Z</time></trkpt><trkpt lat="45.516609" lon="10.7836255"><ele>166.2857142857143</ele><time>2026-03-28T10:31:38.029Z</time></trkpt><trkpt lat="45.5166748" lon="10.7836043"><ele>166.42857142857144</ele><time>2026-03-28T10:31:39.031Z</time></trkpt><trkpt lat="45.5167618" lon="10.7835808"><ele>166.57142857142856</ele><time>2026-03-28T10:31:41.03Z</time></trkpt><trkpt lat="45.5168302" lon="10.7835017"><ele>166.71428571428572</ele><time>2026-03-28T10:31:44.026Z</time></trkpt><trkpt lat="45.5168913" lon="10.7834552"><ele>166.85714285714286</ele><time>2026-03-28T10:31:49.03Z</time></trkpt><trkpt lat="45.5169337" lon="10.7835235"><ele>167.0</ele><time>2026-03-28T10:31:51.03Z</time></trkpt><trkpt lat="45.5170225" lon="10.783541"><ele>167.0</ele><time>2026-03-28T10:31:53.031Z</time></trkpt><trkpt lat="45.5170988" lon="10.7835265"><ele>167.0</ele><time>2026-03-28T10:31:54.031Z</time></trkpt><trkpt lat="45.5172122" lon="10.7834982"><ele>167.0</ele><time>2026-03-28T10:31:55.029Z</time></trkpt><trkpt lat="45.5173535" lon="10.7834623"><ele>167.0</ele><time>2026-03-28T10:31:56.03Z</time></trkpt><trkpt lat="45.5175297" lon="10.7834168"><ele>167.33333333333331</ele><time>2026-03-28T10:31:57.032Z</time></trkpt><trkpt lat="45.51772" lon="10.7833668"><ele>167.66666666666666</ele><time>2026-03-28T10:31:58.032Z</time></trkpt><trkpt lat="45.517924" lon="10.7833098"><ele>168.0</ele><time>2026-03-28T10:31:59.034Z</time></trkpt><trkpt lat="45.5181275" lon="10.7832517"><ele>169.0</ele><time>2026-03-28T10:32:00.03Z</time></trkpt><trkpt lat="45.5183163" lon="10.7832"><ele>170.0</ele><time>2026-03-28T10:32:01.033Z</time></trkpt><trkpt lat="45.518494" lon="10.7831542"><ele>171.0</ele><time>2026-03-28T10:32:02.031Z</time></trkpt><trkpt lat="45.51867" lon="10.7831083"><ele>170.0</ele><time>2026-03-28T10:32:03.03Z</time></trkpt><trkpt lat="45.5188377" lon="10.7830622"><ele>169.0</ele><time>2026-03-28T10:32:04.033Z</time></trkpt><trkpt lat="45.5189927" lon="10.78302"><ele>168.0</ele><time>2026-03-28T10:32:05.03Z</time></trkpt><trkpt lat="45.5191455" lon="10.78298"><ele>168.0</ele><time>2026-03-28T10:32:06.03Z</time></trkpt><trkpt lat="45.5193047" lon="10.7829363"><ele>168.0</ele><time>2026-03-28T10:32:07.031Z</time></trkpt><trkpt lat="45.5194672" lon="10.782887"><ele>168.0</ele><time>2026-03-28T10:32:08.029Z</time></trkpt><trkpt lat="45.5196323" lon="10.7828395"><ele>167.66666666666666</ele><time>2026-03-28T10:32:09.028Z</time></trkpt><trkpt lat="45.5198123" lon="10.7827943"><ele>167.33333333333331</ele><time>2026-03-28T10:32:10.028Z</time></trkpt><trkpt lat="45.5200045" lon="10.7827517"><ele>167.0</ele><time>2026-03-28T10:32:11.027Z</time></trkpt><trkpt lat="45.5201887" lon="10.7827157"><ele>167.0</ele><time>2026-03-28T10:32:12.028Z</time></trkpt><trkpt lat="45.5203642" lon="10.7826843"><ele>167.0</ele><time>2026-03-28T10:32:13.031Z</time></trkpt><trkpt lat="45.520533" lon="10.7826558"><ele>167.0</ele><time>2026-03-28T10:32:14.032Z</time></trkpt><trkpt lat="45.5206915" lon="10.7826253"><ele>167.33333333333331</ele><time>2026-03-28T10:32:15.031Z</time></trkpt><trkpt lat="45.5208465" lon="10.7825832"><ele>167.66666666666666</ele><time>2026-03-28T10:32:16.03Z</time></trkpt><trkpt lat="45.5210032" lon="10.7825313"><ele>168.0</ele><time>2026-03-28T10:32:17.032Z</time></trkpt><trkpt lat="45.521166" lon="10.7824762"><ele>168.66666666666666</ele><time>2026-03-28T10:32:18.031Z</time></trkpt><trkpt lat="45.5213413" lon="10.7824215"><ele>169.33333333333331</ele><time>2026-03-28T10:32:19.031Z</time></trkpt><trkpt lat="45.5215323" lon="10.7823667"><ele>170.0</ele><time>2026-03-28T10:32:20.032Z</time></trkpt><trkpt lat="45.5217205" lon="10.7823148"><ele>170.0</ele><time>2026-03-28T10:32:21.031Z</time></trkpt><trkpt lat="45.521895" lon="10.7822703"><ele>170.0</ele><time>2026-03-28T10:32:22.032Z</time></trkpt><trkpt lat="45.522064" lon="10.7822307"><ele>170.0</ele><time>2026-03-28T10:32:23.034Z</time></trkpt><trkpt lat="45.5222358" lon="10.7821895"><ele>169.33333333333331</ele><time>2026-03-28T10:32:24.032Z</time></trkpt><trkpt lat="45.5224095" lon="10.782151"><ele>168.66666666666666</ele><time>2026-03-28T10:32:25.032Z</time></trkpt><trkpt lat="45.5225852" lon="10.7821112"><ele>168.0</ele><time>2026-03-28T10:32:26.033Z</time></trkpt><trkpt lat="45.5227658" lon="10.7820675"><ele>166.66666666666666</ele><time>2026-03-28T10:32:27.033Z</time></trkpt><trkpt lat="45.5229405" lon="10.7820283"><ele>165.33333333333331</ele><time>2026-03-28T10:32:28.032Z</time></trkpt><trkpt lat="45.523108" lon="10.7819932"><ele>164.0</ele><time>2026-03-28T10:32:29.031Z</time></trkpt><trkpt lat="45.5232712" lon="10.7819568"><ele>164.0</ele><time>2026-03-28T10:32:30.031Z</time></trkpt><trkpt lat="45.5234295" lon="10.7819205"><ele>164.0</ele><time>2026-03-28T10:32:31.031Z</time></trkpt><trkpt lat="45.5235788" lon="10.7818847"><ele>164.0</ele><time>2026-03-28T10:32:32.031Z</time></trkpt><trkpt lat="45.5237197" lon="10.781842"><ele>163.75</ele><time>2026-03-28T10:32:33.029Z</time></trkpt><trkpt lat="45.523852" lon="10.7817957"><ele>163.5</ele><time>2026-03-28T10:32:34.03Z</time></trkpt><trkpt lat="45.5239672" lon="10.7817558"><ele>163.25</ele><time>2026-03-28T10:32:35.028Z</time></trkpt><trkpt lat="45.5240718" lon="10.7817227"><ele>163.0</ele><time>2026-03-28T10:32:36.028Z</time></trkpt><trkpt lat="45.524162" lon="10.781695"><ele>163.0</ele><time>2026-03-28T10:32:37.031Z</time></trkpt><trkpt lat="45.5242253" lon="10.7816778"><ele>163.0</ele><time>2026-03-28T10:32:38.032Z</time></trkpt><trkpt lat="45.5243377" lon="10.7816065"><ele>163.0</ele><time>2026-03-28T10:32:40.033Z</time></trkpt><trkpt lat="45.5243882" lon="10.7815303"><ele>163.0</ele><time>2026-03-28T10:32:41.03Z</time></trkpt><trkpt lat="45.524438" lon="10.7814038"><ele>163.0</ele><time>2026-03-28T10:32:42.03Z</time></trkpt><trkpt lat="45.5244878" lon="10.781243"><ele>163.0</ele><time>2026-03-28T10:32:43.033Z</time></trkpt><trkpt lat="45.5245255" lon="10.7810907"><ele>163.0</ele><time>2026-03-28T10:32:44.032Z</time></trkpt><trkpt lat="45.5245453" lon="10.7809503"><ele>163.0</ele><time>2026-03-28T10:32:45.03Z</time></trkpt><trkpt lat="45.5245472" lon="10.7807878"><ele>163.0</ele><time>2026-03-28T10:32:46.031Z</time></trkpt><trkpt lat="45.5245397" lon="10.7806122"><ele>163.66666666666669</ele><time>2026-03-28T10:32:47.033Z</time></trkpt><trkpt lat="45.5245255" lon="10.780414"><ele>164.33333333333334</ele><time>2026-03-28T10:32:48.032Z</time></trkpt><trkpt lat="45.5245182" lon="10.7801823"><ele>165.0</ele><time>2026-03-28T10:32:49.031Z</time></trkpt><trkpt lat="45.5245272" lon="10.779932"><ele>165.25</ele><time>2026-03-28T10:32:50.03Z</time></trkpt><trkpt lat="45.5245435" lon="10.7796973"><ele>165.5</ele><time>2026-03-28T10:32:51.033Z</time></trkpt><trkpt lat="45.524556" lon="10.779485"><ele>165.75</ele><time>2026-03-28T10:32:52.031Z</time></trkpt><trkpt lat="45.5245615" lon="10.7792955"><ele>166.0</ele><time>2026-03-28T10:32:53.031Z</time></trkpt><trkpt lat="45.5245565" lon="10.7791213"><ele>166.20000000000002</ele><time>2026-03-28T10:32:54.03Z</time></trkpt><trkpt lat="45.5245443" lon="10.778962"><ele>166.4</ele><time>2026-03-28T10:32:55.033Z</time></trkpt><trkpt lat="45.524533" lon="10.7788152"><ele>166.6</ele><time>2026-03-28T10:32:56.031Z</time></trkpt><trkpt lat="45.5245232" lon="10.7786797"><ele>166.8</ele><time>2026-03-28T10:32:57.027Z</time></trkpt><trkpt lat="45.5245125" lon="10.778554"><ele>167.0</ele><time>2026-03-28T10:32:58.026Z</time></trkpt><trkpt lat="45.5245018" lon="10.7784368"><ele>166.42857142857142</ele><time>2026-03-28T10:32:59.027Z</time></trkpt><trkpt lat="45.5244918" lon="10.7783287"><ele>165.85714285714286</ele><time>2026-03-28T10:33:00.026Z</time></trkpt><trkpt lat="45.5244835" lon="10.7782268"><ele>165.28571428571428</ele><time>2026-03-28T10:33:01.03Z</time></trkpt><trkpt lat="45.5244752" lon="10.778128"><ele>164.71428571428572</ele><time>2026-03-28T10:33:02.029Z</time></trkpt><trkpt lat="45.5244667" lon="10.7780328"><ele>164.14285714285714</ele><time>2026-03-28T10:33:03.031Z</time></trkpt><trkpt lat="45.5244582" lon="10.7779393"><ele>163.57142857142858</ele><time>2026-03-28T10:33:04.031Z</time></trkpt><trkpt lat="45.5244448" lon="10.777801"><ele>163.0</ele><time>2026-03-28T10:33:06.033Z</time></trkpt><trkpt lat="45.5244278" lon="10.7777065"><ele>162.33333333333334</ele><time>2026-03-28T10:33:08.031Z</time></trkpt><trkpt lat="45.5244163" lon="10.7776163"><ele>161.66666666666669</ele><time>2026-03-28T10:33:10.03Z</time></trkpt><trkpt lat="45.5244128" lon="10.7775245"><ele>161.0</ele><time>2026-03-28T10:33:13.031Z</time></trkpt><trkpt lat="45.524396" lon="10.7773948"><ele>160.33333333333334</ele><time>2026-03-28T10:33:33.029Z</time></trkpt><trkpt lat="45.5243855" lon="10.7772605"><ele>159.66666666666666</ele><time>2026-03-28T10:33:34.03Z</time></trkpt><trkpt lat="45.5243765" lon="10.7771135"><ele>159.0</ele><time>2026-03-28T10:33:35.033Z</time></trkpt><trkpt lat="45.5243682" lon="10.7769747"><ele>158.83333333333334</ele><time>2026-03-28T10:33:36.031Z</time></trkpt><trkpt lat="45.5243592" lon="10.7768485"><ele>158.66666666666666</ele><time>2026-03-28T10:33:37.033Z</time></trkpt><trkpt lat="45.5243503" lon="10.7767347"><ele>158.5</ele><time>2026-03-28T10:33:38.031Z</time></trkpt><trkpt lat="45.5243427" lon="10.7766195"><ele>158.33333333333331</ele><time>2026-03-28T10:33:39.032Z</time></trkpt><trkpt lat="45.5243332" lon="10.7765083"><ele>158.16666666666666</ele><time>2026-03-28T10:33:40.03Z</time></trkpt><trkpt lat="45.5243227" lon="10.776398"><ele>158.0</ele><time>2026-03-28T10:33:41.03Z</time></trkpt><trkpt lat="45.5243253" lon="10.7762842"><ele>158.0</ele><time>2026-03-28T10:33:42.03Z</time></trkpt><trkpt lat="45.5243537" lon="10.776186"><ele>158.0</ele><time>2026-03-28T10:33:43.032Z</time></trkpt><trkpt lat="45.5244102" lon="10.7760975"><ele>158.0</ele><time>2026-03-28T10:33:44.029Z</time></trkpt><trkpt lat="45.5244918" lon="10.7760318"><ele>158.0</ele><time>2026-03-28T10:33:45.03Z</time></trkpt><trkpt lat="45.5245933" lon="10.7759905"><ele>158.0</ele><time>2026-03-28T10:33:46.029Z</time></trkpt><trkpt lat="45.5247237" lon="10.775963"><ele>158.0</ele><time>2026-03-28T10:33:47.028Z</time></trkpt><trkpt lat="45.5248692" lon="10.7759475"><ele>158.0</ele><time>2026-03-28T10:33:48.027Z</time></trkpt><trkpt lat="45.5250257" lon="10.775937"><ele>158.0</ele><time>2026-03-28T10:33:49.028Z</time></trkpt><trkpt lat="45.5251795" lon="10.7759247"><ele>158.0</ele><time>2026-03-28T10:33:50.028Z</time></trkpt><trkpt lat="45.5253297" lon="10.7759075"><ele>158.0</ele><time>2026-03-28T10:33:51.03Z</time></trkpt><trkpt lat="45.5254738" lon="10.7758858"><ele>158.0</ele><time>2026-03-28T10:33:52.03Z</time></trkpt><trkpt lat="45.525615" lon="10.7758592"><ele>158.0</ele><time>2026-03-28T10:33:53.03Z</time></trkpt><trkpt lat="45.5257547" lon="10.775832"><ele>158.0</ele><time>2026-03-28T10:33:54.029Z</time></trkpt><trkpt lat="45.525882" lon="10.775794"><ele>158.0</ele><time>2026-03-28T10:33:55.028Z</time></trkpt><trkpt lat="45.5260107" lon="10.7757432"><ele>158.0</ele><time>2026-03-28T10:33:56.03Z</time></trkpt><trkpt lat="45.5261478" lon="10.775677"><ele>158.0</ele><time>2026-03-28T10:33:57.028Z</time></trkpt><trkpt lat="45.526278" lon="10.7756072"><ele>158.0</ele><time>2026-03-28T10:33:58.03Z</time></trkpt><trkpt lat="45.5264027" lon="10.775548"><ele>158.0</ele><time>2026-03-28T10:33:59.033Z</time></trkpt><trkpt lat="45.5265205" lon="10.775507"><ele>158.0</ele><time>2026-03-28T10:34:00.028Z</time></trkpt><trkpt lat="45.5266357" lon="10.7754853"><ele>158.0</ele><time>2026-03-28T10:34:01.03Z</time></trkpt><trkpt lat="45.5267575" lon="10.775498"><ele>158.0</ele><time>2026-03-28T10:34:02.029Z</time></trkpt><trkpt lat="45.5268852" lon="10.7755447"><ele>158.0</ele><time>2026-03-28T10:34:03.027Z</time></trkpt><trkpt lat="45.5270297" lon="10.7756128"><ele>158.0</ele><time>2026-03-28T10:34:04.027Z</time></trkpt><trkpt lat="45.5271858" lon="10.7756852"><ele>158.0</ele><time>2026-03-28T10:34:05.032Z</time></trkpt><trkpt lat="45.5273408" lon="10.775753"><ele>157.5</ele><time>2026-03-28T10:34:06.032Z</time></trkpt><trkpt lat="45.5274845" lon="10.7758248"><ele>157.0</ele><time>2026-03-28T10:34:07.03Z</time></trkpt><trkpt lat="45.5276183" lon="10.7758925"><ele>156.5</ele><time>2026-03-28T10:34:08.03Z</time></trkpt><trkpt lat="45.5277518" lon="10.775943"><ele>156.0</ele><time>2026-03-28T10:34:09.032Z</time></trkpt><trkpt lat="45.5278838" lon="10.7759775"><ele>156.75</ele><time>2026-03-28T10:34:10.029Z</time></trkpt><trkpt lat="45.528015" lon="10.7759965"><ele>157.5</ele><time>2026-03-28T10:34:11.028Z</time></trkpt><trkpt lat="45.52816" lon="10.776006"><ele>158.25</ele><time>2026-03-28T10:34:12.028Z</time></trkpt><trkpt lat="45.5282968" lon="10.7760117"><ele>159.0</ele><time>2026-03-28T10:34:13.028Z</time></trkpt><trkpt lat="45.5284237" lon="10.7760175"><ele>159.0</ele><time>2026-03-28T10:34:14.029Z</time></trkpt><trkpt lat="45.5285485" lon="10.7760225"><ele>159.0</ele><time>2026-03-28T10:34:15.033Z</time></trkpt><trkpt lat="45.5286633" lon="10.7760123"><ele>159.0</ele><time>2026-03-28T10:34:16.032Z</time></trkpt><trkpt lat="45.5287822" lon="10.775985"><ele>159.0</ele><time>2026-03-28T10:34:17.031Z</time></trkpt><trkpt lat="45.5289032" lon="10.7759348"><ele>159.25</ele><time>2026-03-28T10:34:18.029Z</time></trkpt><trkpt lat="45.5290302" lon="10.775862"><ele>159.5</ele><time>2026-03-28T10:34:19.031Z</time></trkpt><trkpt lat="45.5291548" lon="10.7757655"><ele>159.75</ele><time>2026-03-28T10:34:20.029Z</time></trkpt><trkpt lat="45.5292878" lon="10.7756427"><ele>160.0</ele><time>2026-03-28T10:34:21.028Z</time></trkpt><trkpt lat="45.5294132" lon="10.7755202"><ele>160.0</ele><time>2026-03-28T10:34:22.03Z</time></trkpt><trkpt lat="45.5295265" lon="10.7754143"><ele>160.0</ele><time>2026-03-28T10:34:23.029Z</time></trkpt><trkpt lat="45.5296252" lon="10.7753315"><ele>160.0</ele><time>2026-03-28T10:34:24.03Z</time></trkpt><trkpt lat="45.5297088" lon="10.7752788"><ele>160.0</ele><time>2026-03-28T10:34:25.034Z</time></trkpt><trkpt lat="45.5297885" lon="10.7752627"><ele>160.0</ele><time>2026-03-28T10:34:26.029Z</time></trkpt><trkpt lat="45.5298762" lon="10.775284"><ele>160.25</ele><time>2026-03-28T10:34:27.029Z</time></trkpt><trkpt lat="45.5299867" lon="10.7753438"><ele>160.5</ele><time>2026-03-28T10:34:28.028Z</time></trkpt><trkpt lat="45.5301098" lon="10.7754202"><ele>160.75</ele><time>2026-03-28T10:34:29.027Z</time></trkpt><trkpt lat="45.5302248" lon="10.7754823"><ele>161.0</ele><time>2026-03-28T10:34:30.029Z</time></trkpt><trkpt lat="45.5303312" lon="10.7755342"><ele>161.0</ele><time>2026-03-28T10:34:31.029Z</time></trkpt><trkpt lat="45.5304235" lon="10.7755893"><ele>161.0</ele><time>2026-03-28T10:34:32.028Z</time></trkpt><trkpt lat="45.5305032" lon="10.775669"><ele>161.0</ele><time>2026-03-28T10:34:33.029Z</time></trkpt><trkpt lat="45.5305723" lon="10.7757793"><ele>161.0</ele><time>2026-03-28T10:34:34.028Z</time></trkpt><trkpt lat="45.5306283" lon="10.7759238"><ele>161.0</ele><time>2026-03-28T10:34:35.028Z</time></trkpt><trkpt lat="45.5306648" lon="10.7760808"><ele>160.60000000000002</ele><time>2026-03-28T10:34:36.03Z</time></trkpt><trkpt lat="45.530697" lon="10.776224"><ele>160.20000000000002</ele><time>2026-03-28T10:34:37.029Z</time></trkpt><trkpt lat="45.5307458" lon="10.7763532"><ele>159.8</ele><time>2026-03-28T10:34:38.032Z</time></trkpt><trkpt lat="45.5308172" lon="10.7764737"><ele>159.4</ele><time>2026-03-28T10:34:39.029Z</time></trkpt><trkpt lat="45.5309037" lon="10.7765682"><ele>159.0</ele><time>2026-03-28T10:34:40.03Z</time></trkpt><trkpt lat="45.5309995" lon="10.7766372"><ele>159.0</ele><time>2026-03-28T10:34:41.03Z</time></trkpt><trkpt lat="45.531104" lon="10.7766907"><ele>159.0</ele><time>2026-03-28T10:34:42.028Z</time></trkpt><trkpt lat="45.5312065" lon="10.7767272"><ele>159.0</ele><time>2026-03-28T10:34:43.029Z</time></trkpt><trkpt lat="45.5312973" lon="10.7767537"><ele>159.0</ele><time>2026-03-28T10:34:44.028Z</time></trkpt><trkpt lat="45.5313685" lon="10.7767823"><ele>159.0</ele><time>2026-03-28T10:34:45.028Z</time></trkpt><trkpt lat="45.5314263" lon="10.7768273"><ele>159.0</ele><time>2026-03-28T10:34:46.03Z</time></trkpt><trkpt lat="45.531493" lon="10.7769817"><ele>159.83333333333334</ele><time>2026-03-28T10:34:48.028Z</time></trkpt><trkpt lat="45.5315067" lon="10.7771133"><ele>160.66666666666666</ele><time>2026-03-28T10:34:50.029Z</time></trkpt><trkpt lat="45.5315363" lon="10.7772078"><ele>161.5</ele><time>2026-03-28T10:34:53.029Z</time></trkpt><trkpt lat="45.5316288" lon="10.7772543"><ele>162.33333333333331</ele><time>2026-03-28T10:34:56.03Z</time></trkpt><trkpt lat="45.5316985" lon="10.7772188"><ele>163.16666666666666</ele><time>2026-03-28T10:34:57.028Z</time></trkpt><trkpt lat="45.5317827" lon="10.7771362"><ele>164.0</ele><time>2026-03-28T10:34:58.03Z</time></trkpt><trkpt lat="45.5318883" lon="10.7770293"><ele>164.0</ele><time>2026-03-28T10:34:59.03Z</time></trkpt><trkpt lat="45.5320115" lon="10.776908"><ele>164.0</ele><time>2026-03-28T10:35:00.028Z</time></trkpt><trkpt lat="45.5321485" lon="10.7767732"><ele>164.0</ele><time>2026-03-28T10:35:01.027Z</time></trkpt><trkpt lat="45.5322898" lon="10.7766343"><ele>164.33333333333331</ele><time>2026-03-28T10:35:02.027Z</time></trkpt><trkpt lat="45.5324312" lon="10.7764943"><ele>164.66666666666666</ele><time>2026-03-28T10:35:03.027Z</time></trkpt><trkpt lat="45.532566" lon="10.776359"><ele>165.0</ele><time>2026-03-28T10:35:04.027Z</time></trkpt><trkpt lat="45.5327007" lon="10.776224"><ele>165.0</ele><time>2026-03-28T10:35:05.026Z</time></trkpt><trkpt lat="45.5328403" lon="10.7760875"><ele>165.0</ele><time>2026-03-28T10:35:06.025Z</time></trkpt><trkpt lat="45.5329795" lon="10.7759647"><ele>165.0</ele><time>2026-03-28T10:35:07.031Z</time></trkpt><trkpt lat="45.53312" lon="10.7758728"><ele>164.66666666666666</ele><time>2026-03-28T10:35:08.027Z</time></trkpt><trkpt lat="45.533277" lon="10.7758157"><ele>164.33333333333331</ele><time>2026-03-28T10:35:09.028Z</time></trkpt><trkpt lat="45.5334533" lon="10.7758005"><ele>164.0</ele><time>2026-03-28T10:35:10.027Z</time></trkpt><trkpt lat="45.5336343" lon="10.7758258"><ele>164.66666666666666</ele><time>2026-03-28T10:35:11.03Z</time></trkpt><trkpt lat="45.5338172" lon="10.775882"><ele>165.33333333333334</ele><time>2026-03-28T10:35:12.026Z</time></trkpt><trkpt lat="45.5340088" lon="10.775952"><ele>166.0</ele><time>2026-03-28T10:35:13.03Z</time></trkpt><trkpt lat="45.5341913" lon="10.7760193"><ele>166.33333333333334</ele><time>2026-03-28T10:35:14.027Z</time></trkpt><trkpt lat="45.534374" lon="10.776088"><ele>166.66666666666666</ele><time>2026-03-28T10:35:15.027Z</time></trkpt><trkpt lat="45.5345567" lon="10.776155"><ele>167.0</ele><time>2026-03-28T10:35:16.027Z</time></trkpt><trkpt lat="45.534729" lon="10.7762088"><ele>168.0</ele><time>2026-03-28T10:35:17.028Z</time></trkpt><trkpt lat="45.5348923" lon="10.7762353"><ele>169.0</ele><time>2026-03-28T10:35:18.028Z</time></trkpt><trkpt lat="45.535055" lon="10.7762305"><ele>170.0</ele><time>2026-03-28T10:35:19.029Z</time></trkpt><trkpt lat="45.5352222" lon="10.7761937"><ele>170.0</ele><time>2026-03-28T10:35:20.029Z</time></trkpt><trkpt lat="45.5353928" lon="10.7761222"><ele>170.0</ele><time>2026-03-28T10:35:21.029Z</time></trkpt><trkpt lat="45.5355705" lon="10.7760192"><ele>170.0</ele><time>2026-03-28T10:35:22.032Z</time></trkpt><trkpt lat="45.5357425" lon="10.7759163"><ele>170.0</ele><time>2026-03-28T10:35:23.028Z</time></trkpt><trkpt lat="45.5359022" lon="10.7758253"><ele>170.0</ele><time>2026-03-28T10:35:24.029Z</time></trkpt><trkpt lat="45.5360475" lon="10.7757408"><ele>170.0</ele><time>2026-03-28T10:35:25.026Z</time></trkpt><trkpt lat="45.536177" lon="10.7756653"><ele>170.2</ele><time>2026-03-28T10:35:26.026Z</time></trkpt><trkpt lat="45.536286" lon="10.775608"><ele>170.4</ele><time>2026-03-28T10:35:27.026Z</time></trkpt><trkpt lat="45.5363855" lon="10.7755575"><ele>170.60000000000002</ele><time>2026-03-28T10:35:28.028Z</time></trkpt><trkpt lat="45.5364767" lon="10.7755083"><ele>170.8</ele><time>2026-03-28T10:35:29.033Z</time></trkpt><trkpt lat="45.5365617" lon="10.775461"><ele>171.0</ele><time>2026-03-28T10:35:30.031Z</time></trkpt><trkpt lat="45.5366428" lon="10.7754158"><ele>171.0</ele><time>2026-03-28T10:35:31.029Z</time></trkpt><trkpt lat="45.536719" lon="10.775374"><ele>171.0</ele><time>2026-03-28T10:35:32.028Z</time></trkpt><trkpt lat="45.5367967" lon="10.7753313"><ele>171.0</ele><time>2026-03-28T10:35:33.029Z</time></trkpt><trkpt lat="45.536876" lon="10.775287"><ele>171.0</ele><time>2026-03-28T10:35:34.029Z</time></trkpt><trkpt lat="45.5369537" lon="10.7752442"><ele>171.0</ele><time>2026-03-28T10:35:35.029Z</time></trkpt><trkpt lat="45.5370303" lon="10.7752018"><ele>171.0</ele><time>2026-03-28T10:35:36.028Z</time></trkpt><trkpt lat="45.5371058" lon="10.775159"><ele>171.5</ele><time>2026-03-28T10:35:37.027Z</time></trkpt><trkpt lat="45.5371737" lon="10.7751198"><ele>172.0</ele><time>2026-03-28T10:35:38.031Z</time></trkpt><trkpt lat="45.5372328" lon="10.7750872"><ele>172.5</ele><time>2026-03-28T10:35:39.03Z</time></trkpt><trkpt lat="45.5373272" lon="10.775034"><ele>173.0</ele><time>2026-03-28T10:35:41.028Z</time></trkpt><trkpt lat="45.5374222" lon="10.7750165"><ele>173.5</ele><time>2026-03-28T10:35:43.032Z</time></trkpt><trkpt lat="45.5374872" lon="10.7750883"><ele>174.0</ele><time>2026-03-28T10:35:45.028Z</time></trkpt><trkpt lat="45.5375148" lon="10.7751795"><ele>174.25</ele><time>2026-03-28T10:35:46.033Z</time></trkpt><trkpt lat="45.5375362" lon="10.7753273"><ele>174.5</ele><time>2026-03-28T10:35:47.031Z</time></trkpt><trkpt lat="45.5375498" lon="10.7755058"><ele>174.75</ele><time>2026-03-28T10:35:48.029Z</time></trkpt><trkpt lat="45.5375618" lon="10.775727"><ele>175.0</ele><time>2026-03-28T10:35:49.028Z</time></trkpt><trkpt lat="45.5375698" lon="10.7759637"><ele>174.33333333333334</ele><time>2026-03-28T10:35:50.028Z</time></trkpt><trkpt lat="45.5375757" lon="10.7762232"><ele>173.66666666666666</ele><time>2026-03-28T10:35:51.03Z</time></trkpt><trkpt lat="45.5375827" lon="10.7764703"><ele>173.0</ele><time>2026-03-28T10:35:52.029Z</time></trkpt><trkpt lat="45.5375917" lon="10.7767033"><ele>174.0</ele><time>2026-03-28T10:35:53.028Z</time></trkpt><trkpt lat="45.5376028" lon="10.77693"><ele>175.0</ele><time>2026-03-28T10:35:54.028Z</time></trkpt><trkpt lat="45.5376135" lon="10.777146"><ele>176.0</ele><time>2026-03-28T10:35:55.031Z</time></trkpt><trkpt lat="45.5376233" lon="10.7773527"><ele>176.0</ele><time>2026-03-28T10:35:56.027Z</time></trkpt><trkpt lat="45.5376352" lon="10.7775607"><ele>176.0</ele><time>2026-03-28T10:35:57.027Z</time></trkpt><trkpt lat="45.5376443" lon="10.7777742"><ele>176.0</ele><time>2026-03-28T10:35:58.026Z</time></trkpt><trkpt lat="45.537657" lon="10.778"><ele>175.66666666666666</ele><time>2026-03-28T10:35:59.036Z</time></trkpt><trkpt lat="45.5376708" lon="10.7782382"><ele>175.33333333333334</ele><time>2026-03-28T10:36:00.031Z</time></trkpt><trkpt lat="45.5376858" lon="10.778494"><ele>175.0</ele><time>2026-03-28T10:36:01.031Z</time></trkpt><trkpt lat="45.5377022" lon="10.778762"><ele>174.33333333333334</ele><time>2026-03-28T10:36:02.03Z</time></trkpt><trkpt lat="45.5377173" lon="10.77902"><ele>173.66666666666666</ele><time>2026-03-28T10:36:03.028Z</time></trkpt><trkpt lat="45.537732" lon="10.7792658"><ele>173.0</ele><time>2026-03-28T10:36:04.029Z</time></trkpt><trkpt lat="45.5377467" lon="10.7794922"><ele>173.0</ele><time>2026-03-28T10:36:05.027Z</time></trkpt><trkpt lat="45.5377593" lon="10.7796805"><ele>173.0</ele><time>2026-03-28T10:36:06.027Z</time></trkpt><trkpt lat="45.5377875" lon="10.77986"><ele>173.0</ele><time>2026-03-28T10:36:07.025Z</time></trkpt><trkpt lat="45.5377963" lon="10.7799918"><ele>173.0</ele><time>2026-03-28T10:36:08.024Z</time></trkpt><trkpt lat="45.537784" lon="10.7800882"><ele>173.0</ele><time>2026-03-28T10:36:10.026Z</time></trkpt><trkpt lat="45.5376795" lon="10.7801407"><ele>173.0</ele><time>2026-03-28T10:36:12.03Z</time></trkpt><trkpt lat="45.5375753" lon="10.7801493"><ele>173.0</ele><time>2026-03-28T10:36:13.03Z</time></trkpt><trkpt lat="45.5374462" lon="10.780158"><ele>173.0</ele><time>2026-03-28T10:36:14.03Z</time></trkpt><trkpt lat="45.5373028" lon="10.780175"><ele>173.0</ele><time>2026-03-28T10:36:15.032Z</time></trkpt><trkpt lat="45.5371627" lon="10.7801928"><ele>172.25</ele><time>2026-03-28T10:36:16.028Z</time></trkpt><trkpt lat="45.5370268" lon="10.7802072"><ele>171.5</ele><time>2026-03-28T10:36:17.027Z</time></trkpt><trkpt lat="45.5368898" lon="10.7802262"><ele>170.75</ele><time>2026-03-28T10:36:18.029Z</time></trkpt><trkpt lat="45.5367468" lon="10.7802477"><ele>170.0</ele><time>2026-03-28T10:36:19.029Z</time></trkpt><trkpt lat="45.5366005" lon="10.7802682"><ele>170.0</ele><time>2026-03-28T10:36:20.027Z</time></trkpt><trkpt lat="45.5364512" lon="10.7802903"><ele>170.0</ele><time>2026-03-28T10:36:21.027Z</time></trkpt><trkpt lat="45.5363022" lon="10.7803132"><ele>170.0</ele><time>2026-03-28T10:36:22.029Z</time></trkpt><trkpt lat="45.5361542" lon="10.780336"><ele>170.0</ele><time>2026-03-28T10:36:23.028Z</time></trkpt><trkpt lat="45.5360005" lon="10.780359"><ele>167.66666666666666</ele><time>2026-03-28T10:36:24.027Z</time></trkpt><trkpt lat="45.5358333" lon="10.7803865"><ele>165.33333333333334</ele><time>2026-03-28T10:36:25.029Z</time></trkpt><trkpt lat="45.5356522" lon="10.7804175"><ele>163.0</ele><time>2026-03-28T10:36:26.022Z</time></trkpt><trkpt lat="45.5354718" lon="10.7804487"><ele>163.33333333333334</ele><time>2026-03-28T10:36:27.031Z</time></trkpt><trkpt lat="45.5352875" lon="10.78048"><ele>163.66666666666666</ele><time>2026-03-28T10:36:28.029Z</time></trkpt><trkpt lat="45.5351032" lon="10.7805083"><ele>164.0</ele><time>2026-03-28T10:36:29.03Z</time></trkpt><trkpt lat="45.5349273" lon="10.7805335"><ele>164.0</ele><time>2026-03-28T10:36:30.028Z</time></trkpt><trkpt lat="45.5347602" lon="10.7805548"><ele>164.0</ele><time>2026-03-28T10:36:31.031Z</time></trkpt><trkpt lat="45.5345923" lon="10.780575"><ele>164.0</ele><time>2026-03-28T10:36:32.031Z</time></trkpt><trkpt lat="45.5344208" lon="10.780595"><ele>163.33333333333331</ele><time>2026-03-28T10:36:33.029Z</time></trkpt><trkpt lat="45.5342485" lon="10.7806138"><ele>162.66666666666666</ele><time>2026-03-28T10:36:34.029Z</time></trkpt><trkpt lat="45.5340845" lon="10.7806307"><ele>162.0</ele><time>2026-03-28T10:36:35.029Z</time></trkpt><trkpt lat="45.533929" lon="10.7806462"><ele>162.0</ele><time>2026-03-28T10:36:36.033Z</time></trkpt><trkpt lat="45.5337825" lon="10.7806608"><ele>162.0</ele><time>2026-03-28T10:36:37.032Z</time></trkpt><trkpt lat="45.5336423" lon="10.7806758"><ele>162.0</ele><time>2026-03-28T10:36:38.03Z</time></trkpt><trkpt lat="45.5335022" lon="10.7806925"><ele>162.0</ele><time>2026-03-28T10:36:39.028Z</time></trkpt><trkpt lat="45.5333587" lon="10.7807095"><ele>162.5</ele><time>2026-03-28T10:36:40.028Z</time></trkpt><trkpt lat="45.5332155" lon="10.7807265"><ele>163.0</ele><time>2026-03-28T10:36:41.027Z</time></trkpt><trkpt lat="45.533072" lon="10.780745"><ele>163.5</ele><time>2026-03-28T10:36:42.029Z</time></trkpt><trkpt lat="45.5329377" lon="10.7807637"><ele>164.0</ele><time>2026-03-28T10:36:43.033Z</time></trkpt><trkpt lat="45.5328123" lon="10.78078"><ele>164.39999999999998</ele><time>2026-03-28T10:36:44.031Z</time></trkpt><trkpt lat="45.532694" lon="10.7807948"><ele>164.8</ele><time>2026-03-28T10:36:45.03Z</time></trkpt><trkpt lat="45.5325752" lon="10.7808085"><ele>165.2</ele><time>2026-03-28T10:36:46.032Z</time></trkpt><trkpt lat="45.5324637" lon="10.7808215"><ele>165.60000000000002</ele><time>2026-03-28T10:36:47.03Z</time></trkpt><trkpt lat="45.5323675" lon="10.780845"><ele>166.0</ele><time>2026-03-28T10:36:48.03Z</time></trkpt><trkpt lat="45.532283" lon="10.7808723"><ele>166.0</ele><time>2026-03-28T10:36:49.028Z</time></trkpt><trkpt lat="45.532203" lon="10.7808903"><ele>166.0</ele><time>2026-03-28T10:36:50.031Z</time></trkpt><trkpt lat="45.5321342" lon="10.7809008"><ele>166.0</ele><time>2026-03-28T10:36:51.029Z</time></trkpt><trkpt lat="45.5320433" lon="10.7809248"><ele>166.0</ele><time>2026-03-28T10:36:53.032Z</time></trkpt><trkpt lat="45.5320008" lon="10.7809912"><ele>166.0</ele><time>2026-03-28T10:36:55.03Z</time></trkpt><trkpt lat="45.5320357" lon="10.7811443"><ele>166.0</ele><time>2026-03-28T10:36:57.029Z</time></trkpt><trkpt lat="45.5320862" lon="10.7812832"><ele>165.33333333333334</ele><time>2026-03-28T10:36:58.031Z</time></trkpt><trkpt lat="45.5321468" lon="10.781465"><ele>164.66666666666666</ele><time>2026-03-28T10:36:59.03Z</time></trkpt><trkpt lat="45.5322163" lon="10.7816743"><ele>164.0</ele><time>2026-03-28T10:37:00.03Z</time></trkpt><trkpt lat="45.5322832" lon="10.781878"><ele>163.0</ele><time>2026-03-28T10:37:01.03Z</time></trkpt><trkpt lat="45.5323433" lon="10.7820867"><ele>162.0</ele><time>2026-03-28T10:37:02.028Z</time></trkpt><trkpt lat="45.5323958" lon="10.7823128"><ele>161.0</ele><time>2026-03-28T10:37:03.028Z</time></trkpt><trkpt lat="45.5324555" lon="10.7825698"><ele>161.66666666666666</ele><time>2026-03-28T10:37:04.028Z</time></trkpt><trkpt lat="45.5325167" lon="10.7828227"><ele>162.33333333333334</ele><time>2026-03-28T10:37:05.027Z</time></trkpt><trkpt lat="45.5325658" lon="10.7830468"><ele>163.0</ele><time>2026-03-28T10:37:06.028Z</time></trkpt><trkpt lat="45.5326023" lon="10.7832483"><ele>163.0</ele><time>2026-03-28T10:37:07.032Z</time></trkpt><trkpt lat="45.5326208" lon="10.7834257"><ele>163.0</ele><time>2026-03-28T10:37:08.029Z</time></trkpt><trkpt lat="45.5326107" lon="10.7835725"><ele>163.0</ele><time>2026-03-28T10:37:09.031Z</time></trkpt><trkpt lat="45.5325762" lon="10.783722"><ele>163.0</ele><time>2026-03-28T10:37:10.03Z</time></trkpt><trkpt lat="45.532514" lon="10.7839068"><ele>163.5</ele><time>2026-03-28T10:37:11.031Z</time></trkpt><trkpt lat="45.5324387" lon="10.7841047"><ele>164.0</ele><time>2026-03-28T10:37:12.033Z</time></trkpt><trkpt lat="45.532374" lon="10.7842812"><ele>164.5</ele><time>2026-03-28T10:37:13.036Z</time></trkpt><trkpt lat="45.5323185" lon="10.7844568"><ele>165.0</ele><time>2026-03-28T10:37:14.033Z</time></trkpt><trkpt lat="45.5322827" lon="10.7846091"><ele>165.4</ele><time>2026-03-28T10:37:15.032Z</time></trkpt><trkpt lat="45.5322687" lon="10.7847462"><ele>165.8</ele><time>2026-03-28T10:37:16.031Z</time></trkpt><trkpt lat="45.532279" lon="10.7848844"><ele>166.2</ele><time>2026-03-28T10:37:17.031Z</time></trkpt><trkpt lat="45.5323051" lon="10.7850309"><ele>166.6</ele><time>2026-03-28T10:37:18.03Z</time></trkpt><trkpt lat="45.532319" lon="10.785156"><ele>167.0</ele><time>2026-03-28T10:37:19.029Z</time></trkpt><trkpt lat="45.5323046" lon="10.7852792"><ele>167.25</ele><time>2026-03-28T10:37:20.03Z</time></trkpt><trkpt lat="45.5322568" lon="10.7854148"><ele>167.5</ele><time>2026-03-28T10:37:21.031Z</time></trkpt><trkpt lat="45.5321737" lon="10.7855747"><ele>167.75</ele><time>2026-03-28T10:37:22.029Z</time></trkpt><trkpt lat="45.5320735" lon="10.7857327"><ele>168.0</ele><time>2026-03-28T10:37:23.028Z</time></trkpt><trkpt lat="45.5319672" lon="10.7858788"><ele>168.66666666666666</ele><time>2026-03-28T10:37:24.029Z</time></trkpt><trkpt lat="45.5318496" lon="10.786031"><ele>169.33333333333331</ele><time>2026-03-28T10:37:25.03Z</time></trkpt><trkpt lat="45.5317308" lon="10.7861951"><ele>170.0</ele><time>2026-03-28T10:37:26.031Z</time></trkpt><trkpt lat="45.5316151" lon="10.7863773"><ele>170.0</ele><time>2026-03-28T10:37:27.027Z</time></trkpt><trkpt lat="45.5315025" lon="10.7865723"><ele>170.0</ele><time>2026-03-28T10:37:28.026Z</time></trkpt><trkpt lat="45.5313987" lon="10.7867577"><ele>170.0</ele><time>2026-03-28T10:37:29.027Z</time></trkpt><trkpt lat="45.5313074" lon="10.7869247"><ele>170.2</ele><time>2026-03-28T10:37:30.026Z</time></trkpt><trkpt lat="45.5312297" lon="10.7870731"><ele>170.4</ele><time>2026-03-28T10:37:31.029Z</time></trkpt><trkpt lat="45.5311787" lon="10.7871825"><ele>170.60000000000002</ele><time>2026-03-28T10:37:32.03Z</time></trkpt><trkpt lat="45.5311614" lon="10.7873612"><ele>170.8</ele><time>2026-03-28T10:37:34.031Z</time></trkpt><trkpt lat="45.5311796" lon="10.7874876"><ele>171.0</ele><time>2026-03-28T10:37:35.032Z</time></trkpt><trkpt lat="45.5312005" lon="10.78762"><ele>172.4</ele><time>2026-03-28T10:37:36.032Z</time></trkpt><trkpt lat="45.5312278" lon="10.7877544"><ele>173.8</ele><time>2026-03-28T10:37:37.034Z</time></trkpt><trkpt lat="45.5312642" lon="10.7878766"><ele>175.20000000000002</ele><time>2026-03-28T10:37:38.031Z</time></trkpt><trkpt lat="45.5313201" lon="10.7880066"><ele>176.60000000000002</ele><time>2026-03-28T10:37:39.03Z</time></trkpt><trkpt lat="45.5313862" lon="10.7881485"><ele>178.0</ele><time>2026-03-28T10:37:40.032Z</time></trkpt><trkpt lat="45.5314422" lon="10.7882791"><ele>178.0</ele><time>2026-03-28T10:37:41.032Z</time></trkpt><trkpt lat="45.5314835" lon="10.7883818"><ele>178.0</ele><time>2026-03-28T10:37:42.032Z</time></trkpt><trkpt lat="45.5315284" lon="10.7885105"><ele>178.0</ele><time>2026-03-28T10:37:44.031Z</time></trkpt><trkpt lat="45.5315876" lon="10.7885718"><ele>178.0</ele><time>2026-03-28T10:37:47.033Z</time></trkpt><trkpt lat="45.531703" lon="10.7885358"><ele>178.0</ele><time>2026-03-28T10:37:49.032Z</time></trkpt><trkpt lat="45.5317889" lon="10.7884565"><ele>178.0</ele><time>2026-03-28T10:37:50.031Z</time></trkpt><trkpt lat="45.5319012" lon="10.7883587"><ele>178.0</ele><time>2026-03-28T10:37:51.029Z</time></trkpt><trkpt lat="45.532037" lon="10.7882487"><ele>178.0</ele><time>2026-03-28T10:37:52.031Z</time></trkpt><trkpt lat="45.5321855" lon="10.7881336"><ele>178.66666666666669</ele><time>2026-03-28T10:37:53.027Z</time></trkpt><trkpt lat="45.5323403" lon="10.7880237"><ele>179.33333333333334</ele><time>2026-03-28T10:37:54.026Z</time></trkpt><trkpt lat="45.5324857" lon="10.7879305"><ele>180.0</ele><time>2026-03-28T10:37:55.028Z</time></trkpt><trkpt lat="45.5326083" lon="10.7878559"><ele>180.0</ele><time>2026-03-28T10:37:56.029Z</time></trkpt><trkpt lat="45.5327087" lon="10.7877967"><ele>180.0</ele><time>2026-03-28T10:37:57.032Z</time></trkpt><trkpt lat="45.5327897" lon="10.7877497"><ele>180.0</ele><time>2026-03-28T10:37:58.028Z</time></trkpt><trkpt lat="45.5328517" lon="10.7877278"><ele>180.0</ele><time>2026-03-28T10:37:59.031Z</time></trkpt><trkpt lat="45.5329334" lon="10.7878182"><ele>180.0</ele><time>2026-03-28T10:38:01.03Z</time></trkpt><trkpt lat="45.5329837" lon="10.7879312"><ele>180.25</ele><time>2026-03-28T10:38:02.029Z</time></trkpt><trkpt lat="45.5330523" lon="10.7880795"><ele>180.5</ele><time>2026-03-28T10:38:03.03Z</time></trkpt><trkpt lat="45.5331241" lon="10.7882256"><ele>180.75</ele><time>2026-03-28T10:38:04.031Z</time></trkpt><trkpt lat="45.5331926" lon="10.7883628"><ele>181.0</ele><time>2026-03-28T10:38:05.031Z</time></trkpt><trkpt lat="45.5332599" lon="10.7884981"><ele>181.4</ele><time>2026-03-28T10:38:06.032Z</time></trkpt><trkpt lat="45.5333276" lon="10.7886352"><ele>181.8</ele><time>2026-03-28T10:38:07.032Z</time></trkpt><trkpt lat="45.5333914" lon="10.7887698"><ele>182.20000000000002</ele><time>2026-03-28T10:38:08.033Z</time></trkpt><trkpt lat="45.5334481" lon="10.7888935"><ele>182.60000000000002</ele><time>2026-03-28T10:38:09.032Z</time></trkpt><trkpt lat="45.5335007" lon="10.7890119"><ele>183.0</ele><time>2026-03-28T10:38:10.03Z</time></trkpt><trkpt lat="45.5335601" lon="10.7891471"><ele>183.0</ele><time>2026-03-28T10:38:11.031Z</time></trkpt><trkpt lat="45.5336282" lon="10.7892909"><ele>183.0</ele><time>2026-03-28T10:38:12.031Z</time></trkpt><trkpt lat="45.5337073" lon="10.7894346"><ele>183.0</ele><time>2026-03-28T10:38:13.032Z</time></trkpt><trkpt lat="45.5337873" lon="10.789569"><ele>183.0</ele><time>2026-03-28T10:38:14.031Z</time></trkpt><trkpt lat="45.5338694" lon="10.7896907"><ele>186.60000000000002</ele><time>2026-03-28T10:38:15.033Z</time></trkpt><trkpt lat="45.5339558" lon="10.7897956"><ele>190.20000000000002</ele><time>2026-03-28T10:38:16.029Z</time></trkpt><trkpt lat="45.5340441" lon="10.7898885"><ele>193.8</ele><time>2026-03-28T10:38:17.028Z</time></trkpt><trkpt lat="45.5341322" lon="10.7899752"><ele>197.4</ele><time>2026-03-28T10:38:18.028Z</time></trkpt><trkpt lat="45.5342159" lon="10.7900583"><ele>201.0</ele><time>2026-03-28T10:38:19.028Z</time></trkpt><trkpt lat="45.5342951" lon="10.7901346"><ele>201.57142857142856</ele><time>2026-03-28T10:38:20.03Z</time></trkpt><trkpt lat="45.5343621" lon="10.7901996"><ele>202.14285714285717</ele><time>2026-03-28T10:38:21.028Z</time></trkpt><trkpt lat="45.5344212" lon="10.7902497"><ele>202.71428571428572</ele><time>2026-03-28T10:38:22.045Z</time></trkpt><trkpt lat="45.5344845" lon="10.7902873"><ele>203.28571428571428</ele><time>2026-03-28T10:38:23.031Z</time></trkpt><trkpt lat="45.534549" lon="10.7903228"><ele>203.85714285714283</ele><time>2026-03-28T10:38:24.028Z</time></trkpt><trkpt lat="45.5346104" lon="10.7903553"><ele>204.42857142857144</ele><time>2026-03-28T10:38:25.029Z</time></trkpt><trkpt lat="45.5346628" lon="10.7904122"><ele>205.0</ele><time>2026-03-28T10:38:26.029Z</time></trkpt><trkpt lat="45.5347104" lon="10.7905045"><ele>205.49999999999997</ele><time>2026-03-28T10:38:27.031Z</time></trkpt><trkpt lat="45.5347624" lon="10.790605"><ele>206.0</ele><time>2026-03-28T10:38:28.031Z</time></trkpt><trkpt lat="45.5348176" lon="10.7906985"><ele>206.5</ele><time>2026-03-28T10:38:29.031Z</time></trkpt><trkpt lat="45.534871" lon="10.790781"><ele>207.0</ele><time>2026-03-28T10:38:30.031Z</time></trkpt><trkpt lat="45.5349198" lon="10.7908524"><ele>207.49999999999997</ele><time>2026-03-28T10:38:31.031Z</time></trkpt><trkpt lat="45.5349964" lon="10.7909458"><ele>208.0</ele><time>2026-03-28T10:38:33.029Z</time></trkpt><trkpt lat="45.535061" lon="10.7909586"><ele>208.0</ele><time>2026-03-28T10:38:35.029Z</time></trkpt><trkpt lat="45.5351559" lon="10.7908306"><ele>208.0</ele><time>2026-03-28T10:38:37.028Z</time></trkpt><trkpt lat="45.5352208" lon="10.7907151"><ele>208.0</ele><time>2026-03-28T10:38:38.029Z</time></trkpt><trkpt lat="45.5352885" lon="10.7906089"><ele>208.0</ele><time>2026-03-28T10:38:39.028Z</time></trkpt><trkpt lat="45.5353422" lon="10.7905329"><ele>208.0</ele><time>2026-03-28T10:38:40.029Z</time></trkpt><trkpt lat="45.5354175" lon="10.7904459"><ele>209.16666666666666</ele><time>2026-03-28T10:38:42.025Z</time></trkpt><trkpt lat="45.5354828" lon="10.7904472"><ele>210.33333333333331</ele><time>2026-03-28T10:38:44.028Z</time></trkpt><trkpt lat="45.535498" lon="10.7905554"><ele>211.5</ele><time>2026-03-28T10:38:46.032Z</time></trkpt><trkpt lat="45.5355314" lon="10.7906543"><ele>212.66666666666669</ele><time>2026-03-28T10:38:49.027Z</time></trkpt><trkpt lat="45.5356017" lon="10.7906171"><ele>213.83333333333334</ele><time>2026-03-28T10:38:51.026Z</time></trkpt><trkpt lat="45.5356694" lon="10.790557"><ele>215.0</ele><time>2026-03-28T10:38:54.027Z</time></trkpt><trkpt lat="45.5357231" lon="10.7904652"><ele>215.00000000000003</ele><time>2026-03-28T10:39:07.024Z</time></trkpt><trkpt lat="45.5356746" lon="10.7905744"><ele>215.0</ele><time>2026-03-28T10:39:26.026Z</time></trkpt><trkpt lat="45.5355917" lon="10.7906278"><ele>215.0</ele><time>2026-03-28T10:39:28.027Z</time></trkpt><trkpt lat="45.5355425" lon="10.7905534"><ele>215.0</ele><time>2026-03-28T10:39:32.025Z</time></trkpt><trkpt lat="45.5355108" lon="10.7904646"><ele>215.00000000000003</ele><time>2026-03-28T10:39:34.027Z</time></trkpt><trkpt lat="45.5354353" lon="10.7904719"><ele>215.0</ele><time>2026-03-28T10:39:36.027Z</time></trkpt><trkpt lat="45.535338" lon="10.7905931"><ele>214.0</ele><time>2026-03-28T10:39:38.028Z</time></trkpt><trkpt lat="45.5352792" lon="10.7906849"><ele>213.0</ele><time>2026-03-28T10:39:39.027Z</time></trkpt><trkpt lat="45.5352246" lon="10.7907749"><ele>212.0</ele><time>2026-03-28T10:39:40.028Z</time></trkpt><trkpt lat="45.5351814" lon="10.7908485"><ele>211.0</ele><time>2026-03-28T10:39:41.028Z</time></trkpt><trkpt lat="45.5351293" lon="10.7909282"><ele>210.0</ele><time>2026-03-28T10:39:43.026Z</time></trkpt><trkpt lat="45.5350635" lon="10.7909362"><ele>209.0</ele><time>2026-03-28T10:39:50.027Z</time></trkpt><trkpt lat="45.535022" lon="10.7908683"><ele>208.0</ele><time>2026-03-28T10:39:53.027Z</time></trkpt><trkpt lat="45.5349832" lon="10.7909402"><ele>207.4</ele><time>2026-03-28T10:40:13.028Z</time></trkpt><trkpt lat="45.535063" lon="10.7910265"><ele>206.8</ele><time>2026-03-28T10:40:16.03Z</time></trkpt><trkpt lat="45.5351647" lon="10.7911245"><ele>206.2</ele><time>2026-03-28T10:40:18.026Z</time></trkpt><trkpt lat="45.5352492" lon="10.7911922"><ele>205.6</ele><time>2026-03-28T10:40:20.026Z</time></trkpt><trkpt lat="45.535317" lon="10.7911687"><ele>205.0</ele><time>2026-03-28T10:40:22.027Z</time></trkpt><trkpt lat="45.5353808" lon="10.7911237"><ele>203.2</ele><time>2026-03-28T10:40:24.025Z</time></trkpt><trkpt lat="45.535457" lon="10.7910805"><ele>201.4</ele><time>2026-03-28T10:40:26.026Z</time></trkpt><trkpt lat="45.5355352" lon="10.7910918"><ele>199.60000000000002</ele><time>2026-03-28T10:40:28.028Z</time></trkpt><trkpt lat="45.5356402" lon="10.7911778"><ele>197.8</ele><time>2026-03-28T10:40:30.025Z</time></trkpt><trkpt lat="45.5357218" lon="10.7912928"><ele>196.0</ele><time>2026-03-28T10:40:32.025Z</time></trkpt><trkpt lat="45.5357632" lon="10.7913663"><ele>196.0</ele><time>2026-03-28T10:40:33.026Z</time></trkpt><trkpt lat="45.5358437" lon="10.7914703"><ele>196.0</ele><time>2026-03-28T10:40:35.026Z</time></trkpt><trkpt lat="45.5359208" lon="10.791516"><ele>196.0</ele><time>2026-03-28T10:40:37.026Z</time></trkpt><trkpt lat="45.5359903" lon="10.7914813"><ele>196.0</ele><time>2026-03-28T10:40:39.026Z</time></trkpt><trkpt lat="45.5360482" lon="10.791361"><ele>196.0</ele><time>2026-03-28T10:40:41.025Z</time></trkpt><trkpt lat="45.5361275" lon="10.7912698"><ele>195.99999999999997</ele><time>2026-03-28T10:40:43.024Z</time></trkpt><trkpt lat="45.5361907" lon="10.791265"><ele>196.0</ele><time>2026-03-28T10:40:44.023Z</time></trkpt><trkpt lat="45.5362808" lon="10.7912695"><ele>196.0</ele><time>2026-03-28T10:40:45.023Z</time></trkpt><trkpt lat="45.5363468" lon="10.791274"><ele>196.0</ele><time>2026-03-28T10:40:46.022Z</time></trkpt><trkpt lat="45.5364302" lon="10.7913085"><ele>195.99999999999997</ele><time>2026-03-28T10:40:48.025Z</time></trkpt><trkpt lat="45.5364972" lon="10.7913225"><ele>196.0</ele><time>2026-03-28T10:40:50.023Z</time></trkpt><trkpt lat="45.536576" lon="10.791287"><ele>193.99999999999997</ele><time>2026-03-28T10:40:52.023Z</time></trkpt><trkpt lat="45.536651" lon="10.7912263"><ele>192.0</ele><time>2026-03-28T10:40:54.023Z</time></trkpt><trkpt lat="45.5367017" lon="10.7911467"><ele>190.0</ele><time>2026-03-28T10:40:56.024Z</time></trkpt><trkpt lat="45.5367633" lon="10.7910753"><ele>188.0</ele><time>2026-03-28T10:40:58.023Z</time></trkpt><trkpt lat="45.5368447" lon="10.7909937"><ele>186.0</ele><time>2026-03-28T10:41:01.023Z</time></trkpt><trkpt lat="45.5369305" lon="10.7909605"><ele>184.0</ele><time>2026-03-28T10:41:03.022Z</time></trkpt><trkpt lat="45.5370453" lon="10.7909337"><ele>185.0</ele><time>2026-03-28T10:41:05.023Z</time></trkpt><trkpt lat="45.5371122" lon="10.7909055"><ele>186.0</ele><time>2026-03-28T10:41:06.022Z</time></trkpt><trkpt lat="45.5372193" lon="10.7908275"><ele>187.0</ele><time>2026-03-28T10:41:08.021Z</time></trkpt><trkpt lat="45.5373243" lon="10.7907597"><ele>188.0</ele><time>2026-03-28T10:41:10.024Z</time></trkpt><trkpt lat="45.5374357" lon="10.7906873"><ele>189.0</ele><time>2026-03-28T10:41:12.023Z</time></trkpt><trkpt lat="45.5375032" lon="10.79067"><ele>189.0</ele><time>2026-03-28T10:41:13.024Z</time></trkpt><trkpt lat="45.5375637" lon="10.7906377"><ele>189.0</ele><time>2026-03-28T10:41:14.024Z</time></trkpt><trkpt lat="45.5376203" lon="10.7905778"><ele>189.0</ele><time>2026-03-28T10:41:15.025Z</time></trkpt><trkpt lat="45.537682" lon="10.7904962"><ele>189.0</ele><time>2026-03-28T10:41:16.025Z</time></trkpt><trkpt lat="45.537749" lon="10.7904145"><ele>189.0</ele><time>2026-03-28T10:41:17.024Z</time></trkpt><trkpt lat="45.5378373" lon="10.7903545"><ele>189.0</ele><time>2026-03-28T10:41:18.025Z</time></trkpt><trkpt lat="45.537928" lon="10.7902843"><ele>187.79999999999998</ele><time>2026-03-28T10:41:19.024Z</time></trkpt><trkpt lat="45.5380048" lon="10.7901947"><ele>186.6</ele><time>2026-03-28T10:41:20.025Z</time></trkpt><trkpt lat="45.5380638" lon="10.7900983"><ele>185.4</ele><time>2026-03-28T10:41:21.024Z</time></trkpt><trkpt lat="45.5381187" lon="10.7899993"><ele>184.2</ele><time>2026-03-28T10:41:22.025Z</time></trkpt><trkpt lat="45.538184" lon="10.7899027"><ele>183.0</ele><time>2026-03-28T10:41:23.024Z</time></trkpt><trkpt lat="45.5382448" lon="10.7898217"><ele>183.0</ele><time>2026-03-28T10:41:24.023Z</time></trkpt><trkpt lat="45.538295" lon="10.7897513"><ele>183.0</ele><time>2026-03-28T10:41:25.023Z</time></trkpt><trkpt lat="45.5383595" lon="10.78968"><ele>183.0</ele><time>2026-03-28T10:41:26.025Z</time></trkpt><trkpt lat="45.5384362" lon="10.7896007"><ele>183.0</ele><time>2026-03-28T10:41:27.025Z</time></trkpt><trkpt lat="45.5385045" lon="10.789516"><ele>183.0</ele><time>2026-03-28T10:41:28.027Z</time></trkpt><trkpt lat="45.5385798" lon="10.7894193"><ele>183.0</ele><time>2026-03-28T10:41:29.025Z</time></trkpt><trkpt lat="45.5386378" lon="10.7893272"><ele>181.60000000000002</ele><time>2026-03-28T10:41:30.024Z</time></trkpt><trkpt lat="45.538698" lon="10.7892193"><ele>180.20000000000002</ele><time>2026-03-28T10:41:31.026Z</time></trkpt><trkpt lat="45.5387487" lon="10.7891088"><ele>178.8</ele><time>2026-03-28T10:41:32.023Z</time></trkpt><trkpt lat="45.5388078" lon="10.7889958"><ele>177.4</ele><time>2026-03-28T10:41:33.022Z</time></trkpt><trkpt lat="45.5388567" lon="10.788888"><ele>176.0</ele><time>2026-03-28T10:41:34.024Z</time></trkpt><trkpt lat="45.5389242" lon="10.7887815"><ele>176.0</ele><time>2026-03-28T10:41:35.022Z</time></trkpt><trkpt lat="45.5389752" lon="10.7886795"><ele>176.0</ele><time>2026-03-28T10:41:36.023Z</time></trkpt><trkpt lat="45.5390165" lon="10.7885793"><ele>176.0</ele><time>2026-03-28T10:41:37.025Z</time></trkpt><trkpt lat="45.5390505" lon="10.788479"><ele>176.0</ele><time>2026-03-28T10:41:38.026Z</time></trkpt><trkpt lat="45.5390845" lon="10.788369"><ele>176.0</ele><time>2026-03-28T10:41:39.026Z</time></trkpt><trkpt lat="45.539127" lon="10.7882672"><ele>176.0</ele><time>2026-03-28T10:41:40.026Z</time></trkpt><trkpt lat="45.5391802" lon="10.7881888"><ele>175.5</ele><time>2026-03-28T10:41:41.024Z</time></trkpt><trkpt lat="45.5392305" lon="10.7881143"><ele>175.0</ele><time>2026-03-28T10:41:42.024Z</time></trkpt><trkpt lat="45.5392843" lon="10.7880577"><ele>174.5</ele><time>2026-03-28T10:41:43.023Z</time></trkpt><trkpt lat="45.5393338" lon="10.7879997"><ele>174.0</ele><time>2026-03-28T10:41:44.024Z</time></trkpt><trkpt lat="45.5393987" lon="10.787925"><ele>173.5</ele><time>2026-03-28T10:41:45.024Z</time></trkpt><trkpt lat="45.5394855" lon="10.7878452"><ele>173.0</ele><time>2026-03-28T10:41:46.024Z</time></trkpt><trkpt lat="45.5395683" lon="10.7877617"><ele>175.0</ele><time>2026-03-28T10:41:47.025Z</time></trkpt><trkpt lat="45.5396545" lon="10.7876697"><ele>177.0</ele><time>2026-03-28T10:41:48.025Z</time></trkpt><trkpt lat="45.5397403" lon="10.787581"><ele>179.0</ele><time>2026-03-28T10:41:49.024Z</time></trkpt><trkpt lat="45.5398145" lon="10.787507"><ele>181.0</ele><time>2026-03-28T10:41:50.026Z</time></trkpt><trkpt lat="45.5398898" lon="10.787431"><ele>183.0</ele><time>2026-03-28T10:41:51.023Z</time></trkpt><trkpt lat="45.5399558" lon="10.787349"><ele>183.0</ele><time>2026-03-28T10:41:52.025Z</time></trkpt><trkpt lat="45.5400357" lon="10.7872588"><ele>183.0</ele><time>2026-03-28T10:41:53.025Z</time></trkpt><trkpt lat="45.5400908" lon="10.7871723"><ele>183.0</ele><time>2026-03-28T10:41:54.024Z</time></trkpt><trkpt lat="45.5401322" lon="10.787087"><ele>183.0</ele><time>2026-03-28T10:41:55.025Z</time></trkpt><trkpt lat="45.5401572" lon="10.7869838"><ele>183.0</ele><time>2026-03-28T10:41:56.024Z</time></trkpt><trkpt lat="45.5401912" lon="10.786863"><ele>183.0</ele><time>2026-03-28T10:41:57.025Z</time></trkpt><trkpt lat="45.5402103" lon="10.7867507"><ele>182.16666666666666</ele><time>2026-03-28T10:41:58.023Z</time></trkpt><trkpt lat="45.5402455" lon="10.7866532"><ele>181.33333333333334</ele><time>2026-03-28T10:41:59.023Z</time></trkpt><trkpt lat="45.5402843" lon="10.786558"><ele>180.5</ele><time>2026-03-28T10:42:00.021Z</time></trkpt><trkpt lat="45.540334" lon="10.7864558"><ele>179.66666666666669</ele><time>2026-03-28T10:42:01.025Z</time></trkpt><trkpt lat="45.5403965" lon="10.7863557"><ele>178.83333333333334</ele><time>2026-03-28T10:42:02.026Z</time></trkpt><trkpt lat="45.5404707" lon="10.7862337"><ele>178.0</ele><time>2026-03-28T10:42:03.026Z</time></trkpt><trkpt lat="45.5405527" lon="10.7860932"><ele>179.75</ele><time>2026-03-28T10:42:04.025Z</time></trkpt><trkpt lat="45.5406333" lon="10.785961"><ele>181.5</ele><time>2026-03-28T10:42:05.026Z</time></trkpt><trkpt lat="45.5407197" lon="10.7858335"><ele>183.25</ele><time>2026-03-28T10:42:06.025Z</time></trkpt><trkpt lat="45.540801" lon="10.7857207"><ele>185.0</ele><time>2026-03-28T10:42:07.026Z</time></trkpt><trkpt lat="45.5408828" lon="10.785611"><ele>185.0</ele><time>2026-03-28T10:42:08.024Z</time></trkpt><trkpt lat="45.540971" lon="10.7855082"><ele>185.0</ele><time>2026-03-28T10:42:09.028Z</time></trkpt><trkpt lat="45.541057" lon="10.7854175"><ele>185.0</ele><time>2026-03-28T10:42:10.025Z</time></trkpt><trkpt lat="45.5411368" lon="10.7853402"><ele>185.0</ele><time>2026-03-28T10:42:11.024Z</time></trkpt><trkpt lat="45.5412125" lon="10.7852712"><ele>185.0</ele><time>2026-03-28T10:42:12.022Z</time></trkpt><trkpt lat="45.541291" lon="10.7852083"><ele>184.8</ele><time>2026-03-28T10:42:13.023Z</time></trkpt><trkpt lat="45.5413793" lon="10.7851443"><ele>184.6</ele><time>2026-03-28T10:42:14.026Z</time></trkpt><trkpt lat="45.5414612" lon="10.7850763"><ele>184.39999999999998</ele><time>2026-03-28T10:42:15.024Z</time></trkpt><trkpt lat="45.5415547" lon="10.7850105"><ele>184.2</ele><time>2026-03-28T10:42:16.025Z</time></trkpt><trkpt lat="45.5416632" lon="10.7849305"><ele>184.0</ele><time>2026-03-28T10:42:17.023Z</time></trkpt><trkpt lat="45.5417885" lon="10.7848417"><ele>184.0</ele><time>2026-03-28T10:42:18.024Z</time></trkpt><trkpt lat="45.5419117" lon="10.7847608"><ele>184.0</ele><time>2026-03-28T10:42:19.026Z</time></trkpt><trkpt lat="45.5420198" lon="10.784654"><ele>184.0</ele><time>2026-03-28T10:42:20.025Z</time></trkpt><trkpt lat="45.5421275" lon="10.7845075"><ele>184.0</ele><time>2026-03-28T10:42:21.024Z</time></trkpt><trkpt lat="45.542232" lon="10.7843178"><ele>184.66666666666669</ele><time>2026-03-28T10:42:22.023Z</time></trkpt><trkpt lat="45.5423293" lon="10.7841192"><ele>185.33333333333334</ele><time>2026-03-28T10:42:23.023Z</time></trkpt><trkpt lat="45.5424227" lon="10.783942"><ele>186.0</ele><time>2026-03-28T10:42:24.023Z</time></trkpt><trkpt lat="45.5425227" lon="10.7837923"><ele>186.0</ele><time>2026-03-28T10:42:25.025Z</time></trkpt><trkpt lat="45.5426292" lon="10.7836612"><ele>186.0</ele><time>2026-03-28T10:42:26.028Z</time></trkpt><trkpt lat="45.5427372" lon="10.7835343"><ele>186.0</ele><time>2026-03-28T10:42:27.028Z</time></trkpt><trkpt lat="45.5428442" lon="10.7834072"><ele>186.0</ele><time>2026-03-28T10:42:28.029Z</time></trkpt><trkpt lat="45.5429468" lon="10.783284"><ele>186.0</ele><time>2026-03-28T10:42:29.029Z</time></trkpt><trkpt lat="45.54304" lon="10.7831652"><ele>186.0</ele><time>2026-03-28T10:42:30.027Z</time></trkpt><trkpt lat="45.5431198" lon="10.7830427"><ele>186.0</ele><time>2026-03-28T10:42:31.028Z</time></trkpt><trkpt lat="45.5431735" lon="10.7829205"><ele>186.0</ele><time>2026-03-28T10:42:32.027Z</time></trkpt><trkpt lat="45.5432035" lon="10.7828055"><ele>186.0</ele><time>2026-03-28T10:42:33.026Z</time></trkpt><trkpt lat="45.5432117" lon="10.7827068"><ele>187.0</ele><time>2026-03-28T10:42:34.027Z</time></trkpt><trkpt lat="45.5431848" lon="10.7825237"><ele>188.0</ele><time>2026-03-28T10:42:36.027Z</time></trkpt><trkpt lat="45.5431588" lon="10.7824118"><ele>189.0</ele><time>2026-03-28T10:42:37.026Z</time></trkpt><trkpt lat="45.543131" lon="10.7822898"><ele>190.0</ele><time>2026-03-28T10:42:38.026Z</time></trkpt><trkpt lat="45.5431063" lon="10.7821703"><ele>191.0</ele><time>2026-03-28T10:42:39.028Z</time></trkpt><trkpt lat="45.5430868" lon="10.7820393"><ele>191.0</ele><time>2026-03-28T10:42:40.026Z</time></trkpt><trkpt lat="45.543083" lon="10.781904"><ele>191.0</ele><time>2026-03-28T10:42:41.025Z</time></trkpt><trkpt lat="45.5431138" lon="10.7817758"><ele>191.0</ele><time>2026-03-28T10:42:42.026Z</time></trkpt><trkpt lat="45.5431665" lon="10.781646"><ele>191.0</ele><time>2026-03-28T10:42:43.026Z</time></trkpt><trkpt lat="45.5432212" lon="10.781517"><ele>191.0</ele><time>2026-03-28T10:42:44.027Z</time></trkpt><trkpt lat="45.5432702" lon="10.781399"><ele>191.0</ele><time>2026-03-28T10:42:45.026Z</time></trkpt><trkpt lat="45.5433118" lon="10.7812992"><ele>191.0</ele><time>2026-03-28T10:42:46.024Z</time></trkpt><trkpt lat="45.5433492" lon="10.7812175"><ele>191.0</ele><time>2026-03-28T10:42:47.025Z</time></trkpt><trkpt lat="45.5434445" lon="10.7811215"><ele>191.0</ele><time>2026-03-28T10:42:49.028Z</time></trkpt><trkpt lat="45.5435115" lon="10.7811405"><ele>191.0</ele><time>2026-03-28T10:42:50.026Z</time></trkpt><trkpt lat="45.5435793" lon="10.7812227"><ele>191.0</ele><time>2026-03-28T10:42:51.027Z</time></trkpt><trkpt lat="45.5436563" lon="10.7813558"><ele>191.0</ele><time>2026-03-28T10:42:52.029Z</time></trkpt><trkpt lat="45.543743" lon="10.7814923"><ele>191.0</ele><time>2026-03-28T10:42:53.029Z</time></trkpt><trkpt lat="45.543845" lon="10.7816382"><ele>191.0</ele><time>2026-03-28T10:42:54.029Z</time></trkpt><trkpt lat="45.5439487" lon="10.7817773"><ele>191.0</ele><time>2026-03-28T10:42:55.029Z</time></trkpt><trkpt lat="45.5440562" lon="10.7819068"><ele>189.66666666666666</ele><time>2026-03-28T10:42:56.028Z</time></trkpt><trkpt lat="45.5441825" lon="10.782044"><ele>188.33333333333334</ele><time>2026-03-28T10:42:57.028Z</time></trkpt><trkpt lat="45.5443247" lon="10.7822037"><ele>187.0</ele><time>2026-03-28T10:42:58.03Z</time></trkpt><trkpt lat="45.5444728" lon="10.7823863"><ele>187.0</ele><time>2026-03-28T10:42:59.03Z</time></trkpt><trkpt lat="45.5446145" lon="10.7825653"><ele>187.0</ele><time>2026-03-28T10:43:00.032Z</time></trkpt><trkpt lat="45.544752" lon="10.7827392"><ele>187.0</ele><time>2026-03-28T10:43:01.028Z</time></trkpt><trkpt lat="45.5448918" lon="10.7829157"><ele>186.33333333333334</ele><time>2026-03-28T10:43:02.029Z</time></trkpt><trkpt lat="45.5450352" lon="10.7830995"><ele>185.66666666666666</ele><time>2026-03-28T10:43:03.028Z</time></trkpt><trkpt lat="45.5451795" lon="10.7832948"><ele>185.0</ele><time>2026-03-28T10:43:04.029Z</time></trkpt><trkpt lat="45.5453242" lon="10.7834993"><ele>184.66666666666666</ele><time>2026-03-28T10:43:05.029Z</time></trkpt><trkpt lat="45.5454665" lon="10.78371"><ele>184.33333333333334</ele><time>2026-03-28T10:43:06.027Z</time></trkpt><trkpt lat="45.5456037" lon="10.783926"><ele>184.0</ele><time>2026-03-28T10:43:07.028Z</time></trkpt><trkpt lat="45.5457385" lon="10.784149"><ele>183.33333333333334</ele><time>2026-03-28T10:43:08.028Z</time></trkpt><trkpt lat="45.5458723" lon="10.7843785"><ele>182.66666666666666</ele><time>2026-03-28T10:43:09.031Z</time></trkpt><trkpt lat="45.5460085" lon="10.784616"><ele>182.0</ele><time>2026-03-28T10:43:10.028Z</time></trkpt><trkpt lat="45.5461462" lon="10.7848603"><ele>182.0</ele><time>2026-03-28T10:43:11.026Z</time></trkpt><trkpt lat="45.5462802" lon="10.7850992"><ele>182.0</ele><time>2026-03-28T10:43:12.026Z</time></trkpt><trkpt lat="45.5464132" lon="10.7853335"><ele>182.0</ele><time>2026-03-28T10:43:13.028Z</time></trkpt><trkpt lat="45.5465413" lon="10.7855573"><ele>182.0</ele><time>2026-03-28T10:43:14.027Z</time></trkpt><trkpt lat="45.5466668" lon="10.7857747"><ele>182.0</ele><time>2026-03-28T10:43:15.027Z</time></trkpt><trkpt lat="45.5467948" lon="10.7859938"><ele>182.0</ele><time>2026-03-28T10:43:16.027Z</time></trkpt><trkpt lat="45.5469242" lon="10.7862135"><ele>179.0</ele><time>2026-03-28T10:43:17.027Z</time></trkpt><trkpt lat="45.5470538" lon="10.7864332"><ele>176.0</ele><time>2026-03-28T10:43:18.027Z</time></trkpt><trkpt lat="45.5471778" lon="10.7866497"><ele>173.0</ele><time>2026-03-28T10:43:19.028Z</time></trkpt><trkpt lat="45.547302" lon="10.786865"><ele>173.0</ele><time>2026-03-28T10:43:20.032Z</time></trkpt><trkpt lat="45.5474365" lon="10.7870958"><ele>173.0</ele><time>2026-03-28T10:43:21.029Z</time></trkpt><trkpt lat="45.547574" lon="10.7873407"><ele>173.0</ele><time>2026-03-28T10:43:22.03Z</time></trkpt><trkpt lat="45.547706" lon="10.7875928"><ele>173.0</ele><time>2026-03-28T10:43:23.028Z</time></trkpt><trkpt lat="45.547831" lon="10.7878345"><ele>173.0</ele><time>2026-03-28T10:43:24.028Z</time></trkpt><trkpt lat="45.5479518" lon="10.7880587"><ele>173.0</ele><time>2026-03-28T10:43:25.028Z</time></trkpt><trkpt lat="45.5480628" lon="10.788259"><ele>173.60000000000002</ele><time>2026-03-28T10:43:26.027Z</time></trkpt><trkpt lat="45.5481572" lon="10.7884233"><ele>174.20000000000002</ele><time>2026-03-28T10:43:27.029Z</time></trkpt><trkpt lat="45.5482357" lon="10.7885483"><ele>174.8</ele><time>2026-03-28T10:43:28.029Z</time></trkpt><trkpt lat="45.5482948" lon="10.7886403"><ele>175.4</ele><time>2026-03-28T10:43:29.029Z</time></trkpt><trkpt lat="45.5483202" lon="10.7887567"><ele>176.0</ele><time>2026-03-28T10:43:31.029Z</time></trkpt><trkpt lat="45.5482305" lon="10.7888625"><ele>176.25</ele><time>2026-03-28T10:43:33.039Z</time></trkpt><trkpt lat="45.5481342" lon="10.788949"><ele>176.5</ele><time>2026-03-28T10:43:34.024Z</time></trkpt><trkpt lat="45.5480448" lon="10.7890502"><ele>176.75</ele><time>2026-03-28T10:43:35.015Z</time></trkpt><trkpt lat="45.547949" lon="10.7891592"><ele>177.0</ele><time>2026-03-28T10:43:36.022Z</time></trkpt><trkpt lat="45.5478508" lon="10.7892817"><ele>178.5</ele><time>2026-03-28T10:43:37.023Z</time></trkpt><trkpt lat="45.5477577" lon="10.7893945"><ele>180.0</ele><time>2026-03-28T10:43:38.024Z</time></trkpt><trkpt lat="45.5476662" lon="10.789504"><ele>181.5</ele><time>2026-03-28T10:43:39.029Z</time></trkpt><trkpt lat="45.5475713" lon="10.7896042"><ele>183.0</ele><time>2026-03-28T10:43:40.021Z</time></trkpt><trkpt lat="45.5474627" lon="10.7896813"><ele>183.0</ele><time>2026-03-28T10:43:41.029Z</time></trkpt><trkpt lat="45.5473447" lon="10.7897403"><ele>183.0</ele><time>2026-03-28T10:43:42.029Z</time></trkpt><trkpt lat="45.5472288" lon="10.789796"><ele>183.0</ele><time>2026-03-28T10:43:43.032Z</time></trkpt><trkpt lat="45.5471155" lon="10.7898555"><ele>183.0</ele><time>2026-03-28T10:43:44.027Z</time></trkpt><trkpt lat="45.5470017" lon="10.7899197"><ele>182.5</ele><time>2026-03-28T10:43:45.033Z</time></trkpt><trkpt lat="45.5468965" lon="10.7899863"><ele>182.0</ele><time>2026-03-28T10:43:46.029Z</time></trkpt><trkpt lat="45.546809" lon="10.7900705"><ele>181.5</ele><time>2026-03-28T10:43:47.028Z</time></trkpt><trkpt lat="45.5467427" lon="10.7901928"><ele>181.0</ele><time>2026-03-28T10:43:48.026Z</time></trkpt><trkpt lat="45.5466992" lon="10.7903562"><ele>180.66666666666669</ele><time>2026-03-28T10:43:49.033Z</time></trkpt><trkpt lat="45.5466685" lon="10.7905462"><ele>180.33333333333334</ele><time>2026-03-28T10:43:50.027Z</time></trkpt><trkpt lat="45.5466385" lon="10.79075"><ele>180.0</ele><time>2026-03-28T10:43:51.029Z</time></trkpt><trkpt lat="45.5466043" lon="10.7909912"><ele>181.0</ele><time>2026-03-28T10:43:52.029Z</time></trkpt><trkpt lat="45.546568" lon="10.7912425"><ele>182.0</ele><time>2026-03-28T10:43:53.029Z</time></trkpt><trkpt lat="45.5465262" lon="10.7914847"><ele>183.0</ele><time>2026-03-28T10:43:54.029Z</time></trkpt><trkpt lat="45.5464845" lon="10.7917173"><ele>183.0</ele><time>2026-03-28T10:43:55.028Z</time></trkpt><trkpt lat="45.5464467" lon="10.7919435"><ele>183.0</ele><time>2026-03-28T10:43:56.03Z</time></trkpt><trkpt lat="45.5464123" lon="10.7921547"><ele>183.0</ele><time>2026-03-28T10:43:57.026Z</time></trkpt><trkpt lat="45.5463805" lon="10.792351"><ele>183.0</ele><time>2026-03-28T10:43:58.028Z</time></trkpt><trkpt lat="45.5463532" lon="10.7925287"><ele>183.0</ele><time>2026-03-28T10:43:59.026Z</time></trkpt><trkpt lat="45.5463293" lon="10.7926863"><ele>183.0</ele><time>2026-03-28T10:44:00.027Z</time></trkpt><trkpt lat="45.5463112" lon="10.7928205"><ele>183.0</ele><time>2026-03-28T10:44:01.025Z</time></trkpt><trkpt lat="45.5463073" lon="10.7929415"><ele>183.0</ele><time>2026-03-28T10:44:02.232Z</time></trkpt><trkpt lat="45.5463472" lon="10.7930178"><ele>182.75</ele><time>2026-03-28T10:44:03.837Z</time></trkpt><trkpt lat="45.5464687" lon="10.7930725"><ele>182.5</ele><time>2026-03-28T10:44:05.836Z</time></trkpt><trkpt lat="45.5465565" lon="10.793115"><ele>182.25</ele><time>2026-03-28T10:44:06.839Z</time></trkpt><trkpt lat="45.5466567" lon="10.793163"><ele>182.0</ele><time>2026-03-28T10:44:07.836Z</time></trkpt><trkpt lat="45.5467787" lon="10.7932212"><ele>182.0</ele><time>2026-03-28T10:44:08.834Z</time></trkpt><trkpt lat="45.5469013" lon="10.793279"><ele>182.0</ele><time>2026-03-28T10:44:09.832Z</time></trkpt><trkpt lat="45.5470118" lon="10.7933337"><ele>182.0</ele><time>2026-03-28T10:44:10.833Z</time></trkpt><trkpt lat="45.547111" lon="10.7933858"><ele>182.0</ele><time>2026-03-28T10:44:11.833Z</time></trkpt><trkpt lat="45.5471993" lon="10.7934315"><ele>182.0</ele><time>2026-03-28T10:44:12.834Z</time></trkpt><trkpt lat="45.547275" lon="10.7934698"><ele>182.0</ele><time>2026-03-28T10:44:13.836Z</time></trkpt><trkpt lat="45.5473378" lon="10.7934918"><ele>182.0</ele><time>2026-03-28T10:44:14.837Z</time></trkpt><trkpt lat="45.5474282" lon="10.7934435"><ele>182.0</ele><time>2026-03-28T10:44:16.834Z</time></trkpt><trkpt lat="45.5474615" lon="10.7933643"><ele>182.0</ele><time>2026-03-28T10:44:17.834Z</time></trkpt><trkpt lat="45.54749" lon="10.793253"><ele>182.0</ele><time>2026-03-28T10:44:18.835Z</time></trkpt><trkpt lat="45.5475143" lon="10.7930978"><ele>182.0</ele><time>2026-03-28T10:44:19.834Z</time></trkpt><trkpt lat="45.5475427" lon="10.7929247"><ele>182.0</ele><time>2026-03-28T10:44:20.836Z</time></trkpt><trkpt lat="45.5475698" lon="10.792764"><ele>182.0</ele><time>2026-03-28T10:44:21.834Z</time></trkpt><trkpt lat="45.547592" lon="10.7926312"><ele>182.0</ele><time>2026-03-28T10:44:22.835Z</time></trkpt><trkpt lat="45.5476193" lon="10.7925373"><ele>182.0</ele><time>2026-03-28T10:44:23.838Z</time></trkpt><trkpt lat="45.5477077" lon="10.7924302"><ele>182.0</ele><time>2026-03-28T10:44:25.833Z</time></trkpt><trkpt lat="45.5477713" lon="10.7924122"><ele>181.83333333333331</ele><time>2026-03-28T10:44:26.833Z</time></trkpt><trkpt lat="45.5478397" lon="10.7924245"><ele>181.66666666666666</ele><time>2026-03-28T10:44:27.834Z</time></trkpt><trkpt lat="45.5478988" lon="10.7924652"><ele>181.5</ele><time>2026-03-28T10:44:28.833Z</time></trkpt><trkpt lat="45.5479647" lon="10.792539"><ele>181.33333333333334</ele><time>2026-03-28T10:44:29.836Z</time></trkpt><trkpt lat="45.5480442" lon="10.792625"><ele>181.16666666666669</ele><time>2026-03-28T10:44:30.834Z</time></trkpt><trkpt lat="45.5481328" lon="10.7926963"><ele>181.0</ele><time>2026-03-28T10:44:31.834Z</time></trkpt><trkpt lat="45.5482282" lon="10.7927505"><ele>181.4</ele><time>2026-03-28T10:44:32.832Z</time></trkpt><trkpt lat="45.5483317" lon="10.7927895"><ele>181.8</ele><time>2026-03-28T10:44:33.832Z</time></trkpt><trkpt lat="45.5484403" lon="10.7928178"><ele>182.20000000000002</ele><time>2026-03-28T10:44:34.832Z</time></trkpt><trkpt lat="45.5485535" lon="10.7928345"><ele>182.60000000000002</ele><time>2026-03-28T10:44:35.834Z</time></trkpt><trkpt lat="45.5486692" lon="10.7928372"><ele>183.0</ele><time>2026-03-28T10:44:36.836Z</time></trkpt><trkpt lat="45.5487863" lon="10.7928313"><ele>184.0</ele><time>2026-03-28T10:44:37.835Z</time></trkpt><trkpt lat="45.5488993" lon="10.7928198"><ele>185.0</ele><time>2026-03-28T10:44:38.835Z</time></trkpt><trkpt lat="45.5490083" lon="10.7927963"><ele>186.0</ele><time>2026-03-28T10:44:39.835Z</time></trkpt><trkpt lat="45.549118" lon="10.7927588"><ele>187.0</ele><time>2026-03-28T10:44:40.834Z</time></trkpt><trkpt lat="45.5492295" lon="10.7927258"><ele>187.0</ele><time>2026-03-28T10:44:41.833Z</time></trkpt><trkpt lat="45.5493405" lon="10.7927072"><ele>187.0</ele><time>2026-03-28T10:44:42.834Z</time></trkpt><trkpt lat="45.5494515" lon="10.792711"><ele>187.0</ele><time>2026-03-28T10:44:43.836Z</time></trkpt><trkpt lat="45.5495463" lon="10.792742"><ele>187.0</ele><time>2026-03-28T10:44:44.834Z</time></trkpt><trkpt lat="45.549633" lon="10.7927882"><ele>187.0</ele><time>2026-03-28T10:44:45.833Z</time></trkpt><trkpt lat="45.5497247" lon="10.7928498"><ele>186.8</ele><time>2026-03-28T10:44:46.832Z</time></trkpt><trkpt lat="45.5498203" lon="10.7929242"><ele>186.6</ele><time>2026-03-28T10:44:47.836Z</time></trkpt><trkpt lat="45.5499117" lon="10.79301"><ele>186.4</ele><time>2026-03-28T10:44:48.833Z</time></trkpt><trkpt lat="45.5499993" lon="10.7930948"><ele>186.20000000000002</ele><time>2026-03-28T10:44:49.832Z</time></trkpt><trkpt lat="45.5500763" lon="10.7931783"><ele>186.0</ele><time>2026-03-28T10:44:50.832Z</time></trkpt><trkpt lat="45.5501463" lon="10.7932752"><ele>186.0</ele><time>2026-03-28T10:44:51.835Z</time></trkpt><trkpt lat="45.5502247" lon="10.7934027"><ele>186.0</ele><time>2026-03-28T10:44:52.834Z</time></trkpt><trkpt lat="45.5502992" lon="10.7935347"><ele>186.0</ele><time>2026-03-28T10:44:53.835Z</time></trkpt><trkpt lat="45.550373" lon="10.793668"><ele>186.0</ele><time>2026-03-28T10:44:54.835Z</time></trkpt><trkpt lat="45.5504543" lon="10.7938097"><ele>186.0</ele><time>2026-03-28T10:44:55.833Z</time></trkpt><trkpt lat="45.5505363" lon="10.7939533"><ele>186.0</ele><time>2026-03-28T10:44:56.833Z</time></trkpt><trkpt lat="45.5506182" lon="10.7940978"><ele>186.0</ele><time>2026-03-28T10:44:57.832Z</time></trkpt><trkpt lat="45.5506852" lon="10.7942223"><ele>186.0</ele><time>2026-03-28T10:44:58.832Z</time></trkpt><trkpt lat="45.5507458" lon="10.7943535"><ele>186.0</ele><time>2026-03-28T10:45:00.025Z</time></trkpt><trkpt lat="45.5507732" lon="10.794458"><ele>186.0</ele><time>2026-03-28T10:45:01.03Z</time></trkpt><trkpt lat="45.5507787" lon="10.794568"><ele>186.0</ele><time>2026-03-28T10:45:02.025Z</time></trkpt><trkpt lat="45.5507717" lon="10.7947023"><ele>186.0</ele><time>2026-03-28T10:45:03.025Z</time></trkpt><trkpt lat="45.5507645" lon="10.7948478"><ele>186.0</ele><time>2026-03-28T10:45:04.027Z</time></trkpt><trkpt lat="45.5507667" lon="10.795022"><ele>186.0</ele><time>2026-03-28T10:45:05.026Z</time></trkpt><trkpt lat="45.5507697" lon="10.7952305"><ele>186.0</ele><time>2026-03-28T10:45:06.025Z</time></trkpt><trkpt lat="45.5507657" lon="10.795443"><ele>186.0</ele><time>2026-03-28T10:45:07.026Z</time></trkpt><trkpt lat="45.5507605" lon="10.7956433"><ele>186.0</ele><time>2026-03-28T10:45:08.026Z</time></trkpt><trkpt lat="45.5507615" lon="10.7958248"><ele>186.0</ele><time>2026-03-28T10:45:09.025Z</time></trkpt><trkpt lat="45.5507688" lon="10.7959887"><ele>186.0</ele><time>2026-03-28T10:45:10.025Z</time></trkpt><trkpt lat="45.5507783" lon="10.796144"><ele>186.0</ele><time>2026-03-28T10:45:11.026Z</time></trkpt><trkpt lat="45.5507815" lon="10.7962902"><ele>186.0</ele><time>2026-03-28T10:45:12.023Z</time></trkpt><trkpt lat="45.5507867" lon="10.796421"><ele>186.0</ele><time>2026-03-28T10:45:13.023Z</time></trkpt><trkpt lat="45.5507977" lon="10.7965312"><ele>186.0</ele><time>2026-03-28T10:45:14.024Z</time></trkpt><trkpt lat="45.5508217" lon="10.7966668"><ele>186.0</ele><time>2026-03-28T10:45:16.025Z</time></trkpt><trkpt lat="45.5508313" lon="10.7967767"><ele>186.0</ele><time>2026-03-28T10:45:19.027Z</time></trkpt><trkpt lat="45.5508355" lon="10.7969865"><ele>186.0</ele><time>2026-03-28T10:45:21.027Z</time></trkpt><trkpt lat="45.550833" lon="10.7971468"><ele>186.0</ele><time>2026-03-28T10:45:22.03Z</time></trkpt><trkpt lat="45.5508272" lon="10.7973327"><ele>186.0</ele><time>2026-03-28T10:45:23.026Z</time></trkpt><trkpt lat="45.5508198" lon="10.79754"><ele>186.0</ele><time>2026-03-28T10:45:24.025Z</time></trkpt><trkpt lat="45.5508125" lon="10.7977463"><ele>186.0</ele><time>2026-03-28T10:45:25.029Z</time></trkpt><trkpt lat="45.5508052" lon="10.7979452"><ele>186.0</ele><time>2026-03-28T10:45:26.027Z</time></trkpt><trkpt lat="45.5507952" lon="10.7981465"><ele>186.0</ele><time>2026-03-28T10:45:27.024Z</time></trkpt><trkpt lat="45.5507825" lon="10.7983552"><ele>186.0</ele><time>2026-03-28T10:45:28.025Z</time></trkpt><trkpt lat="45.5507702" lon="10.7985685"><ele>186.0</ele><time>2026-03-28T10:45:29.027Z</time></trkpt><trkpt lat="45.5507623" lon="10.7987838"><ele>186.0</ele><time>2026-03-28T10:45:30.026Z</time></trkpt><trkpt lat="45.5507575" lon="10.7990015"><ele>185.75</ele><time>2026-03-28T10:45:31.026Z</time></trkpt><trkpt lat="45.5507555" lon="10.7992122"><ele>185.5</ele><time>2026-03-28T10:45:32.03Z</time></trkpt><trkpt lat="45.5507578" lon="10.7994153"><ele>185.25</ele><time>2026-03-28T10:45:33.026Z</time></trkpt><trkpt lat="45.5507637" lon="10.799621"><ele>185.0</ele><time>2026-03-28T10:45:34.025Z</time></trkpt><trkpt lat="45.5507712" lon="10.799832"><ele>184.66666666666666</ele><time>2026-03-28T10:45:35.026Z</time></trkpt><trkpt lat="45.5507803" lon="10.800045"><ele>184.33333333333334</ele><time>2026-03-28T10:45:36.027Z</time></trkpt><trkpt lat="45.5507928" lon="10.8002642"><ele>184.0</ele><time>2026-03-28T10:45:37.025Z</time></trkpt><trkpt lat="45.5508088" lon="10.8004858"><ele>183.0</ele><time>2026-03-28T10:45:38.026Z</time></trkpt><trkpt lat="45.5508273" lon="10.8007033"><ele>182.0</ele><time>2026-03-28T10:45:39.025Z</time></trkpt><trkpt lat="45.5508465" lon="10.8009098"><ele>181.0</ele><time>2026-03-28T10:45:40.024Z</time></trkpt><trkpt lat="45.5508632" lon="10.801107"><ele>180.0</ele><time>2026-03-28T10:45:41.026Z</time></trkpt><trkpt lat="45.5508703" lon="10.8012967"><ele>179.25</ele><time>2026-03-28T10:45:42.028Z</time></trkpt><trkpt lat="45.5508692" lon="10.8014812"><ele>178.5</ele><time>2026-03-28T10:45:43.029Z</time></trkpt><trkpt lat="45.5508613" lon="10.8016735"><ele>177.75</ele><time>2026-03-28T10:45:44.028Z</time></trkpt><trkpt lat="45.5508472" lon="10.801877"><ele>177.0</ele><time>2026-03-28T10:45:45.027Z</time></trkpt><trkpt lat="45.5508302" lon="10.8020887"><ele>177.0</ele><time>2026-03-28T10:45:46.027Z</time></trkpt><trkpt lat="45.5508128" lon="10.8022947"><ele>177.0</ele><time>2026-03-28T10:45:47.028Z</time></trkpt><trkpt lat="45.550792" lon="10.8024918"><ele>177.0</ele><time>2026-03-28T10:45:48.027Z</time></trkpt><trkpt lat="45.550761" lon="10.8026767"><ele>177.0</ele><time>2026-03-28T10:45:49.028Z</time></trkpt><trkpt lat="45.5507172" lon="10.8028483"><ele>176.0</ele><time>2026-03-28T10:45:50.029Z</time></trkpt><trkpt lat="45.5506593" lon="10.8030142"><ele>175.0</ele><time>2026-03-28T10:45:51.029Z</time></trkpt><trkpt lat="45.5505835" lon="10.8031843"><ele>174.0</ele><time>2026-03-28T10:45:52.029Z</time></trkpt><trkpt lat="45.5504983" lon="10.8033427"><ele>173.0</ele><time>2026-03-28T10:45:53.028Z</time></trkpt><trkpt lat="45.5504228" lon="10.8034782"><ele>172.66666666666666</ele><time>2026-03-28T10:45:54.025Z</time></trkpt><trkpt lat="45.550377" lon="10.8035992"><ele>172.33333333333331</ele><time>2026-03-28T10:45:55.027Z</time></trkpt><trkpt lat="45.5503677" lon="10.8037068"><ele>172.0</ele><time>2026-03-28T10:45:56.028Z</time></trkpt><trkpt lat="45.5503862" lon="10.8037935"><ele>171.66666666666666</ele><time>2026-03-28T10:45:57.028Z</time></trkpt><trkpt lat="45.5504722" lon="10.803901"><ele>171.33333333333334</ele><time>2026-03-28T10:45:59.03Z</time></trkpt><trkpt lat="45.5505523" lon="10.8039465"><ele>171.0</ele><time>2026-03-28T10:46:00.027Z</time></trkpt><trkpt lat="45.5506617" lon="10.8039903"><ele>171.0</ele><time>2026-03-28T10:46:01.029Z</time></trkpt><trkpt lat="45.5507875" lon="10.8040142"><ele>171.0</ele><time>2026-03-28T10:46:02.024Z</time></trkpt><trkpt lat="45.5509427" lon="10.8040148"><ele>171.0</ele><time>2026-03-28T10:46:03.025Z</time></trkpt><trkpt lat="45.5511145" lon="10.8040032"><ele>171.66666666666666</ele><time>2026-03-28T10:46:04.024Z</time></trkpt><trkpt lat="45.5513083" lon="10.8039867"><ele>172.33333333333331</ele><time>2026-03-28T10:46:05.025Z</time></trkpt><trkpt lat="45.551517" lon="10.8039695"><ele>173.0</ele><time>2026-03-28T10:46:06.026Z</time></trkpt><trkpt lat="45.5517235" lon="10.8039528"><ele>173.0</ele><time>2026-03-28T10:46:07.028Z</time></trkpt><trkpt lat="45.5519175" lon="10.8039355"><ele>173.0</ele><time>2026-03-28T10:46:08.032Z</time></trkpt><trkpt lat="45.552099" lon="10.8039177"><ele>173.0</ele><time>2026-03-28T10:46:09.027Z</time></trkpt><trkpt lat="45.552269" lon="10.8039"><ele>172.75</ele><time>2026-03-28T10:46:10.028Z</time></trkpt><trkpt lat="45.5524278" lon="10.8038808"><ele>172.5</ele><time>2026-03-28T10:46:11.028Z</time></trkpt><trkpt lat="45.5525758" lon="10.803858"><ele>172.25</ele><time>2026-03-28T10:46:12.028Z</time></trkpt><trkpt lat="45.5527128" lon="10.803833"><ele>172.0</ele><time>2026-03-28T10:46:13.028Z</time></trkpt><trkpt lat="45.5528425" lon="10.8038073"><ele>173.0</ele><time>2026-03-28T10:46:14.029Z</time></trkpt><trkpt lat="45.5531075" lon="10.8037535"><ele>174.0</ele><time>2026-03-28T10:46:16.029Z</time></trkpt><trkpt lat="45.553246" lon="10.8037253"><ele>175.0</ele><time>2026-03-28T10:46:17.029Z</time></trkpt><trkpt lat="45.553394" lon="10.8036957"><ele>175.0</ele><time>2026-03-28T10:46:18.03Z</time></trkpt><trkpt lat="45.5535512" lon="10.8036643"><ele>175.0</ele><time>2026-03-28T10:46:19.029Z</time></trkpt><trkpt lat="45.5537167" lon="10.8036365"><ele>175.0</ele><time>2026-03-28T10:46:20.029Z</time></trkpt><trkpt lat="45.5538963" lon="10.8036158"><ele>175.0</ele><time>2026-03-28T10:46:21.031Z</time></trkpt><trkpt lat="45.554082" lon="10.8036072"><ele>175.0</ele><time>2026-03-28T10:46:22.027Z</time></trkpt><trkpt lat="45.5542708" lon="10.8036158"><ele>175.0</ele><time>2026-03-28T10:46:23.029Z</time></trkpt><trkpt lat="45.5544663" lon="10.8036337"><ele>176.0</ele><time>2026-03-28T10:46:24.025Z</time></trkpt><trkpt lat="45.5546602" lon="10.8036507"><ele>177.0</ele><time>2026-03-28T10:46:25.027Z</time></trkpt><trkpt lat="45.5548513" lon="10.8036503"><ele>178.0</ele><time>2026-03-28T10:46:26.024Z</time></trkpt><trkpt lat="45.5550398" lon="10.803619"><ele>178.0</ele><time>2026-03-28T10:46:27.024Z</time></trkpt><trkpt lat="45.5552248" lon="10.803551"><ele>178.0</ele><time>2026-03-28T10:46:28.024Z</time></trkpt><trkpt lat="45.5554058" lon="10.8034468"><ele>178.0</ele><time>2026-03-28T10:46:29.024Z</time></trkpt><trkpt lat="45.555584" lon="10.803312"><ele>178.0</ele><time>2026-03-28T10:46:30.026Z</time></trkpt><trkpt lat="45.5557672" lon="10.8031542"><ele>178.0</ele><time>2026-03-28T10:46:31.027Z</time></trkpt><trkpt lat="45.5559595" lon="10.8029852"><ele>178.0</ele><time>2026-03-28T10:46:32.028Z</time></trkpt><trkpt lat="45.5561613" lon="10.802804"><ele>179.0</ele><time>2026-03-28T10:46:33.027Z</time></trkpt><trkpt lat="45.5563682" lon="10.8026137"><ele>180.0</ele><time>2026-03-28T10:46:34.027Z</time></trkpt><trkpt lat="45.556567" lon="10.8024305"><ele>180.0</ele><time>2026-03-28T10:46:35.025Z</time></trkpt><trkpt lat="45.5567645" lon="10.8022493"><ele>180.0</ele><time>2026-03-28T10:46:36.025Z</time></trkpt><trkpt lat="45.5569612" lon="10.8020683"><ele>181.5</ele><time>2026-03-28T10:46:37.027Z</time></trkpt><trkpt lat="45.5571565" lon="10.80189"><ele>183.0</ele><time>2026-03-28T10:46:38.026Z</time></trkpt><trkpt lat="45.5573442" lon="10.8017205"><ele>183.0</ele><time>2026-03-28T10:46:39.026Z</time></trkpt><trkpt lat="45.5575258" lon="10.8015617"><ele>183.0</ele><time>2026-03-28T10:46:40.029Z</time></trkpt><trkpt lat="45.5577092" lon="10.8014108"><ele>183.0</ele><time>2026-03-28T10:46:41.027Z</time></trkpt><trkpt lat="45.5578948" lon="10.8012677"><ele>183.66666666666666</ele><time>2026-03-28T10:46:42.026Z</time></trkpt><trkpt lat="45.5580785" lon="10.8011265"><ele>184.33333333333331</ele><time>2026-03-28T10:46:43.029Z</time></trkpt><trkpt lat="45.5582565" lon="10.800981"><ele>185.0</ele><time>2026-03-28T10:46:44.029Z</time></trkpt><trkpt lat="45.5584212" lon="10.8008263"><ele>185.0</ele><time>2026-03-28T10:46:45.028Z</time></trkpt><trkpt lat="45.558568" lon="10.8006662"><ele>185.0</ele><time>2026-03-28T10:46:46.026Z</time></trkpt><trkpt lat="45.5587022" lon="10.8005082"><ele>185.0</ele><time>2026-03-28T10:46:47.025Z</time></trkpt><trkpt lat="45.5588322" lon="10.8003525"><ele>185.0</ele><time>2026-03-28T10:46:48.021Z</time></trkpt><trkpt lat="45.5589572" lon="10.8002085"><ele>185.0</ele><time>2026-03-28T10:46:49.022Z</time></trkpt><trkpt lat="45.5590923" lon="10.8000868"><ele>185.0</ele><time>2026-03-28T10:46:50.026Z</time></trkpt><trkpt lat="45.559244" lon="10.7999917"><ele>185.0</ele><time>2026-03-28T10:46:51.023Z</time></trkpt><trkpt lat="45.5594113" lon="10.7999238"><ele>185.0</ele><time>2026-03-28T10:46:52.024Z</time></trkpt><trkpt lat="45.5595915" lon="10.7998928"><ele>185.0</ele><time>2026-03-28T10:46:53.028Z</time></trkpt><trkpt lat="45.559784" lon="10.7998965"><ele>185.0</ele><time>2026-03-28T10:46:54.025Z</time></trkpt><trkpt lat="45.5599922" lon="10.79992"><ele>185.0</ele><time>2026-03-28T10:46:55.03Z</time></trkpt><trkpt lat="45.5602065" lon="10.7999472"><ele>185.0</ele><time>2026-03-28T10:46:56.029Z</time></trkpt><trkpt lat="45.560424" lon="10.7999702"><ele>185.0</ele><time>2026-03-28T10:46:57.031Z</time></trkpt><trkpt lat="45.5606482" lon="10.7999935"><ele>185.0</ele><time>2026-03-28T10:46:58.029Z</time></trkpt><trkpt lat="45.560878" lon="10.8000198"><ele>185.0</ele><time>2026-03-28T10:46:59.03Z</time></trkpt><trkpt lat="45.561112" lon="10.8000457"><ele>185.0</ele><time>2026-03-28T10:47:00.028Z</time></trkpt><trkpt lat="45.561347" lon="10.80007"><ele>185.5</ele><time>2026-03-28T10:47:01.03Z</time></trkpt><trkpt lat="45.5615845" lon="10.8000968"><ele>186.0</ele><time>2026-03-28T10:47:02.029Z</time></trkpt><trkpt lat="45.5618217" lon="10.800127"><ele>186.5</ele><time>2026-03-28T10:47:03.027Z</time></trkpt><trkpt lat="45.5620567" lon="10.8001652"><ele>187.0</ele><time>2026-03-28T10:47:04.028Z</time></trkpt><trkpt lat="45.5622797" lon="10.8002098"><ele>187.33333333333334</ele><time>2026-03-28T10:47:05.028Z</time></trkpt><trkpt lat="45.5624938" lon="10.8002613"><ele>187.66666666666666</ele><time>2026-03-28T10:47:06.028Z</time></trkpt><trkpt lat="45.5627048" lon="10.8003223"><ele>188.0</ele><time>2026-03-28T10:47:07.027Z</time></trkpt><trkpt lat="45.5629127" lon="10.800394"><ele>189.0</ele><time>2026-03-28T10:47:08.027Z</time></trkpt><trkpt lat="45.5631162" lon="10.80048"><ele>190.0</ele><time>2026-03-28T10:47:09.027Z</time></trkpt><trkpt lat="45.5633087" lon="10.8005852"><ele>191.0</ele><time>2026-03-28T10:47:10.026Z</time></trkpt><trkpt lat="45.5634863" lon="10.8007043"><ele>191.0</ele><time>2026-03-28T10:47:11.027Z</time></trkpt><trkpt lat="45.5636485" lon="10.8008278"><ele>191.0</ele><time>2026-03-28T10:47:12.027Z</time></trkpt><trkpt lat="45.563799" lon="10.8009505"><ele>191.0</ele><time>2026-03-28T10:47:13.03Z</time></trkpt><trkpt lat="45.5639427" lon="10.8010712"><ele>190.33333333333331</ele><time>2026-03-28T10:47:14.03Z</time></trkpt><trkpt lat="45.5640865" lon="10.8011932"><ele>189.66666666666666</ele><time>2026-03-28T10:47:15.026Z</time></trkpt><trkpt lat="45.5642315" lon="10.8013167"><ele>189.0</ele><time>2026-03-28T10:47:16.028Z</time></trkpt><trkpt lat="45.5643795" lon="10.8014367"><ele>189.66666666666666</ele><time>2026-03-28T10:47:17.027Z</time></trkpt><trkpt lat="45.5645307" lon="10.8015475"><ele>190.33333333333331</ele><time>2026-03-28T10:47:18.025Z</time></trkpt><trkpt lat="45.5646817" lon="10.8016407"><ele>191.0</ele><time>2026-03-28T10:47:19.028Z</time></trkpt><trkpt lat="45.5648353" lon="10.8017173"><ele>191.0</ele><time>2026-03-28T10:47:20.027Z</time></trkpt><trkpt lat="45.5650058" lon="10.8017782"><ele>191.0</ele><time>2026-03-28T10:47:21.026Z</time></trkpt><trkpt lat="45.5651997" lon="10.8018257"><ele>191.0</ele><time>2026-03-28T10:47:22.026Z</time></trkpt><trkpt lat="45.5654158" lon="10.8018762"><ele>191.0</ele><time>2026-03-28T10:47:23.028Z</time></trkpt><trkpt lat="45.5656517" lon="10.8019405"><ele>191.0</ele><time>2026-03-28T10:47:24.028Z</time></trkpt><trkpt lat="45.565886" lon="10.8020083"><ele>191.0</ele><time>2026-03-28T10:47:25.03Z</time></trkpt><trkpt lat="45.5661193" lon="10.8020735"><ele>191.0</ele><time>2026-03-28T10:47:26.028Z</time></trkpt><trkpt lat="45.5663502" lon="10.8021342"><ele>190.5</ele><time>2026-03-28T10:47:27.026Z</time></trkpt><trkpt lat="45.5665757" lon="10.8021858"><ele>190.0</ele><time>2026-03-28T10:47:28.029Z</time></trkpt><trkpt lat="45.5668012" lon="10.8022227"><ele>191.0</ele><time>2026-03-28T10:47:29.028Z</time></trkpt><trkpt lat="45.567029" lon="10.8022448"><ele>192.0</ele><time>2026-03-28T10:47:30.027Z</time></trkpt><trkpt lat="45.56726" lon="10.8022542"><ele>192.0</ele><time>2026-03-28T10:47:31.027Z</time></trkpt><trkpt lat="45.5674935" lon="10.8022505"><ele>192.0</ele><time>2026-03-28T10:47:32.028Z</time></trkpt><trkpt lat="45.567729" lon="10.8022327"><ele>191.5</ele><time>2026-03-28T10:47:33.027Z</time></trkpt><trkpt lat="45.5679638" lon="10.8022058"><ele>191.0</ele><time>2026-03-28T10:47:34.028Z</time></trkpt><trkpt lat="45.568196" lon="10.8021783"><ele>191.0</ele><time>2026-03-28T10:47:35.027Z</time></trkpt><trkpt lat="45.5684172" lon="10.8021547"><ele>191.0</ele><time>2026-03-28T10:47:36.027Z</time></trkpt><trkpt lat="45.5686197" lon="10.8021402"><ele>191.0</ele><time>2026-03-28T10:47:37.027Z</time></trkpt><trkpt lat="45.5687977" lon="10.8021375"><ele>191.75</ele><time>2026-03-28T10:47:38.028Z</time></trkpt><trkpt lat="45.5689512" lon="10.802145"><ele>192.5</ele><time>2026-03-28T10:47:39.028Z</time></trkpt><trkpt lat="45.5690787" lon="10.8021585"><ele>193.25</ele><time>2026-03-28T10:47:40.025Z</time></trkpt><trkpt lat="45.5691823" lon="10.8021675"><ele>194.0</ele><time>2026-03-28T10:47:41.024Z</time></trkpt><trkpt lat="45.5692595" lon="10.802145"><ele>194.0</ele><time>2026-03-28T10:47:42.026Z</time></trkpt><trkpt lat="45.5693177" lon="10.8020772"><ele>194.0</ele><time>2026-03-28T10:47:43.024Z</time></trkpt><trkpt lat="45.5693643" lon="10.8019647"><ele>194.0</ele><time>2026-03-28T10:47:44.026Z</time></trkpt><trkpt lat="45.5694073" lon="10.8018038"><ele>194.0</ele><time>2026-03-28T10:47:45.026Z</time></trkpt><trkpt lat="45.5694568" lon="10.8016063"><ele>194.0</ele><time>2026-03-28T10:47:46.027Z</time></trkpt><trkpt lat="45.5695068" lon="10.8014105"><ele>193.5</ele><time>2026-03-28T10:47:47.026Z</time></trkpt><trkpt lat="45.569557" lon="10.8012267"><ele>193.0</ele><time>2026-03-28T10:47:48.025Z</time></trkpt><trkpt lat="45.5696113" lon="10.8010328"><ele>192.5</ele><time>2026-03-28T10:47:49.028Z</time></trkpt><trkpt lat="45.5696612" lon="10.8008417"><ele>192.0</ele><time>2026-03-28T10:47:50.026Z</time></trkpt><trkpt lat="45.5697005" lon="10.800658"><ele>192.0</ele><time>2026-03-28T10:47:51.027Z</time></trkpt><trkpt lat="45.5697388" lon="10.8004885"><ele>192.0</ele><time>2026-03-28T10:47:52.027Z</time></trkpt><trkpt lat="45.5697827" lon="10.8003453"><ele>192.0</ele><time>2026-03-28T10:47:53.027Z</time></trkpt><trkpt lat="45.5698312" lon="10.8002362"><ele>192.0</ele><time>2026-03-28T10:47:54.027Z</time></trkpt><trkpt lat="45.569876" lon="10.800155"><ele>192.0</ele><time>2026-03-28T10:47:55.025Z</time></trkpt><trkpt lat="45.5699647" lon="10.8000837"><ele>192.33333333333334</ele><time>2026-03-28T10:47:57.025Z</time></trkpt><trkpt lat="45.5700267" lon="10.8000572"><ele>192.66666666666669</ele><time>2026-03-28T10:47:58.024Z</time></trkpt><trkpt lat="45.570102" lon="10.8000275"><ele>193.0</ele><time>2026-03-28T10:47:59.025Z</time></trkpt><trkpt lat="45.5701877" lon="10.8000007"><ele>193.33333333333334</ele><time>2026-03-28T10:48:00.026Z</time></trkpt><trkpt lat="45.5702822" lon="10.799975"><ele>193.66666666666669</ele><time>2026-03-28T10:48:01.024Z</time></trkpt><trkpt lat="45.5703833" lon="10.7999473"><ele>194.0</ele><time>2026-03-28T10:48:02.027Z</time></trkpt><trkpt lat="45.5704877" lon="10.7999025"><ele>194.6</ele><time>2026-03-28T10:48:03.027Z</time></trkpt><trkpt lat="45.5705882" lon="10.7998365"><ele>195.2</ele><time>2026-03-28T10:48:04.025Z</time></trkpt><trkpt lat="45.5706797" lon="10.799757"><ele>195.79999999999998</ele><time>2026-03-28T10:48:05.026Z</time></trkpt><trkpt lat="45.5707595" lon="10.7996845"><ele>196.39999999999998</ele><time>2026-03-28T10:48:06.022Z</time></trkpt><trkpt lat="45.570849" lon="10.799624"><ele>197.0</ele><time>2026-03-28T10:48:07.023Z</time></trkpt><trkpt lat="45.5709468" lon="10.7995665"><ele>197.0</ele><time>2026-03-28T10:48:08.026Z</time></trkpt><trkpt lat="45.5710508" lon="10.7995027"><ele>197.0</ele><time>2026-03-28T10:48:09.025Z</time></trkpt><trkpt lat="45.5711623" lon="10.7994207"><ele>197.0</ele><time>2026-03-28T10:48:10.027Z</time></trkpt><trkpt lat="45.5712702" lon="10.7993403"><ele>197.0</ele><time>2026-03-28T10:48:11.025Z</time></trkpt><trkpt lat="45.5713763" lon="10.7992578"><ele>198.0</ele><time>2026-03-28T10:48:12.026Z</time></trkpt><trkpt lat="45.5714763" lon="10.7991748"><ele>199.0</ele><time>2026-03-28T10:48:13.026Z</time></trkpt><trkpt lat="45.5715815" lon="10.7990953"><ele>200.0</ele><time>2026-03-28T10:48:14.027Z</time></trkpt><trkpt lat="45.571697" lon="10.7990103"><ele>201.0</ele><time>2026-03-28T10:48:15.026Z</time></trkpt><trkpt lat="45.571813" lon="10.7989237"><ele>201.0</ele><time>2026-03-28T10:48:16.027Z</time></trkpt><trkpt lat="45.5719155" lon="10.7988483"><ele>201.0</ele><time>2026-03-28T10:48:17.026Z</time></trkpt><trkpt lat="45.5720157" lon="10.7987605"><ele>201.0</ele><time>2026-03-28T10:48:18.026Z</time></trkpt><trkpt lat="45.5721155" lon="10.7986722"><ele>201.0</ele><time>2026-03-28T10:48:19.028Z</time></trkpt><trkpt lat="45.5722298" lon="10.7985873"><ele>202.25</ele><time>2026-03-28T10:48:20.028Z</time></trkpt><trkpt lat="45.5723698" lon="10.798493"><ele>203.5</ele><time>2026-03-28T10:48:21.028Z</time></trkpt><trkpt lat="45.5725043" lon="10.798398"><ele>204.75</ele><time>2026-03-28T10:48:22.025Z</time></trkpt><trkpt lat="45.5726252" lon="10.7983053"><ele>206.0</ele><time>2026-03-28T10:48:23.026Z</time></trkpt><trkpt lat="45.5727403" lon="10.798225"><ele>205.0</ele><time>2026-03-28T10:48:24.025Z</time></trkpt><trkpt lat="45.5728732" lon="10.7981535"><ele>204.0</ele><time>2026-03-28T10:48:25.026Z</time></trkpt><trkpt lat="45.5730262" lon="10.7980883"><ele>203.0</ele><time>2026-03-28T10:48:26.026Z</time></trkpt><trkpt lat="45.5731788" lon="10.7980208"><ele>203.0</ele><time>2026-03-28T10:48:27.026Z</time></trkpt><trkpt lat="45.5733212" lon="10.7979557"><ele>203.0</ele><time>2026-03-28T10:48:28.025Z</time></trkpt><trkpt lat="45.5734578" lon="10.7978968"><ele>203.0</ele><time>2026-03-28T10:48:29.022Z</time></trkpt><trkpt lat="45.5735942" lon="10.7978323"><ele>203.0</ele><time>2026-03-28T10:48:30.022Z</time></trkpt><trkpt lat="45.5737213" lon="10.7977753"><ele>201.75</ele><time>2026-03-28T10:48:31.023Z</time></trkpt><trkpt lat="45.573842" lon="10.7977175"><ele>200.5</ele><time>2026-03-28T10:48:32.027Z</time></trkpt><trkpt lat="45.5739563" lon="10.7976515"><ele>199.25</ele><time>2026-03-28T10:48:33.025Z</time></trkpt><trkpt lat="45.5740688" lon="10.7975762"><ele>198.0</ele><time>2026-03-28T10:48:34.024Z</time></trkpt><trkpt lat="45.5741712" lon="10.7975012"><ele>201.0</ele><time>2026-03-28T10:48:35.026Z</time></trkpt><trkpt lat="45.5742683" lon="10.7974047"><ele>204.0</ele><time>2026-03-28T10:48:36.024Z</time></trkpt><trkpt lat="45.5743552" lon="10.7972913"><ele>207.0</ele><time>2026-03-28T10:48:37.027Z</time></trkpt><trkpt lat="45.5744283" lon="10.7971567"><ele>210.0</ele><time>2026-03-28T10:48:38.026Z</time></trkpt><trkpt lat="45.5745137" lon="10.7970333"><ele>210.25</ele><time>2026-03-28T10:48:39.024Z</time></trkpt><trkpt lat="45.5746125" lon="10.7969302"><ele>210.5</ele><time>2026-03-28T10:48:40.028Z</time></trkpt><trkpt lat="45.574743" lon="10.7968265"><ele>210.75</ele><time>2026-03-28T10:48:41.025Z</time></trkpt><trkpt lat="45.5748715" lon="10.796723"><ele>211.0</ele><time>2026-03-28T10:48:42.025Z</time></trkpt><trkpt lat="45.5749795" lon="10.7966253"><ele>211.0</ele><time>2026-03-28T10:48:43.024Z</time></trkpt><trkpt lat="45.5750823" lon="10.796524"><ele>211.0</ele><time>2026-03-28T10:48:44.026Z</time></trkpt><trkpt lat="45.5751928" lon="10.7964115"><ele>211.0</ele><time>2026-03-28T10:48:45.025Z</time></trkpt><trkpt lat="45.575297" lon="10.7962873"><ele>211.0</ele><time>2026-03-28T10:48:46.024Z</time></trkpt><trkpt lat="45.5753908" lon="10.7961488"><ele>209.25</ele><time>2026-03-28T10:48:47.026Z</time></trkpt><trkpt lat="45.5754847" lon="10.7960062"><ele>207.5</ele><time>2026-03-28T10:48:48.023Z</time></trkpt><trkpt lat="45.5755778" lon="10.7958573"><ele>205.75</ele><time>2026-03-28T10:48:49.023Z</time></trkpt><trkpt lat="45.5756582" lon="10.7957142"><ele>204.0</ele><time>2026-03-28T10:48:50.025Z</time></trkpt><trkpt lat="45.5757322" lon="10.7955835"><ele>204.0</ele><time>2026-03-28T10:48:51.024Z</time></trkpt><trkpt lat="45.5758025" lon="10.7954767"><ele>204.0</ele><time>2026-03-28T10:48:52.024Z</time></trkpt><trkpt lat="45.5758788" lon="10.7953828"><ele>204.0</ele><time>2026-03-28T10:48:53.022Z</time></trkpt><trkpt lat="45.5759482" lon="10.795305"><ele>204.0</ele><time>2026-03-28T10:48:54.023Z</time></trkpt><trkpt lat="45.5760118" lon="10.7952433"><ele>204.0</ele><time>2026-03-28T10:48:55.024Z</time></trkpt><trkpt lat="45.5761018" lon="10.7951828"><ele>203.6</ele><time>2026-03-28T10:48:57.025Z</time></trkpt><trkpt lat="45.5761655" lon="10.7951657"><ele>203.2</ele><time>2026-03-28T10:48:59.027Z</time></trkpt><trkpt lat="45.5762288" lon="10.7951465"><ele>202.79999999999998</ele><time>2026-03-28T10:49:01.026Z</time></trkpt><trkpt lat="45.57631" lon="10.7951238"><ele>202.39999999999998</ele><time>2026-03-28T10:49:05.026Z</time></trkpt><trkpt lat="45.5763773" lon="10.7950285"><ele>202.0</ele><time>2026-03-28T10:49:07.026Z</time></trkpt><trkpt lat="45.5763847" lon="10.7948132"><ele>202.0</ele><time>2026-03-28T10:49:09.024Z</time></trkpt><trkpt lat="45.5763847" lon="10.7946452"><ele>202.0</ele><time>2026-03-28T10:49:10.025Z</time></trkpt><trkpt lat="45.5763907" lon="10.7944763"><ele>202.0</ele><time>2026-03-28T10:49:11.024Z</time></trkpt><trkpt lat="45.5763987" lon="10.7942997"><ele>202.0</ele><time>2026-03-28T10:49:12.026Z</time></trkpt><trkpt lat="45.5764083" lon="10.7941065"><ele>202.0</ele><time>2026-03-28T10:49:13.028Z</time></trkpt><trkpt lat="45.576419" lon="10.793911"><ele>202.0</ele><time>2026-03-28T10:49:14.027Z</time></trkpt><trkpt lat="45.576434" lon="10.7937145"><ele>202.0</ele><time>2026-03-28T10:49:15.026Z</time></trkpt><trkpt lat="45.5764507" lon="10.7935057"><ele>202.0</ele><time>2026-03-28T10:49:16.03Z</time></trkpt><trkpt lat="45.5764665" lon="10.7932823"><ele>202.0</ele><time>2026-03-28T10:49:17.028Z</time></trkpt><trkpt lat="45.5764795" lon="10.7930588"><ele>202.0</ele><time>2026-03-28T10:49:18.026Z</time></trkpt><trkpt lat="45.5764927" lon="10.7928253"><ele>202.0</ele><time>2026-03-28T10:49:19.026Z</time></trkpt><trkpt lat="45.5765062" lon="10.792586"><ele>202.0</ele><time>2026-03-28T10:49:20.026Z</time></trkpt><trkpt lat="45.576519" lon="10.7923493"><ele>202.0</ele><time>2026-03-28T10:49:21.026Z</time></trkpt><trkpt lat="45.5765307" lon="10.7921268"><ele>202.0</ele><time>2026-03-28T10:49:22.031Z</time></trkpt><trkpt lat="45.5765307" lon="10.7919115"><ele>202.0</ele><time>2026-03-28T10:49:23.029Z</time></trkpt><trkpt lat="45.5765107" lon="10.7916977"><ele>202.0</ele><time>2026-03-28T10:49:24.028Z</time></trkpt><trkpt lat="45.5764623" lon="10.791488"><ele>202.0</ele><time>2026-03-28T10:49:25.029Z</time></trkpt><trkpt lat="45.576383" lon="10.7912857"><ele>202.0</ele><time>2026-03-28T10:49:26.029Z</time></trkpt><trkpt lat="45.5762873" lon="10.7911047"><ele>202.0</ele><time>2026-03-28T10:49:27.027Z</time></trkpt><trkpt lat="45.5761857" lon="10.7909382"><ele>202.0</ele><time>2026-03-28T10:49:28.026Z</time></trkpt><trkpt lat="45.5760812" lon="10.7907637"><ele>203.0</ele><time>2026-03-28T10:49:29.027Z</time></trkpt><trkpt lat="45.5759828" lon="10.7905712"><ele>204.0</ele><time>2026-03-28T10:49:30.03Z</time></trkpt><trkpt lat="45.57589" lon="10.790364"><ele>205.0</ele><time>2026-03-28T10:49:31.027Z</time></trkpt><trkpt lat="45.5757983" lon="10.7901483"><ele>206.33333333333331</ele><time>2026-03-28T10:49:32.03Z</time></trkpt><trkpt lat="45.575709" lon="10.789931"><ele>207.66666666666669</ele><time>2026-03-28T10:49:33.029Z</time></trkpt><trkpt lat="45.5756248" lon="10.7897225"><ele>209.0</ele><time>2026-03-28T10:49:34.028Z</time></trkpt><trkpt lat="45.5755457" lon="10.7895142"><ele>212.66666666666669</ele><time>2026-03-28T10:49:35.028Z</time></trkpt><trkpt lat="45.5754802" lon="10.7893028"><ele>216.33333333333331</ele><time>2026-03-28T10:49:36.025Z</time></trkpt><trkpt lat="45.5754377" lon="10.7890907"><ele>220.0</ele><time>2026-03-28T10:49:37.026Z</time></trkpt><trkpt lat="45.5754142" lon="10.7888803"><ele>220.0</ele><time>2026-03-28T10:49:38.024Z</time></trkpt><trkpt lat="45.575407" lon="10.7886622"><ele>220.0</ele><time>2026-03-28T10:49:39.026Z</time></trkpt><trkpt lat="45.5754088" lon="10.7884297"><ele>220.0</ele><time>2026-03-28T10:49:40.026Z</time></trkpt><trkpt lat="45.5754168" lon="10.788193"><ele>219.66666666666666</ele><time>2026-03-28T10:49:41.027Z</time></trkpt><trkpt lat="45.5754293" lon="10.7879608"><ele>219.33333333333331</ele><time>2026-03-28T10:49:42.026Z</time></trkpt><trkpt lat="45.5754463" lon="10.7877347"><ele>219.0</ele><time>2026-03-28T10:49:43.028Z</time></trkpt><trkpt lat="45.57547" lon="10.7875038"><ele>219.0</ele><time>2026-03-28T10:49:44.028Z</time></trkpt><trkpt lat="45.575501" lon="10.7872675"><ele>219.0</ele><time>2026-03-28T10:49:45.025Z</time></trkpt><trkpt lat="45.5755348" lon="10.7870283"><ele>219.0</ele><time>2026-03-28T10:49:46.028Z</time></trkpt><trkpt lat="45.5755663" lon="10.7867905"><ele>219.0</ele><time>2026-03-28T10:49:47.027Z</time></trkpt><trkpt lat="45.5755915" lon="10.786554"><ele>219.0</ele><time>2026-03-28T10:49:48.028Z</time></trkpt><trkpt lat="45.5756092" lon="10.7863178"><ele>219.0</ele><time>2026-03-28T10:49:49.025Z</time></trkpt><trkpt lat="45.5756152" lon="10.7860757"><ele>220.66666666666669</ele><time>2026-03-28T10:49:50.025Z</time></trkpt><trkpt lat="45.5756108" lon="10.7858262"><ele>222.33333333333334</ele><time>2026-03-28T10:49:51.024Z</time></trkpt><trkpt lat="45.5755915" lon="10.7855737"><ele>224.0</ele><time>2026-03-28T10:49:52.026Z</time></trkpt><trkpt lat="45.5755673" lon="10.7853233"><ele>226.33333333333334</ele><time>2026-03-28T10:49:53.026Z</time></trkpt><trkpt lat="45.5755385" lon="10.7850688"><ele>228.66666666666669</ele><time>2026-03-28T10:49:54.025Z</time></trkpt><trkpt lat="45.5755047" lon="10.784822"><ele>231.0</ele><time>2026-03-28T10:49:55.026Z</time></trkpt><trkpt lat="45.5754723" lon="10.784584"><ele>231.0</ele><time>2026-03-28T10:49:56.026Z</time></trkpt><trkpt lat="45.5754375" lon="10.7843512"><ele>231.0</ele><time>2026-03-28T10:49:57.026Z</time></trkpt><trkpt lat="45.5754022" lon="10.7841237"><ele>231.0</ele><time>2026-03-28T10:49:58.026Z</time></trkpt><trkpt lat="45.5753672" lon="10.783901"><ele>228.33333333333331</ele><time>2026-03-28T10:49:59.026Z</time></trkpt><trkpt lat="45.5753343" lon="10.7836772"><ele>225.66666666666666</ele><time>2026-03-28T10:50:00.027Z</time></trkpt><trkpt lat="45.5753103" lon="10.7834487"><ele>223.0</ele><time>2026-03-28T10:50:01.026Z</time></trkpt><trkpt lat="45.5752962" lon="10.783216"><ele>223.0</ele><time>2026-03-28T10:50:02.025Z</time></trkpt><trkpt lat="45.575288" lon="10.7829883"><ele>223.0</ele><time>2026-03-28T10:50:03.025Z</time></trkpt><trkpt lat="45.575283" lon="10.7827675"><ele>223.0</ele><time>2026-03-28T10:50:04.025Z</time></trkpt><trkpt lat="45.575273" lon="10.7825503"><ele>224.33333333333331</ele><time>2026-03-28T10:50:05.025Z</time></trkpt><trkpt lat="45.575266" lon="10.7823303"><ele>225.66666666666669</ele><time>2026-03-28T10:50:06.025Z</time></trkpt><trkpt lat="45.5752722" lon="10.7821095"><ele>227.0</ele><time>2026-03-28T10:50:07.024Z</time></trkpt><trkpt lat="45.5753005" lon="10.7818968"><ele>232.66666666666669</ele><time>2026-03-28T10:50:08.022Z</time></trkpt><trkpt lat="45.575356" lon="10.7816953"><ele>238.33333333333331</ele><time>2026-03-28T10:50:09.024Z</time></trkpt><trkpt lat="45.575437" lon="10.7815025"><ele>244.0</ele><time>2026-03-28T10:50:10.023Z</time></trkpt><trkpt lat="45.5755183" lon="10.781312"><ele>244.0</ele><time>2026-03-28T10:50:11.024Z</time></trkpt><trkpt lat="45.575588" lon="10.7811222"><ele>244.0</ele><time>2026-03-28T10:50:12.023Z</time></trkpt><trkpt lat="45.575641" lon="10.7809163"><ele>244.0</ele><time>2026-03-28T10:50:13.025Z</time></trkpt><trkpt lat="45.5756738" lon="10.7806968"><ele>243.0</ele><time>2026-03-28T10:50:14.024Z</time></trkpt><trkpt lat="45.5756873" lon="10.7804747"><ele>242.0</ele><time>2026-03-28T10:50:15.024Z</time></trkpt><trkpt lat="45.5756817" lon="10.7802573"><ele>241.0</ele><time>2026-03-28T10:50:16.025Z</time></trkpt><trkpt lat="45.5756535" lon="10.7800487"><ele>238.0</ele><time>2026-03-28T10:50:17.027Z</time></trkpt><trkpt lat="45.5756022" lon="10.7798372"><ele>235.0</ele><time>2026-03-28T10:50:18.027Z</time></trkpt><trkpt lat="45.5755243" lon="10.7796275"><ele>232.0</ele><time>2026-03-28T10:50:19.027Z</time></trkpt><trkpt lat="45.5754212" lon="10.7794233"><ele>232.33333333333331</ele><time>2026-03-28T10:50:20.026Z</time></trkpt><trkpt lat="45.575304" lon="10.7792285"><ele>232.66666666666669</ele><time>2026-03-28T10:50:21.026Z</time></trkpt><trkpt lat="45.5751833" lon="10.7790395"><ele>233.0</ele><time>2026-03-28T10:50:22.027Z</time></trkpt><trkpt lat="45.575057" lon="10.7788407"><ele>233.0</ele><time>2026-03-28T10:50:23.027Z</time></trkpt><trkpt lat="45.5749378" lon="10.7786338"><ele>233.0</ele><time>2026-03-28T10:50:24.028Z</time></trkpt><trkpt lat="45.5748238" lon="10.7784163"><ele>233.0</ele><time>2026-03-28T10:50:25.029Z</time></trkpt><trkpt lat="45.5747142" lon="10.7781865"><ele>230.0</ele><time>2026-03-28T10:50:26.027Z</time></trkpt><trkpt lat="45.5746093" lon="10.7779462"><ele>227.0</ele><time>2026-03-28T10:50:27.025Z</time></trkpt><trkpt lat="45.5745073" lon="10.7776998"><ele>224.0</ele><time>2026-03-28T10:50:28.026Z</time></trkpt><trkpt lat="45.5744058" lon="10.7774543"><ele>222.66666666666669</ele><time>2026-03-28T10:50:29.026Z</time></trkpt><trkpt lat="45.5743068" lon="10.7772112"><ele>221.33333333333331</ele><time>2026-03-28T10:50:30.027Z</time></trkpt><trkpt lat="45.5742097" lon="10.7769713"><ele>220.0</ele><time>2026-03-28T10:50:31.026Z</time></trkpt><trkpt lat="45.5741177" lon="10.7767427"><ele>220.0</ele><time>2026-03-28T10:50:32.026Z</time></trkpt><trkpt lat="45.5740322" lon="10.7765238"><ele>220.0</ele><time>2026-03-28T10:50:33.024Z</time></trkpt><trkpt lat="45.573954" lon="10.7763142"><ele>220.0</ele><time>2026-03-28T10:50:34.027Z</time></trkpt><trkpt lat="45.5738823" lon="10.7761118"><ele>219.66666666666666</ele><time>2026-03-28T10:50:35.029Z</time></trkpt><trkpt lat="45.573814" lon="10.7759083"><ele>219.33333333333331</ele><time>2026-03-28T10:50:36.028Z</time></trkpt><trkpt lat="45.5737492" lon="10.7757085"><ele>219.0</ele><time>2026-03-28T10:50:37.029Z</time></trkpt><trkpt lat="45.5736885" lon="10.7755165"><ele>219.0</ele><time>2026-03-28T10:50:38.028Z</time></trkpt><trkpt lat="45.5736103" lon="10.7752592"><ele>219.0</ele><time>2026-03-28T10:50:39.428Z</time></trkpt><trkpt lat="45.5735397" lon="10.7750012"><ele>219.0</ele><time>2026-03-28T10:50:41.028Z</time></trkpt><trkpt lat="45.5735085" lon="10.7748632"><ele>218.5</ele><time>2026-03-28T10:50:42.027Z</time></trkpt><trkpt lat="45.5734862" lon="10.7747398"><ele>218.0</ele><time>2026-03-28T10:50:43.028Z</time></trkpt><trkpt lat="45.5734692" lon="10.7746338"><ele>217.5</ele><time>2026-03-28T10:50:44.03Z</time></trkpt><trkpt lat="45.5734577" lon="10.7745445"><ele>217.0</ele><time>2026-03-28T10:50:45.027Z</time></trkpt><trkpt lat="45.5734413" lon="10.7743902"><ele>216.5</ele><time>2026-03-28T10:50:47.027Z</time></trkpt><trkpt lat="45.5734327" lon="10.774277"><ele>216.0</ele><time>2026-03-28T10:50:49.025Z</time></trkpt><trkpt lat="45.5734247" lon="10.774165"><ele>215.60000000000002</ele><time>2026-03-28T10:50:57.024Z</time></trkpt><trkpt lat="45.5734205" lon="10.7740567"><ele>215.20000000000002</ele><time>2026-03-28T10:50:59.025Z</time></trkpt><trkpt lat="45.5734098" lon="10.773889"><ele>214.79999999999998</ele><time>2026-03-28T10:51:01.028Z</time></trkpt><trkpt lat="45.5734" lon="10.773782"><ele>214.39999999999998</ele><time>2026-03-28T10:51:02.028Z</time></trkpt><trkpt lat="45.5733877" lon="10.7736607"><ele>214.0</ele><time>2026-03-28T10:51:03.028Z</time></trkpt><trkpt lat="45.5733767" lon="10.7735148"><ele>214.0</ele><time>2026-03-28T10:51:04.027Z</time></trkpt><trkpt lat="45.5733697" lon="10.7733538"><ele>214.0</ele><time>2026-03-28T10:51:05.027Z</time></trkpt><trkpt lat="45.5733665" lon="10.7731927"><ele>214.0</ele><time>2026-03-28T10:51:06.026Z</time></trkpt><trkpt lat="45.5733632" lon="10.7730232"><ele>214.0</ele><time>2026-03-28T10:51:07.026Z</time></trkpt><trkpt lat="45.5733635" lon="10.7728558"><ele>213.75</ele><time>2026-03-28T10:51:08.028Z</time></trkpt><trkpt lat="45.5733705" lon="10.7726825"><ele>213.5</ele><time>2026-03-28T10:51:09.028Z</time></trkpt><trkpt lat="45.5733832" lon="10.7725018"><ele>213.25</ele><time>2026-03-28T10:51:10.027Z</time></trkpt><trkpt lat="45.5733978" lon="10.772326"><ele>213.0</ele><time>2026-03-28T10:51:11.028Z</time></trkpt><trkpt lat="45.5734127" lon="10.7721518"><ele>213.0</ele><time>2026-03-28T10:51:12.028Z</time></trkpt><trkpt lat="45.5734283" lon="10.7719903"><ele>213.0</ele><time>2026-03-28T10:51:13.031Z</time></trkpt><trkpt lat="45.5734443" lon="10.7718515"><ele>213.0</ele><time>2026-03-28T10:51:14.028Z</time></trkpt><trkpt lat="45.5734573" lon="10.771742"><ele>213.0</ele><time>2026-03-28T10:51:15.027Z</time></trkpt><trkpt lat="45.5734672" lon="10.7716523"><ele>213.0</ele><time>2026-03-28T10:51:16.029Z</time></trkpt><trkpt lat="45.5734845" lon="10.771506"><ele>212.66666666666666</ele><time>2026-03-28T10:51:18.028Z</time></trkpt><trkpt lat="45.5734968" lon="10.7714005"><ele>212.33333333333331</ele><time>2026-03-28T10:51:20.026Z</time></trkpt><trkpt lat="45.5734995" lon="10.7713053"><ele>212.0</ele><time>2026-03-28T10:51:22.024Z</time></trkpt><trkpt lat="45.5735235" lon="10.7711928"><ele>211.66666666666666</ele><time>2026-03-28T10:51:24.026Z</time></trkpt><trkpt lat="45.5735427" lon="10.7710977"><ele>211.33333333333331</ele><time>2026-03-28T10:51:27.026Z</time></trkpt><trkpt lat="45.5735503" lon="10.7710048"><ele>211.0</ele><time>2026-03-28T10:51:31.029Z</time></trkpt><trkpt lat="45.5735695" lon="10.7708653"><ele>210.8</ele><time>2026-03-28T10:51:33.027Z</time></trkpt><trkpt lat="45.5735838" lon="10.7707643"><ele>210.60000000000002</ele><time>2026-03-28T10:51:34.029Z</time></trkpt><trkpt lat="45.5736042" lon="10.7706247"><ele>210.4</ele><time>2026-03-28T10:51:35.025Z</time></trkpt><trkpt lat="45.573617" lon="10.7704717"><ele>210.2</ele><time>2026-03-28T10:51:36.026Z</time></trkpt><trkpt lat="45.5736217" lon="10.7702868"><ele>210.0</ele><time>2026-03-28T10:51:37.027Z</time></trkpt><trkpt lat="45.573624" lon="10.7700872"><ele>209.66666666666669</ele><time>2026-03-28T10:51:38.026Z</time></trkpt><trkpt lat="45.5736252" lon="10.7698827"><ele>209.33333333333334</ele><time>2026-03-28T10:51:39.028Z</time></trkpt><trkpt lat="45.5736268" lon="10.7696682"><ele>209.0</ele><time>2026-03-28T10:51:40.027Z</time></trkpt><trkpt lat="45.5736298" lon="10.7694447"><ele>208.66666666666669</ele><time>2026-03-28T10:51:41.028Z</time></trkpt><trkpt lat="45.5736367" lon="10.7692192"><ele>208.33333333333331</ele><time>2026-03-28T10:51:42.027Z</time></trkpt><trkpt lat="45.5736452" lon="10.7689932"><ele>208.0</ele><time>2026-03-28T10:51:43.027Z</time></trkpt><trkpt lat="45.5736492" lon="10.7687612"><ele>207.33333333333331</ele><time>2026-03-28T10:51:44.027Z</time></trkpt><trkpt lat="45.5736478" lon="10.7685222"><ele>206.66666666666669</ele><time>2026-03-28T10:51:45.026Z</time></trkpt><trkpt lat="45.5736423" lon="10.7682798"><ele>206.0</ele><time>2026-03-28T10:51:46.025Z</time></trkpt><trkpt lat="45.5736358" lon="10.7680347"><ele>206.0</ele><time>2026-03-28T10:51:47.025Z</time></trkpt><trkpt lat="45.5736307" lon="10.7677927"><ele>206.0</ele><time>2026-03-28T10:51:48.027Z</time></trkpt><trkpt lat="45.5736307" lon="10.7675642"><ele>206.0</ele><time>2026-03-28T10:51:49.026Z</time></trkpt><trkpt lat="45.5736355" lon="10.767348"><ele>205.75</ele><time>2026-03-28T10:51:50.026Z</time></trkpt><trkpt lat="45.5736427" lon="10.7671475"><ele>205.5</ele><time>2026-03-28T10:51:51.027Z</time></trkpt><trkpt lat="45.5736518" lon="10.7669593"><ele>205.25</ele><time>2026-03-28T10:51:52.027Z</time></trkpt><trkpt lat="45.5736612" lon="10.7667732"><ele>205.0</ele><time>2026-03-28T10:51:53.028Z</time></trkpt><trkpt lat="45.5736708" lon="10.766581"><ele>205.0</ele><time>2026-03-28T10:51:54.028Z</time></trkpt><trkpt lat="45.5736778" lon="10.766382"><ele>205.0</ele><time>2026-03-28T10:51:55.027Z</time></trkpt><trkpt lat="45.5736792" lon="10.7661798"><ele>205.0</ele><time>2026-03-28T10:51:56.025Z</time></trkpt><trkpt lat="45.5736705" lon="10.7659778"><ele>205.0</ele><time>2026-03-28T10:51:57.025Z</time></trkpt><trkpt lat="45.573642" lon="10.765777"><ele>205.0</ele><time>2026-03-28T10:51:58.024Z</time></trkpt><trkpt lat="45.5735928" lon="10.7655833"><ele>205.0</ele><time>2026-03-28T10:51:59.025Z</time></trkpt><trkpt lat="45.5735253" lon="10.7653952"><ele>205.0</ele><time>2026-03-28T10:52:00.024Z</time></trkpt><trkpt lat="45.5734388" lon="10.7652058"><ele>205.66666666666666</ele><time>2026-03-28T10:52:01.027Z</time></trkpt><trkpt lat="45.5733433" lon="10.7650197"><ele>206.33333333333331</ele><time>2026-03-28T10:52:02.026Z</time></trkpt><trkpt lat="45.5732507" lon="10.7648475"><ele>207.0</ele><time>2026-03-28T10:52:03.026Z</time></trkpt><trkpt lat="45.5731665" lon="10.7646772"><ele>207.0</ele><time>2026-03-28T10:52:04.029Z</time></trkpt><trkpt lat="45.5730968" lon="10.7644922"><ele>207.0</ele><time>2026-03-28T10:52:05.027Z</time></trkpt><trkpt lat="45.5730458" lon="10.7642812"><ele>207.0</ele><time>2026-03-28T10:52:06.025Z</time></trkpt><trkpt lat="45.5730078" lon="10.7640408"><ele>206.66666666666669</ele><time>2026-03-28T10:52:07.028Z</time></trkpt><trkpt lat="45.572971" lon="10.7637778"><ele>206.33333333333334</ele><time>2026-03-28T10:52:08.026Z</time></trkpt><trkpt lat="45.5729312" lon="10.7634932"><ele>206.0</ele><time>2026-03-28T10:52:09.024Z</time></trkpt><trkpt lat="45.5728918" lon="10.763209"><ele>204.66666666666669</ele><time>2026-03-28T10:52:10.025Z</time></trkpt><trkpt lat="45.5728515" lon="10.762929"><ele>203.33333333333331</ele><time>2026-03-28T10:52:11.026Z</time></trkpt><trkpt lat="45.5728093" lon="10.7626498"><ele>202.0</ele><time>2026-03-28T10:52:12.024Z</time></trkpt><trkpt lat="45.5727638" lon="10.762372"><ele>202.0</ele><time>2026-03-28T10:52:13.027Z</time></trkpt><trkpt lat="45.5727173" lon="10.7620937"><ele>202.0</ele><time>2026-03-28T10:52:14.027Z</time></trkpt><trkpt lat="45.5726712" lon="10.7618155"><ele>202.0</ele><time>2026-03-28T10:52:15.024Z</time></trkpt><trkpt lat="45.572627" lon="10.7615357"><ele>202.0</ele><time>2026-03-28T10:52:16.027Z</time></trkpt><trkpt lat="45.5725823" lon="10.761253"><ele>202.0</ele><time>2026-03-28T10:52:17.028Z</time></trkpt><trkpt lat="45.5725352" lon="10.76097"><ele>202.0</ele><time>2026-03-28T10:52:18.026Z</time></trkpt><trkpt lat="45.5724862" lon="10.7606877"><ele>202.0</ele><time>2026-03-28T10:52:19.027Z</time></trkpt><trkpt lat="45.5724382" lon="10.7604047"><ele>202.0</ele><time>2026-03-28T10:52:20.027Z</time></trkpt><trkpt lat="45.5723913" lon="10.7601228"><ele>202.0</ele><time>2026-03-28T10:52:21.028Z</time></trkpt><trkpt lat="45.5723453" lon="10.7598547"><ele>202.0</ele><time>2026-03-28T10:52:22.027Z</time></trkpt><trkpt lat="45.5723018" lon="10.7596047"><ele>202.0</ele><time>2026-03-28T10:52:23.027Z</time></trkpt><trkpt lat="45.5722628" lon="10.7593785"><ele>202.0</ele><time>2026-03-28T10:52:24.03Z</time></trkpt><trkpt lat="45.5722303" lon="10.7591812"><ele>202.39999999999998</ele><time>2026-03-28T10:52:25.032Z</time></trkpt><trkpt lat="45.5722018" lon="10.7590192"><ele>202.79999999999998</ele><time>2026-03-28T10:52:26.027Z</time></trkpt><trkpt lat="45.5721795" lon="10.7588887"><ele>203.2</ele><time>2026-03-28T10:52:27.028Z</time></trkpt><trkpt lat="45.5721667" lon="10.758794"><ele>203.6</ele><time>2026-03-28T10:52:28.026Z</time></trkpt><trkpt lat="45.5721682" lon="10.7586835"><ele>204.0</ele><time>2026-03-28T10:52:30.026Z</time></trkpt><trkpt lat="45.5722157" lon="10.758549"><ele>204.5</ele><time>2026-03-28T10:52:32.029Z</time></trkpt><trkpt lat="45.5722558" lon="10.7584717"><ele>205.0</ele><time>2026-03-28T10:52:33.026Z</time></trkpt><trkpt lat="45.5723077" lon="10.7583998"><ele>205.5</ele><time>2026-03-28T10:52:34.023Z</time></trkpt><trkpt lat="45.5723737" lon="10.7583452"><ele>206.0</ele><time>2026-03-28T10:52:35.021Z</time></trkpt><trkpt lat="45.5724533" lon="10.7583065"><ele>206.5</ele><time>2026-03-28T10:52:36.023Z</time></trkpt><trkpt lat="45.5725515" lon="10.7582712"><ele>207.0</ele><time>2026-03-28T10:52:37.021Z</time></trkpt><trkpt lat="45.5726487" lon="10.7582372"><ele>207.0</ele><time>2026-03-28T10:52:38.027Z</time></trkpt><trkpt lat="45.5727482" lon="10.7582015"><ele>207.0</ele><time>2026-03-28T10:52:39.026Z</time></trkpt><trkpt lat="45.572856" lon="10.7581637"><ele>207.0</ele><time>2026-03-28T10:52:40.028Z</time></trkpt><trkpt lat="45.5729678" lon="10.7581258"><ele>207.0</ele><time>2026-03-28T10:52:41.026Z</time></trkpt><trkpt lat="45.5730785" lon="10.75809"><ele>207.0</ele><time>2026-03-28T10:52:42.027Z</time></trkpt><trkpt lat="45.5731917" lon="10.7580523"><ele>206.75</ele><time>2026-03-28T10:52:43.027Z</time></trkpt><trkpt lat="45.573309" lon="10.7580128"><ele>206.5</ele><time>2026-03-28T10:52:44.026Z</time></trkpt><trkpt lat="45.5734298" lon="10.757973"><ele>206.25</ele><time>2026-03-28T10:52:45.027Z</time></trkpt><trkpt lat="45.5735553" lon="10.7579342"><ele>206.0</ele><time>2026-03-28T10:52:46.027Z</time></trkpt><trkpt lat="45.573685" lon="10.7578945"><ele>205.5</ele><time>2026-03-28T10:52:47.027Z</time></trkpt><trkpt lat="45.573819" lon="10.757852"><ele>205.0</ele><time>2026-03-28T10:52:48.026Z</time></trkpt><trkpt lat="45.5739542" lon="10.7578055"><ele>204.5</ele><time>2026-03-28T10:52:49.027Z</time></trkpt><trkpt lat="45.574089" lon="10.7577585"><ele>204.0</ele><time>2026-03-28T10:52:50.027Z</time></trkpt><trkpt lat="45.5742235" lon="10.7577143"><ele>204.25</ele><time>2026-03-28T10:52:51.026Z</time></trkpt><trkpt lat="45.5743577" lon="10.757672"><ele>204.5</ele><time>2026-03-28T10:52:52.027Z</time></trkpt><trkpt lat="45.5744892" lon="10.757631"><ele>204.75</ele><time>2026-03-28T10:52:53.027Z</time></trkpt><trkpt lat="45.5746153" lon="10.7575922"><ele>205.0</ele><time>2026-03-28T10:52:54.026Z</time></trkpt><trkpt lat="45.5747385" lon="10.7575543"><ele>205.5</ele><time>2026-03-28T10:52:55.027Z</time></trkpt><trkpt lat="45.5748628" lon="10.7575142"><ele>206.0</ele><time>2026-03-28T10:52:56.026Z</time></trkpt><trkpt lat="45.574981" lon="10.7574737"><ele>206.5</ele><time>2026-03-28T10:52:57.027Z</time></trkpt><trkpt lat="45.5750977" lon="10.7574315"><ele>207.0</ele><time>2026-03-28T10:52:58.025Z</time></trkpt><trkpt lat="45.5752132" lon="10.7573887"><ele>207.0</ele><time>2026-03-28T10:52:59.024Z</time></trkpt><trkpt lat="45.575325" lon="10.7573483"><ele>207.0</ele><time>2026-03-28T10:53:00.022Z</time></trkpt><trkpt lat="45.5754173" lon="10.757316"><ele>207.0</ele><time>2026-03-28T10:53:01.024Z</time></trkpt><trkpt lat="45.5754835" lon="10.7572918"><ele>207.0</ele><time>2026-03-28T10:53:02.027Z</time></trkpt><trkpt lat="45.5755928" lon="10.7572513"><ele>207.0</ele><time>2026-03-28T10:53:04.027Z</time></trkpt><trkpt lat="45.575685" lon="10.7572198"><ele>207.16666666666666</ele><time>2026-03-28T10:53:06.026Z</time></trkpt><trkpt lat="45.5757988" lon="10.7571847"><ele>207.33333333333331</ele><time>2026-03-28T10:53:08.027Z</time></trkpt><trkpt lat="45.5758668" lon="10.757163"><ele>207.5</ele><time>2026-03-28T10:53:09.028Z</time></trkpt><trkpt lat="45.5759407" lon="10.7571375"><ele>207.66666666666666</ele><time>2026-03-28T10:53:10.024Z</time></trkpt><trkpt lat="45.5760162" lon="10.757112"><ele>207.83333333333331</ele><time>2026-03-28T10:53:11.026Z</time></trkpt><trkpt lat="45.5760868" lon="10.7570887"><ele>208.0</ele><time>2026-03-28T10:53:12.024Z</time></trkpt><trkpt lat="45.5761627" lon="10.757063"><ele>207.60000000000002</ele><time>2026-03-28T10:53:13.025Z</time></trkpt><trkpt lat="45.5762505" lon="10.7570323"><ele>207.20000000000002</ele><time>2026-03-28T10:53:14.025Z</time></trkpt><trkpt lat="45.5763502" lon="10.7569972"><ele>206.8</ele><time>2026-03-28T10:53:15.024Z</time></trkpt><trkpt lat="45.5764537" lon="10.7569598"><ele>206.4</ele><time>2026-03-28T10:53:16.025Z</time></trkpt><trkpt lat="45.5765587" lon="10.7569212"><ele>206.0</ele><time>2026-03-28T10:53:17.026Z</time></trkpt><trkpt lat="45.5766665" lon="10.7568833"><ele>206.0</ele><time>2026-03-28T10:53:18.026Z</time></trkpt><trkpt lat="45.576773" lon="10.7568447"><ele>206.0</ele><time>2026-03-28T10:53:19.026Z</time></trkpt><trkpt lat="45.5768638" lon="10.7567973"><ele>206.0</ele><time>2026-03-28T10:53:20.026Z</time></trkpt><trkpt lat="45.5769403" lon="10.756723"><ele>206.0</ele><time>2026-03-28T10:53:21.024Z</time></trkpt><trkpt lat="45.5770007" lon="10.756621"><ele>206.0</ele><time>2026-03-28T10:53:22.024Z</time></trkpt><trkpt lat="45.5770532" lon="10.7565007"><ele>206.0</ele><time>2026-03-28T10:53:23.023Z</time></trkpt><trkpt lat="45.5771107" lon="10.7563662"><ele>206.0</ele><time>2026-03-28T10:53:24.027Z</time></trkpt><trkpt lat="45.5771632" lon="10.7562195"><ele>206.0</ele><time>2026-03-28T10:53:25.024Z</time></trkpt><trkpt lat="45.5771997" lon="10.7560602"><ele>206.0</ele><time>2026-03-28T10:53:26.023Z</time></trkpt><trkpt lat="45.5772215" lon="10.7558867"><ele>206.0</ele><time>2026-03-28T10:53:27.024Z</time></trkpt><trkpt lat="45.5772285" lon="10.7556973"><ele>206.0</ele><time>2026-03-28T10:53:28.028Z</time></trkpt><trkpt lat="45.5772187" lon="10.75549"><ele>206.0</ele><time>2026-03-28T10:53:29.025Z</time></trkpt><trkpt lat="45.5771942" lon="10.7552733"><ele>206.0</ele><time>2026-03-28T10:53:30.025Z</time></trkpt><trkpt lat="45.5771648" lon="10.755074"><ele>206.25</ele><time>2026-03-28T10:53:31.027Z</time></trkpt><trkpt lat="45.5771382" lon="10.7548895"><ele>206.5</ele><time>2026-03-28T10:53:32.025Z</time></trkpt><trkpt lat="45.5771137" lon="10.7547175"><ele>206.75</ele><time>2026-03-28T10:53:33.025Z</time></trkpt><trkpt lat="45.5770888" lon="10.7545682"><ele>207.0</ele><time>2026-03-28T10:53:34.024Z</time></trkpt><trkpt lat="45.5770608" lon="10.7544393"><ele>207.0</ele><time>2026-03-28T10:53:35.027Z</time></trkpt><trkpt lat="45.5770295" lon="10.7543347"><ele>207.0</ele><time>2026-03-28T10:53:36.025Z</time></trkpt><trkpt lat="45.5769717" lon="10.7542083"><ele>207.0</ele><time>2026-03-28T10:53:38.024Z</time></trkpt><trkpt lat="45.5769117" lon="10.7541747"><ele>207.0</ele><time>2026-03-28T10:53:40.025Z</time></trkpt><trkpt lat="45.5768405" lon="10.7541843"><ele>207.0</ele><time>2026-03-28T10:53:43.026Z</time></trkpt><trkpt lat="45.5767603" lon="10.7541773"><ele>207.0</ele><time>2026-03-28T10:53:46.027Z</time></trkpt><trkpt lat="45.5766982" lon="10.7542015"><ele>210.0</ele><time>2026-03-28T10:53:51.025Z</time></trkpt></trkseg></trk></gpx>